<?xml version="1.0" encoding="UTF-8" standalone="no" ?>
<gpx xmlns="http://www.topografix.com/GPX/1/1" xmlns:xsi="http://www.w3.org/2001/XMLSchema-instance" xsi:schemaLocation="http://www.topografix.com/GPX/1/1 http://www.topografix.com/GPX/1/1/gpx.xsd" version="1.1" creator="VisuGPX - https://www.visugpx.com">
  <metadata>
    <name>23-08-05</name>
    <desc><![CDATA[ADV]]></desc>
  </metadata>
  <trk>
    <name><![CDATA[Sarrebourg Cyclisme sur route]]></name>
    <trkseg>
      <trkpt lat="48.73466" lon="7.05038">
        <ele>246.19999694824</ele>
        <time>2023-08-05T08:37:09.000Z</time>
      </trkpt>
      <trkpt lat="48.73488" lon="7.05037">
        <ele>249.80000305176</ele>
        <time>2023-08-05T08:37:16.000Z</time>
      </trkpt>
      <trkpt lat="48.73491" lon="7.05037">
        <ele>250</ele>
        <time>2023-08-05T08:37:17.000Z</time>
      </trkpt>
      <trkpt lat="48.73497" lon="7.05038">
        <ele>250.60000610352</ele>
        <time>2023-08-05T08:37:19.000Z</time>
      </trkpt>
      <trkpt lat="48.7351" lon="7.05036">
        <ele>250.39999389648</ele>
        <time>2023-08-05T08:37:24.000Z</time>
      </trkpt>
      <trkpt lat="48.73513" lon="7.05022">
        <ele>250.60000610352</ele>
        <time>2023-08-05T08:37:28.000Z</time>
      </trkpt>
      <trkpt lat="48.73513" lon="7.05005">
        <ele>251.19999694824</ele>
        <time>2023-08-05T08:37:33.000Z</time>
      </trkpt>
      <trkpt lat="48.73515" lon="7.04992">
        <ele>251.39999389648</ele>
        <time>2023-08-05T08:37:37.000Z</time>
      </trkpt>
      <trkpt lat="48.73519" lon="7.04976">
        <ele>251.39999389648</ele>
        <time>2023-08-05T08:37:44.000Z</time>
      </trkpt>
      <trkpt lat="48.73521" lon="7.04974">
        <ele>251.19999694824</ele>
        <time>2023-08-05T08:37:45.000Z</time>
      </trkpt>
      <trkpt lat="48.73525" lon="7.04969">
        <ele>251</ele>
        <time>2023-08-05T08:37:47.000Z</time>
      </trkpt>
      <trkpt lat="48.73525" lon="7.04964">
        <ele>251</ele>
        <time>2023-08-05T08:37:48.000Z</time>
      </trkpt>
      <trkpt lat="48.73521" lon="7.0495">
        <ele>250.60000610352</ele>
        <time>2023-08-05T08:37:51.000Z</time>
      </trkpt>
      <trkpt lat="48.73518" lon="7.04933">
        <ele>250.19999694824</ele>
        <time>2023-08-05T08:37:54.000Z</time>
      </trkpt>
      <trkpt lat="48.73516" lon="7.04915">
        <ele>250</ele>
        <time>2023-08-05T08:37:57.000Z</time>
      </trkpt>
      <trkpt lat="48.73518" lon="7.04874">
        <ele>250</ele>
        <time>2023-08-05T08:38:03.000Z</time>
      </trkpt>
      <trkpt lat="48.73519" lon="7.04852">
        <ele>250</ele>
        <time>2023-08-05T08:38:06.000Z</time>
      </trkpt>
      <trkpt lat="48.73521" lon="7.04838">
        <ele>249.80000305176</ele>
        <time>2023-08-05T08:38:08.000Z</time>
      </trkpt>
      <trkpt lat="48.73521" lon="7.0483">
        <ele>249.60000610352</ele>
        <time>2023-08-05T08:38:09.000Z</time>
      </trkpt>
      <trkpt lat="48.73523" lon="7.04801">
        <ele>249.39999389648</ele>
        <time>2023-08-05T08:38:13.000Z</time>
      </trkpt>
      <trkpt lat="48.73523" lon="7.04785">
        <ele>249.39999389648</ele>
        <time>2023-08-05T08:38:15.000Z</time>
      </trkpt>
      <trkpt lat="48.73527" lon="7.04721">
        <ele>249.60000610352</ele>
        <time>2023-08-05T08:38:24.000Z</time>
      </trkpt>
      <trkpt lat="48.7353" lon="7.04703">
        <ele>249.80000305176</ele>
        <time>2023-08-05T08:38:27.000Z</time>
      </trkpt>
      <trkpt lat="48.7353" lon="7.04691">
        <ele>250</ele>
        <time>2023-08-05T08:38:29.000Z</time>
      </trkpt>
      <trkpt lat="48.7352" lon="7.04658">
        <ele>250.19999694824</ele>
        <time>2023-08-05T08:38:34.000Z</time>
      </trkpt>
      <trkpt lat="48.73516" lon="7.04644">
        <ele>250.19999694824</ele>
        <time>2023-08-05T08:38:36.000Z</time>
      </trkpt>
      <trkpt lat="48.73507" lon="7.04626">
        <ele>250.39999389648</ele>
        <time>2023-08-05T08:38:39.000Z</time>
      </trkpt>
      <trkpt lat="48.735" lon="7.04616">
        <ele>250.39999389648</ele>
        <time>2023-08-05T08:38:41.000Z</time>
      </trkpt>
      <trkpt lat="48.73469" lon="7.04562">
        <ele>250.39999389648</ele>
        <time>2023-08-05T08:38:51.000Z</time>
      </trkpt>
      <trkpt lat="48.73454" lon="7.04536">
        <ele>250.80000305176</ele>
        <time>2023-08-05T08:38:57.000Z</time>
      </trkpt>
      <trkpt lat="48.7345" lon="7.04528">
        <ele>251.60000610352</ele>
        <time>2023-08-05T08:38:59.000Z</time>
      </trkpt>
      <trkpt lat="48.73439" lon="7.04507">
        <ele>252.60000610352</ele>
        <time>2023-08-05T08:39:04.000Z</time>
      </trkpt>
      <trkpt lat="48.73424" lon="7.04479">
        <ele>253.80000305176</ele>
        <time>2023-08-05T08:39:11.000Z</time>
      </trkpt>
      <trkpt lat="48.73416" lon="7.04462">
        <ele>254.80000305176</ele>
        <time>2023-08-05T08:39:15.000Z</time>
      </trkpt>
      <trkpt lat="48.73413" lon="7.04448">
        <ele>255.19999694824</ele>
        <time>2023-08-05T08:39:18.000Z</time>
      </trkpt>
      <trkpt lat="48.73415" lon="7.04434">
        <ele>256</ele>
        <time>2023-08-05T08:39:21.000Z</time>
      </trkpt>
      <trkpt lat="48.73418" lon="7.04426">
        <ele>256.39999389648</ele>
        <time>2023-08-05T08:39:23.000Z</time>
      </trkpt>
      <trkpt lat="48.73425" lon="7.04413">
        <ele>257</ele>
        <time>2023-08-05T08:39:26.000Z</time>
      </trkpt>
      <trkpt lat="48.73436" lon="7.04388">
        <ele>257.39999389648</ele>
        <time>2023-08-05T08:39:32.000Z</time>
      </trkpt>
      <trkpt lat="48.73448" lon="7.04362">
        <ele>257.39999389648</ele>
        <time>2023-08-05T08:39:38.000Z</time>
      </trkpt>
      <trkpt lat="48.73461" lon="7.04334">
        <ele>257.39999389648</ele>
        <time>2023-08-05T08:39:44.000Z</time>
      </trkpt>
      <trkpt lat="48.73473" lon="7.04318">
        <ele>257.39999389648</ele>
        <time>2023-08-05T08:39:48.000Z</time>
      </trkpt>
      <trkpt lat="48.73492" lon="7.04308">
        <ele>257.39999389648</ele>
        <time>2023-08-05T08:39:52.000Z</time>
      </trkpt>
      <trkpt lat="48.73498" lon="7.04295">
        <ele>257.20001220703</ele>
        <time>2023-08-05T08:39:54.000Z</time>
      </trkpt>
      <trkpt lat="48.73498" lon="7.04287">
        <ele>257.20001220703</ele>
        <time>2023-08-05T08:39:55.000Z</time>
      </trkpt>
      <trkpt lat="48.735" lon="7.04272">
        <ele>257</ele>
        <time>2023-08-05T08:39:57.000Z</time>
      </trkpt>
      <trkpt lat="48.73507" lon="7.04259">
        <ele>256.79998779297</ele>
        <time>2023-08-05T08:39:59.000Z</time>
      </trkpt>
      <trkpt lat="48.73533" lon="7.04246">
        <ele>256.39999389648</ele>
        <time>2023-08-05T08:40:04.000Z</time>
      </trkpt>
      <trkpt lat="48.73553" lon="7.04237">
        <ele>256.20001220703</ele>
        <time>2023-08-05T08:40:09.000Z</time>
      </trkpt>
      <trkpt lat="48.73571" lon="7.04224">
        <ele>257.20001220703</ele>
        <time>2023-08-05T08:40:15.000Z</time>
      </trkpt>
      <trkpt lat="48.73582" lon="7.04216">
        <ele>258.39999389648</ele>
        <time>2023-08-05T08:40:19.000Z</time>
      </trkpt>
      <trkpt lat="48.73593" lon="7.04206">
        <ele>259.79998779297</ele>
        <time>2023-08-05T08:40:24.000Z</time>
      </trkpt>
      <trkpt lat="48.73603" lon="7.04196">
        <ele>261</ele>
        <time>2023-08-05T08:40:29.000Z</time>
      </trkpt>
      <trkpt lat="48.73608" lon="7.04193">
        <ele>261.39999389648</ele>
        <time>2023-08-05T08:40:31.000Z</time>
      </trkpt>
      <trkpt lat="48.73613" lon="7.04189">
        <ele>262.20001220703</ele>
        <time>2023-08-05T08:40:34.000Z</time>
      </trkpt>
      <trkpt lat="48.7362" lon="7.04181">
        <ele>263.20001220703</ele>
        <time>2023-08-05T08:40:38.000Z</time>
      </trkpt>
      <trkpt lat="48.7363" lon="7.04173">
        <ele>264.39999389648</ele>
        <time>2023-08-05T08:40:43.000Z</time>
      </trkpt>
      <trkpt lat="48.73636" lon="7.04166">
        <ele>265</ele>
        <time>2023-08-05T08:40:46.000Z</time>
      </trkpt>
      <trkpt lat="48.73641" lon="7.04161">
        <ele>265.60000610352</ele>
        <time>2023-08-05T08:40:48.000Z</time>
      </trkpt>
      <trkpt lat="48.7365" lon="7.04155">
        <ele>266.79998779297</ele>
        <time>2023-08-05T08:40:52.000Z</time>
      </trkpt>
      <trkpt lat="48.73661" lon="7.04144">
        <ele>268</ele>
        <time>2023-08-05T08:40:57.000Z</time>
      </trkpt>
      <trkpt lat="48.73666" lon="7.04141">
        <ele>268.20001220703</ele>
        <time>2023-08-05T08:40:59.000Z</time>
      </trkpt>
      <trkpt lat="48.73672" lon="7.04136">
        <ele>269.20001220703</ele>
        <time>2023-08-05T08:41:02.000Z</time>
      </trkpt>
      <trkpt lat="48.73684" lon="7.04127">
        <ele>270.20001220703</ele>
        <time>2023-08-05T08:41:07.000Z</time>
      </trkpt>
      <trkpt lat="48.73697" lon="7.04115">
        <ele>271.60000610352</ele>
        <time>2023-08-05T08:41:13.000Z</time>
      </trkpt>
      <trkpt lat="48.73698" lon="7.04113">
        <ele>272</ele>
        <time>2023-08-05T08:41:14.000Z</time>
      </trkpt>
      <trkpt lat="48.73702" lon="7.04109">
        <ele>272.60000610352</ele>
        <time>2023-08-05T08:41:16.000Z</time>
      </trkpt>
      <trkpt lat="48.73712" lon="7.041">
        <ele>273.79998779297</ele>
        <time>2023-08-05T08:41:21.000Z</time>
      </trkpt>
      <trkpt lat="48.73723" lon="7.04091">
        <ele>275.20001220703</ele>
        <time>2023-08-05T08:41:26.000Z</time>
      </trkpt>
      <trkpt lat="48.73729" lon="7.04086">
        <ele>275.60000610352</ele>
        <time>2023-08-05T08:41:29.000Z</time>
      </trkpt>
      <trkpt lat="48.73736" lon="7.0408">
        <ele>276.20001220703</ele>
        <time>2023-08-05T08:41:32.000Z</time>
      </trkpt>
      <trkpt lat="48.73744" lon="7.04072">
        <ele>277.20001220703</ele>
        <time>2023-08-05T08:41:36.000Z</time>
      </trkpt>
      <trkpt lat="48.73753" lon="7.04064">
        <ele>278.20001220703</ele>
        <time>2023-08-05T08:41:40.000Z</time>
      </trkpt>
      <trkpt lat="48.73761" lon="7.04057">
        <ele>279.20001220703</ele>
        <time>2023-08-05T08:41:44.000Z</time>
      </trkpt>
      <trkpt lat="48.73763" lon="7.04055">
        <ele>279.60000610352</ele>
        <time>2023-08-05T08:41:45.000Z</time>
      </trkpt>
      <trkpt lat="48.73772" lon="7.04047">
        <ele>280.60000610352</ele>
        <time>2023-08-05T08:41:49.000Z</time>
      </trkpt>
      <trkpt lat="48.73776" lon="7.04044">
        <ele>281</ele>
        <time>2023-08-05T08:41:51.000Z</time>
      </trkpt>
      <trkpt lat="48.73783" lon="7.04038">
        <ele>281.60000610352</ele>
        <time>2023-08-05T08:41:54.000Z</time>
      </trkpt>
      <trkpt lat="48.73794" lon="7.04028">
        <ele>282.79998779297</ele>
        <time>2023-08-05T08:42:00.000Z</time>
      </trkpt>
      <trkpt lat="48.738" lon="7.04022">
        <ele>283.79998779297</ele>
        <time>2023-08-05T08:42:03.000Z</time>
      </trkpt>
      <trkpt lat="48.73811" lon="7.0401">
        <ele>284.79998779297</ele>
        <time>2023-08-05T08:42:09.000Z</time>
      </trkpt>
      <trkpt lat="48.73823" lon="7.03999">
        <ele>286</ele>
        <time>2023-08-05T08:42:15.000Z</time>
      </trkpt>
      <trkpt lat="48.73836" lon="7.03986">
        <ele>287</ele>
        <time>2023-08-05T08:42:22.000Z</time>
      </trkpt>
      <trkpt lat="48.73846" lon="7.03978">
        <ele>288.20001220703</ele>
        <time>2023-08-05T08:42:27.000Z</time>
      </trkpt>
      <trkpt lat="48.73851" lon="7.03973">
        <ele>288.60000610352</ele>
        <time>2023-08-05T08:42:30.000Z</time>
      </trkpt>
      <trkpt lat="48.73864" lon="7.0396">
        <ele>289.20001220703</ele>
        <time>2023-08-05T08:42:36.000Z</time>
      </trkpt>
      <trkpt lat="48.73873" lon="7.03952">
        <ele>289.60000610352</ele>
        <time>2023-08-05T08:42:40.000Z</time>
      </trkpt>
      <trkpt lat="48.73883" lon="7.03943">
        <ele>290.39999389648</ele>
        <time>2023-08-05T08:42:44.000Z</time>
      </trkpt>
      <trkpt lat="48.73891" lon="7.03938">
        <ele>290.60000610352</ele>
        <time>2023-08-05T08:42:47.000Z</time>
      </trkpt>
      <trkpt lat="48.73912" lon="7.0392">
        <ele>291.20001220703</ele>
        <time>2023-08-05T08:42:55.000Z</time>
      </trkpt>
      <trkpt lat="48.73917" lon="7.03912">
        <ele>291.60000610352</ele>
        <time>2023-08-05T08:42:57.000Z</time>
      </trkpt>
      <trkpt lat="48.73928" lon="7.03895">
        <ele>292</ele>
        <time>2023-08-05T08:43:01.000Z</time>
      </trkpt>
      <trkpt lat="48.73935" lon="7.03879">
        <ele>292.60000610352</ele>
        <time>2023-08-05T08:43:05.000Z</time>
      </trkpt>
      <trkpt lat="48.73939" lon="7.0387">
        <ele>292.79998779297</ele>
        <time>2023-08-05T08:43:07.000Z</time>
      </trkpt>
      <trkpt lat="48.73954" lon="7.03841">
        <ele>293.20001220703</ele>
        <time>2023-08-05T08:43:14.000Z</time>
      </trkpt>
      <trkpt lat="48.73962" lon="7.03828">
        <ele>293.60000610352</ele>
        <time>2023-08-05T08:43:17.000Z</time>
      </trkpt>
      <trkpt lat="48.73974" lon="7.03807">
        <ele>294.60000610352</ele>
        <time>2023-08-05T08:43:22.000Z</time>
      </trkpt>
      <trkpt lat="48.73979" lon="7.03798">
        <ele>294.79998779297</ele>
        <time>2023-08-05T08:43:24.000Z</time>
      </trkpt>
      <trkpt lat="48.73994" lon="7.03769">
        <ele>295.79998779297</ele>
        <time>2023-08-05T08:43:31.000Z</time>
      </trkpt>
      <trkpt lat="48.73996" lon="7.03765">
        <ele>295.79998779297</ele>
        <time>2023-08-05T08:43:32.000Z</time>
      </trkpt>
      <trkpt lat="48.74013" lon="7.03737">
        <ele>297</ele>
        <time>2023-08-05T08:43:39.000Z</time>
      </trkpt>
      <trkpt lat="48.74017" lon="7.03728">
        <ele>297.39999389648</ele>
        <time>2023-08-05T08:43:41.000Z</time>
      </trkpt>
      <trkpt lat="48.74029" lon="7.03706">
        <ele>298.20001220703</ele>
        <time>2023-08-05T08:43:46.000Z</time>
      </trkpt>
      <trkpt lat="48.74049" lon="7.03669">
        <ele>299.20001220703</ele>
        <time>2023-08-05T08:43:54.000Z</time>
      </trkpt>
      <trkpt lat="48.74051" lon="7.03664">
        <ele>299.39999389648</ele>
        <time>2023-08-05T08:43:55.000Z</time>
      </trkpt>
      <trkpt lat="48.74067" lon="7.03633">
        <ele>300.39999389648</ele>
        <time>2023-08-05T08:44:02.000Z</time>
      </trkpt>
      <trkpt lat="48.74077" lon="7.03614">
        <ele>300.79998779297</ele>
        <time>2023-08-05T08:44:06.000Z</time>
      </trkpt>
      <trkpt lat="48.74089" lon="7.03592">
        <ele>301.60000610352</ele>
        <time>2023-08-05T08:44:11.000Z</time>
      </trkpt>
      <trkpt lat="48.74102" lon="7.03566">
        <ele>302.39999389648</ele>
        <time>2023-08-05T08:44:17.000Z</time>
      </trkpt>
      <trkpt lat="48.74106" lon="7.03558">
        <ele>302.60000610352</ele>
        <time>2023-08-05T08:44:19.000Z</time>
      </trkpt>
      <trkpt lat="48.74125" lon="7.03522">
        <ele>303.60000610352</ele>
        <time>2023-08-05T08:44:28.000Z</time>
      </trkpt>
      <trkpt lat="48.74127" lon="7.03518">
        <ele>303.60000610352</ele>
        <time>2023-08-05T08:44:29.000Z</time>
      </trkpt>
      <trkpt lat="48.74146" lon="7.03481">
        <ele>304.60000610352</ele>
        <time>2023-08-05T08:44:38.000Z</time>
      </trkpt>
      <trkpt lat="48.7415" lon="7.03473">
        <ele>304.79998779297</ele>
        <time>2023-08-05T08:44:40.000Z</time>
      </trkpt>
      <trkpt lat="48.74165" lon="7.03444">
        <ele>305.79998779297</ele>
        <time>2023-08-05T08:44:47.000Z</time>
      </trkpt>
      <trkpt lat="48.74173" lon="7.03428">
        <ele>306.20001220703</ele>
        <time>2023-08-05T08:44:51.000Z</time>
      </trkpt>
      <trkpt lat="48.74182" lon="7.03413">
        <ele>306.79998779297</ele>
        <time>2023-08-05T08:44:55.000Z</time>
      </trkpt>
      <trkpt lat="48.74187" lon="7.03405">
        <ele>307.20001220703</ele>
        <time>2023-08-05T08:44:58.000Z</time>
      </trkpt>
      <trkpt lat="48.74194" lon="7.03391">
        <ele>308.20001220703</ele>
        <time>2023-08-05T08:45:02.000Z</time>
      </trkpt>
      <trkpt lat="48.74196" lon="7.03387">
        <ele>308.39999389648</ele>
        <time>2023-08-05T08:45:03.000Z</time>
      </trkpt>
      <trkpt lat="48.7421" lon="7.03358">
        <ele>309.20001220703</ele>
        <time>2023-08-05T08:45:10.000Z</time>
      </trkpt>
      <trkpt lat="48.74212" lon="7.03354">
        <ele>309.39999389648</ele>
        <time>2023-08-05T08:45:11.000Z</time>
      </trkpt>
      <trkpt lat="48.74226" lon="7.03327">
        <ele>310.39999389648</ele>
        <time>2023-08-05T08:45:18.000Z</time>
      </trkpt>
      <trkpt lat="48.74228" lon="7.03323">
        <ele>310.60000610352</ele>
        <time>2023-08-05T08:45:19.000Z</time>
      </trkpt>
      <trkpt lat="48.74244" lon="7.03294">
        <ele>311.39999389648</ele>
        <time>2023-08-05T08:45:26.000Z</time>
      </trkpt>
      <trkpt lat="48.74245" lon="7.03291">
        <ele>311.39999389648</ele>
        <time>2023-08-05T08:45:27.000Z</time>
      </trkpt>
      <trkpt lat="48.7426" lon="7.03263">
        <ele>312.60000610352</ele>
        <time>2023-08-05T08:45:34.000Z</time>
      </trkpt>
      <trkpt lat="48.74274" lon="7.03235">
        <ele>313.60000610352</ele>
        <time>2023-08-05T08:45:41.000Z</time>
      </trkpt>
      <trkpt lat="48.74279" lon="7.03225">
        <ele>314.20001220703</ele>
        <time>2023-08-05T08:45:44.000Z</time>
      </trkpt>
      <trkpt lat="48.74285" lon="7.03213">
        <ele>314.79998779297</ele>
        <time>2023-08-05T08:45:47.000Z</time>
      </trkpt>
      <trkpt lat="48.74289" lon="7.03207">
        <ele>315.39999389648</ele>
        <time>2023-08-05T08:45:49.000Z</time>
      </trkpt>
      <trkpt lat="48.74294" lon="7.03196">
        <ele>316.20001220703</ele>
        <time>2023-08-05T08:45:52.000Z</time>
      </trkpt>
      <trkpt lat="48.74301" lon="7.0318">
        <ele>316.79998779297</ele>
        <time>2023-08-05T08:45:56.000Z</time>
      </trkpt>
      <trkpt lat="48.74304" lon="7.03172">
        <ele>317.20001220703</ele>
        <time>2023-08-05T08:45:58.000Z</time>
      </trkpt>
      <trkpt lat="48.74315" lon="7.03152">
        <ele>318.39999389648</ele>
        <time>2023-08-05T08:46:03.000Z</time>
      </trkpt>
      <trkpt lat="48.74321" lon="7.03141">
        <ele>318.79998779297</ele>
        <time>2023-08-05T08:46:06.000Z</time>
      </trkpt>
      <trkpt lat="48.74328" lon="7.03129">
        <ele>319.39999389648</ele>
        <time>2023-08-05T08:46:09.000Z</time>
      </trkpt>
      <trkpt lat="48.74344" lon="7.03098">
        <ele>320.20001220703</ele>
        <time>2023-08-05T08:46:17.000Z</time>
      </trkpt>
      <trkpt lat="48.74346" lon="7.03094">
        <ele>320.39999389648</ele>
        <time>2023-08-05T08:46:18.000Z</time>
      </trkpt>
      <trkpt lat="48.74368" lon="7.03054">
        <ele>321.60000610352</ele>
        <time>2023-08-05T08:46:28.000Z</time>
      </trkpt>
      <trkpt lat="48.7437" lon="7.0305">
        <ele>321.60000610352</ele>
        <time>2023-08-05T08:46:29.000Z</time>
      </trkpt>
      <trkpt lat="48.74393" lon="7.03005">
        <ele>322.60000610352</ele>
        <time>2023-08-05T08:46:39.000Z</time>
      </trkpt>
      <trkpt lat="48.74397" lon="7.02994">
        <ele>322.60000610352</ele>
        <time>2023-08-05T08:46:41.000Z</time>
      </trkpt>
      <trkpt lat="48.74412" lon="7.02962">
        <ele>322.60000610352</ele>
        <time>2023-08-05T08:46:46.000Z</time>
      </trkpt>
      <trkpt lat="48.74436" lon="7.02908">
        <ele>322</ele>
        <time>2023-08-05T08:46:53.000Z</time>
      </trkpt>
      <trkpt lat="48.7444" lon="7.029">
        <ele>321.39999389648</ele>
        <time>2023-08-05T08:46:54.000Z</time>
      </trkpt>
      <trkpt lat="48.74459" lon="7.02856">
        <ele>320.20001220703</ele>
        <time>2023-08-05T08:46:59.000Z</time>
      </trkpt>
      <trkpt lat="48.74477" lon="7.02815">
        <ele>319.20001220703</ele>
        <time>2023-08-05T08:47:03.000Z</time>
      </trkpt>
      <trkpt lat="48.74486" lon="7.02794">
        <ele>318.39999389648</ele>
        <time>2023-08-05T08:47:05.000Z</time>
      </trkpt>
      <trkpt lat="48.74495" lon="7.02774">
        <ele>318</ele>
        <time>2023-08-05T08:47:07.000Z</time>
      </trkpt>
      <trkpt lat="48.74508" lon="7.02742">
        <ele>316.79998779297</ele>
        <time>2023-08-05T08:47:10.000Z</time>
      </trkpt>
      <trkpt lat="48.74521" lon="7.02712">
        <ele>316</ele>
        <time>2023-08-05T08:47:13.000Z</time>
      </trkpt>
      <trkpt lat="48.74529" lon="7.02693">
        <ele>315.60000610352</ele>
        <time>2023-08-05T08:47:15.000Z</time>
      </trkpt>
      <trkpt lat="48.74545" lon="7.02657">
        <ele>315.20001220703</ele>
        <time>2023-08-05T08:47:19.000Z</time>
      </trkpt>
      <trkpt lat="48.7456" lon="7.02623">
        <ele>314.39999389648</ele>
        <time>2023-08-05T08:47:23.000Z</time>
      </trkpt>
      <trkpt lat="48.74575" lon="7.0259">
        <ele>314</ele>
        <time>2023-08-05T08:47:27.000Z</time>
      </trkpt>
      <trkpt lat="48.74589" lon="7.02556">
        <ele>313.39999389648</ele>
        <time>2023-08-05T08:47:31.000Z</time>
      </trkpt>
      <trkpt lat="48.74619" lon="7.02487">
        <ele>312.60000610352</ele>
        <time>2023-08-05T08:47:39.000Z</time>
      </trkpt>
      <trkpt lat="48.74627" lon="7.0247">
        <ele>312.60000610352</ele>
        <time>2023-08-05T08:47:41.000Z</time>
      </trkpt>
      <trkpt lat="48.74638" lon="7.02444">
        <ele>312.39999389648</ele>
        <time>2023-08-05T08:47:44.000Z</time>
      </trkpt>
      <trkpt lat="48.74664" lon="7.02388">
        <ele>312.20001220703</ele>
        <time>2023-08-05T08:47:51.000Z</time>
      </trkpt>
      <trkpt lat="48.74691" lon="7.02326">
        <ele>312.39999389648</ele>
        <time>2023-08-05T08:47:59.000Z</time>
      </trkpt>
      <trkpt lat="48.74712" lon="7.02278">
        <ele>313</ele>
        <time>2023-08-05T08:48:06.000Z</time>
      </trkpt>
      <trkpt lat="48.74718" lon="7.02265">
        <ele>313.39999389648</ele>
        <time>2023-08-05T08:48:08.000Z</time>
      </trkpt>
      <trkpt lat="48.7474" lon="7.02215">
        <ele>314.39999389648</ele>
        <time>2023-08-05T08:48:16.000Z</time>
      </trkpt>
      <trkpt lat="48.74758" lon="7.02173">
        <ele>315.39999389648</ele>
        <time>2023-08-05T08:48:23.000Z</time>
      </trkpt>
      <trkpt lat="48.7476" lon="7.02167">
        <ele>315.60000610352</ele>
        <time>2023-08-05T08:48:24.000Z</time>
      </trkpt>
      <trkpt lat="48.74778" lon="7.02116">
        <ele>316.39999389648</ele>
        <time>2023-08-05T08:48:32.000Z</time>
      </trkpt>
      <trkpt lat="48.74782" lon="7.02103">
        <ele>316.79998779297</ele>
        <time>2023-08-05T08:48:34.000Z</time>
      </trkpt>
      <trkpt lat="48.74795" lon="7.02056">
        <ele>317.60000610352</ele>
        <time>2023-08-05T08:48:41.000Z</time>
      </trkpt>
      <trkpt lat="48.74797" lon="7.02049">
        <ele>317.60000610352</ele>
        <time>2023-08-05T08:48:42.000Z</time>
      </trkpt>
      <trkpt lat="48.74801" lon="7.02034">
        <ele>317.60000610352</ele>
        <time>2023-08-05T08:48:44.000Z</time>
      </trkpt>
      <trkpt lat="48.74822" lon="7.01954">
        <ele>318.60000610352</ele>
        <time>2023-08-05T08:48:55.000Z</time>
      </trkpt>
      <trkpt lat="48.74824" lon="7.01946">
        <ele>318.60000610352</ele>
        <time>2023-08-05T08:48:56.000Z</time>
      </trkpt>
      <trkpt lat="48.74835" lon="7.01898">
        <ele>318.20001220703</ele>
        <time>2023-08-05T08:49:02.000Z</time>
      </trkpt>
      <trkpt lat="48.7484" lon="7.01873">
        <ele>318</ele>
        <time>2023-08-05T08:49:05.000Z</time>
      </trkpt>
      <trkpt lat="48.74844" lon="7.01847">
        <ele>317.79998779297</ele>
        <time>2023-08-05T08:49:08.000Z</time>
      </trkpt>
      <trkpt lat="48.74852" lon="7.01784">
        <ele>317.39999389648</ele>
        <time>2023-08-05T08:49:15.000Z</time>
      </trkpt>
      <trkpt lat="48.74855" lon="7.01755">
        <ele>317.20001220703</ele>
        <time>2023-08-05T08:49:18.000Z</time>
      </trkpt>
      <trkpt lat="48.74861" lon="7.01704">
        <ele>316.20001220703</ele>
        <time>2023-08-05T08:49:23.000Z</time>
      </trkpt>
      <trkpt lat="48.74865" lon="7.01673">
        <ele>315.60000610352</ele>
        <time>2023-08-05T08:49:26.000Z</time>
      </trkpt>
      <trkpt lat="48.74867" lon="7.01651">
        <ele>315.20001220703</ele>
        <time>2023-08-05T08:49:28.000Z</time>
      </trkpt>
      <trkpt lat="48.74873" lon="7.01605">
        <ele>314.20001220703</ele>
        <time>2023-08-05T08:49:32.000Z</time>
      </trkpt>
      <trkpt lat="48.74878" lon="7.01568">
        <ele>313.39999389648</ele>
        <time>2023-08-05T08:49:35.000Z</time>
      </trkpt>
      <trkpt lat="48.74879" lon="7.01556">
        <ele>312.60000610352</ele>
        <time>2023-08-05T08:49:36.000Z</time>
      </trkpt>
      <trkpt lat="48.74883" lon="7.01522">
        <ele>311.60000610352</ele>
        <time>2023-08-05T08:49:39.000Z</time>
      </trkpt>
      <trkpt lat="48.74888" lon="7.01483">
        <ele>310.39999389648</ele>
        <time>2023-08-05T08:49:42.000Z</time>
      </trkpt>
      <trkpt lat="48.74891" lon="7.01457">
        <ele>309.39999389648</ele>
        <time>2023-08-05T08:49:44.000Z</time>
      </trkpt>
      <trkpt lat="48.74894" lon="7.0143">
        <ele>308.39999389648</ele>
        <time>2023-08-05T08:49:46.000Z</time>
      </trkpt>
      <trkpt lat="48.74899" lon="7.01376">
        <ele>306.79998779297</ele>
        <time>2023-08-05T08:49:50.000Z</time>
      </trkpt>
      <trkpt lat="48.74903" lon="7.01351">
        <ele>305.79998779297</ele>
        <time>2023-08-05T08:49:52.000Z</time>
      </trkpt>
      <trkpt lat="48.74904" lon="7.01339">
        <ele>305.20001220703</ele>
        <time>2023-08-05T08:49:53.000Z</time>
      </trkpt>
      <trkpt lat="48.74908" lon="7.01303">
        <ele>304</ele>
        <time>2023-08-05T08:49:56.000Z</time>
      </trkpt>
      <trkpt lat="48.74911" lon="7.0128">
        <ele>303.39999389648</ele>
        <time>2023-08-05T08:49:58.000Z</time>
      </trkpt>
      <trkpt lat="48.74914" lon="7.01257">
        <ele>302.79998779297</ele>
        <time>2023-08-05T08:50:00.000Z</time>
      </trkpt>
      <trkpt lat="48.74921" lon="7.01199">
        <ele>301.39999389648</ele>
        <time>2023-08-05T08:50:05.000Z</time>
      </trkpt>
      <trkpt lat="48.74923" lon="7.01176">
        <ele>301.20001220703</ele>
        <time>2023-08-05T08:50:07.000Z</time>
      </trkpt>
      <trkpt lat="48.7493" lon="7.0112">
        <ele>300.39999389648</ele>
        <time>2023-08-05T08:50:12.000Z</time>
      </trkpt>
      <trkpt lat="48.74934" lon="7.01097">
        <ele>300.20001220703</ele>
        <time>2023-08-05T08:50:14.000Z</time>
      </trkpt>
      <trkpt lat="48.74936" lon="7.01086">
        <ele>300</ele>
        <time>2023-08-05T08:50:15.000Z</time>
      </trkpt>
      <trkpt lat="48.7495" lon="7.01046">
        <ele>299.20001220703</ele>
        <time>2023-08-05T08:50:19.000Z</time>
      </trkpt>
      <trkpt lat="48.74954" lon="7.01037">
        <ele>299.20001220703</ele>
        <time>2023-08-05T08:50:20.000Z</time>
      </trkpt>
      <trkpt lat="48.74958" lon="7.01028">
        <ele>299</ele>
        <time>2023-08-05T08:50:21.000Z</time>
      </trkpt>
      <trkpt lat="48.74969" lon="7.01011">
        <ele>298.60000610352</ele>
        <time>2023-08-05T08:50:23.000Z</time>
      </trkpt>
      <trkpt lat="48.74975" lon="7.01004">
        <ele>298.39999389648</ele>
        <time>2023-08-05T08:50:24.000Z</time>
      </trkpt>
      <trkpt lat="48.74982" lon="7.00996">
        <ele>298.20001220703</ele>
        <time>2023-08-05T08:50:25.000Z</time>
      </trkpt>
      <trkpt lat="48.75018" lon="7.0096">
        <ele>297.20001220703</ele>
        <time>2023-08-05T08:50:30.000Z</time>
      </trkpt>
      <trkpt lat="48.75035" lon="7.00944">
        <ele>296</ele>
        <time>2023-08-05T08:50:32.000Z</time>
      </trkpt>
      <trkpt lat="48.75053" lon="7.00927">
        <ele>294.60000610352</ele>
        <time>2023-08-05T08:50:34.000Z</time>
      </trkpt>
      <trkpt lat="48.75062" lon="7.00918">
        <ele>294.20001220703</ele>
        <time>2023-08-05T08:50:35.000Z</time>
      </trkpt>
      <trkpt lat="48.75071" lon="7.00909">
        <ele>293.39999389648</ele>
        <time>2023-08-05T08:50:36.000Z</time>
      </trkpt>
      <trkpt lat="48.7509" lon="7.00891">
        <ele>292.20001220703</ele>
        <time>2023-08-05T08:50:38.000Z</time>
      </trkpt>
      <trkpt lat="48.75099" lon="7.00881">
        <ele>291</ele>
        <time>2023-08-05T08:50:39.000Z</time>
      </trkpt>
      <trkpt lat="48.75119" lon="7.00863">
        <ele>289</ele>
        <time>2023-08-05T08:50:41.000Z</time>
      </trkpt>
      <trkpt lat="48.75139" lon="7.00843">
        <ele>287.39999389648</ele>
        <time>2023-08-05T08:50:43.000Z</time>
      </trkpt>
      <trkpt lat="48.75159" lon="7.00824">
        <ele>285.60000610352</ele>
        <time>2023-08-05T08:50:45.000Z</time>
      </trkpt>
      <trkpt lat="48.75169" lon="7.00814">
        <ele>284</ele>
        <time>2023-08-05T08:50:46.000Z</time>
      </trkpt>
      <trkpt lat="48.7519" lon="7.00793">
        <ele>282.20001220703</ele>
        <time>2023-08-05T08:50:48.000Z</time>
      </trkpt>
      <trkpt lat="48.75212" lon="7.00772">
        <ele>280.60000610352</ele>
        <time>2023-08-05T08:50:50.000Z</time>
      </trkpt>
      <trkpt lat="48.75222" lon="7.00761">
        <ele>279.20001220703</ele>
        <time>2023-08-05T08:50:51.000Z</time>
      </trkpt>
      <trkpt lat="48.75244" lon="7.0074">
        <ele>277.20001220703</ele>
        <time>2023-08-05T08:50:53.000Z</time>
      </trkpt>
      <trkpt lat="48.75265" lon="7.0072">
        <ele>274.79998779297</ele>
        <time>2023-08-05T08:50:55.000Z</time>
      </trkpt>
      <trkpt lat="48.75284" lon="7.00701">
        <ele>273.39999389648</ele>
        <time>2023-08-05T08:50:57.000Z</time>
      </trkpt>
      <trkpt lat="48.75294" lon="7.00692">
        <ele>272.39999389648</ele>
        <time>2023-08-05T08:50:58.000Z</time>
      </trkpt>
      <trkpt lat="48.75311" lon="7.00676">
        <ele>271.39999389648</ele>
        <time>2023-08-05T08:51:00.000Z</time>
      </trkpt>
      <trkpt lat="48.75334" lon="7.00654">
        <ele>270.20001220703</ele>
        <time>2023-08-05T08:51:03.000Z</time>
      </trkpt>
      <trkpt lat="48.75363" lon="7.00625">
        <ele>270.20001220703</ele>
        <time>2023-08-05T08:51:08.000Z</time>
      </trkpt>
      <trkpt lat="48.75381" lon="7.00608">
        <ele>271.39999389648</ele>
        <time>2023-08-05T08:51:12.000Z</time>
      </trkpt>
      <trkpt lat="48.75389" lon="7.006">
        <ele>272</ele>
        <time>2023-08-05T08:51:14.000Z</time>
      </trkpt>
      <trkpt lat="48.75397" lon="7.00591">
        <ele>272.60000610352</ele>
        <time>2023-08-05T08:51:16.000Z</time>
      </trkpt>
      <trkpt lat="48.75401" lon="7.00586">
        <ele>273</ele>
        <time>2023-08-05T08:51:17.000Z</time>
      </trkpt>
      <trkpt lat="48.75411" lon="7.00569">
        <ele>273.60000610352</ele>
        <time>2023-08-05T08:51:20.000Z</time>
      </trkpt>
      <trkpt lat="48.75414" lon="7.00563">
        <ele>273.79998779297</ele>
        <time>2023-08-05T08:51:21.000Z</time>
      </trkpt>
      <trkpt lat="48.75431" lon="7.00527">
        <ele>274.79998779297</ele>
        <time>2023-08-05T08:51:26.000Z</time>
      </trkpt>
      <trkpt lat="48.75437" lon="7.00511">
        <ele>275</ele>
        <time>2023-08-05T08:51:28.000Z</time>
      </trkpt>
      <trkpt lat="48.75454" lon="7.00467">
        <ele>274.79998779297</ele>
        <time>2023-08-05T08:51:33.000Z</time>
      </trkpt>
      <trkpt lat="48.75476" lon="7.00415">
        <ele>273.60000610352</ele>
        <time>2023-08-05T08:51:38.000Z</time>
      </trkpt>
      <trkpt lat="48.75481" lon="7.00404">
        <ele>273.39999389648</ele>
        <time>2023-08-05T08:51:39.000Z</time>
      </trkpt>
      <trkpt lat="48.7549" lon="7.00381">
        <ele>272</ele>
        <time>2023-08-05T08:51:41.000Z</time>
      </trkpt>
      <trkpt lat="48.755" lon="7.00357">
        <ele>271</ele>
        <time>2023-08-05T08:51:43.000Z</time>
      </trkpt>
      <trkpt lat="48.7551" lon="7.00332">
        <ele>270.39999389648</ele>
        <time>2023-08-05T08:51:45.000Z</time>
      </trkpt>
      <trkpt lat="48.75515" lon="7.00321">
        <ele>269.79998779297</ele>
        <time>2023-08-05T08:51:46.000Z</time>
      </trkpt>
      <trkpt lat="48.75526" lon="7.00298">
        <ele>268.60000610352</ele>
        <time>2023-08-05T08:51:48.000Z</time>
      </trkpt>
      <trkpt lat="48.75531" lon="7.00286">
        <ele>268.20001220703</ele>
        <time>2023-08-05T08:51:49.000Z</time>
      </trkpt>
      <trkpt lat="48.75537" lon="7.00272">
        <ele>267.39999389648</ele>
        <time>2023-08-05T08:51:50.000Z</time>
      </trkpt>
      <trkpt lat="48.7555" lon="7.00236">
        <ele>265.79998779297</ele>
        <time>2023-08-05T08:51:53.000Z</time>
      </trkpt>
      <trkpt lat="48.75562" lon="7.00208">
        <ele>264.79998779297</ele>
        <time>2023-08-05T08:51:55.000Z</time>
      </trkpt>
      <trkpt lat="48.75581" lon="7.00175">
        <ele>263.39999389648</ele>
        <time>2023-08-05T08:51:58.000Z</time>
      </trkpt>
      <trkpt lat="48.75589" lon="7.00165">
        <ele>262.79998779297</ele>
        <time>2023-08-05T08:51:59.000Z</time>
      </trkpt>
      <trkpt lat="48.75599" lon="7.00155">
        <ele>262</ele>
        <time>2023-08-05T08:52:00.000Z</time>
      </trkpt>
      <trkpt lat="48.75618" lon="7.00141">
        <ele>260.60000610352</ele>
        <time>2023-08-05T08:52:02.000Z</time>
      </trkpt>
      <trkpt lat="48.75627" lon="7.00136">
        <ele>260.39999389648</ele>
        <time>2023-08-05T08:52:03.000Z</time>
      </trkpt>
      <trkpt lat="48.75637" lon="7.00131">
        <ele>259.20001220703</ele>
        <time>2023-08-05T08:52:04.000Z</time>
      </trkpt>
      <trkpt lat="48.75647" lon="7.00126">
        <ele>257.79998779297</ele>
        <time>2023-08-05T08:52:05.000Z</time>
      </trkpt>
      <trkpt lat="48.75671" lon="7.00116">
        <ele>256.60000610352</ele>
        <time>2023-08-05T08:52:07.000Z</time>
      </trkpt>
      <trkpt lat="48.75689" lon="7.00109">
        <ele>255.19999694824</ele>
        <time>2023-08-05T08:52:09.000Z</time>
      </trkpt>
      <trkpt lat="48.75698" lon="7.00106">
        <ele>254.80000305176</ele>
        <time>2023-08-05T08:52:10.000Z</time>
      </trkpt>
      <trkpt lat="48.75709" lon="7.00102">
        <ele>254.19999694824</ele>
        <time>2023-08-05T08:52:11.000Z</time>
      </trkpt>
      <trkpt lat="48.75727" lon="7.00094">
        <ele>253.19999694824</ele>
        <time>2023-08-05T08:52:13.000Z</time>
      </trkpt>
      <trkpt lat="48.7575" lon="7.00085">
        <ele>252.39999389648</ele>
        <time>2023-08-05T08:52:16.000Z</time>
      </trkpt>
      <trkpt lat="48.75791" lon="7.00072">
        <ele>252.19999694824</ele>
        <time>2023-08-05T08:52:21.000Z</time>
      </trkpt>
      <trkpt lat="48.758" lon="7.00071">
        <ele>252</ele>
        <time>2023-08-05T08:52:22.000Z</time>
      </trkpt>
      <trkpt lat="48.75839" lon="7.00063">
        <ele>252</ele>
        <time>2023-08-05T08:52:28.000Z</time>
      </trkpt>
      <trkpt lat="48.75867" lon="7.00057">
        <ele>253</ele>
        <time>2023-08-05T08:52:34.000Z</time>
      </trkpt>
      <trkpt lat="48.75872" lon="7.00056">
        <ele>253.60000610352</ele>
        <time>2023-08-05T08:52:35.000Z</time>
      </trkpt>
      <trkpt lat="48.75882" lon="7.00052">
        <ele>254.60000610352</ele>
        <time>2023-08-05T08:52:38.000Z</time>
      </trkpt>
      <trkpt lat="48.75886" lon="7.0005">
        <ele>254.80000305176</ele>
        <time>2023-08-05T08:52:39.000Z</time>
      </trkpt>
      <trkpt lat="48.75892" lon="7.00038">
        <ele>255.80000305176</ele>
        <time>2023-08-05T08:52:42.000Z</time>
      </trkpt>
      <trkpt lat="48.75895" lon="7.00024">
        <ele>256.79998779297</ele>
        <time>2023-08-05T08:52:45.000Z</time>
      </trkpt>
      <trkpt lat="48.75897" lon="7.00008">
        <ele>258</ele>
        <time>2023-08-05T08:52:48.000Z</time>
      </trkpt>
      <trkpt lat="48.759" lon="6.99988">
        <ele>259.20001220703</ele>
        <time>2023-08-05T08:52:52.000Z</time>
      </trkpt>
      <trkpt lat="48.75901" lon="6.99967">
        <ele>259.60000610352</ele>
        <time>2023-08-05T08:52:56.000Z</time>
      </trkpt>
      <trkpt lat="48.75902" lon="6.99952">
        <ele>260.39999389648</ele>
        <time>2023-08-05T08:52:59.000Z</time>
      </trkpt>
      <trkpt lat="48.75899" lon="6.99931">
        <ele>261.39999389648</ele>
        <time>2023-08-05T08:53:03.000Z</time>
      </trkpt>
      <trkpt lat="48.75893" lon="6.99904">
        <ele>261.79998779297</ele>
        <time>2023-08-05T08:53:08.000Z</time>
      </trkpt>
      <trkpt lat="48.75886" lon="6.99864">
        <ele>261.60000610352</ele>
        <time>2023-08-05T08:53:14.000Z</time>
      </trkpt>
      <trkpt lat="48.75879" lon="6.99826">
        <ele>261.39999389648</ele>
        <time>2023-08-05T08:53:19.000Z</time>
      </trkpt>
      <trkpt lat="48.75879" lon="6.99818">
        <ele>261.39999389648</ele>
        <time>2023-08-05T08:53:20.000Z</time>
      </trkpt>
      <trkpt lat="48.75879" lon="6.9977">
        <ele>261.39999389648</ele>
        <time>2023-08-05T08:53:26.000Z</time>
      </trkpt>
      <trkpt lat="48.75887" lon="6.99704">
        <ele>261.20001220703</ele>
        <time>2023-08-05T08:53:34.000Z</time>
      </trkpt>
      <trkpt lat="48.75895" lon="6.99671">
        <ele>261.20001220703</ele>
        <time>2023-08-05T08:53:38.000Z</time>
      </trkpt>
      <trkpt lat="48.759" lon="6.99655">
        <ele>261.20001220703</ele>
        <time>2023-08-05T08:53:40.000Z</time>
      </trkpt>
      <trkpt lat="48.75904" lon="6.99648">
        <ele>261.20001220703</ele>
        <time>2023-08-05T08:53:41.000Z</time>
      </trkpt>
      <trkpt lat="48.75912" lon="6.99635">
        <ele>261.20001220703</ele>
        <time>2023-08-05T08:53:43.000Z</time>
      </trkpt>
      <trkpt lat="48.75926" lon="6.99604">
        <ele>261.20001220703</ele>
        <time>2023-08-05T08:53:47.000Z</time>
      </trkpt>
      <trkpt lat="48.75955" lon="6.99547">
        <ele>260.79998779297</ele>
        <time>2023-08-05T08:53:55.000Z</time>
      </trkpt>
      <trkpt lat="48.75978" lon="6.99491">
        <ele>260.60000610352</ele>
        <time>2023-08-05T08:54:02.000Z</time>
      </trkpt>
      <trkpt lat="48.75991" lon="6.99457">
        <ele>260.39999389648</ele>
        <time>2023-08-05T08:54:06.000Z</time>
      </trkpt>
      <trkpt lat="48.7601" lon="6.99405">
        <ele>259.79998779297</ele>
        <time>2023-08-05T08:54:12.000Z</time>
      </trkpt>
      <trkpt lat="48.76036" lon="6.99333">
        <ele>259.39999389648</ele>
        <time>2023-08-05T08:54:21.000Z</time>
      </trkpt>
      <trkpt lat="48.76057" lon="6.99274">
        <ele>259.79998779297</ele>
        <time>2023-08-05T08:54:29.000Z</time>
      </trkpt>
      <trkpt lat="48.76071" lon="6.99236">
        <ele>260.20001220703</ele>
        <time>2023-08-05T08:54:35.000Z</time>
      </trkpt>
      <trkpt lat="48.76085" lon="6.99196">
        <ele>261.60000610352</ele>
        <time>2023-08-05T08:54:42.000Z</time>
      </trkpt>
      <trkpt lat="48.76088" lon="6.99185">
        <ele>261.79998779297</ele>
        <time>2023-08-05T08:54:44.000Z</time>
      </trkpt>
      <trkpt lat="48.76093" lon="6.9917">
        <ele>262.60000610352</ele>
        <time>2023-08-05T08:54:47.000Z</time>
      </trkpt>
      <trkpt lat="48.76094" lon="6.99165">
        <ele>262.79998779297</ele>
        <time>2023-08-05T08:54:48.000Z</time>
      </trkpt>
      <trkpt lat="48.761" lon="6.9915">
        <ele>263.60000610352</ele>
        <time>2023-08-05T08:54:51.000Z</time>
      </trkpt>
      <trkpt lat="48.76112" lon="6.99113">
        <ele>264.79998779297</ele>
        <time>2023-08-05T08:54:58.000Z</time>
      </trkpt>
      <trkpt lat="48.76114" lon="6.99107">
        <ele>265</ele>
        <time>2023-08-05T08:54:59.000Z</time>
      </trkpt>
      <trkpt lat="48.76124" lon="6.9907">
        <ele>265.79998779297</ele>
        <time>2023-08-05T08:55:05.000Z</time>
      </trkpt>
      <trkpt lat="48.76128" lon="6.99049">
        <ele>266.20001220703</ele>
        <time>2023-08-05T08:55:08.000Z</time>
      </trkpt>
      <trkpt lat="48.76144" lon="6.98981">
        <ele>266</ele>
        <time>2023-08-05T08:55:17.000Z</time>
      </trkpt>
      <trkpt lat="48.76163" lon="6.989">
        <ele>265.79998779297</ele>
        <time>2023-08-05T08:55:28.000Z</time>
      </trkpt>
      <trkpt lat="48.76164" lon="6.98894">
        <ele>265.79998779297</ele>
        <time>2023-08-05T08:55:29.000Z</time>
      </trkpt>
      <trkpt lat="48.76178" lon="6.98839">
        <ele>266.79998779297</ele>
        <time>2023-08-05T08:55:37.000Z</time>
      </trkpt>
      <trkpt lat="48.7618" lon="6.98832">
        <ele>267</ele>
        <time>2023-08-05T08:55:38.000Z</time>
      </trkpt>
      <trkpt lat="48.76195" lon="6.9877">
        <ele>267.79998779297</ele>
        <time>2023-08-05T08:55:47.000Z</time>
      </trkpt>
      <trkpt lat="48.76197" lon="6.98756">
        <ele>268</ele>
        <time>2023-08-05T08:55:49.000Z</time>
      </trkpt>
      <trkpt lat="48.76202" lon="6.9871">
        <ele>268.39999389648</ele>
        <time>2023-08-05T08:55:55.000Z</time>
      </trkpt>
      <trkpt lat="48.76199" lon="6.98662">
        <ele>268.79998779297</ele>
        <time>2023-08-05T08:56:01.000Z</time>
      </trkpt>
      <trkpt lat="48.7619" lon="6.98623">
        <ele>268.60000610352</ele>
        <time>2023-08-05T08:56:06.000Z</time>
      </trkpt>
      <trkpt lat="48.76185" lon="6.98608">
        <ele>268.39999389648</ele>
        <time>2023-08-05T08:56:08.000Z</time>
      </trkpt>
      <trkpt lat="48.76157" lon="6.98539">
        <ele>267.20001220703</ele>
        <time>2023-08-05T08:56:17.000Z</time>
      </trkpt>
      <trkpt lat="48.7615" lon="6.98523">
        <ele>267</ele>
        <time>2023-08-05T08:56:19.000Z</time>
      </trkpt>
      <trkpt lat="48.76133" lon="6.98487">
        <ele>266.20001220703</ele>
        <time>2023-08-05T08:56:23.000Z</time>
      </trkpt>
      <trkpt lat="48.76129" lon="6.98477">
        <ele>265.79998779297</ele>
        <time>2023-08-05T08:56:24.000Z</time>
      </trkpt>
      <trkpt lat="48.76116" lon="6.98448">
        <ele>264.60000610352</ele>
        <time>2023-08-05T08:56:27.000Z</time>
      </trkpt>
      <trkpt lat="48.76103" lon="6.98416">
        <ele>263.60000610352</ele>
        <time>2023-08-05T08:56:30.000Z</time>
      </trkpt>
      <trkpt lat="48.76098" lon="6.98406">
        <ele>263.20001220703</ele>
        <time>2023-08-05T08:56:31.000Z</time>
      </trkpt>
      <trkpt lat="48.76084" lon="6.98374">
        <ele>262</ele>
        <time>2023-08-05T08:56:34.000Z</time>
      </trkpt>
      <trkpt lat="48.76067" lon="6.98334">
        <ele>260.39999389648</ele>
        <time>2023-08-05T08:56:38.000Z</time>
      </trkpt>
      <trkpt lat="48.76042" lon="6.98279">
        <ele>259.39999389648</ele>
        <time>2023-08-05T08:56:44.000Z</time>
      </trkpt>
      <trkpt lat="48.76034" lon="6.98261">
        <ele>259.20001220703</ele>
        <time>2023-08-05T08:56:46.000Z</time>
      </trkpt>
      <trkpt lat="48.76028" lon="6.98246">
        <ele>259.20001220703</ele>
        <time>2023-08-05T08:56:48.000Z</time>
      </trkpt>
      <trkpt lat="48.76005" lon="6.98199">
        <ele>259.79998779297</ele>
        <time>2023-08-05T08:56:55.000Z</time>
      </trkpt>
      <trkpt lat="48.76" lon="6.98189">
        <ele>260.60000610352</ele>
        <time>2023-08-05T08:56:57.000Z</time>
      </trkpt>
      <trkpt lat="48.75994" lon="6.98179">
        <ele>261.60000610352</ele>
        <time>2023-08-05T08:56:59.000Z</time>
      </trkpt>
      <trkpt lat="48.75988" lon="6.9817">
        <ele>262</ele>
        <time>2023-08-05T08:57:01.000Z</time>
      </trkpt>
      <trkpt lat="48.7598" lon="6.9816">
        <ele>262.60000610352</ele>
        <time>2023-08-05T08:57:04.000Z</time>
      </trkpt>
      <trkpt lat="48.75962" lon="6.98143">
        <ele>263.20001220703</ele>
        <time>2023-08-05T08:57:09.000Z</time>
      </trkpt>
      <trkpt lat="48.75944" lon="6.98133">
        <ele>263.39999389648</ele>
        <time>2023-08-05T08:57:13.000Z</time>
      </trkpt>
      <trkpt lat="48.75938" lon="6.98131">
        <ele>263.39999389648</ele>
        <time>2023-08-05T08:57:14.000Z</time>
      </trkpt>
      <trkpt lat="48.75907" lon="6.98133">
        <ele>262.60000610352</ele>
        <time>2023-08-05T08:57:19.000Z</time>
      </trkpt>
      <trkpt lat="48.759" lon="6.98133">
        <ele>262.60000610352</ele>
        <time>2023-08-05T08:57:20.000Z</time>
      </trkpt>
      <trkpt lat="48.75885" lon="6.9813">
        <ele>261.79998779297</ele>
        <time>2023-08-05T08:57:22.000Z</time>
      </trkpt>
      <trkpt lat="48.75878" lon="6.98125">
        <ele>261.39999389648</ele>
        <time>2023-08-05T08:57:23.000Z</time>
      </trkpt>
      <trkpt lat="48.75871" lon="6.98116">
        <ele>261</ele>
        <time>2023-08-05T08:57:24.000Z</time>
      </trkpt>
      <trkpt lat="48.75862" lon="6.981">
        <ele>260</ele>
        <time>2023-08-05T08:57:26.000Z</time>
      </trkpt>
      <trkpt lat="48.75848" lon="6.98073">
        <ele>258.60000610352</ele>
        <time>2023-08-05T08:57:29.000Z</time>
      </trkpt>
      <trkpt lat="48.75844" lon="6.98064">
        <ele>258.60000610352</ele>
        <time>2023-08-05T08:57:30.000Z</time>
      </trkpt>
      <trkpt lat="48.75834" lon="6.98046">
        <ele>258.20001220703</ele>
        <time>2023-08-05T08:57:32.000Z</time>
      </trkpt>
      <trkpt lat="48.75821" lon="6.98012">
        <ele>257.60000610352</ele>
        <time>2023-08-05T08:57:36.000Z</time>
      </trkpt>
      <trkpt lat="48.75815" lon="6.97993">
        <ele>257.39999389648</ele>
        <time>2023-08-05T08:57:38.000Z</time>
      </trkpt>
      <trkpt lat="48.75799" lon="6.97917">
        <ele>256.79998779297</ele>
        <time>2023-08-05T08:57:46.000Z</time>
      </trkpt>
      <trkpt lat="48.75795" lon="6.97888">
        <ele>256.79998779297</ele>
        <time>2023-08-05T08:57:49.000Z</time>
      </trkpt>
      <trkpt lat="48.75793" lon="6.97872">
        <ele>256.79998779297</ele>
        <time>2023-08-05T08:57:51.000Z</time>
      </trkpt>
      <trkpt lat="48.75792" lon="6.97852">
        <ele>256.79998779297</ele>
        <time>2023-08-05T08:57:53.000Z</time>
      </trkpt>
      <trkpt lat="48.75792" lon="6.97816">
        <ele>256.60000610352</ele>
        <time>2023-08-05T08:57:57.000Z</time>
      </trkpt>
      <trkpt lat="48.75794" lon="6.97797">
        <ele>256.60000610352</ele>
        <time>2023-08-05T08:57:59.000Z</time>
      </trkpt>
      <trkpt lat="48.75799" lon="6.97781">
        <ele>256.39999389648</ele>
        <time>2023-08-05T08:58:01.000Z</time>
      </trkpt>
      <trkpt lat="48.75808" lon="6.97769">
        <ele>256.39999389648</ele>
        <time>2023-08-05T08:58:03.000Z</time>
      </trkpt>
      <trkpt lat="48.75818" lon="6.97761">
        <ele>256.39999389648</ele>
        <time>2023-08-05T08:58:05.000Z</time>
      </trkpt>
      <trkpt lat="48.75849" lon="6.97743">
        <ele>256.39999389648</ele>
        <time>2023-08-05T08:58:11.000Z</time>
      </trkpt>
      <trkpt lat="48.75886" lon="6.97724">
        <ele>256.60000610352</ele>
        <time>2023-08-05T08:58:18.000Z</time>
      </trkpt>
      <trkpt lat="48.75892" lon="6.97722">
        <ele>256.39999389648</ele>
        <time>2023-08-05T08:58:19.000Z</time>
      </trkpt>
      <trkpt lat="48.75897" lon="6.9772">
        <ele>256.39999389648</ele>
        <time>2023-08-05T08:58:20.000Z</time>
      </trkpt>
      <trkpt lat="48.75923" lon="6.97704">
        <ele>256.39999389648</ele>
        <time>2023-08-05T08:58:25.000Z</time>
      </trkpt>
      <trkpt lat="48.75938" lon="6.9769">
        <ele>256.39999389648</ele>
        <time>2023-08-05T08:58:28.000Z</time>
      </trkpt>
      <trkpt lat="48.75945" lon="6.97676">
        <ele>256.39999389648</ele>
        <time>2023-08-05T08:58:30.000Z</time>
      </trkpt>
      <trkpt lat="48.75954" lon="6.97633">
        <ele>256.79998779297</ele>
        <time>2023-08-05T08:58:35.000Z</time>
      </trkpt>
      <trkpt lat="48.75965" lon="6.97579">
        <ele>256.79998779297</ele>
        <time>2023-08-05T08:58:41.000Z</time>
      </trkpt>
      <trkpt lat="48.75984" lon="6.97528">
        <ele>257</ele>
        <time>2023-08-05T08:58:48.000Z</time>
      </trkpt>
      <trkpt lat="48.7599" lon="6.97515">
        <ele>257.20001220703</ele>
        <time>2023-08-05T08:58:50.000Z</time>
      </trkpt>
      <trkpt lat="48.75994" lon="6.97501">
        <ele>257.39999389648</ele>
        <time>2023-08-05T08:58:52.000Z</time>
      </trkpt>
      <trkpt lat="48.75996" lon="6.97495">
        <ele>257.39999389648</ele>
        <time>2023-08-05T08:58:53.000Z</time>
      </trkpt>
      <trkpt lat="48.75999" lon="6.97489">
        <ele>257.79998779297</ele>
        <time>2023-08-05T08:58:54.000Z</time>
      </trkpt>
      <trkpt lat="48.76001" lon="6.97483">
        <ele>258.20001220703</ele>
        <time>2023-08-05T08:58:55.000Z</time>
      </trkpt>
      <trkpt lat="48.76009" lon="6.97465">
        <ele>258.60000610352</ele>
        <time>2023-08-05T08:58:58.000Z</time>
      </trkpt>
      <trkpt lat="48.76015" lon="6.97447">
        <ele>258.79998779297</ele>
        <time>2023-08-05T08:59:01.000Z</time>
      </trkpt>
      <trkpt lat="48.7602" lon="6.97435">
        <ele>259.20001220703</ele>
        <time>2023-08-05T08:59:03.000Z</time>
      </trkpt>
      <trkpt lat="48.76034" lon="6.97398">
        <ele>259.79998779297</ele>
        <time>2023-08-05T08:59:09.000Z</time>
      </trkpt>
      <trkpt lat="48.76035" lon="6.97393">
        <ele>260</ele>
        <time>2023-08-05T08:59:10.000Z</time>
      </trkpt>
      <trkpt lat="48.76041" lon="6.97375">
        <ele>260.20001220703</ele>
        <time>2023-08-05T08:59:13.000Z</time>
      </trkpt>
      <trkpt lat="48.76045" lon="6.97364">
        <ele>260.39999389648</ele>
        <time>2023-08-05T08:59:15.000Z</time>
      </trkpt>
      <trkpt lat="48.76058" lon="6.97329">
        <ele>261</ele>
        <time>2023-08-05T08:59:21.000Z</time>
      </trkpt>
      <trkpt lat="48.76062" lon="6.97318">
        <ele>261.20001220703</ele>
        <time>2023-08-05T08:59:23.000Z</time>
      </trkpt>
      <trkpt lat="48.76077" lon="6.97281">
        <ele>262</ele>
        <time>2023-08-05T08:59:30.000Z</time>
      </trkpt>
      <trkpt lat="48.76084" lon="6.97265">
        <ele>262.60000610352</ele>
        <time>2023-08-05T08:59:33.000Z</time>
      </trkpt>
      <trkpt lat="48.76096" lon="6.97235">
        <ele>263.20001220703</ele>
        <time>2023-08-05T08:59:39.000Z</time>
      </trkpt>
      <trkpt lat="48.76102" lon="6.9722">
        <ele>263.60000610352</ele>
        <time>2023-08-05T08:59:42.000Z</time>
      </trkpt>
      <trkpt lat="48.76111" lon="6.97194">
        <ele>264.39999389648</ele>
        <time>2023-08-05T08:59:47.000Z</time>
      </trkpt>
      <trkpt lat="48.76118" lon="6.97175">
        <ele>265</ele>
        <time>2023-08-05T08:59:51.000Z</time>
      </trkpt>
      <trkpt lat="48.76129" lon="6.97151">
        <ele>265.60000610352</ele>
        <time>2023-08-05T08:59:56.000Z</time>
      </trkpt>
      <trkpt lat="48.76141" lon="6.97129">
        <ele>266</ele>
        <time>2023-08-05T09:00:01.000Z</time>
      </trkpt>
      <trkpt lat="48.76149" lon="6.97118">
        <ele>266.60000610352</ele>
        <time>2023-08-05T09:00:04.000Z</time>
      </trkpt>
      <trkpt lat="48.76164" lon="6.97096">
        <ele>267.20001220703</ele>
        <time>2023-08-05T09:00:10.000Z</time>
      </trkpt>
      <trkpt lat="48.76171" lon="6.97085">
        <ele>267.60000610352</ele>
        <time>2023-08-05T09:00:13.000Z</time>
      </trkpt>
      <trkpt lat="48.76187" lon="6.97063">
        <ele>269</ele>
        <time>2023-08-05T09:00:20.000Z</time>
      </trkpt>
      <trkpt lat="48.76203" lon="6.9704">
        <ele>270.20001220703</ele>
        <time>2023-08-05T09:00:27.000Z</time>
      </trkpt>
      <trkpt lat="48.76212" lon="6.97028">
        <ele>271</ele>
        <time>2023-08-05T09:00:31.000Z</time>
      </trkpt>
      <trkpt lat="48.76214" lon="6.97025">
        <ele>271.39999389648</ele>
        <time>2023-08-05T09:00:32.000Z</time>
      </trkpt>
      <trkpt lat="48.7623" lon="6.97003">
        <ele>272.39999389648</ele>
        <time>2023-08-05T09:00:39.000Z</time>
      </trkpt>
      <trkpt lat="48.76238" lon="6.96992">
        <ele>272.79998779297</ele>
        <time>2023-08-05T09:00:43.000Z</time>
      </trkpt>
      <trkpt lat="48.76246" lon="6.9698">
        <ele>273.60000610352</ele>
        <time>2023-08-05T09:00:47.000Z</time>
      </trkpt>
      <trkpt lat="48.76259" lon="6.96963">
        <ele>274.60000610352</ele>
        <time>2023-08-05T09:00:53.000Z</time>
      </trkpt>
      <trkpt lat="48.76269" lon="6.96947">
        <ele>276</ele>
        <time>2023-08-05T09:00:58.000Z</time>
      </trkpt>
      <trkpt lat="48.7628" lon="6.96932">
        <ele>277</ele>
        <time>2023-08-05T09:01:03.000Z</time>
      </trkpt>
      <trkpt lat="48.76283" lon="6.96929">
        <ele>277.20001220703</ele>
        <time>2023-08-05T09:01:04.000Z</time>
      </trkpt>
      <trkpt lat="48.76308" lon="6.96894">
        <ele>278</ele>
        <time>2023-08-05T09:01:14.000Z</time>
      </trkpt>
      <trkpt lat="48.76311" lon="6.9689">
        <ele>278.20001220703</ele>
        <time>2023-08-05T09:01:15.000Z</time>
      </trkpt>
      <trkpt lat="48.76342" lon="6.96856">
        <ele>279.20001220703</ele>
        <time>2023-08-05T09:01:26.000Z</time>
      </trkpt>
      <trkpt lat="48.76351" lon="6.96848">
        <ele>279.39999389648</ele>
        <time>2023-08-05T09:01:29.000Z</time>
      </trkpt>
      <trkpt lat="48.76372" lon="6.96828">
        <ele>280.60000610352</ele>
        <time>2023-08-05T09:01:37.000Z</time>
      </trkpt>
      <trkpt lat="48.76397" lon="6.96806">
        <ele>281.60000610352</ele>
        <time>2023-08-05T09:01:46.000Z</time>
      </trkpt>
      <trkpt lat="48.76406" lon="6.96797">
        <ele>282</ele>
        <time>2023-08-05T09:01:49.000Z</time>
      </trkpt>
      <trkpt lat="48.76429" lon="6.96776">
        <ele>282.60000610352</ele>
        <time>2023-08-05T09:01:56.000Z</time>
      </trkpt>
      <trkpt lat="48.76437" lon="6.96769">
        <ele>282.60000610352</ele>
        <time>2023-08-05T09:01:58.000Z</time>
      </trkpt>
      <trkpt lat="48.76458" lon="6.96749">
        <ele>282.79998779297</ele>
        <time>2023-08-05T09:02:03.000Z</time>
      </trkpt>
      <trkpt lat="48.76467" lon="6.96741">
        <ele>282.60000610352</ele>
        <time>2023-08-05T09:02:05.000Z</time>
      </trkpt>
      <trkpt lat="48.76471" lon="6.96737">
        <ele>282.39999389648</ele>
        <time>2023-08-05T09:02:06.000Z</time>
      </trkpt>
      <trkpt lat="48.76504" lon="6.96707">
        <ele>282.20001220703</ele>
        <time>2023-08-05T09:02:13.000Z</time>
      </trkpt>
      <trkpt lat="48.76542" lon="6.96671">
        <ele>281.60000610352</ele>
        <time>2023-08-05T09:02:21.000Z</time>
      </trkpt>
      <trkpt lat="48.76548" lon="6.96666">
        <ele>281.60000610352</ele>
        <time>2023-08-05T09:02:22.000Z</time>
      </trkpt>
      <trkpt lat="48.76586" lon="6.96632">
        <ele>280.79998779297</ele>
        <time>2023-08-05T09:02:30.000Z</time>
      </trkpt>
      <trkpt lat="48.76591" lon="6.96628">
        <ele>280.60000610352</ele>
        <time>2023-08-05T09:02:31.000Z</time>
      </trkpt>
      <trkpt lat="48.76639" lon="6.96583">
        <ele>280</ele>
        <time>2023-08-05T09:02:41.000Z</time>
      </trkpt>
      <trkpt lat="48.76647" lon="6.96576">
        <ele>280</ele>
        <time>2023-08-05T09:02:43.000Z</time>
      </trkpt>
      <trkpt lat="48.76696" lon="6.96529">
        <ele>280.20001220703</ele>
        <time>2023-08-05T09:02:54.000Z</time>
      </trkpt>
      <trkpt lat="48.76713" lon="6.96511">
        <ele>280.39999389648</ele>
        <time>2023-08-05T09:02:58.000Z</time>
      </trkpt>
      <trkpt lat="48.76753" lon="6.96455">
        <ele>280.60000610352</ele>
        <time>2023-08-05T09:03:08.000Z</time>
      </trkpt>
      <trkpt lat="48.76795" lon="6.96392">
        <ele>280.20001220703</ele>
        <time>2023-08-05T09:03:18.000Z</time>
      </trkpt>
      <trkpt lat="48.76827" lon="6.96345">
        <ele>280.60000610352</ele>
        <time>2023-08-05T09:03:26.000Z</time>
      </trkpt>
      <trkpt lat="48.76866" lon="6.96287">
        <ele>280.39999389648</ele>
        <time>2023-08-05T09:03:36.000Z</time>
      </trkpt>
      <trkpt lat="48.76908" lon="6.96225">
        <ele>280</ele>
        <time>2023-08-05T09:03:47.000Z</time>
      </trkpt>
      <trkpt lat="48.76947" lon="6.96166">
        <ele>280.39999389648</ele>
        <time>2023-08-05T09:03:58.000Z</time>
      </trkpt>
      <trkpt lat="48.76984" lon="6.9611">
        <ele>280.79998779297</ele>
        <time>2023-08-05T09:04:08.000Z</time>
      </trkpt>
      <trkpt lat="48.77022" lon="6.96054">
        <ele>280.39999389648</ele>
        <time>2023-08-05T09:04:17.000Z</time>
      </trkpt>
      <trkpt lat="48.77031" lon="6.9604">
        <ele>279.79998779297</ele>
        <time>2023-08-05T09:04:19.000Z</time>
      </trkpt>
      <trkpt lat="48.77056" lon="6.96002">
        <ele>278.60000610352</ele>
        <time>2023-08-05T09:04:24.000Z</time>
      </trkpt>
      <trkpt lat="48.77078" lon="6.95971">
        <ele>277.60000610352</ele>
        <time>2023-08-05T09:04:28.000Z</time>
      </trkpt>
      <trkpt lat="48.77094" lon="6.95947">
        <ele>277.20001220703</ele>
        <time>2023-08-05T09:04:31.000Z</time>
      </trkpt>
      <trkpt lat="48.77108" lon="6.95926">
        <ele>276.39999389648</ele>
        <time>2023-08-05T09:04:34.000Z</time>
      </trkpt>
      <trkpt lat="48.77127" lon="6.95898">
        <ele>275.39999389648</ele>
        <time>2023-08-05T09:04:38.000Z</time>
      </trkpt>
      <trkpt lat="48.77131" lon="6.95892">
        <ele>275.20001220703</ele>
        <time>2023-08-05T09:04:39.000Z</time>
      </trkpt>
      <trkpt lat="48.77152" lon="6.95861">
        <ele>275.20001220703</ele>
        <time>2023-08-05T09:04:44.000Z</time>
      </trkpt>
      <trkpt lat="48.77195" lon="6.958">
        <ele>275.20001220703</ele>
        <time>2023-08-05T09:04:54.000Z</time>
      </trkpt>
      <trkpt lat="48.77218" lon="6.95765">
        <ele>274.39999389648</ele>
        <time>2023-08-05T09:04:59.000Z</time>
      </trkpt>
      <trkpt lat="48.7723" lon="6.95743">
        <ele>274.20001220703</ele>
        <time>2023-08-05T09:05:02.000Z</time>
      </trkpt>
      <trkpt lat="48.77251" lon="6.957">
        <ele>274</ele>
        <time>2023-08-05T09:05:08.000Z</time>
      </trkpt>
      <trkpt lat="48.77267" lon="6.95666">
        <ele>274.60000610352</ele>
        <time>2023-08-05T09:05:14.000Z</time>
      </trkpt>
      <trkpt lat="48.77274" lon="6.9565">
        <ele>275</ele>
        <time>2023-08-05T09:05:17.000Z</time>
      </trkpt>
      <trkpt lat="48.77279" lon="6.95642">
        <ele>275.20001220703</ele>
        <time>2023-08-05T09:05:19.000Z</time>
      </trkpt>
      <trkpt lat="48.77281" lon="6.95637">
        <ele>275.60000610352</ele>
        <time>2023-08-05T09:05:20.000Z</time>
      </trkpt>
      <trkpt lat="48.77293" lon="6.95616">
        <ele>276.20001220703</ele>
        <time>2023-08-05T09:05:25.000Z</time>
      </trkpt>
      <trkpt lat="48.77298" lon="6.95603">
        <ele>276.60000610352</ele>
        <time>2023-08-05T09:05:28.000Z</time>
      </trkpt>
      <trkpt lat="48.77306" lon="6.95586">
        <ele>277.20001220703</ele>
        <time>2023-08-05T09:05:32.000Z</time>
      </trkpt>
      <trkpt lat="48.77313" lon="6.95572">
        <ele>277.60000610352</ele>
        <time>2023-08-05T09:05:35.000Z</time>
      </trkpt>
      <trkpt lat="48.77318" lon="6.95562">
        <ele>278.20001220703</ele>
        <time>2023-08-05T09:05:37.000Z</time>
      </trkpt>
      <trkpt lat="48.77325" lon="6.95547">
        <ele>278.79998779297</ele>
        <time>2023-08-05T09:05:40.000Z</time>
      </trkpt>
      <trkpt lat="48.7733" lon="6.95538">
        <ele>279</ele>
        <time>2023-08-05T09:05:42.000Z</time>
      </trkpt>
      <trkpt lat="48.77339" lon="6.95513">
        <ele>279.79998779297</ele>
        <time>2023-08-05T09:05:47.000Z</time>
      </trkpt>
      <trkpt lat="48.77344" lon="6.95503">
        <ele>280.20001220703</ele>
        <time>2023-08-05T09:05:49.000Z</time>
      </trkpt>
      <trkpt lat="48.77363" lon="6.95456">
        <ele>280.60000610352</ele>
        <time>2023-08-05T09:05:58.000Z</time>
      </trkpt>
      <trkpt lat="48.77368" lon="6.95447">
        <ele>280.79998779297</ele>
        <time>2023-08-05T09:06:00.000Z</time>
      </trkpt>
      <trkpt lat="48.77379" lon="6.95421">
        <ele>281.20001220703</ele>
        <time>2023-08-05T09:06:05.000Z</time>
      </trkpt>
      <trkpt lat="48.77399" lon="6.95378">
        <ele>281.20001220703</ele>
        <time>2023-08-05T09:06:12.000Z</time>
      </trkpt>
      <trkpt lat="48.7742" lon="6.9533">
        <ele>280.79998779297</ele>
        <time>2023-08-05T09:06:19.000Z</time>
      </trkpt>
      <trkpt lat="48.77441" lon="6.9528">
        <ele>279.79998779297</ele>
        <time>2023-08-05T09:06:25.000Z</time>
      </trkpt>
      <trkpt lat="48.77445" lon="6.95271">
        <ele>279.60000610352</ele>
        <time>2023-08-05T09:06:26.000Z</time>
      </trkpt>
      <trkpt lat="48.77466" lon="6.95223">
        <ele>278.60000610352</ele>
        <time>2023-08-05T09:06:32.000Z</time>
      </trkpt>
      <trkpt lat="48.77477" lon="6.952">
        <ele>278.60000610352</ele>
        <time>2023-08-05T09:06:35.000Z</time>
      </trkpt>
      <trkpt lat="48.775" lon="6.95147">
        <ele>278.60000610352</ele>
        <time>2023-08-05T09:06:43.000Z</time>
      </trkpt>
      <trkpt lat="48.77526" lon="6.95084">
        <ele>279.39999389648</ele>
        <time>2023-08-05T09:06:53.000Z</time>
      </trkpt>
      <trkpt lat="48.77535" lon="6.95065">
        <ele>279.79998779297</ele>
        <time>2023-08-05T09:06:56.000Z</time>
      </trkpt>
      <trkpt lat="48.77548" lon="6.95036">
        <ele>280.20001220703</ele>
        <time>2023-08-05T09:07:01.000Z</time>
      </trkpt>
      <trkpt lat="48.77558" lon="6.95013">
        <ele>280.60000610352</ele>
        <time>2023-08-05T09:07:05.000Z</time>
      </trkpt>
      <trkpt lat="48.77563" lon="6.95002">
        <ele>280.79998779297</ele>
        <time>2023-08-05T09:07:07.000Z</time>
      </trkpt>
      <trkpt lat="48.77566" lon="6.94997">
        <ele>281</ele>
        <time>2023-08-05T09:07:08.000Z</time>
      </trkpt>
      <trkpt lat="48.77588" lon="6.94947">
        <ele>280.20001220703</ele>
        <time>2023-08-05T09:07:16.000Z</time>
      </trkpt>
      <trkpt lat="48.77613" lon="6.9489">
        <ele>281.79998779297</ele>
        <time>2023-08-05T09:07:25.000Z</time>
      </trkpt>
      <trkpt lat="48.77645" lon="6.9482">
        <ele>281.60000610352</ele>
        <time>2023-08-05T09:07:36.000Z</time>
      </trkpt>
      <trkpt lat="48.77671" lon="6.94764">
        <ele>281.60000610352</ele>
        <time>2023-08-05T09:07:45.000Z</time>
      </trkpt>
      <trkpt lat="48.77674" lon="6.94758">
        <ele>281.60000610352</ele>
        <time>2023-08-05T09:07:46.000Z</time>
      </trkpt>
      <trkpt lat="48.77685" lon="6.94734">
        <ele>281.79998779297</ele>
        <time>2023-08-05T09:07:50.000Z</time>
      </trkpt>
      <trkpt lat="48.77694" lon="6.94717">
        <ele>282</ele>
        <time>2023-08-05T09:07:53.000Z</time>
      </trkpt>
      <trkpt lat="48.77696" lon="6.9471">
        <ele>282.20001220703</ele>
        <time>2023-08-05T09:07:54.000Z</time>
      </trkpt>
      <trkpt lat="48.77701" lon="6.94697">
        <ele>282.39999389648</ele>
        <time>2023-08-05T09:07:56.000Z</time>
      </trkpt>
      <trkpt lat="48.77724" lon="6.94646">
        <ele>282.39999389648</ele>
        <time>2023-08-05T09:08:04.000Z</time>
      </trkpt>
      <trkpt lat="48.77745" lon="6.94587">
        <ele>282</ele>
        <time>2023-08-05T09:08:12.000Z</time>
      </trkpt>
      <trkpt lat="48.77767" lon="6.94514">
        <ele>281.60000610352</ele>
        <time>2023-08-05T09:08:22.000Z</time>
      </trkpt>
      <trkpt lat="48.77791" lon="6.94435">
        <ele>281.39999389648</ele>
        <time>2023-08-05T09:08:33.000Z</time>
      </trkpt>
      <trkpt lat="48.77793" lon="6.94427">
        <ele>281.39999389648</ele>
        <time>2023-08-05T09:08:34.000Z</time>
      </trkpt>
      <trkpt lat="48.77813" lon="6.94359">
        <ele>281.39999389648</ele>
        <time>2023-08-05T09:08:44.000Z</time>
      </trkpt>
      <trkpt lat="48.77832" lon="6.94297">
        <ele>281.60000610352</ele>
        <time>2023-08-05T09:08:53.000Z</time>
      </trkpt>
      <trkpt lat="48.77855" lon="6.94222">
        <ele>282</ele>
        <time>2023-08-05T09:09:04.000Z</time>
      </trkpt>
      <trkpt lat="48.77875" lon="6.94151">
        <ele>281.79998779297</ele>
        <time>2023-08-05T09:09:14.000Z</time>
      </trkpt>
      <trkpt lat="48.7789" lon="6.94102">
        <ele>281.60000610352</ele>
        <time>2023-08-05T09:09:20.000Z</time>
      </trkpt>
      <trkpt lat="48.77905" lon="6.94064">
        <ele>281</ele>
        <time>2023-08-05T09:09:24.000Z</time>
      </trkpt>
      <trkpt lat="48.77909" lon="6.94055">
        <ele>281</ele>
        <time>2023-08-05T09:09:25.000Z</time>
      </trkpt>
      <trkpt lat="48.77929" lon="6.94025">
        <ele>280</ele>
        <time>2023-08-05T09:09:29.000Z</time>
      </trkpt>
      <trkpt lat="48.77936" lon="6.94017">
        <ele>279.79998779297</ele>
        <time>2023-08-05T09:09:30.000Z</time>
      </trkpt>
      <trkpt lat="48.77957" lon="6.93992">
        <ele>278.79998779297</ele>
        <time>2023-08-05T09:09:34.000Z</time>
      </trkpt>
      <trkpt lat="48.77983" lon="6.93963">
        <ele>278.39999389648</ele>
        <time>2023-08-05T09:09:39.000Z</time>
      </trkpt>
      <trkpt lat="48.78029" lon="6.93914">
        <ele>277.79998779297</ele>
        <time>2023-08-05T09:09:48.000Z</time>
      </trkpt>
      <trkpt lat="48.78034" lon="6.93907">
        <ele>277.79998779297</ele>
        <time>2023-08-05T09:09:49.000Z</time>
      </trkpt>
      <trkpt lat="48.78072" lon="6.93865">
        <ele>277.39999389648</ele>
        <time>2023-08-05T09:09:57.000Z</time>
      </trkpt>
      <trkpt lat="48.78117" lon="6.93817">
        <ele>277</ele>
        <time>2023-08-05T09:10:06.000Z</time>
      </trkpt>
      <trkpt lat="48.7816" lon="6.9377">
        <ele>276.60000610352</ele>
        <time>2023-08-05T09:10:15.000Z</time>
      </trkpt>
      <trkpt lat="48.7817" lon="6.93759">
        <ele>276.60000610352</ele>
        <time>2023-08-05T09:10:17.000Z</time>
      </trkpt>
      <trkpt lat="48.78203" lon="6.93723">
        <ele>275.39999389648</ele>
        <time>2023-08-05T09:10:23.000Z</time>
      </trkpt>
      <trkpt lat="48.78221" lon="6.93704">
        <ele>275</ele>
        <time>2023-08-05T09:10:26.000Z</time>
      </trkpt>
      <trkpt lat="48.78239" lon="6.93683">
        <ele>274</ele>
        <time>2023-08-05T09:10:29.000Z</time>
      </trkpt>
      <trkpt lat="48.78259" lon="6.93662">
        <ele>272.60000610352</ele>
        <time>2023-08-05T09:10:32.000Z</time>
      </trkpt>
      <trkpt lat="48.78265" lon="6.93655">
        <ele>272.39999389648</ele>
        <time>2023-08-05T09:10:33.000Z</time>
      </trkpt>
      <trkpt lat="48.78291" lon="6.93627">
        <ele>271.39999389648</ele>
        <time>2023-08-05T09:10:37.000Z</time>
      </trkpt>
      <trkpt lat="48.78314" lon="6.93601">
        <ele>270</ele>
        <time>2023-08-05T09:10:41.000Z</time>
      </trkpt>
      <trkpt lat="48.7832" lon="6.93595">
        <ele>270</ele>
        <time>2023-08-05T09:10:42.000Z</time>
      </trkpt>
      <trkpt lat="48.7836" lon="6.93553">
        <ele>269.20001220703</ele>
        <time>2023-08-05T09:10:50.000Z</time>
      </trkpt>
      <trkpt lat="48.78401" lon="6.93507">
        <ele>269</ele>
        <time>2023-08-05T09:10:59.000Z</time>
      </trkpt>
      <trkpt lat="48.78419" lon="6.93489">
        <ele>268.79998779297</ele>
        <time>2023-08-05T09:11:03.000Z</time>
      </trkpt>
      <trkpt lat="48.78425" lon="6.93484">
        <ele>268.79998779297</ele>
        <time>2023-08-05T09:11:05.000Z</time>
      </trkpt>
      <trkpt lat="48.78432" lon="6.93474">
        <ele>268.79998779297</ele>
        <time>2023-08-05T09:11:10.000Z</time>
      </trkpt>
      <trkpt lat="48.78432" lon="6.93474">
        <ele>268.79998779297</ele>
        <time>2023-08-05T09:11:11.000Z</time>
      </trkpt>
      <trkpt lat="48.78437" lon="6.93468">
        <ele>268.39999389648</ele>
        <time>2023-08-05T09:13:59.000Z</time>
      </trkpt>
      <trkpt lat="48.78441" lon="6.93464">
        <ele>268.39999389648</ele>
        <time>2023-08-05T09:14:01.000Z</time>
      </trkpt>
      <trkpt lat="48.78452" lon="6.93444">
        <ele>268.60000610352</ele>
        <time>2023-08-05T09:14:07.000Z</time>
      </trkpt>
      <trkpt lat="48.78466" lon="6.93414">
        <ele>269.20001220703</ele>
        <time>2023-08-05T09:14:14.000Z</time>
      </trkpt>
      <trkpt lat="48.78477" lon="6.93375">
        <ele>270.20001220703</ele>
        <time>2023-08-05T09:14:21.000Z</time>
      </trkpt>
      <trkpt lat="48.78483" lon="6.93331">
        <ele>270.79998779297</ele>
        <time>2023-08-05T09:14:28.000Z</time>
      </trkpt>
      <trkpt lat="48.78485" lon="6.93272">
        <ele>271.20001220703</ele>
        <time>2023-08-05T09:14:37.000Z</time>
      </trkpt>
      <trkpt lat="48.78487" lon="6.93184">
        <ele>271.39999389648</ele>
        <time>2023-08-05T09:14:50.000Z</time>
      </trkpt>
      <trkpt lat="48.78495" lon="6.93114">
        <ele>271.39999389648</ele>
        <time>2023-08-05T09:15:00.000Z</time>
      </trkpt>
      <trkpt lat="48.78506" lon="6.93054">
        <ele>272.20001220703</ele>
        <time>2023-08-05T09:15:10.000Z</time>
      </trkpt>
      <trkpt lat="48.78507" lon="6.93049">
        <ele>272.39999389648</ele>
        <time>2023-08-05T09:15:11.000Z</time>
      </trkpt>
      <trkpt lat="48.78518" lon="6.92998">
        <ele>273.39999389648</ele>
        <time>2023-08-05T09:15:20.000Z</time>
      </trkpt>
      <trkpt lat="48.78526" lon="6.92955">
        <ele>274.39999389648</ele>
        <time>2023-08-05T09:15:28.000Z</time>
      </trkpt>
      <trkpt lat="48.78527" lon="6.9295">
        <ele>274.39999389648</ele>
        <time>2023-08-05T09:15:29.000Z</time>
      </trkpt>
      <trkpt lat="48.78535" lon="6.92909">
        <ele>275.39999389648</ele>
        <time>2023-08-05T09:15:37.000Z</time>
      </trkpt>
      <trkpt lat="48.7854" lon="6.92884">
        <ele>275.79998779297</ele>
        <time>2023-08-05T09:15:42.000Z</time>
      </trkpt>
      <trkpt lat="48.78549" lon="6.92837">
        <ele>276.79998779297</ele>
        <time>2023-08-05T09:15:51.000Z</time>
      </trkpt>
      <trkpt lat="48.78551" lon="6.92826">
        <ele>276.79998779297</ele>
        <time>2023-08-05T09:15:53.000Z</time>
      </trkpt>
      <trkpt lat="48.78559" lon="6.92786">
        <ele>277</ele>
        <time>2023-08-05T09:16:00.000Z</time>
      </trkpt>
      <trkpt lat="48.78566" lon="6.92752">
        <ele>277.39999389648</ele>
        <time>2023-08-05T09:16:06.000Z</time>
      </trkpt>
      <trkpt lat="48.78573" lon="6.92712">
        <ele>277.60000610352</ele>
        <time>2023-08-05T09:16:13.000Z</time>
      </trkpt>
      <trkpt lat="48.7858" lon="6.9267">
        <ele>277.60000610352</ele>
        <time>2023-08-05T09:16:21.000Z</time>
      </trkpt>
      <trkpt lat="48.78585" lon="6.9263">
        <ele>277.79998779297</ele>
        <time>2023-08-05T09:16:28.000Z</time>
      </trkpt>
      <trkpt lat="48.78589" lon="6.92608">
        <ele>277.79998779297</ele>
        <time>2023-08-05T09:16:32.000Z</time>
      </trkpt>
      <trkpt lat="48.78597" lon="6.92544">
        <ele>278.20001220703</ele>
        <time>2023-08-05T09:16:43.000Z</time>
      </trkpt>
      <trkpt lat="48.78607" lon="6.92477">
        <ele>278.39999389648</ele>
        <time>2023-08-05T09:16:54.000Z</time>
      </trkpt>
      <trkpt lat="48.78617" lon="6.92398">
        <ele>278.79998779297</ele>
        <time>2023-08-05T09:17:07.000Z</time>
      </trkpt>
      <trkpt lat="48.78623" lon="6.92354">
        <ele>278.79998779297</ele>
        <time>2023-08-05T09:17:14.000Z</time>
      </trkpt>
      <trkpt lat="48.78631" lon="6.92285">
        <ele>278.60000610352</ele>
        <time>2023-08-05T09:17:24.000Z</time>
      </trkpt>
      <trkpt lat="48.78641" lon="6.92209">
        <ele>278.79998779297</ele>
        <time>2023-08-05T09:17:35.000Z</time>
      </trkpt>
      <trkpt lat="48.7865" lon="6.92135">
        <ele>278.79998779297</ele>
        <time>2023-08-05T09:17:45.000Z</time>
      </trkpt>
      <trkpt lat="48.78661" lon="6.92056">
        <ele>278.60000610352</ele>
        <time>2023-08-05T09:17:56.000Z</time>
      </trkpt>
      <trkpt lat="48.78667" lon="6.92022">
        <ele>278.79998779297</ele>
        <time>2023-08-05T09:18:01.000Z</time>
      </trkpt>
      <trkpt lat="48.7867" lon="6.92014">
        <ele>278.79998779297</ele>
        <time>2023-08-05T09:18:02.000Z</time>
      </trkpt>
      <trkpt lat="48.78671" lon="6.92007">
        <ele>278.79998779297</ele>
        <time>2023-08-05T09:18:03.000Z</time>
      </trkpt>
      <trkpt lat="48.78675" lon="6.91988">
        <ele>278.79998779297</ele>
        <time>2023-08-05T09:18:06.000Z</time>
      </trkpt>
      <trkpt lat="48.78679" lon="6.91976">
        <ele>279</ele>
        <time>2023-08-05T09:18:08.000Z</time>
      </trkpt>
      <trkpt lat="48.78685" lon="6.91953">
        <ele>279.20001220703</ele>
        <time>2023-08-05T09:18:12.000Z</time>
      </trkpt>
      <trkpt lat="48.78687" lon="6.91945">
        <ele>279.39999389648</ele>
        <time>2023-08-05T09:18:13.000Z</time>
      </trkpt>
      <trkpt lat="48.78694" lon="6.91924">
        <ele>279.60000610352</ele>
        <time>2023-08-05T09:18:17.000Z</time>
      </trkpt>
      <trkpt lat="48.78697" lon="6.91912">
        <ele>279.79998779297</ele>
        <time>2023-08-05T09:18:19.000Z</time>
      </trkpt>
      <trkpt lat="48.78704" lon="6.91883">
        <ele>280</ele>
        <time>2023-08-05T09:18:24.000Z</time>
      </trkpt>
      <trkpt lat="48.78712" lon="6.91842">
        <ele>280.39999389648</ele>
        <time>2023-08-05T09:18:31.000Z</time>
      </trkpt>
      <trkpt lat="48.78716" lon="6.91802">
        <ele>280.60000610352</ele>
        <time>2023-08-05T09:18:37.000Z</time>
      </trkpt>
      <trkpt lat="48.78722" lon="6.91757">
        <ele>280.79998779297</ele>
        <time>2023-08-05T09:18:44.000Z</time>
      </trkpt>
      <trkpt lat="48.78732" lon="6.91712">
        <ele>280.79998779297</ele>
        <time>2023-08-05T09:18:51.000Z</time>
      </trkpt>
      <trkpt lat="48.78734" lon="6.91701">
        <ele>280.60000610352</ele>
        <time>2023-08-05T09:18:53.000Z</time>
      </trkpt>
      <trkpt lat="48.78738" lon="6.9168">
        <ele>280.60000610352</ele>
        <time>2023-08-05T09:18:56.000Z</time>
      </trkpt>
      <trkpt lat="48.78749" lon="6.91631">
        <ele>280.79998779297</ele>
        <time>2023-08-05T09:19:04.000Z</time>
      </trkpt>
      <trkpt lat="48.78751" lon="6.91625">
        <ele>280.79998779297</ele>
        <time>2023-08-05T09:19:05.000Z</time>
      </trkpt>
      <trkpt lat="48.78753" lon="6.91619">
        <ele>280.79998779297</ele>
        <time>2023-08-05T09:19:06.000Z</time>
      </trkpt>
      <trkpt lat="48.78756" lon="6.91607">
        <ele>280.79998779297</ele>
        <time>2023-08-05T09:19:08.000Z</time>
      </trkpt>
      <trkpt lat="48.7876" lon="6.9159">
        <ele>281</ele>
        <time>2023-08-05T09:19:11.000Z</time>
      </trkpt>
      <trkpt lat="48.78768" lon="6.91557">
        <ele>281.39999389648</ele>
        <time>2023-08-05T09:19:17.000Z</time>
      </trkpt>
      <trkpt lat="48.78774" lon="6.91531">
        <ele>281.79998779297</ele>
        <time>2023-08-05T09:19:22.000Z</time>
      </trkpt>
      <trkpt lat="48.78776" lon="6.91525">
        <ele>281.79998779297</ele>
        <time>2023-08-05T09:19:23.000Z</time>
      </trkpt>
      <trkpt lat="48.78783" lon="6.91493">
        <ele>282.39999389648</ele>
        <time>2023-08-05T09:19:29.000Z</time>
      </trkpt>
      <trkpt lat="48.78789" lon="6.91464">
        <ele>283</ele>
        <time>2023-08-05T09:19:34.000Z</time>
      </trkpt>
      <trkpt lat="48.7879" lon="6.91451">
        <ele>283.20001220703</ele>
        <time>2023-08-05T09:19:36.000Z</time>
      </trkpt>
      <trkpt lat="48.78798" lon="6.91409">
        <ele>283.60000610352</ele>
        <time>2023-08-05T09:19:43.000Z</time>
      </trkpt>
      <trkpt lat="48.78807" lon="6.91373">
        <ele>284</ele>
        <time>2023-08-05T09:19:49.000Z</time>
      </trkpt>
      <trkpt lat="48.7881" lon="6.9136">
        <ele>284</ele>
        <time>2023-08-05T09:19:51.000Z</time>
      </trkpt>
      <trkpt lat="48.78827" lon="6.91306">
        <ele>283.79998779297</ele>
        <time>2023-08-05T09:19:59.000Z</time>
      </trkpt>
      <trkpt lat="48.78846" lon="6.91263">
        <ele>283.20001220703</ele>
        <time>2023-08-05T09:20:04.000Z</time>
      </trkpt>
      <trkpt lat="48.78861" lon="6.91231">
        <ele>282.39999389648</ele>
        <time>2023-08-05T09:20:07.000Z</time>
      </trkpt>
      <trkpt lat="48.78872" lon="6.91206">
        <ele>281.20001220703</ele>
        <time>2023-08-05T09:20:09.000Z</time>
      </trkpt>
      <trkpt lat="48.78884" lon="6.9118">
        <ele>280</ele>
        <time>2023-08-05T09:20:11.000Z</time>
      </trkpt>
      <trkpt lat="48.78891" lon="6.91166">
        <ele>278.79998779297</ele>
        <time>2023-08-05T09:20:12.000Z</time>
      </trkpt>
      <trkpt lat="48.78902" lon="6.91139">
        <ele>277.39999389648</ele>
        <time>2023-08-05T09:20:14.000Z</time>
      </trkpt>
      <trkpt lat="48.78914" lon="6.9111">
        <ele>276</ele>
        <time>2023-08-05T09:20:16.000Z</time>
      </trkpt>
      <trkpt lat="48.78921" lon="6.91096">
        <ele>275</ele>
        <time>2023-08-05T09:20:17.000Z</time>
      </trkpt>
      <trkpt lat="48.78934" lon="6.91066">
        <ele>273.20001220703</ele>
        <time>2023-08-05T09:20:19.000Z</time>
      </trkpt>
      <trkpt lat="48.7894" lon="6.91053">
        <ele>272</ele>
        <time>2023-08-05T09:20:20.000Z</time>
      </trkpt>
      <trkpt lat="48.7895" lon="6.91031">
        <ele>270.79998779297</ele>
        <time>2023-08-05T09:20:22.000Z</time>
      </trkpt>
      <trkpt lat="48.78967" lon="6.90998">
        <ele>270.39999389648</ele>
        <time>2023-08-05T09:20:25.000Z</time>
      </trkpt>
      <trkpt lat="48.78989" lon="6.90949">
        <ele>270.20001220703</ele>
        <time>2023-08-05T09:20:30.000Z</time>
      </trkpt>
      <trkpt lat="48.78993" lon="6.90939">
        <ele>270.20001220703</ele>
        <time>2023-08-05T09:20:31.000Z</time>
      </trkpt>
      <trkpt lat="48.79004" lon="6.90911">
        <ele>270</ele>
        <time>2023-08-05T09:20:34.000Z</time>
      </trkpt>
      <trkpt lat="48.79017" lon="6.90885">
        <ele>270</ele>
        <time>2023-08-05T09:20:37.000Z</time>
      </trkpt>
      <trkpt lat="48.79021" lon="6.90876">
        <ele>269.79998779297</ele>
        <time>2023-08-05T09:20:38.000Z</time>
      </trkpt>
      <trkpt lat="48.79026" lon="6.90868">
        <ele>269.60000610352</ele>
        <time>2023-08-05T09:20:39.000Z</time>
      </trkpt>
      <trkpt lat="48.79051" lon="6.9083">
        <ele>268.79998779297</ele>
        <time>2023-08-05T09:20:44.000Z</time>
      </trkpt>
      <trkpt lat="48.79063" lon="6.90818">
        <ele>268.20001220703</ele>
        <time>2023-08-05T09:20:46.000Z</time>
      </trkpt>
      <trkpt lat="48.7908" lon="6.90803">
        <ele>267.60000610352</ele>
        <time>2023-08-05T09:20:49.000Z</time>
      </trkpt>
      <trkpt lat="48.79113" lon="6.90777">
        <ele>266.60000610352</ele>
        <time>2023-08-05T09:20:54.000Z</time>
      </trkpt>
      <trkpt lat="48.7912" lon="6.90772">
        <ele>266.20001220703</ele>
        <time>2023-08-05T09:20:55.000Z</time>
      </trkpt>
      <trkpt lat="48.7915" lon="6.9075">
        <ele>265</ele>
        <time>2023-08-05T09:21:00.000Z</time>
      </trkpt>
      <trkpt lat="48.79181" lon="6.90726">
        <ele>263.79998779297</ele>
        <time>2023-08-05T09:21:05.000Z</time>
      </trkpt>
      <trkpt lat="48.79194" lon="6.90717">
        <ele>263.60000610352</ele>
        <time>2023-08-05T09:21:07.000Z</time>
      </trkpt>
      <trkpt lat="48.79221" lon="6.90697">
        <ele>262.79998779297</ele>
        <time>2023-08-05T09:21:11.000Z</time>
      </trkpt>
      <trkpt lat="48.79264" lon="6.90663">
        <ele>261.79998779297</ele>
        <time>2023-08-05T09:21:18.000Z</time>
      </trkpt>
      <trkpt lat="48.79306" lon="6.90632">
        <ele>261.39999389648</ele>
        <time>2023-08-05T09:21:25.000Z</time>
      </trkpt>
      <trkpt lat="48.79356" lon="6.90595">
        <ele>261</ele>
        <time>2023-08-05T09:21:34.000Z</time>
      </trkpt>
      <trkpt lat="48.79366" lon="6.90586">
        <ele>260.79998779297</ele>
        <time>2023-08-05T09:21:36.000Z</time>
      </trkpt>
      <trkpt lat="48.79406" lon="6.90556">
        <ele>260</ele>
        <time>2023-08-05T09:21:43.000Z</time>
      </trkpt>
      <trkpt lat="48.79435" lon="6.90523">
        <ele>258.79998779297</ele>
        <time>2023-08-05T09:21:48.000Z</time>
      </trkpt>
      <trkpt lat="48.79457" lon="6.90491">
        <ele>257.60000610352</ele>
        <time>2023-08-05T09:21:52.000Z</time>
      </trkpt>
      <trkpt lat="48.79463" lon="6.90482">
        <ele>257.20001220703</ele>
        <time>2023-08-05T09:21:53.000Z</time>
      </trkpt>
      <trkpt lat="48.79482" lon="6.90455">
        <ele>256.39999389648</ele>
        <time>2023-08-05T09:21:56.000Z</time>
      </trkpt>
      <trkpt lat="48.79501" lon="6.90427">
        <ele>255.19999694824</ele>
        <time>2023-08-05T09:21:59.000Z</time>
      </trkpt>
      <trkpt lat="48.79508" lon="6.90418">
        <ele>254.39999389648</ele>
        <time>2023-08-05T09:22:00.000Z</time>
      </trkpt>
      <trkpt lat="48.79513" lon="6.90411">
        <ele>254</ele>
        <time>2023-08-05T09:22:01.000Z</time>
      </trkpt>
      <trkpt lat="48.79527" lon="6.90392">
        <ele>253</ele>
        <time>2023-08-05T09:22:03.000Z</time>
      </trkpt>
      <trkpt lat="48.79539" lon="6.90376">
        <ele>251.60000610352</ele>
        <time>2023-08-05T09:22:05.000Z</time>
      </trkpt>
      <trkpt lat="48.79551" lon="6.90362">
        <ele>251</ele>
        <time>2023-08-05T09:22:07.000Z</time>
      </trkpt>
      <trkpt lat="48.79568" lon="6.90342">
        <ele>250.39999389648</ele>
        <time>2023-08-05T09:22:10.000Z</time>
      </trkpt>
      <trkpt lat="48.7959" lon="6.90318">
        <ele>249.60000610352</ele>
        <time>2023-08-05T09:22:14.000Z</time>
      </trkpt>
      <trkpt lat="48.79621" lon="6.90286">
        <ele>249.19999694824</ele>
        <time>2023-08-05T09:22:20.000Z</time>
      </trkpt>
      <trkpt lat="48.79626" lon="6.90281">
        <ele>249.19999694824</ele>
        <time>2023-08-05T09:22:21.000Z</time>
      </trkpt>
      <trkpt lat="48.7966" lon="6.90245">
        <ele>248.80000305176</ele>
        <time>2023-08-05T09:22:28.000Z</time>
      </trkpt>
      <trkpt lat="48.79687" lon="6.90217">
        <ele>248.19999694824</ele>
        <time>2023-08-05T09:22:33.000Z</time>
      </trkpt>
      <trkpt lat="48.79698" lon="6.90205">
        <ele>248</ele>
        <time>2023-08-05T09:22:35.000Z</time>
      </trkpt>
      <trkpt lat="48.79721" lon="6.9018">
        <ele>247.39999389648</ele>
        <time>2023-08-05T09:22:39.000Z</time>
      </trkpt>
      <trkpt lat="48.79737" lon="6.90162">
        <ele>246.80000305176</ele>
        <time>2023-08-05T09:22:42.000Z</time>
      </trkpt>
      <trkpt lat="48.79756" lon="6.90138">
        <ele>246.39999389648</ele>
        <time>2023-08-05T09:22:46.000Z</time>
      </trkpt>
      <trkpt lat="48.79777" lon="6.90107">
        <ele>246.19999694824</ele>
        <time>2023-08-05T09:22:51.000Z</time>
      </trkpt>
      <trkpt lat="48.79817" lon="6.90042">
        <ele>246</ele>
        <time>2023-08-05T09:23:01.000Z</time>
      </trkpt>
      <trkpt lat="48.79821" lon="6.90035">
        <ele>245.80000305176</ele>
        <time>2023-08-05T09:23:02.000Z</time>
      </trkpt>
      <trkpt lat="48.79833" lon="6.90014">
        <ele>245.19999694824</ele>
        <time>2023-08-05T09:23:05.000Z</time>
      </trkpt>
      <trkpt lat="48.7987" lon="6.89954">
        <ele>244.39999389648</ele>
        <time>2023-08-05T09:23:14.000Z</time>
      </trkpt>
      <trkpt lat="48.79878" lon="6.89941">
        <ele>244.19999694824</ele>
        <time>2023-08-05T09:23:16.000Z</time>
      </trkpt>
      <trkpt lat="48.79916" lon="6.89883">
        <ele>243.39999389648</ele>
        <time>2023-08-05T09:23:25.000Z</time>
      </trkpt>
      <trkpt lat="48.79929" lon="6.89866">
        <ele>243</ele>
        <time>2023-08-05T09:23:28.000Z</time>
      </trkpt>
      <trkpt lat="48.79952" lon="6.89843">
        <ele>242.60000610352</ele>
        <time>2023-08-05T09:23:32.000Z</time>
      </trkpt>
      <trkpt lat="48.79963" lon="6.89832">
        <ele>242</ele>
        <time>2023-08-05T09:23:34.000Z</time>
      </trkpt>
      <trkpt lat="48.7998" lon="6.89817">
        <ele>241</ele>
        <time>2023-08-05T09:23:37.000Z</time>
      </trkpt>
      <trkpt lat="48.79994" lon="6.89805">
        <ele>240.39999389648</ele>
        <time>2023-08-05T09:23:39.000Z</time>
      </trkpt>
      <trkpt lat="48.80014" lon="6.89788">
        <ele>240</ele>
        <time>2023-08-05T09:23:42.000Z</time>
      </trkpt>
      <trkpt lat="48.80048" lon="6.89758">
        <ele>238.80000305176</ele>
        <time>2023-08-05T09:23:47.000Z</time>
      </trkpt>
      <trkpt lat="48.80082" lon="6.89726">
        <ele>237.60000610352</ele>
        <time>2023-08-05T09:23:52.000Z</time>
      </trkpt>
      <trkpt lat="48.80101" lon="6.89703">
        <ele>236.39999389648</ele>
        <time>2023-08-05T09:23:55.000Z</time>
      </trkpt>
      <trkpt lat="48.80132" lon="6.89663">
        <ele>235.19999694824</ele>
        <time>2023-08-05T09:24:00.000Z</time>
      </trkpt>
      <trkpt lat="48.80159" lon="6.89634">
        <ele>234.39999389648</ele>
        <time>2023-08-05T09:24:04.000Z</time>
      </trkpt>
      <trkpt lat="48.80174" lon="6.89623">
        <ele>233.80000305176</ele>
        <time>2023-08-05T09:24:06.000Z</time>
      </trkpt>
      <trkpt lat="48.80196" lon="6.8961">
        <ele>232.80000305176</ele>
        <time>2023-08-05T09:24:09.000Z</time>
      </trkpt>
      <trkpt lat="48.8024" lon="6.896">
        <ele>231.80000305176</ele>
        <time>2023-08-05T09:24:15.000Z</time>
      </trkpt>
      <trkpt lat="48.80279" lon="6.89605">
        <ele>231.19999694824</ele>
        <time>2023-08-05T09:24:21.000Z</time>
      </trkpt>
      <trkpt lat="48.8032" lon="6.8962">
        <ele>231.19999694824</ele>
        <time>2023-08-05T09:24:28.000Z</time>
      </trkpt>
      <trkpt lat="48.80353" lon="6.89645">
        <ele>231.80000305176</ele>
        <time>2023-08-05T09:24:35.000Z</time>
      </trkpt>
      <trkpt lat="48.80386" lon="6.89678">
        <ele>232.80000305176</ele>
        <time>2023-08-05T09:24:43.000Z</time>
      </trkpt>
      <trkpt lat="48.80413" lon="6.89693">
        <ele>233.19999694824</ele>
        <time>2023-08-05T09:24:49.000Z</time>
      </trkpt>
      <trkpt lat="48.80457" lon="6.89703">
        <ele>233.39999389648</ele>
        <time>2023-08-05T09:24:58.000Z</time>
      </trkpt>
      <trkpt lat="48.8047" lon="6.89703">
        <ele>233.39999389648</ele>
        <time>2023-08-05T09:25:01.000Z</time>
      </trkpt>
      <trkpt lat="48.80484" lon="6.89699">
        <ele>233.39999389648</ele>
        <time>2023-08-05T09:25:04.000Z</time>
      </trkpt>
      <trkpt lat="48.80521" lon="6.89679">
        <ele>233.39999389648</ele>
        <time>2023-08-05T09:25:12.000Z</time>
      </trkpt>
      <trkpt lat="48.80556" lon="6.89651">
        <ele>233.80000305176</ele>
        <time>2023-08-05T09:25:20.000Z</time>
      </trkpt>
      <trkpt lat="48.8057" lon="6.89635">
        <ele>233.80000305176</ele>
        <time>2023-08-05T09:25:24.000Z</time>
      </trkpt>
      <trkpt lat="48.80573" lon="6.8963">
        <ele>234</ele>
        <time>2023-08-05T09:25:25.000Z</time>
      </trkpt>
      <trkpt lat="48.80576" lon="6.89623">
        <ele>234</ele>
        <time>2023-08-05T09:25:26.000Z</time>
      </trkpt>
      <trkpt lat="48.80578" lon="6.8961">
        <ele>234.19999694824</ele>
        <time>2023-08-05T09:25:28.000Z</time>
      </trkpt>
      <trkpt lat="48.80577" lon="6.89597">
        <ele>234.19999694824</ele>
        <time>2023-08-05T09:25:30.000Z</time>
      </trkpt>
      <trkpt lat="48.80576" lon="6.89584">
        <ele>234.39999389648</ele>
        <time>2023-08-05T09:25:32.000Z</time>
      </trkpt>
      <trkpt lat="48.80569" lon="6.89557">
        <ele>234.60000610352</ele>
        <time>2023-08-05T09:25:36.000Z</time>
      </trkpt>
      <trkpt lat="48.80549" lon="6.89491">
        <ele>234.80000305176</ele>
        <time>2023-08-05T09:25:46.000Z</time>
      </trkpt>
      <trkpt lat="48.80547" lon="6.89484">
        <ele>234.80000305176</ele>
        <time>2023-08-05T09:25:47.000Z</time>
      </trkpt>
      <trkpt lat="48.80544" lon="6.89471">
        <ele>234.60000610352</ele>
        <time>2023-08-05T09:25:49.000Z</time>
      </trkpt>
      <trkpt lat="48.80543" lon="6.89456">
        <ele>234.60000610352</ele>
        <time>2023-08-05T09:25:51.000Z</time>
      </trkpt>
      <trkpt lat="48.80545" lon="6.89441">
        <ele>234.60000610352</ele>
        <time>2023-08-05T09:25:53.000Z</time>
      </trkpt>
      <trkpt lat="48.80551" lon="6.89429">
        <ele>234.60000610352</ele>
        <time>2023-08-05T09:25:55.000Z</time>
      </trkpt>
      <trkpt lat="48.80565" lon="6.89401">
        <ele>234.60000610352</ele>
        <time>2023-08-05T09:26:00.000Z</time>
      </trkpt>
      <trkpt lat="48.80569" lon="6.89388">
        <ele>234.60000610352</ele>
        <time>2023-08-05T09:26:02.000Z</time>
      </trkpt>
      <trkpt lat="48.80569" lon="6.89373">
        <ele>234.80000305176</ele>
        <time>2023-08-05T09:26:04.000Z</time>
      </trkpt>
      <trkpt lat="48.80567" lon="6.89359">
        <ele>234.80000305176</ele>
        <time>2023-08-05T09:26:06.000Z</time>
      </trkpt>
      <trkpt lat="48.8056" lon="6.89337">
        <ele>234.60000610352</ele>
        <time>2023-08-05T09:26:09.000Z</time>
      </trkpt>
      <trkpt lat="48.80551" lon="6.89313">
        <ele>234.39999389648</ele>
        <time>2023-08-05T09:26:12.000Z</time>
      </trkpt>
      <trkpt lat="48.80531" lon="6.89266">
        <ele>233.19999694824</ele>
        <time>2023-08-05T09:26:19.000Z</time>
      </trkpt>
      <trkpt lat="48.80527" lon="6.89257">
        <ele>232.80000305176</ele>
        <time>2023-08-05T09:26:21.000Z</time>
      </trkpt>
      <trkpt lat="48.80519" lon="6.89234">
        <ele>232.39999389648</ele>
        <time>2023-08-05T09:26:25.000Z</time>
      </trkpt>
      <trkpt lat="48.80497" lon="6.89181">
        <ele>231.80000305176</ele>
        <time>2023-08-05T09:26:33.000Z</time>
      </trkpt>
      <trkpt lat="48.80494" lon="6.89174">
        <ele>231.60000610352</ele>
        <time>2023-08-05T09:26:34.000Z</time>
      </trkpt>
      <trkpt lat="48.80483" lon="6.89143">
        <ele>231.19999694824</ele>
        <time>2023-08-05T09:26:39.000Z</time>
      </trkpt>
      <trkpt lat="48.80482" lon="6.89137">
        <ele>231.19999694824</ele>
        <time>2023-08-05T09:26:40.000Z</time>
      </trkpt>
      <trkpt lat="48.80482" lon="6.89129">
        <ele>231</ele>
        <time>2023-08-05T09:26:41.000Z</time>
      </trkpt>
      <trkpt lat="48.80483" lon="6.89115">
        <ele>231</ele>
        <time>2023-08-05T09:26:43.000Z</time>
      </trkpt>
      <trkpt lat="48.80487" lon="6.89102">
        <ele>230.80000305176</ele>
        <time>2023-08-05T09:26:45.000Z</time>
      </trkpt>
      <trkpt lat="48.80499" lon="6.89081">
        <ele>230.80000305176</ele>
        <time>2023-08-05T09:26:49.000Z</time>
      </trkpt>
      <trkpt lat="48.80505" lon="6.89069">
        <ele>230.60000610352</ele>
        <time>2023-08-05T09:26:51.000Z</time>
      </trkpt>
      <trkpt lat="48.80533" lon="6.8902">
        <ele>230.60000610352</ele>
        <time>2023-08-05T09:27:00.000Z</time>
      </trkpt>
      <trkpt lat="48.80568" lon="6.8896">
        <ele>230.60000610352</ele>
        <time>2023-08-05T09:27:11.000Z</time>
      </trkpt>
      <trkpt lat="48.80591" lon="6.8892">
        <ele>230</ele>
        <time>2023-08-05T09:27:19.000Z</time>
      </trkpt>
      <trkpt lat="48.80615" lon="6.88879">
        <ele>230</ele>
        <time>2023-08-05T09:27:28.000Z</time>
      </trkpt>
      <trkpt lat="48.80618" lon="6.88875">
        <ele>230</ele>
        <time>2023-08-05T09:27:31.000Z</time>
      </trkpt>
      <trkpt lat="48.80617" lon="6.88875">
        <ele>229.80000305176</ele>
        <time>2023-08-05T09:27:33.000Z</time>
      </trkpt>
      <trkpt lat="48.8062" lon="6.8887">
        <ele>229.39999389648</ele>
        <time>2023-08-05T09:28:08.000Z</time>
      </trkpt>
      <trkpt lat="48.80621" lon="6.88867">
        <ele>229.39999389648</ele>
        <time>2023-08-05T09:28:09.000Z</time>
      </trkpt>
      <trkpt lat="48.80631" lon="6.8885">
        <ele>229.39999389648</ele>
        <time>2023-08-05T09:28:14.000Z</time>
      </trkpt>
      <trkpt lat="48.80646" lon="6.88825">
        <ele>229.39999389648</ele>
        <time>2023-08-05T09:28:19.000Z</time>
      </trkpt>
      <trkpt lat="48.80649" lon="6.88819">
        <ele>229.39999389648</ele>
        <time>2023-08-05T09:28:20.000Z</time>
      </trkpt>
      <trkpt lat="48.80663" lon="6.88792">
        <ele>229.60000610352</ele>
        <time>2023-08-05T09:28:25.000Z</time>
      </trkpt>
      <trkpt lat="48.80696" lon="6.88746">
        <ele>229.80000305176</ele>
        <time>2023-08-05T09:28:35.000Z</time>
      </trkpt>
      <trkpt lat="48.80716" lon="6.88723">
        <ele>229.80000305176</ele>
        <time>2023-08-05T09:28:40.000Z</time>
      </trkpt>
      <trkpt lat="48.80724" lon="6.88715">
        <ele>229.60000610352</ele>
        <time>2023-08-05T09:28:42.000Z</time>
      </trkpt>
      <trkpt lat="48.80753" lon="6.88686">
        <ele>229.60000610352</ele>
        <time>2023-08-05T09:28:49.000Z</time>
      </trkpt>
      <trkpt lat="48.80787" lon="6.88651">
        <ele>229.60000610352</ele>
        <time>2023-08-05T09:28:57.000Z</time>
      </trkpt>
      <trkpt lat="48.80824" lon="6.88614">
        <ele>229.39999389648</ele>
        <time>2023-08-05T09:29:05.000Z</time>
      </trkpt>
      <trkpt lat="48.80861" lon="6.88577">
        <ele>228.80000305176</ele>
        <time>2023-08-05T09:29:13.000Z</time>
      </trkpt>
      <trkpt lat="48.80864" lon="6.88573">
        <ele>228.80000305176</ele>
        <time>2023-08-05T09:29:14.000Z</time>
      </trkpt>
      <trkpt lat="48.80903" lon="6.88537">
        <ele>228.80000305176</ele>
        <time>2023-08-05T09:29:22.000Z</time>
      </trkpt>
      <trkpt lat="48.80945" lon="6.88513">
        <ele>228.80000305176</ele>
        <time>2023-08-05T09:29:30.000Z</time>
      </trkpt>
      <trkpt lat="48.80993" lon="6.88501">
        <ele>228.60000610352</ele>
        <time>2023-08-05T09:29:39.000Z</time>
      </trkpt>
      <trkpt lat="48.81033" lon="6.88495">
        <ele>229</ele>
        <time>2023-08-05T09:29:47.000Z</time>
      </trkpt>
      <trkpt lat="48.81076" lon="6.88496">
        <ele>229.39999389648</ele>
        <time>2023-08-05T09:29:56.000Z</time>
      </trkpt>
      <trkpt lat="48.81099" lon="6.885">
        <ele>230.19999694824</ele>
        <time>2023-08-05T09:30:02.000Z</time>
      </trkpt>
      <trkpt lat="48.81113" lon="6.88503">
        <ele>231</ele>
        <time>2023-08-05T09:30:06.000Z</time>
      </trkpt>
      <trkpt lat="48.8113" lon="6.88507">
        <ele>231.80000305176</ele>
        <time>2023-08-05T09:30:11.000Z</time>
      </trkpt>
      <trkpt lat="48.81137" lon="6.88508">
        <ele>232.19999694824</ele>
        <time>2023-08-05T09:30:13.000Z</time>
      </trkpt>
      <trkpt lat="48.81172" lon="6.88509">
        <ele>233.19999694824</ele>
        <time>2023-08-05T09:30:22.000Z</time>
      </trkpt>
      <trkpt lat="48.81176" lon="6.88508">
        <ele>233.19999694824</ele>
        <time>2023-08-05T09:30:24.000Z</time>
      </trkpt>
      <trkpt lat="48.81213" lon="6.88503">
        <ele>233.80000305176</ele>
        <time>2023-08-05T09:30:32.000Z</time>
      </trkpt>
      <trkpt lat="48.81258" lon="6.88495">
        <ele>233.39999389648</ele>
        <time>2023-08-05T09:30:40.000Z</time>
      </trkpt>
      <trkpt lat="48.81307" lon="6.88486">
        <ele>232.19999694824</ele>
        <time>2023-08-05T09:30:48.000Z</time>
      </trkpt>
      <trkpt lat="48.81315" lon="6.88485">
        <ele>232.19999694824</ele>
        <time>2023-08-05T09:30:49.000Z</time>
      </trkpt>
      <trkpt lat="48.81334" lon="6.8848">
        <ele>232</ele>
        <time>2023-08-05T09:30:52.000Z</time>
      </trkpt>
      <trkpt lat="48.8135" lon="6.88473">
        <ele>232</ele>
        <time>2023-08-05T09:30:55.000Z</time>
      </trkpt>
      <trkpt lat="48.81377" lon="6.88454">
        <ele>232.60000610352</ele>
        <time>2023-08-05T09:31:01.000Z</time>
      </trkpt>
      <trkpt lat="48.81388" lon="6.88445">
        <ele>233.19999694824</ele>
        <time>2023-08-05T09:31:04.000Z</time>
      </trkpt>
      <trkpt lat="48.81397" lon="6.88438">
        <ele>234</ele>
        <time>2023-08-05T09:31:07.000Z</time>
      </trkpt>
      <trkpt lat="48.81403" lon="6.88433">
        <ele>234.19999694824</ele>
        <time>2023-08-05T09:31:09.000Z</time>
      </trkpt>
      <trkpt lat="48.81418" lon="6.88422">
        <ele>235.39999389648</ele>
        <time>2023-08-05T09:31:14.000Z</time>
      </trkpt>
      <trkpt lat="48.81433" lon="6.88409">
        <ele>236.39999389648</ele>
        <time>2023-08-05T09:31:20.000Z</time>
      </trkpt>
      <trkpt lat="48.81446" lon="6.88399">
        <ele>237.19999694824</ele>
        <time>2023-08-05T09:31:25.000Z</time>
      </trkpt>
      <trkpt lat="48.81448" lon="6.88397">
        <ele>237.39999389648</ele>
        <time>2023-08-05T09:31:26.000Z</time>
      </trkpt>
      <trkpt lat="48.81461" lon="6.88387">
        <ele>238.60000610352</ele>
        <time>2023-08-05T09:31:31.000Z</time>
      </trkpt>
      <trkpt lat="48.81471" lon="6.88379">
        <ele>239</ele>
        <time>2023-08-05T09:31:35.000Z</time>
      </trkpt>
      <trkpt lat="48.81483" lon="6.88369">
        <ele>239.60000610352</ele>
        <time>2023-08-05T09:31:40.000Z</time>
      </trkpt>
      <trkpt lat="48.81492" lon="6.8836">
        <ele>240.80000305176</ele>
        <time>2023-08-05T09:31:44.000Z</time>
      </trkpt>
      <trkpt lat="48.81501" lon="6.88351">
        <ele>241.60000610352</ele>
        <time>2023-08-05T09:31:48.000Z</time>
      </trkpt>
      <trkpt lat="48.81505" lon="6.88346">
        <ele>242.19999694824</ele>
        <time>2023-08-05T09:31:50.000Z</time>
      </trkpt>
      <trkpt lat="48.81512" lon="6.8834">
        <ele>242.39999389648</ele>
        <time>2023-08-05T09:31:53.000Z</time>
      </trkpt>
      <trkpt lat="48.81524" lon="6.88325">
        <ele>243.19999694824</ele>
        <time>2023-08-05T09:31:59.000Z</time>
      </trkpt>
      <trkpt lat="48.81529" lon="6.8832">
        <ele>243.60000610352</ele>
        <time>2023-08-05T09:32:01.000Z</time>
      </trkpt>
      <trkpt lat="48.81538" lon="6.88309">
        <ele>244.39999389648</ele>
        <time>2023-08-05T09:32:05.000Z</time>
      </trkpt>
      <trkpt lat="48.81544" lon="6.88302">
        <ele>244.80000305176</ele>
        <time>2023-08-05T09:32:08.000Z</time>
      </trkpt>
      <trkpt lat="48.81553" lon="6.88292">
        <ele>245.39999389648</ele>
        <time>2023-08-05T09:32:12.000Z</time>
      </trkpt>
      <trkpt lat="48.81559" lon="6.88284">
        <ele>245.80000305176</ele>
        <time>2023-08-05T09:32:15.000Z</time>
      </trkpt>
      <trkpt lat="48.81566" lon="6.88276">
        <ele>246.39999389648</ele>
        <time>2023-08-05T09:32:18.000Z</time>
      </trkpt>
      <trkpt lat="48.81578" lon="6.88267">
        <ele>247.39999389648</ele>
        <time>2023-08-05T09:32:23.000Z</time>
      </trkpt>
      <trkpt lat="48.8158" lon="6.88265">
        <ele>247.60000610352</ele>
        <time>2023-08-05T09:32:24.000Z</time>
      </trkpt>
      <trkpt lat="48.81596" lon="6.88252">
        <ele>248.60000610352</ele>
        <time>2023-08-05T09:32:31.000Z</time>
      </trkpt>
      <trkpt lat="48.81611" lon="6.8824">
        <ele>249.60000610352</ele>
        <time>2023-08-05T09:32:37.000Z</time>
      </trkpt>
      <trkpt lat="48.81627" lon="6.88229">
        <ele>250.80000305176</ele>
        <time>2023-08-05T09:32:43.000Z</time>
      </trkpt>
      <trkpt lat="48.81643" lon="6.88214">
        <ele>252</ele>
        <time>2023-08-05T09:32:50.000Z</time>
      </trkpt>
      <trkpt lat="48.81646" lon="6.88212">
        <ele>252</ele>
        <time>2023-08-05T09:32:51.000Z</time>
      </trkpt>
      <trkpt lat="48.81662" lon="6.882">
        <ele>253</ele>
        <time>2023-08-05T09:32:57.000Z</time>
      </trkpt>
      <trkpt lat="48.81668" lon="6.88194">
        <ele>253.39999389648</ele>
        <time>2023-08-05T09:33:00.000Z</time>
      </trkpt>
      <trkpt lat="48.81675" lon="6.88186">
        <ele>254.19999694824</ele>
        <time>2023-08-05T09:33:03.000Z</time>
      </trkpt>
      <trkpt lat="48.81688" lon="6.88168">
        <ele>255.19999694824</ele>
        <time>2023-08-05T09:33:09.000Z</time>
      </trkpt>
      <trkpt lat="48.81698" lon="6.88144">
        <ele>256.39999389648</ele>
        <time>2023-08-05T09:33:15.000Z</time>
      </trkpt>
      <trkpt lat="48.817" lon="6.88136">
        <ele>256.39999389648</ele>
        <time>2023-08-05T09:33:17.000Z</time>
      </trkpt>
      <trkpt lat="48.81707" lon="6.88108">
        <ele>257.39999389648</ele>
        <time>2023-08-05T09:33:24.000Z</time>
      </trkpt>
      <trkpt lat="48.81708" lon="6.88104">
        <ele>257.60000610352</ele>
        <time>2023-08-05T09:33:25.000Z</time>
      </trkpt>
      <trkpt lat="48.81713" lon="6.88084">
        <ele>258.39999389648</ele>
        <time>2023-08-05T09:33:30.000Z</time>
      </trkpt>
      <trkpt lat="48.81715" lon="6.88075">
        <ele>258.79998779297</ele>
        <time>2023-08-05T09:33:32.000Z</time>
      </trkpt>
      <trkpt lat="48.8172" lon="6.88038">
        <ele>259.39999389648</ele>
        <time>2023-08-05T09:33:41.000Z</time>
      </trkpt>
      <trkpt lat="48.81721" lon="6.8803">
        <ele>259.60000610352</ele>
        <time>2023-08-05T09:33:43.000Z</time>
      </trkpt>
      <trkpt lat="48.81722" lon="6.88005">
        <ele>259.60000610352</ele>
        <time>2023-08-05T09:33:49.000Z</time>
      </trkpt>
      <trkpt lat="48.81723" lon="6.88001">
        <ele>259.60000610352</ele>
        <time>2023-08-05T09:33:51.000Z</time>
      </trkpt>
      <trkpt lat="48.81724" lon="6.87998">
        <ele>259.39999389648</ele>
        <time>2023-08-05T09:33:53.000Z</time>
      </trkpt>
      <trkpt lat="48.81724" lon="6.87995">
        <ele>259.20001220703</ele>
        <time>2023-08-05T09:33:56.000Z</time>
      </trkpt>
      <trkpt lat="48.81724" lon="6.87995">
        <ele>259.20001220703</ele>
        <time>2023-08-05T09:33:58.000Z</time>
      </trkpt>
      <trkpt lat="48.81724" lon="6.87988">
        <ele>260.60000610352</ele>
        <time>2023-08-05T09:46:37.000Z</time>
      </trkpt>
      <trkpt lat="48.81726" lon="6.87965">
        <ele>260.60000610352</ele>
        <time>2023-08-05T09:46:43.000Z</time>
      </trkpt>
      <trkpt lat="48.81736" lon="6.87938">
        <ele>260.39999389648</ele>
        <time>2023-08-05T09:46:48.000Z</time>
      </trkpt>
      <trkpt lat="48.81754" lon="6.87903">
        <ele>259.39999389648</ele>
        <time>2023-08-05T09:46:53.000Z</time>
      </trkpt>
      <trkpt lat="48.81766" lon="6.87877">
        <ele>258.60000610352</ele>
        <time>2023-08-05T09:46:56.000Z</time>
      </trkpt>
      <trkpt lat="48.81771" lon="6.87855">
        <ele>257.79998779297</ele>
        <time>2023-08-05T09:46:58.000Z</time>
      </trkpt>
      <trkpt lat="48.81773" lon="6.87844">
        <ele>257.60000610352</ele>
        <time>2023-08-05T09:46:59.000Z</time>
      </trkpt>
      <trkpt lat="48.81774" lon="6.87822">
        <ele>257.20001220703</ele>
        <time>2023-08-05T09:47:01.000Z</time>
      </trkpt>
      <trkpt lat="48.81774" lon="6.87812">
        <ele>256.79998779297</ele>
        <time>2023-08-05T09:47:02.000Z</time>
      </trkpt>
      <trkpt lat="48.81774" lon="6.87801">
        <ele>256.39999389648</ele>
        <time>2023-08-05T09:47:03.000Z</time>
      </trkpt>
      <trkpt lat="48.81772" lon="6.87779">
        <ele>255.19999694824</ele>
        <time>2023-08-05T09:47:05.000Z</time>
      </trkpt>
      <trkpt lat="48.81771" lon="6.87768">
        <ele>254.60000610352</ele>
        <time>2023-08-05T09:47:06.000Z</time>
      </trkpt>
      <trkpt lat="48.81769" lon="6.87743">
        <ele>253.80000305176</ele>
        <time>2023-08-05T09:47:08.000Z</time>
      </trkpt>
      <trkpt lat="48.81765" lon="6.87705">
        <ele>252.60000610352</ele>
        <time>2023-08-05T09:47:11.000Z</time>
      </trkpt>
      <trkpt lat="48.81763" lon="6.87678">
        <ele>251.19999694824</ele>
        <time>2023-08-05T09:47:13.000Z</time>
      </trkpt>
      <trkpt lat="48.81758" lon="6.87638">
        <ele>250.19999694824</ele>
        <time>2023-08-05T09:47:16.000Z</time>
      </trkpt>
      <trkpt lat="48.81756" lon="6.87609">
        <ele>249</ele>
        <time>2023-08-05T09:47:18.000Z</time>
      </trkpt>
      <trkpt lat="48.81754" lon="6.87594">
        <ele>248</ele>
        <time>2023-08-05T09:47:19.000Z</time>
      </trkpt>
      <trkpt lat="48.81753" lon="6.87579">
        <ele>247</ele>
        <time>2023-08-05T09:47:20.000Z</time>
      </trkpt>
      <trkpt lat="48.81751" lon="6.87549">
        <ele>245.80000305176</ele>
        <time>2023-08-05T09:47:22.000Z</time>
      </trkpt>
      <trkpt lat="48.81747" lon="6.8752">
        <ele>244.60000610352</ele>
        <time>2023-08-05T09:47:24.000Z</time>
      </trkpt>
      <trkpt lat="48.81746" lon="6.87506">
        <ele>244.19999694824</ele>
        <time>2023-08-05T09:47:25.000Z</time>
      </trkpt>
      <trkpt lat="48.81745" lon="6.87491">
        <ele>243.19999694824</ele>
        <time>2023-08-05T09:47:26.000Z</time>
      </trkpt>
      <trkpt lat="48.81743" lon="6.87478">
        <ele>242.19999694824</ele>
        <time>2023-08-05T09:47:27.000Z</time>
      </trkpt>
      <trkpt lat="48.81742" lon="6.87465">
        <ele>242</ele>
        <time>2023-08-05T09:47:28.000Z</time>
      </trkpt>
      <trkpt lat="48.8174" lon="6.8744">
        <ele>241.39999389648</ele>
        <time>2023-08-05T09:47:30.000Z</time>
      </trkpt>
      <trkpt lat="48.81738" lon="6.87416">
        <ele>240.80000305176</ele>
        <time>2023-08-05T09:47:32.000Z</time>
      </trkpt>
      <trkpt lat="48.81737" lon="6.87383">
        <ele>240</ele>
        <time>2023-08-05T09:47:35.000Z</time>
      </trkpt>
      <trkpt lat="48.81738" lon="6.87372">
        <ele>239.80000305176</ele>
        <time>2023-08-05T09:47:36.000Z</time>
      </trkpt>
      <trkpt lat="48.81742" lon="6.87343">
        <ele>239.39999389648</ele>
        <time>2023-08-05T09:47:39.000Z</time>
      </trkpt>
      <trkpt lat="48.81744" lon="6.87334">
        <ele>239.39999389648</ele>
        <time>2023-08-05T09:47:40.000Z</time>
      </trkpt>
      <trkpt lat="48.81754" lon="6.87301">
        <ele>239.60000610352</ele>
        <time>2023-08-05T09:47:45.000Z</time>
      </trkpt>
      <trkpt lat="48.81757" lon="6.87296">
        <ele>239.80000305176</ele>
        <time>2023-08-05T09:47:46.000Z</time>
      </trkpt>
      <trkpt lat="48.81767" lon="6.87274">
        <ele>240.80000305176</ele>
        <time>2023-08-05T09:47:51.000Z</time>
      </trkpt>
      <trkpt lat="48.81777" lon="6.87256">
        <ele>241.80000305176</ele>
        <time>2023-08-05T09:47:56.000Z</time>
      </trkpt>
      <trkpt lat="48.8178" lon="6.8725">
        <ele>242.19999694824</ele>
        <time>2023-08-05T09:47:58.000Z</time>
      </trkpt>
      <trkpt lat="48.81785" lon="6.8724">
        <ele>243</ele>
        <time>2023-08-05T09:48:01.000Z</time>
      </trkpt>
      <trkpt lat="48.81791" lon="6.87227">
        <ele>243.60000610352</ele>
        <time>2023-08-05T09:48:05.000Z</time>
      </trkpt>
      <trkpt lat="48.81795" lon="6.87218">
        <ele>244.19999694824</ele>
        <time>2023-08-05T09:48:08.000Z</time>
      </trkpt>
      <trkpt lat="48.818" lon="6.87208">
        <ele>245</ele>
        <time>2023-08-05T09:48:11.000Z</time>
      </trkpt>
      <trkpt lat="48.81803" lon="6.87202">
        <ele>245.39999389648</ele>
        <time>2023-08-05T09:48:13.000Z</time>
      </trkpt>
      <trkpt lat="48.81808" lon="6.87192">
        <ele>245.80000305176</ele>
        <time>2023-08-05T09:48:16.000Z</time>
      </trkpt>
      <trkpt lat="48.81813" lon="6.8718">
        <ele>246.39999389648</ele>
        <time>2023-08-05T09:48:20.000Z</time>
      </trkpt>
      <trkpt lat="48.81818" lon="6.87171">
        <ele>247</ele>
        <time>2023-08-05T09:48:23.000Z</time>
      </trkpt>
      <trkpt lat="48.81822" lon="6.87162">
        <ele>247.39999389648</ele>
        <time>2023-08-05T09:48:26.000Z</time>
      </trkpt>
      <trkpt lat="48.81827" lon="6.87149">
        <ele>248.19999694824</ele>
        <time>2023-08-05T09:48:30.000Z</time>
      </trkpt>
      <trkpt lat="48.81829" lon="6.87143">
        <ele>248.39999389648</ele>
        <time>2023-08-05T09:48:32.000Z</time>
      </trkpt>
      <trkpt lat="48.81837" lon="6.87117">
        <ele>249.39999389648</ele>
        <time>2023-08-05T09:48:39.000Z</time>
      </trkpt>
      <trkpt lat="48.81843" lon="6.87096">
        <ele>249.80000305176</ele>
        <time>2023-08-05T09:48:44.000Z</time>
      </trkpt>
      <trkpt lat="48.81848" lon="6.87077">
        <ele>250</ele>
        <time>2023-08-05T09:48:48.000Z</time>
      </trkpt>
      <trkpt lat="48.8186" lon="6.87031">
        <ele>250.39999389648</ele>
        <time>2023-08-05T09:48:56.000Z</time>
      </trkpt>
      <trkpt lat="48.8187" lon="6.86992">
        <ele>250.39999389648</ele>
        <time>2023-08-05T09:49:02.000Z</time>
      </trkpt>
      <trkpt lat="48.81885" lon="6.86932">
        <ele>248.80000305176</ele>
        <time>2023-08-05T09:49:10.000Z</time>
      </trkpt>
      <trkpt lat="48.81887" lon="6.86925">
        <ele>248.60000610352</ele>
        <time>2023-08-05T09:49:11.000Z</time>
      </trkpt>
      <trkpt lat="48.81898" lon="6.86883">
        <ele>248.39999389648</ele>
        <time>2023-08-05T09:49:17.000Z</time>
      </trkpt>
      <trkpt lat="48.81905" lon="6.86852">
        <ele>248.19999694824</ele>
        <time>2023-08-05T09:49:22.000Z</time>
      </trkpt>
      <trkpt lat="48.81916" lon="6.8681">
        <ele>248.19999694824</ele>
        <time>2023-08-05T09:49:30.000Z</time>
      </trkpt>
      <trkpt lat="48.81927" lon="6.86764">
        <ele>249</ele>
        <time>2023-08-05T09:49:40.000Z</time>
      </trkpt>
      <trkpt lat="48.81931" lon="6.86746">
        <ele>249.60000610352</ele>
        <time>2023-08-05T09:49:44.000Z</time>
      </trkpt>
      <trkpt lat="48.81932" lon="6.86742">
        <ele>250</ele>
        <time>2023-08-05T09:49:45.000Z</time>
      </trkpt>
      <trkpt lat="48.81939" lon="6.86718">
        <ele>250.80000305176</ele>
        <time>2023-08-05T09:49:51.000Z</time>
      </trkpt>
      <trkpt lat="48.8194" lon="6.86714">
        <ele>251.39999389648</ele>
        <time>2023-08-05T09:49:52.000Z</time>
      </trkpt>
      <trkpt lat="48.81947" lon="6.86689">
        <ele>252.19999694824</ele>
        <time>2023-08-05T09:49:58.000Z</time>
      </trkpt>
      <trkpt lat="48.81948" lon="6.86685">
        <ele>252.39999389648</ele>
        <time>2023-08-05T09:49:59.000Z</time>
      </trkpt>
      <trkpt lat="48.81958" lon="6.86648">
        <ele>253.39999389648</ele>
        <time>2023-08-05T09:50:08.000Z</time>
      </trkpt>
      <trkpt lat="48.8196" lon="6.8664">
        <ele>253.60000610352</ele>
        <time>2023-08-05T09:50:10.000Z</time>
      </trkpt>
      <trkpt lat="48.81968" lon="6.86611">
        <ele>254.80000305176</ele>
        <time>2023-08-05T09:50:17.000Z</time>
      </trkpt>
      <trkpt lat="48.8197" lon="6.86601">
        <ele>254.80000305176</ele>
        <time>2023-08-05T09:50:19.000Z</time>
      </trkpt>
      <trkpt lat="48.81976" lon="6.86578">
        <ele>255</ele>
        <time>2023-08-05T09:50:24.000Z</time>
      </trkpt>
      <trkpt lat="48.81983" lon="6.86549">
        <ele>255.60000610352</ele>
        <time>2023-08-05T09:50:30.000Z</time>
      </trkpt>
      <trkpt lat="48.82" lon="6.86496">
        <ele>255.60000610352</ele>
        <time>2023-08-05T09:50:40.000Z</time>
      </trkpt>
      <trkpt lat="48.82016" lon="6.86461">
        <ele>255.39999389648</ele>
        <time>2023-08-05T09:50:46.000Z</time>
      </trkpt>
      <trkpt lat="48.82041" lon="6.86409">
        <ele>254.80000305176</ele>
        <time>2023-08-05T09:50:53.000Z</time>
      </trkpt>
      <trkpt lat="48.82062" lon="6.86364">
        <ele>253.39999389648</ele>
        <time>2023-08-05T09:50:58.000Z</time>
      </trkpt>
      <trkpt lat="48.8207" lon="6.86348">
        <ele>252.80000305176</ele>
        <time>2023-08-05T09:51:00.000Z</time>
      </trkpt>
      <trkpt lat="48.82079" lon="6.8633">
        <ele>252.39999389648</ele>
        <time>2023-08-05T09:51:02.000Z</time>
      </trkpt>
      <trkpt lat="48.82097" lon="6.86292">
        <ele>251.80000305176</ele>
        <time>2023-08-05T09:51:07.000Z</time>
      </trkpt>
      <trkpt lat="48.82121" lon="6.86239">
        <ele>251.80000305176</ele>
        <time>2023-08-05T09:51:15.000Z</time>
      </trkpt>
      <trkpt lat="48.8214" lon="6.86188">
        <ele>252</ele>
        <time>2023-08-05T09:51:22.000Z</time>
      </trkpt>
      <trkpt lat="48.82162" lon="6.86121">
        <ele>251.19999694824</ele>
        <time>2023-08-05T09:51:30.000Z</time>
      </trkpt>
      <trkpt lat="48.82168" lon="6.86101">
        <ele>251</ele>
        <time>2023-08-05T09:51:32.000Z</time>
      </trkpt>
      <trkpt lat="48.82177" lon="6.86069">
        <ele>250</ele>
        <time>2023-08-05T09:51:35.000Z</time>
      </trkpt>
      <trkpt lat="48.82184" lon="6.86047">
        <ele>249.39999389648</ele>
        <time>2023-08-05T09:51:37.000Z</time>
      </trkpt>
      <trkpt lat="48.82188" lon="6.86035">
        <ele>249</ele>
        <time>2023-08-05T09:51:38.000Z</time>
      </trkpt>
      <trkpt lat="48.82201" lon="6.85988">
        <ele>247.39999389648</ele>
        <time>2023-08-05T09:51:42.000Z</time>
      </trkpt>
      <trkpt lat="48.82209" lon="6.85966">
        <ele>246.60000610352</ele>
        <time>2023-08-05T09:51:44.000Z</time>
      </trkpt>
      <trkpt lat="48.82213" lon="6.85955">
        <ele>246.39999389648</ele>
        <time>2023-08-05T09:51:45.000Z</time>
      </trkpt>
      <trkpt lat="48.82229" lon="6.85909">
        <ele>244.80000305176</ele>
        <time>2023-08-05T09:51:49.000Z</time>
      </trkpt>
      <trkpt lat="48.82239" lon="6.85887">
        <ele>244</ele>
        <time>2023-08-05T09:51:51.000Z</time>
      </trkpt>
      <trkpt lat="48.82243" lon="6.85876">
        <ele>243.60000610352</ele>
        <time>2023-08-05T09:51:52.000Z</time>
      </trkpt>
      <trkpt lat="48.82262" lon="6.85831">
        <ele>242.39999389648</ele>
        <time>2023-08-05T09:51:56.000Z</time>
      </trkpt>
      <trkpt lat="48.82277" lon="6.85797">
        <ele>241.19999694824</ele>
        <time>2023-08-05T09:51:59.000Z</time>
      </trkpt>
      <trkpt lat="48.82282" lon="6.85788">
        <ele>241</ele>
        <time>2023-08-05T09:52:00.000Z</time>
      </trkpt>
      <trkpt lat="48.82302" lon="6.85757">
        <ele>240</ele>
        <time>2023-08-05T09:52:03.000Z</time>
      </trkpt>
      <trkpt lat="48.82316" lon="6.8574">
        <ele>239.19999694824</ele>
        <time>2023-08-05T09:52:05.000Z</time>
      </trkpt>
      <trkpt lat="48.82323" lon="6.85732">
        <ele>238.60000610352</ele>
        <time>2023-08-05T09:52:06.000Z</time>
      </trkpt>
      <trkpt lat="48.82355" lon="6.85705">
        <ele>237</ele>
        <time>2023-08-05T09:52:10.000Z</time>
      </trkpt>
      <trkpt lat="48.8238" lon="6.85687">
        <ele>236</ele>
        <time>2023-08-05T09:52:13.000Z</time>
      </trkpt>
      <trkpt lat="48.82417" lon="6.85659">
        <ele>234.80000305176</ele>
        <time>2023-08-05T09:52:18.000Z</time>
      </trkpt>
      <trkpt lat="48.82458" lon="6.85629">
        <ele>233.39999389648</ele>
        <time>2023-08-05T09:52:24.000Z</time>
      </trkpt>
      <trkpt lat="48.8247" lon="6.85618">
        <ele>233.19999694824</ele>
        <time>2023-08-05T09:52:26.000Z</time>
      </trkpt>
      <trkpt lat="48.82501" lon="6.85588">
        <ele>232.39999389648</ele>
        <time>2023-08-05T09:52:31.000Z</time>
      </trkpt>
      <trkpt lat="48.82524" lon="6.85562">
        <ele>232</ele>
        <time>2023-08-05T09:52:35.000Z</time>
      </trkpt>
      <trkpt lat="48.8256" lon="6.85523">
        <ele>231.19999694824</ele>
        <time>2023-08-05T09:52:41.000Z</time>
      </trkpt>
      <trkpt lat="48.82592" lon="6.85488">
        <ele>230</ele>
        <time>2023-08-05T09:52:46.000Z</time>
      </trkpt>
      <trkpt lat="48.82635" lon="6.85439">
        <ele>229.60000610352</ele>
        <time>2023-08-05T09:52:53.000Z</time>
      </trkpt>
      <trkpt lat="48.82641" lon="6.85431">
        <ele>229.60000610352</ele>
        <time>2023-08-05T09:52:54.000Z</time>
      </trkpt>
      <trkpt lat="48.82663" lon="6.8539">
        <ele>229.60000610352</ele>
        <time>2023-08-05T09:52:59.000Z</time>
      </trkpt>
      <trkpt lat="48.8268" lon="6.8534">
        <ele>230.19999694824</ele>
        <time>2023-08-05T09:53:05.000Z</time>
      </trkpt>
      <trkpt lat="48.82689" lon="6.85285">
        <ele>231</ele>
        <time>2023-08-05T09:53:12.000Z</time>
      </trkpt>
      <trkpt lat="48.8269" lon="6.85269">
        <ele>231</ele>
        <time>2023-08-05T09:53:14.000Z</time>
      </trkpt>
      <trkpt lat="48.82696" lon="6.85207">
        <ele>231.19999694824</ele>
        <time>2023-08-05T09:53:22.000Z</time>
      </trkpt>
      <trkpt lat="48.82704" lon="6.85124">
        <ele>231.39999389648</ele>
        <time>2023-08-05T09:53:33.000Z</time>
      </trkpt>
      <trkpt lat="48.8271" lon="6.85063">
        <ele>232.19999694824</ele>
        <time>2023-08-05T09:53:42.000Z</time>
      </trkpt>
      <trkpt lat="48.82711" lon="6.85056">
        <ele>232.39999389648</ele>
        <time>2023-08-05T09:53:43.000Z</time>
      </trkpt>
      <trkpt lat="48.82715" lon="6.85008">
        <ele>233</ele>
        <time>2023-08-05T09:53:51.000Z</time>
      </trkpt>
      <trkpt lat="48.82717" lon="6.84988">
        <ele>233.39999389648</ele>
        <time>2023-08-05T09:53:55.000Z</time>
      </trkpt>
      <trkpt lat="48.82721" lon="6.84955">
        <ele>234.39999389648</ele>
        <time>2023-08-05T09:54:01.000Z</time>
      </trkpt>
      <trkpt lat="48.82721" lon="6.8495">
        <ele>234.60000610352</ele>
        <time>2023-08-05T09:54:02.000Z</time>
      </trkpt>
      <trkpt lat="48.82724" lon="6.84911">
        <ele>235.60000610352</ele>
        <time>2023-08-05T09:54:10.000Z</time>
      </trkpt>
      <trkpt lat="48.82727" lon="6.84862">
        <ele>236.60000610352</ele>
        <time>2023-08-05T09:54:19.000Z</time>
      </trkpt>
      <trkpt lat="48.82728" lon="6.84855">
        <ele>236.80000305176</ele>
        <time>2023-08-05T09:54:20.000Z</time>
      </trkpt>
      <trkpt lat="48.82731" lon="6.84804">
        <ele>237</ele>
        <time>2023-08-05T09:54:28.000Z</time>
      </trkpt>
      <trkpt lat="48.82736" lon="6.84745">
        <ele>236.60000610352</ele>
        <time>2023-08-05T09:54:36.000Z</time>
      </trkpt>
      <trkpt lat="48.82741" lon="6.84662">
        <ele>236.19999694824</ele>
        <time>2023-08-05T09:54:47.000Z</time>
      </trkpt>
      <trkpt lat="48.82742" lon="6.84647">
        <ele>236.19999694824</ele>
        <time>2023-08-05T09:54:49.000Z</time>
      </trkpt>
      <trkpt lat="48.82746" lon="6.84561">
        <ele>236</ele>
        <time>2023-08-05T09:55:00.000Z</time>
      </trkpt>
      <trkpt lat="48.8275" lon="6.84499">
        <ele>235.39999389648</ele>
        <time>2023-08-05T09:55:07.000Z</time>
      </trkpt>
      <trkpt lat="48.82751" lon="6.84489">
        <ele>235.19999694824</ele>
        <time>2023-08-05T09:55:08.000Z</time>
      </trkpt>
      <trkpt lat="48.82751" lon="6.8448">
        <ele>235</ele>
        <time>2023-08-05T09:55:09.000Z</time>
      </trkpt>
      <trkpt lat="48.82754" lon="6.8445">
        <ele>234.39999389648</ele>
        <time>2023-08-05T09:55:12.000Z</time>
      </trkpt>
      <trkpt lat="48.82756" lon="6.84419">
        <ele>233.60000610352</ele>
        <time>2023-08-05T09:55:15.000Z</time>
      </trkpt>
      <trkpt lat="48.82758" lon="6.84408">
        <ele>233.60000610352</ele>
        <time>2023-08-05T09:55:16.000Z</time>
      </trkpt>
      <trkpt lat="48.8276" lon="6.84399">
        <ele>233.19999694824</ele>
        <time>2023-08-05T09:55:17.000Z</time>
      </trkpt>
      <trkpt lat="48.82767" lon="6.8438">
        <ele>232.80000305176</ele>
        <time>2023-08-05T09:55:19.000Z</time>
      </trkpt>
      <trkpt lat="48.82771" lon="6.84371">
        <ele>232.60000610352</ele>
        <time>2023-08-05T09:55:20.000Z</time>
      </trkpt>
      <trkpt lat="48.82779" lon="6.84356">
        <ele>232</ele>
        <time>2023-08-05T09:55:22.000Z</time>
      </trkpt>
      <trkpt lat="48.82803" lon="6.84325">
        <ele>231.39999389648</ele>
        <time>2023-08-05T09:55:27.000Z</time>
      </trkpt>
      <trkpt lat="48.82825" lon="6.84305">
        <ele>231.19999694824</ele>
        <time>2023-08-05T09:55:31.000Z</time>
      </trkpt>
      <trkpt lat="48.82836" lon="6.84299">
        <ele>231.19999694824</ele>
        <time>2023-08-05T09:55:33.000Z</time>
      </trkpt>
      <trkpt lat="48.82873" lon="6.84294">
        <ele>231</ele>
        <time>2023-08-05T09:55:39.000Z</time>
      </trkpt>
      <trkpt lat="48.82911" lon="6.84295">
        <ele>231.19999694824</ele>
        <time>2023-08-05T09:55:46.000Z</time>
      </trkpt>
      <trkpt lat="48.82938" lon="6.84296">
        <ele>231.80000305176</ele>
        <time>2023-08-05T09:55:52.000Z</time>
      </trkpt>
      <trkpt lat="48.82954" lon="6.84293">
        <ele>232.60000610352</ele>
        <time>2023-08-05T09:55:56.000Z</time>
      </trkpt>
      <trkpt lat="48.82962" lon="6.84291">
        <ele>233</ele>
        <time>2023-08-05T09:55:58.000Z</time>
      </trkpt>
      <trkpt lat="48.82978" lon="6.84286">
        <ele>233.60000610352</ele>
        <time>2023-08-05T09:56:02.000Z</time>
      </trkpt>
      <trkpt lat="48.82987" lon="6.84282">
        <ele>233.80000305176</ele>
        <time>2023-08-05T09:56:04.000Z</time>
      </trkpt>
      <trkpt lat="48.82991" lon="6.8428">
        <ele>234</ele>
        <time>2023-08-05T09:56:05.000Z</time>
      </trkpt>
      <trkpt lat="48.82995" lon="6.84277">
        <ele>234</ele>
        <time>2023-08-05T09:56:06.000Z</time>
      </trkpt>
      <trkpt lat="48.8301" lon="6.84266">
        <ele>234</ele>
        <time>2023-08-05T09:56:09.000Z</time>
      </trkpt>
      <trkpt lat="48.83014" lon="6.84261">
        <ele>234</ele>
        <time>2023-08-05T09:56:10.000Z</time>
      </trkpt>
      <trkpt lat="48.8303" lon="6.84238">
        <ele>233.39999389648</ele>
        <time>2023-08-05T09:56:14.000Z</time>
      </trkpt>
      <trkpt lat="48.83061" lon="6.84178">
        <ele>233.19999694824</ele>
        <time>2023-08-05T09:56:24.000Z</time>
      </trkpt>
      <trkpt lat="48.83074" lon="6.84153">
        <ele>233.19999694824</ele>
        <time>2023-08-05T09:56:28.000Z</time>
      </trkpt>
      <trkpt lat="48.83089" lon="6.84129">
        <ele>233.60000610352</ele>
        <time>2023-08-05T09:56:33.000Z</time>
      </trkpt>
      <trkpt lat="48.83095" lon="6.84121">
        <ele>234</ele>
        <time>2023-08-05T09:56:35.000Z</time>
      </trkpt>
      <trkpt lat="48.83099" lon="6.84118">
        <ele>234</ele>
        <time>2023-08-05T09:56:36.000Z</time>
      </trkpt>
      <trkpt lat="48.83102" lon="6.84116">
        <ele>234.19999694824</ele>
        <time>2023-08-05T09:56:37.000Z</time>
      </trkpt>
      <trkpt lat="48.83121" lon="6.84107">
        <ele>235.19999694824</ele>
        <time>2023-08-05T09:56:43.000Z</time>
      </trkpt>
      <trkpt lat="48.83142" lon="6.84101">
        <ele>236.39999389648</ele>
        <time>2023-08-05T09:56:49.000Z</time>
      </trkpt>
      <trkpt lat="48.83148" lon="6.84099">
        <ele>236.60000610352</ele>
        <time>2023-08-05T09:56:51.000Z</time>
      </trkpt>
      <trkpt lat="48.83162" lon="6.84094">
        <ele>237.39999389648</ele>
        <time>2023-08-05T09:56:56.000Z</time>
      </trkpt>
      <trkpt lat="48.83171" lon="6.84091">
        <ele>237.80000305176</ele>
        <time>2023-08-05T09:56:59.000Z</time>
      </trkpt>
      <trkpt lat="48.83179" lon="6.84088">
        <ele>238.60000610352</ele>
        <time>2023-08-05T09:57:02.000Z</time>
      </trkpt>
      <trkpt lat="48.83197" lon="6.84083">
        <ele>239.19999694824</ele>
        <time>2023-08-05T09:57:08.000Z</time>
      </trkpt>
      <trkpt lat="48.83205" lon="6.84079">
        <ele>239.60000610352</ele>
        <time>2023-08-05T09:57:11.000Z</time>
      </trkpt>
      <trkpt lat="48.83223" lon="6.84073">
        <ele>240.39999389648</ele>
        <time>2023-08-05T09:57:17.000Z</time>
      </trkpt>
      <trkpt lat="48.83229" lon="6.84071">
        <ele>240.60000610352</ele>
        <time>2023-08-05T09:57:19.000Z</time>
      </trkpt>
      <trkpt lat="48.83248" lon="6.84065">
        <ele>241.39999389648</ele>
        <time>2023-08-05T09:57:25.000Z</time>
      </trkpt>
      <trkpt lat="48.83258" lon="6.84063">
        <ele>241.80000305176</ele>
        <time>2023-08-05T09:57:28.000Z</time>
      </trkpt>
      <trkpt lat="48.83265" lon="6.84061">
        <ele>242</ele>
        <time>2023-08-05T09:57:30.000Z</time>
      </trkpt>
      <trkpt lat="48.83286" lon="6.84054">
        <ele>242.60000610352</ele>
        <time>2023-08-05T09:57:36.000Z</time>
      </trkpt>
      <trkpt lat="48.83293" lon="6.84052">
        <ele>242.80000305176</ele>
        <time>2023-08-05T09:57:38.000Z</time>
      </trkpt>
      <trkpt lat="48.83319" lon="6.84037">
        <ele>243.19999694824</ele>
        <time>2023-08-05T09:57:45.000Z</time>
      </trkpt>
      <trkpt lat="48.83341" lon="6.84017">
        <ele>243.80000305176</ele>
        <time>2023-08-05T09:57:51.000Z</time>
      </trkpt>
      <trkpt lat="48.83347" lon="6.84009">
        <ele>243.80000305176</ele>
        <time>2023-08-05T09:57:53.000Z</time>
      </trkpt>
      <trkpt lat="48.83383" lon="6.83966">
        <ele>243.80000305176</ele>
        <time>2023-08-05T09:58:03.000Z</time>
      </trkpt>
      <trkpt lat="48.8342" lon="6.83923">
        <ele>243</ele>
        <time>2023-08-05T09:58:12.000Z</time>
      </trkpt>
      <trkpt lat="48.83434" lon="6.83907">
        <ele>242.80000305176</ele>
        <time>2023-08-05T09:58:15.000Z</time>
      </trkpt>
      <trkpt lat="48.83458" lon="6.83879">
        <ele>242.19999694824</ele>
        <time>2023-08-05T09:58:20.000Z</time>
      </trkpt>
      <trkpt lat="48.83468" lon="6.83867">
        <ele>241.80000305176</ele>
        <time>2023-08-05T09:58:22.000Z</time>
      </trkpt>
      <trkpt lat="48.83489" lon="6.83842">
        <ele>240.80000305176</ele>
        <time>2023-08-05T09:58:26.000Z</time>
      </trkpt>
      <trkpt lat="48.83505" lon="6.83824">
        <ele>239.80000305176</ele>
        <time>2023-08-05T09:58:29.000Z</time>
      </trkpt>
      <trkpt lat="48.83509" lon="6.83819">
        <ele>239.80000305176</ele>
        <time>2023-08-05T09:58:30.000Z</time>
      </trkpt>
      <trkpt lat="48.83532" lon="6.83793">
        <ele>238.60000610352</ele>
        <time>2023-08-05T09:58:34.000Z</time>
      </trkpt>
      <trkpt lat="48.83549" lon="6.83777">
        <ele>238</ele>
        <time>2023-08-05T09:58:37.000Z</time>
      </trkpt>
      <trkpt lat="48.83561" lon="6.83768">
        <ele>237.60000610352</ele>
        <time>2023-08-05T09:58:39.000Z</time>
      </trkpt>
      <trkpt lat="48.83598" lon="6.83741">
        <ele>237</ele>
        <time>2023-08-05T09:58:46.000Z</time>
      </trkpt>
      <trkpt lat="48.83642" lon="6.83708">
        <ele>237</ele>
        <time>2023-08-05T09:58:55.000Z</time>
      </trkpt>
      <trkpt lat="48.83685" lon="6.83675">
        <ele>236.60000610352</ele>
        <time>2023-08-05T09:59:04.000Z</time>
      </trkpt>
      <trkpt lat="48.83695" lon="6.83667">
        <ele>236.80000305176</ele>
        <time>2023-08-05T09:59:06.000Z</time>
      </trkpt>
      <trkpt lat="48.83725" lon="6.83638">
        <ele>236.39999389648</ele>
        <time>2023-08-05T09:59:13.000Z</time>
      </trkpt>
      <trkpt lat="48.83763" lon="6.83594">
        <ele>236.39999389648</ele>
        <time>2023-08-05T09:59:22.000Z</time>
      </trkpt>
      <trkpt lat="48.838" lon="6.83551">
        <ele>236.60000610352</ele>
        <time>2023-08-05T09:59:31.000Z</time>
      </trkpt>
      <trkpt lat="48.83803" lon="6.83546">
        <ele>236.60000610352</ele>
        <time>2023-08-05T09:59:32.000Z</time>
      </trkpt>
      <trkpt lat="48.83837" lon="6.83508">
        <ele>237.19999694824</ele>
        <time>2023-08-05T09:59:41.000Z</time>
      </trkpt>
      <trkpt lat="48.83873" lon="6.83481">
        <ele>237.19999694824</ele>
        <time>2023-08-05T09:59:49.000Z</time>
      </trkpt>
      <trkpt lat="48.83929" lon="6.83466">
        <ele>237</ele>
        <time>2023-08-05T10:00:00.000Z</time>
      </trkpt>
      <trkpt lat="48.83974" lon="6.83457">
        <ele>236.60000610352</ele>
        <time>2023-08-05T10:00:08.000Z</time>
      </trkpt>
      <trkpt lat="48.84019" lon="6.83447">
        <ele>235.60000610352</ele>
        <time>2023-08-05T10:00:16.000Z</time>
      </trkpt>
      <trkpt lat="48.84029" lon="6.83447">
        <ele>235.39999389648</ele>
        <time>2023-08-05T10:00:18.000Z</time>
      </trkpt>
      <trkpt lat="48.84063" lon="6.83451">
        <ele>235.39999389648</ele>
        <time>2023-08-05T10:00:25.000Z</time>
      </trkpt>
      <trkpt lat="48.84073" lon="6.83448">
        <ele>235.39999389648</ele>
        <time>2023-08-05T10:00:29.000Z</time>
      </trkpt>
      <trkpt lat="48.84092" lon="6.83437">
        <ele>235.60000610352</ele>
        <time>2023-08-05T10:00:33.000Z</time>
      </trkpt>
      <trkpt lat="48.84129" lon="6.83423">
        <ele>235.19999694824</ele>
        <time>2023-08-05T10:00:39.000Z</time>
      </trkpt>
      <trkpt lat="48.84146" lon="6.83422">
        <ele>234.60000610352</ele>
        <time>2023-08-05T10:00:42.000Z</time>
      </trkpt>
      <trkpt lat="48.84172" lon="6.83421">
        <ele>234.39999389648</ele>
        <time>2023-08-05T10:00:47.000Z</time>
      </trkpt>
      <trkpt lat="48.84178" lon="6.83421">
        <ele>234.39999389648</ele>
        <time>2023-08-05T10:00:48.000Z</time>
      </trkpt>
      <trkpt lat="48.84193" lon="6.83425">
        <ele>234.80000305176</ele>
        <time>2023-08-05T10:00:52.000Z</time>
      </trkpt>
      <trkpt lat="48.84207" lon="6.83429">
        <ele>235.80000305176</ele>
        <time>2023-08-05T10:00:56.000Z</time>
      </trkpt>
      <trkpt lat="48.84216" lon="6.83432">
        <ele>236.39999389648</ele>
        <time>2023-08-05T10:00:59.000Z</time>
      </trkpt>
      <trkpt lat="48.84225" lon="6.83435">
        <ele>236.80000305176</ele>
        <time>2023-08-05T10:01:02.000Z</time>
      </trkpt>
      <trkpt lat="48.84242" lon="6.83441">
        <ele>237.80000305176</ele>
        <time>2023-08-05T10:01:07.000Z</time>
      </trkpt>
      <trkpt lat="48.84252" lon="6.83444">
        <ele>238.80000305176</ele>
        <time>2023-08-05T10:01:10.000Z</time>
      </trkpt>
      <trkpt lat="48.84255" lon="6.83445">
        <ele>239.39999389648</ele>
        <time>2023-08-05T10:01:11.000Z</time>
      </trkpt>
      <trkpt lat="48.84274" lon="6.83451">
        <ele>240.39999389648</ele>
        <time>2023-08-05T10:01:17.000Z</time>
      </trkpt>
      <trkpt lat="48.84278" lon="6.83452">
        <ele>240.60000610352</ele>
        <time>2023-08-05T10:01:18.000Z</time>
      </trkpt>
      <trkpt lat="48.84303" lon="6.8346">
        <ele>241.19999694824</ele>
        <time>2023-08-05T10:01:26.000Z</time>
      </trkpt>
      <trkpt lat="48.84323" lon="6.83466">
        <ele>241.60000610352</ele>
        <time>2023-08-05T10:01:32.000Z</time>
      </trkpt>
      <trkpt lat="48.84332" lon="6.83468">
        <ele>241.60000610352</ele>
        <time>2023-08-05T10:01:35.000Z</time>
      </trkpt>
      <trkpt lat="48.84357" lon="6.83472">
        <ele>241.60000610352</ele>
        <time>2023-08-05T10:01:42.000Z</time>
      </trkpt>
      <trkpt lat="48.84383" lon="6.83469">
        <ele>241.60000610352</ele>
        <time>2023-08-05T10:01:48.000Z</time>
      </trkpt>
      <trkpt lat="48.84399" lon="6.83464">
        <ele>241.39999389648</ele>
        <time>2023-08-05T10:01:51.000Z</time>
      </trkpt>
      <trkpt lat="48.84413" lon="6.83456">
        <ele>241.19999694824</ele>
        <time>2023-08-05T10:01:53.000Z</time>
      </trkpt>
      <trkpt lat="48.84438" lon="6.83436">
        <ele>240.60000610352</ele>
        <time>2023-08-05T10:01:57.000Z</time>
      </trkpt>
      <trkpt lat="48.84444" lon="6.83429">
        <ele>240.39999389648</ele>
        <time>2023-08-05T10:01:58.000Z</time>
      </trkpt>
      <trkpt lat="48.8447" lon="6.83399">
        <ele>239.39999389648</ele>
        <time>2023-08-05T10:02:02.000Z</time>
      </trkpt>
      <trkpt lat="48.84483" lon="6.83382">
        <ele>238.80000305176</ele>
        <time>2023-08-05T10:02:04.000Z</time>
      </trkpt>
      <trkpt lat="48.84489" lon="6.83374">
        <ele>238.39999389648</ele>
        <time>2023-08-05T10:02:05.000Z</time>
      </trkpt>
      <trkpt lat="48.84508" lon="6.83349">
        <ele>237</ele>
        <time>2023-08-05T10:02:08.000Z</time>
      </trkpt>
      <trkpt lat="48.84534" lon="6.83317">
        <ele>235.80000305176</ele>
        <time>2023-08-05T10:02:12.000Z</time>
      </trkpt>
      <trkpt lat="48.84541" lon="6.83309">
        <ele>235.60000610352</ele>
        <time>2023-08-05T10:02:13.000Z</time>
      </trkpt>
      <trkpt lat="48.8456" lon="6.83284">
        <ele>234.80000305176</ele>
        <time>2023-08-05T10:02:16.000Z</time>
      </trkpt>
      <trkpt lat="48.8458" lon="6.83259">
        <ele>233.60000610352</ele>
        <time>2023-08-05T10:02:19.000Z</time>
      </trkpt>
      <trkpt lat="48.84594" lon="6.83242">
        <ele>233.19999694824</ele>
        <time>2023-08-05T10:02:21.000Z</time>
      </trkpt>
      <trkpt lat="48.84614" lon="6.83216">
        <ele>232.39999389648</ele>
        <time>2023-08-05T10:02:24.000Z</time>
      </trkpt>
      <trkpt lat="48.84643" lon="6.83177">
        <ele>231.39999389648</ele>
        <time>2023-08-05T10:02:29.000Z</time>
      </trkpt>
      <trkpt lat="48.84659" lon="6.83157">
        <ele>231.39999389648</ele>
        <time>2023-08-05T10:02:32.000Z</time>
      </trkpt>
      <trkpt lat="48.84678" lon="6.83132">
        <ele>231.39999389648</ele>
        <time>2023-08-05T10:02:36.000Z</time>
      </trkpt>
      <trkpt lat="48.8472" lon="6.83077">
        <ele>231.60000610352</ele>
        <time>2023-08-05T10:02:45.000Z</time>
      </trkpt>
      <trkpt lat="48.84725" lon="6.83071">
        <ele>231.60000610352</ele>
        <time>2023-08-05T10:02:46.000Z</time>
      </trkpt>
      <trkpt lat="48.84766" lon="6.83017">
        <ele>231</ele>
        <time>2023-08-05T10:02:55.000Z</time>
      </trkpt>
      <trkpt lat="48.84779" lon="6.83">
        <ele>230.80000305176</ele>
        <time>2023-08-05T10:02:58.000Z</time>
      </trkpt>
      <trkpt lat="48.84819" lon="6.82941">
        <ele>230.60000610352</ele>
        <time>2023-08-05T10:03:08.000Z</time>
      </trkpt>
      <trkpt lat="48.84856" lon="6.82877">
        <ele>230.60000610352</ele>
        <time>2023-08-05T10:03:18.000Z</time>
      </trkpt>
      <trkpt lat="48.84859" lon="6.82871">
        <ele>230.39999389648</ele>
        <time>2023-08-05T10:03:19.000Z</time>
      </trkpt>
      <trkpt lat="48.84873" lon="6.82846">
        <ele>230.60000610352</ele>
        <time>2023-08-05T10:03:23.000Z</time>
      </trkpt>
      <trkpt lat="48.84891" lon="6.82817">
        <ele>230.39999389648</ele>
        <time>2023-08-05T10:03:28.000Z</time>
      </trkpt>
      <trkpt lat="48.84926" lon="6.8277">
        <ele>229.80000305176</ele>
        <time>2023-08-05T10:03:37.000Z</time>
      </trkpt>
      <trkpt lat="48.84957" lon="6.82739">
        <ele>229.39999389648</ele>
        <time>2023-08-05T10:03:44.000Z</time>
      </trkpt>
      <trkpt lat="48.84962" lon="6.82735">
        <ele>229.39999389648</ele>
        <time>2023-08-05T10:03:45.000Z</time>
      </trkpt>
      <trkpt lat="48.84997" lon="6.82701">
        <ele>228.39999389648</ele>
        <time>2023-08-05T10:03:52.000Z</time>
      </trkpt>
      <trkpt lat="48.85026" lon="6.82673">
        <ele>227.39999389648</ele>
        <time>2023-08-05T10:03:57.000Z</time>
      </trkpt>
      <trkpt lat="48.85038" lon="6.82662">
        <ele>226.39999389648</ele>
        <time>2023-08-05T10:03:59.000Z</time>
      </trkpt>
      <trkpt lat="48.85043" lon="6.82656">
        <ele>226.39999389648</ele>
        <time>2023-08-05T10:04:00.000Z</time>
      </trkpt>
      <trkpt lat="48.85071" lon="6.8263">
        <ele>225.19999694824</ele>
        <time>2023-08-05T10:04:05.000Z</time>
      </trkpt>
      <trkpt lat="48.85082" lon="6.8262">
        <ele>224.80000305176</ele>
        <time>2023-08-05T10:04:07.000Z</time>
      </trkpt>
      <trkpt lat="48.85126" lon="6.82577">
        <ele>224.19999694824</ele>
        <time>2023-08-05T10:04:16.000Z</time>
      </trkpt>
      <trkpt lat="48.85164" lon="6.82541">
        <ele>225</ele>
        <time>2023-08-05T10:04:25.000Z</time>
      </trkpt>
      <trkpt lat="48.85197" lon="6.82509">
        <ele>225.60000610352</ele>
        <time>2023-08-05T10:04:34.000Z</time>
      </trkpt>
      <trkpt lat="48.85219" lon="6.82487">
        <ele>226.39999389648</ele>
        <time>2023-08-05T10:04:41.000Z</time>
      </trkpt>
      <trkpt lat="48.85225" lon="6.82482">
        <ele>226.60000610352</ele>
        <time>2023-08-05T10:04:43.000Z</time>
      </trkpt>
      <trkpt lat="48.85251" lon="6.82457">
        <ele>227.39999389648</ele>
        <time>2023-08-05T10:04:52.000Z</time>
      </trkpt>
      <trkpt lat="48.8526" lon="6.82449">
        <ele>228</ele>
        <time>2023-08-05T10:04:55.000Z</time>
      </trkpt>
      <trkpt lat="48.85271" lon="6.82439">
        <ele>228.39999389648</ele>
        <time>2023-08-05T10:04:59.000Z</time>
      </trkpt>
      <trkpt lat="48.85274" lon="6.82436">
        <ele>228.60000610352</ele>
        <time>2023-08-05T10:05:00.000Z</time>
      </trkpt>
      <trkpt lat="48.85297" lon="6.82414">
        <ele>229.60000610352</ele>
        <time>2023-08-05T10:05:08.000Z</time>
      </trkpt>
      <trkpt lat="48.85299" lon="6.82411">
        <ele>229.60000610352</ele>
        <time>2023-08-05T10:05:09.000Z</time>
      </trkpt>
      <trkpt lat="48.85322" lon="6.8239">
        <ele>230.80000305176</ele>
        <time>2023-08-05T10:05:17.000Z</time>
      </trkpt>
      <trkpt lat="48.8533" lon="6.82381">
        <ele>231</ele>
        <time>2023-08-05T10:05:20.000Z</time>
      </trkpt>
      <trkpt lat="48.85345" lon="6.82367">
        <ele>232</ele>
        <time>2023-08-05T10:05:25.000Z</time>
      </trkpt>
      <trkpt lat="48.85362" lon="6.82351">
        <ele>232.60000610352</ele>
        <time>2023-08-05T10:05:31.000Z</time>
      </trkpt>
      <trkpt lat="48.85374" lon="6.8234">
        <ele>233</ele>
        <time>2023-08-05T10:05:35.000Z</time>
      </trkpt>
      <trkpt lat="48.85396" lon="6.82319">
        <ele>234</ele>
        <time>2023-08-05T10:05:43.000Z</time>
      </trkpt>
      <trkpt lat="48.85401" lon="6.82314">
        <ele>234</ele>
        <time>2023-08-05T10:05:45.000Z</time>
      </trkpt>
      <trkpt lat="48.85422" lon="6.82294">
        <ele>235.19999694824</ele>
        <time>2023-08-05T10:05:53.000Z</time>
      </trkpt>
      <trkpt lat="48.85425" lon="6.82291">
        <ele>235.19999694824</ele>
        <time>2023-08-05T10:05:54.000Z</time>
      </trkpt>
      <trkpt lat="48.85441" lon="6.82275">
        <ele>236.19999694824</ele>
        <time>2023-08-05T10:06:00.000Z</time>
      </trkpt>
      <trkpt lat="48.85456" lon="6.82261">
        <ele>236.60000610352</ele>
        <time>2023-08-05T10:06:05.000Z</time>
      </trkpt>
      <trkpt lat="48.85476" lon="6.82242">
        <ele>237.19999694824</ele>
        <time>2023-08-05T10:06:12.000Z</time>
      </trkpt>
      <trkpt lat="48.85489" lon="6.82231">
        <ele>237.19999694824</ele>
        <time>2023-08-05T10:06:16.000Z</time>
      </trkpt>
      <trkpt lat="48.85519" lon="6.82214">
        <ele>236.80000305176</ele>
        <time>2023-08-05T10:06:24.000Z</time>
      </trkpt>
      <trkpt lat="48.85547" lon="6.82205">
        <ele>236.39999389648</ele>
        <time>2023-08-05T10:06:30.000Z</time>
      </trkpt>
      <trkpt lat="48.85559" lon="6.82202">
        <ele>236.19999694824</ele>
        <time>2023-08-05T10:06:32.000Z</time>
      </trkpt>
      <trkpt lat="48.85584" lon="6.82195">
        <ele>235</ele>
        <time>2023-08-05T10:06:36.000Z</time>
      </trkpt>
      <trkpt lat="48.85622" lon="6.82185">
        <ele>234</ele>
        <time>2023-08-05T10:06:41.000Z</time>
      </trkpt>
      <trkpt lat="48.85631" lon="6.82183">
        <ele>233.60000610352</ele>
        <time>2023-08-05T10:06:42.000Z</time>
      </trkpt>
      <trkpt lat="48.85656" lon="6.82177">
        <ele>232.60000610352</ele>
        <time>2023-08-05T10:06:45.000Z</time>
      </trkpt>
      <trkpt lat="48.85681" lon="6.82171">
        <ele>231.39999389648</ele>
        <time>2023-08-05T10:06:48.000Z</time>
      </trkpt>
      <trkpt lat="48.8569" lon="6.82169">
        <ele>230.80000305176</ele>
        <time>2023-08-05T10:06:49.000Z</time>
      </trkpt>
      <trkpt lat="48.85714" lon="6.82163">
        <ele>230.19999694824</ele>
        <time>2023-08-05T10:06:52.000Z</time>
      </trkpt>
      <trkpt lat="48.85751" lon="6.82154">
        <ele>229.19999694824</ele>
        <time>2023-08-05T10:06:57.000Z</time>
      </trkpt>
      <trkpt lat="48.85765" lon="6.82151">
        <ele>228.80000305176</ele>
        <time>2023-08-05T10:06:59.000Z</time>
      </trkpt>
      <trkpt lat="48.85795" lon="6.82144">
        <ele>228.39999389648</ele>
        <time>2023-08-05T10:07:04.000Z</time>
      </trkpt>
      <trkpt lat="48.85829" lon="6.82136">
        <ele>228.19999694824</ele>
        <time>2023-08-05T10:07:10.000Z</time>
      </trkpt>
      <trkpt lat="48.85884" lon="6.8212">
        <ele>228</ele>
        <time>2023-08-05T10:07:20.000Z</time>
      </trkpt>
      <trkpt lat="48.85921" lon="6.82113">
        <ele>228</ele>
        <time>2023-08-05T10:07:27.000Z</time>
      </trkpt>
      <trkpt lat="48.8593" lon="6.82114">
        <ele>228</ele>
        <time>2023-08-05T10:07:29.000Z</time>
      </trkpt>
      <trkpt lat="48.85939" lon="6.82118">
        <ele>228</ele>
        <time>2023-08-05T10:07:31.000Z</time>
      </trkpt>
      <trkpt lat="48.85947" lon="6.82125">
        <ele>228</ele>
        <time>2023-08-05T10:07:33.000Z</time>
      </trkpt>
      <trkpt lat="48.85964" lon="6.82151">
        <ele>228.80000305176</ele>
        <time>2023-08-05T10:07:39.000Z</time>
      </trkpt>
      <trkpt lat="48.85967" lon="6.82155">
        <ele>229</ele>
        <time>2023-08-05T10:07:40.000Z</time>
      </trkpt>
      <trkpt lat="48.85985" lon="6.82183">
        <ele>229.80000305176</ele>
        <time>2023-08-05T10:07:47.000Z</time>
      </trkpt>
      <trkpt lat="48.86004" lon="6.82211">
        <ele>230</ele>
        <time>2023-08-05T10:07:54.000Z</time>
      </trkpt>
      <trkpt lat="48.86009" lon="6.82217">
        <ele>230.19999694824</ele>
        <time>2023-08-05T10:07:56.000Z</time>
      </trkpt>
      <trkpt lat="48.86021" lon="6.82235">
        <ele>231.19999694824</ele>
        <time>2023-08-05T10:08:01.000Z</time>
      </trkpt>
      <trkpt lat="48.86027" lon="6.82241">
        <ele>231.39999389648</ele>
        <time>2023-08-05T10:08:03.000Z</time>
      </trkpt>
      <trkpt lat="48.8604" lon="6.82244">
        <ele>232</ele>
        <time>2023-08-05T10:08:07.000Z</time>
      </trkpt>
      <trkpt lat="48.86049" lon="6.82235">
        <ele>232.19999694824</ele>
        <time>2023-08-05T10:08:10.000Z</time>
      </trkpt>
      <trkpt lat="48.86051" lon="6.82232">
        <ele>232.39999389648</ele>
        <time>2023-08-05T10:08:11.000Z</time>
      </trkpt>
      <trkpt lat="48.86061" lon="6.82217">
        <ele>233.19999694824</ele>
        <time>2023-08-05T10:08:15.000Z</time>
      </trkpt>
      <trkpt lat="48.86074" lon="6.82197">
        <ele>234.19999694824</ele>
        <time>2023-08-05T10:08:21.000Z</time>
      </trkpt>
      <trkpt lat="48.86077" lon="6.82194">
        <ele>234.39999389648</ele>
        <time>2023-08-05T10:08:22.000Z</time>
      </trkpt>
      <trkpt lat="48.86086" lon="6.82181">
        <ele>235.39999389648</ele>
        <time>2023-08-05T10:08:26.000Z</time>
      </trkpt>
      <trkpt lat="48.86088" lon="6.82177">
        <ele>235.60000610352</ele>
        <time>2023-08-05T10:08:27.000Z</time>
      </trkpt>
      <trkpt lat="48.86102" lon="6.82152">
        <ele>236.39999389648</ele>
        <time>2023-08-05T10:08:33.000Z</time>
      </trkpt>
      <trkpt lat="48.86119" lon="6.8212">
        <ele>236.19999694824</ele>
        <time>2023-08-05T10:08:40.000Z</time>
      </trkpt>
      <trkpt lat="48.86136" lon="6.8208">
        <ele>236.19999694824</ele>
        <time>2023-08-05T10:08:48.000Z</time>
      </trkpt>
      <trkpt lat="48.86145" lon="6.82062">
        <ele>236.19999694824</ele>
        <time>2023-08-05T10:08:53.000Z</time>
      </trkpt>
      <trkpt lat="48.86149" lon="6.82056">
        <ele>236.39999389648</ele>
        <time>2023-08-05T10:08:55.000Z</time>
      </trkpt>
      <trkpt lat="48.86155" lon="6.82044">
        <ele>237</ele>
        <time>2023-08-05T10:08:59.000Z</time>
      </trkpt>
      <trkpt lat="48.8616" lon="6.82032">
        <ele>237.80000305176</ele>
        <time>2023-08-05T10:09:03.000Z</time>
      </trkpt>
      <trkpt lat="48.86166" lon="6.8202">
        <ele>239.19999694824</ele>
        <time>2023-08-05T10:09:07.000Z</time>
      </trkpt>
      <trkpt lat="48.86171" lon="6.82011">
        <ele>239.80000305176</ele>
        <time>2023-08-05T10:09:10.000Z</time>
      </trkpt>
      <trkpt lat="48.86176" lon="6.81998">
        <ele>240.19999694824</ele>
        <time>2023-08-05T10:09:14.000Z</time>
      </trkpt>
      <trkpt lat="48.86182" lon="6.81986">
        <ele>241</ele>
        <time>2023-08-05T10:09:18.000Z</time>
      </trkpt>
      <trkpt lat="48.86184" lon="6.8198">
        <ele>241.39999389648</ele>
        <time>2023-08-05T10:09:20.000Z</time>
      </trkpt>
      <trkpt lat="48.86192" lon="6.81963">
        <ele>242.19999694824</ele>
        <time>2023-08-05T10:09:26.000Z</time>
      </trkpt>
      <trkpt lat="48.86194" lon="6.81957">
        <ele>242.39999389648</ele>
        <time>2023-08-05T10:09:28.000Z</time>
      </trkpt>
      <trkpt lat="48.86199" lon="6.81949">
        <ele>242.80000305176</ele>
        <time>2023-08-05T10:09:31.000Z</time>
      </trkpt>
      <trkpt lat="48.86201" lon="6.81944">
        <ele>243.19999694824</ele>
        <time>2023-08-05T10:09:33.000Z</time>
      </trkpt>
      <trkpt lat="48.86204" lon="6.81939">
        <ele>243.39999389648</ele>
        <time>2023-08-05T10:09:35.000Z</time>
      </trkpt>
      <trkpt lat="48.8621" lon="6.81925">
        <ele>244.39999389648</ele>
        <time>2023-08-05T10:09:40.000Z</time>
      </trkpt>
      <trkpt lat="48.86211" lon="6.81922">
        <ele>244.60000610352</ele>
        <time>2023-08-05T10:09:41.000Z</time>
      </trkpt>
      <trkpt lat="48.86219" lon="6.81904">
        <ele>245.39999389648</ele>
        <time>2023-08-05T10:09:47.000Z</time>
      </trkpt>
      <trkpt lat="48.8622" lon="6.81902">
        <ele>245.80000305176</ele>
        <time>2023-08-05T10:09:48.000Z</time>
      </trkpt>
      <trkpt lat="48.86229" lon="6.81882">
        <ele>246.80000305176</ele>
        <time>2023-08-05T10:09:55.000Z</time>
      </trkpt>
      <trkpt lat="48.86238" lon="6.81864">
        <ele>248</ele>
        <time>2023-08-05T10:10:01.000Z</time>
      </trkpt>
      <trkpt lat="48.86243" lon="6.81855">
        <ele>248.60000610352</ele>
        <time>2023-08-05T10:10:04.000Z</time>
      </trkpt>
      <trkpt lat="48.86246" lon="6.81848">
        <ele>249</ele>
        <time>2023-08-05T10:10:06.000Z</time>
      </trkpt>
      <trkpt lat="48.86256" lon="6.81829">
        <ele>249.80000305176</ele>
        <time>2023-08-05T10:10:12.000Z</time>
      </trkpt>
      <trkpt lat="48.86263" lon="6.81814">
        <ele>250</ele>
        <time>2023-08-05T10:10:16.000Z</time>
      </trkpt>
      <trkpt lat="48.8627" lon="6.81798">
        <ele>250.39999389648</ele>
        <time>2023-08-05T10:10:20.000Z</time>
      </trkpt>
      <trkpt lat="48.86284" lon="6.81768">
        <ele>250.80000305176</ele>
        <time>2023-08-05T10:10:27.000Z</time>
      </trkpt>
      <trkpt lat="48.86297" lon="6.81741">
        <ele>251.19999694824</ele>
        <time>2023-08-05T10:10:33.000Z</time>
      </trkpt>
      <trkpt lat="48.86299" lon="6.81736">
        <ele>251.19999694824</ele>
        <time>2023-08-05T10:10:34.000Z</time>
      </trkpt>
      <trkpt lat="48.86303" lon="6.81725">
        <ele>251.19999694824</ele>
        <time>2023-08-05T10:10:36.000Z</time>
      </trkpt>
      <trkpt lat="48.86315" lon="6.81701">
        <ele>251.19999694824</ele>
        <time>2023-08-05T10:10:41.000Z</time>
      </trkpt>
      <trkpt lat="48.86338" lon="6.81654">
        <ele>251.60000610352</ele>
        <time>2023-08-05T10:10:50.000Z</time>
      </trkpt>
      <trkpt lat="48.86361" lon="6.81604">
        <ele>252</ele>
        <time>2023-08-05T10:11:00.000Z</time>
      </trkpt>
      <trkpt lat="48.86364" lon="6.81599">
        <ele>252.19999694824</ele>
        <time>2023-08-05T10:11:01.000Z</time>
      </trkpt>
      <trkpt lat="48.86371" lon="6.81586">
        <ele>252.39999389648</ele>
        <time>2023-08-05T10:11:04.000Z</time>
      </trkpt>
      <trkpt lat="48.86377" lon="6.81575">
        <ele>252.39999389648</ele>
        <time>2023-08-05T10:11:06.000Z</time>
      </trkpt>
      <trkpt lat="48.86412" lon="6.81528">
        <ele>252.60000610352</ele>
        <time>2023-08-05T10:11:16.000Z</time>
      </trkpt>
      <trkpt lat="48.86438" lon="6.81499">
        <ele>252</ele>
        <time>2023-08-05T10:11:22.000Z</time>
      </trkpt>
      <trkpt lat="48.86463" lon="6.81474">
        <ele>251.60000610352</ele>
        <time>2023-08-05T10:11:27.000Z</time>
      </trkpt>
      <trkpt lat="48.86479" lon="6.81457">
        <ele>251.39999389648</ele>
        <time>2023-08-05T10:11:30.000Z</time>
      </trkpt>
      <trkpt lat="48.86502" lon="6.81433">
        <ele>250.60000610352</ele>
        <time>2023-08-05T10:11:35.000Z</time>
      </trkpt>
      <trkpt lat="48.86517" lon="6.8142">
        <ele>250.19999694824</ele>
        <time>2023-08-05T10:11:38.000Z</time>
      </trkpt>
      <trkpt lat="48.86536" lon="6.81402">
        <ele>250</ele>
        <time>2023-08-05T10:11:42.000Z</time>
      </trkpt>
      <trkpt lat="48.86576" lon="6.81375">
        <ele>249.19999694824</ele>
        <time>2023-08-05T10:11:49.000Z</time>
      </trkpt>
      <trkpt lat="48.86583" lon="6.81371">
        <ele>249</ele>
        <time>2023-08-05T10:11:50.000Z</time>
      </trkpt>
      <trkpt lat="48.86617" lon="6.81348">
        <ele>247.60000610352</ele>
        <time>2023-08-05T10:11:55.000Z</time>
      </trkpt>
      <trkpt lat="48.86632" lon="6.81337">
        <ele>247</ele>
        <time>2023-08-05T10:11:57.000Z</time>
      </trkpt>
      <trkpt lat="48.8664" lon="6.81329">
        <ele>246.60000610352</ele>
        <time>2023-08-05T10:11:58.000Z</time>
      </trkpt>
      <trkpt lat="48.86663" lon="6.81303">
        <ele>245.39999389648</ele>
        <time>2023-08-05T10:12:02.000Z</time>
      </trkpt>
      <trkpt lat="48.86692" lon="6.81265">
        <ele>245.19999694824</ele>
        <time>2023-08-05T10:12:08.000Z</time>
      </trkpt>
      <trkpt lat="48.86708" lon="6.81238">
        <ele>245.60000610352</ele>
        <time>2023-08-05T10:12:13.000Z</time>
      </trkpt>
      <trkpt lat="48.8672" lon="6.81217">
        <ele>246.60000610352</ele>
        <time>2023-08-05T10:12:18.000Z</time>
      </trkpt>
      <trkpt lat="48.86722" lon="6.81213">
        <ele>246.60000610352</ele>
        <time>2023-08-05T10:12:19.000Z</time>
      </trkpt>
      <trkpt lat="48.86734" lon="6.8119">
        <ele>247.60000610352</ele>
        <time>2023-08-05T10:12:26.000Z</time>
      </trkpt>
      <trkpt lat="48.86746" lon="6.81164">
        <ele>248.60000610352</ele>
        <time>2023-08-05T10:12:34.000Z</time>
      </trkpt>
      <trkpt lat="48.86748" lon="6.81161">
        <ele>248.60000610352</ele>
        <time>2023-08-05T10:12:35.000Z</time>
      </trkpt>
      <trkpt lat="48.86759" lon="6.81131">
        <ele>249.60000610352</ele>
        <time>2023-08-05T10:12:44.000Z</time>
      </trkpt>
      <trkpt lat="48.86762" lon="6.81124">
        <ele>249.80000305176</ele>
        <time>2023-08-05T10:12:46.000Z</time>
      </trkpt>
      <trkpt lat="48.86767" lon="6.81106">
        <ele>250.80000305176</ele>
        <time>2023-08-05T10:12:51.000Z</time>
      </trkpt>
      <trkpt lat="48.86772" lon="6.81093">
        <ele>251.39999389648</ele>
        <time>2023-08-05T10:12:55.000Z</time>
      </trkpt>
      <trkpt lat="48.86777" lon="6.81079">
        <ele>251.80000305176</ele>
        <time>2023-08-05T10:12:59.000Z</time>
      </trkpt>
      <trkpt lat="48.86782" lon="6.81059">
        <ele>252.60000610352</ele>
        <time>2023-08-05T10:13:05.000Z</time>
      </trkpt>
      <trkpt lat="48.86785" lon="6.81052">
        <ele>253</ele>
        <time>2023-08-05T10:13:07.000Z</time>
      </trkpt>
      <trkpt lat="48.86789" lon="6.8104">
        <ele>253.39999389648</ele>
        <time>2023-08-05T10:13:11.000Z</time>
      </trkpt>
      <trkpt lat="48.86793" lon="6.8103">
        <ele>254.19999694824</ele>
        <time>2023-08-05T10:13:14.000Z</time>
      </trkpt>
      <trkpt lat="48.86797" lon="6.81018">
        <ele>255</ele>
        <time>2023-08-05T10:13:18.000Z</time>
      </trkpt>
      <trkpt lat="48.86799" lon="6.81013">
        <ele>255.19999694824</ele>
        <time>2023-08-05T10:13:20.000Z</time>
      </trkpt>
      <trkpt lat="48.86807" lon="6.80996">
        <ele>256.60000610352</ele>
        <time>2023-08-05T10:13:26.000Z</time>
      </trkpt>
      <trkpt lat="48.86807" lon="6.80994">
        <ele>256.60000610352</ele>
        <time>2023-08-05T10:13:27.000Z</time>
      </trkpt>
      <trkpt lat="48.86818" lon="6.80975">
        <ele>258</ele>
        <time>2023-08-05T10:13:35.000Z</time>
      </trkpt>
      <trkpt lat="48.8682" lon="6.80972">
        <ele>258.20001220703</ele>
        <time>2023-08-05T10:13:36.000Z</time>
      </trkpt>
      <trkpt lat="48.86829" lon="6.80958">
        <ele>259.39999389648</ele>
        <time>2023-08-05T10:13:42.000Z</time>
      </trkpt>
      <trkpt lat="48.86832" lon="6.80954">
        <ele>259.79998779297</ele>
        <time>2023-08-05T10:13:44.000Z</time>
      </trkpt>
      <trkpt lat="48.86836" lon="6.80949">
        <ele>260.39999389648</ele>
        <time>2023-08-05T10:13:46.000Z</time>
      </trkpt>
      <trkpt lat="48.86844" lon="6.80938">
        <ele>261.60000610352</ele>
        <time>2023-08-05T10:13:51.000Z</time>
      </trkpt>
      <trkpt lat="48.86853" lon="6.80929">
        <ele>262.60000610352</ele>
        <time>2023-08-05T10:13:56.000Z</time>
      </trkpt>
      <trkpt lat="48.86858" lon="6.80923">
        <ele>263</ele>
        <time>2023-08-05T10:13:59.000Z</time>
      </trkpt>
      <trkpt lat="48.86866" lon="6.80915">
        <ele>263.60000610352</ele>
        <time>2023-08-05T10:14:03.000Z</time>
      </trkpt>
      <trkpt lat="48.86876" lon="6.80908">
        <ele>264.60000610352</ele>
        <time>2023-08-05T10:14:08.000Z</time>
      </trkpt>
      <trkpt lat="48.86878" lon="6.80907">
        <ele>264.79998779297</ele>
        <time>2023-08-05T10:14:09.000Z</time>
      </trkpt>
      <trkpt lat="48.86892" lon="6.80898">
        <ele>265.79998779297</ele>
        <time>2023-08-05T10:14:16.000Z</time>
      </trkpt>
      <trkpt lat="48.86894" lon="6.80897">
        <ele>266.20001220703</ele>
        <time>2023-08-05T10:14:17.000Z</time>
      </trkpt>
      <trkpt lat="48.869" lon="6.80894">
        <ele>267</ele>
        <time>2023-08-05T10:14:20.000Z</time>
      </trkpt>
      <trkpt lat="48.8691" lon="6.8089">
        <ele>268.20001220703</ele>
        <time>2023-08-05T10:14:25.000Z</time>
      </trkpt>
      <trkpt lat="48.86916" lon="6.80888">
        <ele>268.60000610352</ele>
        <time>2023-08-05T10:14:28.000Z</time>
      </trkpt>
      <trkpt lat="48.86928" lon="6.80885">
        <ele>269.39999389648</ele>
        <time>2023-08-05T10:14:34.000Z</time>
      </trkpt>
      <trkpt lat="48.86936" lon="6.80884">
        <ele>270</ele>
        <time>2023-08-05T10:14:38.000Z</time>
      </trkpt>
      <trkpt lat="48.8694" lon="6.80883">
        <ele>270.39999389648</ele>
        <time>2023-08-05T10:14:40.000Z</time>
      </trkpt>
      <trkpt lat="48.86952" lon="6.80883">
        <ele>271.39999389648</ele>
        <time>2023-08-05T10:14:46.000Z</time>
      </trkpt>
      <trkpt lat="48.86958" lon="6.80883">
        <ele>272</ele>
        <time>2023-08-05T10:14:49.000Z</time>
      </trkpt>
      <trkpt lat="48.86966" lon="6.80884">
        <ele>272.39999389648</ele>
        <time>2023-08-05T10:14:53.000Z</time>
      </trkpt>
      <trkpt lat="48.8698" lon="6.80885">
        <ele>273.39999389648</ele>
        <time>2023-08-05T10:15:00.000Z</time>
      </trkpt>
      <trkpt lat="48.86984" lon="6.80886">
        <ele>273.60000610352</ele>
        <time>2023-08-05T10:15:02.000Z</time>
      </trkpt>
      <trkpt lat="48.86995" lon="6.80887">
        <ele>274.39999389648</ele>
        <time>2023-08-05T10:15:07.000Z</time>
      </trkpt>
      <trkpt lat="48.86998" lon="6.80888">
        <ele>274.79998779297</ele>
        <time>2023-08-05T10:15:09.000Z</time>
      </trkpt>
      <trkpt lat="48.87011" lon="6.80889">
        <ele>275.79998779297</ele>
        <time>2023-08-05T10:15:15.000Z</time>
      </trkpt>
      <trkpt lat="48.87019" lon="6.8089">
        <ele>276.60000610352</ele>
        <time>2023-08-05T10:15:19.000Z</time>
      </trkpt>
      <trkpt lat="48.87028" lon="6.80892">
        <ele>277</ele>
        <time>2023-08-05T10:15:23.000Z</time>
      </trkpt>
      <trkpt lat="48.87042" lon="6.80894">
        <ele>278.20001220703</ele>
        <time>2023-08-05T10:15:30.000Z</time>
      </trkpt>
      <trkpt lat="48.87046" lon="6.80895">
        <ele>278.60000610352</ele>
        <time>2023-08-05T10:15:32.000Z</time>
      </trkpt>
      <trkpt lat="48.87057" lon="6.80896">
        <ele>279.20001220703</ele>
        <time>2023-08-05T10:15:37.000Z</time>
      </trkpt>
      <trkpt lat="48.87064" lon="6.80896">
        <ele>279.79998779297</ele>
        <time>2023-08-05T10:15:40.000Z</time>
      </trkpt>
      <trkpt lat="48.87072" lon="6.80897">
        <ele>280.39999389648</ele>
        <time>2023-08-05T10:15:44.000Z</time>
      </trkpt>
      <trkpt lat="48.8708" lon="6.80899">
        <ele>281</ele>
        <time>2023-08-05T10:15:48.000Z</time>
      </trkpt>
      <trkpt lat="48.87088" lon="6.809">
        <ele>281.60000610352</ele>
        <time>2023-08-05T10:15:52.000Z</time>
      </trkpt>
      <trkpt lat="48.87102" lon="6.80901">
        <ele>282.79998779297</ele>
        <time>2023-08-05T10:15:58.000Z</time>
      </trkpt>
      <trkpt lat="48.87104" lon="6.80901">
        <ele>283</ele>
        <time>2023-08-05T10:15:59.000Z</time>
      </trkpt>
      <trkpt lat="48.87128" lon="6.80901">
        <ele>283.79998779297</ele>
        <time>2023-08-05T10:16:09.000Z</time>
      </trkpt>
      <trkpt lat="48.8713" lon="6.809">
        <ele>284</ele>
        <time>2023-08-05T10:16:10.000Z</time>
      </trkpt>
      <trkpt lat="48.87148" lon="6.80896">
        <ele>285</ele>
        <time>2023-08-05T10:16:17.000Z</time>
      </trkpt>
      <trkpt lat="48.87153" lon="6.80895">
        <ele>285.20001220703</ele>
        <time>2023-08-05T10:16:19.000Z</time>
      </trkpt>
      <trkpt lat="48.87174" lon="6.8089">
        <ele>285.79998779297</ele>
        <time>2023-08-05T10:16:28.000Z</time>
      </trkpt>
      <trkpt lat="48.87179" lon="6.8089">
        <ele>285.79998779297</ele>
        <time>2023-08-05T10:16:34.000Z</time>
      </trkpt>
      <trkpt lat="48.87181" lon="6.80888">
        <ele>286.39999389648</ele>
        <time>2023-08-05T10:18:53.000Z</time>
      </trkpt>
      <trkpt lat="48.87188" lon="6.80885">
        <ele>286.39999389648</ele>
        <time>2023-08-05T10:18:56.000Z</time>
      </trkpt>
      <trkpt lat="48.87202" lon="6.80881">
        <ele>286.39999389648</ele>
        <time>2023-08-05T10:19:01.000Z</time>
      </trkpt>
      <trkpt lat="48.87222" lon="6.80874">
        <ele>286.20001220703</ele>
        <time>2023-08-05T10:19:08.000Z</time>
      </trkpt>
      <trkpt lat="48.87244" lon="6.80868">
        <ele>286.39999389648</ele>
        <time>2023-08-05T10:19:15.000Z</time>
      </trkpt>
      <trkpt lat="48.8725" lon="6.80866">
        <ele>286.39999389648</ele>
        <time>2023-08-05T10:19:17.000Z</time>
      </trkpt>
      <trkpt lat="48.87265" lon="6.80862">
        <ele>286.60000610352</ele>
        <time>2023-08-05T10:19:22.000Z</time>
      </trkpt>
      <trkpt lat="48.87299" lon="6.80852">
        <ele>286.79998779297</ele>
        <time>2023-08-05T10:19:31.000Z</time>
      </trkpt>
      <trkpt lat="48.87335" lon="6.80842">
        <ele>286.60000610352</ele>
        <time>2023-08-05T10:19:39.000Z</time>
      </trkpt>
      <trkpt lat="48.87374" lon="6.80829">
        <ele>286.39999389648</ele>
        <time>2023-08-05T10:19:47.000Z</time>
      </trkpt>
      <trkpt lat="48.8743" lon="6.80815">
        <ele>285.79998779297</ele>
        <time>2023-08-05T10:19:58.000Z</time>
      </trkpt>
      <trkpt lat="48.87455" lon="6.80809">
        <ele>285.60000610352</ele>
        <time>2023-08-05T10:20:03.000Z</time>
      </trkpt>
      <trkpt lat="48.87466" lon="6.80806">
        <ele>285.60000610352</ele>
        <time>2023-08-05T10:20:05.000Z</time>
      </trkpt>
      <trkpt lat="48.87481" lon="6.80802">
        <ele>285.39999389648</ele>
        <time>2023-08-05T10:20:08.000Z</time>
      </trkpt>
      <trkpt lat="48.87513" lon="6.80782">
        <ele>285.20001220703</ele>
        <time>2023-08-05T10:20:15.000Z</time>
      </trkpt>
      <trkpt lat="48.87538" lon="6.80752">
        <ele>285.20001220703</ele>
        <time>2023-08-05T10:20:22.000Z</time>
      </trkpt>
      <trkpt lat="48.87544" lon="6.80741">
        <ele>285.20001220703</ele>
        <time>2023-08-05T10:20:24.000Z</time>
      </trkpt>
      <trkpt lat="48.87556" lon="6.80711">
        <ele>285.20001220703</ele>
        <time>2023-08-05T10:20:29.000Z</time>
      </trkpt>
      <trkpt lat="48.8756" lon="6.80697">
        <ele>285</ele>
        <time>2023-08-05T10:20:31.000Z</time>
      </trkpt>
      <trkpt lat="48.87565" lon="6.80668">
        <ele>285</ele>
        <time>2023-08-05T10:20:35.000Z</time>
      </trkpt>
      <trkpt lat="48.87567" lon="6.80645">
        <ele>284.79998779297</ele>
        <time>2023-08-05T10:20:38.000Z</time>
      </trkpt>
      <trkpt lat="48.87569" lon="6.80606">
        <ele>284</ele>
        <time>2023-08-05T10:20:43.000Z</time>
      </trkpt>
      <trkpt lat="48.87571" lon="6.80585">
        <ele>283.79998779297</ele>
        <time>2023-08-05T10:20:46.000Z</time>
      </trkpt>
      <trkpt lat="48.87576" lon="6.80535">
        <ele>283</ele>
        <time>2023-08-05T10:20:52.000Z</time>
      </trkpt>
      <trkpt lat="48.87579" lon="6.80518">
        <ele>282.60000610352</ele>
        <time>2023-08-05T10:20:54.000Z</time>
      </trkpt>
      <trkpt lat="48.87589" lon="6.80487">
        <ele>282.39999389648</ele>
        <time>2023-08-05T10:20:58.000Z</time>
      </trkpt>
      <trkpt lat="48.87612" lon="6.80446">
        <ele>282.20001220703</ele>
        <time>2023-08-05T10:21:05.000Z</time>
      </trkpt>
      <trkpt lat="48.87643" lon="6.80394">
        <ele>282.39999389648</ele>
        <time>2023-08-05T10:21:14.000Z</time>
      </trkpt>
      <trkpt lat="48.87676" lon="6.80339">
        <ele>282</ele>
        <time>2023-08-05T10:21:23.000Z</time>
      </trkpt>
      <trkpt lat="48.87687" lon="6.80322">
        <ele>281.60000610352</ele>
        <time>2023-08-05T10:21:26.000Z</time>
      </trkpt>
      <trkpt lat="48.87705" lon="6.80291">
        <ele>281</ele>
        <time>2023-08-05T10:21:31.000Z</time>
      </trkpt>
      <trkpt lat="48.87716" lon="6.80273">
        <ele>280.60000610352</ele>
        <time>2023-08-05T10:21:34.000Z</time>
      </trkpt>
      <trkpt lat="48.87748" lon="6.80221">
        <ele>279.79998779297</ele>
        <time>2023-08-05T10:21:42.000Z</time>
      </trkpt>
      <trkpt lat="48.8776" lon="6.80204">
        <ele>279.60000610352</ele>
        <time>2023-08-05T10:21:45.000Z</time>
      </trkpt>
      <trkpt lat="48.87773" lon="6.80186">
        <ele>279.79998779297</ele>
        <time>2023-08-05T10:21:49.000Z</time>
      </trkpt>
      <trkpt lat="48.87791" lon="6.80159">
        <ele>280.79998779297</ele>
        <time>2023-08-05T10:21:56.000Z</time>
      </trkpt>
      <trkpt lat="48.87793" lon="6.80155">
        <ele>280.79998779297</ele>
        <time>2023-08-05T10:21:57.000Z</time>
      </trkpt>
      <trkpt lat="48.8781" lon="6.80132">
        <ele>281.79998779297</ele>
        <time>2023-08-05T10:22:04.000Z</time>
      </trkpt>
      <trkpt lat="48.87819" lon="6.80119">
        <ele>282.39999389648</ele>
        <time>2023-08-05T10:22:08.000Z</time>
      </trkpt>
      <trkpt lat="48.87824" lon="6.80112">
        <ele>283</ele>
        <time>2023-08-05T10:22:10.000Z</time>
      </trkpt>
      <trkpt lat="48.87848" lon="6.80081">
        <ele>284</ele>
        <time>2023-08-05T10:22:19.000Z</time>
      </trkpt>
      <trkpt lat="48.87875" lon="6.80049">
        <ele>284.39999389648</ele>
        <time>2023-08-05T10:22:29.000Z</time>
      </trkpt>
      <trkpt lat="48.87903" lon="6.80017">
        <ele>284.60000610352</ele>
        <time>2023-08-05T10:22:38.000Z</time>
      </trkpt>
      <trkpt lat="48.87934" lon="6.79982">
        <ele>284.20001220703</ele>
        <time>2023-08-05T10:22:46.000Z</time>
      </trkpt>
      <trkpt lat="48.87973" lon="6.79931">
        <ele>283.20001220703</ele>
        <time>2023-08-05T10:22:55.000Z</time>
      </trkpt>
      <trkpt lat="48.87982" lon="6.79919">
        <ele>282.79998779297</ele>
        <time>2023-08-05T10:22:57.000Z</time>
      </trkpt>
      <trkpt lat="48.88013" lon="6.79872">
        <ele>282.20001220703</ele>
        <time>2023-08-05T10:23:04.000Z</time>
      </trkpt>
      <trkpt lat="48.88018" lon="6.79865">
        <ele>282</ele>
        <time>2023-08-05T10:23:05.000Z</time>
      </trkpt>
      <trkpt lat="48.88035" lon="6.79838">
        <ele>281</ele>
        <time>2023-08-05T10:23:09.000Z</time>
      </trkpt>
      <trkpt lat="48.88046" lon="6.79822">
        <ele>280.60000610352</ele>
        <time>2023-08-05T10:23:12.000Z</time>
      </trkpt>
      <trkpt lat="48.8807" lon="6.79785">
        <ele>280.60000610352</ele>
        <time>2023-08-05T10:23:19.000Z</time>
      </trkpt>
      <trkpt lat="48.88102" lon="6.79744">
        <ele>281.20001220703</ele>
        <time>2023-08-05T10:23:28.000Z</time>
      </trkpt>
      <trkpt lat="48.88139" lon="6.79701">
        <ele>282</ele>
        <time>2023-08-05T10:23:38.000Z</time>
      </trkpt>
      <trkpt lat="48.88149" lon="6.79689">
        <ele>282</ele>
        <time>2023-08-05T10:23:41.000Z</time>
      </trkpt>
      <trkpt lat="48.88184" lon="6.79648">
        <ele>282.20001220703</ele>
        <time>2023-08-05T10:23:50.000Z</time>
      </trkpt>
      <trkpt lat="48.88223" lon="6.79598">
        <ele>281.79998779297</ele>
        <time>2023-08-05T10:24:00.000Z</time>
      </trkpt>
      <trkpt lat="48.88244" lon="6.79564">
        <ele>282</ele>
        <time>2023-08-05T10:24:07.000Z</time>
      </trkpt>
      <trkpt lat="48.8827" lon="6.79517">
        <ele>282.60000610352</ele>
        <time>2023-08-05T10:24:17.000Z</time>
      </trkpt>
      <trkpt lat="48.88298" lon="6.79464">
        <ele>283</ele>
        <time>2023-08-05T10:24:28.000Z</time>
      </trkpt>
      <trkpt lat="48.88307" lon="6.79449">
        <ele>283</ele>
        <time>2023-08-05T10:24:31.000Z</time>
      </trkpt>
      <trkpt lat="48.88318" lon="6.79428">
        <ele>283.20001220703</ele>
        <time>2023-08-05T10:24:35.000Z</time>
      </trkpt>
      <trkpt lat="48.88347" lon="6.79373">
        <ele>283</ele>
        <time>2023-08-05T10:24:44.000Z</time>
      </trkpt>
      <trkpt lat="48.88368" lon="6.79334">
        <ele>283</ele>
        <time>2023-08-05T10:24:51.000Z</time>
      </trkpt>
      <trkpt lat="48.88393" lon="6.79288">
        <ele>283.20001220703</ele>
        <time>2023-08-05T10:25:00.000Z</time>
      </trkpt>
      <trkpt lat="48.88414" lon="6.79249">
        <ele>283.79998779297</ele>
        <time>2023-08-05T10:25:08.000Z</time>
      </trkpt>
      <trkpt lat="48.88433" lon="6.79211">
        <ele>284.39999389648</ele>
        <time>2023-08-05T10:25:16.000Z</time>
      </trkpt>
      <trkpt lat="48.88436" lon="6.79205">
        <ele>284.39999389648</ele>
        <time>2023-08-05T10:25:17.000Z</time>
      </trkpt>
      <trkpt lat="48.88456" lon="6.79155">
        <ele>284.79998779297</ele>
        <time>2023-08-05T10:25:26.000Z</time>
      </trkpt>
      <trkpt lat="48.88458" lon="6.79149">
        <ele>284.79998779297</ele>
        <time>2023-08-05T10:25:27.000Z</time>
      </trkpt>
      <trkpt lat="48.88475" lon="6.79089">
        <ele>284.79998779297</ele>
        <time>2023-08-05T10:25:37.000Z</time>
      </trkpt>
      <trkpt lat="48.88491" lon="6.79031">
        <ele>284.60000610352</ele>
        <time>2023-08-05T10:25:46.000Z</time>
      </trkpt>
      <trkpt lat="48.88512" lon="6.78958">
        <ele>284.39999389648</ele>
        <time>2023-08-05T10:25:58.000Z</time>
      </trkpt>
      <trkpt lat="48.8853" lon="6.78894">
        <ele>284.20001220703</ele>
        <time>2023-08-05T10:26:08.000Z</time>
      </trkpt>
      <trkpt lat="48.88546" lon="6.78848">
        <ele>284.20001220703</ele>
        <time>2023-08-05T10:26:15.000Z</time>
      </trkpt>
      <trkpt lat="48.88551" lon="6.78836">
        <ele>284</ele>
        <time>2023-08-05T10:26:17.000Z</time>
      </trkpt>
      <trkpt lat="48.88577" lon="6.78801">
        <ele>284</ele>
        <time>2023-08-05T10:26:24.000Z</time>
      </trkpt>
      <trkpt lat="48.88608" lon="6.78771">
        <ele>284.20001220703</ele>
        <time>2023-08-05T10:26:31.000Z</time>
      </trkpt>
      <trkpt lat="48.88612" lon="6.78767">
        <ele>284.20001220703</ele>
        <time>2023-08-05T10:26:32.000Z</time>
      </trkpt>
      <trkpt lat="48.88635" lon="6.78745">
        <ele>284.20001220703</ele>
        <time>2023-08-05T10:26:38.000Z</time>
      </trkpt>
      <trkpt lat="48.88657" lon="6.78727">
        <ele>285.20001220703</ele>
        <time>2023-08-05T10:26:45.000Z</time>
      </trkpt>
      <trkpt lat="48.88663" lon="6.78722">
        <ele>285.60000610352</ele>
        <time>2023-08-05T10:26:47.000Z</time>
      </trkpt>
      <trkpt lat="48.88696" lon="6.78699">
        <ele>286.39999389648</ele>
        <time>2023-08-05T10:26:57.000Z</time>
      </trkpt>
      <trkpt lat="48.88725" lon="6.78679">
        <ele>286.60000610352</ele>
        <time>2023-08-05T10:27:06.000Z</time>
      </trkpt>
      <trkpt lat="48.88728" lon="6.78677">
        <ele>286.60000610352</ele>
        <time>2023-08-05T10:27:07.000Z</time>
      </trkpt>
      <trkpt lat="48.88753" lon="6.78659">
        <ele>287.39999389648</ele>
        <time>2023-08-05T10:27:15.000Z</time>
      </trkpt>
      <trkpt lat="48.8876" lon="6.78655">
        <ele>287.60000610352</ele>
        <time>2023-08-05T10:27:17.000Z</time>
      </trkpt>
      <trkpt lat="48.88783" lon="6.78637">
        <ele>288.79998779297</ele>
        <time>2023-08-05T10:27:25.000Z</time>
      </trkpt>
      <trkpt lat="48.88789" lon="6.78634">
        <ele>289</ele>
        <time>2023-08-05T10:27:27.000Z</time>
      </trkpt>
      <trkpt lat="48.88809" lon="6.78617">
        <ele>289.79998779297</ele>
        <time>2023-08-05T10:27:34.000Z</time>
      </trkpt>
      <trkpt lat="48.88813" lon="6.78615">
        <ele>289.79998779297</ele>
        <time>2023-08-05T10:27:35.000Z</time>
      </trkpt>
      <trkpt lat="48.88832" lon="6.78599">
        <ele>290.79998779297</ele>
        <time>2023-08-05T10:27:42.000Z</time>
      </trkpt>
      <trkpt lat="48.88837" lon="6.78594">
        <ele>291</ele>
        <time>2023-08-05T10:27:44.000Z</time>
      </trkpt>
      <trkpt lat="48.88857" lon="6.78571">
        <ele>291.79998779297</ele>
        <time>2023-08-05T10:27:52.000Z</time>
      </trkpt>
      <trkpt lat="48.88879" lon="6.7854">
        <ele>293</ele>
        <time>2023-08-05T10:28:02.000Z</time>
      </trkpt>
      <trkpt lat="48.88898" lon="6.78506">
        <ele>294</ele>
        <time>2023-08-05T10:28:12.000Z</time>
      </trkpt>
      <trkpt lat="48.88901" lon="6.78499">
        <ele>294.20001220703</ele>
        <time>2023-08-05T10:28:14.000Z</time>
      </trkpt>
      <trkpt lat="48.88912" lon="6.78472">
        <ele>295.39999389648</ele>
        <time>2023-08-05T10:28:21.000Z</time>
      </trkpt>
      <trkpt lat="48.88913" lon="6.78468">
        <ele>295.39999389648</ele>
        <time>2023-08-05T10:28:22.000Z</time>
      </trkpt>
      <trkpt lat="48.88919" lon="6.7845">
        <ele>296.39999389648</ele>
        <time>2023-08-05T10:28:27.000Z</time>
      </trkpt>
      <trkpt lat="48.88923" lon="6.78438">
        <ele>296.79998779297</ele>
        <time>2023-08-05T10:28:30.000Z</time>
      </trkpt>
      <trkpt lat="48.88926" lon="6.78426">
        <ele>297.60000610352</ele>
        <time>2023-08-05T10:28:33.000Z</time>
      </trkpt>
      <trkpt lat="48.88932" lon="6.78412">
        <ele>298.60000610352</ele>
        <time>2023-08-05T10:28:37.000Z</time>
      </trkpt>
      <trkpt lat="48.88933" lon="6.78408">
        <ele>298.79998779297</ele>
        <time>2023-08-05T10:28:38.000Z</time>
      </trkpt>
      <trkpt lat="48.88938" lon="6.7839">
        <ele>299.60000610352</ele>
        <time>2023-08-05T10:28:43.000Z</time>
      </trkpt>
      <trkpt lat="48.88942" lon="6.78376">
        <ele>300</ele>
        <time>2023-08-05T10:28:47.000Z</time>
      </trkpt>
      <trkpt lat="48.88947" lon="6.78358">
        <ele>300.79998779297</ele>
        <time>2023-08-05T10:28:52.000Z</time>
      </trkpt>
      <trkpt lat="48.88951" lon="6.78341">
        <ele>301.39999389648</ele>
        <time>2023-08-05T10:28:56.000Z</time>
      </trkpt>
      <trkpt lat="48.88954" lon="6.7833">
        <ele>301.79998779297</ele>
        <time>2023-08-05T10:28:59.000Z</time>
      </trkpt>
      <trkpt lat="48.88961" lon="6.78306">
        <ele>302.20001220703</ele>
        <time>2023-08-05T10:29:05.000Z</time>
      </trkpt>
      <trkpt lat="48.8897" lon="6.78269">
        <ele>302.79998779297</ele>
        <time>2023-08-05T10:29:13.000Z</time>
      </trkpt>
      <trkpt lat="48.88971" lon="6.78264">
        <ele>302.79998779297</ele>
        <time>2023-08-05T10:29:14.000Z</time>
      </trkpt>
      <trkpt lat="48.8898" lon="6.78241">
        <ele>303</ele>
        <time>2023-08-05T10:29:18.000Z</time>
      </trkpt>
      <trkpt lat="48.89006" lon="6.78194">
        <ele>302.60000610352</ele>
        <time>2023-08-05T10:29:26.000Z</time>
      </trkpt>
      <trkpt lat="48.89012" lon="6.78183">
        <ele>302.60000610352</ele>
        <time>2023-08-05T10:29:28.000Z</time>
      </trkpt>
      <trkpt lat="48.89019" lon="6.78166">
        <ele>302.39999389648</ele>
        <time>2023-08-05T10:29:31.000Z</time>
      </trkpt>
      <trkpt lat="48.89043" lon="6.78127">
        <ele>302.60000610352</ele>
        <time>2023-08-05T10:29:39.000Z</time>
      </trkpt>
      <trkpt lat="48.89062" lon="6.78108">
        <ele>302.79998779297</ele>
        <time>2023-08-05T10:29:45.000Z</time>
      </trkpt>
      <trkpt lat="48.89069" lon="6.78101">
        <ele>302.79998779297</ele>
        <time>2023-08-05T10:29:47.000Z</time>
      </trkpt>
      <trkpt lat="48.89092" lon="6.78084">
        <ele>302.39999389648</ele>
        <time>2023-08-05T10:29:52.000Z</time>
      </trkpt>
      <trkpt lat="48.89119" lon="6.78065">
        <ele>301.60000610352</ele>
        <time>2023-08-05T10:29:56.000Z</time>
      </trkpt>
      <trkpt lat="48.89128" lon="6.78058">
        <ele>301.39999389648</ele>
        <time>2023-08-05T10:29:57.000Z</time>
      </trkpt>
      <trkpt lat="48.89145" lon="6.78047">
        <ele>300.39999389648</ele>
        <time>2023-08-05T10:29:59.000Z</time>
      </trkpt>
      <trkpt lat="48.89161" lon="6.78036">
        <ele>299.20001220703</ele>
        <time>2023-08-05T10:30:01.000Z</time>
      </trkpt>
      <trkpt lat="48.8918" lon="6.78023">
        <ele>298.39999389648</ele>
        <time>2023-08-05T10:30:03.000Z</time>
      </trkpt>
      <trkpt lat="48.89187" lon="6.78018">
        <ele>298</ele>
        <time>2023-08-05T10:30:04.000Z</time>
      </trkpt>
      <trkpt lat="48.8921" lon="6.78001">
        <ele>296.60000610352</ele>
        <time>2023-08-05T10:30:07.000Z</time>
      </trkpt>
      <trkpt lat="48.89223" lon="6.77993">
        <ele>296.20001220703</ele>
        <time>2023-08-05T10:30:09.000Z</time>
      </trkpt>
      <trkpt lat="48.89253" lon="6.77972">
        <ele>296.60000610352</ele>
        <time>2023-08-05T10:30:14.000Z</time>
      </trkpt>
      <trkpt lat="48.89285" lon="6.7795">
        <ele>297.20001220703</ele>
        <time>2023-08-05T10:30:21.000Z</time>
      </trkpt>
      <trkpt lat="48.89297" lon="6.77941">
        <ele>297.60000610352</ele>
        <time>2023-08-05T10:30:24.000Z</time>
      </trkpt>
      <trkpt lat="48.89317" lon="6.77925">
        <ele>297.79998779297</ele>
        <time>2023-08-05T10:30:29.000Z</time>
      </trkpt>
      <trkpt lat="48.89358" lon="6.77891">
        <ele>297.79998779297</ele>
        <time>2023-08-05T10:30:39.000Z</time>
      </trkpt>
      <trkpt lat="48.89393" lon="6.77861">
        <ele>297.60000610352</ele>
        <time>2023-08-05T10:30:48.000Z</time>
      </trkpt>
      <trkpt lat="48.89428" lon="6.77831">
        <ele>297.39999389648</ele>
        <time>2023-08-05T10:30:57.000Z</time>
      </trkpt>
      <trkpt lat="48.89463" lon="6.77801">
        <ele>297</ele>
        <time>2023-08-05T10:31:06.000Z</time>
      </trkpt>
      <trkpt lat="48.89491" lon="6.77777">
        <ele>296.60000610352</ele>
        <time>2023-08-05T10:31:13.000Z</time>
      </trkpt>
      <trkpt lat="48.89508" lon="6.77765">
        <ele>296.20001220703</ele>
        <time>2023-08-05T10:31:17.000Z</time>
      </trkpt>
      <trkpt lat="48.89545" lon="6.77738">
        <ele>295.60000610352</ele>
        <time>2023-08-05T10:31:24.000Z</time>
      </trkpt>
      <trkpt lat="48.89576" lon="6.77716">
        <ele>294.60000610352</ele>
        <time>2023-08-05T10:31:29.000Z</time>
      </trkpt>
      <trkpt lat="48.89593" lon="6.77704">
        <ele>293.20001220703</ele>
        <time>2023-08-05T10:31:32.000Z</time>
      </trkpt>
      <trkpt lat="48.8961" lon="6.77692">
        <ele>292</ele>
        <time>2023-08-05T10:31:35.000Z</time>
      </trkpt>
      <trkpt lat="48.89627" lon="6.7768">
        <ele>291</ele>
        <time>2023-08-05T10:31:38.000Z</time>
      </trkpt>
      <trkpt lat="48.8964" lon="6.77671">
        <ele>290</ele>
        <time>2023-08-05T10:31:40.000Z</time>
      </trkpt>
      <trkpt lat="48.89647" lon="6.77666">
        <ele>289.60000610352</ele>
        <time>2023-08-05T10:31:41.000Z</time>
      </trkpt>
      <trkpt lat="48.89669" lon="6.7765">
        <ele>288.60000610352</ele>
        <time>2023-08-05T10:31:44.000Z</time>
      </trkpt>
      <trkpt lat="48.89685" lon="6.77639">
        <ele>287.20001220703</ele>
        <time>2023-08-05T10:31:46.000Z</time>
      </trkpt>
      <trkpt lat="48.89694" lon="6.77633">
        <ele>286.79998779297</ele>
        <time>2023-08-05T10:31:47.000Z</time>
      </trkpt>
      <trkpt lat="48.89712" lon="6.7762">
        <ele>285.79998779297</ele>
        <time>2023-08-05T10:31:49.000Z</time>
      </trkpt>
      <trkpt lat="48.89731" lon="6.77607">
        <ele>284.79998779297</ele>
        <time>2023-08-05T10:31:51.000Z</time>
      </trkpt>
      <trkpt lat="48.89751" lon="6.77593">
        <ele>283.79998779297</ele>
        <time>2023-08-05T10:31:53.000Z</time>
      </trkpt>
      <trkpt lat="48.89761" lon="6.77586">
        <ele>282.79998779297</ele>
        <time>2023-08-05T10:31:54.000Z</time>
      </trkpt>
      <trkpt lat="48.89783" lon="6.77571">
        <ele>281.39999389648</ele>
        <time>2023-08-05T10:31:56.000Z</time>
      </trkpt>
      <trkpt lat="48.89804" lon="6.77555">
        <ele>279.79998779297</ele>
        <time>2023-08-05T10:31:58.000Z</time>
      </trkpt>
      <trkpt lat="48.89814" lon="6.77546">
        <ele>279.20001220703</ele>
        <time>2023-08-05T10:31:59.000Z</time>
      </trkpt>
      <trkpt lat="48.89834" lon="6.77528">
        <ele>277.79998779297</ele>
        <time>2023-08-05T10:32:01.000Z</time>
      </trkpt>
      <trkpt lat="48.89853" lon="6.77508">
        <ele>276.60000610352</ele>
        <time>2023-08-05T10:32:03.000Z</time>
      </trkpt>
      <trkpt lat="48.8987" lon="6.77488">
        <ele>275.60000610352</ele>
        <time>2023-08-05T10:32:05.000Z</time>
      </trkpt>
      <trkpt lat="48.89903" lon="6.77449">
        <ele>274.60000610352</ele>
        <time>2023-08-05T10:32:09.000Z</time>
      </trkpt>
      <trkpt lat="48.89924" lon="6.77423">
        <ele>274.20001220703</ele>
        <time>2023-08-05T10:32:12.000Z</time>
      </trkpt>
      <trkpt lat="48.89954" lon="6.77389">
        <ele>274.20001220703</ele>
        <time>2023-08-05T10:32:17.000Z</time>
      </trkpt>
      <trkpt lat="48.89983" lon="6.77353">
        <ele>274.79998779297</ele>
        <time>2023-08-05T10:32:23.000Z</time>
      </trkpt>
      <trkpt lat="48.90021" lon="6.77304">
        <ele>274.60000610352</ele>
        <time>2023-08-05T10:32:31.000Z</time>
      </trkpt>
      <trkpt lat="48.90046" lon="6.77264">
        <ele>273.79998779297</ele>
        <time>2023-08-05T10:32:36.000Z</time>
      </trkpt>
      <trkpt lat="48.90052" lon="6.77254">
        <ele>273.60000610352</ele>
        <time>2023-08-05T10:32:37.000Z</time>
      </trkpt>
      <trkpt lat="48.90073" lon="6.77214">
        <ele>272</ele>
        <time>2023-08-05T10:32:41.000Z</time>
      </trkpt>
      <trkpt lat="48.90078" lon="6.77204">
        <ele>271.60000610352</ele>
        <time>2023-08-05T10:32:42.000Z</time>
      </trkpt>
      <trkpt lat="48.90089" lon="6.77184">
        <ele>270.79998779297</ele>
        <time>2023-08-05T10:32:44.000Z</time>
      </trkpt>
      <trkpt lat="48.901" lon="6.77165">
        <ele>269.60000610352</ele>
        <time>2023-08-05T10:32:46.000Z</time>
      </trkpt>
      <trkpt lat="48.90111" lon="6.77145">
        <ele>268.60000610352</ele>
        <time>2023-08-05T10:32:48.000Z</time>
      </trkpt>
      <trkpt lat="48.90116" lon="6.77135">
        <ele>268.20001220703</ele>
        <time>2023-08-05T10:32:49.000Z</time>
      </trkpt>
      <trkpt lat="48.90127" lon="6.77115">
        <ele>266.60000610352</ele>
        <time>2023-08-05T10:32:51.000Z</time>
      </trkpt>
      <trkpt lat="48.90144" lon="6.77085">
        <ele>265.60000610352</ele>
        <time>2023-08-05T10:32:54.000Z</time>
      </trkpt>
      <trkpt lat="48.90155" lon="6.77064">
        <ele>265</ele>
        <time>2023-08-05T10:32:56.000Z</time>
      </trkpt>
      <trkpt lat="48.90161" lon="6.77055">
        <ele>264.39999389648</ele>
        <time>2023-08-05T10:32:57.000Z</time>
      </trkpt>
      <trkpt lat="48.90182" lon="6.77018">
        <ele>263.39999389648</ele>
        <time>2023-08-05T10:33:01.000Z</time>
      </trkpt>
      <trkpt lat="48.90188" lon="6.77009">
        <ele>262.79998779297</ele>
        <time>2023-08-05T10:33:02.000Z</time>
      </trkpt>
      <trkpt lat="48.90193" lon="6.77">
        <ele>262.39999389648</ele>
        <time>2023-08-05T10:33:03.000Z</time>
      </trkpt>
      <trkpt lat="48.90198" lon="6.76989">
        <ele>262</ele>
        <time>2023-08-05T10:33:04.000Z</time>
      </trkpt>
      <trkpt lat="48.90204" lon="6.76973">
        <ele>261.79998779297</ele>
        <time>2023-08-05T10:33:06.000Z</time>
      </trkpt>
      <trkpt lat="48.90225" lon="6.7691">
        <ele>261.39999389648</ele>
        <time>2023-08-05T10:33:13.000Z</time>
      </trkpt>
      <trkpt lat="48.90238" lon="6.76874">
        <ele>261.39999389648</ele>
        <time>2023-08-05T10:33:18.000Z</time>
      </trkpt>
      <trkpt lat="48.90253" lon="6.76832">
        <ele>262</ele>
        <time>2023-08-05T10:33:25.000Z</time>
      </trkpt>
      <trkpt lat="48.90267" lon="6.76789">
        <ele>262.79998779297</ele>
        <time>2023-08-05T10:33:33.000Z</time>
      </trkpt>
      <trkpt lat="48.90278" lon="6.7676">
        <ele>263.20001220703</ele>
        <time>2023-08-05T10:33:39.000Z</time>
      </trkpt>
      <trkpt lat="48.90287" lon="6.76734">
        <ele>263.39999389648</ele>
        <time>2023-08-05T10:33:44.000Z</time>
      </trkpt>
      <trkpt lat="48.90306" lon="6.76681">
        <ele>263.79998779297</ele>
        <time>2023-08-05T10:33:54.000Z</time>
      </trkpt>
      <trkpt lat="48.90317" lon="6.76644">
        <ele>264</ele>
        <time>2023-08-05T10:34:01.000Z</time>
      </trkpt>
      <trkpt lat="48.90331" lon="6.7659">
        <ele>264.20001220703</ele>
        <time>2023-08-05T10:34:10.000Z</time>
      </trkpt>
      <trkpt lat="48.90337" lon="6.76532">
        <ele>263.79998779297</ele>
        <time>2023-08-05T10:34:18.000Z</time>
      </trkpt>
      <trkpt lat="48.90337" lon="6.76482">
        <ele>262.60000610352</ele>
        <time>2023-08-05T10:34:24.000Z</time>
      </trkpt>
      <trkpt lat="48.90336" lon="6.76456">
        <ele>262</ele>
        <time>2023-08-05T10:34:27.000Z</time>
      </trkpt>
      <trkpt lat="48.9033" lon="6.76419">
        <ele>261.60000610352</ele>
        <time>2023-08-05T10:34:31.000Z</time>
      </trkpt>
      <trkpt lat="48.90324" lon="6.7639">
        <ele>260.79998779297</ele>
        <time>2023-08-05T10:34:34.000Z</time>
      </trkpt>
      <trkpt lat="48.9032" lon="6.76369">
        <ele>260.60000610352</ele>
        <time>2023-08-05T10:34:36.000Z</time>
      </trkpt>
      <trkpt lat="48.90316" lon="6.76338">
        <ele>260</ele>
        <time>2023-08-05T10:34:39.000Z</time>
      </trkpt>
      <trkpt lat="48.90315" lon="6.76327">
        <ele>259.79998779297</ele>
        <time>2023-08-05T10:34:40.000Z</time>
      </trkpt>
      <trkpt lat="48.90315" lon="6.76316">
        <ele>259.60000610352</ele>
        <time>2023-08-05T10:34:41.000Z</time>
      </trkpt>
      <trkpt lat="48.90317" lon="6.76287">
        <ele>258.79998779297</ele>
        <time>2023-08-05T10:34:44.000Z</time>
      </trkpt>
      <trkpt lat="48.9032" lon="6.76269">
        <ele>258.79998779297</ele>
        <time>2023-08-05T10:34:46.000Z</time>
      </trkpt>
      <trkpt lat="48.90326" lon="6.76243">
        <ele>258.79998779297</ele>
        <time>2023-08-05T10:34:49.000Z</time>
      </trkpt>
      <trkpt lat="48.90332" lon="6.76222">
        <ele>258.79998779297</ele>
        <time>2023-08-05T10:34:52.000Z</time>
      </trkpt>
      <trkpt lat="48.90346" lon="6.7618">
        <ele>259.79998779297</ele>
        <time>2023-08-05T10:34:59.000Z</time>
      </trkpt>
      <trkpt lat="48.90353" lon="6.76163">
        <ele>260.20001220703</ele>
        <time>2023-08-05T10:35:02.000Z</time>
      </trkpt>
      <trkpt lat="48.90367" lon="6.76128">
        <ele>260.60000610352</ele>
        <time>2023-08-05T10:35:08.000Z</time>
      </trkpt>
      <trkpt lat="48.9039" lon="6.7609">
        <ele>260.39999389648</ele>
        <time>2023-08-05T10:35:15.000Z</time>
      </trkpt>
      <trkpt lat="48.90413" lon="6.76058">
        <ele>259.79998779297</ele>
        <time>2023-08-05T10:35:21.000Z</time>
      </trkpt>
      <trkpt lat="48.9042" lon="6.76047">
        <ele>259.79998779297</ele>
        <time>2023-08-05T10:35:23.000Z</time>
      </trkpt>
      <trkpt lat="48.90437" lon="6.76009">
        <ele>259.79998779297</ele>
        <time>2023-08-05T10:35:29.000Z</time>
      </trkpt>
      <trkpt lat="48.9044" lon="6.76003">
        <ele>259.79998779297</ele>
        <time>2023-08-05T10:35:30.000Z</time>
      </trkpt>
      <trkpt lat="48.90449" lon="6.75992">
        <ele>259.79998779297</ele>
        <time>2023-08-05T10:35:32.000Z</time>
      </trkpt>
      <trkpt lat="48.90464" lon="6.75979">
        <ele>259.79998779297</ele>
        <time>2023-08-05T10:35:36.000Z</time>
      </trkpt>
      <trkpt lat="48.90478" lon="6.75969">
        <ele>260.39999389648</ele>
        <time>2023-08-05T10:35:41.000Z</time>
      </trkpt>
      <trkpt lat="48.90486" lon="6.75959">
        <ele>261</ele>
        <time>2023-08-05T10:35:46.000Z</time>
      </trkpt>
      <trkpt lat="48.90485" lon="6.75951">
        <ele>261.20001220703</ele>
        <time>2023-08-05T10:35:48.000Z</time>
      </trkpt>
      <trkpt lat="48.90482" lon="6.75934">
        <ele>261.60000610352</ele>
        <time>2023-08-05T10:35:52.000Z</time>
      </trkpt>
      <trkpt lat="48.90471" lon="6.75897">
        <ele>261.79998779297</ele>
        <time>2023-08-05T10:35:59.000Z</time>
      </trkpt>
      <trkpt lat="48.90456" lon="6.75852">
        <ele>262</ele>
        <time>2023-08-05T10:36:07.000Z</time>
      </trkpt>
      <trkpt lat="48.90449" lon="6.75828">
        <ele>262.39999389648</ele>
        <time>2023-08-05T10:36:11.000Z</time>
      </trkpt>
      <trkpt lat="48.90439" lon="6.75797">
        <ele>262.39999389648</ele>
        <time>2023-08-05T10:36:16.000Z</time>
      </trkpt>
      <trkpt lat="48.9042" lon="6.75737">
        <ele>262.79998779297</ele>
        <time>2023-08-05T10:36:26.000Z</time>
      </trkpt>
      <trkpt lat="48.90408" lon="6.75702">
        <ele>263.39999389648</ele>
        <time>2023-08-05T10:36:32.000Z</time>
      </trkpt>
      <trkpt lat="48.90403" lon="6.75684">
        <ele>263.60000610352</ele>
        <time>2023-08-05T10:36:35.000Z</time>
      </trkpt>
      <trkpt lat="48.90403" lon="6.75677">
        <ele>263.60000610352</ele>
        <time>2023-08-05T10:36:36.000Z</time>
      </trkpt>
      <trkpt lat="48.90404" lon="6.75639">
        <ele>264</ele>
        <time>2023-08-05T10:36:42.000Z</time>
      </trkpt>
      <trkpt lat="48.90404" lon="6.75633">
        <ele>264</ele>
        <time>2023-08-05T10:36:43.000Z</time>
      </trkpt>
      <trkpt lat="48.90404" lon="6.75626">
        <ele>264.39999389648</ele>
        <time>2023-08-05T10:36:44.000Z</time>
      </trkpt>
      <trkpt lat="48.90402" lon="6.75616">
        <ele>264.60000610352</ele>
        <time>2023-08-05T10:36:46.000Z</time>
      </trkpt>
      <trkpt lat="48.904" lon="6.75607">
        <ele>265</ele>
        <time>2023-08-05T10:36:48.000Z</time>
      </trkpt>
      <trkpt lat="48.90396" lon="6.75593">
        <ele>265.60000610352</ele>
        <time>2023-08-05T10:36:51.000Z</time>
      </trkpt>
      <trkpt lat="48.90388" lon="6.7557">
        <ele>266.60000610352</ele>
        <time>2023-08-05T10:36:56.000Z</time>
      </trkpt>
      <trkpt lat="48.90387" lon="6.75565">
        <ele>266.60000610352</ele>
        <time>2023-08-05T10:36:57.000Z</time>
      </trkpt>
      <trkpt lat="48.9038" lon="6.75537">
        <ele>267.39999389648</ele>
        <time>2023-08-05T10:37:03.000Z</time>
      </trkpt>
      <trkpt lat="48.90378" lon="6.75524">
        <ele>267.60000610352</ele>
        <time>2023-08-05T10:37:06.000Z</time>
      </trkpt>
      <trkpt lat="48.90377" lon="6.75506">
        <ele>268.20001220703</ele>
        <time>2023-08-05T10:37:10.000Z</time>
      </trkpt>
      <trkpt lat="48.90377" lon="6.75496">
        <ele>268.60000610352</ele>
        <time>2023-08-05T10:37:12.000Z</time>
      </trkpt>
      <trkpt lat="48.9038" lon="6.75464">
        <ele>269.39999389648</ele>
        <time>2023-08-05T10:37:19.000Z</time>
      </trkpt>
      <trkpt lat="48.90383" lon="6.75419">
        <ele>269.39999389648</ele>
        <time>2023-08-05T10:37:27.000Z</time>
      </trkpt>
      <trkpt lat="48.90387" lon="6.75371">
        <ele>269</ele>
        <time>2023-08-05T10:37:35.000Z</time>
      </trkpt>
      <trkpt lat="48.90391" lon="6.75343">
        <ele>269</ele>
        <time>2023-08-05T10:37:39.000Z</time>
      </trkpt>
      <trkpt lat="48.90393" lon="6.75335">
        <ele>268.60000610352</ele>
        <time>2023-08-05T10:37:40.000Z</time>
      </trkpt>
      <trkpt lat="48.90401" lon="6.75288">
        <ele>267.60000610352</ele>
        <time>2023-08-05T10:37:45.000Z</time>
      </trkpt>
      <trkpt lat="48.90403" lon="6.7528">
        <ele>267.39999389648</ele>
        <time>2023-08-05T10:37:46.000Z</time>
      </trkpt>
      <trkpt lat="48.90415" lon="6.75224">
        <ele>266.39999389648</ele>
        <time>2023-08-05T10:37:52.000Z</time>
      </trkpt>
      <trkpt lat="48.90417" lon="6.75214">
        <ele>266.39999389648</ele>
        <time>2023-08-05T10:37:53.000Z</time>
      </trkpt>
      <trkpt lat="48.90433" lon="6.7516">
        <ele>265.20001220703</ele>
        <time>2023-08-05T10:37:59.000Z</time>
      </trkpt>
      <trkpt lat="48.90443" lon="6.75134">
        <ele>264.60000610352</ele>
        <time>2023-08-05T10:38:02.000Z</time>
      </trkpt>
      <trkpt lat="48.90448" lon="6.75123">
        <ele>264.20001220703</ele>
        <time>2023-08-05T10:38:03.000Z</time>
      </trkpt>
      <trkpt lat="48.9047" lon="6.75075">
        <ele>263.39999389648</ele>
        <time>2023-08-05T10:38:09.000Z</time>
      </trkpt>
      <trkpt lat="48.90477" lon="6.75062">
        <ele>263.20001220703</ele>
        <time>2023-08-05T10:38:11.000Z</time>
      </trkpt>
      <trkpt lat="48.90493" lon="6.75023">
        <ele>262.79998779297</ele>
        <time>2023-08-05T10:38:16.000Z</time>
      </trkpt>
      <trkpt lat="48.90503" lon="6.74986">
        <ele>262.60000610352</ele>
        <time>2023-08-05T10:38:21.000Z</time>
      </trkpt>
      <trkpt lat="48.90511" lon="6.74926">
        <ele>262.79998779297</ele>
        <time>2023-08-05T10:38:29.000Z</time>
      </trkpt>
      <trkpt lat="48.90509" lon="6.74867">
        <ele>262.79998779297</ele>
        <time>2023-08-05T10:38:37.000Z</time>
      </trkpt>
      <trkpt lat="48.90508" lon="6.74861">
        <ele>262.79998779297</ele>
        <time>2023-08-05T10:38:38.000Z</time>
      </trkpt>
      <trkpt lat="48.90502" lon="6.74821">
        <ele>262.60000610352</ele>
        <time>2023-08-05T10:38:43.000Z</time>
      </trkpt>
      <trkpt lat="48.90498" lon="6.74804">
        <ele>262.39999389648</ele>
        <time>2023-08-05T10:38:45.000Z</time>
      </trkpt>
      <trkpt lat="48.90493" lon="6.74766">
        <ele>262.20001220703</ele>
        <time>2023-08-05T10:38:50.000Z</time>
      </trkpt>
      <trkpt lat="48.90486" lon="6.74705">
        <ele>261.60000610352</ele>
        <time>2023-08-05T10:38:58.000Z</time>
      </trkpt>
      <trkpt lat="48.90491" lon="6.74638">
        <ele>261.39999389648</ele>
        <time>2023-08-05T10:39:06.000Z</time>
      </trkpt>
      <trkpt lat="48.905" lon="6.74594">
        <ele>261.20001220703</ele>
        <time>2023-08-05T10:39:12.000Z</time>
      </trkpt>
      <trkpt lat="48.90504" lon="6.74583">
        <ele>261.20001220703</ele>
        <time>2023-08-05T10:39:14.000Z</time>
      </trkpt>
      <trkpt lat="48.90513" lon="6.7456">
        <ele>261.39999389648</ele>
        <time>2023-08-05T10:39:18.000Z</time>
      </trkpt>
      <trkpt lat="48.90532" lon="6.74518">
        <ele>262.60000610352</ele>
        <time>2023-08-05T10:39:26.000Z</time>
      </trkpt>
      <trkpt lat="48.90547" lon="6.74496">
        <ele>263.20001220703</ele>
        <time>2023-08-05T10:39:32.000Z</time>
      </trkpt>
      <trkpt lat="48.90549" lon="6.74493">
        <ele>263.20001220703</ele>
        <time>2023-08-05T10:39:33.000Z</time>
      </trkpt>
      <trkpt lat="48.90562" lon="6.74477">
        <ele>264.20001220703</ele>
        <time>2023-08-05T10:39:38.000Z</time>
      </trkpt>
      <trkpt lat="48.90572" lon="6.74465">
        <ele>265</ele>
        <time>2023-08-05T10:39:42.000Z</time>
      </trkpt>
      <trkpt lat="48.90577" lon="6.74459">
        <ele>265.20001220703</ele>
        <time>2023-08-05T10:39:44.000Z</time>
      </trkpt>
      <trkpt lat="48.90593" lon="6.74445">
        <ele>265.79998779297</ele>
        <time>2023-08-05T10:39:49.000Z</time>
      </trkpt>
      <trkpt lat="48.906" lon="6.74438">
        <ele>266</ele>
        <time>2023-08-05T10:39:51.000Z</time>
      </trkpt>
      <trkpt lat="48.90623" lon="6.74418">
        <ele>266.20001220703</ele>
        <time>2023-08-05T10:39:58.000Z</time>
      </trkpt>
      <trkpt lat="48.9063" lon="6.74412">
        <ele>266.20001220703</ele>
        <time>2023-08-05T10:40:00.000Z</time>
      </trkpt>
      <trkpt lat="48.90666" lon="6.7438">
        <ele>266.60000610352</ele>
        <time>2023-08-05T10:40:10.000Z</time>
      </trkpt>
      <trkpt lat="48.9069" lon="6.74358">
        <ele>266.39999389648</ele>
        <time>2023-08-05T10:40:16.000Z</time>
      </trkpt>
      <trkpt lat="48.90695" lon="6.74354">
        <ele>266.39999389648</ele>
        <time>2023-08-05T10:40:17.000Z</time>
      </trkpt>
      <trkpt lat="48.90719" lon="6.74335">
        <ele>266</ele>
        <time>2023-08-05T10:40:22.000Z</time>
      </trkpt>
      <trkpt lat="48.90724" lon="6.74332">
        <ele>265.79998779297</ele>
        <time>2023-08-05T10:40:23.000Z</time>
      </trkpt>
      <trkpt lat="48.90729" lon="6.74328">
        <ele>265.39999389648</ele>
        <time>2023-08-05T10:40:24.000Z</time>
      </trkpt>
      <trkpt lat="48.90747" lon="6.74314">
        <ele>265</ele>
        <time>2023-08-05T10:40:27.000Z</time>
      </trkpt>
      <trkpt lat="48.90767" lon="6.74302">
        <ele>264.39999389648</ele>
        <time>2023-08-05T10:40:30.000Z</time>
      </trkpt>
      <trkpt lat="48.90774" lon="6.74299">
        <ele>264</ele>
        <time>2023-08-05T10:40:31.000Z</time>
      </trkpt>
      <trkpt lat="48.90781" lon="6.74295">
        <ele>264</ele>
        <time>2023-08-05T10:40:32.000Z</time>
      </trkpt>
      <trkpt lat="48.90802" lon="6.74287">
        <ele>263</ele>
        <time>2023-08-05T10:40:35.000Z</time>
      </trkpt>
      <trkpt lat="48.90818" lon="6.74285">
        <ele>262.60000610352</ele>
        <time>2023-08-05T10:40:37.000Z</time>
      </trkpt>
      <trkpt lat="48.90834" lon="6.74286">
        <ele>261.79998779297</ele>
        <time>2023-08-05T10:40:39.000Z</time>
      </trkpt>
      <trkpt lat="48.9084" lon="6.74287">
        <ele>261.20001220703</ele>
        <time>2023-08-05T10:40:40.000Z</time>
      </trkpt>
      <trkpt lat="48.90857" lon="6.74291">
        <ele>260.39999389648</ele>
        <time>2023-08-05T10:40:42.000Z</time>
      </trkpt>
      <trkpt lat="48.90898" lon="6.74299">
        <ele>259.20001220703</ele>
        <time>2023-08-05T10:40:47.000Z</time>
      </trkpt>
      <trkpt lat="48.90941" lon="6.74304">
        <ele>258</ele>
        <time>2023-08-05T10:40:52.000Z</time>
      </trkpt>
      <trkpt lat="48.90965" lon="6.74307">
        <ele>257.20001220703</ele>
        <time>2023-08-05T10:40:55.000Z</time>
      </trkpt>
      <trkpt lat="48.90975" lon="6.74309">
        <ele>256.79998779297</ele>
        <time>2023-08-05T10:40:56.000Z</time>
      </trkpt>
      <trkpt lat="48.91023" lon="6.7431">
        <ele>256</ele>
        <time>2023-08-05T10:41:02.000Z</time>
      </trkpt>
      <trkpt lat="48.9103" lon="6.7431">
        <ele>255.80000305176</ele>
        <time>2023-08-05T10:41:03.000Z</time>
      </trkpt>
      <trkpt lat="48.91062" lon="6.74303">
        <ele>255</ele>
        <time>2023-08-05T10:41:07.000Z</time>
      </trkpt>
      <trkpt lat="48.9107" lon="6.743">
        <ele>254.60000610352</ele>
        <time>2023-08-05T10:41:08.000Z</time>
      </trkpt>
      <trkpt lat="48.91097" lon="6.74287">
        <ele>253</ele>
        <time>2023-08-05T10:41:11.000Z</time>
      </trkpt>
      <trkpt lat="48.91112" lon="6.74279">
        <ele>252</ele>
        <time>2023-08-05T10:41:13.000Z</time>
      </trkpt>
      <trkpt lat="48.9112" lon="6.74274">
        <ele>251.80000305176</ele>
        <time>2023-08-05T10:41:14.000Z</time>
      </trkpt>
      <trkpt lat="48.91147" lon="6.74259">
        <ele>250.80000305176</ele>
        <time>2023-08-05T10:41:17.000Z</time>
      </trkpt>
      <trkpt lat="48.91173" lon="6.74244">
        <ele>250</ele>
        <time>2023-08-05T10:41:20.000Z</time>
      </trkpt>
      <trkpt lat="48.91189" lon="6.74235">
        <ele>249</ele>
        <time>2023-08-05T10:41:22.000Z</time>
      </trkpt>
      <trkpt lat="48.91215" lon="6.74217">
        <ele>247.60000610352</ele>
        <time>2023-08-05T10:41:25.000Z</time>
      </trkpt>
      <trkpt lat="48.91228" lon="6.74206">
        <ele>246.80000305176</ele>
        <time>2023-08-05T10:41:27.000Z</time>
      </trkpt>
      <trkpt lat="48.91242" lon="6.74194">
        <ele>246.39999389648</ele>
        <time>2023-08-05T10:41:29.000Z</time>
      </trkpt>
      <trkpt lat="48.91268" lon="6.7417">
        <ele>246</ele>
        <time>2023-08-05T10:41:33.000Z</time>
      </trkpt>
      <trkpt lat="48.913" lon="6.74138">
        <ele>246</ele>
        <time>2023-08-05T10:41:39.000Z</time>
      </trkpt>
      <trkpt lat="48.91333" lon="6.74107">
        <ele>246</ele>
        <time>2023-08-05T10:41:46.000Z</time>
      </trkpt>
      <trkpt lat="48.91349" lon="6.74092">
        <ele>246.19999694824</ele>
        <time>2023-08-05T10:41:50.000Z</time>
      </trkpt>
      <trkpt lat="48.91361" lon="6.7408">
        <ele>246.39999389648</ele>
        <time>2023-08-05T10:41:53.000Z</time>
      </trkpt>
      <trkpt lat="48.91391" lon="6.74051">
        <ele>247</ele>
        <time>2023-08-05T10:42:01.000Z</time>
      </trkpt>
      <trkpt lat="48.91418" lon="6.74025">
        <ele>247.60000610352</ele>
        <time>2023-08-05T10:42:09.000Z</time>
      </trkpt>
      <trkpt lat="48.91422" lon="6.74021">
        <ele>247.80000305176</ele>
        <time>2023-08-05T10:42:10.000Z</time>
      </trkpt>
      <trkpt lat="48.91453" lon="6.7399">
        <ele>248.19999694824</ele>
        <time>2023-08-05T10:42:20.000Z</time>
      </trkpt>
      <trkpt lat="48.91474" lon="6.73971">
        <ele>248.80000305176</ele>
        <time>2023-08-05T10:42:27.000Z</time>
      </trkpt>
      <trkpt lat="48.91482" lon="6.73963">
        <ele>249</ele>
        <time>2023-08-05T10:42:30.000Z</time>
      </trkpt>
      <trkpt lat="48.91502" lon="6.73943">
        <ele>249.80000305176</ele>
        <time>2023-08-05T10:42:37.000Z</time>
      </trkpt>
      <trkpt lat="48.91508" lon="6.73938">
        <ele>250.19999694824</ele>
        <time>2023-08-05T10:42:39.000Z</time>
      </trkpt>
      <trkpt lat="48.91519" lon="6.73928">
        <ele>250.80000305176</ele>
        <time>2023-08-05T10:42:43.000Z</time>
      </trkpt>
      <trkpt lat="48.91531" lon="6.73915">
        <ele>251.60000610352</ele>
        <time>2023-08-05T10:42:48.000Z</time>
      </trkpt>
      <trkpt lat="48.91535" lon="6.73911">
        <ele>251.80000305176</ele>
        <time>2023-08-05T10:42:50.000Z</time>
      </trkpt>
      <trkpt lat="48.91544" lon="6.73903">
        <ele>252.60000610352</ele>
        <time>2023-08-05T10:42:54.000Z</time>
      </trkpt>
      <trkpt lat="48.91549" lon="6.73898">
        <ele>253</ele>
        <time>2023-08-05T10:42:56.000Z</time>
      </trkpt>
      <trkpt lat="48.91567" lon="6.73881">
        <ele>253.80000305176</ele>
        <time>2023-08-05T10:43:04.000Z</time>
      </trkpt>
      <trkpt lat="48.91569" lon="6.73879">
        <ele>254</ele>
        <time>2023-08-05T10:43:05.000Z</time>
      </trkpt>
      <trkpt lat="48.91588" lon="6.73861">
        <ele>255.19999694824</ele>
        <time>2023-08-05T10:43:14.000Z</time>
      </trkpt>
      <trkpt lat="48.91609" lon="6.7384">
        <ele>256.39999389648</ele>
        <time>2023-08-05T10:43:24.000Z</time>
      </trkpt>
      <trkpt lat="48.91611" lon="6.73838">
        <ele>256.39999389648</ele>
        <time>2023-08-05T10:43:25.000Z</time>
      </trkpt>
      <trkpt lat="48.91626" lon="6.73822">
        <ele>257.39999389648</ele>
        <time>2023-08-05T10:43:33.000Z</time>
      </trkpt>
      <trkpt lat="48.91634" lon="6.73815">
        <ele>258</ele>
        <time>2023-08-05T10:43:37.000Z</time>
      </trkpt>
      <trkpt lat="48.9164" lon="6.73809">
        <ele>258.60000610352</ele>
        <time>2023-08-05T10:43:40.000Z</time>
      </trkpt>
      <trkpt lat="48.91651" lon="6.73798">
        <ele>259.60000610352</ele>
        <time>2023-08-05T10:43:46.000Z</time>
      </trkpt>
      <trkpt lat="48.91663" lon="6.73787">
        <ele>260.79998779297</ele>
        <time>2023-08-05T10:43:52.000Z</time>
      </trkpt>
      <trkpt lat="48.91671" lon="6.7378">
        <ele>261.20001220703</ele>
        <time>2023-08-05T10:43:56.000Z</time>
      </trkpt>
      <trkpt lat="48.91683" lon="6.73769">
        <ele>261.79998779297</ele>
        <time>2023-08-05T10:44:02.000Z</time>
      </trkpt>
      <trkpt lat="48.91693" lon="6.73759">
        <ele>262.39999389648</ele>
        <time>2023-08-05T10:44:07.000Z</time>
      </trkpt>
      <trkpt lat="48.91702" lon="6.73752">
        <ele>263</ele>
        <time>2023-08-05T10:44:11.000Z</time>
      </trkpt>
      <trkpt lat="48.91715" lon="6.73741">
        <ele>263.79998779297</ele>
        <time>2023-08-05T10:44:17.000Z</time>
      </trkpt>
      <trkpt lat="48.91726" lon="6.73732">
        <ele>264.20001220703</ele>
        <time>2023-08-05T10:44:22.000Z</time>
      </trkpt>
      <trkpt lat="48.91738" lon="6.73722">
        <ele>265.20001220703</ele>
        <time>2023-08-05T10:44:27.000Z</time>
      </trkpt>
      <trkpt lat="48.91742" lon="6.73718">
        <ele>265.39999389648</ele>
        <time>2023-08-05T10:44:29.000Z</time>
      </trkpt>
      <trkpt lat="48.91756" lon="6.73703">
        <ele>265.39999389648</ele>
        <time>2023-08-05T10:44:34.000Z</time>
      </trkpt>
      <trkpt lat="48.91764" lon="6.73695">
        <ele>265.39999389648</ele>
        <time>2023-08-05T10:44:36.000Z</time>
      </trkpt>
      <trkpt lat="48.91776" lon="6.73677">
        <ele>265.20001220703</ele>
        <time>2023-08-05T10:44:39.000Z</time>
      </trkpt>
      <trkpt lat="48.91796" lon="6.73643">
        <ele>264</ele>
        <time>2023-08-05T10:44:43.000Z</time>
      </trkpt>
      <trkpt lat="48.91801" lon="6.73633">
        <ele>263.20001220703</ele>
        <time>2023-08-05T10:44:44.000Z</time>
      </trkpt>
      <trkpt lat="48.91811" lon="6.73609">
        <ele>262</ele>
        <time>2023-08-05T10:44:46.000Z</time>
      </trkpt>
      <trkpt lat="48.91819" lon="6.73583">
        <ele>260.79998779297</ele>
        <time>2023-08-05T10:44:48.000Z</time>
      </trkpt>
      <trkpt lat="48.91828" lon="6.73541">
        <ele>259.79998779297</ele>
        <time>2023-08-05T10:44:51.000Z</time>
      </trkpt>
      <trkpt lat="48.91838" lon="6.73496">
        <ele>258.60000610352</ele>
        <time>2023-08-05T10:44:54.000Z</time>
      </trkpt>
      <trkpt lat="48.91842" lon="6.73481">
        <ele>258.20001220703</ele>
        <time>2023-08-05T10:44:55.000Z</time>
      </trkpt>
      <trkpt lat="48.91845" lon="6.73466">
        <ele>257.60000610352</ele>
        <time>2023-08-05T10:44:56.000Z</time>
      </trkpt>
      <trkpt lat="48.91854" lon="6.73421">
        <ele>256.20001220703</ele>
        <time>2023-08-05T10:44:59.000Z</time>
      </trkpt>
      <trkpt lat="48.91865" lon="6.73377">
        <ele>255</ele>
        <time>2023-08-05T10:45:02.000Z</time>
      </trkpt>
      <trkpt lat="48.91874" lon="6.73333">
        <ele>253.60000610352</ele>
        <time>2023-08-05T10:45:05.000Z</time>
      </trkpt>
      <trkpt lat="48.91885" lon="6.7329">
        <ele>252.39999389648</ele>
        <time>2023-08-05T10:45:08.000Z</time>
      </trkpt>
      <trkpt lat="48.91892" lon="6.73262">
        <ele>251.19999694824</ele>
        <time>2023-08-05T10:45:10.000Z</time>
      </trkpt>
      <trkpt lat="48.91898" lon="6.73234">
        <ele>250.39999389648</ele>
        <time>2023-08-05T10:45:12.000Z</time>
      </trkpt>
      <trkpt lat="48.91901" lon="6.73222">
        <ele>250.19999694824</ele>
        <time>2023-08-05T10:45:13.000Z</time>
      </trkpt>
      <trkpt lat="48.91909" lon="6.73188">
        <ele>249.80000305176</ele>
        <time>2023-08-05T10:45:16.000Z</time>
      </trkpt>
      <trkpt lat="48.91919" lon="6.73145">
        <ele>250</ele>
        <time>2023-08-05T10:45:21.000Z</time>
      </trkpt>
      <trkpt lat="48.9192" lon="6.73138">
        <ele>250.19999694824</ele>
        <time>2023-08-05T10:45:22.000Z</time>
      </trkpt>
      <trkpt lat="48.91925" lon="6.73117">
        <ele>251.19999694824</ele>
        <time>2023-08-05T10:45:25.000Z</time>
      </trkpt>
      <trkpt lat="48.91927" lon="6.73112">
        <ele>251.80000305176</ele>
        <time>2023-08-05T10:45:26.000Z</time>
      </trkpt>
      <trkpt lat="48.91931" lon="6.73099">
        <ele>252.39999389648</ele>
        <time>2023-08-05T10:45:29.000Z</time>
      </trkpt>
      <trkpt lat="48.91936" lon="6.73086">
        <ele>253</ele>
        <time>2023-08-05T10:45:32.000Z</time>
      </trkpt>
      <trkpt lat="48.91939" lon="6.73077">
        <ele>253.39999389648</ele>
        <time>2023-08-05T10:45:34.000Z</time>
      </trkpt>
      <trkpt lat="48.9195" lon="6.73051">
        <ele>254.19999694824</ele>
        <time>2023-08-05T10:45:40.000Z</time>
      </trkpt>
      <trkpt lat="48.91956" lon="6.73037">
        <ele>254.60000610352</ele>
        <time>2023-08-05T10:45:43.000Z</time>
      </trkpt>
      <trkpt lat="48.91965" lon="6.73019">
        <ele>255.19999694824</ele>
        <time>2023-08-05T10:45:47.000Z</time>
      </trkpt>
      <trkpt lat="48.91981" lon="6.72994">
        <ele>255.39999389648</ele>
        <time>2023-08-05T10:45:53.000Z</time>
      </trkpt>
      <trkpt lat="48.91992" lon="6.72971">
        <ele>255.19999694824</ele>
        <time>2023-08-05T10:46:00.000Z</time>
      </trkpt>
      <trkpt lat="48.91992" lon="6.72971">
        <ele>255.19999694824</ele>
        <time>2023-08-05T10:46:01.000Z</time>
      </trkpt>
      <trkpt lat="48.91998" lon="6.7296">
        <ele>255</ele>
        <time>2023-08-05T10:47:03.000Z</time>
      </trkpt>
      <trkpt lat="48.92002" lon="6.72954">
        <ele>255</ele>
        <time>2023-08-05T10:47:05.000Z</time>
      </trkpt>
      <trkpt lat="48.92022" lon="6.72929">
        <ele>254.60000610352</ele>
        <time>2023-08-05T10:47:12.000Z</time>
      </trkpt>
      <trkpt lat="48.92044" lon="6.72907">
        <ele>253.80000305176</ele>
        <time>2023-08-05T10:47:17.000Z</time>
      </trkpt>
      <trkpt lat="48.92049" lon="6.72903">
        <ele>253.80000305176</ele>
        <time>2023-08-05T10:47:18.000Z</time>
      </trkpt>
      <trkpt lat="48.92069" lon="6.7289">
        <ele>253.19999694824</ele>
        <time>2023-08-05T10:47:21.000Z</time>
      </trkpt>
      <trkpt lat="48.92083" lon="6.72881">
        <ele>252.60000610352</ele>
        <time>2023-08-05T10:47:23.000Z</time>
      </trkpt>
      <trkpt lat="48.92099" lon="6.72874">
        <ele>252</ele>
        <time>2023-08-05T10:47:25.000Z</time>
      </trkpt>
      <trkpt lat="48.92124" lon="6.72864">
        <ele>251</ele>
        <time>2023-08-05T10:47:28.000Z</time>
      </trkpt>
      <trkpt lat="48.92131" lon="6.72862">
        <ele>250.80000305176</ele>
        <time>2023-08-05T10:47:29.000Z</time>
      </trkpt>
      <trkpt lat="48.92151" lon="6.72854">
        <ele>249.60000610352</ele>
        <time>2023-08-05T10:47:31.000Z</time>
      </trkpt>
      <trkpt lat="48.92178" lon="6.7284">
        <ele>248</ele>
        <time>2023-08-05T10:47:34.000Z</time>
      </trkpt>
      <trkpt lat="48.92194" lon="6.72827">
        <ele>246.60000610352</ele>
        <time>2023-08-05T10:47:36.000Z</time>
      </trkpt>
      <trkpt lat="48.92215" lon="6.72806">
        <ele>245.60000610352</ele>
        <time>2023-08-05T10:47:39.000Z</time>
      </trkpt>
      <trkpt lat="48.9223" lon="6.72782">
        <ele>245</ele>
        <time>2023-08-05T10:47:42.000Z</time>
      </trkpt>
      <trkpt lat="48.92235" lon="6.72773">
        <ele>245</ele>
        <time>2023-08-05T10:47:43.000Z</time>
      </trkpt>
      <trkpt lat="48.92238" lon="6.72765">
        <ele>244.80000305176</ele>
        <time>2023-08-05T10:47:44.000Z</time>
      </trkpt>
      <trkpt lat="48.92246" lon="6.72744">
        <ele>244.80000305176</ele>
        <time>2023-08-05T10:47:47.000Z</time>
      </trkpt>
      <trkpt lat="48.92249" lon="6.72728">
        <ele>245.19999694824</ele>
        <time>2023-08-05T10:47:49.000Z</time>
      </trkpt>
      <trkpt lat="48.92249" lon="6.72717">
        <ele>245.60000610352</ele>
        <time>2023-08-05T10:47:51.000Z</time>
      </trkpt>
      <trkpt lat="48.9225" lon="6.72696">
        <ele>247</ele>
        <time>2023-08-05T10:47:56.000Z</time>
      </trkpt>
      <trkpt lat="48.92247" lon="6.72683">
        <ele>247.60000610352</ele>
        <time>2023-08-05T10:48:00.000Z</time>
      </trkpt>
      <trkpt lat="48.92248" lon="6.72679">
        <ele>247.80000305176</ele>
        <time>2023-08-05T10:48:01.000Z</time>
      </trkpt>
      <trkpt lat="48.92247" lon="6.72665">
        <ele>248.80000305176</ele>
        <time>2023-08-05T10:48:05.000Z</time>
      </trkpt>
      <trkpt lat="48.92249" lon="6.7266">
        <ele>249</ele>
        <time>2023-08-05T10:48:06.000Z</time>
      </trkpt>
      <trkpt lat="48.92248" lon="6.7264">
        <ele>250</ele>
        <time>2023-08-05T10:48:11.000Z</time>
      </trkpt>
      <trkpt lat="48.92249" lon="6.72635">
        <ele>250</ele>
        <time>2023-08-05T10:48:12.000Z</time>
      </trkpt>
      <trkpt lat="48.9225" lon="6.72615">
        <ele>250.80000305176</ele>
        <time>2023-08-05T10:48:16.000Z</time>
      </trkpt>
      <trkpt lat="48.9225" lon="6.72604">
        <ele>251</ele>
        <time>2023-08-05T10:48:19.000Z</time>
      </trkpt>
      <trkpt lat="48.92249" lon="6.72574">
        <ele>252.19999694824</ele>
        <time>2023-08-05T10:48:27.000Z</time>
      </trkpt>
      <trkpt lat="48.92249" lon="6.7257">
        <ele>252.19999694824</ele>
        <time>2023-08-05T10:48:28.000Z</time>
      </trkpt>
      <trkpt lat="48.92249" lon="6.72534">
        <ele>253.19999694824</ele>
        <time>2023-08-05T10:48:37.000Z</time>
      </trkpt>
      <trkpt lat="48.92249" lon="6.7253">
        <ele>253.19999694824</ele>
        <time>2023-08-05T10:48:38.000Z</time>
      </trkpt>
      <trkpt lat="48.92249" lon="6.72495">
        <ele>253.60000610352</ele>
        <time>2023-08-05T10:48:46.000Z</time>
      </trkpt>
      <trkpt lat="48.92251" lon="6.72453">
        <ele>253.80000305176</ele>
        <time>2023-08-05T10:48:54.000Z</time>
      </trkpt>
      <trkpt lat="48.92258" lon="6.72402">
        <ele>254.19999694824</ele>
        <time>2023-08-05T10:49:03.000Z</time>
      </trkpt>
      <trkpt lat="48.92276" lon="6.72355">
        <ele>254</ele>
        <time>2023-08-05T10:49:11.000Z</time>
      </trkpt>
      <trkpt lat="48.92296" lon="6.72323">
        <ele>253.39999389648</ele>
        <time>2023-08-05T10:49:16.000Z</time>
      </trkpt>
      <trkpt lat="48.92311" lon="6.723">
        <ele>252.80000305176</ele>
        <time>2023-08-05T10:49:19.000Z</time>
      </trkpt>
      <trkpt lat="48.92328" lon="6.72275">
        <ele>251.60000610352</ele>
        <time>2023-08-05T10:49:22.000Z</time>
      </trkpt>
      <trkpt lat="48.92351" lon="6.72244">
        <ele>250.60000610352</ele>
        <time>2023-08-05T10:49:26.000Z</time>
      </trkpt>
      <trkpt lat="48.92365" lon="6.72229">
        <ele>249.80000305176</ele>
        <time>2023-08-05T10:49:28.000Z</time>
      </trkpt>
      <trkpt lat="48.92372" lon="6.72223">
        <ele>249.39999389648</ele>
        <time>2023-08-05T10:49:29.000Z</time>
      </trkpt>
      <trkpt lat="48.92394" lon="6.72207">
        <ele>248.39999389648</ele>
        <time>2023-08-05T10:49:32.000Z</time>
      </trkpt>
      <trkpt lat="48.92408" lon="6.72197">
        <ele>247.39999389648</ele>
        <time>2023-08-05T10:49:34.000Z</time>
      </trkpt>
      <trkpt lat="48.92415" lon="6.72192">
        <ele>247.39999389648</ele>
        <time>2023-08-05T10:49:35.000Z</time>
      </trkpt>
      <trkpt lat="48.92447" lon="6.72171">
        <ele>246.80000305176</ele>
        <time>2023-08-05T10:49:40.000Z</time>
      </trkpt>
      <trkpt lat="48.9248" lon="6.72149">
        <ele>246.80000305176</ele>
        <time>2023-08-05T10:49:46.000Z</time>
      </trkpt>
      <trkpt lat="48.92513" lon="6.72128">
        <ele>247.19999694824</ele>
        <time>2023-08-05T10:49:53.000Z</time>
      </trkpt>
      <trkpt lat="48.92545" lon="6.72108">
        <ele>247.80000305176</ele>
        <time>2023-08-05T10:50:01.000Z</time>
      </trkpt>
      <trkpt lat="48.92563" lon="6.72096">
        <ele>248.60000610352</ele>
        <time>2023-08-05T10:50:06.000Z</time>
      </trkpt>
      <trkpt lat="48.92574" lon="6.72089">
        <ele>248.80000305176</ele>
        <time>2023-08-05T10:50:09.000Z</time>
      </trkpt>
      <trkpt lat="48.92615" lon="6.72057">
        <ele>249.19999694824</ele>
        <time>2023-08-05T10:50:19.000Z</time>
      </trkpt>
      <trkpt lat="48.9262" lon="6.72053">
        <ele>249.19999694824</ele>
        <time>2023-08-05T10:50:20.000Z</time>
      </trkpt>
      <trkpt lat="48.92638" lon="6.72028">
        <ele>249.19999694824</ele>
        <time>2023-08-05T10:50:25.000Z</time>
      </trkpt>
      <trkpt lat="48.92651" lon="6.72006">
        <ele>249</ele>
        <time>2023-08-05T10:50:29.000Z</time>
      </trkpt>
      <trkpt lat="48.92665" lon="6.71976">
        <ele>249</ele>
        <time>2023-08-05T10:50:34.000Z</time>
      </trkpt>
      <trkpt lat="48.92683" lon="6.71926">
        <ele>249.19999694824</ele>
        <time>2023-08-05T10:50:42.000Z</time>
      </trkpt>
      <trkpt lat="48.92699" lon="6.71869">
        <ele>249.60000610352</ele>
        <time>2023-08-05T10:50:51.000Z</time>
      </trkpt>
      <trkpt lat="48.927" lon="6.71863">
        <ele>249.60000610352</ele>
        <time>2023-08-05T10:50:52.000Z</time>
      </trkpt>
      <trkpt lat="48.92711" lon="6.71805">
        <ele>250.19999694824</ele>
        <time>2023-08-05T10:51:01.000Z</time>
      </trkpt>
      <trkpt lat="48.92719" lon="6.71746">
        <ele>250.60000610352</ele>
        <time>2023-08-05T10:51:10.000Z</time>
      </trkpt>
      <trkpt lat="48.92724" lon="6.71696">
        <ele>251.39999389648</ele>
        <time>2023-08-05T10:51:18.000Z</time>
      </trkpt>
      <trkpt lat="48.92729" lon="6.71651">
        <ele>252</ele>
        <time>2023-08-05T10:51:25.000Z</time>
      </trkpt>
      <trkpt lat="48.92734" lon="6.716">
        <ele>252.39999389648</ele>
        <time>2023-08-05T10:51:33.000Z</time>
      </trkpt>
      <trkpt lat="48.92736" lon="6.71569">
        <ele>253</ele>
        <time>2023-08-05T10:51:38.000Z</time>
      </trkpt>
      <trkpt lat="48.92741" lon="6.71515">
        <ele>253.19999694824</ele>
        <time>2023-08-05T10:51:46.000Z</time>
      </trkpt>
      <trkpt lat="48.92754" lon="6.71455">
        <ele>253.39999389648</ele>
        <time>2023-08-05T10:51:55.000Z</time>
      </trkpt>
      <trkpt lat="48.92773" lon="6.71405">
        <ele>253.60000610352</ele>
        <time>2023-08-05T10:52:03.000Z</time>
      </trkpt>
      <trkpt lat="48.9278" lon="6.71387">
        <ele>254</ele>
        <time>2023-08-05T10:52:06.000Z</time>
      </trkpt>
      <trkpt lat="48.92785" lon="6.71375">
        <ele>254</ele>
        <time>2023-08-05T10:52:08.000Z</time>
      </trkpt>
      <trkpt lat="48.92802" lon="6.71333">
        <ele>254</ele>
        <time>2023-08-05T10:52:15.000Z</time>
      </trkpt>
      <trkpt lat="48.9283" lon="6.71268">
        <ele>254.60000610352</ele>
        <time>2023-08-05T10:52:27.000Z</time>
      </trkpt>
      <trkpt lat="48.92836" lon="6.71252">
        <ele>255.19999694824</ele>
        <time>2023-08-05T10:52:30.000Z</time>
      </trkpt>
      <trkpt lat="48.92853" lon="6.71201">
        <ele>255.80000305176</ele>
        <time>2023-08-05T10:52:39.000Z</time>
      </trkpt>
      <trkpt lat="48.92867" lon="6.71153">
        <ele>256.20001220703</ele>
        <time>2023-08-05T10:52:47.000Z</time>
      </trkpt>
      <trkpt lat="48.92869" lon="6.71147">
        <ele>256.39999389648</ele>
        <time>2023-08-05T10:52:48.000Z</time>
      </trkpt>
      <trkpt lat="48.92882" lon="6.71081">
        <ele>256.79998779297</ele>
        <time>2023-08-05T10:52:59.000Z</time>
      </trkpt>
      <trkpt lat="48.9289" lon="6.71026">
        <ele>257.20001220703</ele>
        <time>2023-08-05T10:53:08.000Z</time>
      </trkpt>
      <trkpt lat="48.92897" lon="6.70966">
        <ele>257</ele>
        <time>2023-08-05T10:53:17.000Z</time>
      </trkpt>
      <trkpt lat="48.929" lon="6.70952">
        <ele>257</ele>
        <time>2023-08-05T10:53:19.000Z</time>
      </trkpt>
      <trkpt lat="48.92906" lon="6.7094">
        <ele>256.79998779297</ele>
        <time>2023-08-05T10:53:21.000Z</time>
      </trkpt>
      <trkpt lat="48.92909" lon="6.70934">
        <ele>256.79998779297</ele>
        <time>2023-08-05T10:53:22.000Z</time>
      </trkpt>
      <trkpt lat="48.92917" lon="6.70923">
        <ele>256.60000610352</ele>
        <time>2023-08-05T10:53:24.000Z</time>
      </trkpt>
      <trkpt lat="48.92931" lon="6.70911">
        <ele>256.39999389648</ele>
        <time>2023-08-05T10:53:27.000Z</time>
      </trkpt>
      <trkpt lat="48.9296" lon="6.70904">
        <ele>256</ele>
        <time>2023-08-05T10:53:33.000Z</time>
      </trkpt>
      <trkpt lat="48.93004" lon="6.70897">
        <ele>255.80000305176</ele>
        <time>2023-08-05T10:53:42.000Z</time>
      </trkpt>
      <trkpt lat="48.93042" lon="6.7089">
        <ele>256</ele>
        <time>2023-08-05T10:53:50.000Z</time>
      </trkpt>
      <trkpt lat="48.93052" lon="6.70889">
        <ele>256.20001220703</ele>
        <time>2023-08-05T10:53:52.000Z</time>
      </trkpt>
      <trkpt lat="48.93084" lon="6.70881">
        <ele>256.60000610352</ele>
        <time>2023-08-05T10:53:59.000Z</time>
      </trkpt>
      <trkpt lat="48.9311" lon="6.70872">
        <ele>257.39999389648</ele>
        <time>2023-08-05T10:54:05.000Z</time>
      </trkpt>
      <trkpt lat="48.93114" lon="6.7087">
        <ele>257.60000610352</ele>
        <time>2023-08-05T10:54:06.000Z</time>
      </trkpt>
      <trkpt lat="48.93133" lon="6.70862">
        <ele>258.20001220703</ele>
        <time>2023-08-05T10:54:12.000Z</time>
      </trkpt>
      <trkpt lat="48.9314" lon="6.7086">
        <ele>258.39999389648</ele>
        <time>2023-08-05T10:54:14.000Z</time>
      </trkpt>
      <trkpt lat="48.93145" lon="6.70856">
        <ele>258.60000610352</ele>
        <time>2023-08-05T10:54:16.000Z</time>
      </trkpt>
      <trkpt lat="48.9317" lon="6.70839">
        <ele>259.20001220703</ele>
        <time>2023-08-05T10:54:24.000Z</time>
      </trkpt>
      <trkpt lat="48.93182" lon="6.70831">
        <ele>259.79998779297</ele>
        <time>2023-08-05T10:54:28.000Z</time>
      </trkpt>
      <trkpt lat="48.93194" lon="6.70822">
        <ele>260.20001220703</ele>
        <time>2023-08-05T10:54:32.000Z</time>
      </trkpt>
      <trkpt lat="48.93211" lon="6.70808">
        <ele>260.79998779297</ele>
        <time>2023-08-05T10:54:38.000Z</time>
      </trkpt>
      <trkpt lat="48.93214" lon="6.70805">
        <ele>260.79998779297</ele>
        <time>2023-08-05T10:54:39.000Z</time>
      </trkpt>
      <trkpt lat="48.93235" lon="6.70786">
        <ele>262</ele>
        <time>2023-08-05T10:54:47.000Z</time>
      </trkpt>
      <trkpt lat="48.93237" lon="6.70784">
        <ele>262.20001220703</ele>
        <time>2023-08-05T10:54:48.000Z</time>
      </trkpt>
      <trkpt lat="48.93251" lon="6.70772">
        <ele>263</ele>
        <time>2023-08-05T10:54:54.000Z</time>
      </trkpt>
      <trkpt lat="48.93254" lon="6.7077">
        <ele>263.20001220703</ele>
        <time>2023-08-05T10:54:55.000Z</time>
      </trkpt>
      <trkpt lat="48.93268" lon="6.70758">
        <ele>264.20001220703</ele>
        <time>2023-08-05T10:55:01.000Z</time>
      </trkpt>
      <trkpt lat="48.9327" lon="6.70755">
        <ele>264.39999389648</ele>
        <time>2023-08-05T10:55:02.000Z</time>
      </trkpt>
      <trkpt lat="48.93277" lon="6.70743">
        <ele>265.39999389648</ele>
        <time>2023-08-05T10:55:06.000Z</time>
      </trkpt>
      <trkpt lat="48.93279" lon="6.70735">
        <ele>265.60000610352</ele>
        <time>2023-08-05T10:55:08.000Z</time>
      </trkpt>
      <trkpt lat="48.9328" lon="6.70721">
        <ele>266.39999389648</ele>
        <time>2023-08-05T10:55:12.000Z</time>
      </trkpt>
      <trkpt lat="48.93281" lon="6.70714">
        <ele>267</ele>
        <time>2023-08-05T10:55:14.000Z</time>
      </trkpt>
      <trkpt lat="48.93281" lon="6.70691">
        <ele>267.39999389648</ele>
        <time>2023-08-05T10:55:20.000Z</time>
      </trkpt>
      <trkpt lat="48.93281" lon="6.70684">
        <ele>267.60000610352</ele>
        <time>2023-08-05T10:55:22.000Z</time>
      </trkpt>
      <trkpt lat="48.93283" lon="6.70658">
        <ele>268.39999389648</ele>
        <time>2023-08-05T10:55:29.000Z</time>
      </trkpt>
      <trkpt lat="48.93283" lon="6.70655">
        <ele>268.60000610352</ele>
        <time>2023-08-05T10:55:30.000Z</time>
      </trkpt>
      <trkpt lat="48.93286" lon="6.70639">
        <ele>269.79998779297</ele>
        <time>2023-08-05T10:55:35.000Z</time>
      </trkpt>
      <trkpt lat="48.93287" lon="6.70632">
        <ele>270</ele>
        <time>2023-08-05T10:55:37.000Z</time>
      </trkpt>
      <trkpt lat="48.93293" lon="6.70618">
        <ele>271</ele>
        <time>2023-08-05T10:55:42.000Z</time>
      </trkpt>
      <trkpt lat="48.93299" lon="6.7061">
        <ele>271.39999389648</ele>
        <time>2023-08-05T10:55:45.000Z</time>
      </trkpt>
      <trkpt lat="48.93306" lon="6.70604">
        <ele>272.20001220703</ele>
        <time>2023-08-05T10:55:49.000Z</time>
      </trkpt>
      <trkpt lat="48.93315" lon="6.70597">
        <ele>273</ele>
        <time>2023-08-05T10:55:53.000Z</time>
      </trkpt>
      <trkpt lat="48.93321" lon="6.70592">
        <ele>273.20001220703</ele>
        <time>2023-08-05T10:55:56.000Z</time>
      </trkpt>
      <trkpt lat="48.93337" lon="6.70581">
        <ele>274</ele>
        <time>2023-08-05T10:56:03.000Z</time>
      </trkpt>
      <trkpt lat="48.93344" lon="6.70576">
        <ele>274.39999389648</ele>
        <time>2023-08-05T10:56:06.000Z</time>
      </trkpt>
      <trkpt lat="48.93354" lon="6.7057">
        <ele>274.79998779297</ele>
        <time>2023-08-05T10:56:10.000Z</time>
      </trkpt>
      <trkpt lat="48.93382" lon="6.70546">
        <ele>275.20001220703</ele>
        <time>2023-08-05T10:56:20.000Z</time>
      </trkpt>
      <trkpt lat="48.934" lon="6.70529">
        <ele>275.60000610352</ele>
        <time>2023-08-05T10:56:26.000Z</time>
      </trkpt>
      <trkpt lat="48.93408" lon="6.70521">
        <ele>275.79998779297</ele>
        <time>2023-08-05T10:56:29.000Z</time>
      </trkpt>
      <trkpt lat="48.93431" lon="6.70498">
        <ele>276.60000610352</ele>
        <time>2023-08-05T10:56:37.000Z</time>
      </trkpt>
      <trkpt lat="48.93439" lon="6.70489">
        <ele>276.79998779297</ele>
        <time>2023-08-05T10:56:40.000Z</time>
      </trkpt>
      <trkpt lat="48.93466" lon="6.70462">
        <ele>277.60000610352</ele>
        <time>2023-08-05T10:56:49.000Z</time>
      </trkpt>
      <trkpt lat="48.93469" lon="6.70458">
        <ele>277.60000610352</ele>
        <time>2023-08-05T10:56:50.000Z</time>
      </trkpt>
      <trkpt lat="48.93485" lon="6.70442">
        <ele>278.60000610352</ele>
        <time>2023-08-05T10:56:56.000Z</time>
      </trkpt>
      <trkpt lat="48.93493" lon="6.70434">
        <ele>279</ele>
        <time>2023-08-05T10:56:59.000Z</time>
      </trkpt>
      <trkpt lat="48.9351" lon="6.70417">
        <ele>279.79998779297</ele>
        <time>2023-08-05T10:57:05.000Z</time>
      </trkpt>
      <trkpt lat="48.93523" lon="6.70408">
        <ele>280.20001220703</ele>
        <time>2023-08-05T10:57:10.000Z</time>
      </trkpt>
      <trkpt lat="48.93543" lon="6.70412">
        <ele>280.20001220703</ele>
        <time>2023-08-05T10:57:14.000Z</time>
      </trkpt>
      <trkpt lat="48.93553" lon="6.70412">
        <ele>280.39999389648</ele>
        <time>2023-08-05T10:57:16.000Z</time>
      </trkpt>
      <trkpt lat="48.93561" lon="6.70407">
        <ele>280.39999389648</ele>
        <time>2023-08-05T10:57:18.000Z</time>
      </trkpt>
      <trkpt lat="48.93569" lon="6.70399">
        <ele>280.20001220703</ele>
        <time>2023-08-05T10:57:20.000Z</time>
      </trkpt>
      <trkpt lat="48.93574" lon="6.70389">
        <ele>280.39999389648</ele>
        <time>2023-08-05T10:57:22.000Z</time>
      </trkpt>
      <trkpt lat="48.93576" lon="6.70366">
        <ele>280.39999389648</ele>
        <time>2023-08-05T10:57:26.000Z</time>
      </trkpt>
      <trkpt lat="48.93573" lon="6.70352">
        <ele>281</ele>
        <time>2023-08-05T10:57:29.000Z</time>
      </trkpt>
      <trkpt lat="48.93571" lon="6.70348">
        <ele>281.39999389648</ele>
        <time>2023-08-05T10:57:31.000Z</time>
      </trkpt>
      <trkpt lat="48.93557" lon="6.70335">
        <ele>281.60000610352</ele>
        <time>2023-08-05T10:57:35.000Z</time>
      </trkpt>
      <trkpt lat="48.93548" lon="6.70327">
        <ele>282</ele>
        <time>2023-08-05T10:57:38.000Z</time>
      </trkpt>
      <trkpt lat="48.93542" lon="6.7032">
        <ele>282.20001220703</ele>
        <time>2023-08-05T10:57:40.000Z</time>
      </trkpt>
      <trkpt lat="48.9354" lon="6.70315">
        <ele>282.20001220703</ele>
        <time>2023-08-05T10:57:41.000Z</time>
      </trkpt>
      <trkpt lat="48.93525" lon="6.70281">
        <ele>282.60000610352</ele>
        <time>2023-08-05T10:57:50.000Z</time>
      </trkpt>
      <trkpt lat="48.93512" lon="6.70256">
        <ele>283</ele>
        <time>2023-08-05T10:57:55.000Z</time>
      </trkpt>
      <trkpt lat="48.93506" lon="6.70245">
        <ele>283.39999389648</ele>
        <time>2023-08-05T10:57:58.000Z</time>
      </trkpt>
      <trkpt lat="48.93492" lon="6.70223">
        <ele>284.20001220703</ele>
        <time>2023-08-05T10:58:04.000Z</time>
      </trkpt>
      <trkpt lat="48.93481" lon="6.70205">
        <ele>284.79998779297</ele>
        <time>2023-08-05T10:58:09.000Z</time>
      </trkpt>
      <trkpt lat="48.93464" lon="6.70178">
        <ele>285.20001220703</ele>
        <time>2023-08-05T10:58:16.000Z</time>
      </trkpt>
      <trkpt lat="48.93456" lon="6.70163">
        <ele>285.20001220703</ele>
        <time>2023-08-05T10:58:20.000Z</time>
      </trkpt>
      <trkpt lat="48.93428" lon="6.70111">
        <ele>285.79998779297</ele>
        <time>2023-08-05T10:58:32.000Z</time>
      </trkpt>
      <trkpt lat="48.9341" lon="6.70066">
        <ele>286.20001220703</ele>
        <time>2023-08-05T10:58:41.000Z</time>
      </trkpt>
      <trkpt lat="48.93392" lon="6.70015">
        <ele>286</ele>
        <time>2023-08-05T10:58:51.000Z</time>
      </trkpt>
      <trkpt lat="48.93376" lon="6.69972">
        <ele>286.20001220703</ele>
        <time>2023-08-05T10:59:00.000Z</time>
      </trkpt>
      <trkpt lat="48.93358" lon="6.69922">
        <ele>286.60000610352</ele>
        <time>2023-08-05T10:59:10.000Z</time>
      </trkpt>
      <trkpt lat="48.93348" lon="6.69892">
        <ele>286.60000610352</ele>
        <time>2023-08-05T10:59:16.000Z</time>
      </trkpt>
      <trkpt lat="48.93343" lon="6.69877">
        <ele>286.60000610352</ele>
        <time>2023-08-05T10:59:19.000Z</time>
      </trkpt>
      <trkpt lat="48.93331" lon="6.69845">
        <ele>286.79998779297</ele>
        <time>2023-08-05T10:59:26.000Z</time>
      </trkpt>
      <trkpt lat="48.93322" lon="6.6982">
        <ele>287.20001220703</ele>
        <time>2023-08-05T10:59:32.000Z</time>
      </trkpt>
      <trkpt lat="48.93318" lon="6.69808">
        <ele>287.60000610352</ele>
        <time>2023-08-05T10:59:36.000Z</time>
      </trkpt>
      <trkpt lat="48.93303" lon="6.69766">
        <ele>288.60000610352</ele>
        <time>2023-08-05T10:59:46.000Z</time>
      </trkpt>
      <trkpt lat="48.93302" lon="6.69762">
        <ele>288.60000610352</ele>
        <time>2023-08-05T10:59:47.000Z</time>
      </trkpt>
      <trkpt lat="48.93294" lon="6.69736">
        <ele>289.60000610352</ele>
        <time>2023-08-05T10:59:54.000Z</time>
      </trkpt>
      <trkpt lat="48.9329" lon="6.69721">
        <ele>290.20001220703</ele>
        <time>2023-08-05T10:59:58.000Z</time>
      </trkpt>
      <trkpt lat="48.93285" lon="6.69693">
        <ele>290.79998779297</ele>
        <time>2023-08-05T11:00:05.000Z</time>
      </trkpt>
      <trkpt lat="48.93282" lon="6.69676">
        <ele>291.20001220703</ele>
        <time>2023-08-05T11:00:09.000Z</time>
      </trkpt>
      <trkpt lat="48.93276" lon="6.6963">
        <ele>291.60000610352</ele>
        <time>2023-08-05T11:00:19.000Z</time>
      </trkpt>
      <trkpt lat="48.93274" lon="6.69589">
        <ele>291.60000610352</ele>
        <time>2023-08-05T11:00:27.000Z</time>
      </trkpt>
      <trkpt lat="48.93271" lon="6.69537">
        <ele>291.60000610352</ele>
        <time>2023-08-05T11:00:36.000Z</time>
      </trkpt>
      <trkpt lat="48.93267" lon="6.69488">
        <ele>291.39999389648</ele>
        <time>2023-08-05T11:00:44.000Z</time>
      </trkpt>
      <trkpt lat="48.93264" lon="6.69464">
        <ele>291.20001220703</ele>
        <time>2023-08-05T11:00:48.000Z</time>
      </trkpt>
      <trkpt lat="48.93261" lon="6.69446">
        <ele>291.20001220703</ele>
        <time>2023-08-05T11:00:51.000Z</time>
      </trkpt>
      <trkpt lat="48.93258" lon="6.69428">
        <ele>291</ele>
        <time>2023-08-05T11:00:54.000Z</time>
      </trkpt>
      <trkpt lat="48.93249" lon="6.69392">
        <ele>291</ele>
        <time>2023-08-05T11:01:00.000Z</time>
      </trkpt>
      <trkpt lat="48.93245" lon="6.69381">
        <ele>290.79998779297</ele>
        <time>2023-08-05T11:01:02.000Z</time>
      </trkpt>
      <trkpt lat="48.93236" lon="6.6935">
        <ele>290.60000610352</ele>
        <time>2023-08-05T11:01:07.000Z</time>
      </trkpt>
      <trkpt lat="48.93225" lon="6.69319">
        <ele>290.20001220703</ele>
        <time>2023-08-05T11:01:12.000Z</time>
      </trkpt>
      <trkpt lat="48.93218" lon="6.693">
        <ele>289.79998779297</ele>
        <time>2023-08-05T11:01:15.000Z</time>
      </trkpt>
      <trkpt lat="48.93205" lon="6.69262">
        <ele>289</ele>
        <time>2023-08-05T11:01:21.000Z</time>
      </trkpt>
      <trkpt lat="48.93198" lon="6.69235">
        <ele>288.39999389648</ele>
        <time>2023-08-05T11:01:26.000Z</time>
      </trkpt>
      <trkpt lat="48.93196" lon="6.69225">
        <ele>287.79998779297</ele>
        <time>2023-08-05T11:01:30.000Z</time>
      </trkpt>
      <trkpt lat="48.93196" lon="6.69225">
        <ele>287.60000610352</ele>
        <time>2023-08-05T11:01:31.000Z</time>
      </trkpt>
      <trkpt lat="48.93196" lon="6.69225">
        <ele>287.60000610352</ele>
        <time>2023-08-05T11:01:32.000Z</time>
      </trkpt>
      <trkpt lat="48.93194" lon="6.69219">
        <ele>287.60000610352</ele>
        <time>2023-08-05T11:04:07.000Z</time>
      </trkpt>
      <trkpt lat="48.93193" lon="6.69213">
        <ele>287.39999389648</ele>
        <time>2023-08-05T11:04:09.000Z</time>
      </trkpt>
      <trkpt lat="48.93188" lon="6.69182">
        <ele>287.20001220703</ele>
        <time>2023-08-05T11:04:15.000Z</time>
      </trkpt>
      <trkpt lat="48.93184" lon="6.69152">
        <ele>286.79998779297</ele>
        <time>2023-08-05T11:04:20.000Z</time>
      </trkpt>
      <trkpt lat="48.93183" lon="6.69139">
        <ele>286.60000610352</ele>
        <time>2023-08-05T11:04:22.000Z</time>
      </trkpt>
      <trkpt lat="48.93179" lon="6.69103">
        <ele>286</ele>
        <time>2023-08-05T11:04:27.000Z</time>
      </trkpt>
      <trkpt lat="48.93178" lon="6.69095">
        <ele>285.79998779297</ele>
        <time>2023-08-05T11:04:28.000Z</time>
      </trkpt>
      <trkpt lat="48.93172" lon="6.69044">
        <ele>285</ele>
        <time>2023-08-05T11:04:35.000Z</time>
      </trkpt>
      <trkpt lat="48.93169" lon="6.69022">
        <ele>284.39999389648</ele>
        <time>2023-08-05T11:04:38.000Z</time>
      </trkpt>
      <trkpt lat="48.93167" lon="6.69006">
        <ele>283.79998779297</ele>
        <time>2023-08-05T11:04:40.000Z</time>
      </trkpt>
      <trkpt lat="48.9316" lon="6.68954">
        <ele>283</ele>
        <time>2023-08-05T11:04:47.000Z</time>
      </trkpt>
      <trkpt lat="48.93158" lon="6.68939">
        <ele>282.79998779297</ele>
        <time>2023-08-05T11:04:49.000Z</time>
      </trkpt>
      <trkpt lat="48.93151" lon="6.68887">
        <ele>282.39999389648</ele>
        <time>2023-08-05T11:04:57.000Z</time>
      </trkpt>
      <trkpt lat="48.93145" lon="6.68843">
        <ele>282.39999389648</ele>
        <time>2023-08-05T11:05:05.000Z</time>
      </trkpt>
      <trkpt lat="48.93139" lon="6.68792">
        <ele>283.20001220703</ele>
        <time>2023-08-05T11:05:15.000Z</time>
      </trkpt>
      <trkpt lat="48.93136" lon="6.68757">
        <ele>283.79998779297</ele>
        <time>2023-08-05T11:05:22.000Z</time>
      </trkpt>
      <trkpt lat="48.93134" lon="6.68742">
        <ele>284</ele>
        <time>2023-08-05T11:05:25.000Z</time>
      </trkpt>
      <trkpt lat="48.9313" lon="6.68719">
        <ele>284.79998779297</ele>
        <time>2023-08-05T11:05:30.000Z</time>
      </trkpt>
      <trkpt lat="48.93127" lon="6.68692">
        <ele>285.20001220703</ele>
        <time>2023-08-05T11:05:36.000Z</time>
      </trkpt>
      <trkpt lat="48.93123" lon="6.68669">
        <ele>285.79998779297</ele>
        <time>2023-08-05T11:05:41.000Z</time>
      </trkpt>
      <trkpt lat="48.93119" lon="6.68642">
        <ele>286.20001220703</ele>
        <time>2023-08-05T11:05:47.000Z</time>
      </trkpt>
      <trkpt lat="48.93109" lon="6.68592">
        <ele>286.60000610352</ele>
        <time>2023-08-05T11:05:57.000Z</time>
      </trkpt>
      <trkpt lat="48.93098" lon="6.68532">
        <ele>286.20001220703</ele>
        <time>2023-08-05T11:06:07.000Z</time>
      </trkpt>
      <trkpt lat="48.9309" lon="6.68492">
        <ele>286.20001220703</ele>
        <time>2023-08-05T11:06:13.000Z</time>
      </trkpt>
      <trkpt lat="48.93084" lon="6.68465">
        <ele>285.79998779297</ele>
        <time>2023-08-05T11:06:17.000Z</time>
      </trkpt>
      <trkpt lat="48.93068" lon="6.68392">
        <ele>285.20001220703</ele>
        <time>2023-08-05T11:06:28.000Z</time>
      </trkpt>
      <trkpt lat="48.93061" lon="6.68359">
        <ele>285</ele>
        <time>2023-08-05T11:06:34.000Z</time>
      </trkpt>
      <trkpt lat="48.93057" lon="6.6834">
        <ele>285</ele>
        <time>2023-08-05T11:06:36.000Z</time>
      </trkpt>
      <trkpt lat="48.93042" lon="6.6827">
        <ele>284.79998779297</ele>
        <time>2023-08-05T11:06:47.000Z</time>
      </trkpt>
      <trkpt lat="48.9303" lon="6.68213">
        <ele>284.60000610352</ele>
        <time>2023-08-05T11:06:56.000Z</time>
      </trkpt>
      <trkpt lat="48.93018" lon="6.68158">
        <ele>284.20001220703</ele>
        <time>2023-08-05T11:07:05.000Z</time>
      </trkpt>
      <trkpt lat="48.93007" lon="6.68083">
        <ele>284</ele>
        <time>2023-08-05T11:07:16.000Z</time>
      </trkpt>
      <trkpt lat="48.93007" lon="6.68071">
        <ele>284.20001220703</ele>
        <time>2023-08-05T11:07:18.000Z</time>
      </trkpt>
      <trkpt lat="48.93002" lon="6.68016">
        <ele>284</ele>
        <time>2023-08-05T11:07:26.000Z</time>
      </trkpt>
      <trkpt lat="48.93" lon="6.68001">
        <ele>284</ele>
        <time>2023-08-05T11:07:28.000Z</time>
      </trkpt>
      <trkpt lat="48.92994" lon="6.67959">
        <ele>283.79998779297</ele>
        <time>2023-08-05T11:07:34.000Z</time>
      </trkpt>
      <trkpt lat="48.92984" lon="6.67909">
        <ele>283.79998779297</ele>
        <time>2023-08-05T11:07:42.000Z</time>
      </trkpt>
      <trkpt lat="48.92983" lon="6.67905">
        <ele>283.79998779297</ele>
        <time>2023-08-05T11:07:45.000Z</time>
      </trkpt>
      <trkpt lat="48.92983" lon="6.67905">
        <ele>283.79998779297</ele>
        <time>2023-08-05T11:07:47.000Z</time>
      </trkpt>
      <trkpt lat="48.92981" lon="6.679">
        <ele>283.79998779297</ele>
        <time>2023-08-05T11:10:04.000Z</time>
      </trkpt>
      <trkpt lat="48.9298" lon="6.67894">
        <ele>283.79998779297</ele>
        <time>2023-08-05T11:10:06.000Z</time>
      </trkpt>
      <trkpt lat="48.92973" lon="6.67873">
        <ele>283.79998779297</ele>
        <time>2023-08-05T11:10:12.000Z</time>
      </trkpt>
      <trkpt lat="48.92963" lon="6.6784">
        <ele>283.79998779297</ele>
        <time>2023-08-05T11:10:19.000Z</time>
      </trkpt>
      <trkpt lat="48.92952" lon="6.67809">
        <ele>284</ele>
        <time>2023-08-05T11:10:25.000Z</time>
      </trkpt>
      <trkpt lat="48.92943" lon="6.67778">
        <ele>284.20001220703</ele>
        <time>2023-08-05T11:10:31.000Z</time>
      </trkpt>
      <trkpt lat="48.92927" lon="6.67728">
        <ele>284.39999389648</ele>
        <time>2023-08-05T11:10:40.000Z</time>
      </trkpt>
      <trkpt lat="48.92909" lon="6.67666">
        <ele>284.60000610352</ele>
        <time>2023-08-05T11:10:51.000Z</time>
      </trkpt>
      <trkpt lat="48.92898" lon="6.67596">
        <ele>284.39999389648</ele>
        <time>2023-08-05T11:11:03.000Z</time>
      </trkpt>
      <trkpt lat="48.92897" lon="6.67552">
        <ele>283.79998779297</ele>
        <time>2023-08-05T11:11:10.000Z</time>
      </trkpt>
      <trkpt lat="48.92898" lon="6.6754">
        <ele>283.79998779297</ele>
        <time>2023-08-05T11:11:12.000Z</time>
      </trkpt>
      <trkpt lat="48.92898" lon="6.67519">
        <ele>283.60000610352</ele>
        <time>2023-08-05T11:11:16.000Z</time>
      </trkpt>
      <trkpt lat="48.92899" lon="6.67507">
        <ele>283.60000610352</ele>
        <time>2023-08-05T11:11:18.000Z</time>
      </trkpt>
      <trkpt lat="48.92898" lon="6.67486">
        <ele>283.20001220703</ele>
        <time>2023-08-05T11:11:22.000Z</time>
      </trkpt>
      <trkpt lat="48.92887" lon="6.67463">
        <ele>283</ele>
        <time>2023-08-05T11:11:27.000Z</time>
      </trkpt>
      <trkpt lat="48.9287" lon="6.67456">
        <ele>283.20001220703</ele>
        <time>2023-08-05T11:11:32.000Z</time>
      </trkpt>
      <trkpt lat="48.92853" lon="6.6745">
        <ele>283.79998779297</ele>
        <time>2023-08-05T11:11:38.000Z</time>
      </trkpt>
      <trkpt lat="48.92835" lon="6.67434">
        <ele>284.60000610352</ele>
        <time>2023-08-05T11:11:45.000Z</time>
      </trkpt>
      <trkpt lat="48.92829" lon="6.67427">
        <ele>284.79998779297</ele>
        <time>2023-08-05T11:11:47.000Z</time>
      </trkpt>
      <trkpt lat="48.92821" lon="6.67411">
        <ele>285.60000610352</ele>
        <time>2023-08-05T11:11:52.000Z</time>
      </trkpt>
      <trkpt lat="48.92816" lon="6.67396">
        <ele>285.79998779297</ele>
        <time>2023-08-05T11:11:58.000Z</time>
      </trkpt>
      <trkpt lat="48.92816" lon="6.67396">
        <ele>285.79998779297</ele>
        <time>2023-08-05T11:12:00.000Z</time>
      </trkpt>
      <trkpt lat="48.92815" lon="6.67394">
        <ele>286</ele>
        <time>2023-08-05T11:13:52.000Z</time>
      </trkpt>
      <trkpt lat="48.92815" lon="6.67392">
        <ele>286</ele>
        <time>2023-08-05T11:13:53.000Z</time>
      </trkpt>
      <trkpt lat="48.92808" lon="6.67371">
        <ele>285.79998779297</ele>
        <time>2023-08-05T11:13:59.000Z</time>
      </trkpt>
      <trkpt lat="48.92799" lon="6.67338">
        <ele>285.79998779297</ele>
        <time>2023-08-05T11:14:06.000Z</time>
      </trkpt>
      <trkpt lat="48.92785" lon="6.67292">
        <ele>286.39999389648</ele>
        <time>2023-08-05T11:14:14.000Z</time>
      </trkpt>
      <trkpt lat="48.92783" lon="6.67286">
        <ele>286.39999389648</ele>
        <time>2023-08-05T11:14:15.000Z</time>
      </trkpt>
      <trkpt lat="48.92772" lon="6.67241">
        <ele>286.20001220703</ele>
        <time>2023-08-05T11:14:22.000Z</time>
      </trkpt>
      <trkpt lat="48.92759" lon="6.67173">
        <ele>286</ele>
        <time>2023-08-05T11:14:32.000Z</time>
      </trkpt>
      <trkpt lat="48.92758" lon="6.67164">
        <ele>286</ele>
        <time>2023-08-05T11:14:33.000Z</time>
      </trkpt>
      <trkpt lat="48.92749" lon="6.67104">
        <ele>286</ele>
        <time>2023-08-05T11:14:42.000Z</time>
      </trkpt>
      <trkpt lat="48.9274" lon="6.67032">
        <ele>285.60000610352</ele>
        <time>2023-08-05T11:14:52.000Z</time>
      </trkpt>
      <trkpt lat="48.92739" lon="6.67004">
        <ele>285.39999389648</ele>
        <time>2023-08-05T11:14:56.000Z</time>
      </trkpt>
      <trkpt lat="48.92736" lon="6.66976">
        <ele>285.39999389648</ele>
        <time>2023-08-05T11:15:00.000Z</time>
      </trkpt>
      <trkpt lat="48.9273" lon="6.6692">
        <ele>285.20001220703</ele>
        <time>2023-08-05T11:15:08.000Z</time>
      </trkpt>
      <trkpt lat="48.92723" lon="6.66874">
        <ele>285.79998779297</ele>
        <time>2023-08-05T11:15:15.000Z</time>
      </trkpt>
      <trkpt lat="48.92713" lon="6.6681">
        <ele>286.20001220703</ele>
        <time>2023-08-05T11:15:25.000Z</time>
      </trkpt>
      <trkpt lat="48.9271" lon="6.66791">
        <ele>286.39999389648</ele>
        <time>2023-08-05T11:15:28.000Z</time>
      </trkpt>
      <trkpt lat="48.92708" lon="6.66771">
        <ele>286.39999389648</ele>
        <time>2023-08-05T11:15:31.000Z</time>
      </trkpt>
      <trkpt lat="48.92701" lon="6.66732">
        <ele>286.39999389648</ele>
        <time>2023-08-05T11:15:38.000Z</time>
      </trkpt>
      <trkpt lat="48.92693" lon="6.66691">
        <ele>286.39999389648</ele>
        <time>2023-08-05T11:15:45.000Z</time>
      </trkpt>
      <trkpt lat="48.92682" lon="6.66643">
        <ele>286.39999389648</ele>
        <time>2023-08-05T11:15:53.000Z</time>
      </trkpt>
      <trkpt lat="48.9268" lon="6.66637">
        <ele>286.39999389648</ele>
        <time>2023-08-05T11:15:54.000Z</time>
      </trkpt>
      <trkpt lat="48.92666" lon="6.66583">
        <ele>286.39999389648</ele>
        <time>2023-08-05T11:16:03.000Z</time>
      </trkpt>
      <trkpt lat="48.92663" lon="6.6657">
        <ele>286.60000610352</ele>
        <time>2023-08-05T11:16:05.000Z</time>
      </trkpt>
      <trkpt lat="48.92659" lon="6.66549">
        <ele>286.60000610352</ele>
        <time>2023-08-05T11:16:08.000Z</time>
      </trkpt>
      <trkpt lat="48.92656" lon="6.66536">
        <ele>286.60000610352</ele>
        <time>2023-08-05T11:16:10.000Z</time>
      </trkpt>
      <trkpt lat="48.92642" lon="6.66482">
        <ele>286.60000610352</ele>
        <time>2023-08-05T11:16:18.000Z</time>
      </trkpt>
      <trkpt lat="48.92625" lon="6.66419">
        <ele>287.20001220703</ele>
        <time>2023-08-05T11:16:28.000Z</time>
      </trkpt>
      <trkpt lat="48.92621" lon="6.66399">
        <ele>287.39999389648</ele>
        <time>2023-08-05T11:16:31.000Z</time>
      </trkpt>
      <trkpt lat="48.92618" lon="6.66386">
        <ele>287.39999389648</ele>
        <time>2023-08-05T11:16:33.000Z</time>
      </trkpt>
      <trkpt lat="48.92614" lon="6.66372">
        <ele>287.39999389648</ele>
        <time>2023-08-05T11:16:35.000Z</time>
      </trkpt>
      <trkpt lat="48.92602" lon="6.66319">
        <ele>287.60000610352</ele>
        <time>2023-08-05T11:16:43.000Z</time>
      </trkpt>
      <trkpt lat="48.926" lon="6.66313">
        <ele>287.60000610352</ele>
        <time>2023-08-05T11:16:44.000Z</time>
      </trkpt>
      <trkpt lat="48.92591" lon="6.66283">
        <ele>287.79998779297</ele>
        <time>2023-08-05T11:16:49.000Z</time>
      </trkpt>
      <trkpt lat="48.92584" lon="6.66258">
        <ele>287.60000610352</ele>
        <time>2023-08-05T11:16:53.000Z</time>
      </trkpt>
      <trkpt lat="48.92567" lon="6.66197">
        <ele>288</ele>
        <time>2023-08-05T11:17:03.000Z</time>
      </trkpt>
      <trkpt lat="48.92551" lon="6.66134">
        <ele>288.39999389648</ele>
        <time>2023-08-05T11:17:13.000Z</time>
      </trkpt>
      <trkpt lat="48.92532" lon="6.6607">
        <ele>288.39999389648</ele>
        <time>2023-08-05T11:17:23.000Z</time>
      </trkpt>
      <trkpt lat="48.92527" lon="6.66051">
        <ele>288.39999389648</ele>
        <time>2023-08-05T11:17:26.000Z</time>
      </trkpt>
      <trkpt lat="48.92518" lon="6.66019">
        <ele>288.39999389648</ele>
        <time>2023-08-05T11:17:31.000Z</time>
      </trkpt>
      <trkpt lat="48.92515" lon="6.66006">
        <ele>288.39999389648</ele>
        <time>2023-08-05T11:17:33.000Z</time>
      </trkpt>
      <trkpt lat="48.9251" lon="6.65978">
        <ele>288.79998779297</ele>
        <time>2023-08-05T11:17:37.000Z</time>
      </trkpt>
      <trkpt lat="48.92499" lon="6.6591">
        <ele>287.20001220703</ele>
        <time>2023-08-05T11:17:46.000Z</time>
      </trkpt>
      <trkpt lat="48.92498" lon="6.65902">
        <ele>287.20001220703</ele>
        <time>2023-08-05T11:17:47.000Z</time>
      </trkpt>
      <trkpt lat="48.92498" lon="6.65886">
        <ele>286.79998779297</ele>
        <time>2023-08-05T11:17:49.000Z</time>
      </trkpt>
      <trkpt lat="48.92499" lon="6.65879">
        <ele>286.79998779297</ele>
        <time>2023-08-05T11:17:50.000Z</time>
      </trkpt>
      <trkpt lat="48.925" lon="6.65871">
        <ele>286.60000610352</ele>
        <time>2023-08-05T11:17:51.000Z</time>
      </trkpt>
      <trkpt lat="48.92501" lon="6.65864">
        <ele>286.60000610352</ele>
        <time>2023-08-05T11:17:52.000Z</time>
      </trkpt>
      <trkpt lat="48.92507" lon="6.65852">
        <ele>286.39999389648</ele>
        <time>2023-08-05T11:17:54.000Z</time>
      </trkpt>
      <trkpt lat="48.9251" lon="6.65847">
        <ele>286.39999389648</ele>
        <time>2023-08-05T11:17:55.000Z</time>
      </trkpt>
      <trkpt lat="48.92514" lon="6.65843">
        <ele>286.39999389648</ele>
        <time>2023-08-05T11:17:56.000Z</time>
      </trkpt>
      <trkpt lat="48.92532" lon="6.6583">
        <ele>285.79998779297</ele>
        <time>2023-08-05T11:18:00.000Z</time>
      </trkpt>
      <trkpt lat="48.92537" lon="6.65828">
        <ele>285.79998779297</ele>
        <time>2023-08-05T11:18:01.000Z</time>
      </trkpt>
      <trkpt lat="48.92572" lon="6.65808">
        <ele>285.79998779297</ele>
        <time>2023-08-05T11:18:09.000Z</time>
      </trkpt>
      <trkpt lat="48.92604" lon="6.65789">
        <ele>286.20001220703</ele>
        <time>2023-08-05T11:18:17.000Z</time>
      </trkpt>
      <trkpt lat="48.92628" lon="6.6577">
        <ele>287</ele>
        <time>2023-08-05T11:18:23.000Z</time>
      </trkpt>
      <trkpt lat="48.92635" lon="6.65764">
        <ele>287.20001220703</ele>
        <time>2023-08-05T11:18:25.000Z</time>
      </trkpt>
      <trkpt lat="48.92653" lon="6.65748">
        <ele>288</ele>
        <time>2023-08-05T11:18:30.000Z</time>
      </trkpt>
      <trkpt lat="48.92667" lon="6.65733">
        <ele>288.39999389648</ele>
        <time>2023-08-05T11:18:34.000Z</time>
      </trkpt>
      <trkpt lat="48.92696" lon="6.65697">
        <ele>288.79998779297</ele>
        <time>2023-08-05T11:18:42.000Z</time>
      </trkpt>
      <trkpt lat="48.92722" lon="6.65651">
        <ele>288.20001220703</ele>
        <time>2023-08-05T11:18:50.000Z</time>
      </trkpt>
      <trkpt lat="48.92741" lon="6.65607">
        <ele>288.20001220703</ele>
        <time>2023-08-05T11:18:58.000Z</time>
      </trkpt>
      <trkpt lat="48.92759" lon="6.65562">
        <ele>288.60000610352</ele>
        <time>2023-08-05T11:19:06.000Z</time>
      </trkpt>
      <trkpt lat="48.92761" lon="6.65557">
        <ele>288.79998779297</ele>
        <time>2023-08-05T11:19:07.000Z</time>
      </trkpt>
      <trkpt lat="48.92769" lon="6.65533">
        <ele>289</ele>
        <time>2023-08-05T11:19:11.000Z</time>
      </trkpt>
      <trkpt lat="48.92771" lon="6.65527">
        <ele>289</ele>
        <time>2023-08-05T11:19:12.000Z</time>
      </trkpt>
      <trkpt lat="48.92778" lon="6.6551">
        <ele>289.39999389648</ele>
        <time>2023-08-05T11:19:15.000Z</time>
      </trkpt>
      <trkpt lat="48.92781" lon="6.65502">
        <ele>289.39999389648</ele>
        <time>2023-08-05T11:19:17.000Z</time>
      </trkpt>
      <trkpt lat="48.92788" lon="6.65482">
        <ele>289.79998779297</ele>
        <time>2023-08-05T11:19:21.000Z</time>
      </trkpt>
      <trkpt lat="48.92787" lon="6.65477">
        <ele>290.20001220703</ele>
        <time>2023-08-05T11:19:22.000Z</time>
      </trkpt>
      <trkpt lat="48.9279" lon="6.65468">
        <ele>290.39999389648</ele>
        <time>2023-08-05T11:19:24.000Z</time>
      </trkpt>
      <trkpt lat="48.92794" lon="6.65458">
        <ele>290.60000610352</ele>
        <time>2023-08-05T11:19:26.000Z</time>
      </trkpt>
      <trkpt lat="48.92805" lon="6.65441">
        <ele>291.20001220703</ele>
        <time>2023-08-05T11:19:30.000Z</time>
      </trkpt>
      <trkpt lat="48.92807" lon="6.65437">
        <ele>291.39999389648</ele>
        <time>2023-08-05T11:19:31.000Z</time>
      </trkpt>
      <trkpt lat="48.9282" lon="6.65413">
        <ele>292.20001220703</ele>
        <time>2023-08-05T11:19:36.000Z</time>
      </trkpt>
      <trkpt lat="48.92825" lon="6.65403">
        <ele>292.39999389648</ele>
        <time>2023-08-05T11:19:38.000Z</time>
      </trkpt>
      <trkpt lat="48.92831" lon="6.6539">
        <ele>293.20001220703</ele>
        <time>2023-08-05T11:19:42.000Z</time>
      </trkpt>
      <trkpt lat="48.92834" lon="6.65379">
        <ele>293.79998779297</ele>
        <time>2023-08-05T11:19:45.000Z</time>
      </trkpt>
      <trkpt lat="48.92834" lon="6.65372">
        <ele>294.20001220703</ele>
        <time>2023-08-05T11:19:47.000Z</time>
      </trkpt>
      <trkpt lat="48.92833" lon="6.65362">
        <ele>294.79998779297</ele>
        <time>2023-08-05T11:19:51.000Z</time>
      </trkpt>
      <trkpt lat="48.92833" lon="6.65361">
        <ele>295</ele>
        <time>2023-08-05T11:19:54.000Z</time>
      </trkpt>
      <trkpt lat="48.92827" lon="6.65354">
        <ele>295.79998779297</ele>
        <time>2023-08-05T11:22:13.000Z</time>
      </trkpt>
      <trkpt lat="48.92814" lon="6.65331">
        <ele>295.60000610352</ele>
        <time>2023-08-05T11:22:18.000Z</time>
      </trkpt>
      <trkpt lat="48.92795" lon="6.65292">
        <ele>295</ele>
        <time>2023-08-05T11:22:24.000Z</time>
      </trkpt>
      <trkpt lat="48.92792" lon="6.65285">
        <ele>294.39999389648</ele>
        <time>2023-08-05T11:22:25.000Z</time>
      </trkpt>
      <trkpt lat="48.92776" lon="6.65248">
        <ele>293</ele>
        <time>2023-08-05T11:22:30.000Z</time>
      </trkpt>
      <trkpt lat="48.92773" lon="6.65241">
        <ele>293</ele>
        <time>2023-08-05T11:22:31.000Z</time>
      </trkpt>
      <trkpt lat="48.92761" lon="6.65216">
        <ele>291.60000610352</ele>
        <time>2023-08-05T11:22:34.000Z</time>
      </trkpt>
      <trkpt lat="48.9275" lon="6.65193">
        <ele>290.39999389648</ele>
        <time>2023-08-05T11:22:37.000Z</time>
      </trkpt>
      <trkpt lat="48.92746" lon="6.65184">
        <ele>290.20001220703</ele>
        <time>2023-08-05T11:22:38.000Z</time>
      </trkpt>
      <trkpt lat="48.92742" lon="6.65176">
        <ele>290</ele>
        <time>2023-08-05T11:22:39.000Z</time>
      </trkpt>
      <trkpt lat="48.92731" lon="6.65152">
        <ele>289.20001220703</ele>
        <time>2023-08-05T11:22:42.000Z</time>
      </trkpt>
      <trkpt lat="48.92723" lon="6.65137">
        <ele>288.39999389648</ele>
        <time>2023-08-05T11:22:44.000Z</time>
      </trkpt>
      <trkpt lat="48.92716" lon="6.65123">
        <ele>288</ele>
        <time>2023-08-05T11:22:46.000Z</time>
      </trkpt>
      <trkpt lat="48.927" lon="6.6509">
        <ele>287.20001220703</ele>
        <time>2023-08-05T11:22:51.000Z</time>
      </trkpt>
      <trkpt lat="48.92692" lon="6.65075">
        <ele>286.79998779297</ele>
        <time>2023-08-05T11:22:54.000Z</time>
      </trkpt>
      <trkpt lat="48.92687" lon="6.65063">
        <ele>286.79998779297</ele>
        <time>2023-08-05T11:22:56.000Z</time>
      </trkpt>
      <trkpt lat="48.9266" lon="6.65011">
        <ele>286.60000610352</ele>
        <time>2023-08-05T11:23:05.000Z</time>
      </trkpt>
      <trkpt lat="48.92646" lon="6.64974">
        <ele>285.79998779297</ele>
        <time>2023-08-05T11:23:10.000Z</time>
      </trkpt>
      <trkpt lat="48.92643" lon="6.64966">
        <ele>285.60000610352</ele>
        <time>2023-08-05T11:23:11.000Z</time>
      </trkpt>
      <trkpt lat="48.9263" lon="6.64923">
        <ele>284.79998779297</ele>
        <time>2023-08-05T11:23:16.000Z</time>
      </trkpt>
      <trkpt lat="48.92627" lon="6.64914">
        <ele>284.39999389648</ele>
        <time>2023-08-05T11:23:17.000Z</time>
      </trkpt>
      <trkpt lat="48.92615" lon="6.64873">
        <ele>282.79998779297</ele>
        <time>2023-08-05T11:23:22.000Z</time>
      </trkpt>
      <trkpt lat="48.92606" lon="6.64845">
        <ele>281.79998779297</ele>
        <time>2023-08-05T11:23:25.000Z</time>
      </trkpt>
      <trkpt lat="48.92596" lon="6.64808">
        <ele>280.60000610352</ele>
        <time>2023-08-05T11:23:29.000Z</time>
      </trkpt>
      <trkpt lat="48.92593" lon="6.64793">
        <ele>280.20001220703</ele>
        <time>2023-08-05T11:23:31.000Z</time>
      </trkpt>
      <trkpt lat="48.92587" lon="6.64772">
        <ele>279.39999389648</ele>
        <time>2023-08-05T11:23:34.000Z</time>
      </trkpt>
      <trkpt lat="48.92585" lon="6.64766">
        <ele>279.20001220703</ele>
        <time>2023-08-05T11:23:35.000Z</time>
      </trkpt>
      <trkpt lat="48.92579" lon="6.64756">
        <ele>278.60000610352</ele>
        <time>2023-08-05T11:23:37.000Z</time>
      </trkpt>
      <trkpt lat="48.92569" lon="6.6475">
        <ele>278.39999389648</ele>
        <time>2023-08-05T11:23:39.000Z</time>
      </trkpt>
      <trkpt lat="48.9256" lon="6.64751">
        <ele>278.20001220703</ele>
        <time>2023-08-05T11:23:41.000Z</time>
      </trkpt>
      <trkpt lat="48.92554" lon="6.64753">
        <ele>278.20001220703</ele>
        <time>2023-08-05T11:23:42.000Z</time>
      </trkpt>
      <trkpt lat="48.92548" lon="6.64757">
        <ele>278.20001220703</ele>
        <time>2023-08-05T11:23:43.000Z</time>
      </trkpt>
      <trkpt lat="48.92518" lon="6.64773">
        <ele>277.20001220703</ele>
        <time>2023-08-05T11:23:48.000Z</time>
      </trkpt>
      <trkpt lat="48.92511" lon="6.64775">
        <ele>276.79998779297</ele>
        <time>2023-08-05T11:23:49.000Z</time>
      </trkpt>
      <trkpt lat="48.92499" lon="6.64778">
        <ele>276</ele>
        <time>2023-08-05T11:23:51.000Z</time>
      </trkpt>
      <trkpt lat="48.92486" lon="6.64782">
        <ele>275</ele>
        <time>2023-08-05T11:23:53.000Z</time>
      </trkpt>
      <trkpt lat="48.92481" lon="6.64781">
        <ele>274.79998779297</ele>
        <time>2023-08-05T11:23:54.000Z</time>
      </trkpt>
      <trkpt lat="48.92476" lon="6.64776">
        <ele>274.20001220703</ele>
        <time>2023-08-05T11:23:55.000Z</time>
      </trkpt>
      <trkpt lat="48.92474" lon="6.64771">
        <ele>273.60000610352</ele>
        <time>2023-08-05T11:23:56.000Z</time>
      </trkpt>
      <trkpt lat="48.92471" lon="6.64763">
        <ele>273.20001220703</ele>
        <time>2023-08-05T11:23:57.000Z</time>
      </trkpt>
      <trkpt lat="48.92466" lon="6.6474">
        <ele>272.39999389648</ele>
        <time>2023-08-05T11:24:00.000Z</time>
      </trkpt>
      <trkpt lat="48.92459" lon="6.64708">
        <ele>271.79998779297</ele>
        <time>2023-08-05T11:24:04.000Z</time>
      </trkpt>
      <trkpt lat="48.92455" lon="6.64692">
        <ele>271.39999389648</ele>
        <time>2023-08-05T11:24:06.000Z</time>
      </trkpt>
      <trkpt lat="48.92448" lon="6.64652">
        <ele>270.79998779297</ele>
        <time>2023-08-05T11:24:11.000Z</time>
      </trkpt>
      <trkpt lat="48.92442" lon="6.64622">
        <ele>270.39999389648</ele>
        <time>2023-08-05T11:24:15.000Z</time>
      </trkpt>
      <trkpt lat="48.92438" lon="6.64594">
        <ele>270.20001220703</ele>
        <time>2023-08-05T11:24:19.000Z</time>
      </trkpt>
      <trkpt lat="48.92429" lon="6.64552">
        <ele>269.60000610352</ele>
        <time>2023-08-05T11:24:26.000Z</time>
      </trkpt>
      <trkpt lat="48.92431" lon="6.64545">
        <ele>269.60000610352</ele>
        <time>2023-08-05T11:24:29.000Z</time>
      </trkpt>
      <trkpt lat="48.92435" lon="6.64526">
        <ele>269.60000610352</ele>
        <time>2023-08-05T11:24:36.000Z</time>
      </trkpt>
      <trkpt lat="48.92439" lon="6.64507">
        <ele>269.79998779297</ele>
        <time>2023-08-05T11:24:44.000Z</time>
      </trkpt>
      <trkpt lat="48.92449" lon="6.645">
        <ele>270</ele>
        <time>2023-08-05T11:24:51.000Z</time>
      </trkpt>
      <trkpt lat="48.9246" lon="6.64493">
        <ele>270.20001220703</ele>
        <time>2023-08-05T11:24:58.000Z</time>
      </trkpt>
      <trkpt lat="48.9246" lon="6.64493">
        <ele>270</ele>
        <time>2023-08-05T11:25:00.000Z</time>
      </trkpt>
      <trkpt lat="48.92465" lon="6.64487">
        <ele>272.60000610352</ele>
        <time>2023-08-05T11:39:30.000Z</time>
      </trkpt>
      <trkpt lat="48.92466" lon="6.64489">
        <ele>272.60000610352</ele>
        <time>2023-08-05T11:39:31.000Z</time>
      </trkpt>
      <trkpt lat="48.92473" lon="6.6451">
        <ele>272.60000610352</ele>
        <time>2023-08-05T11:39:37.000Z</time>
      </trkpt>
      <trkpt lat="48.9248" lon="6.64536">
        <ele>272.79998779297</ele>
        <time>2023-08-05T11:39:43.000Z</time>
      </trkpt>
      <trkpt lat="48.92488" lon="6.6456">
        <ele>272.79998779297</ele>
        <time>2023-08-05T11:39:50.000Z</time>
      </trkpt>
      <trkpt lat="48.92494" lon="6.6457">
        <ele>273.39999389648</ele>
        <time>2023-08-05T11:39:56.000Z</time>
      </trkpt>
      <trkpt lat="48.92494" lon="6.6457">
        <ele>273.39999389648</ele>
        <time>2023-08-05T11:39:57.000Z</time>
      </trkpt>
      <trkpt lat="48.9253" lon="6.64543">
        <ele>281.79998779297</ele>
        <time>2023-08-05T12:07:35.000Z</time>
      </trkpt>
      <trkpt lat="48.9253" lon="6.64531">
        <ele>281.79998779297</ele>
        <time>2023-08-05T12:07:38.000Z</time>
      </trkpt>
      <trkpt lat="48.92528" lon="6.64506">
        <ele>281.79998779297</ele>
        <time>2023-08-05T12:07:43.000Z</time>
      </trkpt>
      <trkpt lat="48.92526" lon="6.64481">
        <ele>282</ele>
        <time>2023-08-05T12:07:48.000Z</time>
      </trkpt>
      <trkpt lat="48.92517" lon="6.64447">
        <ele>282.20001220703</ele>
        <time>2023-08-05T12:07:55.000Z</time>
      </trkpt>
      <trkpt lat="48.92512" lon="6.64405">
        <ele>282.20001220703</ele>
        <time>2023-08-05T12:08:04.000Z</time>
      </trkpt>
      <trkpt lat="48.92508" lon="6.64365">
        <ele>282</ele>
        <time>2023-08-05T12:08:13.000Z</time>
      </trkpt>
      <trkpt lat="48.92506" lon="6.64344">
        <ele>282</ele>
        <time>2023-08-05T12:08:19.000Z</time>
      </trkpt>
      <trkpt lat="48.92498" lon="6.643">
        <ele>282.20001220703</ele>
        <time>2023-08-05T12:08:27.000Z</time>
      </trkpt>
      <trkpt lat="48.92492" lon="6.64264">
        <ele>282.20001220703</ele>
        <time>2023-08-05T12:08:35.000Z</time>
      </trkpt>
      <trkpt lat="48.92486" lon="6.64227">
        <ele>281.60000610352</ele>
        <time>2023-08-05T12:08:42.000Z</time>
      </trkpt>
      <trkpt lat="48.92486" lon="6.64214">
        <ele>281.20001220703</ele>
        <time>2023-08-05T12:08:47.000Z</time>
      </trkpt>
      <trkpt lat="48.92487" lon="6.64213">
        <ele>281.20001220703</ele>
        <time>2023-08-05T12:08:53.000Z</time>
      </trkpt>
      <trkpt lat="48.92487" lon="6.64213">
        <ele>281.20001220703</ele>
        <time>2023-08-05T12:08:54.000Z</time>
      </trkpt>
      <trkpt lat="48.92487" lon="6.64199">
        <ele>282</ele>
        <time>2023-08-05T12:20:09.000Z</time>
      </trkpt>
      <trkpt lat="48.92486" lon="6.6419">
        <ele>281.79998779297</ele>
        <time>2023-08-05T12:20:11.000Z</time>
      </trkpt>
      <trkpt lat="48.92478" lon="6.64165">
        <ele>281.60000610352</ele>
        <time>2023-08-05T12:20:16.000Z</time>
      </trkpt>
      <trkpt lat="48.92469" lon="6.64144">
        <ele>281.20001220703</ele>
        <time>2023-08-05T12:20:22.000Z</time>
      </trkpt>
      <trkpt lat="48.92459" lon="6.64115">
        <ele>281</ele>
        <time>2023-08-05T12:20:28.000Z</time>
      </trkpt>
      <trkpt lat="48.92448" lon="6.64073">
        <ele>281.20001220703</ele>
        <time>2023-08-05T12:20:36.000Z</time>
      </trkpt>
      <trkpt lat="48.92442" lon="6.64036">
        <ele>282</ele>
        <time>2023-08-05T12:20:43.000Z</time>
      </trkpt>
      <trkpt lat="48.92438" lon="6.63987">
        <ele>282.20001220703</ele>
        <time>2023-08-05T12:20:53.000Z</time>
      </trkpt>
      <trkpt lat="48.92438" lon="6.63953">
        <ele>282.60000610352</ele>
        <time>2023-08-05T12:21:00.000Z</time>
      </trkpt>
      <trkpt lat="48.9244" lon="6.63926">
        <ele>282.79998779297</ele>
        <time>2023-08-05T12:21:06.000Z</time>
      </trkpt>
      <trkpt lat="48.92439" lon="6.63915">
        <ele>283.20001220703</ele>
        <time>2023-08-05T12:21:08.000Z</time>
      </trkpt>
      <trkpt lat="48.92439" lon="6.63896">
        <ele>283.39999389648</ele>
        <time>2023-08-05T12:21:12.000Z</time>
      </trkpt>
      <trkpt lat="48.92433" lon="6.6386">
        <ele>284.20001220703</ele>
        <time>2023-08-05T12:21:20.000Z</time>
      </trkpt>
      <trkpt lat="48.92432" lon="6.63845">
        <ele>284.60000610352</ele>
        <time>2023-08-05T12:21:24.000Z</time>
      </trkpt>
      <trkpt lat="48.92429" lon="6.63843">
        <ele>284.79998779297</ele>
        <time>2023-08-05T12:21:26.000Z</time>
      </trkpt>
      <trkpt lat="48.92427" lon="6.63841">
        <ele>285</ele>
        <time>2023-08-05T12:21:27.000Z</time>
      </trkpt>
      <trkpt lat="48.92425" lon="6.63835">
        <ele>285.39999389648</ele>
        <time>2023-08-05T12:21:29.000Z</time>
      </trkpt>
      <trkpt lat="48.92427" lon="6.63828">
        <ele>285.20001220703</ele>
        <time>2023-08-05T12:21:32.000Z</time>
      </trkpt>
      <trkpt lat="48.92431" lon="6.63824">
        <ele>285.20001220703</ele>
        <time>2023-08-05T12:21:34.000Z</time>
      </trkpt>
      <trkpt lat="48.92437" lon="6.63809">
        <ele>285.39999389648</ele>
        <time>2023-08-05T12:21:38.000Z</time>
      </trkpt>
      <trkpt lat="48.92436" lon="6.638">
        <ele>285.39999389648</ele>
        <time>2023-08-05T12:21:40.000Z</time>
      </trkpt>
      <trkpt lat="48.92434" lon="6.63795">
        <ele>285.39999389648</ele>
        <time>2023-08-05T12:21:42.000Z</time>
      </trkpt>
      <trkpt lat="48.92429" lon="6.6379">
        <ele>285.39999389648</ele>
        <time>2023-08-05T12:21:46.000Z</time>
      </trkpt>
      <trkpt lat="48.92427" lon="6.6379">
        <ele>285.39999389648</ele>
        <time>2023-08-05T12:21:47.000Z</time>
      </trkpt>
      <trkpt lat="48.92426" lon="6.63789">
        <ele>285.39999389648</ele>
        <time>2023-08-05T12:21:48.000Z</time>
      </trkpt>
      <trkpt lat="48.92417" lon="6.63785">
        <ele>285.20001220703</ele>
        <time>2023-08-05T12:21:51.000Z</time>
      </trkpt>
      <trkpt lat="48.92397" lon="6.63778">
        <ele>284.20001220703</ele>
        <time>2023-08-05T12:21:56.000Z</time>
      </trkpt>
      <trkpt lat="48.92374" lon="6.6377">
        <ele>283.39999389648</ele>
        <time>2023-08-05T12:22:01.000Z</time>
      </trkpt>
      <trkpt lat="48.92371" lon="6.63769">
        <ele>283.20001220703</ele>
        <time>2023-08-05T12:22:02.000Z</time>
      </trkpt>
      <trkpt lat="48.92369" lon="6.63767">
        <ele>283.20001220703</ele>
        <time>2023-08-05T12:22:03.000Z</time>
      </trkpt>
      <trkpt lat="48.92366" lon="6.63759">
        <ele>282.79998779297</ele>
        <time>2023-08-05T12:22:05.000Z</time>
      </trkpt>
      <trkpt lat="48.92365" lon="6.63755">
        <ele>282.60000610352</ele>
        <time>2023-08-05T12:22:06.000Z</time>
      </trkpt>
      <trkpt lat="48.92363" lon="6.6374">
        <ele>282.20001220703</ele>
        <time>2023-08-05T12:22:09.000Z</time>
      </trkpt>
      <trkpt lat="48.92361" lon="6.63707">
        <ele>281.60000610352</ele>
        <time>2023-08-05T12:22:15.000Z</time>
      </trkpt>
      <trkpt lat="48.92354" lon="6.63665">
        <ele>281.20001220703</ele>
        <time>2023-08-05T12:22:21.000Z</time>
      </trkpt>
      <trkpt lat="48.92351" lon="6.6365">
        <ele>280.79998779297</ele>
        <time>2023-08-05T12:22:23.000Z</time>
      </trkpt>
      <trkpt lat="48.92341" lon="6.63609">
        <ele>279.60000610352</ele>
        <time>2023-08-05T12:22:28.000Z</time>
      </trkpt>
      <trkpt lat="48.92334" lon="6.63576">
        <ele>278.60000610352</ele>
        <time>2023-08-05T12:22:32.000Z</time>
      </trkpt>
      <trkpt lat="48.9233" lon="6.63555">
        <ele>277.60000610352</ele>
        <time>2023-08-05T12:22:35.000Z</time>
      </trkpt>
      <trkpt lat="48.9233" lon="6.63536">
        <ele>276.20001220703</ele>
        <time>2023-08-05T12:22:39.000Z</time>
      </trkpt>
      <trkpt lat="48.92331" lon="6.63528">
        <ele>275.60000610352</ele>
        <time>2023-08-05T12:22:44.000Z</time>
      </trkpt>
      <trkpt lat="48.92333" lon="6.63525">
        <ele>275.39999389648</ele>
        <time>2023-08-05T12:22:51.000Z</time>
      </trkpt>
      <trkpt lat="48.92334" lon="6.63532">
        <ele>276.60000610352</ele>
        <time>2023-08-05T12:33:29.000Z</time>
      </trkpt>
      <trkpt lat="48.92337" lon="6.63534">
        <ele>276.39999389648</ele>
        <time>2023-08-05T12:33:32.000Z</time>
      </trkpt>
      <trkpt lat="48.92348" lon="6.63534">
        <ele>276.79998779297</ele>
        <time>2023-08-05T12:33:37.000Z</time>
      </trkpt>
      <trkpt lat="48.92364" lon="6.63525">
        <ele>277.20001220703</ele>
        <time>2023-08-05T12:33:43.000Z</time>
      </trkpt>
      <trkpt lat="48.92387" lon="6.63516">
        <ele>277.79998779297</ele>
        <time>2023-08-05T12:33:51.000Z</time>
      </trkpt>
      <trkpt lat="48.92393" lon="6.63514">
        <ele>278</ele>
        <time>2023-08-05T12:33:53.000Z</time>
      </trkpt>
      <trkpt lat="48.92416" lon="6.63507">
        <ele>278.79998779297</ele>
        <time>2023-08-05T12:34:00.000Z</time>
      </trkpt>
      <trkpt lat="48.92421" lon="6.63499">
        <ele>279</ele>
        <time>2023-08-05T12:34:02.000Z</time>
      </trkpt>
      <trkpt lat="48.92422" lon="6.63489">
        <ele>279.20001220703</ele>
        <time>2023-08-05T12:34:04.000Z</time>
      </trkpt>
      <trkpt lat="48.92419" lon="6.63455">
        <ele>279.79998779297</ele>
        <time>2023-08-05T12:34:11.000Z</time>
      </trkpt>
      <trkpt lat="48.92414" lon="6.63417">
        <ele>279.79998779297</ele>
        <time>2023-08-05T12:34:18.000Z</time>
      </trkpt>
      <trkpt lat="48.92412" lon="6.63401">
        <ele>280</ele>
        <time>2023-08-05T12:34:21.000Z</time>
      </trkpt>
      <trkpt lat="48.92411" lon="6.63377">
        <ele>280.39999389648</ele>
        <time>2023-08-05T12:34:26.000Z</time>
      </trkpt>
      <trkpt lat="48.92409" lon="6.63352">
        <ele>281.20001220703</ele>
        <time>2023-08-05T12:34:31.000Z</time>
      </trkpt>
      <trkpt lat="48.92409" lon="6.63318">
        <ele>281.79998779297</ele>
        <time>2023-08-05T12:34:38.000Z</time>
      </trkpt>
      <trkpt lat="48.9241" lon="6.63299">
        <ele>282.20001220703</ele>
        <time>2023-08-05T12:34:42.000Z</time>
      </trkpt>
      <trkpt lat="48.92415" lon="6.63276">
        <ele>283</ele>
        <time>2023-08-05T12:34:47.000Z</time>
      </trkpt>
      <trkpt lat="48.92419" lon="6.63268">
        <ele>283.20001220703</ele>
        <time>2023-08-05T12:34:49.000Z</time>
      </trkpt>
      <trkpt lat="48.92423" lon="6.63259">
        <ele>284.20001220703</ele>
        <time>2023-08-05T12:34:52.000Z</time>
      </trkpt>
      <trkpt lat="48.92424" lon="6.63256">
        <ele>284.39999389648</ele>
        <time>2023-08-05T12:34:53.000Z</time>
      </trkpt>
      <trkpt lat="48.92426" lon="6.63245">
        <ele>285</ele>
        <time>2023-08-05T12:34:57.000Z</time>
      </trkpt>
      <trkpt lat="48.92437" lon="6.63228">
        <ele>285.79998779297</ele>
        <time>2023-08-05T12:35:03.000Z</time>
      </trkpt>
      <trkpt lat="48.92454" lon="6.63203">
        <ele>287</ele>
        <time>2023-08-05T12:35:12.000Z</time>
      </trkpt>
      <trkpt lat="48.92465" lon="6.63187">
        <ele>288</ele>
        <time>2023-08-05T12:35:18.000Z</time>
      </trkpt>
      <trkpt lat="48.92468" lon="6.63181">
        <ele>288.60000610352</ele>
        <time>2023-08-05T12:35:20.000Z</time>
      </trkpt>
      <trkpt lat="48.92475" lon="6.6317">
        <ele>289.20001220703</ele>
        <time>2023-08-05T12:35:24.000Z</time>
      </trkpt>
      <trkpt lat="48.92479" lon="6.63162">
        <ele>289.79998779297</ele>
        <time>2023-08-05T12:35:27.000Z</time>
      </trkpt>
      <trkpt lat="48.92483" lon="6.63156">
        <ele>290.20001220703</ele>
        <time>2023-08-05T12:35:29.000Z</time>
      </trkpt>
      <trkpt lat="48.92492" lon="6.63136">
        <ele>290.79998779297</ele>
        <time>2023-08-05T12:35:35.000Z</time>
      </trkpt>
      <trkpt lat="48.92496" lon="6.63126">
        <ele>291.60000610352</ele>
        <time>2023-08-05T12:35:38.000Z</time>
      </trkpt>
      <trkpt lat="48.92507" lon="6.63101">
        <ele>292.60000610352</ele>
        <time>2023-08-05T12:35:46.000Z</time>
      </trkpt>
      <trkpt lat="48.92516" lon="6.63081">
        <ele>293.60000610352</ele>
        <time>2023-08-05T12:35:52.000Z</time>
      </trkpt>
      <trkpt lat="48.9252" lon="6.63071">
        <ele>294.39999389648</ele>
        <time>2023-08-05T12:35:55.000Z</time>
      </trkpt>
      <trkpt lat="48.92523" lon="6.63065">
        <ele>294.79998779297</ele>
        <time>2023-08-05T12:35:57.000Z</time>
      </trkpt>
      <trkpt lat="48.92531" lon="6.63048">
        <ele>295.60000610352</ele>
        <time>2023-08-05T12:36:04.000Z</time>
      </trkpt>
      <trkpt lat="48.92533" lon="6.63041">
        <ele>295.79998779297</ele>
        <time>2023-08-05T12:36:06.000Z</time>
      </trkpt>
      <trkpt lat="48.92541" lon="6.63019">
        <ele>296.79998779297</ele>
        <time>2023-08-05T12:36:13.000Z</time>
      </trkpt>
      <trkpt lat="48.92542" lon="6.63016">
        <ele>297</ele>
        <time>2023-08-05T12:36:14.000Z</time>
      </trkpt>
      <trkpt lat="48.92549" lon="6.62991">
        <ele>298</ele>
        <time>2023-08-05T12:36:21.000Z</time>
      </trkpt>
      <trkpt lat="48.92553" lon="6.62976">
        <ele>298.20001220703</ele>
        <time>2023-08-05T12:36:25.000Z</time>
      </trkpt>
      <trkpt lat="48.92557" lon="6.62958">
        <ele>299</ele>
        <time>2023-08-05T12:36:30.000Z</time>
      </trkpt>
      <trkpt lat="48.92562" lon="6.62937">
        <ele>299.79998779297</ele>
        <time>2023-08-05T12:36:36.000Z</time>
      </trkpt>
      <trkpt lat="48.92563" lon="6.62933">
        <ele>300.20001220703</ele>
        <time>2023-08-05T12:36:37.000Z</time>
      </trkpt>
      <trkpt lat="48.9257" lon="6.62905">
        <ele>301.20001220703</ele>
        <time>2023-08-05T12:36:45.000Z</time>
      </trkpt>
      <trkpt lat="48.92574" lon="6.62886">
        <ele>302</ele>
        <time>2023-08-05T12:36:50.000Z</time>
      </trkpt>
      <trkpt lat="48.92578" lon="6.62875">
        <ele>302.39999389648</ele>
        <time>2023-08-05T12:36:53.000Z</time>
      </trkpt>
      <trkpt lat="48.9258" lon="6.62864">
        <ele>303</ele>
        <time>2023-08-05T12:36:56.000Z</time>
      </trkpt>
      <trkpt lat="48.92581" lon="6.62856">
        <ele>303.39999389648</ele>
        <time>2023-08-05T12:36:58.000Z</time>
      </trkpt>
      <trkpt lat="48.92588" lon="6.6283">
        <ele>304.60000610352</ele>
        <time>2023-08-05T12:37:05.000Z</time>
      </trkpt>
      <trkpt lat="48.92589" lon="6.62826">
        <ele>304.60000610352</ele>
        <time>2023-08-05T12:37:06.000Z</time>
      </trkpt>
      <trkpt lat="48.92596" lon="6.62796">
        <ele>305.79998779297</ele>
        <time>2023-08-05T12:37:14.000Z</time>
      </trkpt>
      <trkpt lat="48.92598" lon="6.62788">
        <ele>306.20001220703</ele>
        <time>2023-08-05T12:37:16.000Z</time>
      </trkpt>
      <trkpt lat="48.92601" lon="6.62773">
        <ele>306.79998779297</ele>
        <time>2023-08-05T12:37:20.000Z</time>
      </trkpt>
      <trkpt lat="48.92604" lon="6.62757">
        <ele>307.20001220703</ele>
        <time>2023-08-05T12:37:24.000Z</time>
      </trkpt>
      <trkpt lat="48.92609" lon="6.62742">
        <ele>307.79998779297</ele>
        <time>2023-08-05T12:37:28.000Z</time>
      </trkpt>
      <trkpt lat="48.92616" lon="6.62712">
        <ele>309</ele>
        <time>2023-08-05T12:37:36.000Z</time>
      </trkpt>
      <trkpt lat="48.92618" lon="6.62705">
        <ele>309.20001220703</ele>
        <time>2023-08-05T12:37:38.000Z</time>
      </trkpt>
      <trkpt lat="48.92621" lon="6.62686">
        <ele>310.20001220703</ele>
        <time>2023-08-05T12:37:43.000Z</time>
      </trkpt>
      <trkpt lat="48.92624" lon="6.62675">
        <ele>310.39999389648</ele>
        <time>2023-08-05T12:37:46.000Z</time>
      </trkpt>
      <trkpt lat="48.92627" lon="6.62658">
        <ele>311.20001220703</ele>
        <time>2023-08-05T12:37:51.000Z</time>
      </trkpt>
      <trkpt lat="48.92629" lon="6.62646">
        <ele>311.60000610352</ele>
        <time>2023-08-05T12:37:54.000Z</time>
      </trkpt>
      <trkpt lat="48.92633" lon="6.62624">
        <ele>312.39999389648</ele>
        <time>2023-08-05T12:38:00.000Z</time>
      </trkpt>
      <trkpt lat="48.92635" lon="6.62605">
        <ele>313.39999389648</ele>
        <time>2023-08-05T12:38:05.000Z</time>
      </trkpt>
      <trkpt lat="48.92638" lon="6.62574">
        <ele>314.60000610352</ele>
        <time>2023-08-05T12:38:13.000Z</time>
      </trkpt>
      <trkpt lat="48.92639" lon="6.62566">
        <ele>314.60000610352</ele>
        <time>2023-08-05T12:38:15.000Z</time>
      </trkpt>
      <trkpt lat="48.9264" lon="6.62554">
        <ele>315.20001220703</ele>
        <time>2023-08-05T12:38:18.000Z</time>
      </trkpt>
      <trkpt lat="48.9264" lon="6.62546">
        <ele>315.60000610352</ele>
        <time>2023-08-05T12:38:20.000Z</time>
      </trkpt>
      <trkpt lat="48.92642" lon="6.6253">
        <ele>316</ele>
        <time>2023-08-05T12:38:24.000Z</time>
      </trkpt>
      <trkpt lat="48.92643" lon="6.62515">
        <ele>316.79998779297</ele>
        <time>2023-08-05T12:38:28.000Z</time>
      </trkpt>
      <trkpt lat="48.92645" lon="6.625">
        <ele>317.60000610352</ele>
        <time>2023-08-05T12:38:32.000Z</time>
      </trkpt>
      <trkpt lat="48.92647" lon="6.62492">
        <ele>318</ele>
        <time>2023-08-05T12:38:34.000Z</time>
      </trkpt>
      <trkpt lat="48.92655" lon="6.62464">
        <ele>319.20001220703</ele>
        <time>2023-08-05T12:38:42.000Z</time>
      </trkpt>
      <trkpt lat="48.92668" lon="6.62437">
        <ele>320.20001220703</ele>
        <time>2023-08-05T12:38:50.000Z</time>
      </trkpt>
      <trkpt lat="48.9267" lon="6.62434">
        <ele>320.60000610352</ele>
        <time>2023-08-05T12:38:51.000Z</time>
      </trkpt>
      <trkpt lat="48.92682" lon="6.62415">
        <ele>321.20001220703</ele>
        <time>2023-08-05T12:38:57.000Z</time>
      </trkpt>
      <trkpt lat="48.92687" lon="6.6241">
        <ele>321.39999389648</ele>
        <time>2023-08-05T12:38:59.000Z</time>
      </trkpt>
      <trkpt lat="48.92712" lon="6.62387">
        <ele>322</ele>
        <time>2023-08-05T12:39:08.000Z</time>
      </trkpt>
      <trkpt lat="48.92737" lon="6.62373">
        <ele>322.20001220703</ele>
        <time>2023-08-05T12:39:16.000Z</time>
      </trkpt>
      <trkpt lat="48.9276" lon="6.62363">
        <ele>322</ele>
        <time>2023-08-05T12:39:22.000Z</time>
      </trkpt>
      <trkpt lat="48.92774" lon="6.62358">
        <ele>321.79998779297</ele>
        <time>2023-08-05T12:39:25.000Z</time>
      </trkpt>
      <trkpt lat="48.92789" lon="6.6235">
        <ele>321.39999389648</ele>
        <time>2023-08-05T12:39:28.000Z</time>
      </trkpt>
      <trkpt lat="48.92794" lon="6.62349">
        <ele>321.20001220703</ele>
        <time>2023-08-05T12:39:29.000Z</time>
      </trkpt>
      <trkpt lat="48.92802" lon="6.62349">
        <ele>321</ele>
        <time>2023-08-05T12:39:31.000Z</time>
      </trkpt>
      <trkpt lat="48.92807" lon="6.6235">
        <ele>320.79998779297</ele>
        <time>2023-08-05T12:39:32.000Z</time>
      </trkpt>
      <trkpt lat="48.92812" lon="6.62351">
        <ele>320.60000610352</ele>
        <time>2023-08-05T12:39:33.000Z</time>
      </trkpt>
      <trkpt lat="48.92816" lon="6.62351">
        <ele>320.20001220703</ele>
        <time>2023-08-05T12:39:34.000Z</time>
      </trkpt>
      <trkpt lat="48.92819" lon="6.6235">
        <ele>320.20001220703</ele>
        <time>2023-08-05T12:39:35.000Z</time>
      </trkpt>
      <trkpt lat="48.92823" lon="6.62348">
        <ele>320</ele>
        <time>2023-08-05T12:39:36.000Z</time>
      </trkpt>
      <trkpt lat="48.92826" lon="6.62345">
        <ele>320</ele>
        <time>2023-08-05T12:39:37.000Z</time>
      </trkpt>
      <trkpt lat="48.9283" lon="6.62335">
        <ele>319.79998779297</ele>
        <time>2023-08-05T12:39:39.000Z</time>
      </trkpt>
      <trkpt lat="48.92833" lon="6.62328">
        <ele>319.79998779297</ele>
        <time>2023-08-05T12:39:40.000Z</time>
      </trkpt>
      <trkpt lat="48.92848" lon="6.62276">
        <ele>319.39999389648</ele>
        <time>2023-08-05T12:39:48.000Z</time>
      </trkpt>
      <trkpt lat="48.92849" lon="6.6227">
        <ele>319.20001220703</ele>
        <time>2023-08-05T12:39:49.000Z</time>
      </trkpt>
      <trkpt lat="48.92863" lon="6.6222">
        <ele>318.20001220703</ele>
        <time>2023-08-05T12:39:55.000Z</time>
      </trkpt>
      <trkpt lat="48.92865" lon="6.62212">
        <ele>318.20001220703</ele>
        <time>2023-08-05T12:39:56.000Z</time>
      </trkpt>
      <trkpt lat="48.92879" lon="6.6216">
        <ele>317</ele>
        <time>2023-08-05T12:40:02.000Z</time>
      </trkpt>
      <trkpt lat="48.92889" lon="6.62124">
        <ele>316.79998779297</ele>
        <time>2023-08-05T12:40:06.000Z</time>
      </trkpt>
      <trkpt lat="48.92899" lon="6.62086">
        <ele>316.20001220703</ele>
        <time>2023-08-05T12:40:10.000Z</time>
      </trkpt>
      <trkpt lat="48.9291" lon="6.62047">
        <ele>314.79998779297</ele>
        <time>2023-08-05T12:40:14.000Z</time>
      </trkpt>
      <trkpt lat="48.92917" lon="6.6202">
        <ele>314.20001220703</ele>
        <time>2023-08-05T12:40:17.000Z</time>
      </trkpt>
      <trkpt lat="48.92925" lon="6.61991">
        <ele>313.79998779297</ele>
        <time>2023-08-05T12:40:20.000Z</time>
      </trkpt>
      <trkpt lat="48.92932" lon="6.61966">
        <ele>313.39999389648</ele>
        <time>2023-08-05T12:40:23.000Z</time>
      </trkpt>
      <trkpt lat="48.92945" lon="6.61919">
        <ele>313.39999389648</ele>
        <time>2023-08-05T12:40:29.000Z</time>
      </trkpt>
      <trkpt lat="48.92965" lon="6.61844">
        <ele>313.39999389648</ele>
        <time>2023-08-05T12:40:39.000Z</time>
      </trkpt>
      <trkpt lat="48.92971" lon="6.61823">
        <ele>313.60000610352</ele>
        <time>2023-08-05T12:40:42.000Z</time>
      </trkpt>
      <trkpt lat="48.92984" lon="6.6178">
        <ele>313.20001220703</ele>
        <time>2023-08-05T12:40:48.000Z</time>
      </trkpt>
      <trkpt lat="48.92993" lon="6.61743">
        <ele>312.79998779297</ele>
        <time>2023-08-05T12:40:53.000Z</time>
      </trkpt>
      <trkpt lat="48.93002" lon="6.61712">
        <ele>312.79998779297</ele>
        <time>2023-08-05T12:40:57.000Z</time>
      </trkpt>
      <trkpt lat="48.9302" lon="6.61642">
        <ele>311.79998779297</ele>
        <time>2023-08-05T12:41:06.000Z</time>
      </trkpt>
      <trkpt lat="48.93023" lon="6.61634">
        <ele>311.79998779297</ele>
        <time>2023-08-05T12:41:07.000Z</time>
      </trkpt>
      <trkpt lat="48.9304" lon="6.61573">
        <ele>310.79998779297</ele>
        <time>2023-08-05T12:41:15.000Z</time>
      </trkpt>
      <trkpt lat="48.93043" lon="6.61559">
        <ele>310.39999389648</ele>
        <time>2023-08-05T12:41:17.000Z</time>
      </trkpt>
      <trkpt lat="48.93056" lon="6.61511">
        <ele>309.39999389648</ele>
        <time>2023-08-05T12:41:22.000Z</time>
      </trkpt>
      <trkpt lat="48.93058" lon="6.61503">
        <ele>309.39999389648</ele>
        <time>2023-08-05T12:41:23.000Z</time>
      </trkpt>
      <trkpt lat="48.93064" lon="6.6148">
        <ele>308.39999389648</ele>
        <time>2023-08-05T12:41:25.000Z</time>
      </trkpt>
      <trkpt lat="48.93072" lon="6.6145">
        <ele>307</ele>
        <time>2023-08-05T12:41:28.000Z</time>
      </trkpt>
      <trkpt lat="48.93079" lon="6.61424">
        <ele>305.79998779297</ele>
        <time>2023-08-05T12:41:30.000Z</time>
      </trkpt>
      <trkpt lat="48.93086" lon="6.61401">
        <ele>304.39999389648</ele>
        <time>2023-08-05T12:41:32.000Z</time>
      </trkpt>
      <trkpt lat="48.93094" lon="6.61373">
        <ele>303.39999389648</ele>
        <time>2023-08-05T12:41:34.000Z</time>
      </trkpt>
      <trkpt lat="48.93097" lon="6.6136">
        <ele>303</ele>
        <time>2023-08-05T12:41:35.000Z</time>
      </trkpt>
      <trkpt lat="48.93101" lon="6.61347">
        <ele>302.39999389648</ele>
        <time>2023-08-05T12:41:36.000Z</time>
      </trkpt>
      <trkpt lat="48.93105" lon="6.61335">
        <ele>302.20001220703</ele>
        <time>2023-08-05T12:41:37.000Z</time>
      </trkpt>
      <trkpt lat="48.93111" lon="6.6131">
        <ele>300.60000610352</ele>
        <time>2023-08-05T12:41:39.000Z</time>
      </trkpt>
      <trkpt lat="48.93117" lon="6.6129">
        <ele>299.39999389648</ele>
        <time>2023-08-05T12:41:41.000Z</time>
      </trkpt>
      <trkpt lat="48.93123" lon="6.61266">
        <ele>298.60000610352</ele>
        <time>2023-08-05T12:41:43.000Z</time>
      </trkpt>
      <trkpt lat="48.93129" lon="6.61246">
        <ele>298.20001220703</ele>
        <time>2023-08-05T12:41:45.000Z</time>
      </trkpt>
      <trkpt lat="48.93143" lon="6.61197">
        <ele>297.60000610352</ele>
        <time>2023-08-05T12:41:50.000Z</time>
      </trkpt>
      <trkpt lat="48.93154" lon="6.6116">
        <ele>297.20001220703</ele>
        <time>2023-08-05T12:41:54.000Z</time>
      </trkpt>
      <trkpt lat="48.93163" lon="6.61125">
        <ele>296.79998779297</ele>
        <time>2023-08-05T12:41:58.000Z</time>
      </trkpt>
      <trkpt lat="48.93177" lon="6.61073">
        <ele>296.79998779297</ele>
        <time>2023-08-05T12:42:05.000Z</time>
      </trkpt>
      <trkpt lat="48.93189" lon="6.61032">
        <ele>297.60000610352</ele>
        <time>2023-08-05T12:42:11.000Z</time>
      </trkpt>
      <trkpt lat="48.93202" lon="6.61">
        <ele>298.20001220703</ele>
        <time>2023-08-05T12:42:16.000Z</time>
      </trkpt>
      <trkpt lat="48.9321" lon="6.6099">
        <ele>298.20001220703</ele>
        <time>2023-08-05T12:42:18.000Z</time>
      </trkpt>
      <trkpt lat="48.93224" lon="6.60975">
        <ele>298.39999389648</ele>
        <time>2023-08-05T12:42:21.000Z</time>
      </trkpt>
      <trkpt lat="48.93242" lon="6.60956">
        <ele>298</ele>
        <time>2023-08-05T12:42:25.000Z</time>
      </trkpt>
      <trkpt lat="48.93271" lon="6.60929">
        <ele>297.20001220703</ele>
        <time>2023-08-05T12:42:31.000Z</time>
      </trkpt>
      <trkpt lat="48.93276" lon="6.60926">
        <ele>297.20001220703</ele>
        <time>2023-08-05T12:42:32.000Z</time>
      </trkpt>
      <trkpt lat="48.93288" lon="6.60922">
        <ele>296.79998779297</ele>
        <time>2023-08-05T12:42:34.000Z</time>
      </trkpt>
      <trkpt lat="48.93306" lon="6.60922">
        <ele>296.39999389648</ele>
        <time>2023-08-05T12:42:37.000Z</time>
      </trkpt>
      <trkpt lat="48.93324" lon="6.60925">
        <ele>296.20001220703</ele>
        <time>2023-08-05T12:42:40.000Z</time>
      </trkpt>
      <trkpt lat="48.93345" lon="6.60928">
        <ele>296</ele>
        <time>2023-08-05T12:42:44.000Z</time>
      </trkpt>
      <trkpt lat="48.93368" lon="6.60923">
        <ele>296.20001220703</ele>
        <time>2023-08-05T12:42:49.000Z</time>
      </trkpt>
      <trkpt lat="48.93372" lon="6.60922">
        <ele>296.39999389648</ele>
        <time>2023-08-05T12:42:50.000Z</time>
      </trkpt>
      <trkpt lat="48.93375" lon="6.6092">
        <ele>296.60000610352</ele>
        <time>2023-08-05T12:42:51.000Z</time>
      </trkpt>
      <trkpt lat="48.93387" lon="6.60913">
        <ele>297.60000610352</ele>
        <time>2023-08-05T12:42:54.000Z</time>
      </trkpt>
      <trkpt lat="48.93394" lon="6.60907">
        <ele>297.79998779297</ele>
        <time>2023-08-05T12:42:56.000Z</time>
      </trkpt>
      <trkpt lat="48.93424" lon="6.60885">
        <ele>298.60000610352</ele>
        <time>2023-08-05T12:43:04.000Z</time>
      </trkpt>
      <trkpt lat="48.93457" lon="6.60862">
        <ele>299</ele>
        <time>2023-08-05T12:43:12.000Z</time>
      </trkpt>
      <trkpt lat="48.93492" lon="6.60842">
        <ele>298.60000610352</ele>
        <time>2023-08-05T12:43:19.000Z</time>
      </trkpt>
      <trkpt lat="48.93527" lon="6.60819">
        <ele>298.39999389648</ele>
        <time>2023-08-05T12:43:27.000Z</time>
      </trkpt>
      <trkpt lat="48.93529" lon="6.60816">
        <ele>298.20001220703</ele>
        <time>2023-08-05T12:43:28.000Z</time>
      </trkpt>
      <trkpt lat="48.93535" lon="6.60804">
        <ele>298.20001220703</ele>
        <time>2023-08-05T12:43:30.000Z</time>
      </trkpt>
      <trkpt lat="48.93536" lon="6.60797">
        <ele>298.20001220703</ele>
        <time>2023-08-05T12:43:31.000Z</time>
      </trkpt>
      <trkpt lat="48.93537" lon="6.6079">
        <ele>298.20001220703</ele>
        <time>2023-08-05T12:43:32.000Z</time>
      </trkpt>
      <trkpt lat="48.93535" lon="6.60777">
        <ele>298.39999389648</ele>
        <time>2023-08-05T12:43:34.000Z</time>
      </trkpt>
      <trkpt lat="48.93532" lon="6.60762">
        <ele>298.60000610352</ele>
        <time>2023-08-05T12:43:36.000Z</time>
      </trkpt>
      <trkpt lat="48.93525" lon="6.6073">
        <ele>299</ele>
        <time>2023-08-05T12:43:41.000Z</time>
      </trkpt>
      <trkpt lat="48.93522" lon="6.60719">
        <ele>299.20001220703</ele>
        <time>2023-08-05T12:43:43.000Z</time>
      </trkpt>
      <trkpt lat="48.93507" lon="6.60657">
        <ele>299.79998779297</ele>
        <time>2023-08-05T12:43:53.000Z</time>
      </trkpt>
      <trkpt lat="48.93493" lon="6.60593">
        <ele>300.60000610352</ele>
        <time>2023-08-05T12:44:03.000Z</time>
      </trkpt>
      <trkpt lat="48.93489" lon="6.60575">
        <ele>300.79998779297</ele>
        <time>2023-08-05T12:44:06.000Z</time>
      </trkpt>
      <trkpt lat="48.9348" lon="6.60535">
        <ele>301.39999389648</ele>
        <time>2023-08-05T12:44:12.000Z</time>
      </trkpt>
      <trkpt lat="48.93469" lon="6.6049">
        <ele>302</ele>
        <time>2023-08-05T12:44:19.000Z</time>
      </trkpt>
      <trkpt lat="48.93459" lon="6.60446">
        <ele>302.39999389648</ele>
        <time>2023-08-05T12:44:26.000Z</time>
      </trkpt>
      <trkpt lat="48.9345" lon="6.60402">
        <ele>303.20001220703</ele>
        <time>2023-08-05T12:44:33.000Z</time>
      </trkpt>
      <trkpt lat="48.93447" lon="6.60391">
        <ele>303.39999389648</ele>
        <time>2023-08-05T12:44:35.000Z</time>
      </trkpt>
      <trkpt lat="48.9344" lon="6.60362">
        <ele>304</ele>
        <time>2023-08-05T12:44:40.000Z</time>
      </trkpt>
      <trkpt lat="48.93435" lon="6.60337">
        <ele>304.20001220703</ele>
        <time>2023-08-05T12:44:44.000Z</time>
      </trkpt>
      <trkpt lat="48.93428" lon="6.60308">
        <ele>304.60000610352</ele>
        <time>2023-08-05T12:44:49.000Z</time>
      </trkpt>
      <trkpt lat="48.93421" lon="6.60277">
        <ele>305.20001220703</ele>
        <time>2023-08-05T12:44:54.000Z</time>
      </trkpt>
      <trkpt lat="48.93419" lon="6.60271">
        <ele>305.39999389648</ele>
        <time>2023-08-05T12:44:55.000Z</time>
      </trkpt>
      <trkpt lat="48.93409" lon="6.60228">
        <ele>306.39999389648</ele>
        <time>2023-08-05T12:45:03.000Z</time>
      </trkpt>
      <trkpt lat="48.93407" lon="6.60222">
        <ele>306.60000610352</ele>
        <time>2023-08-05T12:45:04.000Z</time>
      </trkpt>
      <trkpt lat="48.93399" lon="6.60191">
        <ele>307.60000610352</ele>
        <time>2023-08-05T12:45:10.000Z</time>
      </trkpt>
      <trkpt lat="48.93396" lon="6.60176">
        <ele>308.20001220703</ele>
        <time>2023-08-05T12:45:13.000Z</time>
      </trkpt>
      <trkpt lat="48.93392" lon="6.60161">
        <ele>308.60000610352</ele>
        <time>2023-08-05T12:45:16.000Z</time>
      </trkpt>
      <trkpt lat="48.93385" lon="6.60131">
        <ele>310</ele>
        <time>2023-08-05T12:45:22.000Z</time>
      </trkpt>
      <trkpt lat="48.93378" lon="6.60104">
        <ele>311.20001220703</ele>
        <time>2023-08-05T12:45:28.000Z</time>
      </trkpt>
      <trkpt lat="48.93376" lon="6.60095">
        <ele>311.60000610352</ele>
        <time>2023-08-05T12:45:30.000Z</time>
      </trkpt>
      <trkpt lat="48.93372" lon="6.60078">
        <ele>312.20001220703</ele>
        <time>2023-08-05T12:45:34.000Z</time>
      </trkpt>
      <trkpt lat="48.93366" lon="6.60051">
        <ele>313.20001220703</ele>
        <time>2023-08-05T12:45:40.000Z</time>
      </trkpt>
      <trkpt lat="48.93365" lon="6.60048">
        <ele>313.39999389648</ele>
        <time>2023-08-05T12:45:41.000Z</time>
      </trkpt>
      <trkpt lat="48.93359" lon="6.60019">
        <ele>314.79998779297</ele>
        <time>2023-08-05T12:45:48.000Z</time>
      </trkpt>
      <trkpt lat="48.93358" lon="6.60015">
        <ele>314.79998779297</ele>
        <time>2023-08-05T12:45:49.000Z</time>
      </trkpt>
      <trkpt lat="48.93352" lon="6.5999">
        <ele>316</ele>
        <time>2023-08-05T12:45:55.000Z</time>
      </trkpt>
      <trkpt lat="48.9335" lon="6.59982">
        <ele>316.39999389648</ele>
        <time>2023-08-05T12:45:57.000Z</time>
      </trkpt>
      <trkpt lat="48.93344" lon="6.59953">
        <ele>317.20001220703</ele>
        <time>2023-08-05T12:46:04.000Z</time>
      </trkpt>
      <trkpt lat="48.93339" lon="6.59931">
        <ele>318.20001220703</ele>
        <time>2023-08-05T12:46:09.000Z</time>
      </trkpt>
      <trkpt lat="48.93339" lon="6.59927">
        <ele>318.20001220703</ele>
        <time>2023-08-05T12:46:10.000Z</time>
      </trkpt>
      <trkpt lat="48.93335" lon="6.59894">
        <ele>319.20001220703</ele>
        <time>2023-08-05T12:46:17.000Z</time>
      </trkpt>
      <trkpt lat="48.93335" lon="6.59886">
        <ele>319.39999389648</ele>
        <time>2023-08-05T12:46:19.000Z</time>
      </trkpt>
      <trkpt lat="48.93334" lon="6.59852">
        <ele>320.60000610352</ele>
        <time>2023-08-05T12:46:26.000Z</time>
      </trkpt>
      <trkpt lat="48.93335" lon="6.59832">
        <ele>321</ele>
        <time>2023-08-05T12:46:30.000Z</time>
      </trkpt>
      <trkpt lat="48.93336" lon="6.59813">
        <ele>321.79998779297</ele>
        <time>2023-08-05T12:46:34.000Z</time>
      </trkpt>
      <trkpt lat="48.93339" lon="6.5979">
        <ele>322.39999389648</ele>
        <time>2023-08-05T12:46:39.000Z</time>
      </trkpt>
      <trkpt lat="48.93342" lon="6.59772">
        <ele>322.79998779297</ele>
        <time>2023-08-05T12:46:43.000Z</time>
      </trkpt>
      <trkpt lat="48.93349" lon="6.59746">
        <ele>324</ele>
        <time>2023-08-05T12:46:49.000Z</time>
      </trkpt>
      <trkpt lat="48.9335" lon="6.59741">
        <ele>324.39999389648</ele>
        <time>2023-08-05T12:46:50.000Z</time>
      </trkpt>
      <trkpt lat="48.93357" lon="6.59721">
        <ele>325</ele>
        <time>2023-08-05T12:46:55.000Z</time>
      </trkpt>
      <trkpt lat="48.93364" lon="6.59705">
        <ele>325.60000610352</ele>
        <time>2023-08-05T12:46:59.000Z</time>
      </trkpt>
      <trkpt lat="48.93366" lon="6.59702">
        <ele>325.79998779297</ele>
        <time>2023-08-05T12:47:00.000Z</time>
      </trkpt>
      <trkpt lat="48.9337" lon="6.59695">
        <ele>326</ele>
        <time>2023-08-05T12:47:02.000Z</time>
      </trkpt>
      <trkpt lat="48.93383" lon="6.59673">
        <ele>327</ele>
        <time>2023-08-05T12:47:08.000Z</time>
      </trkpt>
      <trkpt lat="48.93387" lon="6.59667">
        <ele>327.20001220703</ele>
        <time>2023-08-05T12:47:10.000Z</time>
      </trkpt>
      <trkpt lat="48.93405" lon="6.59645">
        <ele>327.79998779297</ele>
        <time>2023-08-05T12:47:17.000Z</time>
      </trkpt>
      <trkpt lat="48.93417" lon="6.59632">
        <ele>328.39999389648</ele>
        <time>2023-08-05T12:47:21.000Z</time>
      </trkpt>
      <trkpt lat="48.93423" lon="6.59627">
        <ele>328.60000610352</ele>
        <time>2023-08-05T12:47:23.000Z</time>
      </trkpt>
      <trkpt lat="48.93449" lon="6.59606">
        <ele>328.79998779297</ele>
        <time>2023-08-05T12:47:30.000Z</time>
      </trkpt>
      <trkpt lat="48.93485" lon="6.59578">
        <ele>328</ele>
        <time>2023-08-05T12:47:38.000Z</time>
      </trkpt>
      <trkpt lat="48.93517" lon="6.59556">
        <ele>327.20001220703</ele>
        <time>2023-08-05T12:47:44.000Z</time>
      </trkpt>
      <trkpt lat="48.93528" lon="6.59548">
        <ele>326.79998779297</ele>
        <time>2023-08-05T12:47:46.000Z</time>
      </trkpt>
      <trkpt lat="48.93553" lon="6.5953">
        <ele>326</ele>
        <time>2023-08-05T12:47:50.000Z</time>
      </trkpt>
      <trkpt lat="48.93568" lon="6.59521">
        <ele>325.39999389648</ele>
        <time>2023-08-05T12:47:52.000Z</time>
      </trkpt>
      <trkpt lat="48.93581" lon="6.59513">
        <ele>324.79998779297</ele>
        <time>2023-08-05T12:47:54.000Z</time>
      </trkpt>
      <trkpt lat="48.93613" lon="6.59499">
        <ele>323.20001220703</ele>
        <time>2023-08-05T12:47:58.000Z</time>
      </trkpt>
      <trkpt lat="48.93631" lon="6.59494">
        <ele>322</ele>
        <time>2023-08-05T12:48:00.000Z</time>
      </trkpt>
      <trkpt lat="48.93659" lon="6.59489">
        <ele>320.60000610352</ele>
        <time>2023-08-05T12:48:03.000Z</time>
      </trkpt>
      <trkpt lat="48.93688" lon="6.59485">
        <ele>319</ele>
        <time>2023-08-05T12:48:06.000Z</time>
      </trkpt>
      <trkpt lat="48.93721" lon="6.59485">
        <ele>318</ele>
        <time>2023-08-05T12:48:09.000Z</time>
      </trkpt>
      <trkpt lat="48.93742" lon="6.59485">
        <ele>316.79998779297</ele>
        <time>2023-08-05T12:48:11.000Z</time>
      </trkpt>
      <trkpt lat="48.93761" lon="6.59481">
        <ele>315.60000610352</ele>
        <time>2023-08-05T12:48:13.000Z</time>
      </trkpt>
      <trkpt lat="48.93774" lon="6.59476">
        <ele>315.39999389648</ele>
        <time>2023-08-05T12:48:14.000Z</time>
      </trkpt>
      <trkpt lat="48.93784" lon="6.5947">
        <ele>314.60000610352</ele>
        <time>2023-08-05T12:48:15.000Z</time>
      </trkpt>
      <trkpt lat="48.93792" lon="6.59464">
        <ele>313.79998779297</ele>
        <time>2023-08-05T12:48:16.000Z</time>
      </trkpt>
      <trkpt lat="48.93801" lon="6.59455">
        <ele>313.39999389648</ele>
        <time>2023-08-05T12:48:17.000Z</time>
      </trkpt>
      <trkpt lat="48.93811" lon="6.59443">
        <ele>312.79998779297</ele>
        <time>2023-08-05T12:48:18.000Z</time>
      </trkpt>
      <trkpt lat="48.93826" lon="6.59417">
        <ele>312</ele>
        <time>2023-08-05T12:48:20.000Z</time>
      </trkpt>
      <trkpt lat="48.93838" lon="6.59392">
        <ele>311</ele>
        <time>2023-08-05T12:48:22.000Z</time>
      </trkpt>
      <trkpt lat="48.9385" lon="6.5936">
        <ele>309.79998779297</ele>
        <time>2023-08-05T12:48:24.000Z</time>
      </trkpt>
      <trkpt lat="48.93867" lon="6.59321">
        <ele>308.20001220703</ele>
        <time>2023-08-05T12:48:27.000Z</time>
      </trkpt>
      <trkpt lat="48.93879" lon="6.5929">
        <ele>306.79998779297</ele>
        <time>2023-08-05T12:48:29.000Z</time>
      </trkpt>
      <trkpt lat="48.93889" lon="6.59266">
        <ele>305.60000610352</ele>
        <time>2023-08-05T12:48:31.000Z</time>
      </trkpt>
      <trkpt lat="48.93901" lon="6.59238">
        <ele>304.60000610352</ele>
        <time>2023-08-05T12:48:33.000Z</time>
      </trkpt>
      <trkpt lat="48.93909" lon="6.59222">
        <ele>303.60000610352</ele>
        <time>2023-08-05T12:48:34.000Z</time>
      </trkpt>
      <trkpt lat="48.93915" lon="6.59212">
        <ele>302.79998779297</ele>
        <time>2023-08-05T12:48:35.000Z</time>
      </trkpt>
      <trkpt lat="48.93922" lon="6.592">
        <ele>302.60000610352</ele>
        <time>2023-08-05T12:48:36.000Z</time>
      </trkpt>
      <trkpt lat="48.93932" lon="6.59187">
        <ele>301.79998779297</ele>
        <time>2023-08-05T12:48:37.000Z</time>
      </trkpt>
      <trkpt lat="48.93941" lon="6.59177">
        <ele>301.20001220703</ele>
        <time>2023-08-05T12:48:38.000Z</time>
      </trkpt>
      <trkpt lat="48.93949" lon="6.5917">
        <ele>300.39999389648</ele>
        <time>2023-08-05T12:48:39.000Z</time>
      </trkpt>
      <trkpt lat="48.93959" lon="6.59162">
        <ele>300.20001220703</ele>
        <time>2023-08-05T12:48:40.000Z</time>
      </trkpt>
      <trkpt lat="48.93969" lon="6.59155">
        <ele>299.20001220703</ele>
        <time>2023-08-05T12:48:41.000Z</time>
      </trkpt>
      <trkpt lat="48.93993" lon="6.59141">
        <ele>298</ele>
        <time>2023-08-05T12:48:43.000Z</time>
      </trkpt>
      <trkpt lat="48.94001" lon="6.59135">
        <ele>297.20001220703</ele>
        <time>2023-08-05T12:48:44.000Z</time>
      </trkpt>
      <trkpt lat="48.94024" lon="6.59119">
        <ele>296</ele>
        <time>2023-08-05T12:48:46.000Z</time>
      </trkpt>
      <trkpt lat="48.94042" lon="6.591">
        <ele>295.20001220703</ele>
        <time>2023-08-05T12:48:48.000Z</time>
      </trkpt>
      <trkpt lat="48.9405" lon="6.59088">
        <ele>294.60000610352</ele>
        <time>2023-08-05T12:48:49.000Z</time>
      </trkpt>
      <trkpt lat="48.94058" lon="6.59075">
        <ele>294.39999389648</ele>
        <time>2023-08-05T12:48:50.000Z</time>
      </trkpt>
      <trkpt lat="48.94067" lon="6.59058">
        <ele>293.39999389648</ele>
        <time>2023-08-05T12:48:51.000Z</time>
      </trkpt>
      <trkpt lat="48.94078" lon="6.59031">
        <ele>292</ele>
        <time>2023-08-05T12:48:53.000Z</time>
      </trkpt>
      <trkpt lat="48.94086" lon="6.59001">
        <ele>290.79998779297</ele>
        <time>2023-08-05T12:48:55.000Z</time>
      </trkpt>
      <trkpt lat="48.94093" lon="6.58972">
        <ele>289.79998779297</ele>
        <time>2023-08-05T12:48:57.000Z</time>
      </trkpt>
      <trkpt lat="48.94096" lon="6.58958">
        <ele>289.39999389648</ele>
        <time>2023-08-05T12:48:58.000Z</time>
      </trkpt>
      <trkpt lat="48.94106" lon="6.58915">
        <ele>288</ele>
        <time>2023-08-05T12:49:01.000Z</time>
      </trkpt>
      <trkpt lat="48.94112" lon="6.58893">
        <ele>287.39999389648</ele>
        <time>2023-08-05T12:49:03.000Z</time>
      </trkpt>
      <trkpt lat="48.94117" lon="6.5887">
        <ele>286.60000610352</ele>
        <time>2023-08-05T12:49:05.000Z</time>
      </trkpt>
      <trkpt lat="48.94133" lon="6.58815">
        <ele>285.39999389648</ele>
        <time>2023-08-05T12:49:10.000Z</time>
      </trkpt>
      <trkpt lat="48.94158" lon="6.58745">
        <ele>284.60000610352</ele>
        <time>2023-08-05T12:49:17.000Z</time>
      </trkpt>
      <trkpt lat="48.94168" lon="6.5872">
        <ele>284.39999389648</ele>
        <time>2023-08-05T12:49:20.000Z</time>
      </trkpt>
      <trkpt lat="48.94193" lon="6.5867">
        <ele>284.39999389648</ele>
        <time>2023-08-05T12:49:26.000Z</time>
      </trkpt>
      <trkpt lat="48.94228" lon="6.58613">
        <ele>284</ele>
        <time>2023-08-05T12:49:34.000Z</time>
      </trkpt>
      <trkpt lat="48.94257" lon="6.58574">
        <ele>283.60000610352</ele>
        <time>2023-08-05T12:49:40.000Z</time>
      </trkpt>
      <trkpt lat="48.94272" lon="6.58556">
        <ele>283.39999389648</ele>
        <time>2023-08-05T12:49:43.000Z</time>
      </trkpt>
      <trkpt lat="48.94314" lon="6.58501">
        <ele>283.20001220703</ele>
        <time>2023-08-05T12:49:52.000Z</time>
      </trkpt>
      <trkpt lat="48.94324" lon="6.58488">
        <ele>283.20001220703</ele>
        <time>2023-08-05T12:49:54.000Z</time>
      </trkpt>
      <trkpt lat="48.94361" lon="6.5844">
        <ele>283.39999389648</ele>
        <time>2023-08-05T12:50:03.000Z</time>
      </trkpt>
      <trkpt lat="48.94369" lon="6.5843">
        <ele>283.39999389648</ele>
        <time>2023-08-05T12:50:05.000Z</time>
      </trkpt>
      <trkpt lat="48.94398" lon="6.58392">
        <ele>284</ele>
        <time>2023-08-05T12:50:13.000Z</time>
      </trkpt>
      <trkpt lat="48.94418" lon="6.58366">
        <ele>284.79998779297</ele>
        <time>2023-08-05T12:50:19.000Z</time>
      </trkpt>
      <trkpt lat="48.94421" lon="6.58361">
        <ele>285</ele>
        <time>2023-08-05T12:50:20.000Z</time>
      </trkpt>
      <trkpt lat="48.94461" lon="6.58309">
        <ele>285</ele>
        <time>2023-08-05T12:50:30.000Z</time>
      </trkpt>
      <trkpt lat="48.94492" lon="6.5827">
        <ele>284.39999389648</ele>
        <time>2023-08-05T12:50:36.000Z</time>
      </trkpt>
      <trkpt lat="48.94502" lon="6.58256">
        <ele>283.79998779297</ele>
        <time>2023-08-05T12:50:38.000Z</time>
      </trkpt>
      <trkpt lat="48.94521" lon="6.5823">
        <ele>282.79998779297</ele>
        <time>2023-08-05T12:50:41.000Z</time>
      </trkpt>
      <trkpt lat="48.94526" lon="6.58224">
        <ele>282.60000610352</ele>
        <time>2023-08-05T12:50:42.000Z</time>
      </trkpt>
      <trkpt lat="48.9454" lon="6.58205">
        <ele>281.60000610352</ele>
        <time>2023-08-05T12:50:44.000Z</time>
      </trkpt>
      <trkpt lat="48.94559" lon="6.58181">
        <ele>280.39999389648</ele>
        <time>2023-08-05T12:50:47.000Z</time>
      </trkpt>
      <trkpt lat="48.94566" lon="6.58172">
        <ele>279.79998779297</ele>
        <time>2023-08-05T12:50:48.000Z</time>
      </trkpt>
      <trkpt lat="48.94582" lon="6.58151">
        <ele>278.79998779297</ele>
        <time>2023-08-05T12:50:50.000Z</time>
      </trkpt>
      <trkpt lat="48.94601" lon="6.58124">
        <ele>277.20001220703</ele>
        <time>2023-08-05T12:50:53.000Z</time>
      </trkpt>
      <trkpt lat="48.94615" lon="6.58106">
        <ele>276.39999389648</ele>
        <time>2023-08-05T12:50:55.000Z</time>
      </trkpt>
      <trkpt lat="48.94621" lon="6.58097">
        <ele>276</ele>
        <time>2023-08-05T12:50:56.000Z</time>
      </trkpt>
      <trkpt lat="48.94652" lon="6.58056">
        <ele>275</ele>
        <time>2023-08-05T12:51:01.000Z</time>
      </trkpt>
      <trkpt lat="48.94665" lon="6.58039">
        <ele>275</ele>
        <time>2023-08-05T12:51:03.000Z</time>
      </trkpt>
      <trkpt lat="48.94692" lon="6.58005">
        <ele>274.79998779297</ele>
        <time>2023-08-05T12:51:08.000Z</time>
      </trkpt>
      <trkpt lat="48.94734" lon="6.57949">
        <ele>274.79998779297</ele>
        <time>2023-08-05T12:51:17.000Z</time>
      </trkpt>
      <trkpt lat="48.9477" lon="6.57899">
        <ele>275.39999389648</ele>
        <time>2023-08-05T12:51:26.000Z</time>
      </trkpt>
      <trkpt lat="48.94811" lon="6.57842">
        <ele>276</ele>
        <time>2023-08-05T12:51:36.000Z</time>
      </trkpt>
      <trkpt lat="48.94819" lon="6.57831">
        <ele>275.79998779297</ele>
        <time>2023-08-05T12:51:38.000Z</time>
      </trkpt>
      <trkpt lat="48.94856" lon="6.57771">
        <ele>276</ele>
        <time>2023-08-05T12:51:47.000Z</time>
      </trkpt>
      <trkpt lat="48.94868" lon="6.57752">
        <ele>276</ele>
        <time>2023-08-05T12:51:50.000Z</time>
      </trkpt>
      <trkpt lat="48.94907" lon="6.57687">
        <ele>275.39999389648</ele>
        <time>2023-08-05T12:51:59.000Z</time>
      </trkpt>
      <trkpt lat="48.94915" lon="6.57673">
        <ele>275.20001220703</ele>
        <time>2023-08-05T12:52:01.000Z</time>
      </trkpt>
      <trkpt lat="48.94953" lon="6.5761">
        <ele>274.60000610352</ele>
        <time>2023-08-05T12:52:10.000Z</time>
      </trkpt>
      <trkpt lat="48.94962" lon="6.57596">
        <ele>274.39999389648</ele>
        <time>2023-08-05T12:52:12.000Z</time>
      </trkpt>
      <trkpt lat="48.94985" lon="6.57557">
        <ele>274.20001220703</ele>
        <time>2023-08-05T12:52:18.000Z</time>
      </trkpt>
      <trkpt lat="48.95001" lon="6.57531">
        <ele>274.20001220703</ele>
        <time>2023-08-05T12:52:22.000Z</time>
      </trkpt>
      <trkpt lat="48.95039" lon="6.57468">
        <ele>274</ele>
        <time>2023-08-05T12:52:32.000Z</time>
      </trkpt>
      <trkpt lat="48.95043" lon="6.57461">
        <ele>274</ele>
        <time>2023-08-05T12:52:33.000Z</time>
      </trkpt>
      <trkpt lat="48.95082" lon="6.57397">
        <ele>273.79998779297</ele>
        <time>2023-08-05T12:52:43.000Z</time>
      </trkpt>
      <trkpt lat="48.9509" lon="6.57382">
        <ele>273.60000610352</ele>
        <time>2023-08-05T12:52:45.000Z</time>
      </trkpt>
      <trkpt lat="48.95129" lon="6.57318">
        <ele>273.39999389648</ele>
        <time>2023-08-05T12:52:55.000Z</time>
      </trkpt>
      <trkpt lat="48.95145" lon="6.5729">
        <ele>273.39999389648</ele>
        <time>2023-08-05T12:52:59.000Z</time>
      </trkpt>
      <trkpt lat="48.95172" lon="6.57245">
        <ele>273.20001220703</ele>
        <time>2023-08-05T12:53:06.000Z</time>
      </trkpt>
      <trkpt lat="48.95188" lon="6.57218">
        <ele>273</ele>
        <time>2023-08-05T12:53:10.000Z</time>
      </trkpt>
      <trkpt lat="48.95222" lon="6.5716">
        <ele>272.79998779297</ele>
        <time>2023-08-05T12:53:19.000Z</time>
      </trkpt>
      <trkpt lat="48.9526" lon="6.57097">
        <ele>273.20001220703</ele>
        <time>2023-08-05T12:53:29.000Z</time>
      </trkpt>
      <trkpt lat="48.95264" lon="6.5709">
        <ele>273.39999389648</ele>
        <time>2023-08-05T12:53:30.000Z</time>
      </trkpt>
      <trkpt lat="48.95301" lon="6.57027">
        <ele>273.39999389648</ele>
        <time>2023-08-05T12:53:40.000Z</time>
      </trkpt>
      <trkpt lat="48.95337" lon="6.56966">
        <ele>273.60000610352</ele>
        <time>2023-08-05T12:53:50.000Z</time>
      </trkpt>
      <trkpt lat="48.95343" lon="6.56956">
        <ele>273.79998779297</ele>
        <time>2023-08-05T12:53:52.000Z</time>
      </trkpt>
      <trkpt lat="48.95373" lon="6.56908">
        <ele>274.20001220703</ele>
        <time>2023-08-05T12:54:01.000Z</time>
      </trkpt>
      <trkpt lat="48.95379" lon="6.56898">
        <ele>274.39999389648</ele>
        <time>2023-08-05T12:54:03.000Z</time>
      </trkpt>
      <trkpt lat="48.95404" lon="6.56855">
        <ele>275.39999389648</ele>
        <time>2023-08-05T12:54:11.000Z</time>
      </trkpt>
      <trkpt lat="48.95435" lon="6.56804">
        <ele>275.20001220703</ele>
        <time>2023-08-05T12:54:19.000Z</time>
      </trkpt>
      <trkpt lat="48.95465" lon="6.56755">
        <ele>274.39999389648</ele>
        <time>2023-08-05T12:54:25.000Z</time>
      </trkpt>
      <trkpt lat="48.95481" lon="6.56728">
        <ele>273.20001220703</ele>
        <time>2023-08-05T12:54:28.000Z</time>
      </trkpt>
      <trkpt lat="48.95498" lon="6.56698">
        <ele>272.39999389648</ele>
        <time>2023-08-05T12:54:31.000Z</time>
      </trkpt>
      <trkpt lat="48.95505" lon="6.56688">
        <ele>272.20001220703</ele>
        <time>2023-08-05T12:54:32.000Z</time>
      </trkpt>
      <trkpt lat="48.95524" lon="6.56655">
        <ele>270.79998779297</ele>
        <time>2023-08-05T12:54:35.000Z</time>
      </trkpt>
      <trkpt lat="48.95542" lon="6.56625">
        <ele>269.79998779297</ele>
        <time>2023-08-05T12:54:38.000Z</time>
      </trkpt>
      <trkpt lat="48.9558" lon="6.56559">
        <ele>269</ele>
        <time>2023-08-05T12:54:45.000Z</time>
      </trkpt>
      <trkpt lat="48.95601" lon="6.56524">
        <ele>269</ele>
        <time>2023-08-05T12:54:49.000Z</time>
      </trkpt>
      <trkpt lat="48.95616" lon="6.56499">
        <ele>268.79998779297</ele>
        <time>2023-08-05T12:54:52.000Z</time>
      </trkpt>
      <trkpt lat="48.95654" lon="6.56433">
        <ele>268.39999389648</ele>
        <time>2023-08-05T12:55:00.000Z</time>
      </trkpt>
      <trkpt lat="48.95663" lon="6.56418">
        <ele>268.39999389648</ele>
        <time>2023-08-05T12:55:02.000Z</time>
      </trkpt>
      <trkpt lat="48.95682" lon="6.56386">
        <ele>268.79998779297</ele>
        <time>2023-08-05T12:55:07.000Z</time>
      </trkpt>
      <trkpt lat="48.95698" lon="6.56359">
        <ele>270</ele>
        <time>2023-08-05T12:55:12.000Z</time>
      </trkpt>
      <trkpt lat="48.95704" lon="6.56349">
        <ele>270.79998779297</ele>
        <time>2023-08-05T12:55:14.000Z</time>
      </trkpt>
      <trkpt lat="48.9571" lon="6.56339">
        <ele>271.20001220703</ele>
        <time>2023-08-05T12:55:16.000Z</time>
      </trkpt>
      <trkpt lat="48.9573" lon="6.56304">
        <ele>272.60000610352</ele>
        <time>2023-08-05T12:55:23.000Z</time>
      </trkpt>
      <trkpt lat="48.95733" lon="6.56299">
        <ele>272.60000610352</ele>
        <time>2023-08-05T12:55:24.000Z</time>
      </trkpt>
      <trkpt lat="48.95756" lon="6.5626">
        <ele>273.79998779297</ele>
        <time>2023-08-05T12:55:32.000Z</time>
      </trkpt>
      <trkpt lat="48.95765" lon="6.56245">
        <ele>274</ele>
        <time>2023-08-05T12:55:35.000Z</time>
      </trkpt>
      <trkpt lat="48.95788" lon="6.56206">
        <ele>274.79998779297</ele>
        <time>2023-08-05T12:55:43.000Z</time>
      </trkpt>
      <trkpt lat="48.95806" lon="6.56177">
        <ele>275.39999389648</ele>
        <time>2023-08-05T12:55:49.000Z</time>
      </trkpt>
      <trkpt lat="48.9582" lon="6.56152">
        <ele>275.79998779297</ele>
        <time>2023-08-05T12:55:54.000Z</time>
      </trkpt>
      <trkpt lat="48.95842" lon="6.56117">
        <ele>276.60000610352</ele>
        <time>2023-08-05T12:56:01.000Z</time>
      </trkpt>
      <trkpt lat="48.95848" lon="6.56106">
        <ele>276.79998779297</ele>
        <time>2023-08-05T12:56:03.000Z</time>
      </trkpt>
      <trkpt lat="48.95878" lon="6.56056">
        <ele>277.39999389648</ele>
        <time>2023-08-05T12:56:12.000Z</time>
      </trkpt>
      <trkpt lat="48.95907" lon="6.56005">
        <ele>277.60000610352</ele>
        <time>2023-08-05T12:56:20.000Z</time>
      </trkpt>
      <trkpt lat="48.95941" lon="6.55949">
        <ele>277.39999389648</ele>
        <time>2023-08-05T12:56:28.000Z</time>
      </trkpt>
      <trkpt lat="48.95975" lon="6.55893">
        <ele>276.79998779297</ele>
        <time>2023-08-05T12:56:36.000Z</time>
      </trkpt>
      <trkpt lat="48.96013" lon="6.55829">
        <ele>276.39999389648</ele>
        <time>2023-08-05T12:56:45.000Z</time>
      </trkpt>
      <trkpt lat="48.96022" lon="6.55814">
        <ele>276.39999389648</ele>
        <time>2023-08-05T12:56:47.000Z</time>
      </trkpt>
      <trkpt lat="48.96056" lon="6.55756">
        <ele>276.20001220703</ele>
        <time>2023-08-05T12:56:56.000Z</time>
      </trkpt>
      <trkpt lat="48.96095" lon="6.5569">
        <ele>276</ele>
        <time>2023-08-05T12:57:06.000Z</time>
      </trkpt>
      <trkpt lat="48.96102" lon="6.55676">
        <ele>276</ele>
        <time>2023-08-05T12:57:08.000Z</time>
      </trkpt>
      <trkpt lat="48.96134" lon="6.55623">
        <ele>276</ele>
        <time>2023-08-05T12:57:16.000Z</time>
      </trkpt>
      <trkpt lat="48.96161" lon="6.55577">
        <ele>276</ele>
        <time>2023-08-05T12:57:23.000Z</time>
      </trkpt>
      <trkpt lat="48.96199" lon="6.55515">
        <ele>276</ele>
        <time>2023-08-05T12:57:33.000Z</time>
      </trkpt>
      <trkpt lat="48.96237" lon="6.55452">
        <ele>275.79998779297</ele>
        <time>2023-08-05T12:57:43.000Z</time>
      </trkpt>
      <trkpt lat="48.96241" lon="6.55445">
        <ele>275.79998779297</ele>
        <time>2023-08-05T12:57:44.000Z</time>
      </trkpt>
      <trkpt lat="48.96264" lon="6.55405">
        <ele>275.39999389648</ele>
        <time>2023-08-05T12:57:51.000Z</time>
      </trkpt>
      <trkpt lat="48.9629" lon="6.55361">
        <ele>275</ele>
        <time>2023-08-05T12:57:58.000Z</time>
      </trkpt>
      <trkpt lat="48.96298" lon="6.55347">
        <ele>274.79998779297</ele>
        <time>2023-08-05T12:58:00.000Z</time>
      </trkpt>
      <trkpt lat="48.96319" lon="6.5531">
        <ele>273.79998779297</ele>
        <time>2023-08-05T12:58:05.000Z</time>
      </trkpt>
      <trkpt lat="48.96329" lon="6.55294">
        <ele>273.79998779297</ele>
        <time>2023-08-05T12:58:07.000Z</time>
      </trkpt>
      <trkpt lat="48.96344" lon="6.5527">
        <ele>273</ele>
        <time>2023-08-05T12:58:10.000Z</time>
      </trkpt>
      <trkpt lat="48.96375" lon="6.55217">
        <ele>271.79998779297</ele>
        <time>2023-08-05T12:58:16.000Z</time>
      </trkpt>
      <trkpt lat="48.96397" lon="6.5518">
        <ele>270.60000610352</ele>
        <time>2023-08-05T12:58:20.000Z</time>
      </trkpt>
      <trkpt lat="48.96413" lon="6.55152">
        <ele>269.60000610352</ele>
        <time>2023-08-05T12:58:23.000Z</time>
      </trkpt>
      <trkpt lat="48.96419" lon="6.55143">
        <ele>269.20001220703</ele>
        <time>2023-08-05T12:58:24.000Z</time>
      </trkpt>
      <trkpt lat="48.96437" lon="6.55114">
        <ele>268.39999389648</ele>
        <time>2023-08-05T12:58:27.000Z</time>
      </trkpt>
      <trkpt lat="48.96454" lon="6.55084">
        <ele>267.79998779297</ele>
        <time>2023-08-05T12:58:30.000Z</time>
      </trkpt>
      <trkpt lat="48.96466" lon="6.55064">
        <ele>267.39999389648</ele>
        <time>2023-08-05T12:58:32.000Z</time>
      </trkpt>
      <trkpt lat="48.96478" lon="6.55045">
        <ele>266.20001220703</ele>
        <time>2023-08-05T12:58:34.000Z</time>
      </trkpt>
      <trkpt lat="48.96502" lon="6.55005">
        <ele>265</ele>
        <time>2023-08-05T12:58:38.000Z</time>
      </trkpt>
      <trkpt lat="48.96521" lon="6.54979">
        <ele>264.39999389648</ele>
        <time>2023-08-05T12:58:41.000Z</time>
      </trkpt>
      <trkpt lat="48.96534" lon="6.54966">
        <ele>263.79998779297</ele>
        <time>2023-08-05T12:58:43.000Z</time>
      </trkpt>
      <trkpt lat="48.96547" lon="6.54955">
        <ele>263.60000610352</ele>
        <time>2023-08-05T12:58:45.000Z</time>
      </trkpt>
      <trkpt lat="48.96578" lon="6.54942">
        <ele>263.60000610352</ele>
        <time>2023-08-05T12:58:50.000Z</time>
      </trkpt>
      <trkpt lat="48.96589" lon="6.5494">
        <ele>263.60000610352</ele>
        <time>2023-08-05T12:58:52.000Z</time>
      </trkpt>
      <trkpt lat="48.96614" lon="6.54939">
        <ele>263.60000610352</ele>
        <time>2023-08-05T12:58:56.000Z</time>
      </trkpt>
      <trkpt lat="48.96657" lon="6.54941">
        <ele>262.60000610352</ele>
        <time>2023-08-05T12:59:02.000Z</time>
      </trkpt>
      <trkpt lat="48.96672" lon="6.54942">
        <ele>262.39999389648</ele>
        <time>2023-08-05T12:59:04.000Z</time>
      </trkpt>
      <trkpt lat="48.96717" lon="6.54944">
        <ele>261.60000610352</ele>
        <time>2023-08-05T12:59:11.000Z</time>
      </trkpt>
      <trkpt lat="48.96723" lon="6.54945">
        <ele>261.60000610352</ele>
        <time>2023-08-05T12:59:12.000Z</time>
      </trkpt>
      <trkpt lat="48.9678" lon="6.54948">
        <ele>261</ele>
        <time>2023-08-05T12:59:21.000Z</time>
      </trkpt>
      <trkpt lat="48.96786" lon="6.54948">
        <ele>261</ele>
        <time>2023-08-05T12:59:22.000Z</time>
      </trkpt>
      <trkpt lat="48.96811" lon="6.54949">
        <ele>260.79998779297</ele>
        <time>2023-08-05T12:59:26.000Z</time>
      </trkpt>
      <trkpt lat="48.96841" lon="6.54952">
        <ele>260.60000610352</ele>
        <time>2023-08-05T12:59:31.000Z</time>
      </trkpt>
      <trkpt lat="48.96884" lon="6.54954">
        <ele>260.39999389648</ele>
        <time>2023-08-05T12:59:39.000Z</time>
      </trkpt>
      <trkpt lat="48.96907" lon="6.54957">
        <ele>260.60000610352</ele>
        <time>2023-08-05T12:59:43.000Z</time>
      </trkpt>
      <trkpt lat="48.96912" lon="6.54956">
        <ele>260.60000610352</ele>
        <time>2023-08-05T12:59:44.000Z</time>
      </trkpt>
      <trkpt lat="48.96923" lon="6.54953">
        <ele>260.60000610352</ele>
        <time>2023-08-05T12:59:46.000Z</time>
      </trkpt>
      <trkpt lat="48.96929" lon="6.5495">
        <ele>260.60000610352</ele>
        <time>2023-08-05T12:59:47.000Z</time>
      </trkpt>
      <trkpt lat="48.96937" lon="6.54943">
        <ele>260.60000610352</ele>
        <time>2023-08-05T12:59:49.000Z</time>
      </trkpt>
      <trkpt lat="48.96941" lon="6.54938">
        <ele>260.60000610352</ele>
        <time>2023-08-05T12:59:50.000Z</time>
      </trkpt>
      <trkpt lat="48.96945" lon="6.5493">
        <ele>260.60000610352</ele>
        <time>2023-08-05T12:59:51.000Z</time>
      </trkpt>
      <trkpt lat="48.9695" lon="6.54917">
        <ele>260.79998779297</ele>
        <time>2023-08-05T12:59:53.000Z</time>
      </trkpt>
      <trkpt lat="48.96955" lon="6.54893">
        <ele>261</ele>
        <time>2023-08-05T12:59:56.000Z</time>
      </trkpt>
      <trkpt lat="48.96957" lon="6.5488">
        <ele>261.20001220703</ele>
        <time>2023-08-05T12:59:58.000Z</time>
      </trkpt>
      <trkpt lat="48.96963" lon="6.54836">
        <ele>261.79998779297</ele>
        <time>2023-08-05T13:00:04.000Z</time>
      </trkpt>
      <trkpt lat="48.96966" lon="6.54813">
        <ele>262.20001220703</ele>
        <time>2023-08-05T13:00:07.000Z</time>
      </trkpt>
      <trkpt lat="48.96976" lon="6.54751">
        <ele>262</ele>
        <time>2023-08-05T13:00:15.000Z</time>
      </trkpt>
      <trkpt lat="48.96993" lon="6.54689">
        <ele>261.60000610352</ele>
        <time>2023-08-05T13:00:23.000Z</time>
      </trkpt>
      <trkpt lat="48.97013" lon="6.54639">
        <ele>261.20001220703</ele>
        <time>2023-08-05T13:00:30.000Z</time>
      </trkpt>
      <trkpt lat="48.97019" lon="6.54626">
        <ele>261</ele>
        <time>2023-08-05T13:00:32.000Z</time>
      </trkpt>
      <trkpt lat="48.9704" lon="6.54575">
        <ele>261</ele>
        <time>2023-08-05T13:00:39.000Z</time>
      </trkpt>
      <trkpt lat="48.97059" lon="6.54527">
        <ele>261.39999389648</ele>
        <time>2023-08-05T13:00:46.000Z</time>
      </trkpt>
      <trkpt lat="48.97084" lon="6.54464">
        <ele>261.60000610352</ele>
        <time>2023-08-05T13:00:55.000Z</time>
      </trkpt>
      <trkpt lat="48.9711" lon="6.54401">
        <ele>261.39999389648</ele>
        <time>2023-08-05T13:01:04.000Z</time>
      </trkpt>
      <trkpt lat="48.9714" lon="6.54325">
        <ele>261.20001220703</ele>
        <time>2023-08-05T13:01:14.000Z</time>
      </trkpt>
      <trkpt lat="48.97144" lon="6.54317">
        <ele>261.20001220703</ele>
        <time>2023-08-05T13:01:15.000Z</time>
      </trkpt>
      <trkpt lat="48.97163" lon="6.54268">
        <ele>261.20001220703</ele>
        <time>2023-08-05T13:01:21.000Z</time>
      </trkpt>
      <trkpt lat="48.97166" lon="6.54261">
        <ele>261</ele>
        <time>2023-08-05T13:01:22.000Z</time>
      </trkpt>
      <trkpt lat="48.97191" lon="6.54201">
        <ele>261.20001220703</ele>
        <time>2023-08-05T13:01:30.000Z</time>
      </trkpt>
      <trkpt lat="48.97221" lon="6.54125">
        <ele>261.20001220703</ele>
        <time>2023-08-05T13:01:40.000Z</time>
      </trkpt>
      <trkpt lat="48.97249" lon="6.54057">
        <ele>261</ele>
        <time>2023-08-05T13:01:49.000Z</time>
      </trkpt>
      <trkpt lat="48.97276" lon="6.53991">
        <ele>261.20001220703</ele>
        <time>2023-08-05T13:01:58.000Z</time>
      </trkpt>
      <trkpt lat="48.97289" lon="6.53935">
        <ele>261.39999389648</ele>
        <time>2023-08-05T13:02:05.000Z</time>
      </trkpt>
      <trkpt lat="48.97291" lon="6.53884">
        <ele>261.39999389648</ele>
        <time>2023-08-05T13:02:11.000Z</time>
      </trkpt>
      <trkpt lat="48.9729" lon="6.53875">
        <ele>261.20001220703</ele>
        <time>2023-08-05T13:02:12.000Z</time>
      </trkpt>
      <trkpt lat="48.97279" lon="6.53816">
        <ele>261.20001220703</ele>
        <time>2023-08-05T13:02:19.000Z</time>
      </trkpt>
      <trkpt lat="48.97266" lon="6.53778">
        <ele>261</ele>
        <time>2023-08-05T13:02:24.000Z</time>
      </trkpt>
      <trkpt lat="48.97258" lon="6.53754">
        <ele>260.79998779297</ele>
        <time>2023-08-05T13:02:27.000Z</time>
      </trkpt>
      <trkpt lat="48.9723" lon="6.53676">
        <ele>260.60000610352</ele>
        <time>2023-08-05T13:02:37.000Z</time>
      </trkpt>
      <trkpt lat="48.97207" lon="6.53614">
        <ele>260.39999389648</ele>
        <time>2023-08-05T13:02:45.000Z</time>
      </trkpt>
      <trkpt lat="48.97204" lon="6.53606">
        <ele>260.39999389648</ele>
        <time>2023-08-05T13:02:46.000Z</time>
      </trkpt>
      <trkpt lat="48.97186" lon="6.53561">
        <ele>260.20001220703</ele>
        <time>2023-08-05T13:02:52.000Z</time>
      </trkpt>
      <trkpt lat="48.97158" lon="6.53481">
        <ele>260.39999389648</ele>
        <time>2023-08-05T13:03:02.000Z</time>
      </trkpt>
      <trkpt lat="48.97156" lon="6.53473">
        <ele>260.39999389648</ele>
        <time>2023-08-05T13:03:03.000Z</time>
      </trkpt>
      <trkpt lat="48.97133" lon="6.53411">
        <ele>260.39999389648</ele>
        <time>2023-08-05T13:03:11.000Z</time>
      </trkpt>
      <trkpt lat="48.97105" lon="6.53334">
        <ele>260.20001220703</ele>
        <time>2023-08-05T13:03:21.000Z</time>
      </trkpt>
      <trkpt lat="48.97103" lon="6.53326">
        <ele>260.20001220703</ele>
        <time>2023-08-05T13:03:22.000Z</time>
      </trkpt>
      <trkpt lat="48.97095" lon="6.533">
        <ele>260</ele>
        <time>2023-08-05T13:03:25.000Z</time>
      </trkpt>
      <trkpt lat="48.97089" lon="6.53268">
        <ele>259.79998779297</ele>
        <time>2023-08-05T13:03:29.000Z</time>
      </trkpt>
      <trkpt lat="48.97087" lon="6.53224">
        <ele>259.79998779297</ele>
        <time>2023-08-05T13:03:34.000Z</time>
      </trkpt>
      <trkpt lat="48.97088" lon="6.53215">
        <ele>259.79998779297</ele>
        <time>2023-08-05T13:03:35.000Z</time>
      </trkpt>
      <trkpt lat="48.97097" lon="6.53158">
        <ele>259.60000610352</ele>
        <time>2023-08-05T13:03:42.000Z</time>
      </trkpt>
      <trkpt lat="48.9711" lon="6.53087">
        <ele>259.60000610352</ele>
        <time>2023-08-05T13:03:51.000Z</time>
      </trkpt>
      <trkpt lat="48.97114" lon="6.53071">
        <ele>259.60000610352</ele>
        <time>2023-08-05T13:03:53.000Z</time>
      </trkpt>
      <trkpt lat="48.97118" lon="6.53048">
        <ele>260</ele>
        <time>2023-08-05T13:03:56.000Z</time>
      </trkpt>
      <trkpt lat="48.97127" lon="6.52998">
        <ele>259.79998779297</ele>
        <time>2023-08-05T13:04:02.000Z</time>
      </trkpt>
      <trkpt lat="48.97143" lon="6.52917">
        <ele>260.20001220703</ele>
        <time>2023-08-05T13:04:12.000Z</time>
      </trkpt>
      <trkpt lat="48.97147" lon="6.529">
        <ele>260.39999389648</ele>
        <time>2023-08-05T13:04:14.000Z</time>
      </trkpt>
      <trkpt lat="48.97152" lon="6.52876">
        <ele>260.39999389648</ele>
        <time>2023-08-05T13:04:17.000Z</time>
      </trkpt>
      <trkpt lat="48.97157" lon="6.52851">
        <ele>260.60000610352</ele>
        <time>2023-08-05T13:04:20.000Z</time>
      </trkpt>
      <trkpt lat="48.97168" lon="6.52794">
        <ele>260.79998779297</ele>
        <time>2023-08-05T13:04:27.000Z</time>
      </trkpt>
      <trkpt lat="48.97184" lon="6.52712">
        <ele>261</ele>
        <time>2023-08-05T13:04:37.000Z</time>
      </trkpt>
      <trkpt lat="48.97187" lon="6.52698">
        <ele>261</ele>
        <time>2023-08-05T13:04:39.000Z</time>
      </trkpt>
      <trkpt lat="48.97188" lon="6.5269">
        <ele>261.20001220703</ele>
        <time>2023-08-05T13:04:40.000Z</time>
      </trkpt>
      <trkpt lat="48.97204" lon="6.52609">
        <ele>261.60000610352</ele>
        <time>2023-08-05T13:04:50.000Z</time>
      </trkpt>
      <trkpt lat="48.9722" lon="6.52528">
        <ele>262.39999389648</ele>
        <time>2023-08-05T13:05:00.000Z</time>
      </trkpt>
      <trkpt lat="48.97223" lon="6.52512">
        <ele>262.60000610352</ele>
        <time>2023-08-05T13:05:02.000Z</time>
      </trkpt>
      <trkpt lat="48.97226" lon="6.52496">
        <ele>262.60000610352</ele>
        <time>2023-08-05T13:05:04.000Z</time>
      </trkpt>
      <trkpt lat="48.97233" lon="6.52464">
        <ele>262.60000610352</ele>
        <time>2023-08-05T13:05:08.000Z</time>
      </trkpt>
      <trkpt lat="48.9724" lon="6.52431">
        <ele>262.60000610352</ele>
        <time>2023-08-05T13:05:12.000Z</time>
      </trkpt>
      <trkpt lat="48.97262" lon="6.52358">
        <ele>262.60000610352</ele>
        <time>2023-08-05T13:05:21.000Z</time>
      </trkpt>
      <trkpt lat="48.97287" lon="6.52292">
        <ele>262.20001220703</ele>
        <time>2023-08-05T13:05:29.000Z</time>
      </trkpt>
      <trkpt lat="48.97308" lon="6.52236">
        <ele>261.79998779297</ele>
        <time>2023-08-05T13:05:36.000Z</time>
      </trkpt>
      <trkpt lat="48.97329" lon="6.52182">
        <ele>261.60000610352</ele>
        <time>2023-08-05T13:05:43.000Z</time>
      </trkpt>
      <trkpt lat="48.97359" lon="6.52104">
        <ele>261.60000610352</ele>
        <time>2023-08-05T13:05:53.000Z</time>
      </trkpt>
      <trkpt lat="48.97361" lon="6.52097">
        <ele>261.79998779297</ele>
        <time>2023-08-05T13:05:54.000Z</time>
      </trkpt>
      <trkpt lat="48.9739" lon="6.5202">
        <ele>261.60000610352</ele>
        <time>2023-08-05T13:06:04.000Z</time>
      </trkpt>
      <trkpt lat="48.97393" lon="6.52013">
        <ele>261.60000610352</ele>
        <time>2023-08-05T13:06:05.000Z</time>
      </trkpt>
      <trkpt lat="48.97421" lon="6.51936">
        <ele>261.60000610352</ele>
        <time>2023-08-05T13:06:15.000Z</time>
      </trkpt>
      <trkpt lat="48.97447" lon="6.5187">
        <ele>262</ele>
        <time>2023-08-05T13:06:24.000Z</time>
      </trkpt>
      <trkpt lat="48.97474" lon="6.51798">
        <ele>262.20001220703</ele>
        <time>2023-08-05T13:06:34.000Z</time>
      </trkpt>
      <trkpt lat="48.97501" lon="6.51726">
        <ele>262.60000610352</ele>
        <time>2023-08-05T13:06:44.000Z</time>
      </trkpt>
      <trkpt lat="48.97504" lon="6.51719">
        <ele>262.60000610352</ele>
        <time>2023-08-05T13:06:45.000Z</time>
      </trkpt>
      <trkpt lat="48.97528" lon="6.51657">
        <ele>262.79998779297</ele>
        <time>2023-08-05T13:06:54.000Z</time>
      </trkpt>
      <trkpt lat="48.97543" lon="6.51618">
        <ele>263.20001220703</ele>
        <time>2023-08-05T13:07:00.000Z</time>
      </trkpt>
      <trkpt lat="48.9755" lon="6.51599">
        <ele>263.60000610352</ele>
        <time>2023-08-05T13:07:03.000Z</time>
      </trkpt>
      <trkpt lat="48.97553" lon="6.51594">
        <ele>263.60000610352</ele>
        <time>2023-08-05T13:07:04.000Z</time>
      </trkpt>
      <trkpt lat="48.9756" lon="6.51586">
        <ele>263.79998779297</ele>
        <time>2023-08-05T13:07:06.000Z</time>
      </trkpt>
      <trkpt lat="48.9757" lon="6.51585">
        <ele>263.79998779297</ele>
        <time>2023-08-05T13:07:08.000Z</time>
      </trkpt>
      <trkpt lat="48.9758" lon="6.51588">
        <ele>264</ele>
        <time>2023-08-05T13:07:10.000Z</time>
      </trkpt>
      <trkpt lat="48.97604" lon="6.51597">
        <ele>264.20001220703</ele>
        <time>2023-08-05T13:07:15.000Z</time>
      </trkpt>
      <trkpt lat="48.97627" lon="6.51608">
        <ele>264.20001220703</ele>
        <time>2023-08-05T13:07:20.000Z</time>
      </trkpt>
      <trkpt lat="48.97676" lon="6.51633">
        <ele>265</ele>
        <time>2023-08-05T13:07:31.000Z</time>
      </trkpt>
      <trkpt lat="48.97699" lon="6.51644">
        <ele>265.39999389648</ele>
        <time>2023-08-05T13:07:36.000Z</time>
      </trkpt>
      <trkpt lat="48.97729" lon="6.51659">
        <ele>265.79998779297</ele>
        <time>2023-08-05T13:07:42.000Z</time>
      </trkpt>
      <trkpt lat="48.97765" lon="6.51677">
        <ele>266.39999389648</ele>
        <time>2023-08-05T13:07:50.000Z</time>
      </trkpt>
      <trkpt lat="48.97769" lon="6.51678">
        <ele>266.60000610352</ele>
        <time>2023-08-05T13:07:51.000Z</time>
      </trkpt>
      <trkpt lat="48.97785" lon="6.51687">
        <ele>267</ele>
        <time>2023-08-05T13:07:56.000Z</time>
      </trkpt>
      <trkpt lat="48.97786" lon="6.51687">
        <ele>267.20001220703</ele>
        <time>2023-08-05T13:07:59.000Z</time>
      </trkpt>
      <trkpt lat="48.97788" lon="6.51688">
        <ele>267</ele>
        <time>2023-08-05T13:11:57.000Z</time>
      </trkpt>
      <trkpt lat="48.97796" lon="6.51691">
        <ele>267</ele>
        <time>2023-08-05T13:12:00.000Z</time>
      </trkpt>
      <trkpt lat="48.97818" lon="6.51701">
        <ele>266.79998779297</ele>
        <time>2023-08-05T13:12:05.000Z</time>
      </trkpt>
      <trkpt lat="48.97835" lon="6.5171">
        <ele>266.39999389648</ele>
        <time>2023-08-05T13:12:08.000Z</time>
      </trkpt>
      <trkpt lat="48.97847" lon="6.51716">
        <ele>266</ele>
        <time>2023-08-05T13:12:10.000Z</time>
      </trkpt>
      <trkpt lat="48.97867" lon="6.51725">
        <ele>265.20001220703</ele>
        <time>2023-08-05T13:12:13.000Z</time>
      </trkpt>
      <trkpt lat="48.97888" lon="6.51733">
        <ele>264.20001220703</ele>
        <time>2023-08-05T13:12:16.000Z</time>
      </trkpt>
      <trkpt lat="48.97895" lon="6.51734">
        <ele>264</ele>
        <time>2023-08-05T13:12:17.000Z</time>
      </trkpt>
      <trkpt lat="48.97933" lon="6.51738">
        <ele>263.39999389648</ele>
        <time>2023-08-05T13:12:23.000Z</time>
      </trkpt>
      <trkpt lat="48.97967" lon="6.51737">
        <ele>264.39999389648</ele>
        <time>2023-08-05T13:12:30.000Z</time>
      </trkpt>
      <trkpt lat="48.97987" lon="6.51731">
        <ele>265.39999389648</ele>
        <time>2023-08-05T13:12:35.000Z</time>
      </trkpt>
      <trkpt lat="48.97994" lon="6.51728">
        <ele>265.79998779297</ele>
        <time>2023-08-05T13:12:37.000Z</time>
      </trkpt>
      <trkpt lat="48.98005" lon="6.51722">
        <ele>266.39999389648</ele>
        <time>2023-08-05T13:12:40.000Z</time>
      </trkpt>
      <trkpt lat="48.98023" lon="6.51713">
        <ele>267</ele>
        <time>2023-08-05T13:12:45.000Z</time>
      </trkpt>
      <trkpt lat="48.98034" lon="6.51707">
        <ele>267.39999389648</ele>
        <time>2023-08-05T13:12:48.000Z</time>
      </trkpt>
      <trkpt lat="48.98055" lon="6.51697">
        <ele>268.20001220703</ele>
        <time>2023-08-05T13:12:54.000Z</time>
      </trkpt>
      <trkpt lat="48.98075" lon="6.51686">
        <ele>268.79998779297</ele>
        <time>2023-08-05T13:13:00.000Z</time>
      </trkpt>
      <trkpt lat="48.98096" lon="6.51674">
        <ele>269.20001220703</ele>
        <time>2023-08-05T13:13:06.000Z</time>
      </trkpt>
      <trkpt lat="48.98109" lon="6.51667">
        <ele>269.79998779297</ele>
        <time>2023-08-05T13:13:10.000Z</time>
      </trkpt>
      <trkpt lat="48.98127" lon="6.51658">
        <ele>270.20001220703</ele>
        <time>2023-08-05T13:13:15.000Z</time>
      </trkpt>
      <trkpt lat="48.98143" lon="6.51649">
        <ele>270.79998779297</ele>
        <time>2023-08-05T13:13:20.000Z</time>
      </trkpt>
      <trkpt lat="48.98166" lon="6.51637">
        <ele>271.79998779297</ele>
        <time>2023-08-05T13:13:27.000Z</time>
      </trkpt>
      <trkpt lat="48.9817" lon="6.51635">
        <ele>271.79998779297</ele>
        <time>2023-08-05T13:13:28.000Z</time>
      </trkpt>
      <trkpt lat="48.98198" lon="6.51621">
        <ele>273.20001220703</ele>
        <time>2023-08-05T13:13:36.000Z</time>
      </trkpt>
      <trkpt lat="48.98203" lon="6.51618">
        <ele>273.39999389648</ele>
        <time>2023-08-05T13:13:38.000Z</time>
      </trkpt>
      <trkpt lat="48.9822" lon="6.51609">
        <ele>274.20001220703</ele>
        <time>2023-08-05T13:13:43.000Z</time>
      </trkpt>
      <trkpt lat="48.98243" lon="6.51596">
        <ele>275</ele>
        <time>2023-08-05T13:13:50.000Z</time>
      </trkpt>
      <trkpt lat="48.9825" lon="6.51593">
        <ele>275.39999389648</ele>
        <time>2023-08-05T13:13:52.000Z</time>
      </trkpt>
      <trkpt lat="48.98287" lon="6.51574">
        <ele>276.20001220703</ele>
        <time>2023-08-05T13:14:02.000Z</time>
      </trkpt>
      <trkpt lat="48.983" lon="6.51567">
        <ele>276.39999389648</ele>
        <time>2023-08-05T13:14:06.000Z</time>
      </trkpt>
      <trkpt lat="48.98329" lon="6.51552">
        <ele>277</ele>
        <time>2023-08-05T13:14:14.000Z</time>
      </trkpt>
      <trkpt lat="48.98345" lon="6.51544">
        <ele>277.39999389648</ele>
        <time>2023-08-05T13:14:18.000Z</time>
      </trkpt>
      <trkpt lat="48.98367" lon="6.51533">
        <ele>277.79998779297</ele>
        <time>2023-08-05T13:14:24.000Z</time>
      </trkpt>
      <trkpt lat="48.98391" lon="6.5152">
        <ele>278.39999389648</ele>
        <time>2023-08-05T13:14:31.000Z</time>
      </trkpt>
      <trkpt lat="48.98409" lon="6.51511">
        <ele>279</ele>
        <time>2023-08-05T13:14:36.000Z</time>
      </trkpt>
      <trkpt lat="48.98428" lon="6.515">
        <ele>279.60000610352</ele>
        <time>2023-08-05T13:14:41.000Z</time>
      </trkpt>
      <trkpt lat="48.98438" lon="6.51496">
        <ele>280</ele>
        <time>2023-08-05T13:14:44.000Z</time>
      </trkpt>
      <trkpt lat="48.98463" lon="6.51482">
        <ele>280.60000610352</ele>
        <time>2023-08-05T13:14:51.000Z</time>
      </trkpt>
      <trkpt lat="48.98481" lon="6.51473">
        <ele>281</ele>
        <time>2023-08-05T13:14:56.000Z</time>
      </trkpt>
      <trkpt lat="48.985" lon="6.51463">
        <ele>281.79998779297</ele>
        <time>2023-08-05T13:15:01.000Z</time>
      </trkpt>
      <trkpt lat="48.98519" lon="6.51453">
        <ele>282</ele>
        <time>2023-08-05T13:15:06.000Z</time>
      </trkpt>
      <trkpt lat="48.98553" lon="6.51434">
        <ele>282.60000610352</ele>
        <time>2023-08-05T13:15:15.000Z</time>
      </trkpt>
      <trkpt lat="48.98565" lon="6.51429">
        <ele>282.79998779297</ele>
        <time>2023-08-05T13:15:18.000Z</time>
      </trkpt>
      <trkpt lat="48.98591" lon="6.51415">
        <ele>283.20001220703</ele>
        <time>2023-08-05T13:15:25.000Z</time>
      </trkpt>
      <trkpt lat="48.9862" lon="6.514">
        <ele>283.79998779297</ele>
        <time>2023-08-05T13:15:33.000Z</time>
      </trkpt>
      <trkpt lat="48.98631" lon="6.51394">
        <ele>284</ele>
        <time>2023-08-05T13:15:36.000Z</time>
      </trkpt>
      <trkpt lat="48.98663" lon="6.51377">
        <ele>284.79998779297</ele>
        <time>2023-08-05T13:15:45.000Z</time>
      </trkpt>
      <trkpt lat="48.98673" lon="6.51372">
        <ele>285.60000610352</ele>
        <time>2023-08-05T13:15:48.000Z</time>
      </trkpt>
      <trkpt lat="48.98691" lon="6.51363">
        <ele>286</ele>
        <time>2023-08-05T13:15:53.000Z</time>
      </trkpt>
      <trkpt lat="48.98718" lon="6.51348">
        <ele>286.79998779297</ele>
        <time>2023-08-05T13:16:00.000Z</time>
      </trkpt>
      <trkpt lat="48.98739" lon="6.51337">
        <ele>287</ele>
        <time>2023-08-05T13:16:05.000Z</time>
      </trkpt>
      <trkpt lat="48.98753" lon="6.5133">
        <ele>287.20001220703</ele>
        <time>2023-08-05T13:16:08.000Z</time>
      </trkpt>
      <trkpt lat="48.98779" lon="6.51316">
        <ele>286.79998779297</ele>
        <time>2023-08-05T13:16:13.000Z</time>
      </trkpt>
      <trkpt lat="48.98795" lon="6.51307">
        <ele>286.60000610352</ele>
        <time>2023-08-05T13:16:16.000Z</time>
      </trkpt>
      <trkpt lat="48.98823" lon="6.51292">
        <ele>286</ele>
        <time>2023-08-05T13:16:21.000Z</time>
      </trkpt>
      <trkpt lat="48.98842" lon="6.51283">
        <ele>285.60000610352</ele>
        <time>2023-08-05T13:16:24.000Z</time>
      </trkpt>
      <trkpt lat="48.9888" lon="6.51263">
        <ele>285</ele>
        <time>2023-08-05T13:16:30.000Z</time>
      </trkpt>
      <trkpt lat="48.98899" lon="6.51256">
        <ele>284.39999389648</ele>
        <time>2023-08-05T13:16:33.000Z</time>
      </trkpt>
      <trkpt lat="48.98919" lon="6.51251">
        <ele>284</ele>
        <time>2023-08-05T13:16:36.000Z</time>
      </trkpt>
      <trkpt lat="48.98938" lon="6.5125">
        <ele>283.60000610352</ele>
        <time>2023-08-05T13:16:39.000Z</time>
      </trkpt>
      <trkpt lat="48.98985" lon="6.51261">
        <ele>282.79998779297</ele>
        <time>2023-08-05T13:16:46.000Z</time>
      </trkpt>
      <trkpt lat="48.99032" lon="6.51279">
        <ele>282.60000610352</ele>
        <time>2023-08-05T13:16:54.000Z</time>
      </trkpt>
      <trkpt lat="48.99058" lon="6.5129">
        <ele>283.79998779297</ele>
        <time>2023-08-05T13:17:00.000Z</time>
      </trkpt>
      <trkpt lat="48.99062" lon="6.51292">
        <ele>284</ele>
        <time>2023-08-05T13:17:01.000Z</time>
      </trkpt>
      <trkpt lat="48.99082" lon="6.513">
        <ele>285.39999389648</ele>
        <time>2023-08-05T13:17:06.000Z</time>
      </trkpt>
      <trkpt lat="48.99085" lon="6.51301">
        <ele>285.39999389648</ele>
        <time>2023-08-05T13:17:07.000Z</time>
      </trkpt>
      <trkpt lat="48.99109" lon="6.51311">
        <ele>286.39999389648</ele>
        <time>2023-08-05T13:17:13.000Z</time>
      </trkpt>
      <trkpt lat="48.99125" lon="6.51318">
        <ele>286.79998779297</ele>
        <time>2023-08-05T13:17:17.000Z</time>
      </trkpt>
      <trkpt lat="48.99169" lon="6.51336">
        <ele>287</ele>
        <time>2023-08-05T13:17:27.000Z</time>
      </trkpt>
      <trkpt lat="48.99214" lon="6.51352">
        <ele>286.79998779297</ele>
        <time>2023-08-05T13:17:36.000Z</time>
      </trkpt>
      <trkpt lat="48.99248" lon="6.51356">
        <ele>286</ele>
        <time>2023-08-05T13:17:41.000Z</time>
      </trkpt>
      <trkpt lat="48.99272" lon="6.51358">
        <ele>285.20001220703</ele>
        <time>2023-08-05T13:17:44.000Z</time>
      </trkpt>
      <trkpt lat="48.99291" lon="6.51357">
        <ele>284.60000610352</ele>
        <time>2023-08-05T13:17:46.000Z</time>
      </trkpt>
      <trkpt lat="48.9931" lon="6.51354">
        <ele>284</ele>
        <time>2023-08-05T13:17:48.000Z</time>
      </trkpt>
      <trkpt lat="48.99338" lon="6.51344">
        <ele>282.39999389648</ele>
        <time>2023-08-05T13:17:51.000Z</time>
      </trkpt>
      <trkpt lat="48.99368" lon="6.5133">
        <ele>281</ele>
        <time>2023-08-05T13:17:54.000Z</time>
      </trkpt>
      <trkpt lat="48.99397" lon="6.51316">
        <ele>279.60000610352</ele>
        <time>2023-08-05T13:17:57.000Z</time>
      </trkpt>
      <trkpt lat="48.99407" lon="6.51311">
        <ele>279</ele>
        <time>2023-08-05T13:17:58.000Z</time>
      </trkpt>
      <trkpt lat="48.99426" lon="6.51302">
        <ele>278</ele>
        <time>2023-08-05T13:18:00.000Z</time>
      </trkpt>
      <trkpt lat="48.99453" lon="6.51289">
        <ele>276.60000610352</ele>
        <time>2023-08-05T13:18:03.000Z</time>
      </trkpt>
      <trkpt lat="48.99472" lon="6.5128">
        <ele>276.20001220703</ele>
        <time>2023-08-05T13:18:05.000Z</time>
      </trkpt>
      <trkpt lat="48.99502" lon="6.51265">
        <ele>275.39999389648</ele>
        <time>2023-08-05T13:18:09.000Z</time>
      </trkpt>
      <trkpt lat="48.99516" lon="6.51259">
        <ele>275.39999389648</ele>
        <time>2023-08-05T13:18:11.000Z</time>
      </trkpt>
      <trkpt lat="48.99553" lon="6.5124">
        <ele>276</ele>
        <time>2023-08-05T13:18:17.000Z</time>
      </trkpt>
      <trkpt lat="48.9959" lon="6.51222">
        <ele>276.60000610352</ele>
        <time>2023-08-05T13:18:24.000Z</time>
      </trkpt>
      <trkpt lat="48.996" lon="6.51218">
        <ele>276.79998779297</ele>
        <time>2023-08-05T13:18:26.000Z</time>
      </trkpt>
      <trkpt lat="48.99604" lon="6.51216">
        <ele>277</ele>
        <time>2023-08-05T13:18:27.000Z</time>
      </trkpt>
      <trkpt lat="48.99626" lon="6.51205">
        <ele>277.79998779297</ele>
        <time>2023-08-05T13:18:32.000Z</time>
      </trkpt>
      <trkpt lat="48.9963" lon="6.51203">
        <ele>277.79998779297</ele>
        <time>2023-08-05T13:18:33.000Z</time>
      </trkpt>
      <trkpt lat="48.99662" lon="6.51187">
        <ele>279</ele>
        <time>2023-08-05T13:18:41.000Z</time>
      </trkpt>
      <trkpt lat="48.9967" lon="6.51183">
        <ele>279.20001220703</ele>
        <time>2023-08-05T13:18:43.000Z</time>
      </trkpt>
      <trkpt lat="48.99702" lon="6.51168">
        <ele>280</ele>
        <time>2023-08-05T13:18:51.000Z</time>
      </trkpt>
      <trkpt lat="48.9971" lon="6.51164">
        <ele>280.20001220703</ele>
        <time>2023-08-05T13:18:53.000Z</time>
      </trkpt>
      <trkpt lat="48.99746" lon="6.51147">
        <ele>280.79998779297</ele>
        <time>2023-08-05T13:19:02.000Z</time>
      </trkpt>
      <trkpt lat="48.99754" lon="6.51144">
        <ele>281</ele>
        <time>2023-08-05T13:19:04.000Z</time>
      </trkpt>
      <trkpt lat="48.99794" lon="6.51124">
        <ele>281.79998779297</ele>
        <time>2023-08-05T13:19:13.000Z</time>
      </trkpt>
      <trkpt lat="48.99839" lon="6.51102">
        <ele>281.79998779297</ele>
        <time>2023-08-05T13:19:22.000Z</time>
      </trkpt>
      <trkpt lat="48.99875" lon="6.51085">
        <ele>282.20001220703</ele>
        <time>2023-08-05T13:19:29.000Z</time>
      </trkpt>
      <trkpt lat="48.99926" lon="6.5106">
        <ele>282.20001220703</ele>
        <time>2023-08-05T13:19:39.000Z</time>
      </trkpt>
      <trkpt lat="48.99932" lon="6.51058">
        <ele>282.20001220703</ele>
        <time>2023-08-05T13:19:40.000Z</time>
      </trkpt>
      <trkpt lat="48.99984" lon="6.51033">
        <ele>282</ele>
        <time>2023-08-05T13:19:50.000Z</time>
      </trkpt>
      <trkpt lat="49.00025" lon="6.51014">
        <ele>282</ele>
        <time>2023-08-05T13:19:58.000Z</time>
      </trkpt>
      <trkpt lat="49.00064" lon="6.50997">
        <ele>282</ele>
        <time>2023-08-05T13:20:06.000Z</time>
      </trkpt>
      <trkpt lat="49.00081" lon="6.51">
        <ele>281.79998779297</ele>
        <time>2023-08-05T13:20:11.000Z</time>
      </trkpt>
      <trkpt lat="49.00087" lon="6.51005">
        <ele>281.60000610352</ele>
        <time>2023-08-05T13:20:15.000Z</time>
      </trkpt>
      <trkpt lat="49.00096" lon="6.50998">
        <ele>281.60000610352</ele>
        <time>2023-08-05T13:20:19.000Z</time>
      </trkpt>
      <trkpt lat="49.00108" lon="6.50984">
        <ele>281.79998779297</ele>
        <time>2023-08-05T13:20:23.000Z</time>
      </trkpt>
      <trkpt lat="49.00137" lon="6.50963">
        <ele>282.20001220703</ele>
        <time>2023-08-05T13:20:30.000Z</time>
      </trkpt>
      <trkpt lat="49.00141" lon="6.5096">
        <ele>282.20001220703</ele>
        <time>2023-08-05T13:20:31.000Z</time>
      </trkpt>
      <trkpt lat="49.00158" lon="6.50951">
        <ele>282.39999389648</ele>
        <time>2023-08-05T13:20:35.000Z</time>
      </trkpt>
      <trkpt lat="49.0017" lon="6.50945">
        <ele>282.60000610352</ele>
        <time>2023-08-05T13:20:38.000Z</time>
      </trkpt>
      <trkpt lat="49.00189" lon="6.50935">
        <ele>283.60000610352</ele>
        <time>2023-08-05T13:20:43.000Z</time>
      </trkpt>
      <trkpt lat="49.00208" lon="6.50926">
        <ele>284.20001220703</ele>
        <time>2023-08-05T13:20:48.000Z</time>
      </trkpt>
      <trkpt lat="49.00215" lon="6.50922">
        <ele>284.60000610352</ele>
        <time>2023-08-05T13:20:50.000Z</time>
      </trkpt>
      <trkpt lat="49.0024" lon="6.5091">
        <ele>285.39999389648</ele>
        <time>2023-08-05T13:20:57.000Z</time>
      </trkpt>
      <trkpt lat="49.00244" lon="6.50908">
        <ele>285.60000610352</ele>
        <time>2023-08-05T13:20:58.000Z</time>
      </trkpt>
      <trkpt lat="49.00273" lon="6.50894">
        <ele>286.79998779297</ele>
        <time>2023-08-05T13:21:07.000Z</time>
      </trkpt>
      <trkpt lat="49.00281" lon="6.50891">
        <ele>287</ele>
        <time>2023-08-05T13:21:09.000Z</time>
      </trkpt>
      <trkpt lat="49.00297" lon="6.50883">
        <ele>287.79998779297</ele>
        <time>2023-08-05T13:21:14.000Z</time>
      </trkpt>
      <trkpt lat="49.00327" lon="6.50869">
        <ele>289</ele>
        <time>2023-08-05T13:21:23.000Z</time>
      </trkpt>
      <trkpt lat="49.00365" lon="6.50851">
        <ele>290</ele>
        <time>2023-08-05T13:21:34.000Z</time>
      </trkpt>
      <trkpt lat="49.00394" lon="6.50837">
        <ele>291.20001220703</ele>
        <time>2023-08-05T13:21:43.000Z</time>
      </trkpt>
      <trkpt lat="49.00418" lon="6.50826">
        <ele>292.20001220703</ele>
        <time>2023-08-05T13:21:50.000Z</time>
      </trkpt>
      <trkpt lat="49.00453" lon="6.5081">
        <ele>293.20001220703</ele>
        <time>2023-08-05T13:22:00.000Z</time>
      </trkpt>
      <trkpt lat="49.00457" lon="6.50808">
        <ele>293.20001220703</ele>
        <time>2023-08-05T13:22:01.000Z</time>
      </trkpt>
      <trkpt lat="49.00476" lon="6.50798">
        <ele>294.20001220703</ele>
        <time>2023-08-05T13:22:07.000Z</time>
      </trkpt>
      <trkpt lat="49.00496" lon="6.50789">
        <ele>295.20001220703</ele>
        <time>2023-08-05T13:22:13.000Z</time>
      </trkpt>
      <trkpt lat="49.00506" lon="6.50784">
        <ele>295.60000610352</ele>
        <time>2023-08-05T13:22:16.000Z</time>
      </trkpt>
      <trkpt lat="49.00528" lon="6.50773">
        <ele>296.60000610352</ele>
        <time>2023-08-05T13:22:23.000Z</time>
      </trkpt>
      <trkpt lat="49.00535" lon="6.5077">
        <ele>296.79998779297</ele>
        <time>2023-08-05T13:22:25.000Z</time>
      </trkpt>
      <trkpt lat="49.00554" lon="6.50762">
        <ele>297.79998779297</ele>
        <time>2023-08-05T13:22:31.000Z</time>
      </trkpt>
      <trkpt lat="49.00564" lon="6.50756">
        <ele>298.20001220703</ele>
        <time>2023-08-05T13:22:34.000Z</time>
      </trkpt>
      <trkpt lat="49.00582" lon="6.50748">
        <ele>299</ele>
        <time>2023-08-05T13:22:39.000Z</time>
      </trkpt>
      <trkpt lat="49.00595" lon="6.50741">
        <ele>299.60000610352</ele>
        <time>2023-08-05T13:22:43.000Z</time>
      </trkpt>
      <trkpt lat="49.00609" lon="6.50734">
        <ele>300</ele>
        <time>2023-08-05T13:22:47.000Z</time>
      </trkpt>
      <trkpt lat="49.00627" lon="6.50725">
        <ele>300.60000610352</ele>
        <time>2023-08-05T13:22:52.000Z</time>
      </trkpt>
      <trkpt lat="49.00639" lon="6.50719">
        <ele>301.20001220703</ele>
        <time>2023-08-05T13:22:56.000Z</time>
      </trkpt>
      <trkpt lat="49.00663" lon="6.50707">
        <ele>301.79998779297</ele>
        <time>2023-08-05T13:23:03.000Z</time>
      </trkpt>
      <trkpt lat="49.00671" lon="6.50703">
        <ele>302.20001220703</ele>
        <time>2023-08-05T13:23:06.000Z</time>
      </trkpt>
      <trkpt lat="49.00691" lon="6.50694">
        <ele>303.20001220703</ele>
        <time>2023-08-05T13:23:12.000Z</time>
      </trkpt>
      <trkpt lat="49.00697" lon="6.5069">
        <ele>303.39999389648</ele>
        <time>2023-08-05T13:23:14.000Z</time>
      </trkpt>
      <trkpt lat="49.00724" lon="6.50675">
        <ele>304.20001220703</ele>
        <time>2023-08-05T13:23:22.000Z</time>
      </trkpt>
      <trkpt lat="49.00734" lon="6.50668">
        <ele>304.39999389648</ele>
        <time>2023-08-05T13:23:25.000Z</time>
      </trkpt>
      <trkpt lat="49.00752" lon="6.50654">
        <ele>304.79998779297</ele>
        <time>2023-08-05T13:23:30.000Z</time>
      </trkpt>
      <trkpt lat="49.00784" lon="6.50626">
        <ele>304.79998779297</ele>
        <time>2023-08-05T13:23:37.000Z</time>
      </trkpt>
      <trkpt lat="49.00824" lon="6.5059">
        <ele>303.20001220703</ele>
        <time>2023-08-05T13:23:44.000Z</time>
      </trkpt>
      <trkpt lat="49.00857" lon="6.5056">
        <ele>301.79998779297</ele>
        <time>2023-08-05T13:23:49.000Z</time>
      </trkpt>
      <trkpt lat="49.00877" lon="6.50541">
        <ele>301</ele>
        <time>2023-08-05T13:23:52.000Z</time>
      </trkpt>
      <trkpt lat="49.00891" lon="6.50529">
        <ele>300.39999389648</ele>
        <time>2023-08-05T13:23:54.000Z</time>
      </trkpt>
      <trkpt lat="49.0092" lon="6.50502">
        <ele>299.39999389648</ele>
        <time>2023-08-05T13:23:58.000Z</time>
      </trkpt>
      <trkpt lat="49.00935" lon="6.50488">
        <ele>298.79998779297</ele>
        <time>2023-08-05T13:24:00.000Z</time>
      </trkpt>
      <trkpt lat="49.00951" lon="6.50474">
        <ele>298.20001220703</ele>
        <time>2023-08-05T13:24:02.000Z</time>
      </trkpt>
      <trkpt lat="49.00977" lon="6.5045">
        <ele>296.79998779297</ele>
        <time>2023-08-05T13:24:05.000Z</time>
      </trkpt>
      <trkpt lat="49.00992" lon="6.50436">
        <ele>296</ele>
        <time>2023-08-05T13:24:07.000Z</time>
      </trkpt>
      <trkpt lat="49.01001" lon="6.50428">
        <ele>295.39999389648</ele>
        <time>2023-08-05T13:24:08.000Z</time>
      </trkpt>
      <trkpt lat="49.01027" lon="6.50403">
        <ele>294</ele>
        <time>2023-08-05T13:24:11.000Z</time>
      </trkpt>
      <trkpt lat="49.01055" lon="6.50378">
        <ele>292.79998779297</ele>
        <time>2023-08-05T13:24:14.000Z</time>
      </trkpt>
      <trkpt lat="49.01064" lon="6.50369">
        <ele>292</ele>
        <time>2023-08-05T13:24:15.000Z</time>
      </trkpt>
      <trkpt lat="49.01074" lon="6.50361">
        <ele>291.60000610352</ele>
        <time>2023-08-05T13:24:16.000Z</time>
      </trkpt>
      <trkpt lat="49.01102" lon="6.50333">
        <ele>290.39999389648</ele>
        <time>2023-08-05T13:24:19.000Z</time>
      </trkpt>
      <trkpt lat="49.01126" lon="6.50311">
        <ele>289.20001220703</ele>
        <time>2023-08-05T13:24:22.000Z</time>
      </trkpt>
      <trkpt lat="49.01166" lon="6.50274">
        <ele>288.20001220703</ele>
        <time>2023-08-05T13:24:27.000Z</time>
      </trkpt>
      <trkpt lat="49.01181" lon="6.50259">
        <ele>287.60000610352</ele>
        <time>2023-08-05T13:24:29.000Z</time>
      </trkpt>
      <trkpt lat="49.01206" lon="6.50237">
        <ele>286.79998779297</ele>
        <time>2023-08-05T13:24:32.000Z</time>
      </trkpt>
      <trkpt lat="49.01231" lon="6.50214">
        <ele>285.60000610352</ele>
        <time>2023-08-05T13:24:35.000Z</time>
      </trkpt>
      <trkpt lat="49.0124" lon="6.50206">
        <ele>285.20001220703</ele>
        <time>2023-08-05T13:24:36.000Z</time>
      </trkpt>
      <trkpt lat="49.01249" lon="6.50197">
        <ele>284.20001220703</ele>
        <time>2023-08-05T13:24:37.000Z</time>
      </trkpt>
      <trkpt lat="49.01266" lon="6.50181">
        <ele>282.79998779297</ele>
        <time>2023-08-05T13:24:39.000Z</time>
      </trkpt>
      <trkpt lat="49.01283" lon="6.50165">
        <ele>281.60000610352</ele>
        <time>2023-08-05T13:24:41.000Z</time>
      </trkpt>
      <trkpt lat="49.01301" lon="6.50147">
        <ele>280.39999389648</ele>
        <time>2023-08-05T13:24:43.000Z</time>
      </trkpt>
      <trkpt lat="49.01316" lon="6.50133">
        <ele>279.20001220703</ele>
        <time>2023-08-05T13:24:45.000Z</time>
      </trkpt>
      <trkpt lat="49.01334" lon="6.50118">
        <ele>277.79998779297</ele>
        <time>2023-08-05T13:24:47.000Z</time>
      </trkpt>
      <trkpt lat="49.01342" lon="6.50111">
        <ele>277.20001220703</ele>
        <time>2023-08-05T13:24:48.000Z</time>
      </trkpt>
      <trkpt lat="49.01351" lon="6.50103">
        <ele>276.20001220703</ele>
        <time>2023-08-05T13:24:49.000Z</time>
      </trkpt>
      <trkpt lat="49.01368" lon="6.50087">
        <ele>275.20001220703</ele>
        <time>2023-08-05T13:24:51.000Z</time>
      </trkpt>
      <trkpt lat="49.01393" lon="6.50064">
        <ele>274</ele>
        <time>2023-08-05T13:24:54.000Z</time>
      </trkpt>
      <trkpt lat="49.0141" lon="6.50049">
        <ele>272.79998779297</ele>
        <time>2023-08-05T13:24:56.000Z</time>
      </trkpt>
      <trkpt lat="49.01426" lon="6.50035">
        <ele>272.20001220703</ele>
        <time>2023-08-05T13:24:58.000Z</time>
      </trkpt>
      <trkpt lat="49.01442" lon="6.5002">
        <ele>271.60000610352</ele>
        <time>2023-08-05T13:25:00.000Z</time>
      </trkpt>
      <trkpt lat="49.01481" lon="6.49984">
        <ele>270.39999389648</ele>
        <time>2023-08-05T13:25:05.000Z</time>
      </trkpt>
      <trkpt lat="49.01496" lon="6.4997">
        <ele>270</ele>
        <time>2023-08-05T13:25:07.000Z</time>
      </trkpt>
      <trkpt lat="49.01517" lon="6.4995">
        <ele>269.20001220703</ele>
        <time>2023-08-05T13:25:10.000Z</time>
      </trkpt>
      <trkpt lat="49.0155" lon="6.49919">
        <ele>268.39999389648</ele>
        <time>2023-08-05T13:25:15.000Z</time>
      </trkpt>
      <trkpt lat="49.01563" lon="6.49907">
        <ele>268.20001220703</ele>
        <time>2023-08-05T13:25:17.000Z</time>
      </trkpt>
      <trkpt lat="49.01587" lon="6.49885">
        <ele>267.79998779297</ele>
        <time>2023-08-05T13:25:21.000Z</time>
      </trkpt>
      <trkpt lat="49.01626" lon="6.49849">
        <ele>267.79998779297</ele>
        <time>2023-08-05T13:25:28.000Z</time>
      </trkpt>
      <trkpt lat="49.0167" lon="6.49807">
        <ele>267.79998779297</ele>
        <time>2023-08-05T13:25:37.000Z</time>
      </trkpt>
      <trkpt lat="49.01697" lon="6.49783">
        <ele>268.39999389648</ele>
        <time>2023-08-05T13:25:43.000Z</time>
      </trkpt>
      <trkpt lat="49.01723" lon="6.49759">
        <ele>269.20001220703</ele>
        <time>2023-08-05T13:25:50.000Z</time>
      </trkpt>
      <trkpt lat="49.0173" lon="6.49752">
        <ele>269.39999389648</ele>
        <time>2023-08-05T13:25:52.000Z</time>
      </trkpt>
      <trkpt lat="49.01754" lon="6.4973">
        <ele>270.20001220703</ele>
        <time>2023-08-05T13:25:59.000Z</time>
      </trkpt>
      <trkpt lat="49.01764" lon="6.49721">
        <ele>270.60000610352</ele>
        <time>2023-08-05T13:26:02.000Z</time>
      </trkpt>
      <trkpt lat="49.01784" lon="6.49706">
        <ele>271.60000610352</ele>
        <time>2023-08-05T13:26:08.000Z</time>
      </trkpt>
      <trkpt lat="49.01805" lon="6.49691">
        <ele>272.60000610352</ele>
        <time>2023-08-05T13:26:14.000Z</time>
      </trkpt>
      <trkpt lat="49.01811" lon="6.49687">
        <ele>272.79998779297</ele>
        <time>2023-08-05T13:26:16.000Z</time>
      </trkpt>
      <trkpt lat="49.01832" lon="6.49675">
        <ele>273.39999389648</ele>
        <time>2023-08-05T13:26:22.000Z</time>
      </trkpt>
      <trkpt lat="49.01854" lon="6.49668">
        <ele>273.60000610352</ele>
        <time>2023-08-05T13:26:28.000Z</time>
      </trkpt>
      <trkpt lat="49.01858" lon="6.49669">
        <ele>273.79998779297</ele>
        <time>2023-08-05T13:26:29.000Z</time>
      </trkpt>
      <trkpt lat="49.01896" lon="6.4967">
        <ele>274.79998779297</ele>
        <time>2023-08-05T13:26:39.000Z</time>
      </trkpt>
      <trkpt lat="49.01929" lon="6.49661">
        <ele>275.79998779297</ele>
        <time>2023-08-05T13:26:48.000Z</time>
      </trkpt>
      <trkpt lat="49.01933" lon="6.4966">
        <ele>276.20001220703</ele>
        <time>2023-08-05T13:26:49.000Z</time>
      </trkpt>
      <trkpt lat="49.01958" lon="6.49652">
        <ele>277</ele>
        <time>2023-08-05T13:26:56.000Z</time>
      </trkpt>
      <trkpt lat="49.01987" lon="6.49641">
        <ele>278.20001220703</ele>
        <time>2023-08-05T13:27:05.000Z</time>
      </trkpt>
      <trkpt lat="49.02005" lon="6.49634">
        <ele>279.39999389648</ele>
        <time>2023-08-05T13:27:11.000Z</time>
      </trkpt>
      <trkpt lat="49.02014" lon="6.49631">
        <ele>280</ele>
        <time>2023-08-05T13:27:14.000Z</time>
      </trkpt>
      <trkpt lat="49.0202" lon="6.49629">
        <ele>280.39999389648</ele>
        <time>2023-08-05T13:27:16.000Z</time>
      </trkpt>
      <trkpt lat="49.02034" lon="6.49625">
        <ele>281</ele>
        <time>2023-08-05T13:27:21.000Z</time>
      </trkpt>
      <trkpt lat="49.02037" lon="6.49624">
        <ele>281.39999389648</ele>
        <time>2023-08-05T13:27:22.000Z</time>
      </trkpt>
      <trkpt lat="49.02059" lon="6.49614">
        <ele>282.60000610352</ele>
        <time>2023-08-05T13:27:29.000Z</time>
      </trkpt>
      <trkpt lat="49.02061" lon="6.49613">
        <ele>282.79998779297</ele>
        <time>2023-08-05T13:27:30.000Z</time>
      </trkpt>
      <trkpt lat="49.02076" lon="6.49609">
        <ele>283.60000610352</ele>
        <time>2023-08-05T13:27:35.000Z</time>
      </trkpt>
      <trkpt lat="49.0209" lon="6.49603">
        <ele>284.20001220703</ele>
        <time>2023-08-05T13:27:40.000Z</time>
      </trkpt>
      <trkpt lat="49.02098" lon="6.496">
        <ele>284.60000610352</ele>
        <time>2023-08-05T13:27:43.000Z</time>
      </trkpt>
      <trkpt lat="49.02111" lon="6.49595">
        <ele>285.60000610352</ele>
        <time>2023-08-05T13:27:48.000Z</time>
      </trkpt>
      <trkpt lat="49.02114" lon="6.49593">
        <ele>285.60000610352</ele>
        <time>2023-08-05T13:27:49.000Z</time>
      </trkpt>
      <trkpt lat="49.02136" lon="6.49585">
        <ele>286.79998779297</ele>
        <time>2023-08-05T13:27:56.000Z</time>
      </trkpt>
      <trkpt lat="49.02158" lon="6.49572">
        <ele>287.79998779297</ele>
        <time>2023-08-05T13:28:04.000Z</time>
      </trkpt>
      <trkpt lat="49.02164" lon="6.49568">
        <ele>288.39999389648</ele>
        <time>2023-08-05T13:28:06.000Z</time>
      </trkpt>
      <trkpt lat="49.02181" lon="6.49552">
        <ele>289</ele>
        <time>2023-08-05T13:28:12.000Z</time>
      </trkpt>
      <trkpt lat="49.02187" lon="6.49545">
        <ele>289.20001220703</ele>
        <time>2023-08-05T13:28:14.000Z</time>
      </trkpt>
      <trkpt lat="49.02203" lon="6.49524">
        <ele>290</ele>
        <time>2023-08-05T13:28:20.000Z</time>
      </trkpt>
      <trkpt lat="49.02206" lon="6.49521">
        <ele>290</ele>
        <time>2023-08-05T13:28:21.000Z</time>
      </trkpt>
      <trkpt lat="49.02221" lon="6.49498">
        <ele>291</ele>
        <time>2023-08-05T13:28:27.000Z</time>
      </trkpt>
      <trkpt lat="49.02226" lon="6.49491">
        <ele>291.20001220703</ele>
        <time>2023-08-05T13:28:29.000Z</time>
      </trkpt>
      <trkpt lat="49.02241" lon="6.4947">
        <ele>292</ele>
        <time>2023-08-05T13:28:35.000Z</time>
      </trkpt>
      <trkpt lat="49.02243" lon="6.49467">
        <ele>292.20001220703</ele>
        <time>2023-08-05T13:28:36.000Z</time>
      </trkpt>
      <trkpt lat="49.02258" lon="6.49443">
        <ele>293.39999389648</ele>
        <time>2023-08-05T13:28:43.000Z</time>
      </trkpt>
      <trkpt lat="49.0226" lon="6.4944">
        <ele>293.39999389648</ele>
        <time>2023-08-05T13:28:44.000Z</time>
      </trkpt>
      <trkpt lat="49.02276" lon="6.49417">
        <ele>294.20001220703</ele>
        <time>2023-08-05T13:28:51.000Z</time>
      </trkpt>
      <trkpt lat="49.0228" lon="6.49411">
        <ele>294.39999389648</ele>
        <time>2023-08-05T13:28:53.000Z</time>
      </trkpt>
      <trkpt lat="49.02296" lon="6.49387">
        <ele>295.39999389648</ele>
        <time>2023-08-05T13:29:00.000Z</time>
      </trkpt>
      <trkpt lat="49.02298" lon="6.49384">
        <ele>295.60000610352</ele>
        <time>2023-08-05T13:29:01.000Z</time>
      </trkpt>
      <trkpt lat="49.02316" lon="6.49358">
        <ele>296.60000610352</ele>
        <time>2023-08-05T13:29:09.000Z</time>
      </trkpt>
      <trkpt lat="49.02321" lon="6.49352">
        <ele>297</ele>
        <time>2023-08-05T13:29:11.000Z</time>
      </trkpt>
      <trkpt lat="49.0233" lon="6.49339">
        <ele>297.60000610352</ele>
        <time>2023-08-05T13:29:15.000Z</time>
      </trkpt>
      <trkpt lat="49.0234" lon="6.49322">
        <ele>298.60000610352</ele>
        <time>2023-08-05T13:29:20.000Z</time>
      </trkpt>
      <trkpt lat="49.02345" lon="6.49315">
        <ele>299</ele>
        <time>2023-08-05T13:29:22.000Z</time>
      </trkpt>
      <trkpt lat="49.02365" lon="6.49286">
        <ele>299.60000610352</ele>
        <time>2023-08-05T13:29:30.000Z</time>
      </trkpt>
      <trkpt lat="49.02384" lon="6.49259">
        <ele>299.79998779297</ele>
        <time>2023-08-05T13:29:36.000Z</time>
      </trkpt>
      <trkpt lat="49.02411" lon="6.49219">
        <ele>299.79998779297</ele>
        <time>2023-08-05T13:29:44.000Z</time>
      </trkpt>
      <trkpt lat="49.02415" lon="6.49214">
        <ele>300</ele>
        <time>2023-08-05T13:29:45.000Z</time>
      </trkpt>
      <trkpt lat="49.02447" lon="6.49166">
        <ele>300.20001220703</ele>
        <time>2023-08-05T13:29:54.000Z</time>
      </trkpt>
      <trkpt lat="49.02484" lon="6.49114">
        <ele>300.39999389648</ele>
        <time>2023-08-05T13:30:05.000Z</time>
      </trkpt>
      <trkpt lat="49.02495" lon="6.49096">
        <ele>301</ele>
        <time>2023-08-05T13:30:09.000Z</time>
      </trkpt>
      <trkpt lat="49.02506" lon="6.4908">
        <ele>301.60000610352</ele>
        <time>2023-08-05T13:30:13.000Z</time>
      </trkpt>
      <trkpt lat="49.02514" lon="6.49068">
        <ele>302.20001220703</ele>
        <time>2023-08-05T13:30:16.000Z</time>
      </trkpt>
      <trkpt lat="49.02531" lon="6.49042">
        <ele>302.79998779297</ele>
        <time>2023-08-05T13:30:23.000Z</time>
      </trkpt>
      <trkpt lat="49.02538" lon="6.49032">
        <ele>303.20001220703</ele>
        <time>2023-08-05T13:30:26.000Z</time>
      </trkpt>
      <trkpt lat="49.02549" lon="6.49014">
        <ele>304.20001220703</ele>
        <time>2023-08-05T13:30:31.000Z</time>
      </trkpt>
      <trkpt lat="49.02551" lon="6.4901">
        <ele>304.39999389648</ele>
        <time>2023-08-05T13:30:32.000Z</time>
      </trkpt>
      <trkpt lat="49.02564" lon="6.48994">
        <ele>305.39999389648</ele>
        <time>2023-08-05T13:30:37.000Z</time>
      </trkpt>
      <trkpt lat="49.02573" lon="6.4898">
        <ele>306</ele>
        <time>2023-08-05T13:30:41.000Z</time>
      </trkpt>
      <trkpt lat="49.02578" lon="6.48974">
        <ele>306.39999389648</ele>
        <time>2023-08-05T13:30:43.000Z</time>
      </trkpt>
      <trkpt lat="49.02586" lon="6.48962">
        <ele>307</ele>
        <time>2023-08-05T13:30:47.000Z</time>
      </trkpt>
      <trkpt lat="49.02591" lon="6.48954">
        <ele>307.39999389648</ele>
        <time>2023-08-05T13:30:50.000Z</time>
      </trkpt>
      <trkpt lat="49.02597" lon="6.48946">
        <ele>308.39999389648</ele>
        <time>2023-08-05T13:30:54.000Z</time>
      </trkpt>
      <trkpt lat="49.026" lon="6.48941">
        <ele>308.60000610352</ele>
        <time>2023-08-05T13:30:56.000Z</time>
      </trkpt>
      <trkpt lat="49.02612" lon="6.48924">
        <ele>309.20001220703</ele>
        <time>2023-08-05T13:31:02.000Z</time>
      </trkpt>
      <trkpt lat="49.02616" lon="6.48917">
        <ele>309.60000610352</ele>
        <time>2023-08-05T13:31:04.000Z</time>
      </trkpt>
      <trkpt lat="49.02627" lon="6.48893">
        <ele>310</ele>
        <time>2023-08-05T13:31:10.000Z</time>
      </trkpt>
      <trkpt lat="49.02642" lon="6.48862">
        <ele>309.79998779297</ele>
        <time>2023-08-05T13:31:16.000Z</time>
      </trkpt>
      <trkpt lat="49.02655" lon="6.48823">
        <ele>309.20001220703</ele>
        <time>2023-08-05T13:31:21.000Z</time>
      </trkpt>
      <trkpt lat="49.02663" lon="6.48793">
        <ele>308.60000610352</ele>
        <time>2023-08-05T13:31:24.000Z</time>
      </trkpt>
      <trkpt lat="49.02673" lon="6.48759">
        <ele>307.39999389648</ele>
        <time>2023-08-05T13:31:27.000Z</time>
      </trkpt>
      <trkpt lat="49.02683" lon="6.4872">
        <ele>306</ele>
        <time>2023-08-05T13:31:30.000Z</time>
      </trkpt>
      <trkpt lat="49.02689" lon="6.48693">
        <ele>305</ele>
        <time>2023-08-05T13:31:32.000Z</time>
      </trkpt>
      <trkpt lat="49.02694" lon="6.48678">
        <ele>304.79998779297</ele>
        <time>2023-08-05T13:31:33.000Z</time>
      </trkpt>
      <trkpt lat="49.02705" lon="6.48635">
        <ele>303.60000610352</ele>
        <time>2023-08-05T13:31:36.000Z</time>
      </trkpt>
      <trkpt lat="49.02712" lon="6.48605">
        <ele>302.60000610352</ele>
        <time>2023-08-05T13:31:38.000Z</time>
      </trkpt>
      <trkpt lat="49.0272" lon="6.48574">
        <ele>301.20001220703</ele>
        <time>2023-08-05T13:31:40.000Z</time>
      </trkpt>
      <trkpt lat="49.02728" lon="6.48543">
        <ele>300.20001220703</ele>
        <time>2023-08-05T13:31:42.000Z</time>
      </trkpt>
      <trkpt lat="49.02737" lon="6.48512">
        <ele>298.79998779297</ele>
        <time>2023-08-05T13:31:44.000Z</time>
      </trkpt>
      <trkpt lat="49.02741" lon="6.48497">
        <ele>298.60000610352</ele>
        <time>2023-08-05T13:31:45.000Z</time>
      </trkpt>
      <trkpt lat="49.0275" lon="6.48456">
        <ele>297.20001220703</ele>
        <time>2023-08-05T13:31:48.000Z</time>
      </trkpt>
      <trkpt lat="49.0276" lon="6.48416">
        <ele>296</ele>
        <time>2023-08-05T13:31:51.000Z</time>
      </trkpt>
      <trkpt lat="49.02774" lon="6.48366">
        <ele>295</ele>
        <time>2023-08-05T13:31:55.000Z</time>
      </trkpt>
      <trkpt lat="49.02784" lon="6.4833">
        <ele>294.20001220703</ele>
        <time>2023-08-05T13:31:58.000Z</time>
      </trkpt>
      <trkpt lat="49.02791" lon="6.48305">
        <ele>293.60000610352</ele>
        <time>2023-08-05T13:32:00.000Z</time>
      </trkpt>
      <trkpt lat="49.028" lon="6.48266">
        <ele>292.60000610352</ele>
        <time>2023-08-05T13:32:03.000Z</time>
      </trkpt>
      <trkpt lat="49.02806" lon="6.4824">
        <ele>292.39999389648</ele>
        <time>2023-08-05T13:32:05.000Z</time>
      </trkpt>
      <trkpt lat="49.02813" lon="6.48213">
        <ele>291.39999389648</ele>
        <time>2023-08-05T13:32:07.000Z</time>
      </trkpt>
      <trkpt lat="49.02824" lon="6.48172">
        <ele>290.20001220703</ele>
        <time>2023-08-05T13:32:10.000Z</time>
      </trkpt>
      <trkpt lat="49.02826" lon="6.48157">
        <ele>289.79998779297</ele>
        <time>2023-08-05T13:32:11.000Z</time>
      </trkpt>
      <trkpt lat="49.02834" lon="6.48129">
        <ele>289</ele>
        <time>2023-08-05T13:32:13.000Z</time>
      </trkpt>
      <trkpt lat="49.02842" lon="6.48101">
        <ele>287.39999389648</ele>
        <time>2023-08-05T13:32:15.000Z</time>
      </trkpt>
      <trkpt lat="49.02854" lon="6.48057">
        <ele>286.20001220703</ele>
        <time>2023-08-05T13:32:18.000Z</time>
      </trkpt>
      <trkpt lat="49.02861" lon="6.48028">
        <ele>285.20001220703</ele>
        <time>2023-08-05T13:32:20.000Z</time>
      </trkpt>
      <trkpt lat="49.02869" lon="6.48">
        <ele>284</ele>
        <time>2023-08-05T13:32:22.000Z</time>
      </trkpt>
      <trkpt lat="49.02875" lon="6.47974">
        <ele>283</ele>
        <time>2023-08-05T13:32:24.000Z</time>
      </trkpt>
      <trkpt lat="49.02882" lon="6.4795">
        <ele>282.39999389648</ele>
        <time>2023-08-05T13:32:26.000Z</time>
      </trkpt>
      <trkpt lat="49.02897" lon="6.47895">
        <ele>281.79998779297</ele>
        <time>2023-08-05T13:32:31.000Z</time>
      </trkpt>
      <trkpt lat="49.029" lon="6.47884">
        <ele>281.79998779297</ele>
        <time>2023-08-05T13:32:32.000Z</time>
      </trkpt>
      <trkpt lat="49.02915" lon="6.47826">
        <ele>281.79998779297</ele>
        <time>2023-08-05T13:32:38.000Z</time>
      </trkpt>
      <trkpt lat="49.0293" lon="6.47763">
        <ele>281.79998779297</ele>
        <time>2023-08-05T13:32:45.000Z</time>
      </trkpt>
      <trkpt lat="49.02948" lon="6.47696">
        <ele>281.39999389648</ele>
        <time>2023-08-05T13:32:52.000Z</time>
      </trkpt>
      <trkpt lat="49.02957" lon="6.47664">
        <ele>280.60000610352</ele>
        <time>2023-08-05T13:32:55.000Z</time>
      </trkpt>
      <trkpt lat="49.02963" lon="6.4764">
        <ele>280</ele>
        <time>2023-08-05T13:32:57.000Z</time>
      </trkpt>
      <trkpt lat="49.0297" lon="6.47616">
        <ele>279.39999389648</ele>
        <time>2023-08-05T13:32:59.000Z</time>
      </trkpt>
      <trkpt lat="49.02979" lon="6.47577">
        <ele>278</ele>
        <time>2023-08-05T13:33:02.000Z</time>
      </trkpt>
      <trkpt lat="49.02987" lon="6.4755">
        <ele>276.79998779297</ele>
        <time>2023-08-05T13:33:04.000Z</time>
      </trkpt>
      <trkpt lat="49.02994" lon="6.47522">
        <ele>275.60000610352</ele>
        <time>2023-08-05T13:33:06.000Z</time>
      </trkpt>
      <trkpt lat="49.03001" lon="6.47492">
        <ele>274.60000610352</ele>
        <time>2023-08-05T13:33:08.000Z</time>
      </trkpt>
      <trkpt lat="49.03013" lon="6.47448">
        <ele>273</ele>
        <time>2023-08-05T13:33:11.000Z</time>
      </trkpt>
      <trkpt lat="49.03023" lon="6.47404">
        <ele>271.79998779297</ele>
        <time>2023-08-05T13:33:14.000Z</time>
      </trkpt>
      <trkpt lat="49.03031" lon="6.47374">
        <ele>270.39999389648</ele>
        <time>2023-08-05T13:33:16.000Z</time>
      </trkpt>
      <trkpt lat="49.03039" lon="6.47344">
        <ele>269.39999389648</ele>
        <time>2023-08-05T13:33:18.000Z</time>
      </trkpt>
      <trkpt lat="49.03043" lon="6.47329">
        <ele>268.60000610352</ele>
        <time>2023-08-05T13:33:19.000Z</time>
      </trkpt>
      <trkpt lat="49.03047" lon="6.47314">
        <ele>268</ele>
        <time>2023-08-05T13:33:20.000Z</time>
      </trkpt>
      <trkpt lat="49.03057" lon="6.47272">
        <ele>266.60000610352</ele>
        <time>2023-08-05T13:33:23.000Z</time>
      </trkpt>
      <trkpt lat="49.03064" lon="6.47245">
        <ele>266</ele>
        <time>2023-08-05T13:33:25.000Z</time>
      </trkpt>
      <trkpt lat="49.03074" lon="6.47209">
        <ele>265.60000610352</ele>
        <time>2023-08-05T13:33:28.000Z</time>
      </trkpt>
      <trkpt lat="49.03083" lon="6.47175">
        <ele>265.39999389648</ele>
        <time>2023-08-05T13:33:31.000Z</time>
      </trkpt>
      <trkpt lat="49.03092" lon="6.47142">
        <ele>265</ele>
        <time>2023-08-05T13:33:34.000Z</time>
      </trkpt>
      <trkpt lat="49.03103" lon="6.47099">
        <ele>264.60000610352</ele>
        <time>2023-08-05T13:33:38.000Z</time>
      </trkpt>
      <trkpt lat="49.03106" lon="6.47088">
        <ele>264.39999389648</ele>
        <time>2023-08-05T13:33:39.000Z</time>
      </trkpt>
      <trkpt lat="49.03126" lon="6.47006">
        <ele>264</ele>
        <time>2023-08-05T13:33:47.000Z</time>
      </trkpt>
      <trkpt lat="49.03129" lon="6.46996">
        <ele>264</ele>
        <time>2023-08-05T13:33:48.000Z</time>
      </trkpt>
      <trkpt lat="49.03147" lon="6.46926">
        <ele>264.39999389648</ele>
        <time>2023-08-05T13:33:56.000Z</time>
      </trkpt>
      <trkpt lat="49.03165" lon="6.46852">
        <ele>264.79998779297</ele>
        <time>2023-08-05T13:34:05.000Z</time>
      </trkpt>
      <trkpt lat="49.03176" lon="6.4681">
        <ele>265.39999389648</ele>
        <time>2023-08-05T13:34:11.000Z</time>
      </trkpt>
      <trkpt lat="49.03182" lon="6.46788">
        <ele>265.79998779297</ele>
        <time>2023-08-05T13:34:15.000Z</time>
      </trkpt>
      <trkpt lat="49.03185" lon="6.46778">
        <ele>266</ele>
        <time>2023-08-05T13:34:17.000Z</time>
      </trkpt>
      <trkpt lat="49.03188" lon="6.46763">
        <ele>267</ele>
        <time>2023-08-05T13:34:20.000Z</time>
      </trkpt>
      <trkpt lat="49.03193" lon="6.46745">
        <ele>267.60000610352</ele>
        <time>2023-08-05T13:34:24.000Z</time>
      </trkpt>
      <trkpt lat="49.03195" lon="6.46736">
        <ele>268</ele>
        <time>2023-08-05T13:34:26.000Z</time>
      </trkpt>
      <trkpt lat="49.03202" lon="6.4671">
        <ele>269</ele>
        <time>2023-08-05T13:34:32.000Z</time>
      </trkpt>
      <trkpt lat="49.03208" lon="6.4669">
        <ele>270.20001220703</ele>
        <time>2023-08-05T13:34:37.000Z</time>
      </trkpt>
      <trkpt lat="49.03214" lon="6.46665">
        <ele>271</ele>
        <time>2023-08-05T13:34:43.000Z</time>
      </trkpt>
      <trkpt lat="49.03216" lon="6.46657">
        <ele>271.20001220703</ele>
        <time>2023-08-05T13:34:45.000Z</time>
      </trkpt>
      <trkpt lat="49.03223" lon="6.46632">
        <ele>272.20001220703</ele>
        <time>2023-08-05T13:34:51.000Z</time>
      </trkpt>
      <trkpt lat="49.03225" lon="6.46623">
        <ele>272.39999389648</ele>
        <time>2023-08-05T13:34:53.000Z</time>
      </trkpt>
      <trkpt lat="49.03232" lon="6.46598">
        <ele>273.39999389648</ele>
        <time>2023-08-05T13:34:59.000Z</time>
      </trkpt>
      <trkpt lat="49.03238" lon="6.46573">
        <ele>274.20001220703</ele>
        <time>2023-08-05T13:35:05.000Z</time>
      </trkpt>
      <trkpt lat="49.03242" lon="6.4656">
        <ele>274.60000610352</ele>
        <time>2023-08-05T13:35:08.000Z</time>
      </trkpt>
      <trkpt lat="49.03249" lon="6.46535">
        <ele>275</ele>
        <time>2023-08-05T13:35:13.000Z</time>
      </trkpt>
      <trkpt lat="49.03256" lon="6.46506">
        <ele>275.20001220703</ele>
        <time>2023-08-05T13:35:18.000Z</time>
      </trkpt>
      <trkpt lat="49.0327" lon="6.46455">
        <ele>275.39999389648</ele>
        <time>2023-08-05T13:35:25.000Z</time>
      </trkpt>
      <trkpt lat="49.03287" lon="6.46387">
        <ele>275.39999389648</ele>
        <time>2023-08-05T13:35:34.000Z</time>
      </trkpt>
      <trkpt lat="49.03306" lon="6.46318">
        <ele>275.60000610352</ele>
        <time>2023-08-05T13:35:43.000Z</time>
      </trkpt>
      <trkpt lat="49.03309" lon="6.46302">
        <ele>275.79998779297</ele>
        <time>2023-08-05T13:35:45.000Z</time>
      </trkpt>
      <trkpt lat="49.03323" lon="6.46246">
        <ele>276.20001220703</ele>
        <time>2023-08-05T13:35:53.000Z</time>
      </trkpt>
      <trkpt lat="49.0333" lon="6.46221">
        <ele>276.79998779297</ele>
        <time>2023-08-05T13:35:57.000Z</time>
      </trkpt>
      <trkpt lat="49.03335" lon="6.46204">
        <ele>277.60000610352</ele>
        <time>2023-08-05T13:36:00.000Z</time>
      </trkpt>
      <trkpt lat="49.03339" lon="6.46189">
        <ele>278</ele>
        <time>2023-08-05T13:36:03.000Z</time>
      </trkpt>
      <trkpt lat="49.03345" lon="6.46163">
        <ele>278.79998779297</ele>
        <time>2023-08-05T13:36:08.000Z</time>
      </trkpt>
      <trkpt lat="49.03349" lon="6.46147">
        <ele>279</ele>
        <time>2023-08-05T13:36:11.000Z</time>
      </trkpt>
      <trkpt lat="49.03355" lon="6.46122">
        <ele>279.60000610352</ele>
        <time>2023-08-05T13:36:16.000Z</time>
      </trkpt>
      <trkpt lat="49.03368" lon="6.46073">
        <ele>280</ele>
        <time>2023-08-05T13:36:25.000Z</time>
      </trkpt>
      <trkpt lat="49.03374" lon="6.46051">
        <ele>280.39999389648</ele>
        <time>2023-08-05T13:36:29.000Z</time>
      </trkpt>
      <trkpt lat="49.03381" lon="6.46028">
        <ele>281.20001220703</ele>
        <time>2023-08-05T13:36:34.000Z</time>
      </trkpt>
      <trkpt lat="49.03385" lon="6.46017">
        <ele>281.39999389648</ele>
        <time>2023-08-05T13:36:36.000Z</time>
      </trkpt>
      <trkpt lat="49.03394" lon="6.45979">
        <ele>282.20001220703</ele>
        <time>2023-08-05T13:36:43.000Z</time>
      </trkpt>
      <trkpt lat="49.03396" lon="6.45974">
        <ele>282.20001220703</ele>
        <time>2023-08-05T13:36:44.000Z</time>
      </trkpt>
      <trkpt lat="49.03404" lon="6.45938">
        <ele>283</ele>
        <time>2023-08-05T13:36:51.000Z</time>
      </trkpt>
      <trkpt lat="49.03406" lon="6.45933">
        <ele>283.20001220703</ele>
        <time>2023-08-05T13:36:52.000Z</time>
      </trkpt>
      <trkpt lat="49.03413" lon="6.45902">
        <ele>283.79998779297</ele>
        <time>2023-08-05T13:36:58.000Z</time>
      </trkpt>
      <trkpt lat="49.03416" lon="6.45883">
        <ele>284.39999389648</ele>
        <time>2023-08-05T13:37:01.000Z</time>
      </trkpt>
      <trkpt lat="49.03423" lon="6.45859">
        <ele>285</ele>
        <time>2023-08-05T13:37:06.000Z</time>
      </trkpt>
      <trkpt lat="49.03426" lon="6.45846">
        <ele>285.39999389648</ele>
        <time>2023-08-05T13:37:09.000Z</time>
      </trkpt>
      <trkpt lat="49.03434" lon="6.45818">
        <ele>286.20001220703</ele>
        <time>2023-08-05T13:37:15.000Z</time>
      </trkpt>
      <trkpt lat="49.03438" lon="6.45803">
        <ele>286.39999389648</ele>
        <time>2023-08-05T13:37:18.000Z</time>
      </trkpt>
      <trkpt lat="49.03446" lon="6.45774">
        <ele>286.79998779297</ele>
        <time>2023-08-05T13:37:24.000Z</time>
      </trkpt>
      <trkpt lat="49.03453" lon="6.4575">
        <ele>287.39999389648</ele>
        <time>2023-08-05T13:37:29.000Z</time>
      </trkpt>
      <trkpt lat="49.03458" lon="6.4573">
        <ele>287.60000610352</ele>
        <time>2023-08-05T13:37:33.000Z</time>
      </trkpt>
      <trkpt lat="49.03466" lon="6.457">
        <ele>288.39999389648</ele>
        <time>2023-08-05T13:37:39.000Z</time>
      </trkpt>
      <trkpt lat="49.0347" lon="6.45685">
        <ele>288.79998779297</ele>
        <time>2023-08-05T13:37:42.000Z</time>
      </trkpt>
      <trkpt lat="49.03481" lon="6.45646">
        <ele>289.20001220703</ele>
        <time>2023-08-05T13:37:49.000Z</time>
      </trkpt>
      <trkpt lat="49.03485" lon="6.4563">
        <ele>289.39999389648</ele>
        <time>2023-08-05T13:37:52.000Z</time>
      </trkpt>
      <trkpt lat="49.03493" lon="6.45603">
        <ele>290</ele>
        <time>2023-08-05T13:37:57.000Z</time>
      </trkpt>
      <trkpt lat="49.03499" lon="6.45581">
        <ele>290.39999389648</ele>
        <time>2023-08-05T13:38:01.000Z</time>
      </trkpt>
      <trkpt lat="49.03506" lon="6.45552">
        <ele>290.79998779297</ele>
        <time>2023-08-05T13:38:06.000Z</time>
      </trkpt>
      <trkpt lat="49.03519" lon="6.45505">
        <ele>291.20001220703</ele>
        <time>2023-08-05T13:38:14.000Z</time>
      </trkpt>
      <trkpt lat="49.03525" lon="6.45476">
        <ele>291.60000610352</ele>
        <time>2023-08-05T13:38:19.000Z</time>
      </trkpt>
      <trkpt lat="49.0353" lon="6.45454">
        <ele>291.79998779297</ele>
        <time>2023-08-05T13:38:23.000Z</time>
      </trkpt>
      <trkpt lat="49.03541" lon="6.4541">
        <ele>292.60000610352</ele>
        <time>2023-08-05T13:38:31.000Z</time>
      </trkpt>
      <trkpt lat="49.03546" lon="6.45391">
        <ele>293</ele>
        <time>2023-08-05T13:38:35.000Z</time>
      </trkpt>
      <trkpt lat="49.03556" lon="6.45352">
        <ele>294</ele>
        <time>2023-08-05T13:38:41.000Z</time>
      </trkpt>
      <trkpt lat="49.03556" lon="6.45352">
        <ele>294</ele>
        <time>2023-08-05T13:38:42.000Z</time>
      </trkpt>
      <trkpt lat="49.03567" lon="6.45308">
        <ele>294.79998779297</ele>
        <time>2023-08-05T13:38:50.000Z</time>
      </trkpt>
      <trkpt lat="49.03569" lon="6.45299">
        <ele>295</ele>
        <time>2023-08-05T13:38:52.000Z</time>
      </trkpt>
      <trkpt lat="49.0358" lon="6.4526">
        <ele>295</ele>
        <time>2023-08-05T13:38:57.000Z</time>
      </trkpt>
      <trkpt lat="49.03593" lon="6.45209">
        <ele>294.60000610352</ele>
        <time>2023-08-05T13:39:03.000Z</time>
      </trkpt>
      <trkpt lat="49.03609" lon="6.45142">
        <ele>293.60000610352</ele>
        <time>2023-08-05T13:39:09.000Z</time>
      </trkpt>
      <trkpt lat="49.03615" lon="6.45118">
        <ele>292.60000610352</ele>
        <time>2023-08-05T13:39:12.000Z</time>
      </trkpt>
      <trkpt lat="49.03627" lon="6.45067">
        <ele>291.60000610352</ele>
        <time>2023-08-05T13:39:15.000Z</time>
      </trkpt>
      <trkpt lat="49.03627" lon="6.45067">
        <ele>291</ele>
        <time>2023-08-05T13:39:16.000Z</time>
      </trkpt>
      <trkpt lat="49.03634" lon="6.4504">
        <ele>290.39999389648</ele>
        <time>2023-08-05T13:39:18.000Z</time>
      </trkpt>
      <trkpt lat="49.03644" lon="6.44997">
        <ele>289.39999389648</ele>
        <time>2023-08-05T13:39:20.000Z</time>
      </trkpt>
      <trkpt lat="49.03651" lon="6.44967">
        <ele>288.79998779297</ele>
        <time>2023-08-05T13:39:22.000Z</time>
      </trkpt>
      <trkpt lat="49.03651" lon="6.44967">
        <ele>288.20001220703</ele>
        <time>2023-08-05T13:39:23.000Z</time>
      </trkpt>
      <trkpt lat="49.03662" lon="6.44922">
        <ele>287</ele>
        <time>2023-08-05T13:39:25.000Z</time>
      </trkpt>
      <trkpt lat="49.03665" lon="6.44907">
        <ele>285.60000610352</ele>
        <time>2023-08-05T13:39:27.000Z</time>
      </trkpt>
      <trkpt lat="49.03674" lon="6.44868">
        <ele>284.20001220703</ele>
        <time>2023-08-05T13:39:29.000Z</time>
      </trkpt>
      <trkpt lat="49.03677" lon="6.44856">
        <ele>284</ele>
        <time>2023-08-05T13:39:30.000Z</time>
      </trkpt>
      <trkpt lat="49.03689" lon="6.44807">
        <ele>283.79998779297</ele>
        <time>2023-08-05T13:39:36.000Z</time>
      </trkpt>
      <trkpt lat="49.03699" lon="6.44769">
        <ele>285.39999389648</ele>
        <time>2023-08-05T13:39:41.000Z</time>
      </trkpt>
      <trkpt lat="49.03705" lon="6.44742">
        <ele>286.39999389648</ele>
        <time>2023-08-05T13:39:44.000Z</time>
      </trkpt>
      <trkpt lat="49.03711" lon="6.44714">
        <ele>286.79998779297</ele>
        <time>2023-08-05T13:39:48.000Z</time>
      </trkpt>
      <trkpt lat="49.03722" lon="6.44671">
        <ele>286.39999389648</ele>
        <time>2023-08-05T13:39:54.000Z</time>
      </trkpt>
      <trkpt lat="49.03738" lon="6.44604">
        <ele>284.79998779297</ele>
        <time>2023-08-05T13:39:59.000Z</time>
      </trkpt>
      <trkpt lat="49.03741" lon="6.44591">
        <ele>284.60000610352</ele>
        <time>2023-08-05T13:40:00.000Z</time>
      </trkpt>
      <trkpt lat="49.03747" lon="6.44566">
        <ele>283.60000610352</ele>
        <time>2023-08-05T13:40:02.000Z</time>
      </trkpt>
      <trkpt lat="49.0375" lon="6.44554">
        <ele>282.39999389648</ele>
        <time>2023-08-05T13:40:04.000Z</time>
      </trkpt>
      <trkpt lat="49.03762" lon="6.44505">
        <ele>281</ele>
        <time>2023-08-05T13:40:07.000Z</time>
      </trkpt>
      <trkpt lat="49.03768" lon="6.44482">
        <ele>280.20001220703</ele>
        <time>2023-08-05T13:40:09.000Z</time>
      </trkpt>
      <trkpt lat="49.0377" lon="6.44472">
        <ele>279.79998779297</ele>
        <time>2023-08-05T13:40:10.000Z</time>
      </trkpt>
      <trkpt lat="49.03778" lon="6.4444">
        <ele>278.60000610352</ele>
        <time>2023-08-05T13:40:14.000Z</time>
      </trkpt>
      <trkpt lat="49.03784" lon="6.44419">
        <ele>278</ele>
        <time>2023-08-05T13:40:16.000Z</time>
      </trkpt>
      <trkpt lat="49.03791" lon="6.44388">
        <ele>277.39999389648</ele>
        <time>2023-08-05T13:40:18.000Z</time>
      </trkpt>
      <trkpt lat="49.03806" lon="6.44326">
        <ele>277</ele>
        <time>2023-08-05T13:40:24.000Z</time>
      </trkpt>
      <trkpt lat="49.03815" lon="6.44289">
        <ele>276.39999389648</ele>
        <time>2023-08-05T13:40:28.000Z</time>
      </trkpt>
      <trkpt lat="49.0382" lon="6.44272">
        <ele>276.20001220703</ele>
        <time>2023-08-05T13:40:30.000Z</time>
      </trkpt>
      <trkpt lat="49.03831" lon="6.44227">
        <ele>276.79998779297</ele>
        <time>2023-08-05T13:40:37.000Z</time>
      </trkpt>
      <trkpt lat="49.0384" lon="6.44192">
        <ele>277.60000610352</ele>
        <time>2023-08-05T13:40:43.000Z</time>
      </trkpt>
      <trkpt lat="49.03848" lon="6.44157">
        <ele>278.60000610352</ele>
        <time>2023-08-05T13:40:49.000Z</time>
      </trkpt>
      <trkpt lat="49.0385" lon="6.44151">
        <ele>278.60000610352</ele>
        <time>2023-08-05T13:40:50.000Z</time>
      </trkpt>
      <trkpt lat="49.03857" lon="6.44121">
        <ele>279.60000610352</ele>
        <time>2023-08-05T13:40:57.000Z</time>
      </trkpt>
      <trkpt lat="49.03859" lon="6.44113">
        <ele>279.60000610352</ele>
        <time>2023-08-05T13:40:59.000Z</time>
      </trkpt>
      <trkpt lat="49.03866" lon="6.44085">
        <ele>280.79998779297</ele>
        <time>2023-08-05T13:41:05.000Z</time>
      </trkpt>
      <trkpt lat="49.03869" lon="6.44073">
        <ele>281.20001220703</ele>
        <time>2023-08-05T13:41:08.000Z</time>
      </trkpt>
      <trkpt lat="49.03873" lon="6.44051">
        <ele>281.79998779297</ele>
        <time>2023-08-05T13:41:13.000Z</time>
      </trkpt>
      <trkpt lat="49.03876" lon="6.44039">
        <ele>282.39999389648</ele>
        <time>2023-08-05T13:41:17.000Z</time>
      </trkpt>
      <trkpt lat="49.0388" lon="6.44023">
        <ele>283</ele>
        <time>2023-08-05T13:41:20.000Z</time>
      </trkpt>
      <trkpt lat="49.03884" lon="6.44007">
        <ele>283.60000610352</ele>
        <time>2023-08-05T13:41:24.000Z</time>
      </trkpt>
      <trkpt lat="49.03888" lon="6.43988">
        <ele>284</ele>
        <time>2023-08-05T13:41:29.000Z</time>
      </trkpt>
      <trkpt lat="49.03893" lon="6.43967">
        <ele>284.79998779297</ele>
        <time>2023-08-05T13:41:34.000Z</time>
      </trkpt>
      <trkpt lat="49.03894" lon="6.43963">
        <ele>285</ele>
        <time>2023-08-05T13:41:35.000Z</time>
      </trkpt>
      <trkpt lat="49.03903" lon="6.43927">
        <ele>286</ele>
        <time>2023-08-05T13:41:43.000Z</time>
      </trkpt>
      <trkpt lat="49.03906" lon="6.43914">
        <ele>286.20001220703</ele>
        <time>2023-08-05T13:41:46.000Z</time>
      </trkpt>
      <trkpt lat="49.03915" lon="6.4388">
        <ele>286.60000610352</ele>
        <time>2023-08-05T13:41:53.000Z</time>
      </trkpt>
      <trkpt lat="49.03924" lon="6.43839">
        <ele>287</ele>
        <time>2023-08-05T13:42:01.000Z</time>
      </trkpt>
      <trkpt lat="49.03927" lon="6.43829">
        <ele>287.20001220703</ele>
        <time>2023-08-05T13:42:03.000Z</time>
      </trkpt>
      <trkpt lat="49.03939" lon="6.43782">
        <ele>288.39999389648</ele>
        <time>2023-08-05T13:42:13.000Z</time>
      </trkpt>
      <trkpt lat="49.0394" lon="6.43777">
        <ele>288.20001220703</ele>
        <time>2023-08-05T13:42:15.000Z</time>
      </trkpt>
      <trkpt lat="49.03951" lon="6.43733">
        <ele>289.20001220703</ele>
        <time>2023-08-05T13:42:24.000Z</time>
      </trkpt>
      <trkpt lat="49.03952" lon="6.43729">
        <ele>289.39999389648</ele>
        <time>2023-08-05T13:42:26.000Z</time>
      </trkpt>
      <trkpt lat="49.03962" lon="6.43688">
        <ele>290.60000610352</ele>
        <time>2023-08-05T13:42:35.000Z</time>
      </trkpt>
      <trkpt lat="49.0397" lon="6.43654">
        <ele>291.60000610352</ele>
        <time>2023-08-05T13:42:43.000Z</time>
      </trkpt>
      <trkpt lat="49.03973" lon="6.43641">
        <ele>292</ele>
        <time>2023-08-05T13:42:46.000Z</time>
      </trkpt>
      <trkpt lat="49.03979" lon="6.43617">
        <ele>292.79998779297</ele>
        <time>2023-08-05T13:42:52.000Z</time>
      </trkpt>
      <trkpt lat="49.03988" lon="6.43582">
        <ele>293.79998779297</ele>
        <time>2023-08-05T13:43:00.000Z</time>
      </trkpt>
      <trkpt lat="49.03991" lon="6.4357">
        <ele>294.20001220703</ele>
        <time>2023-08-05T13:43:03.000Z</time>
      </trkpt>
      <trkpt lat="49.03999" lon="6.43536">
        <ele>295</ele>
        <time>2023-08-05T13:43:11.000Z</time>
      </trkpt>
      <trkpt lat="49.04" lon="6.43531">
        <ele>295.39999389648</ele>
        <time>2023-08-05T13:43:12.000Z</time>
      </trkpt>
      <trkpt lat="49.04011" lon="6.43487">
        <ele>296.39999389648</ele>
        <time>2023-08-05T13:43:22.000Z</time>
      </trkpt>
      <trkpt lat="49.04012" lon="6.43482">
        <ele>296.39999389648</ele>
        <time>2023-08-05T13:43:23.000Z</time>
      </trkpt>
      <trkpt lat="49.04022" lon="6.43438">
        <ele>297</ele>
        <time>2023-08-05T13:43:32.000Z</time>
      </trkpt>
      <trkpt lat="49.04025" lon="6.43425">
        <ele>297.60000610352</ele>
        <time>2023-08-05T13:43:35.000Z</time>
      </trkpt>
      <trkpt lat="49.04031" lon="6.43405">
        <ele>297.79998779297</ele>
        <time>2023-08-05T13:43:40.000Z</time>
      </trkpt>
      <trkpt lat="49.0404" lon="6.43368">
        <ele>298.39999389648</ele>
        <time>2023-08-05T13:43:47.000Z</time>
      </trkpt>
      <trkpt lat="49.04045" lon="6.43348">
        <ele>298.79998779297</ele>
        <time>2023-08-05T13:43:51.000Z</time>
      </trkpt>
      <trkpt lat="49.0405" lon="6.43332">
        <ele>298.79998779297</ele>
        <time>2023-08-05T13:43:55.000Z</time>
      </trkpt>
      <trkpt lat="49.04063" lon="6.43283">
        <ele>299.39999389648</ele>
        <time>2023-08-05T13:44:06.000Z</time>
      </trkpt>
      <trkpt lat="49.04066" lon="6.43274">
        <ele>299.60000610352</ele>
        <time>2023-08-05T13:44:10.000Z</time>
      </trkpt>
      <trkpt lat="49.04066" lon="6.43274">
        <ele>299.60000610352</ele>
        <time>2023-08-05T13:44:13.000Z</time>
      </trkpt>
      <trkpt lat="49.0407" lon="6.43274">
        <ele>300</ele>
        <time>2023-08-05T13:47:27.000Z</time>
      </trkpt>
      <trkpt lat="49.04072" lon="6.43273">
        <ele>300</ele>
        <time>2023-08-05T13:47:28.000Z</time>
      </trkpt>
      <trkpt lat="49.04081" lon="6.43262">
        <ele>300.20001220703</ele>
        <time>2023-08-05T13:47:33.000Z</time>
      </trkpt>
      <trkpt lat="49.04094" lon="6.43244">
        <ele>300.60000610352</ele>
        <time>2023-08-05T13:47:40.000Z</time>
      </trkpt>
      <trkpt lat="49.04096" lon="6.43241">
        <ele>300.60000610352</ele>
        <time>2023-08-05T13:47:41.000Z</time>
      </trkpt>
      <trkpt lat="49.0411" lon="6.43224">
        <ele>301.20001220703</ele>
        <time>2023-08-05T13:47:47.000Z</time>
      </trkpt>
      <trkpt lat="49.04117" lon="6.43215">
        <ele>301.79998779297</ele>
        <time>2023-08-05T13:47:50.000Z</time>
      </trkpt>
      <trkpt lat="49.04129" lon="6.43201">
        <ele>302.39999389648</ele>
        <time>2023-08-05T13:47:55.000Z</time>
      </trkpt>
      <trkpt lat="49.04138" lon="6.43187">
        <ele>302.79998779297</ele>
        <time>2023-08-05T13:47:59.000Z</time>
      </trkpt>
      <trkpt lat="49.04148" lon="6.43166">
        <ele>303.20001220703</ele>
        <time>2023-08-05T13:48:04.000Z</time>
      </trkpt>
      <trkpt lat="49.04153" lon="6.43142">
        <ele>304</ele>
        <time>2023-08-05T13:48:09.000Z</time>
      </trkpt>
      <trkpt lat="49.04153" lon="6.43137">
        <ele>304</ele>
        <time>2023-08-05T13:48:10.000Z</time>
      </trkpt>
      <trkpt lat="49.04151" lon="6.43103">
        <ele>304.79998779297</ele>
        <time>2023-08-05T13:48:17.000Z</time>
      </trkpt>
      <trkpt lat="49.04148" lon="6.4308">
        <ele>305</ele>
        <time>2023-08-05T13:48:22.000Z</time>
      </trkpt>
      <trkpt lat="49.04145" lon="6.43067">
        <ele>305.20001220703</ele>
        <time>2023-08-05T13:48:25.000Z</time>
      </trkpt>
      <trkpt lat="49.04139" lon="6.43015">
        <ele>306</ele>
        <time>2023-08-05T13:48:36.000Z</time>
      </trkpt>
      <trkpt lat="49.04139" lon="6.43">
        <ele>306.20001220703</ele>
        <time>2023-08-05T13:48:39.000Z</time>
      </trkpt>
      <trkpt lat="49.04141" lon="6.42977">
        <ele>306.60000610352</ele>
        <time>2023-08-05T13:48:44.000Z</time>
      </trkpt>
      <trkpt lat="49.0415" lon="6.42948">
        <ele>307.20001220703</ele>
        <time>2023-08-05T13:48:51.000Z</time>
      </trkpt>
      <trkpt lat="49.04168" lon="6.42924">
        <ele>308.20001220703</ele>
        <time>2023-08-05T13:48:59.000Z</time>
      </trkpt>
      <trkpt lat="49.04171" lon="6.42921">
        <ele>308.39999389648</ele>
        <time>2023-08-05T13:49:00.000Z</time>
      </trkpt>
      <trkpt lat="49.04193" lon="6.42909">
        <ele>309.39999389648</ele>
        <time>2023-08-05T13:49:08.000Z</time>
      </trkpt>
      <trkpt lat="49.04214" lon="6.4291">
        <ele>310.39999389648</ele>
        <time>2023-08-05T13:49:15.000Z</time>
      </trkpt>
      <trkpt lat="49.04217" lon="6.42911">
        <ele>310.60000610352</ele>
        <time>2023-08-05T13:49:16.000Z</time>
      </trkpt>
      <trkpt lat="49.04227" lon="6.42919">
        <ele>311.60000610352</ele>
        <time>2023-08-05T13:49:20.000Z</time>
      </trkpt>
      <trkpt lat="49.04237" lon="6.42928">
        <ele>312.39999389648</ele>
        <time>2023-08-05T13:49:24.000Z</time>
      </trkpt>
      <trkpt lat="49.04242" lon="6.42933">
        <ele>312.79998779297</ele>
        <time>2023-08-05T13:49:26.000Z</time>
      </trkpt>
      <trkpt lat="49.04257" lon="6.4295">
        <ele>313.79998779297</ele>
        <time>2023-08-05T13:49:33.000Z</time>
      </trkpt>
      <trkpt lat="49.04259" lon="6.42952">
        <ele>314</ele>
        <time>2023-08-05T13:49:34.000Z</time>
      </trkpt>
      <trkpt lat="49.0427" lon="6.42963">
        <ele>315.20001220703</ele>
        <time>2023-08-05T13:49:39.000Z</time>
      </trkpt>
      <trkpt lat="49.04274" lon="6.42968">
        <ele>315.60000610352</ele>
        <time>2023-08-05T13:49:41.000Z</time>
      </trkpt>
      <trkpt lat="49.04288" lon="6.42982">
        <ele>316.39999389648</ele>
        <time>2023-08-05T13:49:47.000Z</time>
      </trkpt>
      <trkpt lat="49.04299" lon="6.42994">
        <ele>317</ele>
        <time>2023-08-05T13:49:52.000Z</time>
      </trkpt>
      <trkpt lat="49.04308" lon="6.43003">
        <ele>317.39999389648</ele>
        <time>2023-08-05T13:49:56.000Z</time>
      </trkpt>
      <trkpt lat="49.04321" lon="6.43017">
        <ele>318.39999389648</ele>
        <time>2023-08-05T13:50:02.000Z</time>
      </trkpt>
      <trkpt lat="49.04326" lon="6.43021">
        <ele>318.79998779297</ele>
        <time>2023-08-05T13:50:04.000Z</time>
      </trkpt>
      <trkpt lat="49.04347" lon="6.43042">
        <ele>319.60000610352</ele>
        <time>2023-08-05T13:50:13.000Z</time>
      </trkpt>
      <trkpt lat="49.04348" lon="6.43044">
        <ele>319.79998779297</ele>
        <time>2023-08-05T13:50:14.000Z</time>
      </trkpt>
      <trkpt lat="49.04364" lon="6.4306">
        <ele>320.60000610352</ele>
        <time>2023-08-05T13:50:21.000Z</time>
      </trkpt>
      <trkpt lat="49.04369" lon="6.43065">
        <ele>320.79998779297</ele>
        <time>2023-08-05T13:50:23.000Z</time>
      </trkpt>
      <trkpt lat="49.04387" lon="6.43084">
        <ele>322</ele>
        <time>2023-08-05T13:50:31.000Z</time>
      </trkpt>
      <trkpt lat="49.04387" lon="6.43084">
        <ele>322</ele>
        <time>2023-08-05T13:50:32.000Z</time>
      </trkpt>
      <trkpt lat="49.0441" lon="6.43107">
        <ele>323</ele>
        <time>2023-08-05T13:50:41.000Z</time>
      </trkpt>
      <trkpt lat="49.04426" lon="6.43123">
        <ele>324</ele>
        <time>2023-08-05T13:50:48.000Z</time>
      </trkpt>
      <trkpt lat="49.04433" lon="6.43131">
        <ele>324.39999389648</ele>
        <time>2023-08-05T13:50:51.000Z</time>
      </trkpt>
      <trkpt lat="49.04446" lon="6.43144">
        <ele>325.20001220703</ele>
        <time>2023-08-05T13:50:57.000Z</time>
      </trkpt>
      <trkpt lat="49.04449" lon="6.43147">
        <ele>325.39999389648</ele>
        <time>2023-08-05T13:50:58.000Z</time>
      </trkpt>
      <trkpt lat="49.04464" lon="6.43162">
        <ele>326.39999389648</ele>
        <time>2023-08-05T13:51:04.000Z</time>
      </trkpt>
      <trkpt lat="49.04469" lon="6.43166">
        <ele>326.60000610352</ele>
        <time>2023-08-05T13:51:06.000Z</time>
      </trkpt>
      <trkpt lat="49.04482" lon="6.43176">
        <ele>327.60000610352</ele>
        <time>2023-08-05T13:51:11.000Z</time>
      </trkpt>
      <trkpt lat="49.04487" lon="6.4318">
        <ele>327.79998779297</ele>
        <time>2023-08-05T13:51:13.000Z</time>
      </trkpt>
      <trkpt lat="49.04497" lon="6.43183">
        <ele>328.60000610352</ele>
        <time>2023-08-05T13:51:17.000Z</time>
      </trkpt>
      <trkpt lat="49.04507" lon="6.43184">
        <ele>329.20001220703</ele>
        <time>2023-08-05T13:51:21.000Z</time>
      </trkpt>
      <trkpt lat="49.04513" lon="6.43183">
        <ele>329.79998779297</ele>
        <time>2023-08-05T13:51:23.000Z</time>
      </trkpt>
      <trkpt lat="49.0452" lon="6.43179">
        <ele>330.60000610352</ele>
        <time>2023-08-05T13:51:26.000Z</time>
      </trkpt>
      <trkpt lat="49.04522" lon="6.43177">
        <ele>331</ele>
        <time>2023-08-05T13:51:27.000Z</time>
      </trkpt>
      <trkpt lat="49.04524" lon="6.43175">
        <ele>331.20001220703</ele>
        <time>2023-08-05T13:51:28.000Z</time>
      </trkpt>
      <trkpt lat="49.04531" lon="6.43164">
        <ele>332</ele>
        <time>2023-08-05T13:51:32.000Z</time>
      </trkpt>
      <trkpt lat="49.04535" lon="6.43156">
        <ele>332.60000610352</ele>
        <time>2023-08-05T13:51:35.000Z</time>
      </trkpt>
      <trkpt lat="49.04541" lon="6.43138">
        <ele>333.20001220703</ele>
        <time>2023-08-05T13:51:39.000Z</time>
      </trkpt>
      <trkpt lat="49.04545" lon="6.43121">
        <ele>333.79998779297</ele>
        <time>2023-08-05T13:51:43.000Z</time>
      </trkpt>
      <trkpt lat="49.04547" lon="6.43109">
        <ele>334.39999389648</ele>
        <time>2023-08-05T13:51:46.000Z</time>
      </trkpt>
      <trkpt lat="49.0455" lon="6.43084">
        <ele>335.39999389648</ele>
        <time>2023-08-05T13:51:52.000Z</time>
      </trkpt>
      <trkpt lat="49.0455" lon="6.43081">
        <ele>335.60000610352</ele>
        <time>2023-08-05T13:51:53.000Z</time>
      </trkpt>
      <trkpt lat="49.04549" lon="6.43052">
        <ele>336.79998779297</ele>
        <time>2023-08-05T13:52:00.000Z</time>
      </trkpt>
      <trkpt lat="49.04549" lon="6.43048">
        <ele>337</ele>
        <time>2023-08-05T13:52:01.000Z</time>
      </trkpt>
      <trkpt lat="49.04547" lon="6.43031">
        <ele>337.79998779297</ele>
        <time>2023-08-05T13:52:05.000Z</time>
      </trkpt>
      <trkpt lat="49.04545" lon="6.43011">
        <ele>338.39999389648</ele>
        <time>2023-08-05T13:52:10.000Z</time>
      </trkpt>
      <trkpt lat="49.04536" lon="6.42973">
        <ele>338.79998779297</ele>
        <time>2023-08-05T13:52:18.000Z</time>
      </trkpt>
      <trkpt lat="49.04529" lon="6.42937">
        <ele>338.60000610352</ele>
        <time>2023-08-05T13:52:24.000Z</time>
      </trkpt>
      <trkpt lat="49.04521" lon="6.42888">
        <ele>337.60000610352</ele>
        <time>2023-08-05T13:52:30.000Z</time>
      </trkpt>
      <trkpt lat="49.04513" lon="6.42849">
        <ele>336.79998779297</ele>
        <time>2023-08-05T13:52:34.000Z</time>
      </trkpt>
      <trkpt lat="49.04511" lon="6.42838">
        <ele>336.60000610352</ele>
        <time>2023-08-05T13:52:35.000Z</time>
      </trkpt>
      <trkpt lat="49.04501" lon="6.42805">
        <ele>335.60000610352</ele>
        <time>2023-08-05T13:52:38.000Z</time>
      </trkpt>
      <trkpt lat="49.0449" lon="6.42771">
        <ele>334.60000610352</ele>
        <time>2023-08-05T13:52:41.000Z</time>
      </trkpt>
      <trkpt lat="49.04478" lon="6.42735">
        <ele>333.20001220703</ele>
        <time>2023-08-05T13:52:45.000Z</time>
      </trkpt>
      <trkpt lat="49.04463" lon="6.42687">
        <ele>331.79998779297</ele>
        <time>2023-08-05T13:52:48.000Z</time>
      </trkpt>
      <trkpt lat="49.04459" lon="6.42674">
        <ele>331.39999389648</ele>
        <time>2023-08-05T13:52:49.000Z</time>
      </trkpt>
      <trkpt lat="49.04444" lon="6.42637">
        <ele>330</ele>
        <time>2023-08-05T13:52:52.000Z</time>
      </trkpt>
      <trkpt lat="49.04432" lon="6.42617">
        <ele>329.20001220703</ele>
        <time>2023-08-05T13:52:54.000Z</time>
      </trkpt>
      <trkpt lat="49.04432" lon="6.42617">
        <ele>328.60000610352</ele>
        <time>2023-08-05T13:52:55.000Z</time>
      </trkpt>
      <trkpt lat="49.04412" lon="6.42587">
        <ele>327.60000610352</ele>
        <time>2023-08-05T13:52:57.000Z</time>
      </trkpt>
      <trkpt lat="49.04398" lon="6.42566">
        <ele>326.39999389648</ele>
        <time>2023-08-05T13:52:59.000Z</time>
      </trkpt>
      <trkpt lat="49.04383" lon="6.42546">
        <ele>325.60000610352</ele>
        <time>2023-08-05T13:53:01.000Z</time>
      </trkpt>
      <trkpt lat="49.04375" lon="6.42536">
        <ele>325</ele>
        <time>2023-08-05T13:53:02.000Z</time>
      </trkpt>
      <trkpt lat="49.04344" lon="6.42491">
        <ele>323</ele>
        <time>2023-08-05T13:53:06.000Z</time>
      </trkpt>
      <trkpt lat="49.04337" lon="6.4248">
        <ele>322.39999389648</ele>
        <time>2023-08-05T13:53:07.000Z</time>
      </trkpt>
      <trkpt lat="49.04332" lon="6.4247">
        <ele>322.20001220703</ele>
        <time>2023-08-05T13:53:08.000Z</time>
      </trkpt>
      <trkpt lat="49.04327" lon="6.42456">
        <ele>321.39999389648</ele>
        <time>2023-08-05T13:53:09.000Z</time>
      </trkpt>
      <trkpt lat="49.04323" lon="6.42438">
        <ele>321</ele>
        <time>2023-08-05T13:53:10.000Z</time>
      </trkpt>
      <trkpt lat="49.04324" lon="6.42406">
        <ele>320.39999389648</ele>
        <time>2023-08-05T13:53:12.000Z</time>
      </trkpt>
      <trkpt lat="49.04326" lon="6.42393">
        <ele>319.79998779297</ele>
        <time>2023-08-05T13:53:13.000Z</time>
      </trkpt>
      <trkpt lat="49.04328" lon="6.42377">
        <ele>318.79998779297</ele>
        <time>2023-08-05T13:53:14.000Z</time>
      </trkpt>
      <trkpt lat="49.04328" lon="6.42341">
        <ele>317.60000610352</ele>
        <time>2023-08-05T13:53:16.000Z</time>
      </trkpt>
      <trkpt lat="49.0432" lon="6.42296">
        <ele>316.20001220703</ele>
        <time>2023-08-05T13:53:19.000Z</time>
      </trkpt>
      <trkpt lat="49.04316" lon="6.4228">
        <ele>315.79998779297</ele>
        <time>2023-08-05T13:53:20.000Z</time>
      </trkpt>
      <trkpt lat="49.04311" lon="6.42261">
        <ele>314.60000610352</ele>
        <time>2023-08-05T13:53:21.000Z</time>
      </trkpt>
      <trkpt lat="49.04304" lon="6.42233">
        <ele>313.20001220703</ele>
        <time>2023-08-05T13:53:23.000Z</time>
      </trkpt>
      <trkpt lat="49.04292" lon="6.42187">
        <ele>311.39999389648</ele>
        <time>2023-08-05T13:53:26.000Z</time>
      </trkpt>
      <trkpt lat="49.04285" lon="6.42156">
        <ele>310</ele>
        <time>2023-08-05T13:53:28.000Z</time>
      </trkpt>
      <trkpt lat="49.04277" lon="6.42128">
        <ele>308.60000610352</ele>
        <time>2023-08-05T13:53:30.000Z</time>
      </trkpt>
      <trkpt lat="49.04267" lon="6.42086">
        <ele>307</ele>
        <time>2023-08-05T13:53:33.000Z</time>
      </trkpt>
      <trkpt lat="49.0426" lon="6.42058">
        <ele>305.79998779297</ele>
        <time>2023-08-05T13:53:35.000Z</time>
      </trkpt>
      <trkpt lat="49.04253" lon="6.42016">
        <ele>304.39999389648</ele>
        <time>2023-08-05T13:53:38.000Z</time>
      </trkpt>
      <trkpt lat="49.0425" lon="6.42001">
        <ele>304.20001220703</ele>
        <time>2023-08-05T13:53:39.000Z</time>
      </trkpt>
      <trkpt lat="49.04249" lon="6.41987">
        <ele>303.20001220703</ele>
        <time>2023-08-05T13:53:40.000Z</time>
      </trkpt>
      <trkpt lat="49.04248" lon="6.41957">
        <ele>301.79998779297</ele>
        <time>2023-08-05T13:53:42.000Z</time>
      </trkpt>
      <trkpt lat="49.04249" lon="6.41942">
        <ele>301.39999389648</ele>
        <time>2023-08-05T13:53:43.000Z</time>
      </trkpt>
      <trkpt lat="49.0425" lon="6.41928">
        <ele>300.60000610352</ele>
        <time>2023-08-05T13:53:44.000Z</time>
      </trkpt>
      <trkpt lat="49.04251" lon="6.41913">
        <ele>299.20001220703</ele>
        <time>2023-08-05T13:53:45.000Z</time>
      </trkpt>
      <trkpt lat="49.04256" lon="6.41884">
        <ele>297.79998779297</ele>
        <time>2023-08-05T13:53:47.000Z</time>
      </trkpt>
      <trkpt lat="49.04258" lon="6.4187">
        <ele>297.60000610352</ele>
        <time>2023-08-05T13:53:48.000Z</time>
      </trkpt>
      <trkpt lat="49.04266" lon="6.41843">
        <ele>296.60000610352</ele>
        <time>2023-08-05T13:53:50.000Z</time>
      </trkpt>
      <trkpt lat="49.0427" lon="6.4183">
        <ele>295.39999389648</ele>
        <time>2023-08-05T13:53:51.000Z</time>
      </trkpt>
      <trkpt lat="49.04279" lon="6.41805">
        <ele>294</ele>
        <time>2023-08-05T13:53:53.000Z</time>
      </trkpt>
      <trkpt lat="49.04288" lon="6.4178">
        <ele>292.60000610352</ele>
        <time>2023-08-05T13:53:55.000Z</time>
      </trkpt>
      <trkpt lat="49.04301" lon="6.41744">
        <ele>290.79998779297</ele>
        <time>2023-08-05T13:53:58.000Z</time>
      </trkpt>
      <trkpt lat="49.04306" lon="6.41732">
        <ele>289.60000610352</ele>
        <time>2023-08-05T13:53:59.000Z</time>
      </trkpt>
      <trkpt lat="49.0431" lon="6.4172">
        <ele>289.20001220703</ele>
        <time>2023-08-05T13:54:00.000Z</time>
      </trkpt>
      <trkpt lat="49.04315" lon="6.41708">
        <ele>288.60000610352</ele>
        <time>2023-08-05T13:54:01.000Z</time>
      </trkpt>
      <trkpt lat="49.04324" lon="6.41685">
        <ele>287.79998779297</ele>
        <time>2023-08-05T13:54:03.000Z</time>
      </trkpt>
      <trkpt lat="49.04332" lon="6.41662">
        <ele>286.79998779297</ele>
        <time>2023-08-05T13:54:05.000Z</time>
      </trkpt>
      <trkpt lat="49.04345" lon="6.41627">
        <ele>285</ele>
        <time>2023-08-05T13:54:08.000Z</time>
      </trkpt>
      <trkpt lat="49.04349" lon="6.41616">
        <ele>284.79998779297</ele>
        <time>2023-08-05T13:54:09.000Z</time>
      </trkpt>
      <trkpt lat="49.04358" lon="6.41594">
        <ele>283.79998779297</ele>
        <time>2023-08-05T13:54:11.000Z</time>
      </trkpt>
      <trkpt lat="49.04369" lon="6.41562">
        <ele>282.39999389648</ele>
        <time>2023-08-05T13:54:14.000Z</time>
      </trkpt>
      <trkpt lat="49.04377" lon="6.41543">
        <ele>281.20001220703</ele>
        <time>2023-08-05T13:54:16.000Z</time>
      </trkpt>
      <trkpt lat="49.04387" lon="6.41514">
        <ele>280</ele>
        <time>2023-08-05T13:54:19.000Z</time>
      </trkpt>
      <trkpt lat="49.04403" lon="6.41471">
        <ele>278.79998779297</ele>
        <time>2023-08-05T13:54:24.000Z</time>
      </trkpt>
      <trkpt lat="49.04411" lon="6.4145">
        <ele>277.60000610352</ele>
        <time>2023-08-05T13:54:27.000Z</time>
      </trkpt>
      <trkpt lat="49.04418" lon="6.41432">
        <ele>277</ele>
        <time>2023-08-05T13:54:30.000Z</time>
      </trkpt>
      <trkpt lat="49.04422" lon="6.41421">
        <ele>276.60000610352</ele>
        <time>2023-08-05T13:54:32.000Z</time>
      </trkpt>
      <trkpt lat="49.04436" lon="6.41383">
        <ele>276.20001220703</ele>
        <time>2023-08-05T13:54:38.000Z</time>
      </trkpt>
      <trkpt lat="49.04444" lon="6.41363">
        <ele>275.79998779297</ele>
        <time>2023-08-05T13:54:41.000Z</time>
      </trkpt>
      <trkpt lat="49.04459" lon="6.4132">
        <ele>274.79998779297</ele>
        <time>2023-08-05T13:54:47.000Z</time>
      </trkpt>
      <trkpt lat="49.04475" lon="6.41276">
        <ele>273.60000610352</ele>
        <time>2023-08-05T13:54:53.000Z</time>
      </trkpt>
      <trkpt lat="49.04481" lon="6.4126">
        <ele>273.20001220703</ele>
        <time>2023-08-05T13:54:55.000Z</time>
      </trkpt>
      <trkpt lat="49.04495" lon="6.4122">
        <ele>272.39999389648</ele>
        <time>2023-08-05T13:55:00.000Z</time>
      </trkpt>
      <trkpt lat="49.04512" lon="6.41173">
        <ele>271.60000610352</ele>
        <time>2023-08-05T13:55:06.000Z</time>
      </trkpt>
      <trkpt lat="49.04521" lon="6.4115">
        <ele>271.20001220703</ele>
        <time>2023-08-05T13:55:09.000Z</time>
      </trkpt>
      <trkpt lat="49.04537" lon="6.41105">
        <ele>270</ele>
        <time>2023-08-05T13:55:15.000Z</time>
      </trkpt>
      <trkpt lat="49.04542" lon="6.4109">
        <ele>269.60000610352</ele>
        <time>2023-08-05T13:55:17.000Z</time>
      </trkpt>
      <trkpt lat="49.04557" lon="6.4105">
        <ele>268.79998779297</ele>
        <time>2023-08-05T13:55:22.000Z</time>
      </trkpt>
      <trkpt lat="49.04568" lon="6.4102">
        <ele>268</ele>
        <time>2023-08-05T13:55:26.000Z</time>
      </trkpt>
      <trkpt lat="49.04571" lon="6.41012">
        <ele>267.79998779297</ele>
        <time>2023-08-05T13:55:27.000Z</time>
      </trkpt>
      <trkpt lat="49.04585" lon="6.40973">
        <ele>266.79998779297</ele>
        <time>2023-08-05T13:55:32.000Z</time>
      </trkpt>
      <trkpt lat="49.04588" lon="6.40965">
        <ele>266.60000610352</ele>
        <time>2023-08-05T13:55:33.000Z</time>
      </trkpt>
      <trkpt lat="49.046" lon="6.40933">
        <ele>266.39999389648</ele>
        <time>2023-08-05T13:55:37.000Z</time>
      </trkpt>
      <trkpt lat="49.0461" lon="6.40902">
        <ele>266.39999389648</ele>
        <time>2023-08-05T13:55:41.000Z</time>
      </trkpt>
      <trkpt lat="49.04627" lon="6.40859">
        <ele>266</ele>
        <time>2023-08-05T13:55:47.000Z</time>
      </trkpt>
      <trkpt lat="49.0464" lon="6.40825">
        <ele>266</ele>
        <time>2023-08-05T13:55:52.000Z</time>
      </trkpt>
      <trkpt lat="49.04647" lon="6.40805">
        <ele>265.79998779297</ele>
        <time>2023-08-05T13:55:55.000Z</time>
      </trkpt>
      <trkpt lat="49.04668" lon="6.40758">
        <ele>265.60000610352</ele>
        <time>2023-08-05T13:56:03.000Z</time>
      </trkpt>
      <trkpt lat="49.04688" lon="6.40716">
        <ele>265.60000610352</ele>
        <time>2023-08-05T13:56:11.000Z</time>
      </trkpt>
      <trkpt lat="49.0471" lon="6.4067">
        <ele>266.60000610352</ele>
        <time>2023-08-05T13:56:21.000Z</time>
      </trkpt>
      <trkpt lat="49.04716" lon="6.40658">
        <ele>267</ele>
        <time>2023-08-05T13:56:24.000Z</time>
      </trkpt>
      <trkpt lat="49.04726" lon="6.40637">
        <ele>267.60000610352</ele>
        <time>2023-08-05T13:56:30.000Z</time>
      </trkpt>
      <trkpt lat="49.04733" lon="6.40624">
        <ele>268</ele>
        <time>2023-08-05T13:56:34.000Z</time>
      </trkpt>
      <trkpt lat="49.04741" lon="6.40605">
        <ele>268.60000610352</ele>
        <time>2023-08-05T13:56:39.000Z</time>
      </trkpt>
      <trkpt lat="49.04749" lon="6.4059">
        <ele>269.20001220703</ele>
        <time>2023-08-05T13:56:44.000Z</time>
      </trkpt>
      <trkpt lat="49.04761" lon="6.40562">
        <ele>270</ele>
        <time>2023-08-05T13:56:52.000Z</time>
      </trkpt>
      <trkpt lat="49.04764" lon="6.40556">
        <ele>270.39999389648</ele>
        <time>2023-08-05T13:56:54.000Z</time>
      </trkpt>
      <trkpt lat="49.04776" lon="6.4053">
        <ele>271.39999389648</ele>
        <time>2023-08-05T13:57:01.000Z</time>
      </trkpt>
      <trkpt lat="49.04793" lon="6.40493">
        <ele>272.60000610352</ele>
        <time>2023-08-05T13:57:11.000Z</time>
      </trkpt>
      <trkpt lat="49.04794" lon="6.4049">
        <ele>272.79998779297</ele>
        <time>2023-08-05T13:57:12.000Z</time>
      </trkpt>
      <trkpt lat="49.04805" lon="6.40468">
        <ele>273.60000610352</ele>
        <time>2023-08-05T13:57:18.000Z</time>
      </trkpt>
      <trkpt lat="49.04815" lon="6.40446">
        <ele>274</ele>
        <time>2023-08-05T13:57:24.000Z</time>
      </trkpt>
      <trkpt lat="49.04835" lon="6.40407">
        <ele>274.79998779297</ele>
        <time>2023-08-05T13:57:34.000Z</time>
      </trkpt>
      <trkpt lat="49.04837" lon="6.40402">
        <ele>274.79998779297</ele>
        <time>2023-08-05T13:57:35.000Z</time>
      </trkpt>
      <trkpt lat="49.04849" lon="6.40375">
        <ele>275</ele>
        <time>2023-08-05T13:57:41.000Z</time>
      </trkpt>
      <trkpt lat="49.04863" lon="6.40344">
        <ele>275.20001220703</ele>
        <time>2023-08-05T13:57:49.000Z</time>
      </trkpt>
      <trkpt lat="49.04876" lon="6.40316">
        <ele>275.39999389648</ele>
        <time>2023-08-05T13:57:56.000Z</time>
      </trkpt>
      <trkpt lat="49.04893" lon="6.40281">
        <ele>275.60000610352</ele>
        <time>2023-08-05T13:58:04.000Z</time>
      </trkpt>
      <trkpt lat="49.04917" lon="6.40228">
        <ele>275.60000610352</ele>
        <time>2023-08-05T13:58:15.000Z</time>
      </trkpt>
      <trkpt lat="49.04935" lon="6.40187">
        <ele>275.39999389648</ele>
        <time>2023-08-05T13:58:23.000Z</time>
      </trkpt>
      <trkpt lat="49.04946" lon="6.40138">
        <ele>275</ele>
        <time>2023-08-05T13:58:32.000Z</time>
      </trkpt>
      <trkpt lat="49.04952" lon="6.40091">
        <ele>275</ele>
        <time>2023-08-05T13:58:41.000Z</time>
      </trkpt>
      <trkpt lat="49.04956" lon="6.40052">
        <ele>275.60000610352</ele>
        <time>2023-08-05T13:58:49.000Z</time>
      </trkpt>
      <trkpt lat="49.04957" lon="6.40026">
        <ele>275.79998779297</ele>
        <time>2023-08-05T13:58:55.000Z</time>
      </trkpt>
      <trkpt lat="49.04959" lon="6.40017">
        <ele>276</ele>
        <time>2023-08-05T13:58:57.000Z</time>
      </trkpt>
      <trkpt lat="49.04962" lon="6.3998">
        <ele>276.79998779297</ele>
        <time>2023-08-05T13:59:07.000Z</time>
      </trkpt>
      <trkpt lat="49.04962" lon="6.39976">
        <ele>277</ele>
        <time>2023-08-05T13:59:08.000Z</time>
      </trkpt>
      <trkpt lat="49.04964" lon="6.39946">
        <ele>278</ele>
        <time>2023-08-05T13:59:16.000Z</time>
      </trkpt>
      <trkpt lat="49.04964" lon="6.39938">
        <ele>278.39999389648</ele>
        <time>2023-08-05T13:59:18.000Z</time>
      </trkpt>
      <trkpt lat="49.04967" lon="6.39913">
        <ele>279.39999389648</ele>
        <time>2023-08-05T13:59:25.000Z</time>
      </trkpt>
      <trkpt lat="49.04967" lon="6.39903">
        <ele>279.60000610352</ele>
        <time>2023-08-05T13:59:28.000Z</time>
      </trkpt>
      <trkpt lat="49.04969" lon="6.39881">
        <ele>280.39999389648</ele>
        <time>2023-08-05T13:59:34.000Z</time>
      </trkpt>
      <trkpt lat="49.04969" lon="6.3987">
        <ele>280.79998779297</ele>
        <time>2023-08-05T13:59:37.000Z</time>
      </trkpt>
      <trkpt lat="49.04971" lon="6.39853">
        <ele>281.39999389648</ele>
        <time>2023-08-05T13:59:42.000Z</time>
      </trkpt>
      <trkpt lat="49.04972" lon="6.39839">
        <ele>281.79998779297</ele>
        <time>2023-08-05T13:59:46.000Z</time>
      </trkpt>
      <trkpt lat="49.04974" lon="6.39815">
        <ele>282.39999389648</ele>
        <time>2023-08-05T13:59:52.000Z</time>
      </trkpt>
      <trkpt lat="49.04975" lon="6.39805">
        <ele>282.79998779297</ele>
        <time>2023-08-05T13:59:55.000Z</time>
      </trkpt>
      <trkpt lat="49.04977" lon="6.39776">
        <ele>283.60000610352</ele>
        <time>2023-08-05T14:00:03.000Z</time>
      </trkpt>
      <trkpt lat="49.04977" lon="6.39772">
        <ele>283.60000610352</ele>
        <time>2023-08-05T14:00:04.000Z</time>
      </trkpt>
      <trkpt lat="49.0498" lon="6.39741">
        <ele>284.60000610352</ele>
        <time>2023-08-05T14:00:12.000Z</time>
      </trkpt>
      <trkpt lat="49.0498" lon="6.39738">
        <ele>284.60000610352</ele>
        <time>2023-08-05T14:00:13.000Z</time>
      </trkpt>
      <trkpt lat="49.04982" lon="6.39709">
        <ele>285.60000610352</ele>
        <time>2023-08-05T14:00:21.000Z</time>
      </trkpt>
      <trkpt lat="49.04982" lon="6.39703">
        <ele>285.60000610352</ele>
        <time>2023-08-05T14:00:23.000Z</time>
      </trkpt>
      <trkpt lat="49.04984" lon="6.39673">
        <ele>286.60000610352</ele>
        <time>2023-08-05T14:00:32.000Z</time>
      </trkpt>
      <trkpt lat="49.04984" lon="6.39662">
        <ele>286.60000610352</ele>
        <time>2023-08-05T14:00:34.000Z</time>
      </trkpt>
      <trkpt lat="49.04985" lon="6.39651">
        <ele>287</ele>
        <time>2023-08-05T14:00:37.000Z</time>
      </trkpt>
      <trkpt lat="49.04987" lon="6.39619">
        <ele>287.79998779297</ele>
        <time>2023-08-05T14:00:46.000Z</time>
      </trkpt>
      <trkpt lat="49.04988" lon="6.39605">
        <ele>288</ele>
        <time>2023-08-05T14:00:50.000Z</time>
      </trkpt>
      <trkpt lat="49.04989" lon="6.39588">
        <ele>289.20001220703</ele>
        <time>2023-08-05T14:00:55.000Z</time>
      </trkpt>
      <trkpt lat="49.0499" lon="6.39578">
        <ele>289.39999389648</ele>
        <time>2023-08-05T14:00:58.000Z</time>
      </trkpt>
      <trkpt lat="49.04991" lon="6.3956">
        <ele>290.20001220703</ele>
        <time>2023-08-05T14:01:03.000Z</time>
      </trkpt>
      <trkpt lat="49.04993" lon="6.39542">
        <ele>290.79998779297</ele>
        <time>2023-08-05T14:01:08.000Z</time>
      </trkpt>
      <trkpt lat="49.04994" lon="6.39528">
        <ele>291.20001220703</ele>
        <time>2023-08-05T14:01:12.000Z</time>
      </trkpt>
      <trkpt lat="49.04996" lon="6.3951">
        <ele>292</ele>
        <time>2023-08-05T14:01:17.000Z</time>
      </trkpt>
      <trkpt lat="49.04998" lon="6.39496">
        <ele>292.39999389648</ele>
        <time>2023-08-05T14:01:21.000Z</time>
      </trkpt>
      <trkpt lat="49.05004" lon="6.39473">
        <ele>293.39999389648</ele>
        <time>2023-08-05T14:01:28.000Z</time>
      </trkpt>
      <trkpt lat="49.05005" lon="6.3947">
        <ele>293.60000610352</ele>
        <time>2023-08-05T14:01:29.000Z</time>
      </trkpt>
      <trkpt lat="49.05014" lon="6.3945">
        <ele>294.60000610352</ele>
        <time>2023-08-05T14:01:36.000Z</time>
      </trkpt>
      <trkpt lat="49.05025" lon="6.39438">
        <ele>295.79998779297</ele>
        <time>2023-08-05T14:01:43.000Z</time>
      </trkpt>
      <trkpt lat="49.05032" lon="6.39433">
        <ele>296</ele>
        <time>2023-08-05T14:01:45.000Z</time>
      </trkpt>
      <trkpt lat="49.05047" lon="6.39428">
        <ele>296.79998779297</ele>
        <time>2023-08-05T14:01:51.000Z</time>
      </trkpt>
      <trkpt lat="49.05049" lon="6.39428">
        <ele>297</ele>
        <time>2023-08-05T14:01:52.000Z</time>
      </trkpt>
      <trkpt lat="49.05078" lon="6.39428">
        <ele>297.79998779297</ele>
        <time>2023-08-05T14:02:02.000Z</time>
      </trkpt>
      <trkpt lat="49.05099" lon="6.39431">
        <ele>298.39999389648</ele>
        <time>2023-08-05T14:02:09.000Z</time>
      </trkpt>
      <trkpt lat="49.05118" lon="6.39434">
        <ele>299</ele>
        <time>2023-08-05T14:02:15.000Z</time>
      </trkpt>
      <trkpt lat="49.05135" lon="6.39437">
        <ele>299.39999389648</ele>
        <time>2023-08-05T14:02:21.000Z</time>
      </trkpt>
      <trkpt lat="49.05161" lon="6.3944">
        <ele>300.20001220703</ele>
        <time>2023-08-05T14:02:30.000Z</time>
      </trkpt>
      <trkpt lat="49.0519" lon="6.39444">
        <ele>300.60000610352</ele>
        <time>2023-08-05T14:02:39.000Z</time>
      </trkpt>
      <trkpt lat="49.05199" lon="6.39445">
        <ele>301.20001220703</ele>
        <time>2023-08-05T14:02:42.000Z</time>
      </trkpt>
      <trkpt lat="49.05213" lon="6.39444">
        <ele>301.60000610352</ele>
        <time>2023-08-05T14:02:47.000Z</time>
      </trkpt>
      <trkpt lat="49.05235" lon="6.39437">
        <ele>302.39999389648</ele>
        <time>2023-08-05T14:02:55.000Z</time>
      </trkpt>
      <trkpt lat="49.05252" lon="6.3942">
        <ele>303.39999389648</ele>
        <time>2023-08-05T14:03:03.000Z</time>
      </trkpt>
      <trkpt lat="49.05256" lon="6.39414">
        <ele>303.79998779297</ele>
        <time>2023-08-05T14:03:05.000Z</time>
      </trkpt>
      <trkpt lat="49.05265" lon="6.39398">
        <ele>304.39999389648</ele>
        <time>2023-08-05T14:03:10.000Z</time>
      </trkpt>
      <trkpt lat="49.05274" lon="6.39376">
        <ele>305.39999389648</ele>
        <time>2023-08-05T14:03:16.000Z</time>
      </trkpt>
      <trkpt lat="49.05279" lon="6.39365">
        <ele>305.79998779297</ele>
        <time>2023-08-05T14:03:19.000Z</time>
      </trkpt>
      <trkpt lat="49.0529" lon="6.39335">
        <ele>306</ele>
        <time>2023-08-05T14:03:26.000Z</time>
      </trkpt>
      <trkpt lat="49.053" lon="6.39309">
        <ele>306</ele>
        <time>2023-08-05T14:03:31.000Z</time>
      </trkpt>
      <trkpt lat="49.05309" lon="6.39287">
        <ele>306</ele>
        <time>2023-08-05T14:03:35.000Z</time>
      </trkpt>
      <trkpt lat="49.05316" lon="6.39269">
        <ele>305.79998779297</ele>
        <time>2023-08-05T14:03:38.000Z</time>
      </trkpt>
      <trkpt lat="49.05335" lon="6.39221">
        <ele>304.60000610352</ele>
        <time>2023-08-05T14:03:45.000Z</time>
      </trkpt>
      <trkpt lat="49.05353" lon="6.39177">
        <ele>303.39999389648</ele>
        <time>2023-08-05T14:03:50.000Z</time>
      </trkpt>
      <trkpt lat="49.05357" lon="6.39168">
        <ele>303.20001220703</ele>
        <time>2023-08-05T14:03:51.000Z</time>
      </trkpt>
      <trkpt lat="49.05366" lon="6.39147">
        <ele>302.20001220703</ele>
        <time>2023-08-05T14:03:53.000Z</time>
      </trkpt>
      <trkpt lat="49.05379" lon="6.39115">
        <ele>301.20001220703</ele>
        <time>2023-08-05T14:03:56.000Z</time>
      </trkpt>
      <trkpt lat="49.05383" lon="6.39104">
        <ele>300.60000610352</ele>
        <time>2023-08-05T14:03:57.000Z</time>
      </trkpt>
      <trkpt lat="49.05391" lon="6.39085">
        <ele>299.79998779297</ele>
        <time>2023-08-05T14:03:59.000Z</time>
      </trkpt>
      <trkpt lat="49.05402" lon="6.39061">
        <ele>299.39999389648</ele>
        <time>2023-08-05T14:04:02.000Z</time>
      </trkpt>
      <trkpt lat="49.05417" lon="6.39022">
        <ele>300.20001220703</ele>
        <time>2023-08-05T14:04:08.000Z</time>
      </trkpt>
      <trkpt lat="49.05428" lon="6.38996">
        <ele>301</ele>
        <time>2023-08-05T14:04:13.000Z</time>
      </trkpt>
      <trkpt lat="49.05432" lon="6.38986">
        <ele>301.60000610352</ele>
        <time>2023-08-05T14:04:15.000Z</time>
      </trkpt>
      <trkpt lat="49.05442" lon="6.38961">
        <ele>302.20001220703</ele>
        <time>2023-08-05T14:04:20.000Z</time>
      </trkpt>
      <trkpt lat="49.05454" lon="6.38935">
        <ele>302.39999389648</ele>
        <time>2023-08-05T14:04:25.000Z</time>
      </trkpt>
      <trkpt lat="49.05461" lon="6.38918">
        <ele>302.60000610352</ele>
        <time>2023-08-05T14:04:28.000Z</time>
      </trkpt>
      <trkpt lat="49.05473" lon="6.38895">
        <ele>302.60000610352</ele>
        <time>2023-08-05T14:04:32.000Z</time>
      </trkpt>
      <trkpt lat="49.05508" lon="6.38831">
        <ele>301</ele>
        <time>2023-08-05T14:04:42.000Z</time>
      </trkpt>
      <trkpt lat="49.05529" lon="6.38794">
        <ele>300</ele>
        <time>2023-08-05T14:04:47.000Z</time>
      </trkpt>
      <trkpt lat="49.05542" lon="6.3877">
        <ele>299.20001220703</ele>
        <time>2023-08-05T14:04:50.000Z</time>
      </trkpt>
      <trkpt lat="49.05546" lon="6.38763">
        <ele>298.79998779297</ele>
        <time>2023-08-05T14:04:51.000Z</time>
      </trkpt>
      <trkpt lat="49.05563" lon="6.38731">
        <ele>297.60000610352</ele>
        <time>2023-08-05T14:04:55.000Z</time>
      </trkpt>
      <trkpt lat="49.05576" lon="6.38708">
        <ele>297.20001220703</ele>
        <time>2023-08-05T14:04:58.000Z</time>
      </trkpt>
      <trkpt lat="49.05591" lon="6.38678">
        <ele>296.60000610352</ele>
        <time>2023-08-05T14:05:02.000Z</time>
      </trkpt>
      <trkpt lat="49.056" lon="6.38653">
        <ele>296</ele>
        <time>2023-08-05T14:05:05.000Z</time>
      </trkpt>
      <trkpt lat="49.05609" lon="6.38628">
        <ele>295.39999389648</ele>
        <time>2023-08-05T14:05:08.000Z</time>
      </trkpt>
      <trkpt lat="49.05621" lon="6.3859">
        <ele>295</ele>
        <time>2023-08-05T14:05:13.000Z</time>
      </trkpt>
      <trkpt lat="49.05639" lon="6.38532">
        <ele>294.79998779297</ele>
        <time>2023-08-05T14:05:21.000Z</time>
      </trkpt>
      <trkpt lat="49.05662" lon="6.38459">
        <ele>294.60000610352</ele>
        <time>2023-08-05T14:05:31.000Z</time>
      </trkpt>
      <trkpt lat="49.05679" lon="6.38405">
        <ele>294.39999389648</ele>
        <time>2023-08-05T14:05:39.000Z</time>
      </trkpt>
      <trkpt lat="49.05689" lon="6.38374">
        <ele>294.60000610352</ele>
        <time>2023-08-05T14:05:45.000Z</time>
      </trkpt>
      <trkpt lat="49.05696" lon="6.38354">
        <ele>295.39999389648</ele>
        <time>2023-08-05T14:05:50.000Z</time>
      </trkpt>
      <trkpt lat="49.05699" lon="6.38346">
        <ele>295.79998779297</ele>
        <time>2023-08-05T14:05:52.000Z</time>
      </trkpt>
      <trkpt lat="49.05702" lon="6.38335">
        <ele>296.60000610352</ele>
        <time>2023-08-05T14:05:55.000Z</time>
      </trkpt>
      <trkpt lat="49.05708" lon="6.38318">
        <ele>297.79998779297</ele>
        <time>2023-08-05T14:06:00.000Z</time>
      </trkpt>
      <trkpt lat="49.05713" lon="6.383">
        <ele>298.79998779297</ele>
        <time>2023-08-05T14:06:05.000Z</time>
      </trkpt>
      <trkpt lat="49.05716" lon="6.38289">
        <ele>299.39999389648</ele>
        <time>2023-08-05T14:06:08.000Z</time>
      </trkpt>
      <trkpt lat="49.05722" lon="6.38273">
        <ele>299.79998779297</ele>
        <time>2023-08-05T14:06:12.000Z</time>
      </trkpt>
      <trkpt lat="49.05726" lon="6.38258">
        <ele>300.60000610352</ele>
        <time>2023-08-05T14:06:16.000Z</time>
      </trkpt>
      <trkpt lat="49.05727" lon="6.38255">
        <ele>301</ele>
        <time>2023-08-05T14:06:17.000Z</time>
      </trkpt>
      <trkpt lat="49.05735" lon="6.38233">
        <ele>302</ele>
        <time>2023-08-05T14:06:23.000Z</time>
      </trkpt>
      <trkpt lat="49.05736" lon="6.38229">
        <ele>302.20001220703</ele>
        <time>2023-08-05T14:06:24.000Z</time>
      </trkpt>
      <trkpt lat="49.05744" lon="6.38204">
        <ele>303</ele>
        <time>2023-08-05T14:06:31.000Z</time>
      </trkpt>
      <trkpt lat="49.05749" lon="6.38193">
        <ele>303.20001220703</ele>
        <time>2023-08-05T14:06:34.000Z</time>
      </trkpt>
      <trkpt lat="49.05757" lon="6.38172">
        <ele>304.20001220703</ele>
        <time>2023-08-05T14:06:40.000Z</time>
      </trkpt>
      <trkpt lat="49.05764" lon="6.38153">
        <ele>305.20001220703</ele>
        <time>2023-08-05T14:06:45.000Z</time>
      </trkpt>
      <trkpt lat="49.05767" lon="6.38145">
        <ele>305.39999389648</ele>
        <time>2023-08-05T14:06:47.000Z</time>
      </trkpt>
      <trkpt lat="49.05781" lon="6.38106">
        <ele>305.60000610352</ele>
        <time>2023-08-05T14:06:56.000Z</time>
      </trkpt>
      <trkpt lat="49.05792" lon="6.38077">
        <ele>305.79998779297</ele>
        <time>2023-08-05T14:07:03.000Z</time>
      </trkpt>
      <trkpt lat="49.05805" lon="6.38043">
        <ele>305.79998779297</ele>
        <time>2023-08-05T14:07:12.000Z</time>
      </trkpt>
      <trkpt lat="49.05807" lon="6.3804">
        <ele>305.79998779297</ele>
        <time>2023-08-05T14:07:13.000Z</time>
      </trkpt>
      <trkpt lat="49.05815" lon="6.38024">
        <ele>306</ele>
        <time>2023-08-05T14:07:19.000Z</time>
      </trkpt>
      <trkpt lat="49.05817" lon="6.38017">
        <ele>306.20001220703</ele>
        <time>2023-08-05T14:07:25.000Z</time>
      </trkpt>
      <trkpt lat="49.05817" lon="6.38017">
        <ele>306.39999389648</ele>
        <time>2023-08-05T14:07:26.000Z</time>
      </trkpt>
      <trkpt lat="49.05818" lon="6.38014">
        <ele>306.79998779297</ele>
        <time>2023-08-05T14:10:06.000Z</time>
      </trkpt>
      <trkpt lat="49.05819" lon="6.38007">
        <ele>306.79998779297</ele>
        <time>2023-08-05T14:10:08.000Z</time>
      </trkpt>
      <trkpt lat="49.05829" lon="6.37981">
        <ele>307</ele>
        <time>2023-08-05T14:10:15.000Z</time>
      </trkpt>
      <trkpt lat="49.0584" lon="6.37951">
        <ele>307.20001220703</ele>
        <time>2023-08-05T14:10:22.000Z</time>
      </trkpt>
      <trkpt lat="49.05858" lon="6.37902">
        <ele>307</ele>
        <time>2023-08-05T14:10:32.000Z</time>
      </trkpt>
      <trkpt lat="49.05881" lon="6.37841">
        <ele>307.79998779297</ele>
        <time>2023-08-05T14:10:44.000Z</time>
      </trkpt>
      <trkpt lat="49.0589" lon="6.37817">
        <ele>307.79998779297</ele>
        <time>2023-08-05T14:10:49.000Z</time>
      </trkpt>
      <trkpt lat="49.05898" lon="6.37797">
        <ele>308</ele>
        <time>2023-08-05T14:10:53.000Z</time>
      </trkpt>
      <trkpt lat="49.05922" lon="6.37736">
        <ele>308.39999389648</ele>
        <time>2023-08-05T14:11:05.000Z</time>
      </trkpt>
      <trkpt lat="49.05942" lon="6.37684">
        <ele>308.79998779297</ele>
        <time>2023-08-05T14:11:15.000Z</time>
      </trkpt>
      <trkpt lat="49.05944" lon="6.37679">
        <ele>308.79998779297</ele>
        <time>2023-08-05T14:11:16.000Z</time>
      </trkpt>
      <trkpt lat="49.0596" lon="6.37636">
        <ele>309.20001220703</ele>
        <time>2023-08-05T14:11:25.000Z</time>
      </trkpt>
      <trkpt lat="49.05972" lon="6.37605">
        <ele>309.79998779297</ele>
        <time>2023-08-05T14:11:32.000Z</time>
      </trkpt>
      <trkpt lat="49.05973" lon="6.37601">
        <ele>309.79998779297</ele>
        <time>2023-08-05T14:11:33.000Z</time>
      </trkpt>
      <trkpt lat="49.05982" lon="6.37575">
        <ele>311</ele>
        <time>2023-08-05T14:11:40.000Z</time>
      </trkpt>
      <trkpt lat="49.05993" lon="6.37547">
        <ele>312.20001220703</ele>
        <time>2023-08-05T14:11:49.000Z</time>
      </trkpt>
      <trkpt lat="49.06002" lon="6.37527">
        <ele>313.20001220703</ele>
        <time>2023-08-05T14:11:56.000Z</time>
      </trkpt>
      <trkpt lat="49.06003" lon="6.37524">
        <ele>313.60000610352</ele>
        <time>2023-08-05T14:11:57.000Z</time>
      </trkpt>
      <trkpt lat="49.06004" lon="6.37521">
        <ele>313.79998779297</ele>
        <time>2023-08-05T14:11:58.000Z</time>
      </trkpt>
      <trkpt lat="49.06007" lon="6.37513">
        <ele>314.39999389648</ele>
        <time>2023-08-05T14:12:01.000Z</time>
      </trkpt>
      <trkpt lat="49.06013" lon="6.37498">
        <ele>314.79998779297</ele>
        <time>2023-08-05T14:12:06.000Z</time>
      </trkpt>
      <trkpt lat="49.06016" lon="6.3749">
        <ele>315.39999389648</ele>
        <time>2023-08-05T14:12:09.000Z</time>
      </trkpt>
      <trkpt lat="49.06024" lon="6.3747">
        <ele>316.39999389648</ele>
        <time>2023-08-05T14:12:16.000Z</time>
      </trkpt>
      <trkpt lat="49.06025" lon="6.37467">
        <ele>316.60000610352</ele>
        <time>2023-08-05T14:12:17.000Z</time>
      </trkpt>
      <trkpt lat="49.06029" lon="6.37456">
        <ele>317.60000610352</ele>
        <time>2023-08-05T14:12:21.000Z</time>
      </trkpt>
      <trkpt lat="49.06034" lon="6.37443">
        <ele>318.20001220703</ele>
        <time>2023-08-05T14:12:26.000Z</time>
      </trkpt>
      <trkpt lat="49.06038" lon="6.3743">
        <ele>318.60000610352</ele>
        <time>2023-08-05T14:12:30.000Z</time>
      </trkpt>
      <trkpt lat="49.06042" lon="6.37418">
        <ele>319</ele>
        <time>2023-08-05T14:12:34.000Z</time>
      </trkpt>
      <trkpt lat="49.06047" lon="6.374">
        <ele>319.79998779297</ele>
        <time>2023-08-05T14:12:39.000Z</time>
      </trkpt>
      <trkpt lat="49.06049" lon="6.37388">
        <ele>320.20001220703</ele>
        <time>2023-08-05T14:12:42.000Z</time>
      </trkpt>
      <trkpt lat="49.06056" lon="6.37357">
        <ele>320.79998779297</ele>
        <time>2023-08-05T14:12:49.000Z</time>
      </trkpt>
      <trkpt lat="49.06064" lon="6.37309">
        <ele>321.20001220703</ele>
        <time>2023-08-05T14:12:58.000Z</time>
      </trkpt>
      <trkpt lat="49.06072" lon="6.37265">
        <ele>321.60000610352</ele>
        <time>2023-08-05T14:13:06.000Z</time>
      </trkpt>
      <trkpt lat="49.06079" lon="6.37219">
        <ele>321.79998779297</ele>
        <time>2023-08-05T14:13:13.000Z</time>
      </trkpt>
      <trkpt lat="49.06081" lon="6.37201">
        <ele>321.79998779297</ele>
        <time>2023-08-05T14:13:16.000Z</time>
      </trkpt>
      <trkpt lat="49.06091" lon="6.37143">
        <ele>321.79998779297</ele>
        <time>2023-08-05T14:13:25.000Z</time>
      </trkpt>
      <trkpt lat="49.06097" lon="6.3708">
        <ele>322</ele>
        <time>2023-08-05T14:13:35.000Z</time>
      </trkpt>
      <trkpt lat="49.06097" lon="6.37072">
        <ele>322</ele>
        <time>2023-08-05T14:13:36.000Z</time>
      </trkpt>
      <trkpt lat="49.06097" lon="6.37061">
        <ele>322</ele>
        <time>2023-08-05T14:13:38.000Z</time>
      </trkpt>
      <trkpt lat="49.06097" lon="6.3705">
        <ele>322</ele>
        <time>2023-08-05T14:13:40.000Z</time>
      </trkpt>
      <trkpt lat="49.06095" lon="6.37022">
        <ele>322.39999389648</ele>
        <time>2023-08-05T14:13:45.000Z</time>
      </trkpt>
      <trkpt lat="49.06092" lon="6.37003">
        <ele>323</ele>
        <time>2023-08-05T14:13:49.000Z</time>
      </trkpt>
      <trkpt lat="49.0609" lon="6.36993">
        <ele>323.20001220703</ele>
        <time>2023-08-05T14:13:51.000Z</time>
      </trkpt>
      <trkpt lat="49.06086" lon="6.3697">
        <ele>324</ele>
        <time>2023-08-05T14:13:56.000Z</time>
      </trkpt>
      <trkpt lat="49.06086" lon="6.36966">
        <ele>324</ele>
        <time>2023-08-05T14:13:57.000Z</time>
      </trkpt>
      <trkpt lat="49.06083" lon="6.36933">
        <ele>324.60000610352</ele>
        <time>2023-08-05T14:14:04.000Z</time>
      </trkpt>
      <trkpt lat="49.06081" lon="6.3692">
        <ele>325</ele>
        <time>2023-08-05T14:14:07.000Z</time>
      </trkpt>
      <trkpt lat="49.06078" lon="6.369">
        <ele>326</ele>
        <time>2023-08-05T14:14:12.000Z</time>
      </trkpt>
      <trkpt lat="49.06078" lon="6.36895">
        <ele>326</ele>
        <time>2023-08-05T14:14:13.000Z</time>
      </trkpt>
      <trkpt lat="49.06072" lon="6.36875">
        <ele>327</ele>
        <time>2023-08-05T14:14:18.000Z</time>
      </trkpt>
      <trkpt lat="49.06072" lon="6.3687">
        <ele>327.20001220703</ele>
        <time>2023-08-05T14:14:19.000Z</time>
      </trkpt>
      <trkpt lat="49.06068" lon="6.36842">
        <ele>328.20001220703</ele>
        <time>2023-08-05T14:14:26.000Z</time>
      </trkpt>
      <trkpt lat="49.06064" lon="6.36813">
        <ele>329.20001220703</ele>
        <time>2023-08-05T14:14:33.000Z</time>
      </trkpt>
      <trkpt lat="49.06064" lon="6.36805">
        <ele>329.60000610352</ele>
        <time>2023-08-05T14:14:35.000Z</time>
      </trkpt>
      <trkpt lat="49.06063" lon="6.36783">
        <ele>330.20001220703</ele>
        <time>2023-08-05T14:14:41.000Z</time>
      </trkpt>
      <trkpt lat="49.06063" lon="6.3677">
        <ele>330.60000610352</ele>
        <time>2023-08-05T14:14:44.000Z</time>
      </trkpt>
      <trkpt lat="49.06062" lon="6.36754">
        <ele>331.39999389648</ele>
        <time>2023-08-05T14:14:48.000Z</time>
      </trkpt>
      <trkpt lat="49.06062" lon="6.36737">
        <ele>331.79998779297</ele>
        <time>2023-08-05T14:14:52.000Z</time>
      </trkpt>
      <trkpt lat="49.06061" lon="6.36716">
        <ele>332.39999389648</ele>
        <time>2023-08-05T14:14:57.000Z</time>
      </trkpt>
      <trkpt lat="49.06061" lon="6.36704">
        <ele>332.60000610352</ele>
        <time>2023-08-05T14:15:00.000Z</time>
      </trkpt>
      <trkpt lat="49.0606" lon="6.36673">
        <ele>333.39999389648</ele>
        <time>2023-08-05T14:15:07.000Z</time>
      </trkpt>
      <trkpt lat="49.0606" lon="6.36668">
        <ele>333.60000610352</ele>
        <time>2023-08-05T14:15:08.000Z</time>
      </trkpt>
      <trkpt lat="49.06061" lon="6.36636">
        <ele>334</ele>
        <time>2023-08-05T14:15:15.000Z</time>
      </trkpt>
      <trkpt lat="49.06061" lon="6.36604">
        <ele>334.20001220703</ele>
        <time>2023-08-05T14:15:22.000Z</time>
      </trkpt>
      <trkpt lat="49.06061" lon="6.36562">
        <ele>334.20001220703</ele>
        <time>2023-08-05T14:15:30.000Z</time>
      </trkpt>
      <trkpt lat="49.0606" lon="6.36549">
        <ele>334.20001220703</ele>
        <time>2023-08-05T14:15:32.000Z</time>
      </trkpt>
      <trkpt lat="49.06061" lon="6.36535">
        <ele>333.79998779297</ele>
        <time>2023-08-05T14:15:34.000Z</time>
      </trkpt>
      <trkpt lat="49.06061" lon="6.36528">
        <ele>333.60000610352</ele>
        <time>2023-08-05T14:15:35.000Z</time>
      </trkpt>
      <trkpt lat="49.06061" lon="6.36504">
        <ele>333</ele>
        <time>2023-08-05T14:15:38.000Z</time>
      </trkpt>
      <trkpt lat="49.06061" lon="6.36496">
        <ele>332.79998779297</ele>
        <time>2023-08-05T14:15:39.000Z</time>
      </trkpt>
      <trkpt lat="49.0606" lon="6.36458">
        <ele>332.20001220703</ele>
        <time>2023-08-05T14:15:43.000Z</time>
      </trkpt>
      <trkpt lat="49.06059" lon="6.36448">
        <ele>332</ele>
        <time>2023-08-05T14:15:44.000Z</time>
      </trkpt>
      <trkpt lat="49.06059" lon="6.36416">
        <ele>331</ele>
        <time>2023-08-05T14:15:47.000Z</time>
      </trkpt>
      <trkpt lat="49.06058" lon="6.36385">
        <ele>330.20001220703</ele>
        <time>2023-08-05T14:15:50.000Z</time>
      </trkpt>
      <trkpt lat="49.06057" lon="6.36363">
        <ele>329.60000610352</ele>
        <time>2023-08-05T14:15:52.000Z</time>
      </trkpt>
      <trkpt lat="49.06057" lon="6.36332">
        <ele>328</ele>
        <time>2023-08-05T14:15:55.000Z</time>
      </trkpt>
      <trkpt lat="49.06057" lon="6.36319">
        <ele>327.79998779297</ele>
        <time>2023-08-05T14:15:56.000Z</time>
      </trkpt>
      <trkpt lat="49.06055" lon="6.36282">
        <ele>326.79998779297</ele>
        <time>2023-08-05T14:15:59.000Z</time>
      </trkpt>
      <trkpt lat="49.06053" lon="6.36234">
        <ele>325.39999389648</ele>
        <time>2023-08-05T14:16:03.000Z</time>
      </trkpt>
      <trkpt lat="49.06053" lon="6.36198">
        <ele>323.79998779297</ele>
        <time>2023-08-05T14:16:06.000Z</time>
      </trkpt>
      <trkpt lat="49.06054" lon="6.36174">
        <ele>323.20001220703</ele>
        <time>2023-08-05T14:16:08.000Z</time>
      </trkpt>
      <trkpt lat="49.06055" lon="6.36161">
        <ele>323</ele>
        <time>2023-08-05T14:16:09.000Z</time>
      </trkpt>
      <trkpt lat="49.06057" lon="6.36149">
        <ele>322.60000610352</ele>
        <time>2023-08-05T14:16:10.000Z</time>
      </trkpt>
      <trkpt lat="49.06061" lon="6.36125">
        <ele>321.60000610352</ele>
        <time>2023-08-05T14:16:12.000Z</time>
      </trkpt>
      <trkpt lat="49.06064" lon="6.36114">
        <ele>320.79998779297</ele>
        <time>2023-08-05T14:16:13.000Z</time>
      </trkpt>
      <trkpt lat="49.06068" lon="6.36103">
        <ele>320</ele>
        <time>2023-08-05T14:16:14.000Z</time>
      </trkpt>
      <trkpt lat="49.06078" lon="6.36072">
        <ele>318.60000610352</ele>
        <time>2023-08-05T14:16:17.000Z</time>
      </trkpt>
      <trkpt lat="49.0609" lon="6.36039">
        <ele>317</ele>
        <time>2023-08-05T14:16:20.000Z</time>
      </trkpt>
      <trkpt lat="49.06097" lon="6.36017">
        <ele>316</ele>
        <time>2023-08-05T14:16:22.000Z</time>
      </trkpt>
      <trkpt lat="49.06105" lon="6.35995">
        <ele>315.20001220703</ele>
        <time>2023-08-05T14:16:24.000Z</time>
      </trkpt>
      <trkpt lat="49.06109" lon="6.35983">
        <ele>314.79998779297</ele>
        <time>2023-08-05T14:16:25.000Z</time>
      </trkpt>
      <trkpt lat="49.0612" lon="6.35949">
        <ele>313.60000610352</ele>
        <time>2023-08-05T14:16:28.000Z</time>
      </trkpt>
      <trkpt lat="49.06127" lon="6.35927">
        <ele>312.60000610352</ele>
        <time>2023-08-05T14:16:30.000Z</time>
      </trkpt>
      <trkpt lat="49.06131" lon="6.35916">
        <ele>312.39999389648</ele>
        <time>2023-08-05T14:16:31.000Z</time>
      </trkpt>
      <trkpt lat="49.06146" lon="6.35871">
        <ele>311.20001220703</ele>
        <time>2023-08-05T14:16:35.000Z</time>
      </trkpt>
      <trkpt lat="49.06153" lon="6.3585">
        <ele>310.39999389648</ele>
        <time>2023-08-05T14:16:37.000Z</time>
      </trkpt>
      <trkpt lat="49.06156" lon="6.35839">
        <ele>310.20001220703</ele>
        <time>2023-08-05T14:16:38.000Z</time>
      </trkpt>
      <trkpt lat="49.0617" lon="6.35799">
        <ele>309</ele>
        <time>2023-08-05T14:16:42.000Z</time>
      </trkpt>
      <trkpt lat="49.06177" lon="6.35779">
        <ele>308.39999389648</ele>
        <time>2023-08-05T14:16:44.000Z</time>
      </trkpt>
      <trkpt lat="49.06183" lon="6.35758">
        <ele>308</ele>
        <time>2023-08-05T14:16:46.000Z</time>
      </trkpt>
      <trkpt lat="49.06197" lon="6.35719">
        <ele>306.79998779297</ele>
        <time>2023-08-05T14:16:50.000Z</time>
      </trkpt>
      <trkpt lat="49.06204" lon="6.35699">
        <ele>306.20001220703</ele>
        <time>2023-08-05T14:16:52.000Z</time>
      </trkpt>
      <trkpt lat="49.06211" lon="6.3568">
        <ele>305.79998779297</ele>
        <time>2023-08-05T14:16:54.000Z</time>
      </trkpt>
      <trkpt lat="49.06224" lon="6.35641">
        <ele>304.60000610352</ele>
        <time>2023-08-05T14:16:58.000Z</time>
      </trkpt>
      <trkpt lat="49.06227" lon="6.35631">
        <ele>304.20001220703</ele>
        <time>2023-08-05T14:16:59.000Z</time>
      </trkpt>
      <trkpt lat="49.0623" lon="6.35621">
        <ele>304</ele>
        <time>2023-08-05T14:17:00.000Z</time>
      </trkpt>
      <trkpt lat="49.06237" lon="6.35602">
        <ele>303.39999389648</ele>
        <time>2023-08-05T14:17:02.000Z</time>
      </trkpt>
      <trkpt lat="49.0625" lon="6.35566">
        <ele>302.20001220703</ele>
        <time>2023-08-05T14:17:06.000Z</time>
      </trkpt>
      <trkpt lat="49.06263" lon="6.35529">
        <ele>300.79998779297</ele>
        <time>2023-08-05T14:17:10.000Z</time>
      </trkpt>
      <trkpt lat="49.06275" lon="6.35491">
        <ele>300.20001220703</ele>
        <time>2023-08-05T14:17:14.000Z</time>
      </trkpt>
      <trkpt lat="49.06285" lon="6.35462">
        <ele>299.60000610352</ele>
        <time>2023-08-05T14:17:17.000Z</time>
      </trkpt>
      <trkpt lat="49.06301" lon="6.35414">
        <ele>298.39999389648</ele>
        <time>2023-08-05T14:17:22.000Z</time>
      </trkpt>
      <trkpt lat="49.06308" lon="6.35392">
        <ele>297.79998779297</ele>
        <time>2023-08-05T14:17:24.000Z</time>
      </trkpt>
      <trkpt lat="49.06314" lon="6.35372">
        <ele>297.20001220703</ele>
        <time>2023-08-05T14:17:26.000Z</time>
      </trkpt>
      <trkpt lat="49.06331" lon="6.35321">
        <ele>296</ele>
        <time>2023-08-05T14:17:31.000Z</time>
      </trkpt>
      <trkpt lat="49.06348" lon="6.35271">
        <ele>294.79998779297</ele>
        <time>2023-08-05T14:17:36.000Z</time>
      </trkpt>
      <trkpt lat="49.06351" lon="6.35263">
        <ele>294.79998779297</ele>
        <time>2023-08-05T14:17:37.000Z</time>
      </trkpt>
      <trkpt lat="49.06362" lon="6.35231">
        <ele>293.79998779297</ele>
        <time>2023-08-05T14:17:40.000Z</time>
      </trkpt>
      <trkpt lat="49.06372" lon="6.35201">
        <ele>292.60000610352</ele>
        <time>2023-08-05T14:17:43.000Z</time>
      </trkpt>
      <trkpt lat="49.06379" lon="6.35181">
        <ele>292.20001220703</ele>
        <time>2023-08-05T14:17:45.000Z</time>
      </trkpt>
      <trkpt lat="49.06389" lon="6.35151">
        <ele>291.60000610352</ele>
        <time>2023-08-05T14:17:48.000Z</time>
      </trkpt>
      <trkpt lat="49.06403" lon="6.35112">
        <ele>290.39999389648</ele>
        <time>2023-08-05T14:17:52.000Z</time>
      </trkpt>
      <trkpt lat="49.06409" lon="6.35092">
        <ele>289.79998779297</ele>
        <time>2023-08-05T14:17:54.000Z</time>
      </trkpt>
      <trkpt lat="49.06416" lon="6.35072">
        <ele>289.39999389648</ele>
        <time>2023-08-05T14:17:56.000Z</time>
      </trkpt>
      <trkpt lat="49.06426" lon="6.35042">
        <ele>288.20001220703</ele>
        <time>2023-08-05T14:17:59.000Z</time>
      </trkpt>
      <trkpt lat="49.06433" lon="6.35022">
        <ele>287.60000610352</ele>
        <time>2023-08-05T14:18:01.000Z</time>
      </trkpt>
      <trkpt lat="49.0644" lon="6.35001">
        <ele>287</ele>
        <time>2023-08-05T14:18:03.000Z</time>
      </trkpt>
      <trkpt lat="49.06458" lon="6.34951">
        <ele>285.79998779297</ele>
        <time>2023-08-05T14:18:08.000Z</time>
      </trkpt>
      <trkpt lat="49.06465" lon="6.3493">
        <ele>285</ele>
        <time>2023-08-05T14:18:10.000Z</time>
      </trkpt>
      <trkpt lat="49.06471" lon="6.3491">
        <ele>284.60000610352</ele>
        <time>2023-08-05T14:18:12.000Z</time>
      </trkpt>
      <trkpt lat="49.06486" lon="6.34859">
        <ele>283.39999389648</ele>
        <time>2023-08-05T14:18:17.000Z</time>
      </trkpt>
      <trkpt lat="49.06488" lon="6.34848">
        <ele>283.20001220703</ele>
        <time>2023-08-05T14:18:18.000Z</time>
      </trkpt>
      <trkpt lat="49.06495" lon="6.34817">
        <ele>282.20001220703</ele>
        <time>2023-08-05T14:18:21.000Z</time>
      </trkpt>
      <trkpt lat="49.06502" lon="6.34785">
        <ele>281</ele>
        <time>2023-08-05T14:18:24.000Z</time>
      </trkpt>
      <trkpt lat="49.06509" lon="6.34753">
        <ele>280</ele>
        <time>2023-08-05T14:18:27.000Z</time>
      </trkpt>
      <trkpt lat="49.06512" lon="6.34742">
        <ele>279.79998779297</ele>
        <time>2023-08-05T14:18:28.000Z</time>
      </trkpt>
      <trkpt lat="49.06521" lon="6.34703">
        <ele>279</ele>
        <time>2023-08-05T14:18:31.000Z</time>
      </trkpt>
      <trkpt lat="49.06526" lon="6.34681">
        <ele>277.79998779297</ele>
        <time>2023-08-05T14:18:33.000Z</time>
      </trkpt>
      <trkpt lat="49.06532" lon="6.34653">
        <ele>276.79998779297</ele>
        <time>2023-08-05T14:18:35.000Z</time>
      </trkpt>
      <trkpt lat="49.06535" lon="6.3464">
        <ele>276.20001220703</ele>
        <time>2023-08-05T14:18:36.000Z</time>
      </trkpt>
      <trkpt lat="49.06541" lon="6.34616">
        <ele>275.20001220703</ele>
        <time>2023-08-05T14:18:38.000Z</time>
      </trkpt>
      <trkpt lat="49.06551" lon="6.34573">
        <ele>274</ele>
        <time>2023-08-05T14:18:42.000Z</time>
      </trkpt>
      <trkpt lat="49.06556" lon="6.34551">
        <ele>273.39999389648</ele>
        <time>2023-08-05T14:18:44.000Z</time>
      </trkpt>
      <trkpt lat="49.0656" lon="6.34536">
        <ele>272.79998779297</ele>
        <time>2023-08-05T14:18:46.000Z</time>
      </trkpt>
      <trkpt lat="49.06569" lon="6.34501">
        <ele>272</ele>
        <time>2023-08-05T14:18:50.000Z</time>
      </trkpt>
      <trkpt lat="49.06571" lon="6.34496">
        <ele>272</ele>
        <time>2023-08-05T14:18:51.000Z</time>
      </trkpt>
      <trkpt lat="49.06575" lon="6.34488">
        <ele>271.79998779297</ele>
        <time>2023-08-05T14:18:52.000Z</time>
      </trkpt>
      <trkpt lat="49.06582" lon="6.34477">
        <ele>271.79998779297</ele>
        <time>2023-08-05T14:18:54.000Z</time>
      </trkpt>
      <trkpt lat="49.06585" lon="6.34474">
        <ele>271.60000610352</ele>
        <time>2023-08-05T14:18:55.000Z</time>
      </trkpt>
      <trkpt lat="49.06599" lon="6.34456">
        <ele>271.39999389648</ele>
        <time>2023-08-05T14:18:59.000Z</time>
      </trkpt>
      <trkpt lat="49.06604" lon="6.3445">
        <ele>271.20001220703</ele>
        <time>2023-08-05T14:19:01.000Z</time>
      </trkpt>
      <trkpt lat="49.06623" lon="6.34433">
        <ele>271.20001220703</ele>
        <time>2023-08-05T14:19:07.000Z</time>
      </trkpt>
      <trkpt lat="49.06647" lon="6.34417">
        <ele>271.20001220703</ele>
        <time>2023-08-05T14:19:14.000Z</time>
      </trkpt>
      <trkpt lat="49.06671" lon="6.34403">
        <ele>272</ele>
        <time>2023-08-05T14:19:22.000Z</time>
      </trkpt>
      <trkpt lat="49.06684" lon="6.34401">
        <ele>272.39999389648</ele>
        <time>2023-08-05T14:19:27.000Z</time>
      </trkpt>
      <trkpt lat="49.06691" lon="6.344">
        <ele>273.20001220703</ele>
        <time>2023-08-05T14:19:30.000Z</time>
      </trkpt>
      <trkpt lat="49.06696" lon="6.34401">
        <ele>273.39999389648</ele>
        <time>2023-08-05T14:19:32.000Z</time>
      </trkpt>
      <trkpt lat="49.06706" lon="6.34398">
        <ele>274.20001220703</ele>
        <time>2023-08-05T14:19:36.000Z</time>
      </trkpt>
      <trkpt lat="49.06714" lon="6.34397">
        <ele>274.79998779297</ele>
        <time>2023-08-05T14:19:39.000Z</time>
      </trkpt>
      <trkpt lat="49.06734" lon="6.34395">
        <ele>275.39999389648</ele>
        <time>2023-08-05T14:19:46.000Z</time>
      </trkpt>
      <trkpt lat="49.06739" lon="6.34395">
        <ele>275.39999389648</ele>
        <time>2023-08-05T14:19:48.000Z</time>
      </trkpt>
      <trkpt lat="49.06767" lon="6.34392">
        <ele>276.20001220703</ele>
        <time>2023-08-05T14:19:56.000Z</time>
      </trkpt>
      <trkpt lat="49.06779" lon="6.34392">
        <ele>276.39999389648</ele>
        <time>2023-08-05T14:19:59.000Z</time>
      </trkpt>
      <trkpt lat="49.06795" lon="6.34391">
        <ele>276.39999389648</ele>
        <time>2023-08-05T14:20:03.000Z</time>
      </trkpt>
      <trkpt lat="49.0683" lon="6.34388">
        <ele>276.20001220703</ele>
        <time>2023-08-05T14:20:11.000Z</time>
      </trkpt>
      <trkpt lat="49.06872" lon="6.34384">
        <ele>276</ele>
        <time>2023-08-05T14:20:20.000Z</time>
      </trkpt>
      <trkpt lat="49.06897" lon="6.34384">
        <ele>276.20001220703</ele>
        <time>2023-08-05T14:20:25.000Z</time>
      </trkpt>
      <trkpt lat="49.06908" lon="6.34382">
        <ele>276.20001220703</ele>
        <time>2023-08-05T14:20:27.000Z</time>
      </trkpt>
      <trkpt lat="49.06946" lon="6.3438">
        <ele>276.20001220703</ele>
        <time>2023-08-05T14:20:35.000Z</time>
      </trkpt>
      <trkpt lat="49.06988" lon="6.34376">
        <ele>276</ele>
        <time>2023-08-05T14:20:44.000Z</time>
      </trkpt>
      <trkpt lat="49.07019" lon="6.34375">
        <ele>275.79998779297</ele>
        <time>2023-08-05T14:20:50.000Z</time>
      </trkpt>
      <trkpt lat="49.0703" lon="6.34375">
        <ele>275.60000610352</ele>
        <time>2023-08-05T14:20:52.000Z</time>
      </trkpt>
      <trkpt lat="49.0704" lon="6.34375">
        <ele>275.20001220703</ele>
        <time>2023-08-05T14:20:54.000Z</time>
      </trkpt>
      <trkpt lat="49.07066" lon="6.34376">
        <ele>274.60000610352</ele>
        <time>2023-08-05T14:20:58.000Z</time>
      </trkpt>
      <trkpt lat="49.07089" lon="6.34377">
        <ele>274</ele>
        <time>2023-08-05T14:21:01.000Z</time>
      </trkpt>
      <trkpt lat="49.07112" lon="6.34377">
        <ele>273.39999389648</ele>
        <time>2023-08-05T14:21:04.000Z</time>
      </trkpt>
      <trkpt lat="49.0712" lon="6.34377">
        <ele>272.79998779297</ele>
        <time>2023-08-05T14:21:05.000Z</time>
      </trkpt>
      <trkpt lat="49.07157" lon="6.34378">
        <ele>271.39999389648</ele>
        <time>2023-08-05T14:21:09.000Z</time>
      </trkpt>
      <trkpt lat="49.07166" lon="6.34378">
        <ele>271</ele>
        <time>2023-08-05T14:21:10.000Z</time>
      </trkpt>
      <trkpt lat="49.07183" lon="6.34379">
        <ele>270.39999389648</ele>
        <time>2023-08-05T14:21:12.000Z</time>
      </trkpt>
      <trkpt lat="49.07212" lon="6.34379">
        <ele>269.20001220703</ele>
        <time>2023-08-05T14:21:15.000Z</time>
      </trkpt>
      <trkpt lat="49.07222" lon="6.3438">
        <ele>268.39999389648</ele>
        <time>2023-08-05T14:21:16.000Z</time>
      </trkpt>
      <trkpt lat="49.07232" lon="6.3438">
        <ele>268.20001220703</ele>
        <time>2023-08-05T14:21:17.000Z</time>
      </trkpt>
      <trkpt lat="49.07242" lon="6.34382">
        <ele>267</ele>
        <time>2023-08-05T14:21:18.000Z</time>
      </trkpt>
      <trkpt lat="49.07276" lon="6.34389">
        <ele>265.39999389648</ele>
        <time>2023-08-05T14:21:21.000Z</time>
      </trkpt>
      <trkpt lat="49.07296" lon="6.34393">
        <ele>264.39999389648</ele>
        <time>2023-08-05T14:21:23.000Z</time>
      </trkpt>
      <trkpt lat="49.07322" lon="6.34396">
        <ele>263.20001220703</ele>
        <time>2023-08-05T14:21:25.000Z</time>
      </trkpt>
      <trkpt lat="49.07334" lon="6.34395">
        <ele>262.20001220703</ele>
        <time>2023-08-05T14:21:26.000Z</time>
      </trkpt>
      <trkpt lat="49.07343" lon="6.34393">
        <ele>261.79998779297</ele>
        <time>2023-08-05T14:21:27.000Z</time>
      </trkpt>
      <trkpt lat="49.07357" lon="6.34389">
        <ele>260.79998779297</ele>
        <time>2023-08-05T14:21:28.000Z</time>
      </trkpt>
      <trkpt lat="49.07368" lon="6.34383">
        <ele>260.39999389648</ele>
        <time>2023-08-05T14:21:29.000Z</time>
      </trkpt>
      <trkpt lat="49.07378" lon="6.34375">
        <ele>259.39999389648</ele>
        <time>2023-08-05T14:21:30.000Z</time>
      </trkpt>
      <trkpt lat="49.07386" lon="6.34368">
        <ele>258.39999389648</ele>
        <time>2023-08-05T14:21:31.000Z</time>
      </trkpt>
      <trkpt lat="49.07404" lon="6.34347">
        <ele>256.79998779297</ele>
        <time>2023-08-05T14:21:33.000Z</time>
      </trkpt>
      <trkpt lat="49.07412" lon="6.34338">
        <ele>256.39999389648</ele>
        <time>2023-08-05T14:21:34.000Z</time>
      </trkpt>
      <trkpt lat="49.07426" lon="6.34322">
        <ele>255.60000610352</ele>
        <time>2023-08-05T14:21:36.000Z</time>
      </trkpt>
      <trkpt lat="49.07448" lon="6.34292">
        <ele>254.60000610352</ele>
        <time>2023-08-05T14:21:39.000Z</time>
      </trkpt>
      <trkpt lat="49.07477" lon="6.34242">
        <ele>253.80000305176</ele>
        <time>2023-08-05T14:21:44.000Z</time>
      </trkpt>
      <trkpt lat="49.07484" lon="6.34225">
        <ele>253.39999389648</ele>
        <time>2023-08-05T14:21:46.000Z</time>
      </trkpt>
      <trkpt lat="49.07496" lon="6.34197">
        <ele>253</ele>
        <time>2023-08-05T14:21:49.000Z</time>
      </trkpt>
      <trkpt lat="49.07505" lon="6.34155">
        <ele>252.80000305176</ele>
        <time>2023-08-05T14:21:54.000Z</time>
      </trkpt>
      <trkpt lat="49.07508" lon="6.34137">
        <ele>253</ele>
        <time>2023-08-05T14:21:56.000Z</time>
      </trkpt>
      <trkpt lat="49.07513" lon="6.34119">
        <ele>253.39999389648</ele>
        <time>2023-08-05T14:21:59.000Z</time>
      </trkpt>
      <trkpt lat="49.07516" lon="6.34113">
        <ele>253.60000610352</ele>
        <time>2023-08-05T14:22:00.000Z</time>
      </trkpt>
      <trkpt lat="49.0752" lon="6.3411">
        <ele>253.80000305176</ele>
        <time>2023-08-05T14:22:01.000Z</time>
      </trkpt>
      <trkpt lat="49.0753" lon="6.34104">
        <ele>254.80000305176</ele>
        <time>2023-08-05T14:22:04.000Z</time>
      </trkpt>
      <trkpt lat="49.07535" lon="6.34096">
        <ele>255.19999694824</ele>
        <time>2023-08-05T14:22:06.000Z</time>
      </trkpt>
      <trkpt lat="49.07536" lon="6.34089">
        <ele>255.39999389648</ele>
        <time>2023-08-05T14:22:07.000Z</time>
      </trkpt>
      <trkpt lat="49.07535" lon="6.34081">
        <ele>255.80000305176</ele>
        <time>2023-08-05T14:22:08.000Z</time>
      </trkpt>
      <trkpt lat="49.07531" lon="6.34052">
        <ele>256.20001220703</ele>
        <time>2023-08-05T14:22:12.000Z</time>
      </trkpt>
      <trkpt lat="49.07531" lon="6.3403">
        <ele>256.39999389648</ele>
        <time>2023-08-05T14:22:15.000Z</time>
      </trkpt>
      <trkpt lat="49.07532" lon="6.34015">
        <ele>256.39999389648</ele>
        <time>2023-08-05T14:22:17.000Z</time>
      </trkpt>
      <trkpt lat="49.07533" lon="6.34001">
        <ele>256.39999389648</ele>
        <time>2023-08-05T14:22:19.000Z</time>
      </trkpt>
      <trkpt lat="49.07544" lon="6.33944">
        <ele>256</ele>
        <time>2023-08-05T14:22:26.000Z</time>
      </trkpt>
      <trkpt lat="49.07559" lon="6.33859">
        <ele>255.19999694824</ele>
        <time>2023-08-05T14:22:36.000Z</time>
      </trkpt>
      <trkpt lat="49.0756" lon="6.33852">
        <ele>255.19999694824</ele>
        <time>2023-08-05T14:22:37.000Z</time>
      </trkpt>
      <trkpt lat="49.07571" lon="6.33788">
        <ele>255.39999389648</ele>
        <time>2023-08-05T14:22:45.000Z</time>
      </trkpt>
      <trkpt lat="49.07582" lon="6.33729">
        <ele>255.39999389648</ele>
        <time>2023-08-05T14:22:53.000Z</time>
      </trkpt>
      <trkpt lat="49.07586" lon="6.33711">
        <ele>255.39999389648</ele>
        <time>2023-08-05T14:22:56.000Z</time>
      </trkpt>
      <trkpt lat="49.07591" lon="6.33684">
        <ele>255.60000610352</ele>
        <time>2023-08-05T14:23:00.000Z</time>
      </trkpt>
      <trkpt lat="49.07599" lon="6.33641">
        <ele>255.80000305176</ele>
        <time>2023-08-05T14:23:07.000Z</time>
      </trkpt>
      <trkpt lat="49.07607" lon="6.33598">
        <ele>256.79998779297</ele>
        <time>2023-08-05T14:23:15.000Z</time>
      </trkpt>
      <trkpt lat="49.0761" lon="6.33578">
        <ele>257.20001220703</ele>
        <time>2023-08-05T14:23:19.000Z</time>
      </trkpt>
      <trkpt lat="49.07613" lon="6.33559">
        <ele>257.39999389648</ele>
        <time>2023-08-05T14:23:23.000Z</time>
      </trkpt>
      <trkpt lat="49.07618" lon="6.33528">
        <ele>258.60000610352</ele>
        <time>2023-08-05T14:23:30.000Z</time>
      </trkpt>
      <trkpt lat="49.0762" lon="6.33519">
        <ele>258.79998779297</ele>
        <time>2023-08-05T14:23:32.000Z</time>
      </trkpt>
      <trkpt lat="49.07622" lon="6.33497">
        <ele>259.60000610352</ele>
        <time>2023-08-05T14:23:37.000Z</time>
      </trkpt>
      <trkpt lat="49.07625" lon="6.33476">
        <ele>260.60000610352</ele>
        <time>2023-08-05T14:23:42.000Z</time>
      </trkpt>
      <trkpt lat="49.07626" lon="6.33472">
        <ele>260.79998779297</ele>
        <time>2023-08-05T14:23:43.000Z</time>
      </trkpt>
      <trkpt lat="49.07628" lon="6.33449">
        <ele>261.79998779297</ele>
        <time>2023-08-05T14:23:48.000Z</time>
      </trkpt>
      <trkpt lat="49.07629" lon="6.33437">
        <ele>262.20001220703</ele>
        <time>2023-08-05T14:23:51.000Z</time>
      </trkpt>
      <trkpt lat="49.07631" lon="6.33419">
        <ele>263</ele>
        <time>2023-08-05T14:23:55.000Z</time>
      </trkpt>
      <trkpt lat="49.07633" lon="6.33404">
        <ele>263.39999389648</ele>
        <time>2023-08-05T14:23:59.000Z</time>
      </trkpt>
      <trkpt lat="49.07637" lon="6.33377">
        <ele>264.20001220703</ele>
        <time>2023-08-05T14:24:06.000Z</time>
      </trkpt>
      <trkpt lat="49.07638" lon="6.33369">
        <ele>264.39999389648</ele>
        <time>2023-08-05T14:24:08.000Z</time>
      </trkpt>
      <trkpt lat="49.0764" lon="6.33353">
        <ele>265.20001220703</ele>
        <time>2023-08-05T14:24:12.000Z</time>
      </trkpt>
      <trkpt lat="49.07642" lon="6.33326">
        <ele>266.20001220703</ele>
        <time>2023-08-05T14:24:19.000Z</time>
      </trkpt>
      <trkpt lat="49.07645" lon="6.33298">
        <ele>267.20001220703</ele>
        <time>2023-08-05T14:24:26.000Z</time>
      </trkpt>
      <trkpt lat="49.07647" lon="6.33286">
        <ele>267.39999389648</ele>
        <time>2023-08-05T14:24:29.000Z</time>
      </trkpt>
      <trkpt lat="49.07649" lon="6.33262">
        <ele>268</ele>
        <time>2023-08-05T14:24:35.000Z</time>
      </trkpt>
      <trkpt lat="49.0765" lon="6.33251">
        <ele>268.60000610352</ele>
        <time>2023-08-05T14:24:38.000Z</time>
      </trkpt>
      <trkpt lat="49.07652" lon="6.33229">
        <ele>269.20001220703</ele>
        <time>2023-08-05T14:24:44.000Z</time>
      </trkpt>
      <trkpt lat="49.07654" lon="6.33208">
        <ele>269.60000610352</ele>
        <time>2023-08-05T14:24:49.000Z</time>
      </trkpt>
      <trkpt lat="49.07655" lon="6.33204">
        <ele>269.60000610352</ele>
        <time>2023-08-05T14:24:50.000Z</time>
      </trkpt>
      <trkpt lat="49.07657" lon="6.33183">
        <ele>270.20001220703</ele>
        <time>2023-08-05T14:24:55.000Z</time>
      </trkpt>
      <trkpt lat="49.07659" lon="6.33161">
        <ele>270.60000610352</ele>
        <time>2023-08-05T14:25:00.000Z</time>
      </trkpt>
      <trkpt lat="49.0766" lon="6.33152">
        <ele>270.79998779297</ele>
        <time>2023-08-05T14:25:02.000Z</time>
      </trkpt>
      <trkpt lat="49.07664" lon="6.33109">
        <ele>271.60000610352</ele>
        <time>2023-08-05T14:25:11.000Z</time>
      </trkpt>
      <trkpt lat="49.07665" lon="6.33099">
        <ele>271.79998779297</ele>
        <time>2023-08-05T14:25:13.000Z</time>
      </trkpt>
      <trkpt lat="49.07667" lon="6.33065">
        <ele>272.39999389648</ele>
        <time>2023-08-05T14:25:20.000Z</time>
      </trkpt>
      <trkpt lat="49.0767" lon="6.33041">
        <ele>272.79998779297</ele>
        <time>2023-08-05T14:25:25.000Z</time>
      </trkpt>
      <trkpt lat="49.07673" lon="6.33018">
        <ele>273.20001220703</ele>
        <time>2023-08-05T14:25:30.000Z</time>
      </trkpt>
      <trkpt lat="49.07679" lon="6.32959">
        <ele>273.79998779297</ele>
        <time>2023-08-05T14:25:42.000Z</time>
      </trkpt>
      <trkpt lat="49.07679" lon="6.3295">
        <ele>274</ele>
        <time>2023-08-05T14:25:44.000Z</time>
      </trkpt>
      <trkpt lat="49.07682" lon="6.32919">
        <ele>274.79998779297</ele>
        <time>2023-08-05T14:25:51.000Z</time>
      </trkpt>
      <trkpt lat="49.07683" lon="6.3291">
        <ele>275</ele>
        <time>2023-08-05T14:25:53.000Z</time>
      </trkpt>
      <trkpt lat="49.07686" lon="6.3288">
        <ele>276</ele>
        <time>2023-08-05T14:26:00.000Z</time>
      </trkpt>
      <trkpt lat="49.07687" lon="6.32872">
        <ele>276.39999389648</ele>
        <time>2023-08-05T14:26:02.000Z</time>
      </trkpt>
      <trkpt lat="49.07689" lon="6.32845">
        <ele>277.39999389648</ele>
        <time>2023-08-05T14:26:08.000Z</time>
      </trkpt>
      <trkpt lat="49.07693" lon="6.32805">
        <ele>278.60000610352</ele>
        <time>2023-08-05T14:26:17.000Z</time>
      </trkpt>
      <trkpt lat="49.07693" lon="6.32801">
        <ele>278.60000610352</ele>
        <time>2023-08-05T14:26:18.000Z</time>
      </trkpt>
      <trkpt lat="49.07695" lon="6.3277">
        <ele>279.39999389648</ele>
        <time>2023-08-05T14:26:25.000Z</time>
      </trkpt>
      <trkpt lat="49.07696" lon="6.32751">
        <ele>279.60000610352</ele>
        <time>2023-08-05T14:26:29.000Z</time>
      </trkpt>
      <trkpt lat="49.07698" lon="6.32737">
        <ele>279.79998779297</ele>
        <time>2023-08-05T14:26:32.000Z</time>
      </trkpt>
      <trkpt lat="49.077" lon="6.32713">
        <ele>280.60000610352</ele>
        <time>2023-08-05T14:26:37.000Z</time>
      </trkpt>
      <trkpt lat="49.07702" lon="6.32699">
        <ele>280.79998779297</ele>
        <time>2023-08-05T14:26:40.000Z</time>
      </trkpt>
      <trkpt lat="49.07706" lon="6.32655">
        <ele>281.20001220703</ele>
        <time>2023-08-05T14:26:49.000Z</time>
      </trkpt>
      <trkpt lat="49.07709" lon="6.3262">
        <ele>281.79998779297</ele>
        <time>2023-08-05T14:26:56.000Z</time>
      </trkpt>
      <trkpt lat="49.07711" lon="6.32599">
        <ele>282.39999389648</ele>
        <time>2023-08-05T14:27:00.000Z</time>
      </trkpt>
      <trkpt lat="49.07715" lon="6.32561">
        <ele>283</ele>
        <time>2023-08-05T14:27:07.000Z</time>
      </trkpt>
      <trkpt lat="49.07715" lon="6.32555">
        <ele>283</ele>
        <time>2023-08-05T14:27:08.000Z</time>
      </trkpt>
      <trkpt lat="49.07718" lon="6.32509">
        <ele>283.20001220703</ele>
        <time>2023-08-05T14:27:15.000Z</time>
      </trkpt>
      <trkpt lat="49.07721" lon="6.32463">
        <ele>283.20001220703</ele>
        <time>2023-08-05T14:27:23.000Z</time>
      </trkpt>
      <trkpt lat="49.07725" lon="6.32412">
        <ele>283.20001220703</ele>
        <time>2023-08-05T14:27:32.000Z</time>
      </trkpt>
      <trkpt lat="49.07728" lon="6.32385">
        <ele>283.20001220703</ele>
        <time>2023-08-05T14:27:38.000Z</time>
      </trkpt>
      <trkpt lat="49.07729" lon="6.32383">
        <ele>283</ele>
        <time>2023-08-05T14:27:42.000Z</time>
      </trkpt>
      <trkpt lat="49.07729" lon="6.32376">
        <ele>282.79998779297</ele>
        <time>2023-08-05T14:28:44.000Z</time>
      </trkpt>
      <trkpt lat="49.07729" lon="6.32367">
        <ele>282.79998779297</ele>
        <time>2023-08-05T14:28:46.000Z</time>
      </trkpt>
      <trkpt lat="49.07731" lon="6.32339">
        <ele>282.60000610352</ele>
        <time>2023-08-05T14:28:51.000Z</time>
      </trkpt>
      <trkpt lat="49.07735" lon="6.32291">
        <ele>282.20001220703</ele>
        <time>2023-08-05T14:28:58.000Z</time>
      </trkpt>
      <trkpt lat="49.07741" lon="6.32231">
        <ele>282</ele>
        <time>2023-08-05T14:29:06.000Z</time>
      </trkpt>
      <trkpt lat="49.07742" lon="6.32223">
        <ele>281.79998779297</ele>
        <time>2023-08-05T14:29:07.000Z</time>
      </trkpt>
      <trkpt lat="49.07747" lon="6.32163">
        <ele>281.79998779297</ele>
        <time>2023-08-05T14:29:15.000Z</time>
      </trkpt>
      <trkpt lat="49.07753" lon="6.32096">
        <ele>282.39999389648</ele>
        <time>2023-08-05T14:29:25.000Z</time>
      </trkpt>
      <trkpt lat="49.07761" lon="6.32012">
        <ele>282.79998779297</ele>
        <time>2023-08-05T14:29:36.000Z</time>
      </trkpt>
      <trkpt lat="49.07762" lon="6.32004">
        <ele>282.79998779297</ele>
        <time>2023-08-05T14:29:37.000Z</time>
      </trkpt>
      <trkpt lat="49.0777" lon="6.31919">
        <ele>283</ele>
        <time>2023-08-05T14:29:48.000Z</time>
      </trkpt>
      <trkpt lat="49.0777" lon="6.3191">
        <ele>283</ele>
        <time>2023-08-05T14:29:49.000Z</time>
      </trkpt>
      <trkpt lat="49.07771" lon="6.31897">
        <ele>283</ele>
        <time>2023-08-05T14:29:51.000Z</time>
      </trkpt>
      <trkpt lat="49.07774" lon="6.31868">
        <ele>283.20001220703</ele>
        <time>2023-08-05T14:29:55.000Z</time>
      </trkpt>
      <trkpt lat="49.07777" lon="6.31849">
        <ele>283.20001220703</ele>
        <time>2023-08-05T14:29:58.000Z</time>
      </trkpt>
      <trkpt lat="49.07782" lon="6.31794">
        <ele>283.39999389648</ele>
        <time>2023-08-05T14:30:07.000Z</time>
      </trkpt>
      <trkpt lat="49.07789" lon="6.31735">
        <ele>283.79998779297</ele>
        <time>2023-08-05T14:30:15.000Z</time>
      </trkpt>
      <trkpt lat="49.0779" lon="6.31721">
        <ele>284.20001220703</ele>
        <time>2023-08-05T14:30:18.000Z</time>
      </trkpt>
      <trkpt lat="49.07799" lon="6.31671">
        <ele>284.60000610352</ele>
        <time>2023-08-05T14:30:26.000Z</time>
      </trkpt>
      <trkpt lat="49.07815" lon="6.3162">
        <ele>285.20001220703</ele>
        <time>2023-08-05T14:30:34.000Z</time>
      </trkpt>
      <trkpt lat="49.07817" lon="6.31613">
        <ele>285.39999389648</ele>
        <time>2023-08-05T14:30:35.000Z</time>
      </trkpt>
      <trkpt lat="49.07823" lon="6.31598">
        <ele>286.39999389648</ele>
        <time>2023-08-05T14:30:39.000Z</time>
      </trkpt>
      <trkpt lat="49.07828" lon="6.31586">
        <ele>286.60000610352</ele>
        <time>2023-08-05T14:30:40.000Z</time>
      </trkpt>
      <trkpt lat="49.07839" lon="6.31566">
        <ele>287</ele>
        <time>2023-08-05T14:30:44.000Z</time>
      </trkpt>
      <trkpt lat="49.07853" lon="6.31541">
        <ele>287</ele>
        <time>2023-08-05T14:30:49.000Z</time>
      </trkpt>
      <trkpt lat="49.07859" lon="6.31529">
        <ele>287</ele>
        <time>2023-08-05T14:30:51.000Z</time>
      </trkpt>
      <trkpt lat="49.07885" lon="6.31481">
        <ele>286.60000610352</ele>
        <time>2023-08-05T14:30:59.000Z</time>
      </trkpt>
      <trkpt lat="49.07912" lon="6.31431">
        <ele>285.60000610352</ele>
        <time>2023-08-05T14:31:06.000Z</time>
      </trkpt>
      <trkpt lat="49.07916" lon="6.31423">
        <ele>285.39999389648</ele>
        <time>2023-08-05T14:31:07.000Z</time>
      </trkpt>
      <trkpt lat="49.07937" lon="6.31383">
        <ele>284.20001220703</ele>
        <time>2023-08-05T14:31:12.000Z</time>
      </trkpt>
      <trkpt lat="49.07941" lon="6.31375">
        <ele>284.20001220703</ele>
        <time>2023-08-05T14:31:13.000Z</time>
      </trkpt>
      <trkpt lat="49.07956" lon="6.31346">
        <ele>283.79998779297</ele>
        <time>2023-08-05T14:31:17.000Z</time>
      </trkpt>
      <trkpt lat="49.07965" lon="6.31326">
        <ele>283.60000610352</ele>
        <time>2023-08-05T14:31:20.000Z</time>
      </trkpt>
      <trkpt lat="49.07979" lon="6.31296">
        <ele>283.79998779297</ele>
        <time>2023-08-05T14:31:25.000Z</time>
      </trkpt>
      <trkpt lat="49.07984" lon="6.31286">
        <ele>284</ele>
        <time>2023-08-05T14:31:27.000Z</time>
      </trkpt>
      <trkpt lat="49.08005" lon="6.31241">
        <ele>285.20001220703</ele>
        <time>2023-08-05T14:31:36.000Z</time>
      </trkpt>
      <trkpt lat="49.08009" lon="6.31233">
        <ele>285.39999389648</ele>
        <time>2023-08-05T14:31:38.000Z</time>
      </trkpt>
      <trkpt lat="49.08023" lon="6.31204">
        <ele>285.79998779297</ele>
        <time>2023-08-05T14:31:44.000Z</time>
      </trkpt>
      <trkpt lat="49.08029" lon="6.3119">
        <ele>286.39999389648</ele>
        <time>2023-08-05T14:31:47.000Z</time>
      </trkpt>
      <trkpt lat="49.08044" lon="6.31159">
        <ele>287.20001220703</ele>
        <time>2023-08-05T14:31:54.000Z</time>
      </trkpt>
      <trkpt lat="49.08048" lon="6.3115">
        <ele>287.60000610352</ele>
        <time>2023-08-05T14:31:56.000Z</time>
      </trkpt>
      <trkpt lat="49.08063" lon="6.31119">
        <ele>288.39999389648</ele>
        <time>2023-08-05T14:32:03.000Z</time>
      </trkpt>
      <trkpt lat="49.08069" lon="6.31105">
        <ele>288.60000610352</ele>
        <time>2023-08-05T14:32:06.000Z</time>
      </trkpt>
      <trkpt lat="49.08074" lon="6.31096">
        <ele>288.60000610352</ele>
        <time>2023-08-05T14:32:08.000Z</time>
      </trkpt>
      <trkpt lat="49.08093" lon="6.31055">
        <ele>289.60000610352</ele>
        <time>2023-08-05T14:32:17.000Z</time>
      </trkpt>
      <trkpt lat="49.08102" lon="6.31015">
        <ele>290.20001220703</ele>
        <time>2023-08-05T14:32:24.000Z</time>
      </trkpt>
      <trkpt lat="49.08107" lon="6.3096">
        <ele>290.39999389648</ele>
        <time>2023-08-05T14:32:32.000Z</time>
      </trkpt>
      <trkpt lat="49.08111" lon="6.30904">
        <ele>290.39999389648</ele>
        <time>2023-08-05T14:32:40.000Z</time>
      </trkpt>
      <trkpt lat="49.08114" lon="6.30859">
        <ele>290.60000610352</ele>
        <time>2023-08-05T14:32:47.000Z</time>
      </trkpt>
      <trkpt lat="49.08115" lon="6.30839">
        <ele>290.79998779297</ele>
        <time>2023-08-05T14:32:50.000Z</time>
      </trkpt>
      <trkpt lat="49.0812" lon="6.30773">
        <ele>291.20001220703</ele>
        <time>2023-08-05T14:33:00.000Z</time>
      </trkpt>
      <trkpt lat="49.0812" lon="6.30766">
        <ele>291.20001220703</ele>
        <time>2023-08-05T14:33:01.000Z</time>
      </trkpt>
      <trkpt lat="49.08122" lon="6.30728">
        <ele>291.79998779297</ele>
        <time>2023-08-05T14:33:07.000Z</time>
      </trkpt>
      <trkpt lat="49.08124" lon="6.30709">
        <ele>292</ele>
        <time>2023-08-05T14:33:10.000Z</time>
      </trkpt>
      <trkpt lat="49.08128" lon="6.3065">
        <ele>292.20001220703</ele>
        <time>2023-08-05T14:33:19.000Z</time>
      </trkpt>
      <trkpt lat="49.0813" lon="6.3063">
        <ele>292.20001220703</ele>
        <time>2023-08-05T14:33:22.000Z</time>
      </trkpt>
      <trkpt lat="49.08132" lon="6.3061">
        <ele>292.20001220703</ele>
        <time>2023-08-05T14:33:25.000Z</time>
      </trkpt>
      <trkpt lat="49.08136" lon="6.30542">
        <ele>291.60000610352</ele>
        <time>2023-08-05T14:33:34.000Z</time>
      </trkpt>
      <trkpt lat="49.08142" lon="6.30458">
        <ele>291.60000610352</ele>
        <time>2023-08-05T14:33:45.000Z</time>
      </trkpt>
      <trkpt lat="49.08152" lon="6.30397">
        <ele>291</ele>
        <time>2023-08-05T14:33:53.000Z</time>
      </trkpt>
      <trkpt lat="49.08157" lon="6.30376">
        <ele>290.79998779297</ele>
        <time>2023-08-05T14:33:56.000Z</time>
      </trkpt>
      <trkpt lat="49.0817" lon="6.30335">
        <ele>290.60000610352</ele>
        <time>2023-08-05T14:34:02.000Z</time>
      </trkpt>
      <trkpt lat="49.08192" lon="6.30259">
        <ele>290.39999389648</ele>
        <time>2023-08-05T14:34:13.000Z</time>
      </trkpt>
      <trkpt lat="49.08193" lon="6.30253">
        <ele>290.60000610352</ele>
        <time>2023-08-05T14:34:14.000Z</time>
      </trkpt>
      <trkpt lat="49.0821" lon="6.30191">
        <ele>290.20001220703</ele>
        <time>2023-08-05T14:34:23.000Z</time>
      </trkpt>
      <trkpt lat="49.08216" lon="6.30164">
        <ele>290.20001220703</ele>
        <time>2023-08-05T14:34:27.000Z</time>
      </trkpt>
      <trkpt lat="49.08222" lon="6.30134">
        <ele>290</ele>
        <time>2023-08-05T14:34:31.000Z</time>
      </trkpt>
      <trkpt lat="49.0823" lon="6.3008">
        <ele>289.60000610352</ele>
        <time>2023-08-05T14:34:39.000Z</time>
      </trkpt>
      <trkpt lat="49.08237" lon="6.30036">
        <ele>289</ele>
        <time>2023-08-05T14:34:45.000Z</time>
      </trkpt>
      <trkpt lat="49.08239" lon="6.3002">
        <ele>289</ele>
        <time>2023-08-05T14:34:47.000Z</time>
      </trkpt>
      <trkpt lat="49.0824" lon="6.29961">
        <ele>288.20001220703</ele>
        <time>2023-08-05T14:34:55.000Z</time>
      </trkpt>
      <trkpt lat="49.08237" lon="6.29932">
        <ele>288</ele>
        <time>2023-08-05T14:34:59.000Z</time>
      </trkpt>
      <trkpt lat="49.08237" lon="6.29925">
        <ele>287.79998779297</ele>
        <time>2023-08-05T14:35:00.000Z</time>
      </trkpt>
      <trkpt lat="49.08236" lon="6.29913">
        <ele>287.60000610352</ele>
        <time>2023-08-05T14:35:02.000Z</time>
      </trkpt>
      <trkpt lat="49.08237" lon="6.29909">
        <ele>287.60000610352</ele>
        <time>2023-08-05T14:35:03.000Z</time>
      </trkpt>
      <trkpt lat="49.08242" lon="6.299">
        <ele>287.39999389648</ele>
        <time>2023-08-05T14:35:05.000Z</time>
      </trkpt>
      <trkpt lat="49.08259" lon="6.29885">
        <ele>286.79998779297</ele>
        <time>2023-08-05T14:35:09.000Z</time>
      </trkpt>
      <trkpt lat="49.08264" lon="6.29881">
        <ele>286.79998779297</ele>
        <time>2023-08-05T14:35:10.000Z</time>
      </trkpt>
      <trkpt lat="49.08294" lon="6.2985">
        <ele>286.20001220703</ele>
        <time>2023-08-05T14:35:16.000Z</time>
      </trkpt>
      <trkpt lat="49.0831" lon="6.29833">
        <ele>286</ele>
        <time>2023-08-05T14:35:19.000Z</time>
      </trkpt>
      <trkpt lat="49.08329" lon="6.29805">
        <ele>285.39999389648</ele>
        <time>2023-08-05T14:35:23.000Z</time>
      </trkpt>
      <trkpt lat="49.08348" lon="6.29777">
        <ele>285</ele>
        <time>2023-08-05T14:35:27.000Z</time>
      </trkpt>
      <trkpt lat="49.08369" lon="6.29748">
        <ele>284.20001220703</ele>
        <time>2023-08-05T14:35:31.000Z</time>
      </trkpt>
      <trkpt lat="49.08374" lon="6.2974">
        <ele>283.79998779297</ele>
        <time>2023-08-05T14:35:32.000Z</time>
      </trkpt>
      <trkpt lat="49.08393" lon="6.29711">
        <ele>282.60000610352</ele>
        <time>2023-08-05T14:35:36.000Z</time>
      </trkpt>
      <trkpt lat="49.08418" lon="6.29673">
        <ele>281.60000610352</ele>
        <time>2023-08-05T14:35:41.000Z</time>
      </trkpt>
      <trkpt lat="49.08424" lon="6.29665">
        <ele>281.60000610352</ele>
        <time>2023-08-05T14:35:42.000Z</time>
      </trkpt>
      <trkpt lat="49.08463" lon="6.29606">
        <ele>280.79998779297</ele>
        <time>2023-08-05T14:35:50.000Z</time>
      </trkpt>
      <trkpt lat="49.08472" lon="6.29591">
        <ele>280.60000610352</ele>
        <time>2023-08-05T14:35:52.000Z</time>
      </trkpt>
      <trkpt lat="49.08481" lon="6.29577">
        <ele>280.60000610352</ele>
        <time>2023-08-05T14:35:54.000Z</time>
      </trkpt>
      <trkpt lat="49.08515" lon="6.29526">
        <ele>279.39999389648</ele>
        <time>2023-08-05T14:36:01.000Z</time>
      </trkpt>
      <trkpt lat="49.0852" lon="6.29518">
        <ele>279.20001220703</ele>
        <time>2023-08-05T14:36:02.000Z</time>
      </trkpt>
      <trkpt lat="49.08529" lon="6.29504">
        <ele>279</ele>
        <time>2023-08-05T14:36:04.000Z</time>
      </trkpt>
      <trkpt lat="49.08557" lon="6.29462">
        <ele>278.39999389648</ele>
        <time>2023-08-05T14:36:10.000Z</time>
      </trkpt>
      <trkpt lat="49.08578" lon="6.2943">
        <ele>278.39999389648</ele>
        <time>2023-08-05T14:36:15.000Z</time>
      </trkpt>
      <trkpt lat="49.08614" lon="6.29375">
        <ele>278.60000610352</ele>
        <time>2023-08-05T14:36:24.000Z</time>
      </trkpt>
      <trkpt lat="49.08652" lon="6.29314">
        <ele>278.79998779297</ele>
        <time>2023-08-05T14:36:34.000Z</time>
      </trkpt>
      <trkpt lat="49.08676" lon="6.29269">
        <ele>278.60000610352</ele>
        <time>2023-08-05T14:36:41.000Z</time>
      </trkpt>
      <trkpt lat="49.08697" lon="6.2922">
        <ele>278</ele>
        <time>2023-08-05T14:36:48.000Z</time>
      </trkpt>
      <trkpt lat="49.08716" lon="6.2917">
        <ele>277.60000610352</ele>
        <time>2023-08-05T14:36:55.000Z</time>
      </trkpt>
      <trkpt lat="49.08726" lon="6.29143">
        <ele>277.39999389648</ele>
        <time>2023-08-05T14:36:59.000Z</time>
      </trkpt>
      <trkpt lat="49.08747" lon="6.29093">
        <ele>276.60000610352</ele>
        <time>2023-08-05T14:37:06.000Z</time>
      </trkpt>
      <trkpt lat="49.08754" lon="6.29078">
        <ele>276.39999389648</ele>
        <time>2023-08-05T14:37:08.000Z</time>
      </trkpt>
      <trkpt lat="49.08763" lon="6.29065">
        <ele>276.39999389648</ele>
        <time>2023-08-05T14:37:10.000Z</time>
      </trkpt>
      <trkpt lat="49.08773" lon="6.29055">
        <ele>276.20001220703</ele>
        <time>2023-08-05T14:37:12.000Z</time>
      </trkpt>
      <trkpt lat="49.08778" lon="6.29049">
        <ele>276.20001220703</ele>
        <time>2023-08-05T14:37:13.000Z</time>
      </trkpt>
      <trkpt lat="49.08785" lon="6.29034">
        <ele>276</ele>
        <time>2023-08-05T14:37:15.000Z</time>
      </trkpt>
      <trkpt lat="49.08785" lon="6.29014">
        <ele>276</ele>
        <time>2023-08-05T14:37:17.000Z</time>
      </trkpt>
      <trkpt lat="49.08782" lon="6.29005">
        <ele>275.79998779297</ele>
        <time>2023-08-05T14:37:18.000Z</time>
      </trkpt>
      <trkpt lat="49.08774" lon="6.2898">
        <ele>275.60000610352</ele>
        <time>2023-08-05T14:37:21.000Z</time>
      </trkpt>
      <trkpt lat="49.08773" lon="6.28971">
        <ele>275.39999389648</ele>
        <time>2023-08-05T14:37:22.000Z</time>
      </trkpt>
      <trkpt lat="49.08772" lon="6.28953">
        <ele>275.20001220703</ele>
        <time>2023-08-05T14:37:24.000Z</time>
      </trkpt>
      <trkpt lat="49.08771" lon="6.28915">
        <ele>275</ele>
        <time>2023-08-05T14:37:29.000Z</time>
      </trkpt>
      <trkpt lat="49.0877" lon="6.28868">
        <ele>274.79998779297</ele>
        <time>2023-08-05T14:37:35.000Z</time>
      </trkpt>
      <trkpt lat="49.08768" lon="6.28788">
        <ele>274.39999389648</ele>
        <time>2023-08-05T14:37:44.000Z</time>
      </trkpt>
      <trkpt lat="49.08768" lon="6.2877">
        <ele>274.39999389648</ele>
        <time>2023-08-05T14:37:46.000Z</time>
      </trkpt>
      <trkpt lat="49.08765" lon="6.28685">
        <ele>274</ele>
        <time>2023-08-05T14:37:55.000Z</time>
      </trkpt>
      <trkpt lat="49.08761" lon="6.28594">
        <ele>273.60000610352</ele>
        <time>2023-08-05T14:38:05.000Z</time>
      </trkpt>
      <trkpt lat="49.08761" lon="6.28584">
        <ele>273.60000610352</ele>
        <time>2023-08-05T14:38:06.000Z</time>
      </trkpt>
      <trkpt lat="49.08759" lon="6.28528">
        <ele>273.39999389648</ele>
        <time>2023-08-05T14:38:12.000Z</time>
      </trkpt>
      <trkpt lat="49.08757" lon="6.28473">
        <ele>273.20001220703</ele>
        <time>2023-08-05T14:38:18.000Z</time>
      </trkpt>
      <trkpt lat="49.08753" lon="6.28389">
        <ele>273.20001220703</ele>
        <time>2023-08-05T14:38:27.000Z</time>
      </trkpt>
      <trkpt lat="49.08753" lon="6.28379">
        <ele>273.20001220703</ele>
        <time>2023-08-05T14:38:28.000Z</time>
      </trkpt>
      <trkpt lat="49.0875" lon="6.28287">
        <ele>273</ele>
        <time>2023-08-05T14:38:38.000Z</time>
      </trkpt>
      <trkpt lat="49.0875" lon="6.28287">
        <ele>273</ele>
        <time>2023-08-05T14:38:39.000Z</time>
      </trkpt>
      <trkpt lat="49.08747" lon="6.28204">
        <ele>272.39999389648</ele>
        <time>2023-08-05T14:38:47.000Z</time>
      </trkpt>
      <trkpt lat="49.08746" lon="6.28184">
        <ele>272.39999389648</ele>
        <time>2023-08-05T14:38:49.000Z</time>
      </trkpt>
      <trkpt lat="49.08742" lon="6.281">
        <ele>272</ele>
        <time>2023-08-05T14:38:58.000Z</time>
      </trkpt>
      <trkpt lat="49.0874" lon="6.28054">
        <ele>271.79998779297</ele>
        <time>2023-08-05T14:39:03.000Z</time>
      </trkpt>
      <trkpt lat="49.08734" lon="6.27963">
        <ele>271.60000610352</ele>
        <time>2023-08-05T14:39:13.000Z</time>
      </trkpt>
      <trkpt lat="49.08729" lon="6.27918">
        <ele>271.60000610352</ele>
        <time>2023-08-05T14:39:18.000Z</time>
      </trkpt>
      <trkpt lat="49.08728" lon="6.27901">
        <ele>271.39999389648</ele>
        <time>2023-08-05T14:39:20.000Z</time>
      </trkpt>
      <trkpt lat="49.0872" lon="6.27832">
        <ele>271</ele>
        <time>2023-08-05T14:39:28.000Z</time>
      </trkpt>
      <trkpt lat="49.08711" lon="6.27746">
        <ele>270.79998779297</ele>
        <time>2023-08-05T14:39:38.000Z</time>
      </trkpt>
      <trkpt lat="49.0871" lon="6.27738">
        <ele>270.79998779297</ele>
        <time>2023-08-05T14:39:39.000Z</time>
      </trkpt>
      <trkpt lat="49.08703" lon="6.27667">
        <ele>270.79998779297</ele>
        <time>2023-08-05T14:39:48.000Z</time>
      </trkpt>
      <trkpt lat="49.08695" lon="6.27594">
        <ele>270.79998779297</ele>
        <time>2023-08-05T14:39:58.000Z</time>
      </trkpt>
      <trkpt lat="49.08687" lon="6.27522">
        <ele>271.39999389648</ele>
        <time>2023-08-05T14:40:08.000Z</time>
      </trkpt>
      <trkpt lat="49.0868" lon="6.27458">
        <ele>272</ele>
        <time>2023-08-05T14:40:17.000Z</time>
      </trkpt>
      <trkpt lat="49.08671" lon="6.27387">
        <ele>272.79998779297</ele>
        <time>2023-08-05T14:40:27.000Z</time>
      </trkpt>
      <trkpt lat="49.08671" lon="6.2738">
        <ele>272.79998779297</ele>
        <time>2023-08-05T14:40:28.000Z</time>
      </trkpt>
      <trkpt lat="49.08662" lon="6.27306">
        <ele>273.20001220703</ele>
        <time>2023-08-05T14:40:38.000Z</time>
      </trkpt>
      <trkpt lat="49.08654" lon="6.2723">
        <ele>273.39999389648</ele>
        <time>2023-08-05T14:40:48.000Z</time>
      </trkpt>
      <trkpt lat="49.08648" lon="6.27143">
        <ele>273.60000610352</ele>
        <time>2023-08-05T14:40:59.000Z</time>
      </trkpt>
      <trkpt lat="49.08647" lon="6.2712">
        <ele>273.79998779297</ele>
        <time>2023-08-05T14:41:02.000Z</time>
      </trkpt>
      <trkpt lat="49.08647" lon="6.27073">
        <ele>274</ele>
        <time>2023-08-05T14:41:09.000Z</time>
      </trkpt>
      <trkpt lat="49.08647" lon="6.27067">
        <ele>274</ele>
        <time>2023-08-05T14:41:13.000Z</time>
      </trkpt>
      <trkpt lat="49.08646" lon="6.27062">
        <ele>273</ele>
        <time>2023-08-05T14:44:59.000Z</time>
      </trkpt>
      <trkpt lat="49.08646" lon="6.2706">
        <ele>273</ele>
        <time>2023-08-05T14:45:02.000Z</time>
      </trkpt>
      <trkpt lat="49.08648" lon="6.27058">
        <ele>273.39999389648</ele>
        <time>2023-08-05T14:46:11.000Z</time>
      </trkpt>
      <trkpt lat="49.08647" lon="6.27049">
        <ele>273.39999389648</ele>
        <time>2023-08-05T14:46:13.000Z</time>
      </trkpt>
      <trkpt lat="49.08648" lon="6.27022">
        <ele>273.60000610352</ele>
        <time>2023-08-05T14:46:18.000Z</time>
      </trkpt>
      <trkpt lat="49.08651" lon="6.26979">
        <ele>273.60000610352</ele>
        <time>2023-08-05T14:46:25.000Z</time>
      </trkpt>
      <trkpt lat="49.08654" lon="6.26929">
        <ele>274.20001220703</ele>
        <time>2023-08-05T14:46:32.000Z</time>
      </trkpt>
      <trkpt lat="49.08656" lon="6.269">
        <ele>274.20001220703</ele>
        <time>2023-08-05T14:46:36.000Z</time>
      </trkpt>
      <trkpt lat="49.08659" lon="6.2687">
        <ele>274.39999389648</ele>
        <time>2023-08-05T14:46:40.000Z</time>
      </trkpt>
      <trkpt lat="49.08665" lon="6.26817">
        <ele>274.60000610352</ele>
        <time>2023-08-05T14:46:47.000Z</time>
      </trkpt>
      <trkpt lat="49.08667" lon="6.26802">
        <ele>274.60000610352</ele>
        <time>2023-08-05T14:46:49.000Z</time>
      </trkpt>
      <trkpt lat="49.08679" lon="6.26728">
        <ele>275</ele>
        <time>2023-08-05T14:46:59.000Z</time>
      </trkpt>
      <trkpt lat="49.08683" lon="6.26706">
        <ele>275.20001220703</ele>
        <time>2023-08-05T14:47:02.000Z</time>
      </trkpt>
      <trkpt lat="49.08692" lon="6.26664">
        <ele>275.39999389648</ele>
        <time>2023-08-05T14:47:08.000Z</time>
      </trkpt>
      <trkpt lat="49.08707" lon="6.26607">
        <ele>275.79998779297</ele>
        <time>2023-08-05T14:47:16.000Z</time>
      </trkpt>
      <trkpt lat="49.08729" lon="6.26531">
        <ele>276</ele>
        <time>2023-08-05T14:47:27.000Z</time>
      </trkpt>
      <trkpt lat="49.08745" lon="6.26484">
        <ele>276.20001220703</ele>
        <time>2023-08-05T14:47:34.000Z</time>
      </trkpt>
      <trkpt lat="49.08761" lon="6.26443">
        <ele>276.20001220703</ele>
        <time>2023-08-05T14:47:40.000Z</time>
      </trkpt>
      <trkpt lat="49.08766" lon="6.2643">
        <ele>276.39999389648</ele>
        <time>2023-08-05T14:47:42.000Z</time>
      </trkpt>
      <trkpt lat="49.08794" lon="6.26365">
        <ele>276.60000610352</ele>
        <time>2023-08-05T14:47:52.000Z</time>
      </trkpt>
      <trkpt lat="49.08818" lon="6.26315">
        <ele>276.60000610352</ele>
        <time>2023-08-05T14:48:00.000Z</time>
      </trkpt>
      <trkpt lat="49.08825" lon="6.26303">
        <ele>276.60000610352</ele>
        <time>2023-08-05T14:48:02.000Z</time>
      </trkpt>
      <trkpt lat="49.08861" lon="6.26238">
        <ele>276.79998779297</ele>
        <time>2023-08-05T14:48:13.000Z</time>
      </trkpt>
      <trkpt lat="49.08885" lon="6.26198">
        <ele>277.60000610352</ele>
        <time>2023-08-05T14:48:20.000Z</time>
      </trkpt>
      <trkpt lat="49.08904" lon="6.26172">
        <ele>277.79998779297</ele>
        <time>2023-08-05T14:48:25.000Z</time>
      </trkpt>
      <trkpt lat="49.08946" lon="6.26115">
        <ele>278.39999389648</ele>
        <time>2023-08-05T14:48:36.000Z</time>
      </trkpt>
      <trkpt lat="49.0895" lon="6.2611">
        <ele>278.60000610352</ele>
        <time>2023-08-05T14:48:37.000Z</time>
      </trkpt>
      <trkpt lat="49.08976" lon="6.26076">
        <ele>279.60000610352</ele>
        <time>2023-08-05T14:48:44.000Z</time>
      </trkpt>
      <trkpt lat="49.0898" lon="6.26071">
        <ele>279.60000610352</ele>
        <time>2023-08-05T14:48:45.000Z</time>
      </trkpt>
      <trkpt lat="49.09014" lon="6.26027">
        <ele>280.20001220703</ele>
        <time>2023-08-05T14:48:54.000Z</time>
      </trkpt>
      <trkpt lat="49.09047" lon="6.2598">
        <ele>280.79998779297</ele>
        <time>2023-08-05T14:49:03.000Z</time>
      </trkpt>
      <trkpt lat="49.09051" lon="6.25975">
        <ele>280.79998779297</ele>
        <time>2023-08-05T14:49:04.000Z</time>
      </trkpt>
      <trkpt lat="49.09074" lon="6.25943">
        <ele>281.39999389648</ele>
        <time>2023-08-05T14:49:10.000Z</time>
      </trkpt>
      <trkpt lat="49.09082" lon="6.25934">
        <ele>281.39999389648</ele>
        <time>2023-08-05T14:49:12.000Z</time>
      </trkpt>
      <trkpt lat="49.09091" lon="6.25925">
        <ele>281.60000610352</ele>
        <time>2023-08-05T14:49:14.000Z</time>
      </trkpt>
      <trkpt lat="49.09096" lon="6.25921">
        <ele>281.79998779297</ele>
        <time>2023-08-05T14:49:15.000Z</time>
      </trkpt>
      <trkpt lat="49.091" lon="6.25918">
        <ele>282</ele>
        <time>2023-08-05T14:49:16.000Z</time>
      </trkpt>
      <trkpt lat="49.09105" lon="6.25917">
        <ele>282</ele>
        <time>2023-08-05T14:49:17.000Z</time>
      </trkpt>
      <trkpt lat="49.09111" lon="6.25919">
        <ele>282.20001220703</ele>
        <time>2023-08-05T14:49:18.000Z</time>
      </trkpt>
      <trkpt lat="49.09123" lon="6.2592">
        <ele>282.20001220703</ele>
        <time>2023-08-05T14:49:20.000Z</time>
      </trkpt>
      <trkpt lat="49.09127" lon="6.25919">
        <ele>282.20001220703</ele>
        <time>2023-08-05T14:49:21.000Z</time>
      </trkpt>
      <trkpt lat="49.09133" lon="6.25917">
        <ele>282.39999389648</ele>
        <time>2023-08-05T14:49:22.000Z</time>
      </trkpt>
      <trkpt lat="49.09143" lon="6.25908">
        <ele>282.20001220703</ele>
        <time>2023-08-05T14:49:24.000Z</time>
      </trkpt>
      <trkpt lat="49.09146" lon="6.25901">
        <ele>282.20001220703</ele>
        <time>2023-08-05T14:49:25.000Z</time>
      </trkpt>
      <trkpt lat="49.09149" lon="6.25893">
        <ele>282.20001220703</ele>
        <time>2023-08-05T14:49:26.000Z</time>
      </trkpt>
      <trkpt lat="49.09151" lon="6.25875">
        <ele>282.20001220703</ele>
        <time>2023-08-05T14:49:28.000Z</time>
      </trkpt>
      <trkpt lat="49.09147" lon="6.25839">
        <ele>281.60000610352</ele>
        <time>2023-08-05T14:49:32.000Z</time>
      </trkpt>
      <trkpt lat="49.09149" lon="6.2583">
        <ele>281.60000610352</ele>
        <time>2023-08-05T14:49:33.000Z</time>
      </trkpt>
      <trkpt lat="49.09151" lon="6.25822">
        <ele>281.39999389648</ele>
        <time>2023-08-05T14:49:34.000Z</time>
      </trkpt>
      <trkpt lat="49.09162" lon="6.25789">
        <ele>281.20001220703</ele>
        <time>2023-08-05T14:49:38.000Z</time>
      </trkpt>
      <trkpt lat="49.09182" lon="6.25744">
        <ele>280.79998779297</ele>
        <time>2023-08-05T14:49:44.000Z</time>
      </trkpt>
      <trkpt lat="49.09189" lon="6.25728">
        <ele>280.79998779297</ele>
        <time>2023-08-05T14:49:46.000Z</time>
      </trkpt>
      <trkpt lat="49.0922" lon="6.25659">
        <ele>280.20001220703</ele>
        <time>2023-08-05T14:49:55.000Z</time>
      </trkpt>
      <trkpt lat="49.09248" lon="6.25586">
        <ele>279.60000610352</ele>
        <time>2023-08-05T14:50:04.000Z</time>
      </trkpt>
      <trkpt lat="49.09251" lon="6.25577">
        <ele>279.39999389648</ele>
        <time>2023-08-05T14:50:05.000Z</time>
      </trkpt>
      <trkpt lat="49.09271" lon="6.25516">
        <ele>278.60000610352</ele>
        <time>2023-08-05T14:50:12.000Z</time>
      </trkpt>
      <trkpt lat="49.09274" lon="6.25507">
        <ele>278.39999389648</ele>
        <time>2023-08-05T14:50:13.000Z</time>
      </trkpt>
      <trkpt lat="49.0929" lon="6.25449">
        <ele>277.39999389648</ele>
        <time>2023-08-05T14:50:19.000Z</time>
      </trkpt>
      <trkpt lat="49.09298" lon="6.25416">
        <ele>276.79998779297</ele>
        <time>2023-08-05T14:50:22.000Z</time>
      </trkpt>
      <trkpt lat="49.09304" lon="6.25397">
        <ele>276.39999389648</ele>
        <time>2023-08-05T14:50:24.000Z</time>
      </trkpt>
      <trkpt lat="49.09306" lon="6.25386">
        <ele>276.20001220703</ele>
        <time>2023-08-05T14:50:25.000Z</time>
      </trkpt>
      <trkpt lat="49.0932" lon="6.25341">
        <ele>275</ele>
        <time>2023-08-05T14:50:29.000Z</time>
      </trkpt>
      <trkpt lat="49.09331" lon="6.25303">
        <ele>273.79998779297</ele>
        <time>2023-08-05T14:50:32.000Z</time>
      </trkpt>
      <trkpt lat="49.09342" lon="6.25265">
        <ele>272.39999389648</ele>
        <time>2023-08-05T14:50:35.000Z</time>
      </trkpt>
      <trkpt lat="49.09346" lon="6.25252">
        <ele>272.20001220703</ele>
        <time>2023-08-05T14:50:36.000Z</time>
      </trkpt>
      <trkpt lat="49.09357" lon="6.25214">
        <ele>271.20001220703</ele>
        <time>2023-08-05T14:50:39.000Z</time>
      </trkpt>
      <trkpt lat="49.09361" lon="6.25201">
        <ele>270.79998779297</ele>
        <time>2023-08-05T14:50:40.000Z</time>
      </trkpt>
      <trkpt lat="49.09369" lon="6.25173">
        <ele>270.20001220703</ele>
        <time>2023-08-05T14:50:42.000Z</time>
      </trkpt>
      <trkpt lat="49.09376" lon="6.25151">
        <ele>269.79998779297</ele>
        <time>2023-08-05T14:50:44.000Z</time>
      </trkpt>
      <trkpt lat="49.09387" lon="6.25113">
        <ele>269</ele>
        <time>2023-08-05T14:50:47.000Z</time>
      </trkpt>
      <trkpt lat="49.094" lon="6.2507">
        <ele>268.20001220703</ele>
        <time>2023-08-05T14:50:51.000Z</time>
      </trkpt>
      <trkpt lat="49.09403" lon="6.25058">
        <ele>268</ele>
        <time>2023-08-05T14:50:52.000Z</time>
      </trkpt>
      <trkpt lat="49.09412" lon="6.25028">
        <ele>267.39999389648</ele>
        <time>2023-08-05T14:50:56.000Z</time>
      </trkpt>
      <trkpt lat="49.09417" lon="6.25016">
        <ele>267.20001220703</ele>
        <time>2023-08-05T14:51:00.000Z</time>
      </trkpt>
      <trkpt lat="49.09417" lon="6.25016">
        <ele>267.20001220703</ele>
        <time>2023-08-05T14:51:02.000Z</time>
      </trkpt>
      <trkpt lat="49.09418" lon="6.25007">
        <ele>266.39999389648</ele>
        <time>2023-08-05T14:52:42.000Z</time>
      </trkpt>
      <trkpt lat="49.09421" lon="6.24998">
        <ele>266.39999389648</ele>
        <time>2023-08-05T14:52:44.000Z</time>
      </trkpt>
      <trkpt lat="49.09428" lon="6.24972">
        <ele>266.39999389648</ele>
        <time>2023-08-05T14:52:48.000Z</time>
      </trkpt>
      <trkpt lat="49.09439" lon="6.24935">
        <ele>266.39999389648</ele>
        <time>2023-08-05T14:52:53.000Z</time>
      </trkpt>
      <trkpt lat="49.09459" lon="6.24864">
        <ele>266.20001220703</ele>
        <time>2023-08-05T14:53:02.000Z</time>
      </trkpt>
      <trkpt lat="49.09476" lon="6.24807">
        <ele>265.79998779297</ele>
        <time>2023-08-05T14:53:09.000Z</time>
      </trkpt>
      <trkpt lat="49.09487" lon="6.24765">
        <ele>265.20001220703</ele>
        <time>2023-08-05T14:53:14.000Z</time>
      </trkpt>
      <trkpt lat="49.09495" lon="6.2474">
        <ele>264.79998779297</ele>
        <time>2023-08-05T14:53:17.000Z</time>
      </trkpt>
      <trkpt lat="49.09502" lon="6.24715">
        <ele>264.20001220703</ele>
        <time>2023-08-05T14:53:20.000Z</time>
      </trkpt>
      <trkpt lat="49.09511" lon="6.24684">
        <ele>263.60000610352</ele>
        <time>2023-08-05T14:53:24.000Z</time>
      </trkpt>
      <trkpt lat="49.09515" lon="6.24663">
        <ele>263.39999389648</ele>
        <time>2023-08-05T14:53:28.000Z</time>
      </trkpt>
      <trkpt lat="49.09516" lon="6.24649">
        <ele>263.39999389648</ele>
        <time>2023-08-05T14:53:32.000Z</time>
      </trkpt>
      <trkpt lat="49.09517" lon="6.24646">
        <ele>263.39999389648</ele>
        <time>2023-08-05T14:53:33.000Z</time>
      </trkpt>
      <trkpt lat="49.09514" lon="6.24624">
        <ele>263.20001220703</ele>
        <time>2023-08-05T14:53:38.000Z</time>
      </trkpt>
      <trkpt lat="49.0951" lon="6.24607">
        <ele>263</ele>
        <time>2023-08-05T14:53:41.000Z</time>
      </trkpt>
      <trkpt lat="49.09504" lon="6.24598">
        <ele>263</ele>
        <time>2023-08-05T14:53:43.000Z</time>
      </trkpt>
      <trkpt lat="49.09498" lon="6.24589">
        <ele>263</ele>
        <time>2023-08-05T14:53:45.000Z</time>
      </trkpt>
      <trkpt lat="49.09495" lon="6.24576">
        <ele>262.60000610352</ele>
        <time>2023-08-05T14:53:47.000Z</time>
      </trkpt>
      <trkpt lat="49.09491" lon="6.24561">
        <ele>262.39999389648</ele>
        <time>2023-08-05T14:53:49.000Z</time>
      </trkpt>
      <trkpt lat="49.09482" lon="6.2452">
        <ele>262</ele>
        <time>2023-08-05T14:53:54.000Z</time>
      </trkpt>
      <trkpt lat="49.09476" lon="6.24489">
        <ele>261.39999389648</ele>
        <time>2023-08-05T14:53:58.000Z</time>
      </trkpt>
      <trkpt lat="49.09475" lon="6.2448">
        <ele>261.20001220703</ele>
        <time>2023-08-05T14:53:59.000Z</time>
      </trkpt>
      <trkpt lat="49.09473" lon="6.24463">
        <ele>261.20001220703</ele>
        <time>2023-08-05T14:54:01.000Z</time>
      </trkpt>
      <trkpt lat="49.09471" lon="6.24455">
        <ele>261</ele>
        <time>2023-08-05T14:54:02.000Z</time>
      </trkpt>
      <trkpt lat="49.09461" lon="6.24415">
        <ele>260.60000610352</ele>
        <time>2023-08-05T14:54:07.000Z</time>
      </trkpt>
      <trkpt lat="49.09453" lon="6.24363">
        <ele>260.20001220703</ele>
        <time>2023-08-05T14:54:13.000Z</time>
      </trkpt>
      <trkpt lat="49.09452" lon="6.24354">
        <ele>260.20001220703</ele>
        <time>2023-08-05T14:54:14.000Z</time>
      </trkpt>
      <trkpt lat="49.09444" lon="6.24264">
        <ele>259.60000610352</ele>
        <time>2023-08-05T14:54:24.000Z</time>
      </trkpt>
      <trkpt lat="49.09441" lon="6.24227">
        <ele>259.20001220703</ele>
        <time>2023-08-05T14:54:28.000Z</time>
      </trkpt>
      <trkpt lat="49.09437" lon="6.24164">
        <ele>258.60000610352</ele>
        <time>2023-08-05T14:54:35.000Z</time>
      </trkpt>
      <trkpt lat="49.09435" lon="6.24128">
        <ele>258.20001220703</ele>
        <time>2023-08-05T14:54:39.000Z</time>
      </trkpt>
      <trkpt lat="49.09431" lon="6.24073">
        <ele>257.39999389648</ele>
        <time>2023-08-05T14:54:45.000Z</time>
      </trkpt>
      <trkpt lat="49.09428" lon="6.24047">
        <ele>257.20001220703</ele>
        <time>2023-08-05T14:54:48.000Z</time>
      </trkpt>
      <trkpt lat="49.09427" lon="6.24022">
        <ele>257</ele>
        <time>2023-08-05T14:54:51.000Z</time>
      </trkpt>
      <trkpt lat="49.09424" lon="6.23971">
        <ele>256.39999389648</ele>
        <time>2023-08-05T14:54:57.000Z</time>
      </trkpt>
      <trkpt lat="49.09422" lon="6.23939">
        <ele>255.80000305176</ele>
        <time>2023-08-05T14:55:01.000Z</time>
      </trkpt>
      <trkpt lat="49.09421" lon="6.23924">
        <ele>255.60000610352</ele>
        <time>2023-08-05T14:55:03.000Z</time>
      </trkpt>
      <trkpt lat="49.09419" lon="6.23911">
        <ele>255.39999389648</ele>
        <time>2023-08-05T14:55:05.000Z</time>
      </trkpt>
      <trkpt lat="49.09416" lon="6.23905">
        <ele>255.39999389648</ele>
        <time>2023-08-05T14:55:06.000Z</time>
      </trkpt>
      <trkpt lat="49.09413" lon="6.23889">
        <ele>255</ele>
        <time>2023-08-05T14:55:09.000Z</time>
      </trkpt>
      <trkpt lat="49.09413" lon="6.23877">
        <ele>254.80000305176</ele>
        <time>2023-08-05T14:55:11.000Z</time>
      </trkpt>
      <trkpt lat="49.09413" lon="6.2387">
        <ele>254.80000305176</ele>
        <time>2023-08-05T14:55:12.000Z</time>
      </trkpt>
      <trkpt lat="49.09414" lon="6.23855">
        <ele>254.39999389648</ele>
        <time>2023-08-05T14:55:14.000Z</time>
      </trkpt>
      <trkpt lat="49.09414" lon="6.2384">
        <ele>254.19999694824</ele>
        <time>2023-08-05T14:55:16.000Z</time>
      </trkpt>
      <trkpt lat="49.09412" lon="6.23816">
        <ele>253.80000305176</ele>
        <time>2023-08-05T14:55:19.000Z</time>
      </trkpt>
      <trkpt lat="49.09407" lon="6.23737">
        <ele>253</ele>
        <time>2023-08-05T14:55:28.000Z</time>
      </trkpt>
      <trkpt lat="49.09405" lon="6.2372">
        <ele>252.80000305176</ele>
        <time>2023-08-05T14:55:30.000Z</time>
      </trkpt>
      <trkpt lat="49.09401" lon="6.2367">
        <ele>252.39999389648</ele>
        <time>2023-08-05T14:55:36.000Z</time>
      </trkpt>
      <trkpt lat="49.09399" lon="6.23616">
        <ele>251.80000305176</ele>
        <time>2023-08-05T14:55:43.000Z</time>
      </trkpt>
      <trkpt lat="49.09395" lon="6.23563">
        <ele>252</ele>
        <time>2023-08-05T14:55:50.000Z</time>
      </trkpt>
      <trkpt lat="49.09392" lon="6.23524">
        <ele>252</ele>
        <time>2023-08-05T14:55:55.000Z</time>
      </trkpt>
      <trkpt lat="49.09392" lon="6.23516">
        <ele>252</ele>
        <time>2023-08-05T14:55:56.000Z</time>
      </trkpt>
      <trkpt lat="49.09392" lon="6.23508">
        <ele>252</ele>
        <time>2023-08-05T14:55:57.000Z</time>
      </trkpt>
      <trkpt lat="49.09387" lon="6.23458">
        <ele>252</ele>
        <time>2023-08-05T14:56:04.000Z</time>
      </trkpt>
      <trkpt lat="49.09383" lon="6.23446">
        <ele>252</ele>
        <time>2023-08-05T14:56:06.000Z</time>
      </trkpt>
      <trkpt lat="49.09377" lon="6.23438">
        <ele>252.19999694824</ele>
        <time>2023-08-05T14:56:08.000Z</time>
      </trkpt>
      <trkpt lat="49.09375" lon="6.23434">
        <ele>252.19999694824</ele>
        <time>2023-08-05T14:56:09.000Z</time>
      </trkpt>
      <trkpt lat="49.09372" lon="6.23425">
        <ele>252.19999694824</ele>
        <time>2023-08-05T14:56:11.000Z</time>
      </trkpt>
      <trkpt lat="49.09374" lon="6.23406">
        <ele>252.19999694824</ele>
        <time>2023-08-05T14:56:15.000Z</time>
      </trkpt>
      <trkpt lat="49.09381" lon="6.23381">
        <ele>252</ele>
        <time>2023-08-05T14:56:20.000Z</time>
      </trkpt>
      <trkpt lat="49.0938" lon="6.23341">
        <ele>252.39999389648</ele>
        <time>2023-08-05T14:56:26.000Z</time>
      </trkpt>
      <trkpt lat="49.09375" lon="6.23278">
        <ele>253</ele>
        <time>2023-08-05T14:56:36.000Z</time>
      </trkpt>
      <trkpt lat="49.09374" lon="6.23267">
        <ele>253</ele>
        <time>2023-08-05T14:56:38.000Z</time>
      </trkpt>
      <trkpt lat="49.09373" lon="6.23262">
        <ele>253</ele>
        <time>2023-08-05T14:56:39.000Z</time>
      </trkpt>
      <trkpt lat="49.09371" lon="6.23257">
        <ele>253</ele>
        <time>2023-08-05T14:56:40.000Z</time>
      </trkpt>
      <trkpt lat="49.0937" lon="6.23256">
        <ele>253.19999694824</ele>
        <time>2023-08-05T14:56:42.000Z</time>
      </trkpt>
      <trkpt lat="49.09372" lon="6.23253">
        <ele>253.19999694824</ele>
        <time>2023-08-05T14:56:44.000Z</time>
      </trkpt>
      <trkpt lat="49.09376" lon="6.2325">
        <ele>253</ele>
        <time>2023-08-05T14:56:45.000Z</time>
      </trkpt>
      <trkpt lat="49.09381" lon="6.23241">
        <ele>253.19999694824</ele>
        <time>2023-08-05T14:56:49.000Z</time>
      </trkpt>
      <trkpt lat="49.09381" lon="6.2323">
        <ele>253.19999694824</ele>
        <time>2023-08-05T14:56:50.000Z</time>
      </trkpt>
      <trkpt lat="49.0938" lon="6.23224">
        <ele>253.19999694824</ele>
        <time>2023-08-05T14:56:52.000Z</time>
      </trkpt>
      <trkpt lat="49.09376" lon="6.23195">
        <ele>253.39999389648</ele>
        <time>2023-08-05T14:56:56.000Z</time>
      </trkpt>
      <trkpt lat="49.09374" lon="6.23134">
        <ele>253.80000305176</ele>
        <time>2023-08-05T14:57:05.000Z</time>
      </trkpt>
      <trkpt lat="49.09371" lon="6.23067">
        <ele>254.19999694824</ele>
        <time>2023-08-05T14:57:14.000Z</time>
      </trkpt>
      <trkpt lat="49.09371" lon="6.23052">
        <ele>254.19999694824</ele>
        <time>2023-08-05T14:57:15.000Z</time>
      </trkpt>
      <trkpt lat="49.09371" lon="6.23037">
        <ele>254.39999389648</ele>
        <time>2023-08-05T14:57:18.000Z</time>
      </trkpt>
      <trkpt lat="49.09369" lon="6.23009">
        <ele>254.60000610352</ele>
        <time>2023-08-05T14:57:22.000Z</time>
      </trkpt>
      <trkpt lat="49.09366" lon="6.2295">
        <ele>255</ele>
        <time>2023-08-05T14:57:31.000Z</time>
      </trkpt>
      <trkpt lat="49.09369" lon="6.2294">
        <ele>255</ele>
        <time>2023-08-05T14:57:32.000Z</time>
      </trkpt>
      <trkpt lat="49.09373" lon="6.22933">
        <ele>255.19999694824</ele>
        <time>2023-08-05T14:57:35.000Z</time>
      </trkpt>
      <trkpt lat="49.09374" lon="6.22919">
        <ele>255.19999694824</ele>
        <time>2023-08-05T14:57:38.000Z</time>
      </trkpt>
      <trkpt lat="49.09374" lon="6.2291">
        <ele>255.19999694824</ele>
        <time>2023-08-05T14:57:40.000Z</time>
      </trkpt>
      <trkpt lat="49.09374" lon="6.22896">
        <ele>255.19999694824</ele>
        <time>2023-08-05T14:57:42.000Z</time>
      </trkpt>
      <trkpt lat="49.09373" lon="6.22894">
        <ele>255.19999694824</ele>
        <time>2023-08-05T14:57:44.000Z</time>
      </trkpt>
      <trkpt lat="49.09366" lon="6.22892">
        <ele>255.19999694824</ele>
        <time>2023-08-05T14:57:46.000Z</time>
      </trkpt>
      <trkpt lat="49.09363" lon="6.22889">
        <ele>255.19999694824</ele>
        <time>2023-08-05T14:57:48.000Z</time>
      </trkpt>
      <trkpt lat="49.09359" lon="6.22881">
        <ele>255.60000610352</ele>
        <time>2023-08-05T14:57:50.000Z</time>
      </trkpt>
      <trkpt lat="49.09356" lon="6.2287">
        <ele>255.60000610352</ele>
        <time>2023-08-05T14:57:51.000Z</time>
      </trkpt>
      <trkpt lat="49.09356" lon="6.22864">
        <ele>255.80000305176</ele>
        <time>2023-08-05T14:57:53.000Z</time>
      </trkpt>
      <trkpt lat="49.09352" lon="6.22815">
        <ele>256.60000610352</ele>
        <time>2023-08-05T14:58:00.000Z</time>
      </trkpt>
      <trkpt lat="49.09349" lon="6.22755">
        <ele>256.60000610352</ele>
        <time>2023-08-05T14:58:09.000Z</time>
      </trkpt>
      <trkpt lat="49.09347" lon="6.22706">
        <ele>256.60000610352</ele>
        <time>2023-08-05T14:58:16.000Z</time>
      </trkpt>
      <trkpt lat="49.09345" lon="6.22685">
        <ele>256.39999389648</ele>
        <time>2023-08-05T14:58:18.000Z</time>
      </trkpt>
      <trkpt lat="49.09342" lon="6.22658">
        <ele>256.39999389648</ele>
        <time>2023-08-05T14:58:22.000Z</time>
      </trkpt>
      <trkpt lat="49.0934" lon="6.22637">
        <ele>256.20001220703</ele>
        <time>2023-08-05T14:58:26.000Z</time>
      </trkpt>
      <trkpt lat="49.09335" lon="6.22563">
        <ele>255.80000305176</ele>
        <time>2023-08-05T14:58:36.000Z</time>
      </trkpt>
      <trkpt lat="49.09328" lon="6.22501">
        <ele>255.80000305176</ele>
        <time>2023-08-05T14:58:43.000Z</time>
      </trkpt>
      <trkpt lat="49.09327" lon="6.22493">
        <ele>255.60000610352</ele>
        <time>2023-08-05T14:58:44.000Z</time>
      </trkpt>
      <trkpt lat="49.09323" lon="6.2244">
        <ele>255.60000610352</ele>
        <time>2023-08-05T14:58:52.000Z</time>
      </trkpt>
      <trkpt lat="49.0932" lon="6.22399">
        <ele>255.60000610352</ele>
        <time>2023-08-05T14:58:57.000Z</time>
      </trkpt>
      <trkpt lat="49.09318" lon="6.2237">
        <ele>255.60000610352</ele>
        <time>2023-08-05T14:59:00.000Z</time>
      </trkpt>
      <trkpt lat="49.09317" lon="6.22349">
        <ele>255.60000610352</ele>
        <time>2023-08-05T14:59:03.000Z</time>
      </trkpt>
      <trkpt lat="49.09316" lon="6.22322">
        <ele>255.19999694824</ele>
        <time>2023-08-05T14:59:07.000Z</time>
      </trkpt>
      <trkpt lat="49.09316" lon="6.22298">
        <ele>255.19999694824</ele>
        <time>2023-08-05T14:59:12.000Z</time>
      </trkpt>
      <trkpt lat="49.09316" lon="6.22294">
        <ele>255.19999694824</ele>
        <time>2023-08-05T14:59:13.000Z</time>
      </trkpt>
      <trkpt lat="49.09315" lon="6.22281">
        <ele>255</ele>
        <time>2023-08-05T14:59:18.000Z</time>
      </trkpt>
      <trkpt lat="49.09316" lon="6.22277">
        <ele>255</ele>
        <time>2023-08-05T14:59:20.000Z</time>
      </trkpt>
      <trkpt lat="49.09322" lon="6.22272">
        <ele>254.80000305176</ele>
        <time>2023-08-05T14:59:22.000Z</time>
      </trkpt>
      <trkpt lat="49.09342" lon="6.22252">
        <ele>254.80000305176</ele>
        <time>2023-08-05T14:59:27.000Z</time>
      </trkpt>
      <trkpt lat="49.09346" lon="6.22248">
        <ele>254.80000305176</ele>
        <time>2023-08-05T14:59:28.000Z</time>
      </trkpt>
      <trkpt lat="49.09374" lon="6.22219">
        <ele>254.19999694824</ele>
        <time>2023-08-05T14:59:34.000Z</time>
      </trkpt>
      <trkpt lat="49.09388" lon="6.22203">
        <ele>253.60000610352</ele>
        <time>2023-08-05T14:59:37.000Z</time>
      </trkpt>
      <trkpt lat="49.09414" lon="6.22177">
        <ele>253.19999694824</ele>
        <time>2023-08-05T14:59:42.000Z</time>
      </trkpt>
      <trkpt lat="49.09419" lon="6.22172">
        <ele>253</ele>
        <time>2023-08-05T14:59:43.000Z</time>
      </trkpt>
      <trkpt lat="49.0944" lon="6.22149">
        <ele>252.60000610352</ele>
        <time>2023-08-05T14:59:47.000Z</time>
      </trkpt>
      <trkpt lat="49.09445" lon="6.22144">
        <ele>252.39999389648</ele>
        <time>2023-08-05T14:59:48.000Z</time>
      </trkpt>
      <trkpt lat="49.09476" lon="6.22111">
        <ele>251.39999389648</ele>
        <time>2023-08-05T14:59:54.000Z</time>
      </trkpt>
      <trkpt lat="49.09497" lon="6.22089">
        <ele>250.39999389648</ele>
        <time>2023-08-05T14:59:58.000Z</time>
      </trkpt>
      <trkpt lat="49.09502" lon="6.22083">
        <ele>250.19999694824</ele>
        <time>2023-08-05T14:59:59.000Z</time>
      </trkpt>
      <trkpt lat="49.09523" lon="6.22062">
        <ele>249.60000610352</ele>
        <time>2023-08-05T15:00:03.000Z</time>
      </trkpt>
      <trkpt lat="49.09533" lon="6.22051">
        <ele>249.39999389648</ele>
        <time>2023-08-05T15:00:05.000Z</time>
      </trkpt>
      <trkpt lat="49.09554" lon="6.22029">
        <ele>249</ele>
        <time>2023-08-05T15:00:09.000Z</time>
      </trkpt>
      <trkpt lat="49.0958" lon="6.22002">
        <ele>248.39999389648</ele>
        <time>2023-08-05T15:00:14.000Z</time>
      </trkpt>
      <trkpt lat="49.09616" lon="6.21963">
        <ele>248.39999389648</ele>
        <time>2023-08-05T15:00:21.000Z</time>
      </trkpt>
      <trkpt lat="49.09621" lon="6.21958">
        <ele>248.19999694824</ele>
        <time>2023-08-05T15:00:22.000Z</time>
      </trkpt>
      <trkpt lat="49.09661" lon="6.21916">
        <ele>247.39999389648</ele>
        <time>2023-08-05T15:00:30.000Z</time>
      </trkpt>
      <trkpt lat="49.09671" lon="6.21905">
        <ele>247.19999694824</ele>
        <time>2023-08-05T15:00:32.000Z</time>
      </trkpt>
      <trkpt lat="49.09717" lon="6.21857">
        <ele>246.39999389648</ele>
        <time>2023-08-05T15:00:41.000Z</time>
      </trkpt>
      <trkpt lat="49.09732" lon="6.21841">
        <ele>246.19999694824</ele>
        <time>2023-08-05T15:00:44.000Z</time>
      </trkpt>
      <trkpt lat="49.09743" lon="6.21831">
        <ele>246.19999694824</ele>
        <time>2023-08-05T15:00:46.000Z</time>
      </trkpt>
      <trkpt lat="49.09759" lon="6.21816">
        <ele>245.80000305176</ele>
        <time>2023-08-05T15:00:49.000Z</time>
      </trkpt>
      <trkpt lat="49.09799" lon="6.21772">
        <ele>244.80000305176</ele>
        <time>2023-08-05T15:00:57.000Z</time>
      </trkpt>
      <trkpt lat="49.09809" lon="6.21761">
        <ele>244.39999389648</ele>
        <time>2023-08-05T15:00:59.000Z</time>
      </trkpt>
      <trkpt lat="49.0984" lon="6.21728">
        <ele>243.80000305176</ele>
        <time>2023-08-05T15:01:05.000Z</time>
      </trkpt>
      <trkpt lat="49.09861" lon="6.21706">
        <ele>243.39999389648</ele>
        <time>2023-08-05T15:01:09.000Z</time>
      </trkpt>
      <trkpt lat="49.09882" lon="6.21684">
        <ele>243</ele>
        <time>2023-08-05T15:01:13.000Z</time>
      </trkpt>
      <trkpt lat="49.09902" lon="6.21664">
        <ele>242.80000305176</ele>
        <time>2023-08-05T15:01:17.000Z</time>
      </trkpt>
      <trkpt lat="49.09907" lon="6.21659">
        <ele>242.80000305176</ele>
        <time>2023-08-05T15:01:18.000Z</time>
      </trkpt>
      <trkpt lat="49.09926" lon="6.21639">
        <ele>242.80000305176</ele>
        <time>2023-08-05T15:01:22.000Z</time>
      </trkpt>
      <trkpt lat="49.09964" lon="6.21599">
        <ele>242.39999389648</ele>
        <time>2023-08-05T15:01:30.000Z</time>
      </trkpt>
      <trkpt lat="49.10012" lon="6.21547">
        <ele>242.39999389648</ele>
        <time>2023-08-05T15:01:40.000Z</time>
      </trkpt>
      <trkpt lat="49.10016" lon="6.21542">
        <ele>242.60000610352</ele>
        <time>2023-08-05T15:01:41.000Z</time>
      </trkpt>
      <trkpt lat="49.10059" lon="6.21498">
        <ele>243</ele>
        <time>2023-08-05T15:01:50.000Z</time>
      </trkpt>
      <trkpt lat="49.10106" lon="6.21448">
        <ele>243.19999694824</ele>
        <time>2023-08-05T15:02:00.000Z</time>
      </trkpt>
      <trkpt lat="49.10115" lon="6.21437">
        <ele>243.19999694824</ele>
        <time>2023-08-05T15:02:02.000Z</time>
      </trkpt>
      <trkpt lat="49.10163" lon="6.21387">
        <ele>243.60000610352</ele>
        <time>2023-08-05T15:02:12.000Z</time>
      </trkpt>
      <trkpt lat="49.10192" lon="6.21356">
        <ele>244</ele>
        <time>2023-08-05T15:02:18.000Z</time>
      </trkpt>
      <trkpt lat="49.10216" lon="6.21331">
        <ele>243.80000305176</ele>
        <time>2023-08-05T15:02:23.000Z</time>
      </trkpt>
      <trkpt lat="49.10245" lon="6.21302">
        <ele>243.60000610352</ele>
        <time>2023-08-05T15:02:29.000Z</time>
      </trkpt>
      <trkpt lat="49.10256" lon="6.21294">
        <ele>243.19999694824</ele>
        <time>2023-08-05T15:02:31.000Z</time>
      </trkpt>
      <trkpt lat="49.10276" lon="6.21275">
        <ele>243</ele>
        <time>2023-08-05T15:02:35.000Z</time>
      </trkpt>
      <trkpt lat="49.10288" lon="6.21273">
        <ele>242.80000305176</ele>
        <time>2023-08-05T15:02:37.000Z</time>
      </trkpt>
      <trkpt lat="49.103" lon="6.21278">
        <ele>242.39999389648</ele>
        <time>2023-08-05T15:02:39.000Z</time>
      </trkpt>
      <trkpt lat="49.10313" lon="6.21277">
        <ele>242</ele>
        <time>2023-08-05T15:02:41.000Z</time>
      </trkpt>
      <trkpt lat="49.10324" lon="6.2127">
        <ele>241.80000305176</ele>
        <time>2023-08-05T15:02:43.000Z</time>
      </trkpt>
      <trkpt lat="49.10329" lon="6.21264">
        <ele>241.80000305176</ele>
        <time>2023-08-05T15:02:44.000Z</time>
      </trkpt>
      <trkpt lat="49.10332" lon="6.21256">
        <ele>241.60000610352</ele>
        <time>2023-08-05T15:02:45.000Z</time>
      </trkpt>
      <trkpt lat="49.10336" lon="6.21239">
        <ele>241.39999389648</ele>
        <time>2023-08-05T15:02:47.000Z</time>
      </trkpt>
      <trkpt lat="49.10339" lon="6.21211">
        <ele>241.19999694824</ele>
        <time>2023-08-05T15:02:50.000Z</time>
      </trkpt>
      <trkpt lat="49.10341" lon="6.21203">
        <ele>241.19999694824</ele>
        <time>2023-08-05T15:02:51.000Z</time>
      </trkpt>
      <trkpt lat="49.10344" lon="6.21197">
        <ele>241.19999694824</ele>
        <time>2023-08-05T15:02:52.000Z</time>
      </trkpt>
      <trkpt lat="49.10353" lon="6.21186">
        <ele>241.19999694824</ele>
        <time>2023-08-05T15:02:54.000Z</time>
      </trkpt>
      <trkpt lat="49.10359" lon="6.21182">
        <ele>241.19999694824</ele>
        <time>2023-08-05T15:02:55.000Z</time>
      </trkpt>
      <trkpt lat="49.10369" lon="6.21175">
        <ele>241.19999694824</ele>
        <time>2023-08-05T15:02:57.000Z</time>
      </trkpt>
      <trkpt lat="49.1039" lon="6.21157">
        <ele>241.19999694824</ele>
        <time>2023-08-05T15:03:01.000Z</time>
      </trkpt>
      <trkpt lat="49.10428" lon="6.21121">
        <ele>241.19999694824</ele>
        <time>2023-08-05T15:03:09.000Z</time>
      </trkpt>
      <trkpt lat="49.10462" lon="6.21087">
        <ele>242.39999389648</ele>
        <time>2023-08-05T15:03:17.000Z</time>
      </trkpt>
      <trkpt lat="49.10491" lon="6.21058">
        <ele>243</ele>
        <time>2023-08-05T15:03:24.000Z</time>
      </trkpt>
      <trkpt lat="49.10507" lon="6.21039">
        <ele>243.60000610352</ele>
        <time>2023-08-05T15:03:28.000Z</time>
      </trkpt>
      <trkpt lat="49.10527" lon="6.21009">
        <ele>243.80000305176</ele>
        <time>2023-08-05T15:03:35.000Z</time>
      </trkpt>
      <trkpt lat="49.10535" lon="6.20997">
        <ele>243.80000305176</ele>
        <time>2023-08-05T15:03:41.000Z</time>
      </trkpt>
      <trkpt lat="49.10536" lon="6.20995">
        <ele>243.80000305176</ele>
        <time>2023-08-05T15:03:44.000Z</time>
      </trkpt>
      <trkpt lat="49.10539" lon="6.20991">
        <ele>243.39999389648</ele>
        <time>2023-08-05T15:04:06.000Z</time>
      </trkpt>
      <trkpt lat="49.10541" lon="6.20987">
        <ele>243.60000610352</ele>
        <time>2023-08-05T15:04:07.000Z</time>
      </trkpt>
      <trkpt lat="49.10554" lon="6.2096">
        <ele>243.80000305176</ele>
        <time>2023-08-05T15:04:12.000Z</time>
      </trkpt>
      <trkpt lat="49.10559" lon="6.2095">
        <ele>243.80000305176</ele>
        <time>2023-08-05T15:04:14.000Z</time>
      </trkpt>
      <trkpt lat="49.10564" lon="6.20944">
        <ele>244</ele>
        <time>2023-08-05T15:04:16.000Z</time>
      </trkpt>
      <trkpt lat="49.10566" lon="6.2094">
        <ele>244</ele>
        <time>2023-08-05T15:04:17.000Z</time>
      </trkpt>
      <trkpt lat="49.10569" lon="6.20935">
        <ele>244</ele>
        <time>2023-08-05T15:04:18.000Z</time>
      </trkpt>
      <trkpt lat="49.10577" lon="6.20918">
        <ele>243.80000305176</ele>
        <time>2023-08-05T15:04:21.000Z</time>
      </trkpt>
      <trkpt lat="49.10579" lon="6.20912">
        <ele>243.80000305176</ele>
        <time>2023-08-05T15:04:22.000Z</time>
      </trkpt>
      <trkpt lat="49.10585" lon="6.209">
        <ele>243.80000305176</ele>
        <time>2023-08-05T15:04:24.000Z</time>
      </trkpt>
      <trkpt lat="49.10591" lon="6.20892">
        <ele>243.80000305176</ele>
        <time>2023-08-05T15:04:26.000Z</time>
      </trkpt>
      <trkpt lat="49.10598" lon="6.20878">
        <ele>244</ele>
        <time>2023-08-05T15:04:29.000Z</time>
      </trkpt>
      <trkpt lat="49.10612" lon="6.20856">
        <ele>244</ele>
        <time>2023-08-05T15:04:33.000Z</time>
      </trkpt>
      <trkpt lat="49.10637" lon="6.20814">
        <ele>244</ele>
        <time>2023-08-05T15:04:40.000Z</time>
      </trkpt>
      <trkpt lat="49.10653" lon="6.20801">
        <ele>243.80000305176</ele>
        <time>2023-08-05T15:04:44.000Z</time>
      </trkpt>
      <trkpt lat="49.10662" lon="6.20785">
        <ele>243.60000610352</ele>
        <time>2023-08-05T15:04:48.000Z</time>
      </trkpt>
      <trkpt lat="49.10676" lon="6.20764">
        <ele>243.39999389648</ele>
        <time>2023-08-05T15:04:54.000Z</time>
      </trkpt>
      <trkpt lat="49.10683" lon="6.20756">
        <ele>243.39999389648</ele>
        <time>2023-08-05T15:04:56.000Z</time>
      </trkpt>
      <trkpt lat="49.10686" lon="6.20752">
        <ele>243.39999389648</ele>
        <time>2023-08-05T15:04:58.000Z</time>
      </trkpt>
      <trkpt lat="49.10703" lon="6.20726">
        <ele>243.60000610352</ele>
        <time>2023-08-05T15:05:04.000Z</time>
      </trkpt>
      <trkpt lat="49.10723" lon="6.207">
        <ele>244</ele>
        <time>2023-08-05T15:05:10.000Z</time>
      </trkpt>
      <trkpt lat="49.10726" lon="6.20696">
        <ele>244.19999694824</ele>
        <time>2023-08-05T15:05:11.000Z</time>
      </trkpt>
      <trkpt lat="49.10752" lon="6.20661">
        <ele>245.19999694824</ele>
        <time>2023-08-05T15:05:18.000Z</time>
      </trkpt>
      <trkpt lat="49.10763" lon="6.20645">
        <ele>245.19999694824</ele>
        <time>2023-08-05T15:05:21.000Z</time>
      </trkpt>
      <trkpt lat="49.10779" lon="6.2062">
        <ele>245.19999694824</ele>
        <time>2023-08-05T15:05:26.000Z</time>
      </trkpt>
      <trkpt lat="49.10801" lon="6.20596">
        <ele>245.19999694824</ele>
        <time>2023-08-05T15:05:31.000Z</time>
      </trkpt>
      <trkpt lat="49.10812" lon="6.20583">
        <ele>245.19999694824</ele>
        <time>2023-08-05T15:05:34.000Z</time>
      </trkpt>
      <trkpt lat="49.1083" lon="6.20566">
        <ele>244.80000305176</ele>
        <time>2023-08-05T15:05:40.000Z</time>
      </trkpt>
      <trkpt lat="49.10842" lon="6.20574">
        <ele>244.19999694824</ele>
        <time>2023-08-05T15:05:44.000Z</time>
      </trkpt>
      <trkpt lat="49.10844" lon="6.20575">
        <ele>244</ele>
        <time>2023-08-05T15:05:45.000Z</time>
      </trkpt>
      <trkpt lat="49.10845" lon="6.20575">
        <ele>243.60000610352</ele>
        <time>2023-08-05T15:05:48.000Z</time>
      </trkpt>
      <trkpt lat="49.10845" lon="6.20575">
        <ele>243.19999694824</ele>
        <time>2023-08-05T15:05:49.000Z</time>
      </trkpt>
      <trkpt lat="49.10847" lon="6.20574">
        <ele>242.60000610352</ele>
        <time>2023-08-05T15:06:31.000Z</time>
      </trkpt>
      <trkpt lat="49.10849" lon="6.20572">
        <ele>242.60000610352</ele>
        <time>2023-08-05T15:06:33.000Z</time>
      </trkpt>
      <trkpt lat="49.10859" lon="6.20557">
        <ele>242.60000610352</ele>
        <time>2023-08-05T15:06:38.000Z</time>
      </trkpt>
      <trkpt lat="49.10859" lon="6.20552">
        <ele>242.60000610352</ele>
        <time>2023-08-05T15:06:39.000Z</time>
      </trkpt>
      <trkpt lat="49.10863" lon="6.20541">
        <ele>242.60000610352</ele>
        <time>2023-08-05T15:06:42.000Z</time>
      </trkpt>
      <trkpt lat="49.10867" lon="6.20536">
        <ele>242.60000610352</ele>
        <time>2023-08-05T15:06:44.000Z</time>
      </trkpt>
      <trkpt lat="49.10869" lon="6.20532">
        <ele>242.80000305176</ele>
        <time>2023-08-05T15:06:48.000Z</time>
      </trkpt>
      <trkpt lat="49.1087" lon="6.20524">
        <ele>242.80000305176</ele>
        <time>2023-08-05T15:06:51.000Z</time>
      </trkpt>
      <trkpt lat="49.10877" lon="6.20516">
        <ele>242.80000305176</ele>
        <time>2023-08-05T15:06:54.000Z</time>
      </trkpt>
      <trkpt lat="49.10894" lon="6.20493">
        <ele>242.60000610352</ele>
        <time>2023-08-05T15:06:59.000Z</time>
      </trkpt>
      <trkpt lat="49.10915" lon="6.20464">
        <ele>242.60000610352</ele>
        <time>2023-08-05T15:07:04.000Z</time>
      </trkpt>
      <trkpt lat="49.10943" lon="6.20422">
        <ele>241.60000610352</ele>
        <time>2023-08-05T15:07:10.000Z</time>
      </trkpt>
      <trkpt lat="49.10971" lon="6.20383">
        <ele>240.39999389648</ele>
        <time>2023-08-05T15:07:15.000Z</time>
      </trkpt>
      <trkpt lat="49.10981" lon="6.20367">
        <ele>240</ele>
        <time>2023-08-05T15:07:17.000Z</time>
      </trkpt>
      <trkpt lat="49.11002" lon="6.20337">
        <ele>239.39999389648</ele>
        <time>2023-08-05T15:07:21.000Z</time>
      </trkpt>
      <trkpt lat="49.11025" lon="6.20299">
        <ele>238.60000610352</ele>
        <time>2023-08-05T15:07:26.000Z</time>
      </trkpt>
      <trkpt lat="49.11058" lon="6.20251">
        <ele>238.19999694824</ele>
        <time>2023-08-05T15:07:33.000Z</time>
      </trkpt>
      <trkpt lat="49.11063" lon="6.20245">
        <ele>238.19999694824</ele>
        <time>2023-08-05T15:07:34.000Z</time>
      </trkpt>
      <trkpt lat="49.11093" lon="6.20207">
        <ele>237.39999389648</ele>
        <time>2023-08-05T15:07:40.000Z</time>
      </trkpt>
      <trkpt lat="49.11103" lon="6.20194">
        <ele>237.19999694824</ele>
        <time>2023-08-05T15:07:42.000Z</time>
      </trkpt>
      <trkpt lat="49.11136" lon="6.20156">
        <ele>236.60000610352</ele>
        <time>2023-08-05T15:07:48.000Z</time>
      </trkpt>
      <trkpt lat="49.11157" lon="6.20134">
        <ele>236</ele>
        <time>2023-08-05T15:07:52.000Z</time>
      </trkpt>
      <trkpt lat="49.11171" lon="6.20119">
        <ele>235.60000610352</ele>
        <time>2023-08-05T15:07:55.000Z</time>
      </trkpt>
      <trkpt lat="49.11183" lon="6.20105">
        <ele>235</ele>
        <time>2023-08-05T15:07:58.000Z</time>
      </trkpt>
      <trkpt lat="49.1119" lon="6.20094">
        <ele>234.39999389648</ele>
        <time>2023-08-05T15:08:00.000Z</time>
      </trkpt>
      <trkpt lat="49.11192" lon="6.2009">
        <ele>234</ele>
        <time>2023-08-05T15:08:01.000Z</time>
      </trkpt>
      <trkpt lat="49.11197" lon="6.20079">
        <ele>233.19999694824</ele>
        <time>2023-08-05T15:08:03.000Z</time>
      </trkpt>
      <trkpt lat="49.11202" lon="6.20068">
        <ele>232.60000610352</ele>
        <time>2023-08-05T15:08:05.000Z</time>
      </trkpt>
      <trkpt lat="49.11216" lon="6.2003">
        <ele>231.60000610352</ele>
        <time>2023-08-05T15:08:10.000Z</time>
      </trkpt>
      <trkpt lat="49.11219" lon="6.20021">
        <ele>231.39999389648</ele>
        <time>2023-08-05T15:08:11.000Z</time>
      </trkpt>
      <trkpt lat="49.11229" lon="6.19995">
        <ele>230.39999389648</ele>
        <time>2023-08-05T15:08:14.000Z</time>
      </trkpt>
      <trkpt lat="49.11238" lon="6.19977">
        <ele>229.39999389648</ele>
        <time>2023-08-05T15:08:16.000Z</time>
      </trkpt>
      <trkpt lat="49.11242" lon="6.19968">
        <ele>229</ele>
        <time>2023-08-05T15:08:17.000Z</time>
      </trkpt>
      <trkpt lat="49.11246" lon="6.1996">
        <ele>228.39999389648</ele>
        <time>2023-08-05T15:08:18.000Z</time>
      </trkpt>
      <trkpt lat="49.11254" lon="6.19942">
        <ele>227.19999694824</ele>
        <time>2023-08-05T15:08:20.000Z</time>
      </trkpt>
      <trkpt lat="49.11267" lon="6.19913">
        <ele>226.19999694824</ele>
        <time>2023-08-05T15:08:23.000Z</time>
      </trkpt>
      <trkpt lat="49.11276" lon="6.19895">
        <ele>225.19999694824</ele>
        <time>2023-08-05T15:08:25.000Z</time>
      </trkpt>
      <trkpt lat="49.11283" lon="6.19875">
        <ele>224.19999694824</ele>
        <time>2023-08-05T15:08:27.000Z</time>
      </trkpt>
      <trkpt lat="49.11283" lon="6.19875">
        <ele>224</ele>
        <time>2023-08-05T15:08:28.000Z</time>
      </trkpt>
      <trkpt lat="49.11287" lon="6.19856">
        <ele>223.19999694824</ele>
        <time>2023-08-05T15:08:30.000Z</time>
      </trkpt>
      <trkpt lat="49.11287" lon="6.19823">
        <ele>222.80000305176</ele>
        <time>2023-08-05T15:08:32.000Z</time>
      </trkpt>
      <trkpt lat="49.11286" lon="6.1981">
        <ele>222.80000305176</ele>
        <time>2023-08-05T15:08:33.000Z</time>
      </trkpt>
      <trkpt lat="49.11281" lon="6.19783">
        <ele>222</ele>
        <time>2023-08-05T15:08:36.000Z</time>
      </trkpt>
      <trkpt lat="49.11279" lon="6.19775">
        <ele>221.60000610352</ele>
        <time>2023-08-05T15:08:37.000Z</time>
      </trkpt>
      <trkpt lat="49.11271" lon="6.19741">
        <ele>221</ele>
        <time>2023-08-05T15:08:42.000Z</time>
      </trkpt>
      <trkpt lat="49.11269" lon="6.19735">
        <ele>221</ele>
        <time>2023-08-05T15:08:43.000Z</time>
      </trkpt>
      <trkpt lat="49.11264" lon="6.19714">
        <ele>220.60000610352</ele>
        <time>2023-08-05T15:08:46.000Z</time>
      </trkpt>
      <trkpt lat="49.11263" lon="6.19706">
        <ele>220.60000610352</ele>
        <time>2023-08-05T15:08:47.000Z</time>
      </trkpt>
      <trkpt lat="49.11262" lon="6.19699">
        <ele>220.39999389648</ele>
        <time>2023-08-05T15:08:48.000Z</time>
      </trkpt>
      <trkpt lat="49.11259" lon="6.19685">
        <ele>220.19999694824</ele>
        <time>2023-08-05T15:08:50.000Z</time>
      </trkpt>
      <trkpt lat="49.11257" lon="6.19678">
        <ele>220.19999694824</ele>
        <time>2023-08-05T15:08:51.000Z</time>
      </trkpt>
      <trkpt lat="49.11256" lon="6.19671">
        <ele>220.19999694824</ele>
        <time>2023-08-05T15:08:52.000Z</time>
      </trkpt>
      <trkpt lat="49.1125" lon="6.19641">
        <ele>220</ele>
        <time>2023-08-05T15:08:56.000Z</time>
      </trkpt>
      <trkpt lat="49.11245" lon="6.19628">
        <ele>219.80000305176</ele>
        <time>2023-08-05T15:08:58.000Z</time>
      </trkpt>
      <trkpt lat="49.11242" lon="6.19616">
        <ele>219.80000305176</ele>
        <time>2023-08-05T15:09:00.000Z</time>
      </trkpt>
      <trkpt lat="49.1124" lon="6.19613">
        <ele>219.60000610352</ele>
        <time>2023-08-05T15:09:01.000Z</time>
      </trkpt>
      <trkpt lat="49.11239" lon="6.1961">
        <ele>219.60000610352</ele>
        <time>2023-08-05T15:09:03.000Z</time>
      </trkpt>
      <trkpt lat="49.11236" lon="6.19605">
        <ele>219.60000610352</ele>
        <time>2023-08-05T15:09:05.000Z</time>
      </trkpt>
      <trkpt lat="49.11229" lon="6.19589">
        <ele>219.39999389648</ele>
        <time>2023-08-05T15:09:09.000Z</time>
      </trkpt>
      <trkpt lat="49.11226" lon="6.19583">
        <ele>219.39999389648</ele>
        <time>2023-08-05T15:09:10.000Z</time>
      </trkpt>
      <trkpt lat="49.11216" lon="6.19556">
        <ele>219.39999389648</ele>
        <time>2023-08-05T15:09:16.000Z</time>
      </trkpt>
      <trkpt lat="49.1121" lon="6.1953">
        <ele>219</ele>
        <time>2023-08-05T15:09:22.000Z</time>
      </trkpt>
      <trkpt lat="49.11206" lon="6.19483">
        <ele>219</ele>
        <time>2023-08-05T15:09:29.000Z</time>
      </trkpt>
      <trkpt lat="49.11206" lon="6.19461">
        <ele>219.19999694824</ele>
        <time>2023-08-05T15:09:32.000Z</time>
      </trkpt>
      <trkpt lat="49.11204" lon="6.19447">
        <ele>219.19999694824</ele>
        <time>2023-08-05T15:09:34.000Z</time>
      </trkpt>
      <trkpt lat="49.11203" lon="6.1944">
        <ele>219.19999694824</ele>
        <time>2023-08-05T15:09:35.000Z</time>
      </trkpt>
      <trkpt lat="49.11202" lon="6.19433">
        <ele>219.19999694824</ele>
        <time>2023-08-05T15:09:36.000Z</time>
      </trkpt>
      <trkpt lat="49.11199" lon="6.1942">
        <ele>219.19999694824</ele>
        <time>2023-08-05T15:09:38.000Z</time>
      </trkpt>
      <trkpt lat="49.11196" lon="6.19406">
        <ele>219.19999694824</ele>
        <time>2023-08-05T15:09:40.000Z</time>
      </trkpt>
      <trkpt lat="49.11192" lon="6.19351">
        <ele>218.80000305176</ele>
        <time>2023-08-05T15:09:47.000Z</time>
      </trkpt>
      <trkpt lat="49.11193" lon="6.19316">
        <ele>218.19999694824</ele>
        <time>2023-08-05T15:09:51.000Z</time>
      </trkpt>
      <trkpt lat="49.1119" lon="6.19298">
        <ele>218</ele>
        <time>2023-08-05T15:09:54.000Z</time>
      </trkpt>
      <trkpt lat="49.11178" lon="6.19211">
        <ele>217.39999389648</ele>
        <time>2023-08-05T15:10:04.000Z</time>
      </trkpt>
      <trkpt lat="49.11175" lon="6.19193">
        <ele>217.39999389648</ele>
        <time>2023-08-05T15:10:06.000Z</time>
      </trkpt>
      <trkpt lat="49.11174" lon="6.19184">
        <ele>217.19999694824</ele>
        <time>2023-08-05T15:10:07.000Z</time>
      </trkpt>
      <trkpt lat="49.11165" lon="6.19124">
        <ele>216.19999694824</ele>
        <time>2023-08-05T15:10:14.000Z</time>
      </trkpt>
      <trkpt lat="49.11161" lon="6.1908">
        <ele>215.39999389648</ele>
        <time>2023-08-05T15:10:19.000Z</time>
      </trkpt>
      <trkpt lat="49.11161" lon="6.19069">
        <ele>215</ele>
        <time>2023-08-05T15:10:20.000Z</time>
      </trkpt>
      <trkpt lat="49.11161" lon="6.19061">
        <ele>214.80000305176</ele>
        <time>2023-08-05T15:10:21.000Z</time>
      </trkpt>
      <trkpt lat="49.11162" lon="6.19052">
        <ele>214.60000610352</ele>
        <time>2023-08-05T15:10:22.000Z</time>
      </trkpt>
      <trkpt lat="49.11169" lon="6.19012">
        <ele>214</ele>
        <time>2023-08-05T15:10:26.000Z</time>
      </trkpt>
      <trkpt lat="49.1117" lon="6.19002">
        <ele>213.80000305176</ele>
        <time>2023-08-05T15:10:27.000Z</time>
      </trkpt>
      <trkpt lat="49.11181" lon="6.18919">
        <ele>213</ele>
        <time>2023-08-05T15:10:34.000Z</time>
      </trkpt>
      <trkpt lat="49.11182" lon="6.189">
        <ele>212.80000305176</ele>
        <time>2023-08-05T15:10:36.000Z</time>
      </trkpt>
      <trkpt lat="49.11181" lon="6.18865">
        <ele>212.19999694824</ele>
        <time>2023-08-05T15:10:40.000Z</time>
      </trkpt>
      <trkpt lat="49.11178" lon="6.18814">
        <ele>211.80000305176</ele>
        <time>2023-08-05T15:10:47.000Z</time>
      </trkpt>
      <trkpt lat="49.11178" lon="6.18759">
        <ele>211.39999389648</ele>
        <time>2023-08-05T15:10:53.000Z</time>
      </trkpt>
      <trkpt lat="49.1118" lon="6.18742">
        <ele>211.19999694824</ele>
        <time>2023-08-05T15:10:55.000Z</time>
      </trkpt>
      <trkpt lat="49.11182" lon="6.18727">
        <ele>211.19999694824</ele>
        <time>2023-08-05T15:10:57.000Z</time>
      </trkpt>
      <trkpt lat="49.1119" lon="6.18688">
        <ele>211.19999694824</ele>
        <time>2023-08-05T15:11:02.000Z</time>
      </trkpt>
      <trkpt lat="49.11194" lon="6.18659">
        <ele>211.39999389648</ele>
        <time>2023-08-05T15:11:06.000Z</time>
      </trkpt>
      <trkpt lat="49.11195" lon="6.18644">
        <ele>211.60000610352</ele>
        <time>2023-08-05T15:11:08.000Z</time>
      </trkpt>
      <trkpt lat="49.11199" lon="6.18608">
        <ele>212</ele>
        <time>2023-08-05T15:11:14.000Z</time>
      </trkpt>
      <trkpt lat="49.11205" lon="6.18577">
        <ele>212.19999694824</ele>
        <time>2023-08-05T15:11:19.000Z</time>
      </trkpt>
      <trkpt lat="49.11212" lon="6.18548">
        <ele>212.39999389648</ele>
        <time>2023-08-05T15:11:23.000Z</time>
      </trkpt>
      <trkpt lat="49.11216" lon="6.18542">
        <ele>212.39999389648</ele>
        <time>2023-08-05T15:11:25.000Z</time>
      </trkpt>
      <trkpt lat="49.11223" lon="6.18533">
        <ele>212.39999389648</ele>
        <time>2023-08-05T15:11:28.000Z</time>
      </trkpt>
      <trkpt lat="49.11232" lon="6.18533">
        <ele>212.39999389648</ele>
        <time>2023-08-05T15:11:33.000Z</time>
      </trkpt>
      <trkpt lat="49.11245" lon="6.1853">
        <ele>212.19999694824</ele>
        <time>2023-08-05T15:11:39.000Z</time>
      </trkpt>
      <trkpt lat="49.1125" lon="6.18528">
        <ele>212.19999694824</ele>
        <time>2023-08-05T15:11:40.000Z</time>
      </trkpt>
      <trkpt lat="49.11255" lon="6.18522">
        <ele>212.19999694824</ele>
        <time>2023-08-05T15:11:43.000Z</time>
      </trkpt>
      <trkpt lat="49.1126" lon="6.18508">
        <ele>212.19999694824</ele>
        <time>2023-08-05T15:11:46.000Z</time>
      </trkpt>
      <trkpt lat="49.11262" lon="6.185">
        <ele>212.19999694824</ele>
        <time>2023-08-05T15:11:47.000Z</time>
      </trkpt>
      <trkpt lat="49.11265" lon="6.18484">
        <ele>212.19999694824</ele>
        <time>2023-08-05T15:11:49.000Z</time>
      </trkpt>
      <trkpt lat="49.11268" lon="6.18471">
        <ele>212.19999694824</ele>
        <time>2023-08-05T15:11:51.000Z</time>
      </trkpt>
      <trkpt lat="49.11298" lon="6.18414">
        <ele>212.19999694824</ele>
        <time>2023-08-05T15:11:56.000Z</time>
      </trkpt>
      <trkpt lat="49.1131" lon="6.18413">
        <ele>212.19999694824</ele>
        <time>2023-08-05T15:11:58.000Z</time>
      </trkpt>
      <trkpt lat="49.11322" lon="6.18394">
        <ele>212</ele>
        <time>2023-08-05T15:12:04.000Z</time>
      </trkpt>
      <trkpt lat="49.11323" lon="6.18392">
        <ele>212</ele>
        <time>2023-08-05T15:12:07.000Z</time>
      </trkpt>
      <trkpt lat="49.11323" lon="6.18392">
        <ele>212</ele>
        <time>2023-08-05T15:12:08.000Z</time>
      </trkpt>
      <trkpt lat="49.11325" lon="6.18389">
        <ele>212.19999694824</ele>
        <time>2023-08-05T15:13:13.000Z</time>
      </trkpt>
      <trkpt lat="49.11329" lon="6.18382">
        <ele>212.39999389648</ele>
        <time>2023-08-05T15:13:15.000Z</time>
      </trkpt>
      <trkpt lat="49.11337" lon="6.18371">
        <ele>212.39999389648</ele>
        <time>2023-08-05T15:13:17.000Z</time>
      </trkpt>
      <trkpt lat="49.11341" lon="6.18366">
        <ele>212.39999389648</ele>
        <time>2023-08-05T15:13:19.000Z</time>
      </trkpt>
      <trkpt lat="49.11353" lon="6.18347">
        <ele>212.60000610352</ele>
        <time>2023-08-05T15:13:21.000Z</time>
      </trkpt>
      <trkpt lat="49.11361" lon="6.18332">
        <ele>212.60000610352</ele>
        <time>2023-08-05T15:13:24.000Z</time>
      </trkpt>
      <trkpt lat="49.11373" lon="6.18312">
        <ele>212.60000610352</ele>
        <time>2023-08-05T15:13:26.000Z</time>
      </trkpt>
      <trkpt lat="49.11389" lon="6.18293">
        <ele>212.60000610352</ele>
        <time>2023-08-05T15:13:29.000Z</time>
      </trkpt>
      <trkpt lat="49.11395" lon="6.18288">
        <ele>212.60000610352</ele>
        <time>2023-08-05T15:13:30.000Z</time>
      </trkpt>
      <trkpt lat="49.11422" lon="6.18266">
        <ele>212.39999389648</ele>
        <time>2023-08-05T15:13:35.000Z</time>
      </trkpt>
      <trkpt lat="49.11447" lon="6.18242">
        <ele>211.80000305176</ele>
        <time>2023-08-05T15:13:40.000Z</time>
      </trkpt>
      <trkpt lat="49.1145" lon="6.1824">
        <ele>211.80000305176</ele>
        <time>2023-08-05T15:13:41.000Z</time>
      </trkpt>
      <trkpt lat="49.11461" lon="6.1823">
        <ele>211.60000610352</ele>
        <time>2023-08-05T15:13:46.000Z</time>
      </trkpt>
      <trkpt lat="49.1147" lon="6.18224">
        <ele>211.39999389648</ele>
        <time>2023-08-05T15:13:50.000Z</time>
      </trkpt>
      <trkpt lat="49.11488" lon="6.18215">
        <ele>211.39999389648</ele>
        <time>2023-08-05T15:13:55.000Z</time>
      </trkpt>
      <trkpt lat="49.11528" lon="6.18194">
        <ele>211.80000305176</ele>
        <time>2023-08-05T15:14:04.000Z</time>
      </trkpt>
      <trkpt lat="49.11542" lon="6.18185">
        <ele>211.80000305176</ele>
        <time>2023-08-05T15:14:07.000Z</time>
      </trkpt>
      <trkpt lat="49.1155" lon="6.18177">
        <ele>212</ele>
        <time>2023-08-05T15:14:09.000Z</time>
      </trkpt>
      <trkpt lat="49.11559" lon="6.18164">
        <ele>212</ele>
        <time>2023-08-05T15:14:11.000Z</time>
      </trkpt>
      <trkpt lat="49.11581" lon="6.18141">
        <ele>212.19999694824</ele>
        <time>2023-08-05T15:14:16.000Z</time>
      </trkpt>
      <trkpt lat="49.11589" lon="6.18134">
        <ele>212.19999694824</ele>
        <time>2023-08-05T15:14:19.000Z</time>
      </trkpt>
      <trkpt lat="49.11606" lon="6.18116">
        <ele>212.19999694824</ele>
        <time>2023-08-05T15:14:22.000Z</time>
      </trkpt>
      <trkpt lat="49.11617" lon="6.18104">
        <ele>212</ele>
        <time>2023-08-05T15:14:25.000Z</time>
      </trkpt>
      <trkpt lat="49.11633" lon="6.18084">
        <ele>212</ele>
        <time>2023-08-05T15:14:29.000Z</time>
      </trkpt>
      <trkpt lat="49.11651" lon="6.18062">
        <ele>211.60000610352</ele>
        <time>2023-08-05T15:14:34.000Z</time>
      </trkpt>
      <trkpt lat="49.11655" lon="6.18057">
        <ele>211.60000610352</ele>
        <time>2023-08-05T15:14:35.000Z</time>
      </trkpt>
      <trkpt lat="49.11664" lon="6.18047">
        <ele>211.60000610352</ele>
        <time>2023-08-05T15:14:38.000Z</time>
      </trkpt>
      <trkpt lat="49.11672" lon="6.18037">
        <ele>211.60000610352</ele>
        <time>2023-08-05T15:14:41.000Z</time>
      </trkpt>
      <trkpt lat="49.11678" lon="6.1803">
        <ele>211.80000305176</ele>
        <time>2023-08-05T15:14:46.000Z</time>
      </trkpt>
      <trkpt lat="49.11681" lon="6.18019">
        <ele>212.19999694824</ele>
        <time>2023-08-05T15:15:31.000Z</time>
      </trkpt>
      <trkpt lat="49.11681" lon="6.18009">
        <ele>212.19999694824</ele>
        <time>2023-08-05T15:15:33.000Z</time>
      </trkpt>
      <trkpt lat="49.11679" lon="6.18003">
        <ele>212.19999694824</ele>
        <time>2023-08-05T15:15:35.000Z</time>
      </trkpt>
      <trkpt lat="49.11678" lon="6.18001">
        <ele>212.19999694824</ele>
        <time>2023-08-05T15:15:36.000Z</time>
      </trkpt>
      <trkpt lat="49.11668" lon="6.17987">
        <ele>212.19999694824</ele>
        <time>2023-08-05T15:15:42.000Z</time>
      </trkpt>
      <trkpt lat="49.11668" lon="6.17979">
        <ele>212.19999694824</ele>
        <time>2023-08-05T15:15:44.000Z</time>
      </trkpt>
      <trkpt lat="49.11668" lon="6.17966">
        <ele>212</ele>
        <time>2023-08-05T15:15:47.000Z</time>
      </trkpt>
      <trkpt lat="49.11669" lon="6.17937">
        <ele>212.19999694824</ele>
        <time>2023-08-05T15:15:53.000Z</time>
      </trkpt>
      <trkpt lat="49.11669" lon="6.17921">
        <ele>212.39999389648</ele>
        <time>2023-08-05T15:15:58.000Z</time>
      </trkpt>
      <trkpt lat="49.11669" lon="6.17916">
        <ele>212.19999694824</ele>
        <time>2023-08-05T15:16:00.000Z</time>
      </trkpt>
      <trkpt lat="49.11669" lon="6.17913">
        <ele>212.19999694824</ele>
        <time>2023-08-05T15:16:03.000Z</time>
      </trkpt>
      <trkpt lat="49.11669" lon="6.17912">
        <ele>212.19999694824</ele>
        <time>2023-08-05T15:16:05.000Z</time>
      </trkpt>
      <trkpt lat="49.1167" lon="6.17907">
        <ele>213.19999694824</ele>
        <time>2023-08-05T15:34:28.000Z</time>
      </trkpt>
      <trkpt lat="49.11671" lon="6.1791">
        <ele>213.19999694824</ele>
        <time>2023-08-05T15:34:29.000Z</time>
      </trkpt>
      <trkpt lat="49.11672" lon="6.17939">
        <ele>213.19999694824</ele>
        <time>2023-08-05T15:34:36.000Z</time>
      </trkpt>
      <trkpt lat="49.11672" lon="6.17978">
        <ele>212.60000610352</ele>
        <time>2023-08-05T15:34:45.000Z</time>
      </trkpt>
      <trkpt lat="49.11673" lon="6.17982">
        <ele>212.60000610352</ele>
        <time>2023-08-05T15:34:46.000Z</time>
      </trkpt>
      <trkpt lat="49.11676" lon="6.17991">
        <ele>212.80000305176</ele>
        <time>2023-08-05T15:34:49.000Z</time>
      </trkpt>
      <trkpt lat="49.11679" lon="6.17996">
        <ele>212.39999389648</ele>
        <time>2023-08-05T15:34:52.000Z</time>
      </trkpt>
      <trkpt lat="49.11679" lon="6.17996">
        <ele>212.39999389648</ele>
        <time>2023-08-05T15:34:53.000Z</time>
      </trkpt>
      <trkpt lat="49.11679" lon="6.17996">
        <ele>212.39999389648</ele>
        <time>2023-08-05T15:34:54.000Z</time>
      </trkpt>
      <trkpt lat="49.11682" lon="6.17998">
        <ele>212.60000610352</ele>
        <time>2023-08-05T15:35:23.000Z</time>
      </trkpt>
      <trkpt lat="49.11687" lon="6.17999">
        <ele>212.80000305176</ele>
        <time>2023-08-05T15:35:25.000Z</time>
      </trkpt>
      <trkpt lat="49.11705" lon="6.17993">
        <ele>213</ele>
        <time>2023-08-05T15:35:30.000Z</time>
      </trkpt>
      <trkpt lat="49.11708" lon="6.1799">
        <ele>213</ele>
        <time>2023-08-05T15:35:31.000Z</time>
      </trkpt>
      <trkpt lat="49.11714" lon="6.17986">
        <ele>213</ele>
        <time>2023-08-05T15:35:33.000Z</time>
      </trkpt>
      <trkpt lat="49.1174" lon="6.17971">
        <ele>212.80000305176</ele>
        <time>2023-08-05T15:35:39.000Z</time>
      </trkpt>
      <trkpt lat="49.11754" lon="6.17961">
        <ele>212.60000610352</ele>
        <time>2023-08-05T15:35:44.000Z</time>
      </trkpt>
      <trkpt lat="49.11758" lon="6.17956">
        <ele>212.80000305176</ele>
        <time>2023-08-05T15:35:50.000Z</time>
      </trkpt>
      <trkpt lat="49.11762" lon="6.17954">
        <ele>213</ele>
        <time>2023-08-05T15:36:31.000Z</time>
      </trkpt>
      <trkpt lat="49.11767" lon="6.17951">
        <ele>213.19999694824</ele>
        <time>2023-08-05T15:36:33.000Z</time>
      </trkpt>
      <trkpt lat="49.11774" lon="6.17936">
        <ele>213.39999389648</ele>
        <time>2023-08-05T15:36:38.000Z</time>
      </trkpt>
      <trkpt lat="49.11778" lon="6.17911">
        <ele>213.60000610352</ele>
        <time>2023-08-05T15:36:42.000Z</time>
      </trkpt>
      <trkpt lat="49.11784" lon="6.1789">
        <ele>214</ele>
        <time>2023-08-05T15:36:47.000Z</time>
      </trkpt>
      <trkpt lat="49.11789" lon="6.1788">
        <ele>214.19999694824</ele>
        <time>2023-08-05T15:36:50.000Z</time>
      </trkpt>
      <trkpt lat="49.11791" lon="6.17877">
        <ele>214.19999694824</ele>
        <time>2023-08-05T15:36:51.000Z</time>
      </trkpt>
      <trkpt lat="49.11795" lon="6.17867">
        <ele>214.60000610352</ele>
        <time>2023-08-05T15:36:54.000Z</time>
      </trkpt>
      <trkpt lat="49.11798" lon="6.17862">
        <ele>215</ele>
        <time>2023-08-05T15:36:56.000Z</time>
      </trkpt>
      <trkpt lat="49.11804" lon="6.17852">
        <ele>215.19999694824</ele>
        <time>2023-08-05T15:36:59.000Z</time>
      </trkpt>
      <trkpt lat="49.11806" lon="6.1785">
        <ele>215.39999389648</ele>
        <time>2023-08-05T15:37:00.000Z</time>
      </trkpt>
      <trkpt lat="49.11817" lon="6.17835">
        <ele>216.39999389648</ele>
        <time>2023-08-05T15:37:05.000Z</time>
      </trkpt>
      <trkpt lat="49.11823" lon="6.17822">
        <ele>216.80000305176</ele>
        <time>2023-08-05T15:37:09.000Z</time>
      </trkpt>
      <trkpt lat="49.11824" lon="6.17817">
        <ele>217</ele>
        <time>2023-08-05T15:37:10.000Z</time>
      </trkpt>
      <trkpt lat="49.11827" lon="6.1781">
        <ele>217.39999389648</ele>
        <time>2023-08-05T15:37:12.000Z</time>
      </trkpt>
      <trkpt lat="49.1183" lon="6.17799">
        <ele>217.80000305176</ele>
        <time>2023-08-05T15:37:15.000Z</time>
      </trkpt>
      <trkpt lat="49.11835" lon="6.17785">
        <ele>218.60000610352</ele>
        <time>2023-08-05T15:37:19.000Z</time>
      </trkpt>
      <trkpt lat="49.11837" lon="6.17778">
        <ele>218.60000610352</ele>
        <time>2023-08-05T15:37:21.000Z</time>
      </trkpt>
      <trkpt lat="49.11843" lon="6.17763">
        <ele>219.39999389648</ele>
        <time>2023-08-05T15:37:25.000Z</time>
      </trkpt>
      <trkpt lat="49.11844" lon="6.1776">
        <ele>219.60000610352</ele>
        <time>2023-08-05T15:37:26.000Z</time>
      </trkpt>
      <trkpt lat="49.11845" lon="6.17757">
        <ele>219.80000305176</ele>
        <time>2023-08-05T15:37:27.000Z</time>
      </trkpt>
      <trkpt lat="49.11852" lon="6.17742">
        <ele>220.80000305176</ele>
        <time>2023-08-05T15:37:31.000Z</time>
      </trkpt>
      <trkpt lat="49.11854" lon="6.17738">
        <ele>220.80000305176</ele>
        <time>2023-08-05T15:37:32.000Z</time>
      </trkpt>
      <trkpt lat="49.11855" lon="6.17735">
        <ele>221</ele>
        <time>2023-08-05T15:37:33.000Z</time>
      </trkpt>
      <trkpt lat="49.11867" lon="6.17717">
        <ele>222</ele>
        <time>2023-08-05T15:37:38.000Z</time>
      </trkpt>
      <trkpt lat="49.11868" lon="6.17714">
        <ele>222</ele>
        <time>2023-08-05T15:37:39.000Z</time>
      </trkpt>
      <trkpt lat="49.11874" lon="6.17706">
        <ele>222.39999389648</ele>
        <time>2023-08-05T15:37:43.000Z</time>
      </trkpt>
      <trkpt lat="49.11877" lon="6.177">
        <ele>223</ele>
        <time>2023-08-05T15:37:45.000Z</time>
      </trkpt>
      <trkpt lat="49.11878" lon="6.17695">
        <ele>223</ele>
        <time>2023-08-05T15:37:46.000Z</time>
      </trkpt>
      <trkpt lat="49.1188" lon="6.17688">
        <ele>223.19999694824</ele>
        <time>2023-08-05T15:37:48.000Z</time>
      </trkpt>
      <trkpt lat="49.11892" lon="6.17669">
        <ele>223.60000610352</ele>
        <time>2023-08-05T15:37:54.000Z</time>
      </trkpt>
      <trkpt lat="49.11894" lon="6.17666">
        <ele>223.60000610352</ele>
        <time>2023-08-05T15:37:55.000Z</time>
      </trkpt>
      <trkpt lat="49.119" lon="6.17636">
        <ele>223.19999694824</ele>
        <time>2023-08-05T15:38:03.000Z</time>
      </trkpt>
      <trkpt lat="49.11906" lon="6.17618">
        <ele>223</ele>
        <time>2023-08-05T15:38:09.000Z</time>
      </trkpt>
      <trkpt lat="49.11918" lon="6.17588">
        <ele>223</ele>
        <time>2023-08-05T15:38:16.000Z</time>
      </trkpt>
      <trkpt lat="49.11922" lon="6.17578">
        <ele>222.80000305176</ele>
        <time>2023-08-05T15:38:19.000Z</time>
      </trkpt>
      <trkpt lat="49.11929" lon="6.17573">
        <ele>222.60000610352</ele>
        <time>2023-08-05T15:38:22.000Z</time>
      </trkpt>
      <trkpt lat="49.11945" lon="6.17557">
        <ele>222</ele>
        <time>2023-08-05T15:38:29.000Z</time>
      </trkpt>
      <trkpt lat="49.11956" lon="6.17535">
        <ele>222.39999389648</ele>
        <time>2023-08-05T15:38:36.000Z</time>
      </trkpt>
      <trkpt lat="49.11966" lon="6.17513">
        <ele>222.19999694824</ele>
        <time>2023-08-05T15:38:42.000Z</time>
      </trkpt>
      <trkpt lat="49.11968" lon="6.17507">
        <ele>221.80000305176</ele>
        <time>2023-08-05T15:38:44.000Z</time>
      </trkpt>
      <trkpt lat="49.1197" lon="6.17505">
        <ele>221.80000305176</ele>
        <time>2023-08-05T15:38:45.000Z</time>
      </trkpt>
      <trkpt lat="49.11971" lon="6.17503">
        <ele>221.60000610352</ele>
        <time>2023-08-05T15:38:46.000Z</time>
      </trkpt>
      <trkpt lat="49.11971" lon="6.17502">
        <ele>221.19999694824</ele>
        <time>2023-08-05T15:38:49.000Z</time>
      </trkpt>
      <trkpt lat="49.11971" lon="6.17502">
        <ele>221</ele>
        <time>2023-08-05T15:38:50.000Z</time>
      </trkpt>
      <trkpt lat="49.11973" lon="6.17498">
        <ele>220.60000610352</ele>
        <time>2023-08-05T15:39:10.000Z</time>
      </trkpt>
      <trkpt lat="49.11977" lon="6.17492">
        <ele>220.60000610352</ele>
        <time>2023-08-05T15:39:12.000Z</time>
      </trkpt>
      <trkpt lat="49.11987" lon="6.17473">
        <ele>220.60000610352</ele>
        <time>2023-08-05T15:39:16.000Z</time>
      </trkpt>
      <trkpt lat="49.1199" lon="6.17468">
        <ele>220.60000610352</ele>
        <time>2023-08-05T15:39:17.000Z</time>
      </trkpt>
      <trkpt lat="49.12003" lon="6.17453">
        <ele>220</ele>
        <time>2023-08-05T15:39:21.000Z</time>
      </trkpt>
      <trkpt lat="49.12015" lon="6.17432">
        <ele>219.39999389648</ele>
        <time>2023-08-05T15:39:25.000Z</time>
      </trkpt>
      <trkpt lat="49.12027" lon="6.17412">
        <ele>218.39999389648</ele>
        <time>2023-08-05T15:39:29.000Z</time>
      </trkpt>
      <trkpt lat="49.12033" lon="6.1741">
        <ele>217.19999694824</ele>
        <time>2023-08-05T15:39:31.000Z</time>
      </trkpt>
      <trkpt lat="49.12036" lon="6.17412">
        <ele>216.60000610352</ele>
        <time>2023-08-05T15:39:32.000Z</time>
      </trkpt>
      <trkpt lat="49.12043" lon="6.17428">
        <ele>216.19999694824</ele>
        <time>2023-08-05T15:39:35.000Z</time>
      </trkpt>
      <trkpt lat="49.12045" lon="6.17435">
        <ele>216</ele>
        <time>2023-08-05T15:39:36.000Z</time>
      </trkpt>
      <trkpt lat="49.12056" lon="6.17473">
        <ele>215</ele>
        <time>2023-08-05T15:39:42.000Z</time>
      </trkpt>
      <trkpt lat="49.12064" lon="6.17491">
        <ele>214.80000305176</ele>
        <time>2023-08-05T15:39:45.000Z</time>
      </trkpt>
      <trkpt lat="49.12069" lon="6.17501">
        <ele>214.39999389648</ele>
        <time>2023-08-05T15:39:47.000Z</time>
      </trkpt>
      <trkpt lat="49.12072" lon="6.17506">
        <ele>213.60000610352</ele>
        <time>2023-08-05T15:39:48.000Z</time>
      </trkpt>
      <trkpt lat="49.12075" lon="6.1751">
        <ele>213.19999694824</ele>
        <time>2023-08-05T15:39:49.000Z</time>
      </trkpt>
      <trkpt lat="49.12081" lon="6.17517">
        <ele>212.80000305176</ele>
        <time>2023-08-05T15:39:51.000Z</time>
      </trkpt>
      <trkpt lat="49.12086" lon="6.17524">
        <ele>212.39999389648</ele>
        <time>2023-08-05T15:39:53.000Z</time>
      </trkpt>
      <trkpt lat="49.12087" lon="6.17524">
        <ele>212.39999389648</ele>
        <time>2023-08-05T15:39:55.000Z</time>
      </trkpt>
      <trkpt lat="49.12097" lon="6.17518">
        <ele>212.19999694824</ele>
        <time>2023-08-05T15:39:59.000Z</time>
      </trkpt>
      <trkpt lat="49.121" lon="6.17514">
        <ele>212.19999694824</ele>
        <time>2023-08-05T15:40:00.000Z</time>
      </trkpt>
      <trkpt lat="49.12106" lon="6.17508">
        <ele>211.80000305176</ele>
        <time>2023-08-05T15:40:02.000Z</time>
      </trkpt>
      <trkpt lat="49.12131" lon="6.17494">
        <ele>211.60000610352</ele>
        <time>2023-08-05T15:40:09.000Z</time>
      </trkpt>
      <trkpt lat="49.12162" lon="6.17474">
        <ele>211.60000610352</ele>
        <time>2023-08-05T15:40:17.000Z</time>
      </trkpt>
      <trkpt lat="49.12173" lon="6.17459">
        <ele>211.60000610352</ele>
        <time>2023-08-05T15:40:22.000Z</time>
      </trkpt>
      <trkpt lat="49.12166" lon="6.17437">
        <ele>211.60000610352</ele>
        <time>2023-08-05T15:40:27.000Z</time>
      </trkpt>
      <trkpt lat="49.12164" lon="6.17432">
        <ele>211.39999389648</ele>
        <time>2023-08-05T15:40:28.000Z</time>
      </trkpt>
      <trkpt lat="49.12161" lon="6.17424">
        <ele>211</ele>
        <time>2023-08-05T15:40:31.000Z</time>
      </trkpt>
      <trkpt lat="49.12151" lon="6.17403">
        <ele>210.80000305176</ele>
        <time>2023-08-05T15:40:36.000Z</time>
      </trkpt>
      <trkpt lat="49.12138" lon="6.17377">
        <ele>210.80000305176</ele>
        <time>2023-08-05T15:40:43.000Z</time>
      </trkpt>
      <trkpt lat="49.12127" lon="6.17351">
        <ele>211.19999694824</ele>
        <time>2023-08-05T15:40:50.000Z</time>
      </trkpt>
      <trkpt lat="49.12102" lon="6.17299">
        <ele>211.39999389648</ele>
        <time>2023-08-05T15:41:01.000Z</time>
      </trkpt>
      <trkpt lat="49.12091" lon="6.17264">
        <ele>212</ele>
        <time>2023-08-05T15:41:07.000Z</time>
      </trkpt>
      <trkpt lat="49.12092" lon="6.17258">
        <ele>212</ele>
        <time>2023-08-05T15:41:08.000Z</time>
      </trkpt>
      <trkpt lat="49.12095" lon="6.17213">
        <ele>212.60000610352</ele>
        <time>2023-08-05T15:41:15.000Z</time>
      </trkpt>
      <trkpt lat="49.12097" lon="6.17186">
        <ele>212.39999389648</ele>
        <time>2023-08-05T15:41:19.000Z</time>
      </trkpt>
      <trkpt lat="49.121" lon="6.17174">
        <ele>212.39999389648</ele>
        <time>2023-08-05T15:41:21.000Z</time>
      </trkpt>
      <trkpt lat="49.12104" lon="6.17159">
        <ele>212.60000610352</ele>
        <time>2023-08-05T15:41:24.000Z</time>
      </trkpt>
      <trkpt lat="49.12109" lon="6.17145">
        <ele>213</ele>
        <time>2023-08-05T15:41:27.000Z</time>
      </trkpt>
      <trkpt lat="49.1212" lon="6.17116">
        <ele>213</ele>
        <time>2023-08-05T15:41:33.000Z</time>
      </trkpt>
      <trkpt lat="49.12127" lon="6.17104">
        <ele>211.80000305176</ele>
        <time>2023-08-05T15:41:37.000Z</time>
      </trkpt>
      <trkpt lat="49.12128" lon="6.17101">
        <ele>211.39999389648</ele>
        <time>2023-08-05T15:41:38.000Z</time>
      </trkpt>
      <trkpt lat="49.12128" lon="6.171">
        <ele>211.19999694824</ele>
        <time>2023-08-05T15:41:39.000Z</time>
      </trkpt>
      <trkpt lat="49.12129" lon="6.17096">
        <ele>211</ele>
        <time>2023-08-05T15:41:41.000Z</time>
      </trkpt>
      <trkpt lat="49.12129" lon="6.17094">
        <ele>210.80000305176</ele>
        <time>2023-08-05T15:41:45.000Z</time>
      </trkpt>
      <trkpt lat="49.12137" lon="6.17083">
        <ele>210.60000610352</ele>
        <time>2023-08-05T15:41:51.000Z</time>
      </trkpt>
      <trkpt lat="49.12142" lon="6.17078">
        <ele>210.60000610352</ele>
        <time>2023-08-05T15:41:53.000Z</time>
      </trkpt>
      <trkpt lat="49.12145" lon="6.17069">
        <ele>210.60000610352</ele>
        <time>2023-08-05T15:41:56.000Z</time>
      </trkpt>
      <trkpt lat="49.12156" lon="6.17051">
        <ele>210.60000610352</ele>
        <time>2023-08-05T15:42:01.000Z</time>
      </trkpt>
      <trkpt lat="49.12168" lon="6.17032">
        <ele>210.80000305176</ele>
        <time>2023-08-05T15:42:04.000Z</time>
      </trkpt>
      <trkpt lat="49.12174" lon="6.1702">
        <ele>211</ele>
        <time>2023-08-05T15:42:06.000Z</time>
      </trkpt>
      <trkpt lat="49.12185" lon="6.17002">
        <ele>211.19999694824</ele>
        <time>2023-08-05T15:42:11.000Z</time>
      </trkpt>
      <trkpt lat="49.12189" lon="6.16998">
        <ele>211.19999694824</ele>
        <time>2023-08-05T15:42:15.000Z</time>
      </trkpt>
      <trkpt lat="49.12192" lon="6.16992">
        <ele>211.19999694824</ele>
        <time>2023-08-05T15:42:32.000Z</time>
      </trkpt>
      <trkpt lat="49.12194" lon="6.16985">
        <ele>211.19999694824</ele>
        <time>2023-08-05T15:42:34.000Z</time>
      </trkpt>
      <trkpt lat="49.12195" lon="6.16967">
        <ele>211.39999389648</ele>
        <time>2023-08-05T15:42:37.000Z</time>
      </trkpt>
      <trkpt lat="49.12193" lon="6.16962">
        <ele>211.39999389648</ele>
        <time>2023-08-05T15:42:38.000Z</time>
      </trkpt>
      <trkpt lat="49.12175" lon="6.1694">
        <ele>211.39999389648</ele>
        <time>2023-08-05T15:42:43.000Z</time>
      </trkpt>
      <trkpt lat="49.1215" lon="6.1691">
        <ele>211</ele>
        <time>2023-08-05T15:42:49.000Z</time>
      </trkpt>
      <trkpt lat="49.1212" lon="6.16875">
        <ele>211.60000610352</ele>
        <time>2023-08-05T15:42:56.000Z</time>
      </trkpt>
      <trkpt lat="49.1211" lon="6.16857">
        <ele>211.60000610352</ele>
        <time>2023-08-05T15:43:01.000Z</time>
      </trkpt>
      <trkpt lat="49.12118" lon="6.16844">
        <ele>211.80000305176</ele>
        <time>2023-08-05T15:43:05.000Z</time>
      </trkpt>
      <trkpt lat="49.12134" lon="6.16818">
        <ele>212</ele>
        <time>2023-08-05T15:43:11.000Z</time>
      </trkpt>
      <trkpt lat="49.12154" lon="6.16788">
        <ele>212.39999389648</ele>
        <time>2023-08-05T15:43:17.000Z</time>
      </trkpt>
      <trkpt lat="49.12157" lon="6.16785">
        <ele>212.39999389648</ele>
        <time>2023-08-05T15:43:18.000Z</time>
      </trkpt>
      <trkpt lat="49.12166" lon="6.16774">
        <ele>212.60000610352</ele>
        <time>2023-08-05T15:43:22.000Z</time>
      </trkpt>
      <trkpt lat="49.12169" lon="6.16769">
        <ele>212.60000610352</ele>
        <time>2023-08-05T15:43:24.000Z</time>
      </trkpt>
      <trkpt lat="49.12179" lon="6.16759">
        <ele>212.80000305176</ele>
        <time>2023-08-05T15:43:26.000Z</time>
      </trkpt>
      <trkpt lat="49.12187" lon="6.16753">
        <ele>212.80000305176</ele>
        <time>2023-08-05T15:43:28.000Z</time>
      </trkpt>
      <trkpt lat="49.12211" lon="6.16723">
        <ele>213.19999694824</ele>
        <time>2023-08-05T15:43:35.000Z</time>
      </trkpt>
      <trkpt lat="49.12243" lon="6.16685">
        <ele>213.19999694824</ele>
        <time>2023-08-05T15:43:43.000Z</time>
      </trkpt>
      <trkpt lat="49.12274" lon="6.16646">
        <ele>213.19999694824</ele>
        <time>2023-08-05T15:43:52.000Z</time>
      </trkpt>
      <trkpt lat="49.12303" lon="6.1661">
        <ele>213.39999389648</ele>
        <time>2023-08-05T15:44:00.000Z</time>
      </trkpt>
      <trkpt lat="49.12321" lon="6.16588">
        <ele>213.60000610352</ele>
        <time>2023-08-05T15:44:05.000Z</time>
      </trkpt>
      <trkpt lat="49.12332" lon="6.16576">
        <ele>213.60000610352</ele>
        <time>2023-08-05T15:44:08.000Z</time>
      </trkpt>
      <trkpt lat="49.12356" lon="6.16549">
        <ele>213.19999694824</ele>
        <time>2023-08-05T15:44:15.000Z</time>
      </trkpt>
      <trkpt lat="49.12384" lon="6.16526">
        <ele>212</ele>
        <time>2023-08-05T15:44:21.000Z</time>
      </trkpt>
      <trkpt lat="49.12394" lon="6.16519">
        <ele>211.60000610352</ele>
        <time>2023-08-05T15:44:23.000Z</time>
      </trkpt>
      <trkpt lat="49.12426" lon="6.16497">
        <ele>211.39999389648</ele>
        <time>2023-08-05T15:44:29.000Z</time>
      </trkpt>
      <trkpt lat="49.12457" lon="6.16474">
        <ele>211.19999694824</ele>
        <time>2023-08-05T15:44:35.000Z</time>
      </trkpt>
      <trkpt lat="49.12466" lon="6.16468">
        <ele>211.19999694824</ele>
        <time>2023-08-05T15:44:37.000Z</time>
      </trkpt>
      <trkpt lat="49.12473" lon="6.16462">
        <ele>211.19999694824</ele>
        <time>2023-08-05T15:44:39.000Z</time>
      </trkpt>
      <trkpt lat="49.12482" lon="6.16456">
        <ele>211</ele>
        <time>2023-08-05T15:44:43.000Z</time>
      </trkpt>
      <trkpt lat="49.12483" lon="6.16455">
        <ele>210.80000305176</ele>
        <time>2023-08-05T15:44:45.000Z</time>
      </trkpt>
      <trkpt lat="49.12483" lon="6.16455">
        <ele>210.80000305176</ele>
        <time>2023-08-05T15:44:47.000Z</time>
      </trkpt>
      <trkpt lat="49.12486" lon="6.16453">
        <ele>210</ele>
        <time>2023-08-05T15:45:00.000Z</time>
      </trkpt>
      <trkpt lat="49.12488" lon="6.1645">
        <ele>210</ele>
        <time>2023-08-05T15:45:01.000Z</time>
      </trkpt>
      <trkpt lat="49.12495" lon="6.16445">
        <ele>210</ele>
        <time>2023-08-05T15:45:03.000Z</time>
      </trkpt>
      <trkpt lat="49.12516" lon="6.16436">
        <ele>210.39999389648</ele>
        <time>2023-08-05T15:45:09.000Z</time>
      </trkpt>
      <trkpt lat="49.12534" lon="6.16424">
        <ele>212</ele>
        <time>2023-08-05T15:45:15.000Z</time>
      </trkpt>
      <trkpt lat="49.12537" lon="6.16423">
        <ele>212.39999389648</ele>
        <time>2023-08-05T15:45:16.000Z</time>
      </trkpt>
      <trkpt lat="49.12549" lon="6.16415">
        <ele>213.19999694824</ele>
        <time>2023-08-05T15:45:20.000Z</time>
      </trkpt>
      <trkpt lat="49.12561" lon="6.16407">
        <ele>214.19999694824</ele>
        <time>2023-08-05T15:45:24.000Z</time>
      </trkpt>
      <trkpt lat="49.12564" lon="6.16404">
        <ele>214.39999389648</ele>
        <time>2023-08-05T15:45:25.000Z</time>
      </trkpt>
      <trkpt lat="49.1258" lon="6.16387">
        <ele>215.39999389648</ele>
        <time>2023-08-05T15:45:30.000Z</time>
      </trkpt>
      <trkpt lat="49.12583" lon="6.16383">
        <ele>215.60000610352</ele>
        <time>2023-08-05T15:45:31.000Z</time>
      </trkpt>
      <trkpt lat="49.126" lon="6.16357">
        <ele>216.39999389648</ele>
        <time>2023-08-05T15:45:37.000Z</time>
      </trkpt>
      <trkpt lat="49.12618" lon="6.16327">
        <ele>216.39999389648</ele>
        <time>2023-08-05T15:45:43.000Z</time>
      </trkpt>
      <trkpt lat="49.12621" lon="6.16322">
        <ele>216.39999389648</ele>
        <time>2023-08-05T15:45:44.000Z</time>
      </trkpt>
      <trkpt lat="49.12639" lon="6.16294">
        <ele>216.19999694824</ele>
        <time>2023-08-05T15:45:51.000Z</time>
      </trkpt>
      <trkpt lat="49.12646" lon="6.16289">
        <ele>216</ele>
        <time>2023-08-05T15:45:56.000Z</time>
      </trkpt>
      <trkpt lat="49.12647" lon="6.16289">
        <ele>215.60000610352</ele>
        <time>2023-08-05T15:46:00.000Z</time>
      </trkpt>
      <trkpt lat="49.12648" lon="6.16283">
        <ele>215.39999389648</ele>
        <time>2023-08-05T15:46:03.000Z</time>
      </trkpt>
      <trkpt lat="49.12649" lon="6.16279">
        <ele>215.39999389648</ele>
        <time>2023-08-05T15:46:04.000Z</time>
      </trkpt>
      <trkpt lat="49.12654" lon="6.16261">
        <ele>215.19999694824</ele>
        <time>2023-08-05T15:46:09.000Z</time>
      </trkpt>
      <trkpt lat="49.12658" lon="6.16241">
        <ele>215.39999389648</ele>
        <time>2023-08-05T15:46:16.000Z</time>
      </trkpt>
      <trkpt lat="49.12655" lon="6.1622">
        <ele>215.39999389648</ele>
        <time>2023-08-05T15:46:21.000Z</time>
      </trkpt>
      <trkpt lat="49.12654" lon="6.16201">
        <ele>215.60000610352</ele>
        <time>2023-08-05T15:46:25.000Z</time>
      </trkpt>
      <trkpt lat="49.12653" lon="6.16186">
        <ele>216</ele>
        <time>2023-08-05T15:46:30.000Z</time>
      </trkpt>
      <trkpt lat="49.12652" lon="6.16182">
        <ele>216.19999694824</ele>
        <time>2023-08-05T15:46:35.000Z</time>
      </trkpt>
      <trkpt lat="49.12652" lon="6.16181">
        <ele>216.39999389648</ele>
        <time>2023-08-05T15:46:38.000Z</time>
      </trkpt>
      <trkpt lat="49.12653" lon="6.16173">
        <ele>216.60000610352</ele>
        <time>2023-08-05T15:46:42.000Z</time>
      </trkpt>
      <trkpt lat="49.12653" lon="6.1617">
        <ele>216.60000610352</ele>
        <time>2023-08-05T15:46:43.000Z</time>
      </trkpt>
      <trkpt lat="49.12653" lon="6.16157">
        <ele>217</ele>
        <time>2023-08-05T15:46:49.000Z</time>
      </trkpt>
      <trkpt lat="49.12654" lon="6.16157">
        <ele>217</ele>
        <time>2023-08-05T15:46:50.000Z</time>
      </trkpt>
      <trkpt lat="49.12655" lon="6.16146">
        <ele>217</ele>
        <time>2023-08-05T15:46:58.000Z</time>
      </trkpt>
      <trkpt lat="49.12656" lon="6.16137">
        <ele>217</ele>
        <time>2023-08-05T15:47:00.000Z</time>
      </trkpt>
      <trkpt lat="49.12658" lon="6.1612">
        <ele>217.19999694824</ele>
        <time>2023-08-05T15:47:03.000Z</time>
      </trkpt>
      <trkpt lat="49.12661" lon="6.16102">
        <ele>217.39999389648</ele>
        <time>2023-08-05T15:47:06.000Z</time>
      </trkpt>
      <trkpt lat="49.12666" lon="6.16056">
        <ele>217.80000305176</ele>
        <time>2023-08-05T15:47:13.000Z</time>
      </trkpt>
      <trkpt lat="49.12667" lon="6.1604">
        <ele>217.80000305176</ele>
        <time>2023-08-05T15:47:17.000Z</time>
      </trkpt>
      <trkpt lat="49.12669" lon="6.16027">
        <ele>217.39999389648</ele>
        <time>2023-08-05T15:47:22.000Z</time>
      </trkpt>
      <trkpt lat="49.12674" lon="6.15993">
        <ele>217.39999389648</ele>
        <time>2023-08-05T15:47:30.000Z</time>
      </trkpt>
      <trkpt lat="49.12674" lon="6.15989">
        <ele>217.19999694824</ele>
        <time>2023-08-05T15:47:33.000Z</time>
      </trkpt>
      <trkpt lat="49.12679" lon="6.15986">
        <ele>216.60000610352</ele>
        <time>2023-08-05T15:47:40.000Z</time>
      </trkpt>
      <trkpt lat="49.12684" lon="6.15985">
        <ele>216.19999694824</ele>
        <time>2023-08-05T15:47:44.000Z</time>
      </trkpt>
      <trkpt lat="49.12687" lon="6.15985">
        <ele>216</ele>
        <time>2023-08-05T15:47:49.000Z</time>
      </trkpt>
      <trkpt lat="49.12687" lon="6.15985">
        <ele>216</ele>
        <time>2023-08-05T15:47:50.000Z</time>
      </trkpt>
      <trkpt lat="49.12693" lon="6.15981">
        <ele>216.19999694824</ele>
        <time>2023-08-05T15:47:58.000Z</time>
      </trkpt>
      <trkpt lat="49.127" lon="6.15981">
        <ele>216.19999694824</ele>
        <time>2023-08-05T15:48:00.000Z</time>
      </trkpt>
      <trkpt lat="49.12704" lon="6.15983">
        <ele>216.19999694824</ele>
        <time>2023-08-05T15:48:01.000Z</time>
      </trkpt>
      <trkpt lat="49.12722" lon="6.15993">
        <ele>215.80000305176</ele>
        <time>2023-08-05T15:48:05.000Z</time>
      </trkpt>
      <trkpt lat="49.12732" lon="6.16">
        <ele>215.39999389648</ele>
        <time>2023-08-05T15:48:07.000Z</time>
      </trkpt>
      <trkpt lat="49.12756" lon="6.16018">
        <ele>214.60000610352</ele>
        <time>2023-08-05T15:48:12.000Z</time>
      </trkpt>
      <trkpt lat="49.12765" lon="6.16025">
        <ele>214.19999694824</ele>
        <time>2023-08-05T15:48:14.000Z</time>
      </trkpt>
      <trkpt lat="49.12775" lon="6.16028">
        <ele>214</ele>
        <time>2023-08-05T15:48:16.000Z</time>
      </trkpt>
      <trkpt lat="49.12795" lon="6.16034">
        <ele>213.19999694824</ele>
        <time>2023-08-05T15:48:20.000Z</time>
      </trkpt>
      <trkpt lat="49.12828" lon="6.16044">
        <ele>212.60000610352</ele>
        <time>2023-08-05T15:48:26.000Z</time>
      </trkpt>
      <trkpt lat="49.12844" lon="6.16047">
        <ele>212</ele>
        <time>2023-08-05T15:48:29.000Z</time>
      </trkpt>
      <trkpt lat="49.12853" lon="6.16049">
        <ele>211.80000305176</ele>
        <time>2023-08-05T15:48:31.000Z</time>
      </trkpt>
      <trkpt lat="49.12861" lon="6.1605">
        <ele>211.60000610352</ele>
        <time>2023-08-05T15:48:33.000Z</time>
      </trkpt>
      <trkpt lat="49.12874" lon="6.16053">
        <ele>210.80000305176</ele>
        <time>2023-08-05T15:48:36.000Z</time>
      </trkpt>
      <trkpt lat="49.12879" lon="6.16053">
        <ele>210.80000305176</ele>
        <time>2023-08-05T15:48:37.000Z</time>
      </trkpt>
      <trkpt lat="49.12884" lon="6.16053">
        <ele>210.60000610352</ele>
        <time>2023-08-05T15:48:38.000Z</time>
      </trkpt>
      <trkpt lat="49.12889" lon="6.16052">
        <ele>210.39999389648</ele>
        <time>2023-08-05T15:48:39.000Z</time>
      </trkpt>
      <trkpt lat="49.12899" lon="6.16047">
        <ele>210.19999694824</ele>
        <time>2023-08-05T15:48:41.000Z</time>
      </trkpt>
      <trkpt lat="49.12904" lon="6.16043">
        <ele>210.19999694824</ele>
        <time>2023-08-05T15:48:42.000Z</time>
      </trkpt>
      <trkpt lat="49.12912" lon="6.16033">
        <ele>210.19999694824</ele>
        <time>2023-08-05T15:48:44.000Z</time>
      </trkpt>
      <trkpt lat="49.12928" lon="6.1601">
        <ele>210</ele>
        <time>2023-08-05T15:48:48.000Z</time>
      </trkpt>
      <trkpt lat="49.12946" lon="6.15978">
        <ele>209.80000305176</ele>
        <time>2023-08-05T15:48:53.000Z</time>
      </trkpt>
      <trkpt lat="49.12957" lon="6.15961">
        <ele>209.60000610352</ele>
        <time>2023-08-05T15:48:56.000Z</time>
      </trkpt>
      <trkpt lat="49.12993" lon="6.15911">
        <ele>209</ele>
        <time>2023-08-05T15:49:05.000Z</time>
      </trkpt>
      <trkpt lat="49.13002" lon="6.159">
        <ele>209</ele>
        <time>2023-08-05T15:49:07.000Z</time>
      </trkpt>
      <trkpt lat="49.13017" lon="6.15877">
        <ele>209</ele>
        <time>2023-08-05T15:49:11.000Z</time>
      </trkpt>
      <trkpt lat="49.13023" lon="6.15867">
        <ele>209</ele>
        <time>2023-08-05T15:49:13.000Z</time>
      </trkpt>
      <trkpt lat="49.13036" lon="6.15843">
        <ele>209.39999389648</ele>
        <time>2023-08-05T15:49:17.000Z</time>
      </trkpt>
      <trkpt lat="49.13049" lon="6.15819">
        <ele>209.39999389648</ele>
        <time>2023-08-05T15:49:21.000Z</time>
      </trkpt>
      <trkpt lat="49.13059" lon="6.15799">
        <ele>209.39999389648</ele>
        <time>2023-08-05T15:49:24.000Z</time>
      </trkpt>
      <trkpt lat="49.1307" lon="6.1578">
        <ele>209.39999389648</ele>
        <time>2023-08-05T15:49:27.000Z</time>
      </trkpt>
      <trkpt lat="49.13085" lon="6.15755">
        <ele>209.39999389648</ele>
        <time>2023-08-05T15:49:31.000Z</time>
      </trkpt>
      <trkpt lat="49.13111" lon="6.15713">
        <ele>209.80000305176</ele>
        <time>2023-08-05T15:49:38.000Z</time>
      </trkpt>
      <trkpt lat="49.13146" lon="6.1565">
        <ele>210</ele>
        <time>2023-08-05T15:49:48.000Z</time>
      </trkpt>
      <trkpt lat="49.13185" lon="6.15581">
        <ele>209.60000610352</ele>
        <time>2023-08-05T15:49:59.000Z</time>
      </trkpt>
      <trkpt lat="49.13215" lon="6.15527">
        <ele>209.60000610352</ele>
        <time>2023-08-05T15:50:08.000Z</time>
      </trkpt>
      <trkpt lat="49.13246" lon="6.15471">
        <ele>209.60000610352</ele>
        <time>2023-08-05T15:50:18.000Z</time>
      </trkpt>
      <trkpt lat="49.13276" lon="6.15419">
        <ele>209.80000305176</ele>
        <time>2023-08-05T15:50:26.000Z</time>
      </trkpt>
      <trkpt lat="49.13292" lon="6.1539">
        <ele>210</ele>
        <time>2023-08-05T15:50:31.000Z</time>
      </trkpt>
      <trkpt lat="49.13298" lon="6.15379">
        <ele>210.19999694824</ele>
        <time>2023-08-05T15:50:34.000Z</time>
      </trkpt>
      <trkpt lat="49.13328" lon="6.15331">
        <ele>210.19999694824</ele>
        <time>2023-08-05T15:50:41.000Z</time>
      </trkpt>
      <trkpt lat="49.13349" lon="6.15295">
        <ele>210.39999389648</ele>
        <time>2023-08-05T15:50:47.000Z</time>
      </trkpt>
      <trkpt lat="49.13386" lon="6.15237">
        <ele>210.19999694824</ele>
        <time>2023-08-05T15:50:58.000Z</time>
      </trkpt>
      <trkpt lat="49.13413" lon="6.15188">
        <ele>210.19999694824</ele>
        <time>2023-08-05T15:51:06.000Z</time>
      </trkpt>
      <trkpt lat="49.13419" lon="6.15175">
        <ele>210.19999694824</ele>
        <time>2023-08-05T15:51:08.000Z</time>
      </trkpt>
      <trkpt lat="49.13433" lon="6.15156">
        <ele>210</ele>
        <time>2023-08-05T15:51:12.000Z</time>
      </trkpt>
      <trkpt lat="49.13459" lon="6.15106">
        <ele>209.80000305176</ele>
        <time>2023-08-05T15:51:20.000Z</time>
      </trkpt>
      <trkpt lat="49.13483" lon="6.15062">
        <ele>210.19999694824</ele>
        <time>2023-08-05T15:51:27.000Z</time>
      </trkpt>
      <trkpt lat="49.13505" lon="6.15017">
        <ele>210.39999389648</ele>
        <time>2023-08-05T15:51:34.000Z</time>
      </trkpt>
      <trkpt lat="49.13528" lon="6.14973">
        <ele>210.39999389648</ele>
        <time>2023-08-05T15:51:41.000Z</time>
      </trkpt>
      <trkpt lat="49.1355" lon="6.14928">
        <ele>210.39999389648</ele>
        <time>2023-08-05T15:51:49.000Z</time>
      </trkpt>
      <trkpt lat="49.13557" lon="6.14919">
        <ele>210.39999389648</ele>
        <time>2023-08-05T15:51:53.000Z</time>
      </trkpt>
      <trkpt lat="49.1357" lon="6.14898">
        <ele>210.39999389648</ele>
        <time>2023-08-05T15:51:59.000Z</time>
      </trkpt>
      <trkpt lat="49.1359" lon="6.14848">
        <ele>211</ele>
        <time>2023-08-05T15:52:08.000Z</time>
      </trkpt>
      <trkpt lat="49.13597" lon="6.14831">
        <ele>211.19999694824</ele>
        <time>2023-08-05T15:52:11.000Z</time>
      </trkpt>
      <trkpt lat="49.13606" lon="6.14809">
        <ele>211.39999389648</ele>
        <time>2023-08-05T15:52:15.000Z</time>
      </trkpt>
      <trkpt lat="49.13611" lon="6.14799">
        <ele>211.39999389648</ele>
        <time>2023-08-05T15:52:17.000Z</time>
      </trkpt>
      <trkpt lat="49.13619" lon="6.14783">
        <ele>211.80000305176</ele>
        <time>2023-08-05T15:52:20.000Z</time>
      </trkpt>
      <trkpt lat="49.13638" lon="6.14746">
        <ele>212.19999694824</ele>
        <time>2023-08-05T15:52:27.000Z</time>
      </trkpt>
      <trkpt lat="49.13645" lon="6.14733">
        <ele>212.60000610352</ele>
        <time>2023-08-05T15:52:30.000Z</time>
      </trkpt>
      <trkpt lat="49.13652" lon="6.14721">
        <ele>212.80000305176</ele>
        <time>2023-08-05T15:52:33.000Z</time>
      </trkpt>
      <trkpt lat="49.13668" lon="6.14696">
        <ele>213.60000610352</ele>
        <time>2023-08-05T15:52:39.000Z</time>
      </trkpt>
      <trkpt lat="49.13669" lon="6.14693">
        <ele>213.80000305176</ele>
        <time>2023-08-05T15:52:40.000Z</time>
      </trkpt>
      <trkpt lat="49.1368" lon="6.14673">
        <ele>214.80000305176</ele>
        <time>2023-08-05T15:52:45.000Z</time>
      </trkpt>
      <trkpt lat="49.13684" lon="6.14666">
        <ele>215.19999694824</ele>
        <time>2023-08-05T15:52:47.000Z</time>
      </trkpt>
      <trkpt lat="49.13691" lon="6.14651">
        <ele>215.80000305176</ele>
        <time>2023-08-05T15:52:51.000Z</time>
      </trkpt>
      <trkpt lat="49.13699" lon="6.14635">
        <ele>216.39999389648</ele>
        <time>2023-08-05T15:52:55.000Z</time>
      </trkpt>
      <trkpt lat="49.13704" lon="6.14624">
        <ele>217</ele>
        <time>2023-08-05T15:52:58.000Z</time>
      </trkpt>
      <trkpt lat="49.1371" lon="6.14613">
        <ele>218</ele>
        <time>2023-08-05T15:53:01.000Z</time>
      </trkpt>
      <trkpt lat="49.13712" lon="6.14609">
        <ele>218.60000610352</ele>
        <time>2023-08-05T15:53:02.000Z</time>
      </trkpt>
      <trkpt lat="49.1372" lon="6.14591">
        <ele>219.60000610352</ele>
        <time>2023-08-05T15:53:07.000Z</time>
      </trkpt>
      <trkpt lat="49.13723" lon="6.14582">
        <ele>219.80000305176</ele>
        <time>2023-08-05T15:53:09.000Z</time>
      </trkpt>
      <trkpt lat="49.13722" lon="6.14553">
        <ele>220.60000610352</ele>
        <time>2023-08-05T15:53:15.000Z</time>
      </trkpt>
      <trkpt lat="49.13721" lon="6.14548">
        <ele>220.60000610352</ele>
        <time>2023-08-05T15:53:16.000Z</time>
      </trkpt>
      <trkpt lat="49.13718" lon="6.14518">
        <ele>222</ele>
        <time>2023-08-05T15:53:23.000Z</time>
      </trkpt>
      <trkpt lat="49.13716" lon="6.14505">
        <ele>223</ele>
        <time>2023-08-05T15:53:26.000Z</time>
      </trkpt>
      <trkpt lat="49.13712" lon="6.14493">
        <ele>223.60000610352</ele>
        <time>2023-08-05T15:53:29.000Z</time>
      </trkpt>
      <trkpt lat="49.13708" lon="6.14476">
        <ele>224</ele>
        <time>2023-08-05T15:53:33.000Z</time>
      </trkpt>
      <trkpt lat="49.13702" lon="6.14454">
        <ele>224.80000305176</ele>
        <time>2023-08-05T15:53:38.000Z</time>
      </trkpt>
      <trkpt lat="49.13698" lon="6.14441">
        <ele>225.19999694824</ele>
        <time>2023-08-05T15:53:41.000Z</time>
      </trkpt>
      <trkpt lat="49.13694" lon="6.14413">
        <ele>225.80000305176</ele>
        <time>2023-08-05T15:53:47.000Z</time>
      </trkpt>
      <trkpt lat="49.13692" lon="6.14399">
        <ele>226.39999389648</ele>
        <time>2023-08-05T15:53:50.000Z</time>
      </trkpt>
      <trkpt lat="49.13691" lon="6.14375">
        <ele>227.19999694824</ele>
        <time>2023-08-05T15:53:55.000Z</time>
      </trkpt>
      <trkpt lat="49.13691" lon="6.14364">
        <ele>227.39999389648</ele>
        <time>2023-08-05T15:53:57.000Z</time>
      </trkpt>
      <trkpt lat="49.13696" lon="6.14329">
        <ele>227.39999389648</ele>
        <time>2023-08-05T15:54:03.000Z</time>
      </trkpt>
      <trkpt lat="49.1371" lon="6.14274">
        <ele>227</ele>
        <time>2023-08-05T15:54:12.000Z</time>
      </trkpt>
      <trkpt lat="49.13723" lon="6.14239">
        <ele>226.80000305176</ele>
        <time>2023-08-05T15:54:18.000Z</time>
      </trkpt>
      <trkpt lat="49.13726" lon="6.14234">
        <ele>226.80000305176</ele>
        <time>2023-08-05T15:54:19.000Z</time>
      </trkpt>
      <trkpt lat="49.13731" lon="6.14227">
        <ele>226.80000305176</ele>
        <time>2023-08-05T15:54:21.000Z</time>
      </trkpt>
      <trkpt lat="49.13738" lon="6.14217">
        <ele>226.80000305176</ele>
        <time>2023-08-05T15:54:24.000Z</time>
      </trkpt>
      <trkpt lat="49.13757" lon="6.14196">
        <ele>228.19999694824</ele>
        <time>2023-08-05T15:54:33.000Z</time>
      </trkpt>
      <trkpt lat="49.13762" lon="6.14192">
        <ele>228.39999389648</ele>
        <time>2023-08-05T15:54:35.000Z</time>
      </trkpt>
      <trkpt lat="49.13772" lon="6.14182">
        <ele>229.39999389648</ele>
        <time>2023-08-05T15:54:41.000Z</time>
      </trkpt>
      <trkpt lat="49.13775" lon="6.14179">
        <ele>229.80000305176</ele>
        <time>2023-08-05T15:54:43.000Z</time>
      </trkpt>
      <trkpt lat="49.13783" lon="6.14174">
        <ele>230.80000305176</ele>
        <time>2023-08-05T15:54:47.000Z</time>
      </trkpt>
      <trkpt lat="49.1379" lon="6.14167">
        <ele>231.39999389648</ele>
        <time>2023-08-05T15:54:51.000Z</time>
      </trkpt>
      <trkpt lat="49.13794" lon="6.14163">
        <ele>231.80000305176</ele>
        <time>2023-08-05T15:54:53.000Z</time>
      </trkpt>
      <trkpt lat="49.13801" lon="6.14158">
        <ele>233</ele>
        <time>2023-08-05T15:54:57.000Z</time>
      </trkpt>
      <trkpt lat="49.13803" lon="6.14156">
        <ele>233</ele>
        <time>2023-08-05T15:54:58.000Z</time>
      </trkpt>
      <trkpt lat="49.13811" lon="6.14149">
        <ele>234</ele>
        <time>2023-08-05T15:55:03.000Z</time>
      </trkpt>
      <trkpt lat="49.13815" lon="6.14144">
        <ele>234.80000305176</ele>
        <time>2023-08-05T15:55:06.000Z</time>
      </trkpt>
      <trkpt lat="49.13819" lon="6.14141">
        <ele>235.19999694824</ele>
        <time>2023-08-05T15:55:08.000Z</time>
      </trkpt>
      <trkpt lat="49.13827" lon="6.14134">
        <ele>236.39999389648</ele>
        <time>2023-08-05T15:55:13.000Z</time>
      </trkpt>
      <trkpt lat="49.1383" lon="6.14131">
        <ele>237</ele>
        <time>2023-08-05T15:55:15.000Z</time>
      </trkpt>
      <trkpt lat="49.13835" lon="6.14126">
        <ele>237.60000610352</ele>
        <time>2023-08-05T15:55:18.000Z</time>
      </trkpt>
      <trkpt lat="49.13841" lon="6.14118">
        <ele>238.19999694824</ele>
        <time>2023-08-05T15:55:22.000Z</time>
      </trkpt>
      <trkpt lat="49.13845" lon="6.14112">
        <ele>238.80000305176</ele>
        <time>2023-08-05T15:55:25.000Z</time>
      </trkpt>
      <trkpt lat="49.13855" lon="6.14098">
        <ele>239.80000305176</ele>
        <time>2023-08-05T15:55:32.000Z</time>
      </trkpt>
      <trkpt lat="49.13863" lon="6.14081">
        <ele>241</ele>
        <time>2023-08-05T15:55:39.000Z</time>
      </trkpt>
      <trkpt lat="49.13864" lon="6.14079">
        <ele>241.19999694824</ele>
        <time>2023-08-05T15:55:40.000Z</time>
      </trkpt>
      <trkpt lat="49.13869" lon="6.14067">
        <ele>242</ele>
        <time>2023-08-05T15:55:45.000Z</time>
      </trkpt>
      <trkpt lat="49.13871" lon="6.14063">
        <ele>242.39999389648</ele>
        <time>2023-08-05T15:55:47.000Z</time>
      </trkpt>
      <trkpt lat="49.13874" lon="6.14051">
        <ele>243</ele>
        <time>2023-08-05T15:55:51.000Z</time>
      </trkpt>
      <trkpt lat="49.13875" lon="6.14044">
        <ele>243.39999389648</ele>
        <time>2023-08-05T15:55:53.000Z</time>
      </trkpt>
      <trkpt lat="49.13878" lon="6.14031">
        <ele>244</ele>
        <time>2023-08-05T15:55:57.000Z</time>
      </trkpt>
      <trkpt lat="49.13879" lon="6.14024">
        <ele>244.39999389648</ele>
        <time>2023-08-05T15:55:59.000Z</time>
      </trkpt>
      <trkpt lat="49.13882" lon="6.14012">
        <ele>245.19999694824</ele>
        <time>2023-08-05T15:56:03.000Z</time>
      </trkpt>
      <trkpt lat="49.13883" lon="6.14006">
        <ele>245.39999389648</ele>
        <time>2023-08-05T15:56:05.000Z</time>
      </trkpt>
      <trkpt lat="49.13884" lon="6.14003">
        <ele>245.60000610352</ele>
        <time>2023-08-05T15:56:06.000Z</time>
      </trkpt>
      <trkpt lat="49.13887" lon="6.13991">
        <ele>246.19999694824</ele>
        <time>2023-08-05T15:56:10.000Z</time>
      </trkpt>
      <trkpt lat="49.13889" lon="6.13982">
        <ele>246.80000305176</ele>
        <time>2023-08-05T15:56:13.000Z</time>
      </trkpt>
      <trkpt lat="49.1389" lon="6.13977">
        <ele>247.19999694824</ele>
        <time>2023-08-05T15:56:15.000Z</time>
      </trkpt>
      <trkpt lat="49.13894" lon="6.13955">
        <ele>248.39999389648</ele>
        <time>2023-08-05T15:56:22.000Z</time>
      </trkpt>
      <trkpt lat="49.13896" lon="6.1395">
        <ele>248.80000305176</ele>
        <time>2023-08-05T15:56:24.000Z</time>
      </trkpt>
      <trkpt lat="49.13899" lon="6.13943">
        <ele>249.39999389648</ele>
        <time>2023-08-05T15:56:27.000Z</time>
      </trkpt>
      <trkpt lat="49.13904" lon="6.13931">
        <ele>250.39999389648</ele>
        <time>2023-08-05T15:56:32.000Z</time>
      </trkpt>
      <trkpt lat="49.13905" lon="6.13928">
        <ele>250.60000610352</ele>
        <time>2023-08-05T15:56:33.000Z</time>
      </trkpt>
      <trkpt lat="49.13912" lon="6.13909">
        <ele>251.60000610352</ele>
        <time>2023-08-05T15:56:40.000Z</time>
      </trkpt>
      <trkpt lat="49.13915" lon="6.13901">
        <ele>252</ele>
        <time>2023-08-05T15:56:43.000Z</time>
      </trkpt>
      <trkpt lat="49.13928" lon="6.13875">
        <ele>252.80000305176</ele>
        <time>2023-08-05T15:56:52.000Z</time>
      </trkpt>
      <trkpt lat="49.13943" lon="6.13843">
        <ele>253</ele>
        <time>2023-08-05T15:57:01.000Z</time>
      </trkpt>
      <trkpt lat="49.13954" lon="6.13812">
        <ele>252.80000305176</ele>
        <time>2023-08-05T15:57:07.000Z</time>
      </trkpt>
      <trkpt lat="49.13965" lon="6.13776">
        <ele>252.39999389648</ele>
        <time>2023-08-05T15:57:12.000Z</time>
      </trkpt>
      <trkpt lat="49.13972" lon="6.1375">
        <ele>251.60000610352</ele>
        <time>2023-08-05T15:57:15.000Z</time>
      </trkpt>
      <trkpt lat="49.13977" lon="6.13731">
        <ele>251</ele>
        <time>2023-08-05T15:57:17.000Z</time>
      </trkpt>
      <trkpt lat="49.1398" lon="6.13721">
        <ele>250.39999389648</ele>
        <time>2023-08-05T15:57:18.000Z</time>
      </trkpt>
      <trkpt lat="49.13994" lon="6.13671">
        <ele>249.39999389648</ele>
        <time>2023-08-05T15:57:23.000Z</time>
      </trkpt>
      <trkpt lat="49.13997" lon="6.13661">
        <ele>249.19999694824</ele>
        <time>2023-08-05T15:57:24.000Z</time>
      </trkpt>
      <trkpt lat="49.14006" lon="6.1363">
        <ele>248.19999694824</ele>
        <time>2023-08-05T15:57:27.000Z</time>
      </trkpt>
      <trkpt lat="49.14018" lon="6.13592">
        <ele>247</ele>
        <time>2023-08-05T15:57:31.000Z</time>
      </trkpt>
      <trkpt lat="49.14021" lon="6.13583">
        <ele>246.80000305176</ele>
        <time>2023-08-05T15:57:32.000Z</time>
      </trkpt>
      <trkpt lat="49.14035" lon="6.13542">
        <ele>246.19999694824</ele>
        <time>2023-08-05T15:57:37.000Z</time>
      </trkpt>
      <trkpt lat="49.14046" lon="6.13516">
        <ele>246.19999694824</ele>
        <time>2023-08-05T15:57:41.000Z</time>
      </trkpt>
      <trkpt lat="49.1405" lon="6.13511">
        <ele>246.39999389648</ele>
        <time>2023-08-05T15:57:42.000Z</time>
      </trkpt>
      <trkpt lat="49.14056" lon="6.13501">
        <ele>246.60000610352</ele>
        <time>2023-08-05T15:57:44.000Z</time>
      </trkpt>
      <trkpt lat="49.1406" lon="6.13489">
        <ele>246.80000305176</ele>
        <time>2023-08-05T15:57:46.000Z</time>
      </trkpt>
      <trkpt lat="49.14062" lon="6.13475">
        <ele>247</ele>
        <time>2023-08-05T15:57:48.000Z</time>
      </trkpt>
      <trkpt lat="49.14066" lon="6.13463">
        <ele>247.60000610352</ele>
        <time>2023-08-05T15:57:50.000Z</time>
      </trkpt>
      <trkpt lat="49.14069" lon="6.13458">
        <ele>247.60000610352</ele>
        <time>2023-08-05T15:57:51.000Z</time>
      </trkpt>
      <trkpt lat="49.14077" lon="6.13438">
        <ele>248.19999694824</ele>
        <time>2023-08-05T15:57:54.000Z</time>
      </trkpt>
      <trkpt lat="49.14081" lon="6.13431">
        <ele>248.39999389648</ele>
        <time>2023-08-05T15:57:56.000Z</time>
      </trkpt>
      <trkpt lat="49.14092" lon="6.13413">
        <ele>249.19999694824</ele>
        <time>2023-08-05T15:58:02.000Z</time>
      </trkpt>
      <trkpt lat="49.14096" lon="6.13407">
        <ele>249.39999389648</ele>
        <time>2023-08-05T15:58:04.000Z</time>
      </trkpt>
      <trkpt lat="49.14106" lon="6.1339">
        <ele>250.19999694824</ele>
        <time>2023-08-05T15:58:09.000Z</time>
      </trkpt>
      <trkpt lat="49.14108" lon="6.13387">
        <ele>250.60000610352</ele>
        <time>2023-08-05T15:58:10.000Z</time>
      </trkpt>
      <trkpt lat="49.1411" lon="6.13381">
        <ele>251.60000610352</ele>
        <time>2023-08-05T15:58:13.000Z</time>
      </trkpt>
      <trkpt lat="49.14115" lon="6.13374">
        <ele>252.19999694824</ele>
        <time>2023-08-05T15:58:16.000Z</time>
      </trkpt>
      <trkpt lat="49.14117" lon="6.13371">
        <ele>252.60000610352</ele>
        <time>2023-08-05T15:58:17.000Z</time>
      </trkpt>
      <trkpt lat="49.14127" lon="6.13355">
        <ele>253.39999389648</ele>
        <time>2023-08-05T15:58:22.000Z</time>
      </trkpt>
      <trkpt lat="49.14129" lon="6.13351">
        <ele>253.60000610352</ele>
        <time>2023-08-05T15:58:23.000Z</time>
      </trkpt>
      <trkpt lat="49.14137" lon="6.13337">
        <ele>255</ele>
        <time>2023-08-05T15:58:27.000Z</time>
      </trkpt>
      <trkpt lat="49.14142" lon="6.13327">
        <ele>255.60000610352</ele>
        <time>2023-08-05T15:58:30.000Z</time>
      </trkpt>
      <trkpt lat="49.14145" lon="6.13322">
        <ele>256.20001220703</ele>
        <time>2023-08-05T15:58:32.000Z</time>
      </trkpt>
      <trkpt lat="49.14155" lon="6.13303">
        <ele>257.20001220703</ele>
        <time>2023-08-05T15:58:36.000Z</time>
      </trkpt>
      <trkpt lat="49.14164" lon="6.13288">
        <ele>258.20001220703</ele>
        <time>2023-08-05T15:58:41.000Z</time>
      </trkpt>
      <trkpt lat="49.14168" lon="6.13279">
        <ele>258.60000610352</ele>
        <time>2023-08-05T15:58:43.000Z</time>
      </trkpt>
      <trkpt lat="49.14178" lon="6.13254">
        <ele>259.39999389648</ele>
        <time>2023-08-05T15:58:48.000Z</time>
      </trkpt>
      <trkpt lat="49.14188" lon="6.13236">
        <ele>259.79998779297</ele>
        <time>2023-08-05T15:58:52.000Z</time>
      </trkpt>
      <trkpt lat="49.14202" lon="6.13213">
        <ele>260.60000610352</ele>
        <time>2023-08-05T15:58:58.000Z</time>
      </trkpt>
      <trkpt lat="49.14202" lon="6.13213">
        <ele>260.79998779297</ele>
        <time>2023-08-05T15:58:59.000Z</time>
      </trkpt>
      <trkpt lat="49.14215" lon="6.13194">
        <ele>261.79998779297</ele>
        <time>2023-08-05T15:59:05.000Z</time>
      </trkpt>
      <trkpt lat="49.14226" lon="6.13175">
        <ele>262.60000610352</ele>
        <time>2023-08-05T15:59:11.000Z</time>
      </trkpt>
      <trkpt lat="49.14231" lon="6.13168">
        <ele>263</ele>
        <time>2023-08-05T15:59:12.000Z</time>
      </trkpt>
      <trkpt lat="49.14249" lon="6.13141">
        <ele>264</ele>
        <time>2023-08-05T15:59:19.000Z</time>
      </trkpt>
      <trkpt lat="49.14249" lon="6.13141">
        <ele>264.39999389648</ele>
        <time>2023-08-05T15:59:20.000Z</time>
      </trkpt>
      <trkpt lat="49.14261" lon="6.13122">
        <ele>265.20001220703</ele>
        <time>2023-08-05T15:59:26.000Z</time>
      </trkpt>
      <trkpt lat="49.14268" lon="6.13113">
        <ele>265.79998779297</ele>
        <time>2023-08-05T15:59:29.000Z</time>
      </trkpt>
      <trkpt lat="49.14274" lon="6.13103">
        <ele>266.20001220703</ele>
        <time>2023-08-05T15:59:32.000Z</time>
      </trkpt>
      <trkpt lat="49.14278" lon="6.13097">
        <ele>266.60000610352</ele>
        <time>2023-08-05T15:59:34.000Z</time>
      </trkpt>
      <trkpt lat="49.14286" lon="6.13079">
        <ele>267.60000610352</ele>
        <time>2023-08-05T15:59:39.000Z</time>
      </trkpt>
      <trkpt lat="49.14288" lon="6.13075">
        <ele>267.60000610352</ele>
        <time>2023-08-05T15:59:40.000Z</time>
      </trkpt>
      <trkpt lat="49.14307" lon="6.13036">
        <ele>268.39999389648</ele>
        <time>2023-08-05T15:59:49.000Z</time>
      </trkpt>
      <trkpt lat="49.14326" lon="6.12992">
        <ele>268.20001220703</ele>
        <time>2023-08-05T15:59:57.000Z</time>
      </trkpt>
      <trkpt lat="49.14351" lon="6.12929">
        <ele>267.79998779297</ele>
        <time>2023-08-05T16:00:06.000Z</time>
      </trkpt>
      <trkpt lat="49.14375" lon="6.1287">
        <ele>267.39999389648</ele>
        <time>2023-08-05T16:00:16.000Z</time>
      </trkpt>
      <trkpt lat="49.14403" lon="6.12824">
        <ele>267.20001220703</ele>
        <time>2023-08-05T16:00:24.000Z</time>
      </trkpt>
      <trkpt lat="49.14441" lon="6.12784">
        <ele>267.39999389648</ele>
        <time>2023-08-05T16:00:33.000Z</time>
      </trkpt>
      <trkpt lat="49.14469" lon="6.12758">
        <ele>268.60000610352</ele>
        <time>2023-08-05T16:00:41.000Z</time>
      </trkpt>
      <trkpt lat="49.14473" lon="6.12756">
        <ele>268.60000610352</ele>
        <time>2023-08-05T16:00:42.000Z</time>
      </trkpt>
      <trkpt lat="49.1449" lon="6.12749">
        <ele>269</ele>
        <time>2023-08-05T16:00:47.000Z</time>
      </trkpt>
      <trkpt lat="49.14502" lon="6.12735">
        <ele>269.39999389648</ele>
        <time>2023-08-05T16:00:52.000Z</time>
      </trkpt>
      <trkpt lat="49.14524" lon="6.12707">
        <ele>269.20001220703</ele>
        <time>2023-08-05T16:01:00.000Z</time>
      </trkpt>
      <trkpt lat="49.1455" lon="6.1268">
        <ele>267.60000610352</ele>
        <time>2023-08-05T16:01:08.000Z</time>
      </trkpt>
      <trkpt lat="49.14553" lon="6.12677">
        <ele>267.39999389648</ele>
        <time>2023-08-05T16:01:09.000Z</time>
      </trkpt>
      <trkpt lat="49.14559" lon="6.12671">
        <ele>266.60000610352</ele>
        <time>2023-08-05T16:01:12.000Z</time>
      </trkpt>
      <trkpt lat="49.14561" lon="6.12669">
        <ele>266.20001220703</ele>
        <time>2023-08-05T16:01:14.000Z</time>
      </trkpt>
      <trkpt lat="49.14561" lon="6.12669">
        <ele>266.20001220703</ele>
        <time>2023-08-05T16:01:15.000Z</time>
      </trkpt>
      <trkpt lat="49.14564" lon="6.12665">
        <ele>265.39999389648</ele>
        <time>2023-08-05T16:02:55.000Z</time>
      </trkpt>
      <trkpt lat="49.14566" lon="6.12663">
        <ele>265.39999389648</ele>
        <time>2023-08-05T16:02:57.000Z</time>
      </trkpt>
      <trkpt lat="49.14585" lon="6.1264">
        <ele>265</ele>
        <time>2023-08-05T16:03:02.000Z</time>
      </trkpt>
      <trkpt lat="49.14606" lon="6.12619">
        <ele>264.39999389648</ele>
        <time>2023-08-05T16:03:06.000Z</time>
      </trkpt>
      <trkpt lat="49.14612" lon="6.12614">
        <ele>264.20001220703</ele>
        <time>2023-08-05T16:03:07.000Z</time>
      </trkpt>
      <trkpt lat="49.14618" lon="6.12609">
        <ele>264.20001220703</ele>
        <time>2023-08-05T16:03:08.000Z</time>
      </trkpt>
      <trkpt lat="49.14639" lon="6.12596">
        <ele>263.20001220703</ele>
        <time>2023-08-05T16:03:11.000Z</time>
      </trkpt>
      <trkpt lat="49.14663" lon="6.12587">
        <ele>262.20001220703</ele>
        <time>2023-08-05T16:03:14.000Z</time>
      </trkpt>
      <trkpt lat="49.14682" lon="6.12582">
        <ele>261.79998779297</ele>
        <time>2023-08-05T16:03:16.000Z</time>
      </trkpt>
      <trkpt lat="49.14701" lon="6.12575">
        <ele>261</ele>
        <time>2023-08-05T16:03:18.000Z</time>
      </trkpt>
      <trkpt lat="49.1473" lon="6.12563">
        <ele>260</ele>
        <time>2023-08-05T16:03:21.000Z</time>
      </trkpt>
      <trkpt lat="49.14739" lon="6.12558">
        <ele>259.79998779297</ele>
        <time>2023-08-05T16:03:22.000Z</time>
      </trkpt>
      <trkpt lat="49.14758" lon="6.12543">
        <ele>259</ele>
        <time>2023-08-05T16:03:24.000Z</time>
      </trkpt>
      <trkpt lat="49.14758" lon="6.12543">
        <ele>258.60000610352</ele>
        <time>2023-08-05T16:03:25.000Z</time>
      </trkpt>
      <trkpt lat="49.14767" lon="6.12534">
        <ele>258.20001220703</ele>
        <time>2023-08-05T16:03:26.000Z</time>
      </trkpt>
      <trkpt lat="49.14782" lon="6.12514">
        <ele>257</ele>
        <time>2023-08-05T16:03:28.000Z</time>
      </trkpt>
      <trkpt lat="49.14797" lon="6.12489">
        <ele>255.60000610352</ele>
        <time>2023-08-05T16:03:30.000Z</time>
      </trkpt>
      <trkpt lat="49.14821" lon="6.1245">
        <ele>254.19999694824</ele>
        <time>2023-08-05T16:03:32.000Z</time>
      </trkpt>
      <trkpt lat="49.14831" lon="6.12436">
        <ele>252.80000305176</ele>
        <time>2023-08-05T16:03:33.000Z</time>
      </trkpt>
      <trkpt lat="49.14847" lon="6.12415">
        <ele>251.39999389648</ele>
        <time>2023-08-05T16:03:35.000Z</time>
      </trkpt>
      <trkpt lat="49.14864" lon="6.12399">
        <ele>250.39999389648</ele>
        <time>2023-08-05T16:03:37.000Z</time>
      </trkpt>
      <trkpt lat="49.1488" lon="6.12386">
        <ele>249.80000305176</ele>
        <time>2023-08-05T16:03:39.000Z</time>
      </trkpt>
      <trkpt lat="49.14909" lon="6.12372">
        <ele>249.80000305176</ele>
        <time>2023-08-05T16:03:43.000Z</time>
      </trkpt>
      <trkpt lat="49.14939" lon="6.12365">
        <ele>250.39999389648</ele>
        <time>2023-08-05T16:03:48.000Z</time>
      </trkpt>
      <trkpt lat="49.14969" lon="6.12362">
        <ele>251.60000610352</ele>
        <time>2023-08-05T16:03:54.000Z</time>
      </trkpt>
      <trkpt lat="49.14974" lon="6.12361">
        <ele>251.80000305176</ele>
        <time>2023-08-05T16:03:55.000Z</time>
      </trkpt>
      <trkpt lat="49.14996" lon="6.12359">
        <ele>252.60000610352</ele>
        <time>2023-08-05T16:04:00.000Z</time>
      </trkpt>
      <trkpt lat="49.15009" lon="6.12358">
        <ele>253</ele>
        <time>2023-08-05T16:04:03.000Z</time>
      </trkpt>
      <trkpt lat="49.15022" lon="6.12357">
        <ele>253.80000305176</ele>
        <time>2023-08-05T16:04:06.000Z</time>
      </trkpt>
      <trkpt lat="49.15046" lon="6.12353">
        <ele>254.39999389648</ele>
        <time>2023-08-05T16:04:12.000Z</time>
      </trkpt>
      <trkpt lat="49.15071" lon="6.12345">
        <ele>254.80000305176</ele>
        <time>2023-08-05T16:04:18.000Z</time>
      </trkpt>
      <trkpt lat="49.15088" lon="6.12337">
        <ele>254.80000305176</ele>
        <time>2023-08-05T16:04:22.000Z</time>
      </trkpt>
      <trkpt lat="49.15125" lon="6.12314">
        <ele>254.60000610352</ele>
        <time>2023-08-05T16:04:30.000Z</time>
      </trkpt>
      <trkpt lat="49.15153" lon="6.12291">
        <ele>254</ele>
        <time>2023-08-05T16:04:35.000Z</time>
      </trkpt>
      <trkpt lat="49.15159" lon="6.12286">
        <ele>253.80000305176</ele>
        <time>2023-08-05T16:04:36.000Z</time>
      </trkpt>
      <trkpt lat="49.15179" lon="6.12268">
        <ele>252.80000305176</ele>
        <time>2023-08-05T16:04:39.000Z</time>
      </trkpt>
      <trkpt lat="49.15193" lon="6.12255">
        <ele>252.39999389648</ele>
        <time>2023-08-05T16:04:41.000Z</time>
      </trkpt>
      <trkpt lat="49.15208" lon="6.12242">
        <ele>251.60000610352</ele>
        <time>2023-08-05T16:04:43.000Z</time>
      </trkpt>
      <trkpt lat="49.15231" lon="6.12221">
        <ele>250</ele>
        <time>2023-08-05T16:04:46.000Z</time>
      </trkpt>
      <trkpt lat="49.15255" lon="6.122">
        <ele>248.80000305176</ele>
        <time>2023-08-05T16:04:49.000Z</time>
      </trkpt>
      <trkpt lat="49.15279" lon="6.12179">
        <ele>247.39999389648</ele>
        <time>2023-08-05T16:04:52.000Z</time>
      </trkpt>
      <trkpt lat="49.15302" lon="6.12158">
        <ele>246.39999389648</ele>
        <time>2023-08-05T16:04:55.000Z</time>
      </trkpt>
      <trkpt lat="49.15309" lon="6.12151">
        <ele>246</ele>
        <time>2023-08-05T16:04:56.000Z</time>
      </trkpt>
      <trkpt lat="49.15324" lon="6.12136">
        <ele>245.19999694824</ele>
        <time>2023-08-05T16:04:58.000Z</time>
      </trkpt>
      <trkpt lat="49.15342" lon="6.12112">
        <ele>244.19999694824</ele>
        <time>2023-08-05T16:05:01.000Z</time>
      </trkpt>
      <trkpt lat="49.15348" lon="6.12103">
        <ele>244</ele>
        <time>2023-08-05T16:05:02.000Z</time>
      </trkpt>
      <trkpt lat="49.1536" lon="6.12084">
        <ele>243.39999389648</ele>
        <time>2023-08-05T16:05:05.000Z</time>
      </trkpt>
      <trkpt lat="49.15364" lon="6.1208">
        <ele>243.19999694824</ele>
        <time>2023-08-05T16:05:06.000Z</time>
      </trkpt>
      <trkpt lat="49.15368" lon="6.12079">
        <ele>243</ele>
        <time>2023-08-05T16:05:07.000Z</time>
      </trkpt>
      <trkpt lat="49.15378" lon="6.12081">
        <ele>242.80000305176</ele>
        <time>2023-08-05T16:05:09.000Z</time>
      </trkpt>
      <trkpt lat="49.15387" lon="6.12074">
        <ele>242.60000610352</ele>
        <time>2023-08-05T16:05:11.000Z</time>
      </trkpt>
      <trkpt lat="49.1539" lon="6.12067">
        <ele>242.60000610352</ele>
        <time>2023-08-05T16:05:12.000Z</time>
      </trkpt>
      <trkpt lat="49.1539" lon="6.1206">
        <ele>242.60000610352</ele>
        <time>2023-08-05T16:05:13.000Z</time>
      </trkpt>
      <trkpt lat="49.15388" lon="6.12044">
        <ele>242.60000610352</ele>
        <time>2023-08-05T16:05:15.000Z</time>
      </trkpt>
      <trkpt lat="49.15388" lon="6.12036">
        <ele>242.60000610352</ele>
        <time>2023-08-05T16:05:16.000Z</time>
      </trkpt>
      <trkpt lat="49.15389" lon="6.1202">
        <ele>242.60000610352</ele>
        <time>2023-08-05T16:05:18.000Z</time>
      </trkpt>
      <trkpt lat="49.1539" lon="6.12013">
        <ele>242.60000610352</ele>
        <time>2023-08-05T16:05:19.000Z</time>
      </trkpt>
      <trkpt lat="49.15406" lon="6.11966">
        <ele>242.80000305176</ele>
        <time>2023-08-05T16:05:26.000Z</time>
      </trkpt>
      <trkpt lat="49.15428" lon="6.11909">
        <ele>243.80000305176</ele>
        <time>2023-08-05T16:05:35.000Z</time>
      </trkpt>
      <trkpt lat="49.15441" lon="6.11872">
        <ele>244.39999389648</ele>
        <time>2023-08-05T16:05:41.000Z</time>
      </trkpt>
      <trkpt lat="49.15451" lon="6.11848">
        <ele>244.80000305176</ele>
        <time>2023-08-05T16:05:45.000Z</time>
      </trkpt>
      <trkpt lat="49.15469" lon="6.118">
        <ele>245.39999389648</ele>
        <time>2023-08-05T16:05:53.000Z</time>
      </trkpt>
      <trkpt lat="49.15474" lon="6.11789">
        <ele>245.60000610352</ele>
        <time>2023-08-05T16:05:55.000Z</time>
      </trkpt>
      <trkpt lat="49.1548" lon="6.11779">
        <ele>245.80000305176</ele>
        <time>2023-08-05T16:05:57.000Z</time>
      </trkpt>
      <trkpt lat="49.15484" lon="6.11767">
        <ele>245.80000305176</ele>
        <time>2023-08-05T16:05:59.000Z</time>
      </trkpt>
      <trkpt lat="49.1549" lon="6.11726">
        <ele>246.39999389648</ele>
        <time>2023-08-05T16:06:05.000Z</time>
      </trkpt>
      <trkpt lat="49.15506" lon="6.11657">
        <ele>247.19999694824</ele>
        <time>2023-08-05T16:06:16.000Z</time>
      </trkpt>
      <trkpt lat="49.15511" lon="6.11637">
        <ele>247.39999389648</ele>
        <time>2023-08-05T16:06:19.000Z</time>
      </trkpt>
      <trkpt lat="49.1552" lon="6.116">
        <ele>248.39999389648</ele>
        <time>2023-08-05T16:06:25.000Z</time>
      </trkpt>
      <trkpt lat="49.15526" lon="6.11575">
        <ele>248.60000610352</ele>
        <time>2023-08-05T16:06:29.000Z</time>
      </trkpt>
      <trkpt lat="49.15534" lon="6.11538">
        <ele>249.19999694824</ele>
        <time>2023-08-05T16:06:35.000Z</time>
      </trkpt>
      <trkpt lat="49.15544" lon="6.11484">
        <ele>249.60000610352</ele>
        <time>2023-08-05T16:06:44.000Z</time>
      </trkpt>
      <trkpt lat="49.15552" lon="6.11442">
        <ele>250.19999694824</ele>
        <time>2023-08-05T16:06:51.000Z</time>
      </trkpt>
      <trkpt lat="49.15555" lon="6.11431">
        <ele>250.19999694824</ele>
        <time>2023-08-05T16:06:53.000Z</time>
      </trkpt>
      <trkpt lat="49.15559" lon="6.11413">
        <ele>250.60000610352</ele>
        <time>2023-08-05T16:06:56.000Z</time>
      </trkpt>
      <trkpt lat="49.15561" lon="6.11402">
        <ele>250.80000305176</ele>
        <time>2023-08-05T16:06:58.000Z</time>
      </trkpt>
      <trkpt lat="49.15565" lon="6.11384">
        <ele>251</ele>
        <time>2023-08-05T16:07:01.000Z</time>
      </trkpt>
      <trkpt lat="49.15577" lon="6.11326">
        <ele>251.80000305176</ele>
        <time>2023-08-05T16:07:11.000Z</time>
      </trkpt>
      <trkpt lat="49.15589" lon="6.11274">
        <ele>252.39999389648</ele>
        <time>2023-08-05T16:07:20.000Z</time>
      </trkpt>
      <trkpt lat="49.15593" lon="6.11251">
        <ele>252.80000305176</ele>
        <time>2023-08-05T16:07:24.000Z</time>
      </trkpt>
      <trkpt lat="49.15599" lon="6.11226">
        <ele>253.39999389648</ele>
        <time>2023-08-05T16:07:29.000Z</time>
      </trkpt>
      <trkpt lat="49.15604" lon="6.11204">
        <ele>254</ele>
        <time>2023-08-05T16:07:34.000Z</time>
      </trkpt>
      <trkpt lat="49.15605" lon="6.112">
        <ele>254</ele>
        <time>2023-08-05T16:07:35.000Z</time>
      </trkpt>
      <trkpt lat="49.15611" lon="6.11177">
        <ele>255</ele>
        <time>2023-08-05T16:07:41.000Z</time>
      </trkpt>
      <trkpt lat="49.15615" lon="6.11161">
        <ele>255.60000610352</ele>
        <time>2023-08-05T16:07:45.000Z</time>
      </trkpt>
      <trkpt lat="49.15618" lon="6.11149">
        <ele>256.20001220703</ele>
        <time>2023-08-05T16:07:48.000Z</time>
      </trkpt>
      <trkpt lat="49.15624" lon="6.11125">
        <ele>257</ele>
        <time>2023-08-05T16:07:54.000Z</time>
      </trkpt>
      <trkpt lat="49.15625" lon="6.11121">
        <ele>257.20001220703</ele>
        <time>2023-08-05T16:07:55.000Z</time>
      </trkpt>
      <trkpt lat="49.15632" lon="6.11093">
        <ele>258.39999389648</ele>
        <time>2023-08-05T16:08:02.000Z</time>
      </trkpt>
      <trkpt lat="49.15633" lon="6.11085">
        <ele>258.39999389648</ele>
        <time>2023-08-05T16:08:04.000Z</time>
      </trkpt>
      <trkpt lat="49.15641" lon="6.11061">
        <ele>259.39999389648</ele>
        <time>2023-08-05T16:08:11.000Z</time>
      </trkpt>
      <trkpt lat="49.15641" lon="6.1106">
        <ele>259.39999389648</ele>
        <time>2023-08-05T16:08:12.000Z</time>
      </trkpt>
      <trkpt lat="49.15641" lon="6.1106">
        <ele>259.79998779297</ele>
        <time>2023-08-05T16:08:14.000Z</time>
      </trkpt>
      <trkpt lat="49.15642" lon="6.11055">
        <ele>260.20001220703</ele>
        <time>2023-08-05T16:09:03.000Z</time>
      </trkpt>
      <trkpt lat="49.15643" lon="6.11053">
        <ele>260.20001220703</ele>
        <time>2023-08-05T16:09:04.000Z</time>
      </trkpt>
      <trkpt lat="49.15647" lon="6.11034">
        <ele>260.60000610352</ele>
        <time>2023-08-05T16:09:09.000Z</time>
      </trkpt>
      <trkpt lat="49.15648" lon="6.1103">
        <ele>260.79998779297</ele>
        <time>2023-08-05T16:09:10.000Z</time>
      </trkpt>
      <trkpt lat="49.15655" lon="6.11008">
        <ele>261.60000610352</ele>
        <time>2023-08-05T16:09:16.000Z</time>
      </trkpt>
      <trkpt lat="49.15659" lon="6.10999">
        <ele>262</ele>
        <time>2023-08-05T16:09:19.000Z</time>
      </trkpt>
      <trkpt lat="49.15665" lon="6.10985">
        <ele>262.79998779297</ele>
        <time>2023-08-05T16:09:24.000Z</time>
      </trkpt>
      <trkpt lat="49.15667" lon="6.10983">
        <ele>263</ele>
        <time>2023-08-05T16:09:25.000Z</time>
      </trkpt>
      <trkpt lat="49.15673" lon="6.10973">
        <ele>263.79998779297</ele>
        <time>2023-08-05T16:09:29.000Z</time>
      </trkpt>
      <trkpt lat="49.15682" lon="6.1096">
        <ele>264.79998779297</ele>
        <time>2023-08-05T16:09:35.000Z</time>
      </trkpt>
      <trkpt lat="49.15684" lon="6.10958">
        <ele>265.20001220703</ele>
        <time>2023-08-05T16:09:36.000Z</time>
      </trkpt>
      <trkpt lat="49.15693" lon="6.10945">
        <ele>266.20001220703</ele>
        <time>2023-08-05T16:09:42.000Z</time>
      </trkpt>
      <trkpt lat="49.15697" lon="6.1094">
        <ele>266.60000610352</ele>
        <time>2023-08-05T16:09:44.000Z</time>
      </trkpt>
      <trkpt lat="49.15701" lon="6.10934">
        <ele>267.39999389648</ele>
        <time>2023-08-05T16:09:47.000Z</time>
      </trkpt>
      <trkpt lat="49.1571" lon="6.10921">
        <ele>268.39999389648</ele>
        <time>2023-08-05T16:09:53.000Z</time>
      </trkpt>
      <trkpt lat="49.15713" lon="6.10917">
        <ele>269</ele>
        <time>2023-08-05T16:09:55.000Z</time>
      </trkpt>
      <trkpt lat="49.15716" lon="6.10913">
        <ele>269.39999389648</ele>
        <time>2023-08-05T16:09:57.000Z</time>
      </trkpt>
      <trkpt lat="49.15723" lon="6.10902">
        <ele>270.60000610352</ele>
        <time>2023-08-05T16:10:02.000Z</time>
      </trkpt>
      <trkpt lat="49.15728" lon="6.10896">
        <ele>271.20001220703</ele>
        <time>2023-08-05T16:10:05.000Z</time>
      </trkpt>
      <trkpt lat="49.1573" lon="6.10894">
        <ele>271.60000610352</ele>
        <time>2023-08-05T16:10:06.000Z</time>
      </trkpt>
      <trkpt lat="49.15736" lon="6.10886">
        <ele>272.79998779297</ele>
        <time>2023-08-05T16:10:10.000Z</time>
      </trkpt>
      <trkpt lat="49.1574" lon="6.1088">
        <ele>273.60000610352</ele>
        <time>2023-08-05T16:10:13.000Z</time>
      </trkpt>
      <trkpt lat="49.15743" lon="6.10876">
        <ele>274</ele>
        <time>2023-08-05T16:10:15.000Z</time>
      </trkpt>
      <trkpt lat="49.1575" lon="6.10867">
        <ele>275.20001220703</ele>
        <time>2023-08-05T16:10:20.000Z</time>
      </trkpt>
      <trkpt lat="49.15757" lon="6.10856">
        <ele>276.39999389648</ele>
        <time>2023-08-05T16:10:25.000Z</time>
      </trkpt>
      <trkpt lat="49.15763" lon="6.10846">
        <ele>277.60000610352</ele>
        <time>2023-08-05T16:10:30.000Z</time>
      </trkpt>
      <trkpt lat="49.15769" lon="6.10835">
        <ele>278.79998779297</ele>
        <time>2023-08-05T16:10:35.000Z</time>
      </trkpt>
      <trkpt lat="49.1577" lon="6.10833">
        <ele>278.79998779297</ele>
        <time>2023-08-05T16:10:36.000Z</time>
      </trkpt>
      <trkpt lat="49.15775" lon="6.10824">
        <ele>280</ele>
        <time>2023-08-05T16:10:40.000Z</time>
      </trkpt>
      <trkpt lat="49.15778" lon="6.10816">
        <ele>280.39999389648</ele>
        <time>2023-08-05T16:10:43.000Z</time>
      </trkpt>
      <trkpt lat="49.1578" lon="6.10811">
        <ele>281</ele>
        <time>2023-08-05T16:10:45.000Z</time>
      </trkpt>
      <trkpt lat="49.15784" lon="6.10801">
        <ele>282</ele>
        <time>2023-08-05T16:10:49.000Z</time>
      </trkpt>
      <trkpt lat="49.15785" lon="6.10799">
        <ele>282.20001220703</ele>
        <time>2023-08-05T16:10:50.000Z</time>
      </trkpt>
      <trkpt lat="49.15791" lon="6.10777">
        <ele>283.20001220703</ele>
        <time>2023-08-05T16:10:57.000Z</time>
      </trkpt>
      <trkpt lat="49.15792" lon="6.10774">
        <ele>283.39999389648</ele>
        <time>2023-08-05T16:10:58.000Z</time>
      </trkpt>
      <trkpt lat="49.15798" lon="6.10754">
        <ele>284.39999389648</ele>
        <time>2023-08-05T16:11:05.000Z</time>
      </trkpt>
      <trkpt lat="49.15802" lon="6.10742">
        <ele>285</ele>
        <time>2023-08-05T16:11:09.000Z</time>
      </trkpt>
      <trkpt lat="49.15806" lon="6.10729">
        <ele>285.60000610352</ele>
        <time>2023-08-05T16:11:13.000Z</time>
      </trkpt>
      <trkpt lat="49.15808" lon="6.10723">
        <ele>285.60000610352</ele>
        <time>2023-08-05T16:11:15.000Z</time>
      </trkpt>
      <trkpt lat="49.15817" lon="6.10699">
        <ele>286.39999389648</ele>
        <time>2023-08-05T16:11:22.000Z</time>
      </trkpt>
      <trkpt lat="49.15828" lon="6.10663">
        <ele>287</ele>
        <time>2023-08-05T16:11:32.000Z</time>
      </trkpt>
      <trkpt lat="49.15833" lon="6.10655">
        <ele>287.39999389648</ele>
        <time>2023-08-05T16:11:35.000Z</time>
      </trkpt>
      <trkpt lat="49.15842" lon="6.10644">
        <ele>288.20001220703</ele>
        <time>2023-08-05T16:11:39.000Z</time>
      </trkpt>
      <trkpt lat="49.15848" lon="6.10637">
        <ele>288.60000610352</ele>
        <time>2023-08-05T16:11:42.000Z</time>
      </trkpt>
      <trkpt lat="49.1586" lon="6.10624">
        <ele>289.39999389648</ele>
        <time>2023-08-05T16:11:48.000Z</time>
      </trkpt>
      <trkpt lat="49.15867" lon="6.10617">
        <ele>289.79998779297</ele>
        <time>2023-08-05T16:11:51.000Z</time>
      </trkpt>
      <trkpt lat="49.15876" lon="6.10606">
        <ele>290.60000610352</ele>
        <time>2023-08-05T16:11:56.000Z</time>
      </trkpt>
      <trkpt lat="49.15881" lon="6.10603">
        <ele>290.79998779297</ele>
        <time>2023-08-05T16:11:58.000Z</time>
      </trkpt>
      <trkpt lat="49.15892" lon="6.10597">
        <ele>291.39999389648</ele>
        <time>2023-08-05T16:12:03.000Z</time>
      </trkpt>
      <trkpt lat="49.15899" lon="6.10593">
        <ele>292</ele>
        <time>2023-08-05T16:12:06.000Z</time>
      </trkpt>
      <trkpt lat="49.15911" lon="6.10586">
        <ele>293</ele>
        <time>2023-08-05T16:12:12.000Z</time>
      </trkpt>
      <trkpt lat="49.15921" lon="6.10578">
        <ele>294</ele>
        <time>2023-08-05T16:12:17.000Z</time>
      </trkpt>
      <trkpt lat="49.15926" lon="6.10573">
        <ele>294.60000610352</ele>
        <time>2023-08-05T16:12:20.000Z</time>
      </trkpt>
      <trkpt lat="49.1593" lon="6.10569">
        <ele>295.20001220703</ele>
        <time>2023-08-05T16:12:22.000Z</time>
      </trkpt>
      <trkpt lat="49.15939" lon="6.10558">
        <ele>295.79998779297</ele>
        <time>2023-08-05T16:12:27.000Z</time>
      </trkpt>
      <trkpt lat="49.15942" lon="6.10553">
        <ele>296.20001220703</ele>
        <time>2023-08-05T16:12:29.000Z</time>
      </trkpt>
      <trkpt lat="49.15948" lon="6.10538">
        <ele>297.60000610352</ele>
        <time>2023-08-05T16:12:34.000Z</time>
      </trkpt>
      <trkpt lat="49.15951" lon="6.10533">
        <ele>298</ele>
        <time>2023-08-05T16:12:36.000Z</time>
      </trkpt>
      <trkpt lat="49.15954" lon="6.10525">
        <ele>298.60000610352</ele>
        <time>2023-08-05T16:12:39.000Z</time>
      </trkpt>
      <trkpt lat="49.15959" lon="6.10514">
        <ele>299.39999389648</ele>
        <time>2023-08-05T16:12:43.000Z</time>
      </trkpt>
      <trkpt lat="49.1596" lon="6.10512">
        <ele>299.60000610352</ele>
        <time>2023-08-05T16:12:44.000Z</time>
      </trkpt>
      <trkpt lat="49.15965" lon="6.10502">
        <ele>300.60000610352</ele>
        <time>2023-08-05T16:12:48.000Z</time>
      </trkpt>
      <trkpt lat="49.15969" lon="6.10493">
        <ele>301.39999389648</ele>
        <time>2023-08-05T16:12:52.000Z</time>
      </trkpt>
      <trkpt lat="49.1597" lon="6.1049">
        <ele>301.79998779297</ele>
        <time>2023-08-05T16:12:53.000Z</time>
      </trkpt>
      <trkpt lat="49.15976" lon="6.10479">
        <ele>303</ele>
        <time>2023-08-05T16:12:58.000Z</time>
      </trkpt>
      <trkpt lat="49.15978" lon="6.10473">
        <ele>303.20001220703</ele>
        <time>2023-08-05T16:13:00.000Z</time>
      </trkpt>
      <trkpt lat="49.15984" lon="6.10461">
        <ele>304.20001220703</ele>
        <time>2023-08-05T16:13:05.000Z</time>
      </trkpt>
      <trkpt lat="49.15987" lon="6.10456">
        <ele>304.60000610352</ele>
        <time>2023-08-05T16:13:07.000Z</time>
      </trkpt>
      <trkpt lat="49.15991" lon="6.10449">
        <ele>305.20001220703</ele>
        <time>2023-08-05T16:13:10.000Z</time>
      </trkpt>
      <trkpt lat="49.16001" lon="6.10432">
        <ele>306.20001220703</ele>
        <time>2023-08-05T16:13:17.000Z</time>
      </trkpt>
      <trkpt lat="49.16002" lon="6.1043">
        <ele>306.60000610352</ele>
        <time>2023-08-05T16:13:18.000Z</time>
      </trkpt>
      <trkpt lat="49.16013" lon="6.10412">
        <ele>307.60000610352</ele>
        <time>2023-08-05T16:13:25.000Z</time>
      </trkpt>
      <trkpt lat="49.16015" lon="6.1041">
        <ele>307.79998779297</ele>
        <time>2023-08-05T16:13:26.000Z</time>
      </trkpt>
      <trkpt lat="49.16023" lon="6.10395">
        <ele>308.79998779297</ele>
        <time>2023-08-05T16:13:32.000Z</time>
      </trkpt>
      <trkpt lat="49.16026" lon="6.10391">
        <ele>309</ele>
        <time>2023-08-05T16:13:34.000Z</time>
      </trkpt>
      <trkpt lat="49.16035" lon="6.10377">
        <ele>309.79998779297</ele>
        <time>2023-08-05T16:13:40.000Z</time>
      </trkpt>
      <trkpt lat="49.16038" lon="6.10372">
        <ele>310.20001220703</ele>
        <time>2023-08-05T16:13:42.000Z</time>
      </trkpt>
      <trkpt lat="49.16044" lon="6.10363">
        <ele>310.79998779297</ele>
        <time>2023-08-05T16:13:46.000Z</time>
      </trkpt>
      <trkpt lat="49.16052" lon="6.10353">
        <ele>311.39999389648</ele>
        <time>2023-08-05T16:13:51.000Z</time>
      </trkpt>
      <trkpt lat="49.16056" lon="6.10347">
        <ele>311.79998779297</ele>
        <time>2023-08-05T16:13:54.000Z</time>
      </trkpt>
      <trkpt lat="49.16062" lon="6.10337">
        <ele>312.60000610352</ele>
        <time>2023-08-05T16:13:58.000Z</time>
      </trkpt>
      <trkpt lat="49.16067" lon="6.1033">
        <ele>313</ele>
        <time>2023-08-05T16:14:01.000Z</time>
      </trkpt>
      <trkpt lat="49.16076" lon="6.10317">
        <ele>313.79998779297</ele>
        <time>2023-08-05T16:14:07.000Z</time>
      </trkpt>
      <trkpt lat="49.16079" lon="6.10312">
        <ele>314.20001220703</ele>
        <time>2023-08-05T16:14:09.000Z</time>
      </trkpt>
      <trkpt lat="49.16087" lon="6.103">
        <ele>315.20001220703</ele>
        <time>2023-08-05T16:14:14.000Z</time>
      </trkpt>
      <trkpt lat="49.16089" lon="6.10298">
        <ele>315.39999389648</ele>
        <time>2023-08-05T16:14:15.000Z</time>
      </trkpt>
      <trkpt lat="49.16097" lon="6.10283">
        <ele>316.20001220703</ele>
        <time>2023-08-05T16:14:21.000Z</time>
      </trkpt>
      <trkpt lat="49.161" lon="6.10278">
        <ele>316.39999389648</ele>
        <time>2023-08-05T16:14:23.000Z</time>
      </trkpt>
      <trkpt lat="49.16111" lon="6.10259">
        <ele>317.39999389648</ele>
        <time>2023-08-05T16:14:30.000Z</time>
      </trkpt>
      <trkpt lat="49.16114" lon="6.10255">
        <ele>317.60000610352</ele>
        <time>2023-08-05T16:14:32.000Z</time>
      </trkpt>
      <trkpt lat="49.1612" lon="6.10246">
        <ele>318.39999389648</ele>
        <time>2023-08-05T16:14:36.000Z</time>
      </trkpt>
      <trkpt lat="49.16124" lon="6.10239">
        <ele>318.79998779297</ele>
        <time>2023-08-05T16:14:39.000Z</time>
      </trkpt>
      <trkpt lat="49.16131" lon="6.10227">
        <ele>319.39999389648</ele>
        <time>2023-08-05T16:14:44.000Z</time>
      </trkpt>
      <trkpt lat="49.16136" lon="6.10221">
        <ele>320</ele>
        <time>2023-08-05T16:14:47.000Z</time>
      </trkpt>
      <trkpt lat="49.16141" lon="6.10215">
        <ele>320.39999389648</ele>
        <time>2023-08-05T16:14:50.000Z</time>
      </trkpt>
      <trkpt lat="49.16144" lon="6.10211">
        <ele>320.79998779297</ele>
        <time>2023-08-05T16:14:52.000Z</time>
      </trkpt>
      <trkpt lat="49.16147" lon="6.10206">
        <ele>321.39999389648</ele>
        <time>2023-08-05T16:14:55.000Z</time>
      </trkpt>
      <trkpt lat="49.16149" lon="6.10206">
        <ele>321.60000610352</ele>
        <time>2023-08-05T16:14:56.000Z</time>
      </trkpt>
      <trkpt lat="49.16151" lon="6.10204">
        <ele>321.79998779297</ele>
        <time>2023-08-05T16:14:57.000Z</time>
      </trkpt>
      <trkpt lat="49.16159" lon="6.10199">
        <ele>322.79998779297</ele>
        <time>2023-08-05T16:15:01.000Z</time>
      </trkpt>
      <trkpt lat="49.16161" lon="6.10197">
        <ele>322.79998779297</ele>
        <time>2023-08-05T16:15:02.000Z</time>
      </trkpt>
      <trkpt lat="49.16176" lon="6.10187">
        <ele>323.60000610352</ele>
        <time>2023-08-05T16:15:09.000Z</time>
      </trkpt>
      <trkpt lat="49.16178" lon="6.10185">
        <ele>323.79998779297</ele>
        <time>2023-08-05T16:15:10.000Z</time>
      </trkpt>
      <trkpt lat="49.16188" lon="6.10177">
        <ele>324.60000610352</ele>
        <time>2023-08-05T16:15:15.000Z</time>
      </trkpt>
      <trkpt lat="49.16192" lon="6.10174">
        <ele>325</ele>
        <time>2023-08-05T16:15:17.000Z</time>
      </trkpt>
      <trkpt lat="49.16204" lon="6.10166">
        <ele>325.79998779297</ele>
        <time>2023-08-05T16:15:23.000Z</time>
      </trkpt>
      <trkpt lat="49.16206" lon="6.10165">
        <ele>326.20001220703</ele>
        <time>2023-08-05T16:15:24.000Z</time>
      </trkpt>
      <trkpt lat="49.16215" lon="6.10161">
        <ele>327.39999389648</ele>
        <time>2023-08-05T16:15:29.000Z</time>
      </trkpt>
      <trkpt lat="49.16219" lon="6.10158">
        <ele>327.60000610352</ele>
        <time>2023-08-05T16:15:31.000Z</time>
      </trkpt>
      <trkpt lat="49.16222" lon="6.10156">
        <ele>328</ele>
        <time>2023-08-05T16:15:33.000Z</time>
      </trkpt>
      <trkpt lat="49.16224" lon="6.10155">
        <ele>328.39999389648</ele>
        <time>2023-08-05T16:15:35.000Z</time>
      </trkpt>
      <trkpt lat="49.16226" lon="6.10154">
        <ele>328.60000610352</ele>
        <time>2023-08-05T16:15:36.000Z</time>
      </trkpt>
      <trkpt lat="49.16236" lon="6.10146">
        <ele>329.60000610352</ele>
        <time>2023-08-05T16:15:41.000Z</time>
      </trkpt>
      <trkpt lat="49.16239" lon="6.10142">
        <ele>330</ele>
        <time>2023-08-05T16:15:43.000Z</time>
      </trkpt>
      <trkpt lat="49.16247" lon="6.10133">
        <ele>330.60000610352</ele>
        <time>2023-08-05T16:15:47.000Z</time>
      </trkpt>
      <trkpt lat="49.16256" lon="6.10123">
        <ele>331.79998779297</ele>
        <time>2023-08-05T16:15:52.000Z</time>
      </trkpt>
      <trkpt lat="49.16264" lon="6.10113">
        <ele>332.79998779297</ele>
        <time>2023-08-05T16:15:57.000Z</time>
      </trkpt>
      <trkpt lat="49.16268" lon="6.10109">
        <ele>333</ele>
        <time>2023-08-05T16:15:59.000Z</time>
      </trkpt>
      <trkpt lat="49.16276" lon="6.101">
        <ele>333.79998779297</ele>
        <time>2023-08-05T16:16:04.000Z</time>
      </trkpt>
      <trkpt lat="49.1628" lon="6.10095">
        <ele>334.39999389648</ele>
        <time>2023-08-05T16:16:07.000Z</time>
      </trkpt>
      <trkpt lat="49.16282" lon="6.10093">
        <ele>334.39999389648</ele>
        <time>2023-08-05T16:16:08.000Z</time>
      </trkpt>
      <trkpt lat="49.16288" lon="6.10088">
        <ele>335</ele>
        <time>2023-08-05T16:16:12.000Z</time>
      </trkpt>
      <trkpt lat="49.16296" lon="6.10078">
        <ele>335.79998779297</ele>
        <time>2023-08-05T16:16:18.000Z</time>
      </trkpt>
      <trkpt lat="49.16297" lon="6.10076">
        <ele>336.20001220703</ele>
        <time>2023-08-05T16:16:19.000Z</time>
      </trkpt>
      <trkpt lat="49.16304" lon="6.10065">
        <ele>337.20001220703</ele>
        <time>2023-08-05T16:16:25.000Z</time>
      </trkpt>
      <trkpt lat="49.16307" lon="6.1006">
        <ele>337.60000610352</ele>
        <time>2023-08-05T16:16:27.000Z</time>
      </trkpt>
      <trkpt lat="49.1631" lon="6.10055">
        <ele>338</ele>
        <time>2023-08-05T16:16:29.000Z</time>
      </trkpt>
      <trkpt lat="49.16313" lon="6.1005">
        <ele>338.39999389648</ele>
        <time>2023-08-05T16:16:31.000Z</time>
      </trkpt>
      <trkpt lat="49.16314" lon="6.10048">
        <ele>338.39999389648</ele>
        <time>2023-08-05T16:16:32.000Z</time>
      </trkpt>
      <trkpt lat="49.16322" lon="6.10031">
        <ele>339.39999389648</ele>
        <time>2023-08-05T16:16:38.000Z</time>
      </trkpt>
      <trkpt lat="49.16323" lon="6.10028">
        <ele>339.60000610352</ele>
        <time>2023-08-05T16:16:39.000Z</time>
      </trkpt>
      <trkpt lat="49.16333" lon="6.10013">
        <ele>340.60000610352</ele>
        <time>2023-08-05T16:16:45.000Z</time>
      </trkpt>
      <trkpt lat="49.1634" lon="6.09998">
        <ele>341.79998779297</ele>
        <time>2023-08-05T16:16:51.000Z</time>
      </trkpt>
      <trkpt lat="49.16343" lon="6.09993">
        <ele>342</ele>
        <time>2023-08-05T16:16:53.000Z</time>
      </trkpt>
      <trkpt lat="49.16351" lon="6.09979">
        <ele>343</ele>
        <time>2023-08-05T16:16:59.000Z</time>
      </trkpt>
      <trkpt lat="49.16352" lon="6.09976">
        <ele>343.20001220703</ele>
        <time>2023-08-05T16:17:00.000Z</time>
      </trkpt>
      <trkpt lat="49.16358" lon="6.09963">
        <ele>344</ele>
        <time>2023-08-05T16:17:05.000Z</time>
      </trkpt>
      <trkpt lat="49.16361" lon="6.09957">
        <ele>344.79998779297</ele>
        <time>2023-08-05T16:17:08.000Z</time>
      </trkpt>
      <trkpt lat="49.16363" lon="6.09951">
        <ele>345.20001220703</ele>
        <time>2023-08-05T16:17:10.000Z</time>
      </trkpt>
      <trkpt lat="49.1637" lon="6.09935">
        <ele>346.39999389648</ele>
        <time>2023-08-05T16:17:16.000Z</time>
      </trkpt>
      <trkpt lat="49.16377" lon="6.09921">
        <ele>347.39999389648</ele>
        <time>2023-08-05T16:17:22.000Z</time>
      </trkpt>
      <trkpt lat="49.16382" lon="6.09908">
        <ele>348.39999389648</ele>
        <time>2023-08-05T16:17:27.000Z</time>
      </trkpt>
      <trkpt lat="49.16386" lon="6.09901">
        <ele>349</ele>
        <time>2023-08-05T16:17:30.000Z</time>
      </trkpt>
      <trkpt lat="49.16389" lon="6.09893">
        <ele>349.60000610352</ele>
        <time>2023-08-05T16:17:33.000Z</time>
      </trkpt>
      <trkpt lat="49.16396" lon="6.09878">
        <ele>350.39999389648</ele>
        <time>2023-08-05T16:17:39.000Z</time>
      </trkpt>
      <trkpt lat="49.16397" lon="6.09875">
        <ele>350.79998779297</ele>
        <time>2023-08-05T16:17:40.000Z</time>
      </trkpt>
      <trkpt lat="49.16403" lon="6.09859">
        <ele>351.60000610352</ele>
        <time>2023-08-05T16:17:46.000Z</time>
      </trkpt>
      <trkpt lat="49.16408" lon="6.09847">
        <ele>352.60000610352</ele>
        <time>2023-08-05T16:17:51.000Z</time>
      </trkpt>
      <trkpt lat="49.16409" lon="6.09844">
        <ele>352.60000610352</ele>
        <time>2023-08-05T16:17:52.000Z</time>
      </trkpt>
      <trkpt lat="49.16414" lon="6.09829">
        <ele>353.79998779297</ele>
        <time>2023-08-05T16:17:58.000Z</time>
      </trkpt>
      <trkpt lat="49.16415" lon="6.09824">
        <ele>354</ele>
        <time>2023-08-05T16:18:00.000Z</time>
      </trkpt>
      <trkpt lat="49.16419" lon="6.09814">
        <ele>354.79998779297</ele>
        <time>2023-08-05T16:18:04.000Z</time>
      </trkpt>
      <trkpt lat="49.16421" lon="6.09806">
        <ele>355</ele>
        <time>2023-08-05T16:18:07.000Z</time>
      </trkpt>
      <trkpt lat="49.16423" lon="6.09798">
        <ele>355.79998779297</ele>
        <time>2023-08-05T16:18:10.000Z</time>
      </trkpt>
      <trkpt lat="49.16428" lon="6.09781">
        <ele>357</ele>
        <time>2023-08-05T16:18:16.000Z</time>
      </trkpt>
      <trkpt lat="49.16433" lon="6.09764">
        <ele>358.20001220703</ele>
        <time>2023-08-05T16:18:23.000Z</time>
      </trkpt>
      <trkpt lat="49.16434" lon="6.09762">
        <ele>358.39999389648</ele>
        <time>2023-08-05T16:18:24.000Z</time>
      </trkpt>
      <trkpt lat="49.16436" lon="6.09752">
        <ele>359.20001220703</ele>
        <time>2023-08-05T16:18:28.000Z</time>
      </trkpt>
      <trkpt lat="49.1644" lon="6.09742">
        <ele>360.20001220703</ele>
        <time>2023-08-05T16:18:32.000Z</time>
      </trkpt>
      <trkpt lat="49.16442" lon="6.09737">
        <ele>360.60000610352</ele>
        <time>2023-08-05T16:18:34.000Z</time>
      </trkpt>
      <trkpt lat="49.16444" lon="6.0973">
        <ele>361.20001220703</ele>
        <time>2023-08-05T16:18:37.000Z</time>
      </trkpt>
      <trkpt lat="49.16445" lon="6.09727">
        <ele>361.39999389648</ele>
        <time>2023-08-05T16:18:38.000Z</time>
      </trkpt>
      <trkpt lat="49.16447" lon="6.0972">
        <ele>362</ele>
        <time>2023-08-05T16:18:41.000Z</time>
      </trkpt>
      <trkpt lat="49.16448" lon="6.09714">
        <ele>362.39999389648</ele>
        <time>2023-08-05T16:18:43.000Z</time>
      </trkpt>
      <trkpt lat="49.1645" lon="6.09696">
        <ele>363.60000610352</ele>
        <time>2023-08-05T16:18:49.000Z</time>
      </trkpt>
      <trkpt lat="49.16451" lon="6.09693">
        <ele>363.79998779297</ele>
        <time>2023-08-05T16:18:50.000Z</time>
      </trkpt>
      <trkpt lat="49.16451" lon="6.09691">
        <ele>364</ele>
        <time>2023-08-05T16:18:51.000Z</time>
      </trkpt>
      <trkpt lat="49.16453" lon="6.09678">
        <ele>364.60000610352</ele>
        <time>2023-08-05T16:18:55.000Z</time>
      </trkpt>
      <trkpt lat="49.16455" lon="6.0966">
        <ele>365.79998779297</ele>
        <time>2023-08-05T16:19:01.000Z</time>
      </trkpt>
      <trkpt lat="49.16458" lon="6.09644">
        <ele>366.60000610352</ele>
        <time>2023-08-05T16:19:07.000Z</time>
      </trkpt>
      <trkpt lat="49.16458" lon="6.0964">
        <ele>366.79998779297</ele>
        <time>2023-08-05T16:19:08.000Z</time>
      </trkpt>
      <trkpt lat="49.16458" lon="6.09637">
        <ele>366.79998779297</ele>
        <time>2023-08-05T16:19:09.000Z</time>
      </trkpt>
      <trkpt lat="49.1646" lon="6.09622">
        <ele>367.79998779297</ele>
        <time>2023-08-05T16:19:14.000Z</time>
      </trkpt>
      <trkpt lat="49.16461" lon="6.09619">
        <ele>367.79998779297</ele>
        <time>2023-08-05T16:19:15.000Z</time>
      </trkpt>
      <trkpt lat="49.16463" lon="6.09606">
        <ele>368.79998779297</ele>
        <time>2023-08-05T16:19:20.000Z</time>
      </trkpt>
      <trkpt lat="49.16464" lon="6.09604">
        <ele>369</ele>
        <time>2023-08-05T16:19:21.000Z</time>
      </trkpt>
      <trkpt lat="49.16465" lon="6.096">
        <ele>369.39999389648</ele>
        <time>2023-08-05T16:19:23.000Z</time>
      </trkpt>
      <trkpt lat="49.16464" lon="6.09594">
        <ele>369.60000610352</ele>
        <time>2023-08-05T16:19:25.000Z</time>
      </trkpt>
      <trkpt lat="49.16465" lon="6.09587">
        <ele>370</ele>
        <time>2023-08-05T16:19:27.000Z</time>
      </trkpt>
      <trkpt lat="49.16467" lon="6.09573">
        <ele>371</ele>
        <time>2023-08-05T16:19:32.000Z</time>
      </trkpt>
      <trkpt lat="49.16468" lon="6.09552">
        <ele>372</ele>
        <time>2023-08-05T16:19:39.000Z</time>
      </trkpt>
      <trkpt lat="49.16471" lon="6.09534">
        <ele>373</ele>
        <time>2023-08-05T16:19:45.000Z</time>
      </trkpt>
      <trkpt lat="49.16472" lon="6.09525">
        <ele>373.79998779297</ele>
        <time>2023-08-05T16:19:48.000Z</time>
      </trkpt>
      <trkpt lat="49.16473" lon="6.09519">
        <ele>374.20001220703</ele>
        <time>2023-08-05T16:19:50.000Z</time>
      </trkpt>
      <trkpt lat="49.16475" lon="6.09503">
        <ele>375.20001220703</ele>
        <time>2023-08-05T16:19:56.000Z</time>
      </trkpt>
      <trkpt lat="49.16476" lon="6.095">
        <ele>375.39999389648</ele>
        <time>2023-08-05T16:19:57.000Z</time>
      </trkpt>
      <trkpt lat="49.16478" lon="6.09489">
        <ele>376.20001220703</ele>
        <time>2023-08-05T16:20:01.000Z</time>
      </trkpt>
      <trkpt lat="49.16481" lon="6.09476">
        <ele>377.20001220703</ele>
        <time>2023-08-05T16:20:06.000Z</time>
      </trkpt>
      <trkpt lat="49.16482" lon="6.09473">
        <ele>377.39999389648</ele>
        <time>2023-08-05T16:20:07.000Z</time>
      </trkpt>
      <trkpt lat="49.16483" lon="6.09459">
        <ele>378.39999389648</ele>
        <time>2023-08-05T16:20:12.000Z</time>
      </trkpt>
      <trkpt lat="49.16485" lon="6.09451">
        <ele>379.20001220703</ele>
        <time>2023-08-05T16:20:15.000Z</time>
      </trkpt>
      <trkpt lat="49.16486" lon="6.09446">
        <ele>379.60000610352</ele>
        <time>2023-08-05T16:20:17.000Z</time>
      </trkpt>
      <trkpt lat="49.16489" lon="6.09432">
        <ele>380.60000610352</ele>
        <time>2023-08-05T16:20:22.000Z</time>
      </trkpt>
      <trkpt lat="49.16492" lon="6.09419">
        <ele>381.60000610352</ele>
        <time>2023-08-05T16:20:27.000Z</time>
      </trkpt>
      <trkpt lat="49.16496" lon="6.09402">
        <ele>382.79998779297</ele>
        <time>2023-08-05T16:20:33.000Z</time>
      </trkpt>
      <trkpt lat="49.165" lon="6.09387">
        <ele>383.79998779297</ele>
        <time>2023-08-05T16:20:39.000Z</time>
      </trkpt>
      <trkpt lat="49.16502" lon="6.09381">
        <ele>384.20001220703</ele>
        <time>2023-08-05T16:20:41.000Z</time>
      </trkpt>
      <trkpt lat="49.16503" lon="6.09376">
        <ele>384.79998779297</ele>
        <time>2023-08-05T16:20:43.000Z</time>
      </trkpt>
      <trkpt lat="49.16509" lon="6.09361">
        <ele>385.79998779297</ele>
        <time>2023-08-05T16:20:49.000Z</time>
      </trkpt>
      <trkpt lat="49.16514" lon="6.09345">
        <ele>387</ele>
        <time>2023-08-05T16:20:55.000Z</time>
      </trkpt>
      <trkpt lat="49.1652" lon="6.0933">
        <ele>387.79998779297</ele>
        <time>2023-08-05T16:21:01.000Z</time>
      </trkpt>
      <trkpt lat="49.16522" lon="6.09325">
        <ele>388.20001220703</ele>
        <time>2023-08-05T16:21:03.000Z</time>
      </trkpt>
      <trkpt lat="49.16529" lon="6.0931">
        <ele>389.20001220703</ele>
        <time>2023-08-05T16:21:09.000Z</time>
      </trkpt>
      <trkpt lat="49.16532" lon="6.09305">
        <ele>389.60000610352</ele>
        <time>2023-08-05T16:21:11.000Z</time>
      </trkpt>
      <trkpt lat="49.16538" lon="6.09297">
        <ele>390.20001220703</ele>
        <time>2023-08-05T16:21:15.000Z</time>
      </trkpt>
      <trkpt lat="49.16544" lon="6.09289">
        <ele>391</ele>
        <time>2023-08-05T16:21:19.000Z</time>
      </trkpt>
      <trkpt lat="49.16549" lon="6.09285">
        <ele>391.39999389648</ele>
        <time>2023-08-05T16:21:22.000Z</time>
      </trkpt>
      <trkpt lat="49.16555" lon="6.09279">
        <ele>392</ele>
        <time>2023-08-05T16:21:26.000Z</time>
      </trkpt>
      <trkpt lat="49.16561" lon="6.09276">
        <ele>392.60000610352</ele>
        <time>2023-08-05T16:21:29.000Z</time>
      </trkpt>
      <trkpt lat="49.16568" lon="6.09273">
        <ele>393.39999389648</ele>
        <time>2023-08-05T16:21:33.000Z</time>
      </trkpt>
      <trkpt lat="49.16569" lon="6.09272">
        <ele>393.60000610352</ele>
        <time>2023-08-05T16:21:34.000Z</time>
      </trkpt>
      <trkpt lat="49.16569" lon="6.09272">
        <ele>393.79998779297</ele>
        <time>2023-08-05T16:21:35.000Z</time>
      </trkpt>
      <trkpt lat="49.16569" lon="6.09272">
        <ele>394.20001220703</ele>
        <time>2023-08-05T16:21:37.000Z</time>
      </trkpt>
      <trkpt lat="49.16573" lon="6.09272">
        <ele>395</ele>
        <time>2023-08-05T16:24:59.000Z</time>
      </trkpt>
      <trkpt lat="49.16573" lon="6.0927">
        <ele>395</ele>
        <time>2023-08-05T16:25:00.000Z</time>
      </trkpt>
      <trkpt lat="49.16573" lon="6.09265">
        <ele>395.20001220703</ele>
        <time>2023-08-05T16:25:02.000Z</time>
      </trkpt>
      <trkpt lat="49.16576" lon="6.09259">
        <ele>395.20001220703</ele>
        <time>2023-08-05T16:25:05.000Z</time>
      </trkpt>
      <trkpt lat="49.16589" lon="6.09244">
        <ele>395.60000610352</ele>
        <time>2023-08-05T16:25:13.000Z</time>
      </trkpt>
      <trkpt lat="49.16594" lon="6.09237">
        <ele>396</ele>
        <time>2023-08-05T16:25:16.000Z</time>
      </trkpt>
      <trkpt lat="49.16601" lon="6.09222">
        <ele>396.60000610352</ele>
        <time>2023-08-05T16:25:21.000Z</time>
      </trkpt>
      <trkpt lat="49.16607" lon="6.0921">
        <ele>397.20001220703</ele>
        <time>2023-08-05T16:25:25.000Z</time>
      </trkpt>
      <trkpt lat="49.16611" lon="6.09196">
        <ele>398</ele>
        <time>2023-08-05T16:25:29.000Z</time>
      </trkpt>
      <trkpt lat="49.16616" lon="6.09187">
        <ele>398.39999389648</ele>
        <time>2023-08-05T16:25:32.000Z</time>
      </trkpt>
      <trkpt lat="49.16619" lon="6.09177">
        <ele>399</ele>
        <time>2023-08-05T16:25:35.000Z</time>
      </trkpt>
      <trkpt lat="49.16621" lon="6.09173">
        <ele>399</ele>
        <time>2023-08-05T16:25:36.000Z</time>
      </trkpt>
      <trkpt lat="49.16624" lon="6.09164">
        <ele>399.60000610352</ele>
        <time>2023-08-05T16:25:39.000Z</time>
      </trkpt>
      <trkpt lat="49.16629" lon="6.09145">
        <ele>400.20001220703</ele>
        <time>2023-08-05T16:25:45.000Z</time>
      </trkpt>
      <trkpt lat="49.1663" lon="6.09134">
        <ele>400.60000610352</ele>
        <time>2023-08-05T16:25:48.000Z</time>
      </trkpt>
      <trkpt lat="49.1663" lon="6.09118">
        <ele>401.20001220703</ele>
        <time>2023-08-05T16:25:53.000Z</time>
      </trkpt>
      <trkpt lat="49.16629" lon="6.09112">
        <ele>401.60000610352</ele>
        <time>2023-08-05T16:25:55.000Z</time>
      </trkpt>
      <trkpt lat="49.16625" lon="6.09099">
        <ele>402.39999389648</ele>
        <time>2023-08-05T16:25:59.000Z</time>
      </trkpt>
      <trkpt lat="49.16618" lon="6.09086">
        <ele>403</ele>
        <time>2023-08-05T16:26:04.000Z</time>
      </trkpt>
      <trkpt lat="49.16613" lon="6.09079">
        <ele>403.60000610352</ele>
        <time>2023-08-05T16:26:07.000Z</time>
      </trkpt>
      <trkpt lat="49.1661" lon="6.09075">
        <ele>404</ele>
        <time>2023-08-05T16:26:09.000Z</time>
      </trkpt>
      <trkpt lat="49.16598" lon="6.09062">
        <ele>404.79998779297</ele>
        <time>2023-08-05T16:26:15.000Z</time>
      </trkpt>
      <trkpt lat="49.16593" lon="6.09056">
        <ele>405</ele>
        <time>2023-08-05T16:26:18.000Z</time>
      </trkpt>
      <trkpt lat="49.16586" lon="6.09051">
        <ele>405.20001220703</ele>
        <time>2023-08-05T16:26:21.000Z</time>
      </trkpt>
      <trkpt lat="49.16574" lon="6.09037">
        <ele>406</ele>
        <time>2023-08-05T16:26:27.000Z</time>
      </trkpt>
      <trkpt lat="49.16569" lon="6.09033">
        <ele>406.20001220703</ele>
        <time>2023-08-05T16:26:29.000Z</time>
      </trkpt>
      <trkpt lat="49.16557" lon="6.09019">
        <ele>407.20001220703</ele>
        <time>2023-08-05T16:26:35.000Z</time>
      </trkpt>
      <trkpt lat="49.16552" lon="6.09014">
        <ele>407.39999389648</ele>
        <time>2023-08-05T16:26:37.000Z</time>
      </trkpt>
      <trkpt lat="49.16539" lon="6.08999">
        <ele>408.20001220703</ele>
        <time>2023-08-05T16:26:43.000Z</time>
      </trkpt>
      <trkpt lat="49.16537" lon="6.08997">
        <ele>408.20001220703</ele>
        <time>2023-08-05T16:26:44.000Z</time>
      </trkpt>
      <trkpt lat="49.16525" lon="6.08975">
        <ele>409</ele>
        <time>2023-08-05T16:26:51.000Z</time>
      </trkpt>
      <trkpt lat="49.16523" lon="6.08968">
        <ele>409.20001220703</ele>
        <time>2023-08-05T16:26:53.000Z</time>
      </trkpt>
      <trkpt lat="49.16516" lon="6.08946">
        <ele>410</ele>
        <time>2023-08-05T16:26:58.000Z</time>
      </trkpt>
      <trkpt lat="49.16513" lon="6.08938">
        <ele>410.20001220703</ele>
        <time>2023-08-05T16:27:00.000Z</time>
      </trkpt>
      <trkpt lat="49.16507" lon="6.0891">
        <ele>411</ele>
        <time>2023-08-05T16:27:07.000Z</time>
      </trkpt>
      <trkpt lat="49.16505" lon="6.08897">
        <ele>411.39999389648</ele>
        <time>2023-08-05T16:27:10.000Z</time>
      </trkpt>
      <trkpt lat="49.16503" lon="6.08879">
        <ele>411.79998779297</ele>
        <time>2023-08-05T16:27:14.000Z</time>
      </trkpt>
      <trkpt lat="49.16509" lon="6.08845">
        <ele>412</ele>
        <time>2023-08-05T16:27:21.000Z</time>
      </trkpt>
      <trkpt lat="49.16522" lon="6.08818">
        <ele>411.79998779297</ele>
        <time>2023-08-05T16:27:27.000Z</time>
      </trkpt>
      <trkpt lat="49.16539" lon="6.088">
        <ele>411.79998779297</ele>
        <time>2023-08-05T16:27:32.000Z</time>
      </trkpt>
      <trkpt lat="49.16557" lon="6.08781">
        <ele>412</ele>
        <time>2023-08-05T16:27:38.000Z</time>
      </trkpt>
      <trkpt lat="49.16573" lon="6.08764">
        <ele>412</ele>
        <time>2023-08-05T16:27:44.000Z</time>
      </trkpt>
      <trkpt lat="49.16588" lon="6.08746">
        <ele>412.20001220703</ele>
        <time>2023-08-05T16:27:50.000Z</time>
      </trkpt>
      <trkpt lat="49.16611" lon="6.08726">
        <ele>412.20001220703</ele>
        <time>2023-08-05T16:27:56.000Z</time>
      </trkpt>
      <trkpt lat="49.16619" lon="6.0872">
        <ele>412.20001220703</ele>
        <time>2023-08-05T16:27:58.000Z</time>
      </trkpt>
      <trkpt lat="49.16633" lon="6.08717">
        <ele>412.39999389648</ele>
        <time>2023-08-05T16:28:01.000Z</time>
      </trkpt>
      <trkpt lat="49.16668" lon="6.08709">
        <ele>413.20001220703</ele>
        <time>2023-08-05T16:28:10.000Z</time>
      </trkpt>
      <trkpt lat="49.16688" lon="6.08705">
        <ele>413.39999389648</ele>
        <time>2023-08-05T16:28:15.000Z</time>
      </trkpt>
      <trkpt lat="49.16704" lon="6.08702">
        <ele>413.60000610352</ele>
        <time>2023-08-05T16:28:19.000Z</time>
      </trkpt>
      <trkpt lat="49.16725" lon="6.08696">
        <ele>413.79998779297</ele>
        <time>2023-08-05T16:28:24.000Z</time>
      </trkpt>
      <trkpt lat="49.16733" lon="6.08695">
        <ele>413.79998779297</ele>
        <time>2023-08-05T16:28:26.000Z</time>
      </trkpt>
      <trkpt lat="49.16757" lon="6.08686">
        <ele>414.39999389648</ele>
        <time>2023-08-05T16:28:32.000Z</time>
      </trkpt>
      <trkpt lat="49.16761" lon="6.08684">
        <ele>414.39999389648</ele>
        <time>2023-08-05T16:28:33.000Z</time>
      </trkpt>
      <trkpt lat="49.1677" lon="6.08678">
        <ele>414.60000610352</ele>
        <time>2023-08-05T16:28:35.000Z</time>
      </trkpt>
      <trkpt lat="49.16781" lon="6.08667">
        <ele>414.60000610352</ele>
        <time>2023-08-05T16:28:38.000Z</time>
      </trkpt>
      <trkpt lat="49.16785" lon="6.08662">
        <ele>414.60000610352</ele>
        <time>2023-08-05T16:28:39.000Z</time>
      </trkpt>
      <trkpt lat="49.16804" lon="6.08637">
        <ele>414.60000610352</ele>
        <time>2023-08-05T16:28:44.000Z</time>
      </trkpt>
      <trkpt lat="49.16811" lon="6.08626">
        <ele>414.60000610352</ele>
        <time>2023-08-05T16:28:46.000Z</time>
      </trkpt>
      <trkpt lat="49.16815" lon="6.08621">
        <ele>414.60000610352</ele>
        <time>2023-08-05T16:28:47.000Z</time>
      </trkpt>
      <trkpt lat="49.16823" lon="6.08611">
        <ele>414.39999389648</ele>
        <time>2023-08-05T16:28:49.000Z</time>
      </trkpt>
      <trkpt lat="49.1683" lon="6.086">
        <ele>414.20001220703</ele>
        <time>2023-08-05T16:28:51.000Z</time>
      </trkpt>
      <trkpt lat="49.16834" lon="6.08594">
        <ele>414.20001220703</ele>
        <time>2023-08-05T16:28:52.000Z</time>
      </trkpt>
      <trkpt lat="49.16841" lon="6.08583">
        <ele>413.79998779297</ele>
        <time>2023-08-05T16:28:54.000Z</time>
      </trkpt>
      <trkpt lat="49.1685" lon="6.08572">
        <ele>413.60000610352</ele>
        <time>2023-08-05T16:28:56.000Z</time>
      </trkpt>
      <trkpt lat="49.16854" lon="6.08566">
        <ele>413.39999389648</ele>
        <time>2023-08-05T16:28:57.000Z</time>
      </trkpt>
      <trkpt lat="49.16859" lon="6.08561">
        <ele>413.39999389648</ele>
        <time>2023-08-05T16:28:58.000Z</time>
      </trkpt>
      <trkpt lat="49.16863" lon="6.08555">
        <ele>413.39999389648</ele>
        <time>2023-08-05T16:28:59.000Z</time>
      </trkpt>
      <trkpt lat="49.16868" lon="6.08549">
        <ele>413.20001220703</ele>
        <time>2023-08-05T16:29:00.000Z</time>
      </trkpt>
      <trkpt lat="49.16876" lon="6.08537">
        <ele>413</ele>
        <time>2023-08-05T16:29:02.000Z</time>
      </trkpt>
      <trkpt lat="49.16886" lon="6.08524">
        <ele>412.60000610352</ele>
        <time>2023-08-05T16:29:04.000Z</time>
      </trkpt>
      <trkpt lat="49.16895" lon="6.08508">
        <ele>412.39999389648</ele>
        <time>2023-08-05T16:29:06.000Z</time>
      </trkpt>
      <trkpt lat="49.1692" lon="6.08468">
        <ele>411.60000610352</ele>
        <time>2023-08-05T16:29:11.000Z</time>
      </trkpt>
      <trkpt lat="49.16936" lon="6.08448">
        <ele>411.20001220703</ele>
        <time>2023-08-05T16:29:14.000Z</time>
      </trkpt>
      <trkpt lat="49.16954" lon="6.08432">
        <ele>410.79998779297</ele>
        <time>2023-08-05T16:29:17.000Z</time>
      </trkpt>
      <trkpt lat="49.16979" lon="6.08415">
        <ele>410</ele>
        <time>2023-08-05T16:29:21.000Z</time>
      </trkpt>
      <trkpt lat="49.16991" lon="6.08409">
        <ele>409.60000610352</ele>
        <time>2023-08-05T16:29:23.000Z</time>
      </trkpt>
      <trkpt lat="49.17015" lon="6.08398">
        <ele>409</ele>
        <time>2023-08-05T16:29:27.000Z</time>
      </trkpt>
      <trkpt lat="49.17039" lon="6.08389">
        <ele>408.60000610352</ele>
        <time>2023-08-05T16:29:31.000Z</time>
      </trkpt>
      <trkpt lat="49.17078" lon="6.08378">
        <ele>408.20001220703</ele>
        <time>2023-08-05T16:29:38.000Z</time>
      </trkpt>
      <trkpt lat="49.17111" lon="6.08382">
        <ele>408</ele>
        <time>2023-08-05T16:29:44.000Z</time>
      </trkpt>
      <trkpt lat="49.17128" lon="6.08387">
        <ele>408</ele>
        <time>2023-08-05T16:29:47.000Z</time>
      </trkpt>
      <trkpt lat="49.17134" lon="6.0839">
        <ele>407.79998779297</ele>
        <time>2023-08-05T16:29:48.000Z</time>
      </trkpt>
      <trkpt lat="49.17146" lon="6.08396">
        <ele>407.79998779297</ele>
        <time>2023-08-05T16:29:50.000Z</time>
      </trkpt>
      <trkpt lat="49.17186" lon="6.08424">
        <ele>406.79998779297</ele>
        <time>2023-08-05T16:29:57.000Z</time>
      </trkpt>
      <trkpt lat="49.17191" lon="6.08429">
        <ele>407</ele>
        <time>2023-08-05T16:29:58.000Z</time>
      </trkpt>
      <trkpt lat="49.17234" lon="6.08471">
        <ele>406.39999389648</ele>
        <time>2023-08-05T16:30:06.000Z</time>
      </trkpt>
      <trkpt lat="49.17255" lon="6.08491">
        <ele>406</ele>
        <time>2023-08-05T16:30:10.000Z</time>
      </trkpt>
      <trkpt lat="49.17261" lon="6.08496">
        <ele>406</ele>
        <time>2023-08-05T16:30:11.000Z</time>
      </trkpt>
      <trkpt lat="49.17276" lon="6.08508">
        <ele>405.79998779297</ele>
        <time>2023-08-05T16:30:14.000Z</time>
      </trkpt>
      <trkpt lat="49.17306" lon="6.08528">
        <ele>405.39999389648</ele>
        <time>2023-08-05T16:30:20.000Z</time>
      </trkpt>
      <trkpt lat="49.17321" lon="6.08535">
        <ele>405.39999389648</ele>
        <time>2023-08-05T16:30:23.000Z</time>
      </trkpt>
      <trkpt lat="49.17335" lon="6.08537">
        <ele>405.39999389648</ele>
        <time>2023-08-05T16:30:26.000Z</time>
      </trkpt>
      <trkpt lat="49.17343" lon="6.08539">
        <ele>405.39999389648</ele>
        <time>2023-08-05T16:30:28.000Z</time>
      </trkpt>
      <trkpt lat="49.17355" lon="6.08541">
        <ele>405.60000610352</ele>
        <time>2023-08-05T16:30:31.000Z</time>
      </trkpt>
      <trkpt lat="49.17377" lon="6.08541">
        <ele>405.60000610352</ele>
        <time>2023-08-05T16:30:38.000Z</time>
      </trkpt>
      <trkpt lat="49.17382" lon="6.08539">
        <ele>406</ele>
        <time>2023-08-05T16:30:43.000Z</time>
      </trkpt>
      <trkpt lat="49.17385" lon="6.08536">
        <ele>405.79998779297</ele>
        <time>2023-08-05T16:31:30.000Z</time>
      </trkpt>
      <trkpt lat="49.17389" lon="6.08534">
        <ele>405.79998779297</ele>
        <time>2023-08-05T16:31:32.000Z</time>
      </trkpt>
      <trkpt lat="49.17403" lon="6.08527">
        <ele>405.79998779297</ele>
        <time>2023-08-05T16:31:37.000Z</time>
      </trkpt>
      <trkpt lat="49.17423" lon="6.08512">
        <ele>406.20001220703</ele>
        <time>2023-08-05T16:31:43.000Z</time>
      </trkpt>
      <trkpt lat="49.17448" lon="6.08483">
        <ele>407</ele>
        <time>2023-08-05T16:31:50.000Z</time>
      </trkpt>
      <trkpt lat="49.17454" lon="6.08474">
        <ele>407.39999389648</ele>
        <time>2023-08-05T16:31:52.000Z</time>
      </trkpt>
      <trkpt lat="49.17475" lon="6.08438">
        <ele>408.39999389648</ele>
        <time>2023-08-05T16:31:59.000Z</time>
      </trkpt>
      <trkpt lat="49.17492" lon="6.08393">
        <ele>409</ele>
        <time>2023-08-05T16:32:07.000Z</time>
      </trkpt>
      <trkpt lat="49.17504" lon="6.08357">
        <ele>409.39999389648</ele>
        <time>2023-08-05T16:32:13.000Z</time>
      </trkpt>
      <trkpt lat="49.1751" lon="6.08339">
        <ele>409.60000610352</ele>
        <time>2023-08-05T16:32:16.000Z</time>
      </trkpt>
      <trkpt lat="49.17535" lon="6.08267">
        <ele>410.39999389648</ele>
        <time>2023-08-05T16:32:27.000Z</time>
      </trkpt>
      <trkpt lat="49.17546" lon="6.08233">
        <ele>410.60000610352</ele>
        <time>2023-08-05T16:32:32.000Z</time>
      </trkpt>
      <trkpt lat="49.17557" lon="6.08198">
        <ele>410.79998779297</ele>
        <time>2023-08-05T16:32:37.000Z</time>
      </trkpt>
      <trkpt lat="49.17578" lon="6.08133">
        <ele>410.79998779297</ele>
        <time>2023-08-05T16:32:46.000Z</time>
      </trkpt>
      <trkpt lat="49.17601" lon="6.08063">
        <ele>411</ele>
        <time>2023-08-05T16:32:56.000Z</time>
      </trkpt>
      <trkpt lat="49.17622" lon="6.08">
        <ele>411.79998779297</ele>
        <time>2023-08-05T16:33:06.000Z</time>
      </trkpt>
      <trkpt lat="49.17624" lon="6.07993">
        <ele>411.79998779297</ele>
        <time>2023-08-05T16:33:07.000Z</time>
      </trkpt>
      <trkpt lat="49.17643" lon="6.07936">
        <ele>411.60000610352</ele>
        <time>2023-08-05T16:33:15.000Z</time>
      </trkpt>
      <trkpt lat="49.17656" lon="6.07893">
        <ele>410.79998779297</ele>
        <time>2023-08-05T16:33:20.000Z</time>
      </trkpt>
      <trkpt lat="49.17664" lon="6.07868">
        <ele>410.39999389648</ele>
        <time>2023-08-05T16:33:23.000Z</time>
      </trkpt>
      <trkpt lat="49.17679" lon="6.07822">
        <ele>409.79998779297</ele>
        <time>2023-08-05T16:33:28.000Z</time>
      </trkpt>
      <trkpt lat="49.17696" lon="6.07769">
        <ele>408.79998779297</ele>
        <time>2023-08-05T16:33:34.000Z</time>
      </trkpt>
      <trkpt lat="49.17703" lon="6.07746">
        <ele>408.60000610352</ele>
        <time>2023-08-05T16:33:37.000Z</time>
      </trkpt>
      <trkpt lat="49.17722" lon="6.07685">
        <ele>408.60000610352</ele>
        <time>2023-08-05T16:33:45.000Z</time>
      </trkpt>
      <trkpt lat="49.17741" lon="6.07626">
        <ele>409.39999389648</ele>
        <time>2023-08-05T16:33:54.000Z</time>
      </trkpt>
      <trkpt lat="49.17747" lon="6.07605">
        <ele>409.79998779297</ele>
        <time>2023-08-05T16:33:57.000Z</time>
      </trkpt>
      <trkpt lat="49.17761" lon="6.07561">
        <ele>410.39999389648</ele>
        <time>2023-08-05T16:34:04.000Z</time>
      </trkpt>
      <trkpt lat="49.17785" lon="6.0749">
        <ele>410</ele>
        <time>2023-08-05T16:34:14.000Z</time>
      </trkpt>
      <trkpt lat="49.17803" lon="6.07434">
        <ele>409.20001220703</ele>
        <time>2023-08-05T16:34:21.000Z</time>
      </trkpt>
      <trkpt lat="49.17806" lon="6.07423">
        <ele>409</ele>
        <time>2023-08-05T16:34:22.000Z</time>
      </trkpt>
      <trkpt lat="49.17809" lon="6.07415">
        <ele>408.79998779297</ele>
        <time>2023-08-05T16:34:23.000Z</time>
      </trkpt>
      <trkpt lat="49.17834" lon="6.07336">
        <ele>408</ele>
        <time>2023-08-05T16:34:32.000Z</time>
      </trkpt>
      <trkpt lat="49.17837" lon="6.07326">
        <ele>408</ele>
        <time>2023-08-05T16:34:33.000Z</time>
      </trkpt>
      <trkpt lat="49.17845" lon="6.07301">
        <ele>407.79998779297</ele>
        <time>2023-08-05T16:34:36.000Z</time>
      </trkpt>
      <trkpt lat="49.17864" lon="6.07242">
        <ele>407.20001220703</ele>
        <time>2023-08-05T16:34:43.000Z</time>
      </trkpt>
      <trkpt lat="49.17886" lon="6.07173">
        <ele>407</ele>
        <time>2023-08-05T16:34:52.000Z</time>
      </trkpt>
      <trkpt lat="49.17909" lon="6.07104">
        <ele>408.20001220703</ele>
        <time>2023-08-05T16:35:02.000Z</time>
      </trkpt>
      <trkpt lat="49.17932" lon="6.07038">
        <ele>408.60000610352</ele>
        <time>2023-08-05T16:35:12.000Z</time>
      </trkpt>
      <trkpt lat="49.17948" lon="6.06991">
        <ele>408.20001220703</ele>
        <time>2023-08-05T16:35:19.000Z</time>
      </trkpt>
      <trkpt lat="49.17972" lon="6.06923">
        <ele>407.20001220703</ele>
        <time>2023-08-05T16:35:28.000Z</time>
      </trkpt>
      <trkpt lat="49.17981" lon="6.06898">
        <ele>406.79998779297</ele>
        <time>2023-08-05T16:35:31.000Z</time>
      </trkpt>
      <trkpt lat="49.17993" lon="6.06862">
        <ele>406.20001220703</ele>
        <time>2023-08-05T16:35:35.000Z</time>
      </trkpt>
      <trkpt lat="49.18" lon="6.06841">
        <ele>405.60000610352</ele>
        <time>2023-08-05T16:35:37.000Z</time>
      </trkpt>
      <trkpt lat="49.1801" lon="6.06809">
        <ele>404.39999389648</ele>
        <time>2023-08-05T16:35:40.000Z</time>
      </trkpt>
      <trkpt lat="49.18028" lon="6.06749">
        <ele>403</ele>
        <time>2023-08-05T16:35:45.000Z</time>
      </trkpt>
      <trkpt lat="49.18032" lon="6.06736">
        <ele>402.79998779297</ele>
        <time>2023-08-05T16:35:46.000Z</time>
      </trkpt>
      <trkpt lat="49.18044" lon="6.06697">
        <ele>401.20001220703</ele>
        <time>2023-08-05T16:35:49.000Z</time>
      </trkpt>
      <trkpt lat="49.18057" lon="6.06655">
        <ele>399.79998779297</ele>
        <time>2023-08-05T16:35:52.000Z</time>
      </trkpt>
      <trkpt lat="49.18061" lon="6.06641">
        <ele>399.39999389648</ele>
        <time>2023-08-05T16:35:53.000Z</time>
      </trkpt>
      <trkpt lat="49.18066" lon="6.06626">
        <ele>398.79998779297</ele>
        <time>2023-08-05T16:35:54.000Z</time>
      </trkpt>
      <trkpt lat="49.18074" lon="6.06595">
        <ele>397.39999389648</ele>
        <time>2023-08-05T16:35:56.000Z</time>
      </trkpt>
      <trkpt lat="49.18083" lon="6.06562">
        <ele>396</ele>
        <time>2023-08-05T16:35:58.000Z</time>
      </trkpt>
      <trkpt lat="49.18087" lon="6.06545">
        <ele>395</ele>
        <time>2023-08-05T16:35:59.000Z</time>
      </trkpt>
      <trkpt lat="49.18094" lon="6.0651">
        <ele>392.79998779297</ele>
        <time>2023-08-05T16:36:01.000Z</time>
      </trkpt>
      <trkpt lat="49.18098" lon="6.06492">
        <ele>391.79998779297</ele>
        <time>2023-08-05T16:36:02.000Z</time>
      </trkpt>
      <trkpt lat="49.18105" lon="6.06456">
        <ele>390</ele>
        <time>2023-08-05T16:36:04.000Z</time>
      </trkpt>
      <trkpt lat="49.18111" lon="6.0642">
        <ele>388</ele>
        <time>2023-08-05T16:36:06.000Z</time>
      </trkpt>
      <trkpt lat="49.18118" lon="6.06385">
        <ele>386.20001220703</ele>
        <time>2023-08-05T16:36:08.000Z</time>
      </trkpt>
      <trkpt lat="49.18121" lon="6.06367">
        <ele>385.20001220703</ele>
        <time>2023-08-05T16:36:09.000Z</time>
      </trkpt>
      <trkpt lat="49.18128" lon="6.06332">
        <ele>383.79998779297</ele>
        <time>2023-08-05T16:36:11.000Z</time>
      </trkpt>
      <trkpt lat="49.18131" lon="6.06314">
        <ele>383.39999389648</ele>
        <time>2023-08-05T16:36:12.000Z</time>
      </trkpt>
      <trkpt lat="49.18134" lon="6.06297">
        <ele>382.39999389648</ele>
        <time>2023-08-05T16:36:13.000Z</time>
      </trkpt>
      <trkpt lat="49.1814" lon="6.06262">
        <ele>381</ele>
        <time>2023-08-05T16:36:15.000Z</time>
      </trkpt>
      <trkpt lat="49.18147" lon="6.06229">
        <ele>380</ele>
        <time>2023-08-05T16:36:17.000Z</time>
      </trkpt>
      <trkpt lat="49.18154" lon="6.06195">
        <ele>378.60000610352</ele>
        <time>2023-08-05T16:36:19.000Z</time>
      </trkpt>
      <trkpt lat="49.18158" lon="6.06178">
        <ele>377.60000610352</ele>
        <time>2023-08-05T16:36:20.000Z</time>
      </trkpt>
      <trkpt lat="49.18161" lon="6.06161">
        <ele>376.60000610352</ele>
        <time>2023-08-05T16:36:21.000Z</time>
      </trkpt>
      <trkpt lat="49.18168" lon="6.06128">
        <ele>375</ele>
        <time>2023-08-05T16:36:23.000Z</time>
      </trkpt>
      <trkpt lat="49.18175" lon="6.06095">
        <ele>373.79998779297</ele>
        <time>2023-08-05T16:36:25.000Z</time>
      </trkpt>
      <trkpt lat="49.18181" lon="6.06065">
        <ele>372.60000610352</ele>
        <time>2023-08-05T16:36:27.000Z</time>
      </trkpt>
      <trkpt lat="49.18184" lon="6.0605">
        <ele>372.39999389648</ele>
        <time>2023-08-05T16:36:28.000Z</time>
      </trkpt>
      <trkpt lat="49.1819" lon="6.06024">
        <ele>371.60000610352</ele>
        <time>2023-08-05T16:36:30.000Z</time>
      </trkpt>
      <trkpt lat="49.182" lon="6.05976">
        <ele>370.60000610352</ele>
        <time>2023-08-05T16:36:34.000Z</time>
      </trkpt>
      <trkpt lat="49.18218" lon="6.05903">
        <ele>369.60000610352</ele>
        <time>2023-08-05T16:36:41.000Z</time>
      </trkpt>
      <trkpt lat="49.18221" lon="6.05893">
        <ele>369.60000610352</ele>
        <time>2023-08-05T16:36:42.000Z</time>
      </trkpt>
      <trkpt lat="49.18241" lon="6.05835">
        <ele>369.20001220703</ele>
        <time>2023-08-05T16:36:48.000Z</time>
      </trkpt>
      <trkpt lat="49.18247" lon="6.05814">
        <ele>368.79998779297</ele>
        <time>2023-08-05T16:36:50.000Z</time>
      </trkpt>
      <trkpt lat="49.18253" lon="6.0579">
        <ele>368.39999389648</ele>
        <time>2023-08-05T16:36:52.000Z</time>
      </trkpt>
      <trkpt lat="49.18259" lon="6.05765">
        <ele>367.79998779297</ele>
        <time>2023-08-05T16:36:54.000Z</time>
      </trkpt>
      <trkpt lat="49.18262" lon="6.05752">
        <ele>367.39999389648</ele>
        <time>2023-08-05T16:36:55.000Z</time>
      </trkpt>
      <trkpt lat="49.18268" lon="6.05724">
        <ele>366.20001220703</ele>
        <time>2023-08-05T16:36:57.000Z</time>
      </trkpt>
      <trkpt lat="49.18274" lon="6.05694">
        <ele>365</ele>
        <time>2023-08-05T16:36:59.000Z</time>
      </trkpt>
      <trkpt lat="49.18277" lon="6.05679">
        <ele>364.20001220703</ele>
        <time>2023-08-05T16:37:00.000Z</time>
      </trkpt>
      <trkpt lat="49.1828" lon="6.05664">
        <ele>363.39999389648</ele>
        <time>2023-08-05T16:37:01.000Z</time>
      </trkpt>
      <trkpt lat="49.18286" lon="6.05633">
        <ele>362.20001220703</ele>
        <time>2023-08-05T16:37:03.000Z</time>
      </trkpt>
      <trkpt lat="49.18289" lon="6.05618">
        <ele>361.20001220703</ele>
        <time>2023-08-05T16:37:04.000Z</time>
      </trkpt>
      <trkpt lat="49.18295" lon="6.0559">
        <ele>359.79998779297</ele>
        <time>2023-08-05T16:37:06.000Z</time>
      </trkpt>
      <trkpt lat="49.18298" lon="6.05576">
        <ele>359.60000610352</ele>
        <time>2023-08-05T16:37:07.000Z</time>
      </trkpt>
      <trkpt lat="49.18301" lon="6.05564">
        <ele>358.79998779297</ele>
        <time>2023-08-05T16:37:08.000Z</time>
      </trkpt>
      <trkpt lat="49.18312" lon="6.05529">
        <ele>357.39999389648</ele>
        <time>2023-08-05T16:37:11.000Z</time>
      </trkpt>
      <trkpt lat="49.18316" lon="6.05518">
        <ele>357.39999389648</ele>
        <time>2023-08-05T16:37:12.000Z</time>
      </trkpt>
      <trkpt lat="49.18337" lon="6.05461">
        <ele>356.60000610352</ele>
        <time>2023-08-05T16:37:18.000Z</time>
      </trkpt>
      <trkpt lat="49.18354" lon="6.05404">
        <ele>356.60000610352</ele>
        <time>2023-08-05T16:37:25.000Z</time>
      </trkpt>
      <trkpt lat="49.18363" lon="6.05359">
        <ele>357</ele>
        <time>2023-08-05T16:37:31.000Z</time>
      </trkpt>
      <trkpt lat="49.18367" lon="6.05327">
        <ele>358</ele>
        <time>2023-08-05T16:37:36.000Z</time>
      </trkpt>
      <trkpt lat="49.18369" lon="6.05309">
        <ele>358.60000610352</ele>
        <time>2023-08-05T16:37:39.000Z</time>
      </trkpt>
      <trkpt lat="49.18373" lon="6.05276">
        <ele>359.60000610352</ele>
        <time>2023-08-05T16:37:45.000Z</time>
      </trkpt>
      <trkpt lat="49.18374" lon="6.0527">
        <ele>359.79998779297</ele>
        <time>2023-08-05T16:37:46.000Z</time>
      </trkpt>
      <trkpt lat="49.18383" lon="6.05208">
        <ele>360.60000610352</ele>
        <time>2023-08-05T16:37:56.000Z</time>
      </trkpt>
      <trkpt lat="49.18387" lon="6.05175">
        <ele>360.79998779297</ele>
        <time>2023-08-05T16:38:01.000Z</time>
      </trkpt>
      <trkpt lat="49.1839" lon="6.05156">
        <ele>361</ele>
        <time>2023-08-05T16:38:04.000Z</time>
      </trkpt>
      <trkpt lat="49.18398" lon="6.05112">
        <ele>361.20001220703</ele>
        <time>2023-08-05T16:38:11.000Z</time>
      </trkpt>
      <trkpt lat="49.184" lon="6.051">
        <ele>361.39999389648</ele>
        <time>2023-08-05T16:38:13.000Z</time>
      </trkpt>
      <trkpt lat="49.18401" lon="6.05094">
        <ele>361.39999389648</ele>
        <time>2023-08-05T16:38:14.000Z</time>
      </trkpt>
      <trkpt lat="49.18407" lon="6.05056">
        <ele>361.60000610352</ele>
        <time>2023-08-05T16:38:20.000Z</time>
      </trkpt>
      <trkpt lat="49.18409" lon="6.05037">
        <ele>361.79998779297</ele>
        <time>2023-08-05T16:38:23.000Z</time>
      </trkpt>
      <trkpt lat="49.18415" lon="6.04996">
        <ele>362.79998779297</ele>
        <time>2023-08-05T16:38:30.000Z</time>
      </trkpt>
      <trkpt lat="49.18418" lon="6.04979">
        <ele>363.20001220703</ele>
        <time>2023-08-05T16:38:33.000Z</time>
      </trkpt>
      <trkpt lat="49.18422" lon="6.04947">
        <ele>363.60000610352</ele>
        <time>2023-08-05T16:38:38.000Z</time>
      </trkpt>
      <trkpt lat="49.18427" lon="6.04917">
        <ele>364.20001220703</ele>
        <time>2023-08-05T16:38:43.000Z</time>
      </trkpt>
      <trkpt lat="49.18433" lon="6.04888">
        <ele>364.60000610352</ele>
        <time>2023-08-05T16:38:48.000Z</time>
      </trkpt>
      <trkpt lat="49.18438" lon="6.04857">
        <ele>365.20001220703</ele>
        <time>2023-08-05T16:38:53.000Z</time>
      </trkpt>
      <trkpt lat="49.18443" lon="6.04825">
        <ele>365.60000610352</ele>
        <time>2023-08-05T16:38:58.000Z</time>
      </trkpt>
      <trkpt lat="49.18451" lon="6.04773">
        <ele>366.39999389648</ele>
        <time>2023-08-05T16:39:06.000Z</time>
      </trkpt>
      <trkpt lat="49.18453" lon="6.0476">
        <ele>366.39999389648</ele>
        <time>2023-08-05T16:39:08.000Z</time>
      </trkpt>
      <trkpt lat="49.18459" lon="6.04715">
        <ele>366.60000610352</ele>
        <time>2023-08-05T16:39:15.000Z</time>
      </trkpt>
      <trkpt lat="49.18465" lon="6.04684">
        <ele>366.60000610352</ele>
        <time>2023-08-05T16:39:20.000Z</time>
      </trkpt>
      <trkpt lat="49.18469" lon="6.04673">
        <ele>366.79998779297</ele>
        <time>2023-08-05T16:39:22.000Z</time>
      </trkpt>
      <trkpt lat="49.18471" lon="6.04667">
        <ele>366.79998779297</ele>
        <time>2023-08-05T16:39:23.000Z</time>
      </trkpt>
      <trkpt lat="49.18476" lon="6.04657">
        <ele>367</ele>
        <time>2023-08-05T16:39:25.000Z</time>
      </trkpt>
      <trkpt lat="49.18479" lon="6.04645">
        <ele>367.20001220703</ele>
        <time>2023-08-05T16:39:27.000Z</time>
      </trkpt>
      <trkpt lat="49.18478" lon="6.04626">
        <ele>367.60000610352</ele>
        <time>2023-08-05T16:39:30.000Z</time>
      </trkpt>
      <trkpt lat="49.18478" lon="6.0462">
        <ele>367.60000610352</ele>
        <time>2023-08-05T16:39:31.000Z</time>
      </trkpt>
      <trkpt lat="49.18483" lon="6.04574">
        <ele>368.39999389648</ele>
        <time>2023-08-05T16:39:39.000Z</time>
      </trkpt>
      <trkpt lat="49.18486" lon="6.04553">
        <ele>368.60000610352</ele>
        <time>2023-08-05T16:39:43.000Z</time>
      </trkpt>
      <trkpt lat="49.1849" lon="6.04528">
        <ele>369.60000610352</ele>
        <time>2023-08-05T16:39:48.000Z</time>
      </trkpt>
      <trkpt lat="49.1849" lon="6.04523">
        <ele>369.79998779297</ele>
        <time>2023-08-05T16:39:49.000Z</time>
      </trkpt>
      <trkpt lat="49.18494" lon="6.04492">
        <ele>371</ele>
        <time>2023-08-05T16:39:55.000Z</time>
      </trkpt>
      <trkpt lat="49.18497" lon="6.04472">
        <ele>372</ele>
        <time>2023-08-05T16:39:59.000Z</time>
      </trkpt>
      <trkpt lat="49.18501" lon="6.04451">
        <ele>372.20001220703</ele>
        <time>2023-08-05T16:40:03.000Z</time>
      </trkpt>
      <trkpt lat="49.18504" lon="6.04426">
        <ele>372.79998779297</ele>
        <time>2023-08-05T16:40:08.000Z</time>
      </trkpt>
      <trkpt lat="49.18507" lon="6.0441">
        <ele>373.39999389648</ele>
        <time>2023-08-05T16:40:11.000Z</time>
      </trkpt>
      <trkpt lat="49.18513" lon="6.0437">
        <ele>373.79998779297</ele>
        <time>2023-08-05T16:40:18.000Z</time>
      </trkpt>
      <trkpt lat="49.18521" lon="6.0432">
        <ele>374</ele>
        <time>2023-08-05T16:40:26.000Z</time>
      </trkpt>
      <trkpt lat="49.18523" lon="6.04298">
        <ele>374</ele>
        <time>2023-08-05T16:40:29.000Z</time>
      </trkpt>
      <trkpt lat="49.18528" lon="6.04278">
        <ele>374</ele>
        <time>2023-08-05T16:40:32.000Z</time>
      </trkpt>
      <trkpt lat="49.18535" lon="6.0422">
        <ele>374.39999389648</ele>
        <time>2023-08-05T16:40:40.000Z</time>
      </trkpt>
      <trkpt lat="49.18547" lon="6.04147">
        <ele>374.20001220703</ele>
        <time>2023-08-05T16:40:50.000Z</time>
      </trkpt>
      <trkpt lat="49.18557" lon="6.0409">
        <ele>374.20001220703</ele>
        <time>2023-08-05T16:40:58.000Z</time>
      </trkpt>
      <trkpt lat="49.1857" lon="6.04011">
        <ele>374.39999389648</ele>
        <time>2023-08-05T16:41:09.000Z</time>
      </trkpt>
      <trkpt lat="49.18575" lon="6.03975">
        <ele>374.60000610352</ele>
        <time>2023-08-05T16:41:14.000Z</time>
      </trkpt>
      <trkpt lat="49.18577" lon="6.03954">
        <ele>374.60000610352</ele>
        <time>2023-08-05T16:41:17.000Z</time>
      </trkpt>
      <trkpt lat="49.18589" lon="6.03886">
        <ele>374.60000610352</ele>
        <time>2023-08-05T16:41:27.000Z</time>
      </trkpt>
      <trkpt lat="49.18593" lon="6.03874">
        <ele>374.60000610352</ele>
        <time>2023-08-05T16:41:29.000Z</time>
      </trkpt>
      <trkpt lat="49.18594" lon="6.0386">
        <ele>374.60000610352</ele>
        <time>2023-08-05T16:41:31.000Z</time>
      </trkpt>
      <trkpt lat="49.18594" lon="6.03852">
        <ele>374.60000610352</ele>
        <time>2023-08-05T16:41:32.000Z</time>
      </trkpt>
      <trkpt lat="49.18598" lon="6.03814">
        <ele>374.39999389648</ele>
        <time>2023-08-05T16:41:37.000Z</time>
      </trkpt>
      <trkpt lat="49.18612" lon="6.03735">
        <ele>374.79998779297</ele>
        <time>2023-08-05T16:41:48.000Z</time>
      </trkpt>
      <trkpt lat="49.18623" lon="6.03655">
        <ele>375.20001220703</ele>
        <time>2023-08-05T16:41:59.000Z</time>
      </trkpt>
      <trkpt lat="49.18635" lon="6.03586">
        <ele>375.39999389648</ele>
        <time>2023-08-05T16:42:09.000Z</time>
      </trkpt>
      <trkpt lat="49.18644" lon="6.03533">
        <ele>376</ele>
        <time>2023-08-05T16:42:16.000Z</time>
      </trkpt>
      <trkpt lat="49.18646" lon="6.03515">
        <ele>376.20001220703</ele>
        <time>2023-08-05T16:42:19.000Z</time>
      </trkpt>
      <trkpt lat="49.18659" lon="6.03438">
        <ele>377</ele>
        <time>2023-08-05T16:42:31.000Z</time>
      </trkpt>
      <trkpt lat="49.1866" lon="6.03432">
        <ele>377</ele>
        <time>2023-08-05T16:42:32.000Z</time>
      </trkpt>
      <trkpt lat="49.18669" lon="6.03374">
        <ele>377.79998779297</ele>
        <time>2023-08-05T16:42:41.000Z</time>
      </trkpt>
      <trkpt lat="49.18672" lon="6.03354">
        <ele>378.20001220703</ele>
        <time>2023-08-05T16:42:44.000Z</time>
      </trkpt>
      <trkpt lat="49.18678" lon="6.03324">
        <ele>378.39999389648</ele>
        <time>2023-08-05T16:42:49.000Z</time>
      </trkpt>
      <trkpt lat="49.1868" lon="6.03319">
        <ele>378.39999389648</ele>
        <time>2023-08-05T16:42:51.000Z</time>
      </trkpt>
      <trkpt lat="49.18687" lon="6.03303">
        <ele>378.60000610352</ele>
        <time>2023-08-05T16:42:53.000Z</time>
      </trkpt>
      <trkpt lat="49.18689" lon="6.03292">
        <ele>378.60000610352</ele>
        <time>2023-08-05T16:42:55.000Z</time>
      </trkpt>
      <trkpt lat="49.18688" lon="6.03263">
        <ele>378.39999389648</ele>
        <time>2023-08-05T16:42:59.000Z</time>
      </trkpt>
      <trkpt lat="49.18691" lon="6.0324">
        <ele>378.39999389648</ele>
        <time>2023-08-05T16:43:02.000Z</time>
      </trkpt>
      <trkpt lat="49.18692" lon="6.03234">
        <ele>378.20001220703</ele>
        <time>2023-08-05T16:43:03.000Z</time>
      </trkpt>
      <trkpt lat="49.187" lon="6.03182">
        <ele>377.79998779297</ele>
        <time>2023-08-05T16:43:09.000Z</time>
      </trkpt>
      <trkpt lat="49.18702" lon="6.03161">
        <ele>377.39999389648</ele>
        <time>2023-08-05T16:43:11.000Z</time>
      </trkpt>
      <trkpt lat="49.18709" lon="6.03113">
        <ele>376.20001220703</ele>
        <time>2023-08-05T16:43:15.000Z</time>
      </trkpt>
      <trkpt lat="49.18716" lon="6.03072">
        <ele>374.79998779297</ele>
        <time>2023-08-05T16:43:18.000Z</time>
      </trkpt>
      <trkpt lat="49.18721" lon="6.03043">
        <ele>374</ele>
        <time>2023-08-05T16:43:20.000Z</time>
      </trkpt>
      <trkpt lat="49.18723" lon="6.03027">
        <ele>373.20001220703</ele>
        <time>2023-08-05T16:43:21.000Z</time>
      </trkpt>
      <trkpt lat="49.18731" lon="6.02979">
        <ele>371.79998779297</ele>
        <time>2023-08-05T16:43:24.000Z</time>
      </trkpt>
      <trkpt lat="49.18736" lon="6.02947">
        <ele>370.39999389648</ele>
        <time>2023-08-05T16:43:26.000Z</time>
      </trkpt>
      <trkpt lat="49.18739" lon="6.02931">
        <ele>369.60000610352</ele>
        <time>2023-08-05T16:43:27.000Z</time>
      </trkpt>
      <trkpt lat="49.18741" lon="6.02915">
        <ele>368.79998779297</ele>
        <time>2023-08-05T16:43:28.000Z</time>
      </trkpt>
      <trkpt lat="49.18745" lon="6.02884">
        <ele>367.60000610352</ele>
        <time>2023-08-05T16:43:30.000Z</time>
      </trkpt>
      <trkpt lat="49.18753" lon="6.0284">
        <ele>366.39999389648</ele>
        <time>2023-08-05T16:43:33.000Z</time>
      </trkpt>
      <trkpt lat="49.18755" lon="6.02826">
        <ele>366.20001220703</ele>
        <time>2023-08-05T16:43:34.000Z</time>
      </trkpt>
      <trkpt lat="49.18761" lon="6.02785">
        <ele>365</ele>
        <time>2023-08-05T16:43:37.000Z</time>
      </trkpt>
      <trkpt lat="49.18767" lon="6.02745">
        <ele>363.79998779297</ele>
        <time>2023-08-05T16:43:41.000Z</time>
      </trkpt>
      <trkpt lat="49.18771" lon="6.02719">
        <ele>363.20001220703</ele>
        <time>2023-08-05T16:43:42.000Z</time>
      </trkpt>
      <trkpt lat="49.18775" lon="6.02695">
        <ele>362.39999389648</ele>
        <time>2023-08-05T16:43:45.000Z</time>
      </trkpt>
      <trkpt lat="49.18784" lon="6.02635">
        <ele>361.39999389648</ele>
        <time>2023-08-05T16:43:50.000Z</time>
      </trkpt>
      <trkpt lat="49.18794" lon="6.02578">
        <ele>360.39999389648</ele>
        <time>2023-08-05T16:43:54.000Z</time>
      </trkpt>
      <trkpt lat="49.188" lon="6.02544">
        <ele>359.79998779297</ele>
        <time>2023-08-05T16:43:57.000Z</time>
      </trkpt>
      <trkpt lat="49.18805" lon="6.02511">
        <ele>359.39999389648</ele>
        <time>2023-08-05T16:44:00.000Z</time>
      </trkpt>
      <trkpt lat="49.18817" lon="6.02432">
        <ele>358.60000610352</ele>
        <time>2023-08-05T16:44:07.000Z</time>
      </trkpt>
      <trkpt lat="49.18823" lon="6.02397">
        <ele>358.39999389648</ele>
        <time>2023-08-05T16:44:10.000Z</time>
      </trkpt>
      <trkpt lat="49.18828" lon="6.02363">
        <ele>357.39999389648</ele>
        <time>2023-08-05T16:44:14.000Z</time>
      </trkpt>
      <trkpt lat="49.18834" lon="6.02326">
        <ele>356.20001220703</ele>
        <time>2023-08-05T16:44:16.000Z</time>
      </trkpt>
      <trkpt lat="49.18841" lon="6.02282">
        <ele>355.20001220703</ele>
        <time>2023-08-05T16:44:20.000Z</time>
      </trkpt>
      <trkpt lat="49.18849" lon="6.02232">
        <ele>354.20001220703</ele>
        <time>2023-08-05T16:44:24.000Z</time>
      </trkpt>
      <trkpt lat="49.18854" lon="6.02198">
        <ele>353</ele>
        <time>2023-08-05T16:44:28.000Z</time>
      </trkpt>
      <trkpt lat="49.18858" lon="6.02175">
        <ele>352.79998779297</ele>
        <time>2023-08-05T16:44:29.000Z</time>
      </trkpt>
      <trkpt lat="49.18863" lon="6.0214">
        <ele>352</ele>
        <time>2023-08-05T16:44:32.000Z</time>
      </trkpt>
      <trkpt lat="49.18871" lon="6.02083">
        <ele>351</ele>
        <time>2023-08-05T16:44:37.000Z</time>
      </trkpt>
      <trkpt lat="49.18873" lon="6.02071">
        <ele>350.79998779297</ele>
        <time>2023-08-05T16:44:38.000Z</time>
      </trkpt>
      <trkpt lat="49.18879" lon="6.02035">
        <ele>349.79998779297</ele>
        <time>2023-08-05T16:44:41.000Z</time>
      </trkpt>
      <trkpt lat="49.18885" lon="6.01997">
        <ele>348.60000610352</ele>
        <time>2023-08-05T16:44:44.000Z</time>
      </trkpt>
      <trkpt lat="49.18892" lon="6.01954">
        <ele>348</ele>
        <time>2023-08-05T16:44:48.000Z</time>
      </trkpt>
      <trkpt lat="49.18897" lon="6.0192">
        <ele>347.39999389648</ele>
        <time>2023-08-05T16:44:51.000Z</time>
      </trkpt>
      <trkpt lat="49.18906" lon="6.01865">
        <ele>346.79998779297</ele>
        <time>2023-08-05T16:44:56.000Z</time>
      </trkpt>
      <trkpt lat="49.18911" lon="6.01833">
        <ele>346.39999389648</ele>
        <time>2023-08-05T16:44:59.000Z</time>
      </trkpt>
      <trkpt lat="49.18922" lon="6.01772">
        <ele>346</ele>
        <time>2023-08-05T16:45:05.000Z</time>
      </trkpt>
      <trkpt lat="49.18927" lon="6.01739">
        <ele>345.39999389648</ele>
        <time>2023-08-05T16:45:08.000Z</time>
      </trkpt>
      <trkpt lat="49.1893" lon="6.01717">
        <ele>345</ele>
        <time>2023-08-05T16:45:10.000Z</time>
      </trkpt>
      <trkpt lat="49.18935" lon="6.01683">
        <ele>344.20001220703</ele>
        <time>2023-08-05T16:45:13.000Z</time>
      </trkpt>
      <trkpt lat="49.18942" lon="6.01638">
        <ele>342.79998779297</ele>
        <time>2023-08-05T16:45:17.000Z</time>
      </trkpt>
      <trkpt lat="49.18947" lon="6.01604">
        <ele>342</ele>
        <time>2023-08-05T16:45:20.000Z</time>
      </trkpt>
      <trkpt lat="49.1895" lon="6.01581">
        <ele>341.60000610352</ele>
        <time>2023-08-05T16:45:22.000Z</time>
      </trkpt>
      <trkpt lat="49.18956" lon="6.01548">
        <ele>341</ele>
        <time>2023-08-05T16:45:25.000Z</time>
      </trkpt>
      <trkpt lat="49.1896" lon="6.01525">
        <ele>340.39999389648</ele>
        <time>2023-08-05T16:45:27.000Z</time>
      </trkpt>
      <trkpt lat="49.18967" lon="6.01477">
        <ele>339.39999389648</ele>
        <time>2023-08-05T16:45:31.000Z</time>
      </trkpt>
      <trkpt lat="49.18971" lon="6.01457">
        <ele>338.79998779297</ele>
        <time>2023-08-05T16:45:33.000Z</time>
      </trkpt>
      <trkpt lat="49.18976" lon="6.01421">
        <ele>338.20001220703</ele>
        <time>2023-08-05T16:45:36.000Z</time>
      </trkpt>
      <trkpt lat="49.18984" lon="6.01373">
        <ele>337.20001220703</ele>
        <time>2023-08-05T16:45:40.000Z</time>
      </trkpt>
      <trkpt lat="49.18987" lon="6.01348">
        <ele>336.60000610352</ele>
        <time>2023-08-05T16:45:42.000Z</time>
      </trkpt>
      <trkpt lat="49.18991" lon="6.01323">
        <ele>336.20001220703</ele>
        <time>2023-08-05T16:45:44.000Z</time>
      </trkpt>
      <trkpt lat="49.18997" lon="6.01286">
        <ele>335.20001220703</ele>
        <time>2023-08-05T16:45:47.000Z</time>
      </trkpt>
      <trkpt lat="49.19005" lon="6.01235">
        <ele>334</ele>
        <time>2023-08-05T16:45:51.000Z</time>
      </trkpt>
      <trkpt lat="49.19011" lon="6.01197">
        <ele>332.79998779297</ele>
        <time>2023-08-05T16:45:54.000Z</time>
      </trkpt>
      <trkpt lat="49.19019" lon="6.01147">
        <ele>331.79998779297</ele>
        <time>2023-08-05T16:45:58.000Z</time>
      </trkpt>
      <trkpt lat="49.19023" lon="6.01122">
        <ele>331.39999389648</ele>
        <time>2023-08-05T16:46:00.000Z</time>
      </trkpt>
      <trkpt lat="49.19031" lon="6.01073">
        <ele>330.60000610352</ele>
        <time>2023-08-05T16:46:04.000Z</time>
      </trkpt>
      <trkpt lat="49.19039" lon="6.01021">
        <ele>329.39999389648</ele>
        <time>2023-08-05T16:46:08.000Z</time>
      </trkpt>
      <trkpt lat="49.19043" lon="6.00992">
        <ele>328.79998779297</ele>
        <time>2023-08-05T16:46:11.000Z</time>
      </trkpt>
      <trkpt lat="49.19046" lon="6.00969">
        <ele>328.39999389648</ele>
        <time>2023-08-05T16:46:13.000Z</time>
      </trkpt>
      <trkpt lat="49.19055" lon="6.00921">
        <ele>327.39999389648</ele>
        <time>2023-08-05T16:46:18.000Z</time>
      </trkpt>
      <trkpt lat="49.19061" lon="6.0089">
        <ele>326.79998779297</ele>
        <time>2023-08-05T16:46:21.000Z</time>
      </trkpt>
      <trkpt lat="49.19064" lon="6.00869">
        <ele>326.20001220703</ele>
        <time>2023-08-05T16:46:23.000Z</time>
      </trkpt>
      <trkpt lat="49.19074" lon="6.00808">
        <ele>325</ele>
        <time>2023-08-05T16:46:29.000Z</time>
      </trkpt>
      <trkpt lat="49.19075" lon="6.00799">
        <ele>324.79998779297</ele>
        <time>2023-08-05T16:46:30.000Z</time>
      </trkpt>
      <trkpt lat="49.1908" lon="6.00772">
        <ele>323.60000610352</ele>
        <time>2023-08-05T16:46:34.000Z</time>
      </trkpt>
      <trkpt lat="49.1909" lon="6.00703">
        <ele>322.79998779297</ele>
        <time>2023-08-05T16:46:40.000Z</time>
      </trkpt>
      <trkpt lat="49.19092" lon="6.00693">
        <ele>322.60000610352</ele>
        <time>2023-08-05T16:46:41.000Z</time>
      </trkpt>
      <trkpt lat="49.191" lon="6.00638">
        <ele>321.60000610352</ele>
        <time>2023-08-05T16:46:46.000Z</time>
      </trkpt>
      <trkpt lat="49.19101" lon="6.00628">
        <ele>321.39999389648</ele>
        <time>2023-08-05T16:46:47.000Z</time>
      </trkpt>
      <trkpt lat="49.19111" lon="6.00564">
        <ele>320.39999389648</ele>
        <time>2023-08-05T16:46:53.000Z</time>
      </trkpt>
      <trkpt lat="49.19114" lon="6.00543">
        <ele>320</ele>
        <time>2023-08-05T16:46:55.000Z</time>
      </trkpt>
      <trkpt lat="49.19123" lon="6.00492">
        <ele>319.20001220703</ele>
        <time>2023-08-05T16:47:00.000Z</time>
      </trkpt>
      <trkpt lat="49.19127" lon="6.00463">
        <ele>318.79998779297</ele>
        <time>2023-08-05T16:47:03.000Z</time>
      </trkpt>
      <trkpt lat="49.19137" lon="6.0041">
        <ele>318.39999389648</ele>
        <time>2023-08-05T16:47:09.000Z</time>
      </trkpt>
      <trkpt lat="49.19147" lon="6.00364">
        <ele>318.20001220703</ele>
        <time>2023-08-05T16:47:15.000Z</time>
      </trkpt>
      <trkpt lat="49.19162" lon="6.00302">
        <ele>317.39999389648</ele>
        <time>2023-08-05T16:47:22.000Z</time>
      </trkpt>
      <trkpt lat="49.1917" lon="6.00266">
        <ele>317.20001220703</ele>
        <time>2023-08-05T16:47:26.000Z</time>
      </trkpt>
      <trkpt lat="49.19171" lon="6.00247">
        <ele>317.20001220703</ele>
        <time>2023-08-05T16:47:28.000Z</time>
      </trkpt>
      <trkpt lat="49.19174" lon="6.00209">
        <ele>317</ele>
        <time>2023-08-05T16:47:32.000Z</time>
      </trkpt>
      <trkpt lat="49.19179" lon="6.00193">
        <ele>316.79998779297</ele>
        <time>2023-08-05T16:47:34.000Z</time>
      </trkpt>
      <trkpt lat="49.19191" lon="6.0017">
        <ele>316.39999389648</ele>
        <time>2023-08-05T16:47:37.000Z</time>
      </trkpt>
      <trkpt lat="49.19202" lon="6.00158">
        <ele>316.20001220703</ele>
        <time>2023-08-05T16:47:39.000Z</time>
      </trkpt>
      <trkpt lat="49.19231" lon="6.00133">
        <ele>315</ele>
        <time>2023-08-05T16:47:44.000Z</time>
      </trkpt>
      <trkpt lat="49.19249" lon="6.00122">
        <ele>314.60000610352</ele>
        <time>2023-08-05T16:47:47.000Z</time>
      </trkpt>
      <trkpt lat="49.19274" lon="6.00107">
        <ele>314</ele>
        <time>2023-08-05T16:47:51.000Z</time>
      </trkpt>
      <trkpt lat="49.19291" lon="6.00096">
        <ele>313.60000610352</ele>
        <time>2023-08-05T16:47:54.000Z</time>
      </trkpt>
      <trkpt lat="49.19303" lon="6.00089">
        <ele>313.39999389648</ele>
        <time>2023-08-05T16:47:57.000Z</time>
      </trkpt>
      <trkpt lat="49.19306" lon="6.00089">
        <ele>313.20001220703</ele>
        <time>2023-08-05T16:47:58.000Z</time>
      </trkpt>
      <trkpt lat="49.19308" lon="6.00088">
        <ele>313</ele>
        <time>2023-08-05T16:47:59.000Z</time>
      </trkpt>
      <trkpt lat="49.1931" lon="6.00087">
        <ele>313</ele>
        <time>2023-08-05T16:48:00.000Z</time>
      </trkpt>
      <trkpt lat="49.19315" lon="6.00082">
        <ele>312.79998779297</ele>
        <time>2023-08-05T16:48:02.000Z</time>
      </trkpt>
      <trkpt lat="49.1932" lon="6.00079">
        <ele>312.60000610352</ele>
        <time>2023-08-05T16:48:07.000Z</time>
      </trkpt>
      <trkpt lat="49.19323" lon="6.00076">
        <ele>312.79998779297</ele>
        <time>2023-08-05T16:48:28.000Z</time>
      </trkpt>
      <trkpt lat="49.1933" lon="6.0007">
        <ele>313</ele>
        <time>2023-08-05T16:48:31.000Z</time>
      </trkpt>
      <trkpt lat="49.19345" lon="6.00051">
        <ele>313</ele>
        <time>2023-08-05T16:48:36.000Z</time>
      </trkpt>
      <trkpt lat="49.19368" lon="6.00025">
        <ele>312.60000610352</ele>
        <time>2023-08-05T16:48:42.000Z</time>
      </trkpt>
      <trkpt lat="49.19376" lon="6.00013">
        <ele>312.60000610352</ele>
        <time>2023-08-05T16:48:44.000Z</time>
      </trkpt>
      <trkpt lat="49.19388" lon="5.99996">
        <ele>312.60000610352</ele>
        <time>2023-08-05T16:48:47.000Z</time>
      </trkpt>
      <trkpt lat="49.19406" lon="5.99973">
        <ele>312.20001220703</ele>
        <time>2023-08-05T16:48:51.000Z</time>
      </trkpt>
      <trkpt lat="49.1943" lon="5.99942">
        <ele>311.60000610352</ele>
        <time>2023-08-05T16:48:56.000Z</time>
      </trkpt>
      <trkpt lat="49.19451" lon="5.99916">
        <ele>311</ele>
        <time>2023-08-05T16:49:00.000Z</time>
      </trkpt>
      <trkpt lat="49.19472" lon="5.9989">
        <ele>310.39999389648</ele>
        <time>2023-08-05T16:49:04.000Z</time>
      </trkpt>
      <trkpt lat="49.19489" lon="5.9987">
        <ele>309.79998779297</ele>
        <time>2023-08-05T16:49:07.000Z</time>
      </trkpt>
      <trkpt lat="49.19494" lon="5.99863">
        <ele>309.60000610352</ele>
        <time>2023-08-05T16:49:08.000Z</time>
      </trkpt>
      <trkpt lat="49.19528" lon="5.99818">
        <ele>308.39999389648</ele>
        <time>2023-08-05T16:49:14.000Z</time>
      </trkpt>
      <trkpt lat="49.19546" lon="5.99795">
        <ele>307.79998779297</ele>
        <time>2023-08-05T16:49:17.000Z</time>
      </trkpt>
      <trkpt lat="49.19568" lon="5.99765">
        <ele>307.39999389648</ele>
        <time>2023-08-05T16:49:21.000Z</time>
      </trkpt>
      <trkpt lat="49.19577" lon="5.99754">
        <ele>306.79998779297</ele>
        <time>2023-08-05T16:49:23.000Z</time>
      </trkpt>
      <trkpt lat="49.19584" lon="5.99745">
        <ele>306.20001220703</ele>
        <time>2023-08-05T16:49:25.000Z</time>
      </trkpt>
      <trkpt lat="49.19587" lon="5.99739">
        <ele>305.79998779297</ele>
        <time>2023-08-05T16:49:26.000Z</time>
      </trkpt>
      <trkpt lat="49.19591" lon="5.99727">
        <ele>305.39999389648</ele>
        <time>2023-08-05T16:49:28.000Z</time>
      </trkpt>
      <trkpt lat="49.19592" lon="5.99721">
        <ele>305.20001220703</ele>
        <time>2023-08-05T16:49:29.000Z</time>
      </trkpt>
      <trkpt lat="49.19595" lon="5.99708">
        <ele>304.79998779297</ele>
        <time>2023-08-05T16:49:32.000Z</time>
      </trkpt>
      <trkpt lat="49.19603" lon="5.99694">
        <ele>304.20001220703</ele>
        <time>2023-08-05T16:49:36.000Z</time>
      </trkpt>
      <trkpt lat="49.19604" lon="5.99691">
        <ele>304</ele>
        <time>2023-08-05T16:49:37.000Z</time>
      </trkpt>
      <trkpt lat="49.19604" lon="5.9968">
        <ele>303.60000610352</ele>
        <time>2023-08-05T16:49:40.000Z</time>
      </trkpt>
      <trkpt lat="49.19605" lon="5.99677">
        <ele>303.39999389648</ele>
        <time>2023-08-05T16:49:41.000Z</time>
      </trkpt>
      <trkpt lat="49.19605" lon="5.99675">
        <ele>303.39999389648</ele>
        <time>2023-08-05T16:49:42.000Z</time>
      </trkpt>
      <trkpt lat="49.19606" lon="5.99674">
        <ele>303.20001220703</ele>
        <time>2023-08-05T16:49:45.000Z</time>
      </trkpt>
      <trkpt lat="49.19616" lon="5.99682">
        <ele>303.20001220703</ele>
        <time>2023-08-05T16:56:57.000Z</time>
      </trkpt>
      <trkpt lat="49.1962" lon="5.99678">
        <ele>303.20001220703</ele>
        <time>2023-08-05T16:56:59.000Z</time>
      </trkpt>
      <trkpt lat="49.19633" lon="5.9966">
        <ele>302.79998779297</ele>
        <time>2023-08-05T16:57:06.000Z</time>
      </trkpt>
      <trkpt lat="49.19634" lon="5.9966">
        <ele>302.60000610352</ele>
        <time>2023-08-05T16:57:09.000Z</time>
      </trkpt>
      <trkpt lat="49.19636" lon="5.99661">
        <ele>302.79998779297</ele>
        <time>2023-08-05T16:57:57.000Z</time>
      </trkpt>
      <trkpt lat="49.19648" lon="5.99654">
        <ele>302.79998779297</ele>
        <time>2023-08-05T16:58:01.000Z</time>
      </trkpt>
      <trkpt lat="49.19665" lon="5.99636">
        <ele>302.60000610352</ele>
        <time>2023-08-05T16:58:05.000Z</time>
      </trkpt>
      <trkpt lat="49.19674" lon="5.99625">
        <ele>302.39999389648</ele>
        <time>2023-08-05T16:58:07.000Z</time>
      </trkpt>
      <trkpt lat="49.19707" lon="5.99583">
        <ele>301.39999389648</ele>
        <time>2023-08-05T16:58:14.000Z</time>
      </trkpt>
      <trkpt lat="49.19718" lon="5.99571">
        <ele>301.39999389648</ele>
        <time>2023-08-05T16:58:16.000Z</time>
      </trkpt>
      <trkpt lat="49.19738" lon="5.99546">
        <ele>300.20001220703</ele>
        <time>2023-08-05T16:58:20.000Z</time>
      </trkpt>
      <trkpt lat="49.19743" lon="5.99541">
        <ele>300</ele>
        <time>2023-08-05T16:58:21.000Z</time>
      </trkpt>
      <trkpt lat="49.19754" lon="5.99534">
        <ele>299.60000610352</ele>
        <time>2023-08-05T16:58:23.000Z</time>
      </trkpt>
      <trkpt lat="49.19759" lon="5.99529">
        <ele>299.60000610352</ele>
        <time>2023-08-05T16:58:24.000Z</time>
      </trkpt>
      <trkpt lat="49.19762" lon="5.99522">
        <ele>299.20001220703</ele>
        <time>2023-08-05T16:58:25.000Z</time>
      </trkpt>
      <trkpt lat="49.19764" lon="5.99515">
        <ele>299.39999389648</ele>
        <time>2023-08-05T16:58:26.000Z</time>
      </trkpt>
      <trkpt lat="49.19771" lon="5.99502">
        <ele>299.20001220703</ele>
        <time>2023-08-05T16:58:28.000Z</time>
      </trkpt>
      <trkpt lat="49.19801" lon="5.99468">
        <ele>298.39999389648</ele>
        <time>2023-08-05T16:58:34.000Z</time>
      </trkpt>
      <trkpt lat="49.19806" lon="5.99462">
        <ele>298.39999389648</ele>
        <time>2023-08-05T16:58:35.000Z</time>
      </trkpt>
      <trkpt lat="49.19829" lon="5.99433">
        <ele>297.20001220703</ele>
        <time>2023-08-05T16:58:40.000Z</time>
      </trkpt>
      <trkpt lat="49.19849" lon="5.99408">
        <ele>296.39999389648</ele>
        <time>2023-08-05T16:58:44.000Z</time>
      </trkpt>
      <trkpt lat="49.19854" lon="5.99402">
        <ele>296.20001220703</ele>
        <time>2023-08-05T16:58:45.000Z</time>
      </trkpt>
      <trkpt lat="49.19887" lon="5.99362">
        <ele>295.60000610352</ele>
        <time>2023-08-05T16:58:51.000Z</time>
      </trkpt>
      <trkpt lat="49.19899" lon="5.99348">
        <ele>295</ele>
        <time>2023-08-05T16:58:53.000Z</time>
      </trkpt>
      <trkpt lat="49.19917" lon="5.99325">
        <ele>294.20001220703</ele>
        <time>2023-08-05T16:58:56.000Z</time>
      </trkpt>
      <trkpt lat="49.19923" lon="5.99317">
        <ele>293.79998779297</ele>
        <time>2023-08-05T16:58:57.000Z</time>
      </trkpt>
      <trkpt lat="49.1996" lon="5.99271">
        <ele>292.60000610352</ele>
        <time>2023-08-05T16:59:03.000Z</time>
      </trkpt>
      <trkpt lat="49.19983" lon="5.9924">
        <ele>291.60000610352</ele>
        <time>2023-08-05T16:59:07.000Z</time>
      </trkpt>
      <trkpt lat="49.19999" lon="5.99219">
        <ele>291.20001220703</ele>
        <time>2023-08-05T16:59:10.000Z</time>
      </trkpt>
      <trkpt lat="49.20032" lon="5.99176">
        <ele>291</ele>
        <time>2023-08-05T16:59:17.000Z</time>
      </trkpt>
      <trkpt lat="49.20073" lon="5.99122">
        <ele>291</ele>
        <time>2023-08-05T16:59:26.000Z</time>
      </trkpt>
      <trkpt lat="49.20086" lon="5.99105">
        <ele>291</ele>
        <time>2023-08-05T16:59:29.000Z</time>
      </trkpt>
      <trkpt lat="49.20098" lon="5.99098">
        <ele>291</ele>
        <time>2023-08-05T16:59:31.000Z</time>
      </trkpt>
      <trkpt lat="49.20104" lon="5.99095">
        <ele>291</ele>
        <time>2023-08-05T16:59:32.000Z</time>
      </trkpt>
      <trkpt lat="49.20114" lon="5.99084">
        <ele>290.79998779297</ele>
        <time>2023-08-05T16:59:34.000Z</time>
      </trkpt>
      <trkpt lat="49.20124" lon="5.99057">
        <ele>290.60000610352</ele>
        <time>2023-08-05T16:59:37.000Z</time>
      </trkpt>
      <trkpt lat="49.20129" lon="5.99049">
        <ele>290.39999389648</ele>
        <time>2023-08-05T16:59:38.000Z</time>
      </trkpt>
      <trkpt lat="49.20146" lon="5.99025">
        <ele>289.79998779297</ele>
        <time>2023-08-05T16:59:41.000Z</time>
      </trkpt>
      <trkpt lat="49.20153" lon="5.99017">
        <ele>289.39999389648</ele>
        <time>2023-08-05T16:59:42.000Z</time>
      </trkpt>
      <trkpt lat="49.20159" lon="5.99008">
        <ele>289.20001220703</ele>
        <time>2023-08-05T16:59:43.000Z</time>
      </trkpt>
      <trkpt lat="49.20173" lon="5.98991">
        <ele>288.39999389648</ele>
        <time>2023-08-05T16:59:45.000Z</time>
      </trkpt>
      <trkpt lat="49.20187" lon="5.98973">
        <ele>287.20001220703</ele>
        <time>2023-08-05T16:59:47.000Z</time>
      </trkpt>
      <trkpt lat="49.20194" lon="5.98964">
        <ele>286.79998779297</ele>
        <time>2023-08-05T16:59:48.000Z</time>
      </trkpt>
      <trkpt lat="49.20201" lon="5.98954">
        <ele>286</ele>
        <time>2023-08-05T16:59:49.000Z</time>
      </trkpt>
      <trkpt lat="49.20207" lon="5.98946">
        <ele>285.79998779297</ele>
        <time>2023-08-05T16:59:50.000Z</time>
      </trkpt>
      <trkpt lat="49.2022" lon="5.9893">
        <ele>284.60000610352</ele>
        <time>2023-08-05T16:59:52.000Z</time>
      </trkpt>
      <trkpt lat="49.20238" lon="5.98907">
        <ele>284.20001220703</ele>
        <time>2023-08-05T16:59:55.000Z</time>
      </trkpt>
      <trkpt lat="49.20267" lon="5.98871">
        <ele>284.39999389648</ele>
        <time>2023-08-05T17:00:01.000Z</time>
      </trkpt>
      <trkpt lat="49.20291" lon="5.98842">
        <ele>286</ele>
        <time>2023-08-05T17:00:07.000Z</time>
      </trkpt>
      <trkpt lat="49.20307" lon="5.9882">
        <ele>287</ele>
        <time>2023-08-05T17:00:12.000Z</time>
      </trkpt>
      <trkpt lat="49.20315" lon="5.9881">
        <ele>287.60000610352</ele>
        <time>2023-08-05T17:00:14.000Z</time>
      </trkpt>
      <trkpt lat="49.20326" lon="5.98797">
        <ele>288.20001220703</ele>
        <time>2023-08-05T17:00:17.000Z</time>
      </trkpt>
      <trkpt lat="49.20347" lon="5.98772">
        <ele>288.79998779297</ele>
        <time>2023-08-05T17:00:23.000Z</time>
      </trkpt>
      <trkpt lat="49.20381" lon="5.9873">
        <ele>288.39999389648</ele>
        <time>2023-08-05T17:00:31.000Z</time>
      </trkpt>
      <trkpt lat="49.20411" lon="5.9869">
        <ele>287.79998779297</ele>
        <time>2023-08-05T17:00:37.000Z</time>
      </trkpt>
      <trkpt lat="49.20423" lon="5.98676">
        <ele>287</ele>
        <time>2023-08-05T17:00:39.000Z</time>
      </trkpt>
      <trkpt lat="49.20438" lon="5.98656">
        <ele>285.79998779297</ele>
        <time>2023-08-05T17:00:42.000Z</time>
      </trkpt>
      <trkpt lat="49.20444" lon="5.98648">
        <ele>285.60000610352</ele>
        <time>2023-08-05T17:00:43.000Z</time>
      </trkpt>
      <trkpt lat="49.20464" lon="5.98623">
        <ele>284.60000610352</ele>
        <time>2023-08-05T17:00:46.000Z</time>
      </trkpt>
      <trkpt lat="49.20483" lon="5.98597">
        <ele>283.39999389648</ele>
        <time>2023-08-05T17:00:49.000Z</time>
      </trkpt>
      <trkpt lat="49.20508" lon="5.98565">
        <ele>282.20001220703</ele>
        <time>2023-08-05T17:00:53.000Z</time>
      </trkpt>
      <trkpt lat="49.20531" lon="5.98537">
        <ele>281.79998779297</ele>
        <time>2023-08-05T17:00:57.000Z</time>
      </trkpt>
      <trkpt lat="49.2057" lon="5.98487">
        <ele>281.79998779297</ele>
        <time>2023-08-05T17:01:05.000Z</time>
      </trkpt>
      <trkpt lat="49.20598" lon="5.98449">
        <ele>282.60000610352</ele>
        <time>2023-08-05T17:01:12.000Z</time>
      </trkpt>
      <trkpt lat="49.20636" lon="5.98398">
        <ele>282.60000610352</ele>
        <time>2023-08-05T17:01:20.000Z</time>
      </trkpt>
      <trkpt lat="49.20677" lon="5.98348">
        <ele>281</ele>
        <time>2023-08-05T17:01:27.000Z</time>
      </trkpt>
      <trkpt lat="49.20703" lon="5.98315">
        <ele>280.20001220703</ele>
        <time>2023-08-05T17:01:31.000Z</time>
      </trkpt>
      <trkpt lat="49.20716" lon="5.98299">
        <ele>279.39999389648</ele>
        <time>2023-08-05T17:01:33.000Z</time>
      </trkpt>
      <trkpt lat="49.20723" lon="5.98291">
        <ele>279</ele>
        <time>2023-08-05T17:01:34.000Z</time>
      </trkpt>
      <trkpt lat="49.20741" lon="5.98267">
        <ele>277.79998779297</ele>
        <time>2023-08-05T17:01:37.000Z</time>
      </trkpt>
      <trkpt lat="49.20747" lon="5.98259">
        <ele>277.39999389648</ele>
        <time>2023-08-05T17:01:38.000Z</time>
      </trkpt>
      <trkpt lat="49.20753" lon="5.98251">
        <ele>276.60000610352</ele>
        <time>2023-08-05T17:01:39.000Z</time>
      </trkpt>
      <trkpt lat="49.20772" lon="5.98227">
        <ele>275.39999389648</ele>
        <time>2023-08-05T17:01:42.000Z</time>
      </trkpt>
      <trkpt lat="49.20803" lon="5.98187">
        <ele>274.39999389648</ele>
        <time>2023-08-05T17:01:47.000Z</time>
      </trkpt>
      <trkpt lat="49.20828" lon="5.98155">
        <ele>273.79998779297</ele>
        <time>2023-08-05T17:01:51.000Z</time>
      </trkpt>
      <trkpt lat="49.20852" lon="5.98123">
        <ele>273</ele>
        <time>2023-08-05T17:01:55.000Z</time>
      </trkpt>
      <trkpt lat="49.20864" lon="5.98106">
        <ele>272</ele>
        <time>2023-08-05T17:01:57.000Z</time>
      </trkpt>
      <trkpt lat="49.20883" lon="5.98078">
        <ele>271</ele>
        <time>2023-08-05T17:02:00.000Z</time>
      </trkpt>
      <trkpt lat="49.20904" lon="5.9805">
        <ele>270.20001220703</ele>
        <time>2023-08-05T17:02:03.000Z</time>
      </trkpt>
      <trkpt lat="49.20921" lon="5.98034">
        <ele>269.39999389648</ele>
        <time>2023-08-05T17:02:05.000Z</time>
      </trkpt>
      <trkpt lat="49.2093" lon="5.98028">
        <ele>269</ele>
        <time>2023-08-05T17:02:06.000Z</time>
      </trkpt>
      <trkpt lat="49.20939" lon="5.98023">
        <ele>268.39999389648</ele>
        <time>2023-08-05T17:02:07.000Z</time>
      </trkpt>
      <trkpt lat="49.20949" lon="5.9802">
        <ele>267.60000610352</ele>
        <time>2023-08-05T17:02:08.000Z</time>
      </trkpt>
      <trkpt lat="49.20959" lon="5.98019">
        <ele>267.20001220703</ele>
        <time>2023-08-05T17:02:09.000Z</time>
      </trkpt>
      <trkpt lat="49.20969" lon="5.98019">
        <ele>266.39999389648</ele>
        <time>2023-08-05T17:02:10.000Z</time>
      </trkpt>
      <trkpt lat="49.20979" lon="5.98019">
        <ele>266</ele>
        <time>2023-08-05T17:02:11.000Z</time>
      </trkpt>
      <trkpt lat="49.20999" lon="5.98019">
        <ele>264.79998779297</ele>
        <time>2023-08-05T17:02:13.000Z</time>
      </trkpt>
      <trkpt lat="49.21019" lon="5.98018">
        <ele>263.39999389648</ele>
        <time>2023-08-05T17:02:15.000Z</time>
      </trkpt>
      <trkpt lat="49.21038" lon="5.98014">
        <ele>262.20001220703</ele>
        <time>2023-08-05T17:02:17.000Z</time>
      </trkpt>
      <trkpt lat="49.21048" lon="5.98011">
        <ele>262</ele>
        <time>2023-08-05T17:02:18.000Z</time>
      </trkpt>
      <trkpt lat="49.21057" lon="5.98007">
        <ele>261.20001220703</ele>
        <time>2023-08-05T17:02:19.000Z</time>
      </trkpt>
      <trkpt lat="49.21076" lon="5.97997">
        <ele>260</ele>
        <time>2023-08-05T17:02:21.000Z</time>
      </trkpt>
      <trkpt lat="49.21085" lon="5.9799">
        <ele>259.39999389648</ele>
        <time>2023-08-05T17:02:22.000Z</time>
      </trkpt>
      <trkpt lat="49.21103" lon="5.97976">
        <ele>258</ele>
        <time>2023-08-05T17:02:24.000Z</time>
      </trkpt>
      <trkpt lat="49.2112" lon="5.9796">
        <ele>257</ele>
        <time>2023-08-05T17:02:26.000Z</time>
      </trkpt>
      <trkpt lat="49.21137" lon="5.97942">
        <ele>255.60000610352</ele>
        <time>2023-08-05T17:02:28.000Z</time>
      </trkpt>
      <trkpt lat="49.21145" lon="5.97933">
        <ele>254.80000305176</ele>
        <time>2023-08-05T17:02:29.000Z</time>
      </trkpt>
      <trkpt lat="49.21152" lon="5.97923">
        <ele>254.19999694824</ele>
        <time>2023-08-05T17:02:30.000Z</time>
      </trkpt>
      <trkpt lat="49.21165" lon="5.97904">
        <ele>253.19999694824</ele>
        <time>2023-08-05T17:02:32.000Z</time>
      </trkpt>
      <trkpt lat="49.21171" lon="5.97894">
        <ele>252.19999694824</ele>
        <time>2023-08-05T17:02:33.000Z</time>
      </trkpt>
      <trkpt lat="49.21177" lon="5.97883">
        <ele>251.39999389648</ele>
        <time>2023-08-05T17:02:34.000Z</time>
      </trkpt>
      <trkpt lat="49.21186" lon="5.97863">
        <ele>249.80000305176</ele>
        <time>2023-08-05T17:02:36.000Z</time>
      </trkpt>
      <trkpt lat="49.21195" lon="5.97842">
        <ele>248.39999389648</ele>
        <time>2023-08-05T17:02:38.000Z</time>
      </trkpt>
      <trkpt lat="49.21201" lon="5.97821">
        <ele>247.39999389648</ele>
        <time>2023-08-05T17:02:40.000Z</time>
      </trkpt>
      <trkpt lat="49.21203" lon="5.9781">
        <ele>246.60000610352</ele>
        <time>2023-08-05T17:02:41.000Z</time>
      </trkpt>
      <trkpt lat="49.21202" lon="5.97799">
        <ele>246.39999389648</ele>
        <time>2023-08-05T17:02:42.000Z</time>
      </trkpt>
      <trkpt lat="49.21196" lon="5.97779">
        <ele>245.19999694824</ele>
        <time>2023-08-05T17:02:44.000Z</time>
      </trkpt>
      <trkpt lat="49.21191" lon="5.9777">
        <ele>244.39999389648</ele>
        <time>2023-08-05T17:02:45.000Z</time>
      </trkpt>
      <trkpt lat="49.21184" lon="5.97763">
        <ele>243.80000305176</ele>
        <time>2023-08-05T17:02:46.000Z</time>
      </trkpt>
      <trkpt lat="49.21169" lon="5.97757">
        <ele>243</ele>
        <time>2023-08-05T17:02:48.000Z</time>
      </trkpt>
      <trkpt lat="49.21161" lon="5.97755">
        <ele>242.60000610352</ele>
        <time>2023-08-05T17:02:49.000Z</time>
      </trkpt>
      <trkpt lat="49.21154" lon="5.97753">
        <ele>242.19999694824</ele>
        <time>2023-08-05T17:02:50.000Z</time>
      </trkpt>
      <trkpt lat="49.21141" lon="5.97743">
        <ele>241.60000610352</ele>
        <time>2023-08-05T17:02:52.000Z</time>
      </trkpt>
      <trkpt lat="49.21131" lon="5.97728">
        <ele>241</ele>
        <time>2023-08-05T17:02:54.000Z</time>
      </trkpt>
      <trkpt lat="49.21125" lon="5.9771">
        <ele>240.60000610352</ele>
        <time>2023-08-05T17:02:56.000Z</time>
      </trkpt>
      <trkpt lat="49.21117" lon="5.97664">
        <ele>240.19999694824</ele>
        <time>2023-08-05T17:03:02.000Z</time>
      </trkpt>
      <trkpt lat="49.21115" lon="5.97609">
        <ele>240.60000610352</ele>
        <time>2023-08-05T17:03:07.000Z</time>
      </trkpt>
      <trkpt lat="49.21124" lon="5.9755">
        <ele>240.39999389648</ele>
        <time>2023-08-05T17:03:14.000Z</time>
      </trkpt>
      <trkpt lat="49.21132" lon="5.97537">
        <ele>240.39999389648</ele>
        <time>2023-08-05T17:03:16.000Z</time>
      </trkpt>
      <trkpt lat="49.21142" lon="5.97528">
        <ele>240.19999694824</ele>
        <time>2023-08-05T17:03:18.000Z</time>
      </trkpt>
      <trkpt lat="49.2119" lon="5.97505">
        <ele>239.60000610352</ele>
        <time>2023-08-05T17:03:26.000Z</time>
      </trkpt>
      <trkpt lat="49.21196" lon="5.97502">
        <ele>239.60000610352</ele>
        <time>2023-08-05T17:03:27.000Z</time>
      </trkpt>
      <trkpt lat="49.21242" lon="5.9748">
        <ele>239</ele>
        <time>2023-08-05T17:03:35.000Z</time>
      </trkpt>
      <trkpt lat="49.21269" lon="5.97465">
        <ele>239</ele>
        <time>2023-08-05T17:03:40.000Z</time>
      </trkpt>
      <trkpt lat="49.21283" lon="5.97455">
        <ele>239.19999694824</ele>
        <time>2023-08-05T17:03:43.000Z</time>
      </trkpt>
      <trkpt lat="49.21292" lon="5.97446">
        <ele>239.19999694824</ele>
        <time>2023-08-05T17:03:45.000Z</time>
      </trkpt>
      <trkpt lat="49.2131" lon="5.97424">
        <ele>239.39999389648</ele>
        <time>2023-08-05T17:03:49.000Z</time>
      </trkpt>
      <trkpt lat="49.21328" lon="5.97403">
        <ele>239.60000610352</ele>
        <time>2023-08-05T17:03:53.000Z</time>
      </trkpt>
      <trkpt lat="49.21337" lon="5.97393">
        <ele>239.80000305176</ele>
        <time>2023-08-05T17:03:55.000Z</time>
      </trkpt>
      <trkpt lat="49.21347" lon="5.97381">
        <ele>239.80000305176</ele>
        <time>2023-08-05T17:03:57.000Z</time>
      </trkpt>
      <trkpt lat="49.2136" lon="5.97364">
        <ele>240</ele>
        <time>2023-08-05T17:04:00.000Z</time>
      </trkpt>
      <trkpt lat="49.21381" lon="5.97338">
        <ele>240.19999694824</ele>
        <time>2023-08-05T17:04:05.000Z</time>
      </trkpt>
      <trkpt lat="49.2139" lon="5.97329">
        <ele>240.19999694824</ele>
        <time>2023-08-05T17:04:07.000Z</time>
      </trkpt>
      <trkpt lat="49.21401" lon="5.97313">
        <ele>240.60000610352</ele>
        <time>2023-08-05T17:04:10.000Z</time>
      </trkpt>
      <trkpt lat="49.21414" lon="5.97298">
        <ele>240.80000305176</ele>
        <time>2023-08-05T17:04:13.000Z</time>
      </trkpt>
      <trkpt lat="49.21418" lon="5.97293">
        <ele>241</ele>
        <time>2023-08-05T17:04:14.000Z</time>
      </trkpt>
      <trkpt lat="49.2143" lon="5.97278">
        <ele>241</ele>
        <time>2023-08-05T17:04:17.000Z</time>
      </trkpt>
      <trkpt lat="49.2144" lon="5.9726">
        <ele>241.19999694824</ele>
        <time>2023-08-05T17:04:20.000Z</time>
      </trkpt>
      <trkpt lat="49.21442" lon="5.97254">
        <ele>241.19999694824</ele>
        <time>2023-08-05T17:04:21.000Z</time>
      </trkpt>
      <trkpt lat="49.21449" lon="5.97224">
        <ele>241.60000610352</ele>
        <time>2023-08-05T17:04:25.000Z</time>
      </trkpt>
      <trkpt lat="49.21453" lon="5.97202">
        <ele>241.80000305176</ele>
        <time>2023-08-05T17:04:28.000Z</time>
      </trkpt>
      <trkpt lat="49.21454" lon="5.97195">
        <ele>241.80000305176</ele>
        <time>2023-08-05T17:04:29.000Z</time>
      </trkpt>
      <trkpt lat="49.21455" lon="5.97172">
        <ele>242</ele>
        <time>2023-08-05T17:04:32.000Z</time>
      </trkpt>
      <trkpt lat="49.21459" lon="5.97118">
        <ele>242.60000610352</ele>
        <time>2023-08-05T17:04:39.000Z</time>
      </trkpt>
      <trkpt lat="49.2146" lon="5.97111">
        <ele>242.60000610352</ele>
        <time>2023-08-05T17:04:40.000Z</time>
      </trkpt>
      <trkpt lat="49.21463" lon="5.97064">
        <ele>243</ele>
        <time>2023-08-05T17:04:46.000Z</time>
      </trkpt>
      <trkpt lat="49.21463" lon="5.97056">
        <ele>243</ele>
        <time>2023-08-05T17:04:47.000Z</time>
      </trkpt>
      <trkpt lat="49.21466" lon="5.97042">
        <ele>243.19999694824</ele>
        <time>2023-08-05T17:04:49.000Z</time>
      </trkpt>
      <trkpt lat="49.21467" lon="5.9702">
        <ele>243.39999389648</ele>
        <time>2023-08-05T17:04:52.000Z</time>
      </trkpt>
      <trkpt lat="49.2147" lon="5.97005">
        <ele>243.39999389648</ele>
        <time>2023-08-05T17:04:54.000Z</time>
      </trkpt>
      <trkpt lat="49.21471" lon="5.96997">
        <ele>243.60000610352</ele>
        <time>2023-08-05T17:04:55.000Z</time>
      </trkpt>
      <trkpt lat="49.21474" lon="5.96981">
        <ele>243.60000610352</ele>
        <time>2023-08-05T17:04:57.000Z</time>
      </trkpt>
      <trkpt lat="49.21485" lon="5.96944">
        <ele>243.60000610352</ele>
        <time>2023-08-05T17:05:02.000Z</time>
      </trkpt>
      <trkpt lat="49.21497" lon="5.96914">
        <ele>243.60000610352</ele>
        <time>2023-08-05T17:05:06.000Z</time>
      </trkpt>
      <trkpt lat="49.215" lon="5.96896">
        <ele>243.60000610352</ele>
        <time>2023-08-05T17:05:08.000Z</time>
      </trkpt>
      <trkpt lat="49.21505" lon="5.96881">
        <ele>243.60000610352</ele>
        <time>2023-08-05T17:05:10.000Z</time>
      </trkpt>
      <trkpt lat="49.21521" lon="5.96852">
        <ele>243.39999389648</ele>
        <time>2023-08-05T17:05:14.000Z</time>
      </trkpt>
      <trkpt lat="49.21548" lon="5.96805">
        <ele>243.19999694824</ele>
        <time>2023-08-05T17:05:21.000Z</time>
      </trkpt>
      <trkpt lat="49.2157" lon="5.96776">
        <ele>243.19999694824</ele>
        <time>2023-08-05T17:05:26.000Z</time>
      </trkpt>
      <trkpt lat="49.2158" lon="5.96766">
        <ele>243</ele>
        <time>2023-08-05T17:05:28.000Z</time>
      </trkpt>
      <trkpt lat="49.21595" lon="5.96753">
        <ele>243</ele>
        <time>2023-08-05T17:05:32.000Z</time>
      </trkpt>
      <trkpt lat="49.21616" lon="5.96741">
        <ele>242.60000610352</ele>
        <time>2023-08-05T17:05:36.000Z</time>
      </trkpt>
      <trkpt lat="49.21621" lon="5.96737">
        <ele>242.39999389648</ele>
        <time>2023-08-05T17:05:37.000Z</time>
      </trkpt>
      <trkpt lat="49.21627" lon="5.96732">
        <ele>242.19999694824</ele>
        <time>2023-08-05T17:05:38.000Z</time>
      </trkpt>
      <trkpt lat="49.21646" lon="5.96723">
        <ele>241.80000305176</ele>
        <time>2023-08-05T17:05:41.000Z</time>
      </trkpt>
      <trkpt lat="49.21688" lon="5.96709">
        <ele>241.39999389648</ele>
        <time>2023-08-05T17:05:48.000Z</time>
      </trkpt>
      <trkpt lat="49.21717" lon="5.9671">
        <ele>241.39999389648</ele>
        <time>2023-08-05T17:05:53.000Z</time>
      </trkpt>
      <trkpt lat="49.21722" lon="5.96711">
        <ele>241.39999389648</ele>
        <time>2023-08-05T17:05:54.000Z</time>
      </trkpt>
      <trkpt lat="49.21758" lon="5.96726">
        <ele>242.19999694824</ele>
        <time>2023-08-05T17:06:01.000Z</time>
      </trkpt>
      <trkpt lat="49.218" lon="5.96762">
        <ele>242.60000610352</ele>
        <time>2023-08-05T17:06:10.000Z</time>
      </trkpt>
      <trkpt lat="49.21818" lon="5.96782">
        <ele>242.80000305176</ele>
        <time>2023-08-05T17:06:14.000Z</time>
      </trkpt>
      <trkpt lat="49.21835" lon="5.96805">
        <ele>243.19999694824</ele>
        <time>2023-08-05T17:06:19.000Z</time>
      </trkpt>
      <trkpt lat="49.21866" lon="5.96844">
        <ele>243.80000305176</ele>
        <time>2023-08-05T17:06:27.000Z</time>
      </trkpt>
      <trkpt lat="49.21881" lon="5.96864">
        <ele>244.39999389648</ele>
        <time>2023-08-05T17:06:31.000Z</time>
      </trkpt>
      <trkpt lat="49.21904" lon="5.96894">
        <ele>244.60000610352</ele>
        <time>2023-08-05T17:06:37.000Z</time>
      </trkpt>
      <trkpt lat="49.21938" lon="5.96937">
        <ele>244.60000610352</ele>
        <time>2023-08-05T17:06:45.000Z</time>
      </trkpt>
      <trkpt lat="49.21974" lon="5.96981">
        <ele>244.19999694824</ele>
        <time>2023-08-05T17:06:53.000Z</time>
      </trkpt>
      <trkpt lat="49.2199" lon="5.96993">
        <ele>244.19999694824</ele>
        <time>2023-08-05T17:06:56.000Z</time>
      </trkpt>
      <trkpt lat="49.22009" lon="5.97002">
        <ele>244</ele>
        <time>2023-08-05T17:06:59.000Z</time>
      </trkpt>
      <trkpt lat="49.22015" lon="5.97003">
        <ele>244</ele>
        <time>2023-08-05T17:07:00.000Z</time>
      </trkpt>
      <trkpt lat="49.22031" lon="5.97001">
        <ele>244</ele>
        <time>2023-08-05T17:07:03.000Z</time>
      </trkpt>
      <trkpt lat="49.22038" lon="5.96998">
        <ele>244</ele>
        <time>2023-08-05T17:07:04.000Z</time>
      </trkpt>
      <trkpt lat="49.22049" lon="5.96992">
        <ele>243.80000305176</ele>
        <time>2023-08-05T17:07:06.000Z</time>
      </trkpt>
      <trkpt lat="49.22054" lon="5.96987">
        <ele>243.80000305176</ele>
        <time>2023-08-05T17:07:07.000Z</time>
      </trkpt>
      <trkpt lat="49.22059" lon="5.96981">
        <ele>243.80000305176</ele>
        <time>2023-08-05T17:07:08.000Z</time>
      </trkpt>
      <trkpt lat="49.2207" lon="5.96962">
        <ele>243.60000610352</ele>
        <time>2023-08-05T17:07:11.000Z</time>
      </trkpt>
      <trkpt lat="49.22091" lon="5.96918">
        <ele>243.19999694824</ele>
        <time>2023-08-05T17:07:17.000Z</time>
      </trkpt>
      <trkpt lat="49.22096" lon="5.96902">
        <ele>243.19999694824</ele>
        <time>2023-08-05T17:07:19.000Z</time>
      </trkpt>
      <trkpt lat="49.22106" lon="5.9687">
        <ele>243</ele>
        <time>2023-08-05T17:07:23.000Z</time>
      </trkpt>
      <trkpt lat="49.22114" lon="5.96838">
        <ele>242.80000305176</ele>
        <time>2023-08-05T17:07:27.000Z</time>
      </trkpt>
      <trkpt lat="49.22119" lon="5.96821">
        <ele>242.80000305176</ele>
        <time>2023-08-05T17:07:29.000Z</time>
      </trkpt>
      <trkpt lat="49.2212" lon="5.96814">
        <ele>242.80000305176</ele>
        <time>2023-08-05T17:07:30.000Z</time>
      </trkpt>
      <trkpt lat="49.22133" lon="5.96769">
        <ele>242.80000305176</ele>
        <time>2023-08-05T17:07:36.000Z</time>
      </trkpt>
      <trkpt lat="49.22146" lon="5.96743">
        <ele>243.19999694824</ele>
        <time>2023-08-05T17:07:40.000Z</time>
      </trkpt>
      <trkpt lat="49.22153" lon="5.9673">
        <ele>243.19999694824</ele>
        <time>2023-08-05T17:07:42.000Z</time>
      </trkpt>
      <trkpt lat="49.22179" lon="5.96691">
        <ele>243.39999389648</ele>
        <time>2023-08-05T17:07:49.000Z</time>
      </trkpt>
      <trkpt lat="49.22202" lon="5.96663">
        <ele>243.60000610352</ele>
        <time>2023-08-05T17:07:56.000Z</time>
      </trkpt>
      <trkpt lat="49.22241" lon="5.96628">
        <ele>243.60000610352</ele>
        <time>2023-08-05T17:08:04.000Z</time>
      </trkpt>
      <trkpt lat="49.22246" lon="5.96624">
        <ele>243.80000305176</ele>
        <time>2023-08-05T17:08:05.000Z</time>
      </trkpt>
      <trkpt lat="49.22255" lon="5.96617">
        <ele>243.80000305176</ele>
        <time>2023-08-05T17:08:07.000Z</time>
      </trkpt>
      <trkpt lat="49.22271" lon="5.96603">
        <ele>244</ele>
        <time>2023-08-05T17:08:11.000Z</time>
      </trkpt>
      <trkpt lat="49.22275" lon="5.966">
        <ele>244</ele>
        <time>2023-08-05T17:08:12.000Z</time>
      </trkpt>
      <trkpt lat="49.22296" lon="5.96583">
        <ele>244</ele>
        <time>2023-08-05T17:08:18.000Z</time>
      </trkpt>
      <trkpt lat="49.223" lon="5.9658">
        <ele>244.19999694824</ele>
        <time>2023-08-05T17:08:19.000Z</time>
      </trkpt>
      <trkpt lat="49.22309" lon="5.96573">
        <ele>244.19999694824</ele>
        <time>2023-08-05T17:08:21.000Z</time>
      </trkpt>
      <trkpt lat="49.22318" lon="5.96567">
        <ele>244.19999694824</ele>
        <time>2023-08-05T17:08:23.000Z</time>
      </trkpt>
      <trkpt lat="49.22343" lon="5.96545">
        <ele>244.39999389648</ele>
        <time>2023-08-05T17:08:29.000Z</time>
      </trkpt>
      <trkpt lat="49.2236" lon="5.96529">
        <ele>244.60000610352</ele>
        <time>2023-08-05T17:08:33.000Z</time>
      </trkpt>
      <trkpt lat="49.22369" lon="5.96523">
        <ele>244.80000305176</ele>
        <time>2023-08-05T17:08:35.000Z</time>
      </trkpt>
      <trkpt lat="49.22378" lon="5.96516">
        <ele>244.80000305176</ele>
        <time>2023-08-05T17:08:37.000Z</time>
      </trkpt>
      <trkpt lat="49.22382" lon="5.96513">
        <ele>245</ele>
        <time>2023-08-05T17:08:38.000Z</time>
      </trkpt>
      <trkpt lat="49.2239" lon="5.96506">
        <ele>245</ele>
        <time>2023-08-05T17:08:40.000Z</time>
      </trkpt>
      <trkpt lat="49.22404" lon="5.96495">
        <ele>245</ele>
        <time>2023-08-05T17:08:43.000Z</time>
      </trkpt>
      <trkpt lat="49.22414" lon="5.96488">
        <ele>245</ele>
        <time>2023-08-05T17:08:45.000Z</time>
      </trkpt>
      <trkpt lat="49.22419" lon="5.96484">
        <ele>245</ele>
        <time>2023-08-05T17:08:46.000Z</time>
      </trkpt>
      <trkpt lat="49.22444" lon="5.96464">
        <ele>245</ele>
        <time>2023-08-05T17:08:51.000Z</time>
      </trkpt>
      <trkpt lat="49.22449" lon="5.9646">
        <ele>244.80000305176</ele>
        <time>2023-08-05T17:08:52.000Z</time>
      </trkpt>
      <trkpt lat="49.22475" lon="5.96446">
        <ele>244.39999389648</ele>
        <time>2023-08-05T17:08:57.000Z</time>
      </trkpt>
      <trkpt lat="49.2249" lon="5.96439">
        <ele>244.19999694824</ele>
        <time>2023-08-05T17:09:00.000Z</time>
      </trkpt>
      <trkpt lat="49.225" lon="5.96437">
        <ele>244</ele>
        <time>2023-08-05T17:09:02.000Z</time>
      </trkpt>
      <trkpt lat="49.2251" lon="5.96437">
        <ele>244</ele>
        <time>2023-08-05T17:09:04.000Z</time>
      </trkpt>
      <trkpt lat="49.22546" lon="5.96446">
        <ele>244.19999694824</ele>
        <time>2023-08-05T17:09:11.000Z</time>
      </trkpt>
      <trkpt lat="49.22578" lon="5.96471">
        <ele>244.39999389648</ele>
        <time>2023-08-05T17:09:18.000Z</time>
      </trkpt>
      <trkpt lat="49.22599" lon="5.96491">
        <ele>244.60000610352</ele>
        <time>2023-08-05T17:09:23.000Z</time>
      </trkpt>
      <trkpt lat="49.22607" lon="5.96501">
        <ele>244.80000305176</ele>
        <time>2023-08-05T17:09:25.000Z</time>
      </trkpt>
      <trkpt lat="49.22631" lon="5.96527">
        <ele>245</ele>
        <time>2023-08-05T17:09:31.000Z</time>
      </trkpt>
      <trkpt lat="49.22639" lon="5.96534">
        <ele>245</ele>
        <time>2023-08-05T17:09:33.000Z</time>
      </trkpt>
      <trkpt lat="49.22646" lon="5.96543">
        <ele>245.19999694824</ele>
        <time>2023-08-05T17:09:35.000Z</time>
      </trkpt>
      <trkpt lat="49.2265" lon="5.96547">
        <ele>245.39999389648</ele>
        <time>2023-08-05T17:09:36.000Z</time>
      </trkpt>
      <trkpt lat="49.22653" lon="5.96551">
        <ele>245.39999389648</ele>
        <time>2023-08-05T17:09:37.000Z</time>
      </trkpt>
      <trkpt lat="49.2268" lon="5.96581">
        <ele>246</ele>
        <time>2023-08-05T17:09:44.000Z</time>
      </trkpt>
      <trkpt lat="49.22684" lon="5.96585">
        <ele>246</ele>
        <time>2023-08-05T17:09:45.000Z</time>
      </trkpt>
      <trkpt lat="49.22693" lon="5.96593">
        <ele>246.39999389648</ele>
        <time>2023-08-05T17:09:47.000Z</time>
      </trkpt>
      <trkpt lat="49.22701" lon="5.96602">
        <ele>246.80000305176</ele>
        <time>2023-08-05T17:09:49.000Z</time>
      </trkpt>
      <trkpt lat="49.22719" lon="5.96621">
        <ele>247.19999694824</ele>
        <time>2023-08-05T17:09:54.000Z</time>
      </trkpt>
      <trkpt lat="49.22722" lon="5.96625">
        <ele>247.39999389648</ele>
        <time>2023-08-05T17:09:55.000Z</time>
      </trkpt>
      <trkpt lat="49.22726" lon="5.96628">
        <ele>247.39999389648</ele>
        <time>2023-08-05T17:09:56.000Z</time>
      </trkpt>
      <trkpt lat="49.22748" lon="5.96651">
        <ele>248</ele>
        <time>2023-08-05T17:10:02.000Z</time>
      </trkpt>
      <trkpt lat="49.22764" lon="5.96666">
        <ele>248.60000610352</ele>
        <time>2023-08-05T17:10:06.000Z</time>
      </trkpt>
      <trkpt lat="49.22768" lon="5.96669">
        <ele>248.60000610352</ele>
        <time>2023-08-05T17:10:07.000Z</time>
      </trkpt>
      <trkpt lat="49.22777" lon="5.96673">
        <ele>248.80000305176</ele>
        <time>2023-08-05T17:10:09.000Z</time>
      </trkpt>
      <trkpt lat="49.22787" lon="5.96675">
        <ele>249</ele>
        <time>2023-08-05T17:10:11.000Z</time>
      </trkpt>
      <trkpt lat="49.22796" lon="5.96674">
        <ele>249.19999694824</ele>
        <time>2023-08-05T17:10:13.000Z</time>
      </trkpt>
      <trkpt lat="49.22806" lon="5.96672">
        <ele>249.39999389648</ele>
        <time>2023-08-05T17:10:15.000Z</time>
      </trkpt>
      <trkpt lat="49.22819" lon="5.96666">
        <ele>249.60000610352</ele>
        <time>2023-08-05T17:10:18.000Z</time>
      </trkpt>
      <trkpt lat="49.22828" lon="5.9666">
        <ele>249.60000610352</ele>
        <time>2023-08-05T17:10:20.000Z</time>
      </trkpt>
      <trkpt lat="49.22832" lon="5.96657">
        <ele>249.80000305176</ele>
        <time>2023-08-05T17:10:21.000Z</time>
      </trkpt>
      <trkpt lat="49.22856" lon="5.96623">
        <ele>250.39999389648</ele>
        <time>2023-08-05T17:10:28.000Z</time>
      </trkpt>
      <trkpt lat="49.22867" lon="5.96609">
        <ele>250.60000610352</ele>
        <time>2023-08-05T17:10:31.000Z</time>
      </trkpt>
      <trkpt lat="49.22882" lon="5.96589">
        <ele>250.60000610352</ele>
        <time>2023-08-05T17:10:35.000Z</time>
      </trkpt>
      <trkpt lat="49.22906" lon="5.96554">
        <ele>251.19999694824</ele>
        <time>2023-08-05T17:10:42.000Z</time>
      </trkpt>
      <trkpt lat="49.2292" lon="5.96538">
        <ele>251.39999389648</ele>
        <time>2023-08-05T17:10:46.000Z</time>
      </trkpt>
      <trkpt lat="49.22923" lon="5.96532">
        <ele>251.60000610352</ele>
        <time>2023-08-05T17:10:47.000Z</time>
      </trkpt>
      <trkpt lat="49.22942" lon="5.96506">
        <ele>251.80000305176</ele>
        <time>2023-08-05T17:10:52.000Z</time>
      </trkpt>
      <trkpt lat="49.22946" lon="5.96503">
        <ele>251.80000305176</ele>
        <time>2023-08-05T17:10:53.000Z</time>
      </trkpt>
      <trkpt lat="49.2295" lon="5.965">
        <ele>252</ele>
        <time>2023-08-05T17:10:54.000Z</time>
      </trkpt>
      <trkpt lat="49.22959" lon="5.96496">
        <ele>252.19999694824</ele>
        <time>2023-08-05T17:10:56.000Z</time>
      </trkpt>
      <trkpt lat="49.22968" lon="5.96493">
        <ele>252.19999694824</ele>
        <time>2023-08-05T17:10:58.000Z</time>
      </trkpt>
      <trkpt lat="49.22986" lon="5.96491">
        <ele>252.39999389648</ele>
        <time>2023-08-05T17:11:02.000Z</time>
      </trkpt>
      <trkpt lat="49.23" lon="5.9649">
        <ele>252.39999389648</ele>
        <time>2023-08-05T17:11:05.000Z</time>
      </trkpt>
      <trkpt lat="49.2301" lon="5.96489">
        <ele>252.60000610352</ele>
        <time>2023-08-05T17:11:07.000Z</time>
      </trkpt>
      <trkpt lat="49.23038" lon="5.96487">
        <ele>252.80000305176</ele>
        <time>2023-08-05T17:11:13.000Z</time>
      </trkpt>
      <trkpt lat="49.23043" lon="5.96486">
        <ele>253</ele>
        <time>2023-08-05T17:11:14.000Z</time>
      </trkpt>
      <trkpt lat="49.23091" lon="5.96487">
        <ele>253.19999694824</ele>
        <time>2023-08-05T17:11:23.000Z</time>
      </trkpt>
      <trkpt lat="49.23135" lon="5.96488">
        <ele>253.39999389648</ele>
        <time>2023-08-05T17:11:32.000Z</time>
      </trkpt>
      <trkpt lat="49.2314" lon="5.96488">
        <ele>253.60000610352</ele>
        <time>2023-08-05T17:11:33.000Z</time>
      </trkpt>
      <trkpt lat="49.23177" lon="5.96491">
        <ele>254.19999694824</ele>
        <time>2023-08-05T17:11:41.000Z</time>
      </trkpt>
      <trkpt lat="49.23182" lon="5.96493">
        <ele>254.19999694824</ele>
        <time>2023-08-05T17:11:42.000Z</time>
      </trkpt>
      <trkpt lat="49.232" lon="5.96501">
        <ele>254.60000610352</ele>
        <time>2023-08-05T17:11:46.000Z</time>
      </trkpt>
      <trkpt lat="49.23205" lon="5.96504">
        <ele>254.80000305176</ele>
        <time>2023-08-05T17:11:47.000Z</time>
      </trkpt>
      <trkpt lat="49.23214" lon="5.9651">
        <ele>254.80000305176</ele>
        <time>2023-08-05T17:11:49.000Z</time>
      </trkpt>
      <trkpt lat="49.23237" lon="5.96524">
        <ele>255</ele>
        <time>2023-08-05T17:11:54.000Z</time>
      </trkpt>
      <trkpt lat="49.23247" lon="5.9653">
        <ele>255</ele>
        <time>2023-08-05T17:11:56.000Z</time>
      </trkpt>
      <trkpt lat="49.23258" lon="5.96529">
        <ele>255</ele>
        <time>2023-08-05T17:11:58.000Z</time>
      </trkpt>
      <trkpt lat="49.23263" lon="5.96528">
        <ele>255</ele>
        <time>2023-08-05T17:11:59.000Z</time>
      </trkpt>
      <trkpt lat="49.23269" lon="5.96525">
        <ele>254.80000305176</ele>
        <time>2023-08-05T17:12:00.000Z</time>
      </trkpt>
      <trkpt lat="49.23283" lon="5.96512">
        <ele>254.80000305176</ele>
        <time>2023-08-05T17:12:03.000Z</time>
      </trkpt>
      <trkpt lat="49.23301" lon="5.96491">
        <ele>254.39999389648</ele>
        <time>2023-08-05T17:12:07.000Z</time>
      </trkpt>
      <trkpt lat="49.23315" lon="5.96474">
        <ele>254.19999694824</ele>
        <time>2023-08-05T17:12:10.000Z</time>
      </trkpt>
      <trkpt lat="49.23324" lon="5.96464">
        <ele>254</ele>
        <time>2023-08-05T17:12:12.000Z</time>
      </trkpt>
      <trkpt lat="49.23338" lon="5.96449">
        <ele>254</ele>
        <time>2023-08-05T17:12:15.000Z</time>
      </trkpt>
      <trkpt lat="49.23347" lon="5.96438">
        <ele>253.80000305176</ele>
        <time>2023-08-05T17:12:17.000Z</time>
      </trkpt>
      <trkpt lat="49.23369" lon="5.96412">
        <ele>253.80000305176</ele>
        <time>2023-08-05T17:12:22.000Z</time>
      </trkpt>
      <trkpt lat="49.23395" lon="5.96376">
        <ele>253.80000305176</ele>
        <time>2023-08-05T17:12:29.000Z</time>
      </trkpt>
      <trkpt lat="49.23417" lon="5.96335">
        <ele>254.80000305176</ele>
        <time>2023-08-05T17:12:36.000Z</time>
      </trkpt>
      <trkpt lat="49.23422" lon="5.96323">
        <ele>254.80000305176</ele>
        <time>2023-08-05T17:12:38.000Z</time>
      </trkpt>
      <trkpt lat="49.23429" lon="5.96302">
        <ele>255.19999694824</ele>
        <time>2023-08-05T17:12:41.000Z</time>
      </trkpt>
      <trkpt lat="49.2343" lon="5.96294">
        <ele>255.19999694824</ele>
        <time>2023-08-05T17:12:42.000Z</time>
      </trkpt>
      <trkpt lat="49.23439" lon="5.9625">
        <ele>255.80000305176</ele>
        <time>2023-08-05T17:12:48.000Z</time>
      </trkpt>
      <trkpt lat="49.23442" lon="5.96235">
        <ele>256</ele>
        <time>2023-08-05T17:12:50.000Z</time>
      </trkpt>
      <trkpt lat="49.23452" lon="5.96184">
        <ele>256.39999389648</ele>
        <time>2023-08-05T17:12:57.000Z</time>
      </trkpt>
      <trkpt lat="49.23461" lon="5.96131">
        <ele>257</ele>
        <time>2023-08-05T17:13:04.000Z</time>
      </trkpt>
      <trkpt lat="49.23466" lon="5.96103">
        <ele>257.20001220703</ele>
        <time>2023-08-05T17:13:08.000Z</time>
      </trkpt>
      <trkpt lat="49.2347" lon="5.96087">
        <ele>257.20001220703</ele>
        <time>2023-08-05T17:13:10.000Z</time>
      </trkpt>
      <trkpt lat="49.23477" lon="5.9607">
        <ele>257.39999389648</ele>
        <time>2023-08-05T17:13:13.000Z</time>
      </trkpt>
      <trkpt lat="49.23482" lon="5.96056">
        <ele>257.39999389648</ele>
        <time>2023-08-05T17:13:15.000Z</time>
      </trkpt>
      <trkpt lat="49.23486" lon="5.96043">
        <ele>257.79998779297</ele>
        <time>2023-08-05T17:13:17.000Z</time>
      </trkpt>
      <trkpt lat="49.23491" lon="5.96028">
        <ele>258</ele>
        <time>2023-08-05T17:13:19.000Z</time>
      </trkpt>
      <trkpt lat="49.23498" lon="5.95997">
        <ele>258</ele>
        <time>2023-08-05T17:13:23.000Z</time>
      </trkpt>
      <trkpt lat="49.23503" lon="5.95983">
        <ele>258.20001220703</ele>
        <time>2023-08-05T17:13:25.000Z</time>
      </trkpt>
      <trkpt lat="49.23518" lon="5.95951">
        <ele>258.60000610352</ele>
        <time>2023-08-05T17:13:30.000Z</time>
      </trkpt>
      <trkpt lat="49.23524" lon="5.95941">
        <ele>258.60000610352</ele>
        <time>2023-08-05T17:13:32.000Z</time>
      </trkpt>
      <trkpt lat="49.23538" lon="5.95917">
        <ele>259</ele>
        <time>2023-08-05T17:13:36.000Z</time>
      </trkpt>
      <trkpt lat="49.23553" lon="5.95894">
        <ele>259.20001220703</ele>
        <time>2023-08-05T17:13:40.000Z</time>
      </trkpt>
      <trkpt lat="49.2356" lon="5.95884">
        <ele>259.20001220703</ele>
        <time>2023-08-05T17:13:42.000Z</time>
      </trkpt>
      <trkpt lat="49.23582" lon="5.95851">
        <ele>259.60000610352</ele>
        <time>2023-08-05T17:13:48.000Z</time>
      </trkpt>
      <trkpt lat="49.23605" lon="5.9582">
        <ele>260</ele>
        <time>2023-08-05T17:13:54.000Z</time>
      </trkpt>
      <trkpt lat="49.23609" lon="5.95815">
        <ele>260</ele>
        <time>2023-08-05T17:13:55.000Z</time>
      </trkpt>
      <trkpt lat="49.23616" lon="5.95808">
        <ele>260</ele>
        <time>2023-08-05T17:13:57.000Z</time>
      </trkpt>
      <trkpt lat="49.23638" lon="5.95786">
        <ele>260</ele>
        <time>2023-08-05T17:14:02.000Z</time>
      </trkpt>
      <trkpt lat="49.23662" lon="5.95756">
        <ele>259.20001220703</ele>
        <time>2023-08-05T17:14:07.000Z</time>
      </trkpt>
      <trkpt lat="49.23674" lon="5.95734">
        <ele>258.79998779297</ele>
        <time>2023-08-05T17:14:10.000Z</time>
      </trkpt>
      <trkpt lat="49.2368" lon="5.95717">
        <ele>258.39999389648</ele>
        <time>2023-08-05T17:14:12.000Z</time>
      </trkpt>
      <trkpt lat="49.23691" lon="5.95664">
        <ele>257.60000610352</ele>
        <time>2023-08-05T17:14:17.000Z</time>
      </trkpt>
      <trkpt lat="49.23696" lon="5.95608">
        <ele>256.20001220703</ele>
        <time>2023-08-05T17:14:22.000Z</time>
      </trkpt>
      <trkpt lat="49.23698" lon="5.95569">
        <ele>255.39999389648</ele>
        <time>2023-08-05T17:14:25.000Z</time>
      </trkpt>
      <trkpt lat="49.23699" lon="5.95548">
        <ele>254.80000305176</ele>
        <time>2023-08-05T17:14:27.000Z</time>
      </trkpt>
      <trkpt lat="49.23703" lon="5.95479">
        <ele>253.80000305176</ele>
        <time>2023-08-05T17:14:33.000Z</time>
      </trkpt>
      <trkpt lat="49.23705" lon="5.95457">
        <ele>253.39999389648</ele>
        <time>2023-08-05T17:14:35.000Z</time>
      </trkpt>
      <trkpt lat="49.23709" lon="5.95388">
        <ele>253</ele>
        <time>2023-08-05T17:14:43.000Z</time>
      </trkpt>
      <trkpt lat="49.23713" lon="5.95324">
        <ele>253.80000305176</ele>
        <time>2023-08-05T17:14:51.000Z</time>
      </trkpt>
      <trkpt lat="49.23714" lon="5.95318">
        <ele>253.80000305176</ele>
        <time>2023-08-05T17:14:52.000Z</time>
      </trkpt>
      <trkpt lat="49.23717" lon="5.95303">
        <ele>254</ele>
        <time>2023-08-05T17:14:54.000Z</time>
      </trkpt>
      <trkpt lat="49.23722" lon="5.95289">
        <ele>254.19999694824</ele>
        <time>2023-08-05T17:14:56.000Z</time>
      </trkpt>
      <trkpt lat="49.23726" lon="5.95278">
        <ele>254.60000610352</ele>
        <time>2023-08-05T17:14:58.000Z</time>
      </trkpt>
      <trkpt lat="49.23729" lon="5.9527">
        <ele>254.60000610352</ele>
        <time>2023-08-05T17:14:59.000Z</time>
      </trkpt>
      <trkpt lat="49.23735" lon="5.95258">
        <ele>254.80000305176</ele>
        <time>2023-08-05T17:15:01.000Z</time>
      </trkpt>
      <trkpt lat="49.23737" lon="5.95254">
        <ele>255</ele>
        <time>2023-08-05T17:15:02.000Z</time>
      </trkpt>
      <trkpt lat="49.2375" lon="5.95232">
        <ele>255.19999694824</ele>
        <time>2023-08-05T17:15:06.000Z</time>
      </trkpt>
      <trkpt lat="49.23759" lon="5.95223">
        <ele>255.19999694824</ele>
        <time>2023-08-05T17:15:08.000Z</time>
      </trkpt>
      <trkpt lat="49.23763" lon="5.9522">
        <ele>255.19999694824</ele>
        <time>2023-08-05T17:15:09.000Z</time>
      </trkpt>
      <trkpt lat="49.23789" lon="5.95206">
        <ele>255.19999694824</ele>
        <time>2023-08-05T17:15:14.000Z</time>
      </trkpt>
      <trkpt lat="49.23799" lon="5.95203">
        <ele>255.19999694824</ele>
        <time>2023-08-05T17:15:16.000Z</time>
      </trkpt>
      <trkpt lat="49.23805" lon="5.95203">
        <ele>255.19999694824</ele>
        <time>2023-08-05T17:15:17.000Z</time>
      </trkpt>
      <trkpt lat="49.23826" lon="5.95201">
        <ele>255.39999389648</ele>
        <time>2023-08-05T17:15:21.000Z</time>
      </trkpt>
      <trkpt lat="49.23848" lon="5.95199">
        <ele>255.39999389648</ele>
        <time>2023-08-05T17:15:25.000Z</time>
      </trkpt>
      <trkpt lat="49.23858" lon="5.95198">
        <ele>255.19999694824</ele>
        <time>2023-08-05T17:15:27.000Z</time>
      </trkpt>
      <trkpt lat="49.23868" lon="5.95197">
        <ele>255</ele>
        <time>2023-08-05T17:15:29.000Z</time>
      </trkpt>
      <trkpt lat="49.23878" lon="5.95197">
        <ele>255</ele>
        <time>2023-08-05T17:15:31.000Z</time>
      </trkpt>
      <trkpt lat="49.23889" lon="5.95198">
        <ele>255</ele>
        <time>2023-08-05T17:15:33.000Z</time>
      </trkpt>
      <trkpt lat="49.23899" lon="5.95202">
        <ele>254.80000305176</ele>
        <time>2023-08-05T17:15:35.000Z</time>
      </trkpt>
      <trkpt lat="49.23903" lon="5.95204">
        <ele>254.80000305176</ele>
        <time>2023-08-05T17:15:36.000Z</time>
      </trkpt>
      <trkpt lat="49.23912" lon="5.95211">
        <ele>254.80000305176</ele>
        <time>2023-08-05T17:15:38.000Z</time>
      </trkpt>
      <trkpt lat="49.2392" lon="5.95219">
        <ele>254.60000610352</ele>
        <time>2023-08-05T17:15:40.000Z</time>
      </trkpt>
      <trkpt lat="49.23938" lon="5.95236">
        <ele>254.39999389648</ele>
        <time>2023-08-05T17:15:45.000Z</time>
      </trkpt>
      <trkpt lat="49.23941" lon="5.95239">
        <ele>254.39999389648</ele>
        <time>2023-08-05T17:15:46.000Z</time>
      </trkpt>
      <trkpt lat="49.23946" lon="5.95242">
        <ele>254.39999389648</ele>
        <time>2023-08-05T17:15:47.000Z</time>
      </trkpt>
      <trkpt lat="49.23956" lon="5.95247">
        <ele>254.60000610352</ele>
        <time>2023-08-05T17:15:49.000Z</time>
      </trkpt>
      <trkpt lat="49.23965" lon="5.95252">
        <ele>255</ele>
        <time>2023-08-05T17:15:51.000Z</time>
      </trkpt>
      <trkpt lat="49.23981" lon="5.95256">
        <ele>255.39999389648</ele>
        <time>2023-08-05T17:15:55.000Z</time>
      </trkpt>
      <trkpt lat="49.24011" lon="5.95258">
        <ele>255.60000610352</ele>
        <time>2023-08-05T17:16:00.000Z</time>
      </trkpt>
      <trkpt lat="49.24018" lon="5.95258">
        <ele>255.60000610352</ele>
        <time>2023-08-05T17:16:01.000Z</time>
      </trkpt>
      <trkpt lat="49.24031" lon="5.95257">
        <ele>255.80000305176</ele>
        <time>2023-08-05T17:16:03.000Z</time>
      </trkpt>
      <trkpt lat="49.24036" lon="5.95256">
        <ele>255.80000305176</ele>
        <time>2023-08-05T17:16:04.000Z</time>
      </trkpt>
      <trkpt lat="49.24048" lon="5.95253">
        <ele>255.80000305176</ele>
        <time>2023-08-05T17:16:06.000Z</time>
      </trkpt>
      <trkpt lat="49.24059" lon="5.95247">
        <ele>256</ele>
        <time>2023-08-05T17:16:08.000Z</time>
      </trkpt>
      <trkpt lat="49.24064" lon="5.95244">
        <ele>256</ele>
        <time>2023-08-05T17:16:09.000Z</time>
      </trkpt>
      <trkpt lat="49.24069" lon="5.95244">
        <ele>256.20001220703</ele>
        <time>2023-08-05T17:16:10.000Z</time>
      </trkpt>
      <trkpt lat="49.2408" lon="5.95237">
        <ele>256.20001220703</ele>
        <time>2023-08-05T17:16:12.000Z</time>
      </trkpt>
      <trkpt lat="49.24089" lon="5.95226">
        <ele>256.39999389648</ele>
        <time>2023-08-05T17:16:14.000Z</time>
      </trkpt>
      <trkpt lat="49.24096" lon="5.95219">
        <ele>256.60000610352</ele>
        <time>2023-08-05T17:16:16.000Z</time>
      </trkpt>
      <trkpt lat="49.24107" lon="5.95202">
        <ele>256.60000610352</ele>
        <time>2023-08-05T17:16:19.000Z</time>
      </trkpt>
      <trkpt lat="49.24111" lon="5.95189">
        <ele>257</ele>
        <time>2023-08-05T17:16:21.000Z</time>
      </trkpt>
      <trkpt lat="49.24119" lon="5.95166">
        <ele>256.79998779297</ele>
        <time>2023-08-05T17:16:25.000Z</time>
      </trkpt>
      <trkpt lat="49.24121" lon="5.95159">
        <ele>256.79998779297</ele>
        <time>2023-08-05T17:16:26.000Z</time>
      </trkpt>
      <trkpt lat="49.24123" lon="5.95144">
        <ele>257</ele>
        <time>2023-08-05T17:16:28.000Z</time>
      </trkpt>
      <trkpt lat="49.24123" lon="5.95136">
        <ele>257</ele>
        <time>2023-08-05T17:16:29.000Z</time>
      </trkpt>
      <trkpt lat="49.24123" lon="5.95127">
        <ele>257</ele>
        <time>2023-08-05T17:16:30.000Z</time>
      </trkpt>
      <trkpt lat="49.24119" lon="5.95088">
        <ele>257</ele>
        <time>2023-08-05T17:16:34.000Z</time>
      </trkpt>
      <trkpt lat="49.24118" lon="5.95077">
        <ele>257</ele>
        <time>2023-08-05T17:16:35.000Z</time>
      </trkpt>
      <trkpt lat="49.24112" lon="5.95024">
        <ele>257.79998779297</ele>
        <time>2023-08-05T17:16:42.000Z</time>
      </trkpt>
      <trkpt lat="49.24108" lon="5.94994">
        <ele>258.20001220703</ele>
        <time>2023-08-05T17:16:46.000Z</time>
      </trkpt>
      <trkpt lat="49.24102" lon="5.9495">
        <ele>258.39999389648</ele>
        <time>2023-08-05T17:16:52.000Z</time>
      </trkpt>
      <trkpt lat="49.24089" lon="5.94883">
        <ele>259</ele>
        <time>2023-08-05T17:17:01.000Z</time>
      </trkpt>
      <trkpt lat="49.24087" lon="5.94876">
        <ele>259.20001220703</ele>
        <time>2023-08-05T17:17:02.000Z</time>
      </trkpt>
      <trkpt lat="49.2407" lon="5.94803">
        <ele>260.20001220703</ele>
        <time>2023-08-05T17:17:12.000Z</time>
      </trkpt>
      <trkpt lat="49.24068" lon="5.94788">
        <ele>260.39999389648</ele>
        <time>2023-08-05T17:17:14.000Z</time>
      </trkpt>
      <trkpt lat="49.24067" lon="5.94765">
        <ele>260.60000610352</ele>
        <time>2023-08-05T17:17:17.000Z</time>
      </trkpt>
      <trkpt lat="49.24068" lon="5.94757">
        <ele>260.79998779297</ele>
        <time>2023-08-05T17:17:18.000Z</time>
      </trkpt>
      <trkpt lat="49.24069" lon="5.94737">
        <ele>260.79998779297</ele>
        <time>2023-08-05T17:17:21.000Z</time>
      </trkpt>
      <trkpt lat="49.24071" lon="5.9473">
        <ele>261.20001220703</ele>
        <time>2023-08-05T17:17:23.000Z</time>
      </trkpt>
      <trkpt lat="49.24074" lon="5.94718">
        <ele>261.39999389648</ele>
        <time>2023-08-05T17:17:24.000Z</time>
      </trkpt>
      <trkpt lat="49.24081" lon="5.94704">
        <ele>261.79998779297</ele>
        <time>2023-08-05T17:17:27.000Z</time>
      </trkpt>
      <trkpt lat="49.2409" lon="5.94689">
        <ele>262.60000610352</ele>
        <time>2023-08-05T17:17:30.000Z</time>
      </trkpt>
      <trkpt lat="49.24101" lon="5.94666">
        <ele>262.79998779297</ele>
        <time>2023-08-05T17:17:34.000Z</time>
      </trkpt>
      <trkpt lat="49.24104" lon="5.9466">
        <ele>263</ele>
        <time>2023-08-05T17:17:35.000Z</time>
      </trkpt>
      <trkpt lat="49.24125" lon="5.94627">
        <ele>263.39999389648</ele>
        <time>2023-08-05T17:17:41.000Z</time>
      </trkpt>
      <trkpt lat="49.24139" lon="5.94608">
        <ele>263.39999389648</ele>
        <time>2023-08-05T17:17:45.000Z</time>
      </trkpt>
      <trkpt lat="49.24147" lon="5.946">
        <ele>263.39999389648</ele>
        <time>2023-08-05T17:17:47.000Z</time>
      </trkpt>
      <trkpt lat="49.24188" lon="5.94571">
        <ele>263.60000610352</ele>
        <time>2023-08-05T17:17:56.000Z</time>
      </trkpt>
      <trkpt lat="49.24214" lon="5.94547">
        <ele>264</ele>
        <time>2023-08-05T17:18:02.000Z</time>
      </trkpt>
      <trkpt lat="49.24218" lon="5.94542">
        <ele>264.20001220703</ele>
        <time>2023-08-05T17:18:03.000Z</time>
      </trkpt>
      <trkpt lat="49.24235" lon="5.94516">
        <ele>264.39999389648</ele>
        <time>2023-08-05T17:18:08.000Z</time>
      </trkpt>
      <trkpt lat="49.24248" lon="5.94496">
        <ele>265</ele>
        <time>2023-08-05T17:18:12.000Z</time>
      </trkpt>
      <trkpt lat="49.24279" lon="5.9444">
        <ele>265.39999389648</ele>
        <time>2023-08-05T17:18:21.000Z</time>
      </trkpt>
      <trkpt lat="49.24299" lon="5.94392">
        <ele>263.79998779297</ele>
        <time>2023-08-05T17:18:27.000Z</time>
      </trkpt>
      <trkpt lat="49.24306" lon="5.94372">
        <ele>263.39999389648</ele>
        <time>2023-08-05T17:18:29.000Z</time>
      </trkpt>
      <trkpt lat="49.24313" lon="5.94343">
        <ele>262.79998779297</ele>
        <time>2023-08-05T17:18:32.000Z</time>
      </trkpt>
      <trkpt lat="49.24317" lon="5.94325">
        <ele>262</ele>
        <time>2023-08-05T17:18:34.000Z</time>
      </trkpt>
      <trkpt lat="49.24322" lon="5.94311">
        <ele>261.60000610352</ele>
        <time>2023-08-05T17:18:36.000Z</time>
      </trkpt>
      <trkpt lat="49.24323" lon="5.94281">
        <ele>261.39999389648</ele>
        <time>2023-08-05T17:18:40.000Z</time>
      </trkpt>
      <trkpt lat="49.24323" lon="5.94267">
        <ele>261.39999389648</ele>
        <time>2023-08-05T17:18:42.000Z</time>
      </trkpt>
      <trkpt lat="49.24322" lon="5.94255">
        <ele>261.39999389648</ele>
        <time>2023-08-05T17:18:44.000Z</time>
      </trkpt>
      <trkpt lat="49.24318" lon="5.94215">
        <ele>261.60000610352</ele>
        <time>2023-08-05T17:18:51.000Z</time>
      </trkpt>
      <trkpt lat="49.24319" lon="5.94194">
        <ele>262.20001220703</ele>
        <time>2023-08-05T17:18:56.000Z</time>
      </trkpt>
      <trkpt lat="49.24326" lon="5.94172">
        <ele>263.20001220703</ele>
        <time>2023-08-05T17:19:03.000Z</time>
      </trkpt>
      <trkpt lat="49.24326" lon="5.94169">
        <ele>263.39999389648</ele>
        <time>2023-08-05T17:19:04.000Z</time>
      </trkpt>
      <trkpt lat="49.24331" lon="5.94159">
        <ele>263.79998779297</ele>
        <time>2023-08-05T17:19:08.000Z</time>
      </trkpt>
      <trkpt lat="49.24338" lon="5.9416">
        <ele>264.20001220703</ele>
        <time>2023-08-05T17:19:11.000Z</time>
      </trkpt>
      <trkpt lat="49.24341" lon="5.94163">
        <ele>264.20001220703</ele>
        <time>2023-08-05T17:19:12.000Z</time>
      </trkpt>
      <trkpt lat="49.24347" lon="5.94175">
        <ele>264.79998779297</ele>
        <time>2023-08-05T17:19:16.000Z</time>
      </trkpt>
      <trkpt lat="49.24347" lon="5.94183">
        <ele>265.20001220703</ele>
        <time>2023-08-05T17:19:18.000Z</time>
      </trkpt>
      <trkpt lat="49.24345" lon="5.94195">
        <ele>265.60000610352</ele>
        <time>2023-08-05T17:19:21.000Z</time>
      </trkpt>
      <trkpt lat="49.24342" lon="5.94216">
        <ele>266.60000610352</ele>
        <time>2023-08-05T17:19:26.000Z</time>
      </trkpt>
      <trkpt lat="49.24343" lon="5.9423">
        <ele>267.20001220703</ele>
        <time>2023-08-05T17:19:29.000Z</time>
      </trkpt>
      <trkpt lat="49.24347" lon="5.94243">
        <ele>267.79998779297</ele>
        <time>2023-08-05T17:19:32.000Z</time>
      </trkpt>
      <trkpt lat="49.24351" lon="5.9425">
        <ele>268</ele>
        <time>2023-08-05T17:19:34.000Z</time>
      </trkpt>
      <trkpt lat="49.24361" lon="5.94262">
        <ele>269</ele>
        <time>2023-08-05T17:19:38.000Z</time>
      </trkpt>
      <trkpt lat="49.24372" lon="5.94279">
        <ele>269.60000610352</ele>
        <time>2023-08-05T17:19:43.000Z</time>
      </trkpt>
      <trkpt lat="49.24377" lon="5.9429">
        <ele>270</ele>
        <time>2023-08-05T17:19:46.000Z</time>
      </trkpt>
      <trkpt lat="49.24381" lon="5.94302">
        <ele>270.39999389648</ele>
        <time>2023-08-05T17:19:49.000Z</time>
      </trkpt>
      <trkpt lat="49.24384" lon="5.94314">
        <ele>271.20001220703</ele>
        <time>2023-08-05T17:19:52.000Z</time>
      </trkpt>
      <trkpt lat="49.24392" lon="5.94331">
        <ele>271.79998779297</ele>
        <time>2023-08-05T17:19:57.000Z</time>
      </trkpt>
      <trkpt lat="49.24397" lon="5.94335">
        <ele>272.20001220703</ele>
        <time>2023-08-05T17:19:59.000Z</time>
      </trkpt>
      <trkpt lat="49.24408" lon="5.94338">
        <ele>272.79998779297</ele>
        <time>2023-08-05T17:20:03.000Z</time>
      </trkpt>
      <trkpt lat="49.24416" lon="5.94336">
        <ele>273.39999389648</ele>
        <time>2023-08-05T17:20:06.000Z</time>
      </trkpt>
      <trkpt lat="49.24424" lon="5.9433">
        <ele>274</ele>
        <time>2023-08-05T17:20:09.000Z</time>
      </trkpt>
      <trkpt lat="49.24431" lon="5.94316">
        <ele>274.60000610352</ele>
        <time>2023-08-05T17:20:13.000Z</time>
      </trkpt>
      <trkpt lat="49.24433" lon="5.94308">
        <ele>275</ele>
        <time>2023-08-05T17:20:15.000Z</time>
      </trkpt>
      <trkpt lat="49.24434" lon="5.9429">
        <ele>275.60000610352</ele>
        <time>2023-08-05T17:20:19.000Z</time>
      </trkpt>
      <trkpt lat="49.24434" lon="5.94286">
        <ele>275.79998779297</ele>
        <time>2023-08-05T17:20:20.000Z</time>
      </trkpt>
      <trkpt lat="49.24428" lon="5.94271">
        <ele>276.39999389648</ele>
        <time>2023-08-05T17:20:24.000Z</time>
      </trkpt>
      <trkpt lat="49.24424" lon="5.94265">
        <ele>276.79998779297</ele>
        <time>2023-08-05T17:20:26.000Z</time>
      </trkpt>
      <trkpt lat="49.24413" lon="5.94255">
        <ele>277.60000610352</ele>
        <time>2023-08-05T17:20:30.000Z</time>
      </trkpt>
      <trkpt lat="49.24403" lon="5.94245">
        <ele>278</ele>
        <time>2023-08-05T17:20:34.000Z</time>
      </trkpt>
      <trkpt lat="49.244" lon="5.94243">
        <ele>278.20001220703</ele>
        <time>2023-08-05T17:20:35.000Z</time>
      </trkpt>
      <trkpt lat="49.24383" lon="5.94224">
        <ele>279</ele>
        <time>2023-08-05T17:20:41.000Z</time>
      </trkpt>
      <trkpt lat="49.24379" lon="5.94214">
        <ele>279.39999389648</ele>
        <time>2023-08-05T17:20:43.000Z</time>
      </trkpt>
      <trkpt lat="49.24379" lon="5.94191">
        <ele>280.20001220703</ele>
        <time>2023-08-05T17:20:48.000Z</time>
      </trkpt>
      <trkpt lat="49.24384" lon="5.94159">
        <ele>281.39999389648</ele>
        <time>2023-08-05T17:20:55.000Z</time>
      </trkpt>
      <trkpt lat="49.24387" lon="5.9415">
        <ele>281.79998779297</ele>
        <time>2023-08-05T17:20:57.000Z</time>
      </trkpt>
      <trkpt lat="49.24391" lon="5.94133">
        <ele>282.60000610352</ele>
        <time>2023-08-05T17:21:01.000Z</time>
      </trkpt>
      <trkpt lat="49.24398" lon="5.94114">
        <ele>283.60000610352</ele>
        <time>2023-08-05T17:21:06.000Z</time>
      </trkpt>
      <trkpt lat="49.24403" lon="5.94101">
        <ele>284.20001220703</ele>
        <time>2023-08-05T17:21:09.000Z</time>
      </trkpt>
      <trkpt lat="49.24408" lon="5.9409">
        <ele>284.79998779297</ele>
        <time>2023-08-05T17:21:12.000Z</time>
      </trkpt>
      <trkpt lat="49.24421" lon="5.9407">
        <ele>285.79998779297</ele>
        <time>2023-08-05T17:21:18.000Z</time>
      </trkpt>
      <trkpt lat="49.24438" lon="5.9405">
        <ele>286.60000610352</ele>
        <time>2023-08-05T17:21:25.000Z</time>
      </trkpt>
      <trkpt lat="49.24443" lon="5.94046">
        <ele>286.79998779297</ele>
        <time>2023-08-05T17:21:27.000Z</time>
      </trkpt>
      <trkpt lat="49.2446" lon="5.94034">
        <ele>288</ele>
        <time>2023-08-05T17:21:33.000Z</time>
      </trkpt>
      <trkpt lat="49.24476" lon="5.9402">
        <ele>289</ele>
        <time>2023-08-05T17:21:39.000Z</time>
      </trkpt>
      <trkpt lat="49.24485" lon="5.94014">
        <ele>289.60000610352</ele>
        <time>2023-08-05T17:21:42.000Z</time>
      </trkpt>
      <trkpt lat="49.24491" lon="5.94011">
        <ele>290.39999389648</ele>
        <time>2023-08-05T17:21:44.000Z</time>
      </trkpt>
      <trkpt lat="49.24502" lon="5.94009">
        <ele>291.20001220703</ele>
        <time>2023-08-05T17:21:48.000Z</time>
      </trkpt>
      <trkpt lat="49.24506" lon="5.94009">
        <ele>291.39999389648</ele>
        <time>2023-08-05T17:21:49.000Z</time>
      </trkpt>
      <trkpt lat="49.2452" lon="5.94016">
        <ele>292.20001220703</ele>
        <time>2023-08-05T17:21:54.000Z</time>
      </trkpt>
      <trkpt lat="49.24525" lon="5.94021">
        <ele>292.39999389648</ele>
        <time>2023-08-05T17:21:56.000Z</time>
      </trkpt>
      <trkpt lat="49.24537" lon="5.94034">
        <ele>293.20001220703</ele>
        <time>2023-08-05T17:22:01.000Z</time>
      </trkpt>
      <trkpt lat="49.24539" lon="5.94037">
        <ele>293.39999389648</ele>
        <time>2023-08-05T17:22:02.000Z</time>
      </trkpt>
      <trkpt lat="49.24555" lon="5.94056">
        <ele>294.60000610352</ele>
        <time>2023-08-05T17:22:08.000Z</time>
      </trkpt>
      <trkpt lat="49.24557" lon="5.94059">
        <ele>294.79998779297</ele>
        <time>2023-08-05T17:22:09.000Z</time>
      </trkpt>
      <trkpt lat="49.24575" lon="5.94081">
        <ele>295.79998779297</ele>
        <time>2023-08-05T17:22:16.000Z</time>
      </trkpt>
      <trkpt lat="49.24581" lon="5.94092">
        <ele>296.20001220703</ele>
        <time>2023-08-05T17:22:19.000Z</time>
      </trkpt>
      <trkpt lat="49.24584" lon="5.94099">
        <ele>296.39999389648</ele>
        <time>2023-08-05T17:22:21.000Z</time>
      </trkpt>
      <trkpt lat="49.24585" lon="5.94113">
        <ele>296.79998779297</ele>
        <time>2023-08-05T17:22:24.000Z</time>
      </trkpt>
      <trkpt lat="49.24586" lon="5.94123">
        <ele>297.20001220703</ele>
        <time>2023-08-05T17:22:27.000Z</time>
      </trkpt>
      <trkpt lat="49.24589" lon="5.94125">
        <ele>297.20001220703</ele>
        <time>2023-08-05T17:22:28.000Z</time>
      </trkpt>
      <trkpt lat="49.24596" lon="5.94138">
        <ele>297.79998779297</ele>
        <time>2023-08-05T17:22:32.000Z</time>
      </trkpt>
      <trkpt lat="49.246" lon="5.94144">
        <ele>298.39999389648</ele>
        <time>2023-08-05T17:22:34.000Z</time>
      </trkpt>
      <trkpt lat="49.24602" lon="5.94147">
        <ele>298.60000610352</ele>
        <time>2023-08-05T17:22:35.000Z</time>
      </trkpt>
      <trkpt lat="49.24602" lon="5.94154">
        <ele>299</ele>
        <time>2023-08-05T17:22:37.000Z</time>
      </trkpt>
      <trkpt lat="49.24605" lon="5.94175">
        <ele>300.20001220703</ele>
        <time>2023-08-05T17:22:42.000Z</time>
      </trkpt>
      <trkpt lat="49.24599" lon="5.94197">
        <ele>301.20001220703</ele>
        <time>2023-08-05T17:22:47.000Z</time>
      </trkpt>
      <trkpt lat="49.24595" lon="5.94205">
        <ele>302</ele>
        <time>2023-08-05T17:22:50.000Z</time>
      </trkpt>
      <trkpt lat="49.24593" lon="5.94205">
        <ele>302.20001220703</ele>
        <time>2023-08-05T17:22:52.000Z</time>
      </trkpt>
      <trkpt lat="49.24585" lon="5.94206">
        <ele>303.39999389648</ele>
        <time>2023-08-05T17:22:57.000Z</time>
      </trkpt>
      <trkpt lat="49.24585" lon="5.94206">
        <ele>303.39999389648</ele>
        <time>2023-08-05T17:22:58.000Z</time>
      </trkpt>
      <trkpt lat="49.24585" lon="5.94206">
        <ele>303.60000610352</ele>
        <time>2023-08-05T17:22:59.000Z</time>
      </trkpt>
    </trkseg>
  </trk>
</gpx>